<?xml version='1.0' encoding='UTF-8'?><gpx version="1.1" creator="JPX - https://github.com/jenetics/jpx" xmlns="http://www.topografix.com/GPX/1/1"><trk><trkseg><trkpt lat="34.415007" lon="8.7794799"><ele>288.00000000000006</ele><time>2026-05-01T07:47:54.468Z</time></trkpt><trkpt lat="34.4150706" lon="8.7794457"><ele>288.0</ele><time>2026-05-01T07:47:56.451Z</time></trkpt><trkpt lat="34.4151367" lon="8.7793991"><ele>288.0</ele><time>2026-05-01T07:47:59.451Z</time></trkpt><trkpt lat="34.4152128" lon="8.7794126"><ele>288.0</ele><time>2026-05-01T07:48:03.469Z</time></trkpt><trkpt lat="34.4152668" lon="8.7794635"><ele>288.0</ele><time>2026-05-01T07:48:06.447Z</time></trkpt><trkpt lat="34.415306" lon="8.7795252"><ele>288.00000000000006</ele><time>2026-05-01T07:48:10.442Z</time></trkpt><trkpt lat="34.415375" lon="8.7795872"><ele>288.0</ele><time>2026-05-01T07:48:21.448Z</time></trkpt><trkpt lat="34.4154424" lon="8.7796297"><ele>287.8</ele><time>2026-05-01T07:48:23.444Z</time></trkpt><trkpt lat="34.4155385" lon="8.7796471"><ele>287.6</ele><time>2026-05-01T07:48:25.453Z</time></trkpt><trkpt lat="34.4156296" lon="8.7796387"><ele>287.4</ele><time>2026-05-01T07:48:27.448Z</time></trkpt><trkpt lat="34.4157141" lon="8.7796165"><ele>287.2</ele><time>2026-05-01T07:48:29.437Z</time></trkpt><trkpt lat="34.4158081" lon="8.7796108"><ele>287.0</ele><time>2026-05-01T07:48:31.482Z</time></trkpt><trkpt lat="34.4159095" lon="8.7796101"><ele>287.0</ele><time>2026-05-01T07:48:33.475Z</time></trkpt><trkpt lat="34.4160287" lon="8.7795998"><ele>287.0</ele><time>2026-05-01T07:48:35.474Z</time></trkpt><trkpt lat="34.416092" lon="8.7795969"><ele>287.0</ele><time>2026-05-01T07:48:36.484Z</time></trkpt><trkpt lat="34.4162114" lon="8.7795813"><ele>287.0</ele><time>2026-05-01T07:48:38.463Z</time></trkpt><trkpt lat="34.4163305" lon="8.7795704"><ele>287.0</ele><time>2026-05-01T07:48:40.474Z</time></trkpt><trkpt lat="34.4163939" lon="8.7795604"><ele>287.75</ele><time>2026-05-01T07:48:41.47Z</time></trkpt><trkpt lat="34.4165089" lon="8.7795377"><ele>288.5</ele><time>2026-05-01T07:48:43.486Z</time></trkpt><trkpt lat="34.416622" lon="8.7795063"><ele>289.25</ele><time>2026-05-01T07:48:45.485Z</time></trkpt><trkpt lat="34.4167441" lon="8.7794967"><ele>290.0</ele><time>2026-05-01T07:48:47.466Z</time></trkpt><trkpt lat="34.4168467" lon="8.7795221"><ele>290.0</ele><time>2026-05-01T07:48:49.489Z</time></trkpt><trkpt lat="34.4169353" lon="8.7795762"><ele>290.0</ele><time>2026-05-01T07:48:51.454Z</time></trkpt><trkpt lat="34.4170172" lon="8.7796553"><ele>290.0</ele><time>2026-05-01T07:48:53.486Z</time></trkpt><trkpt lat="34.41707" lon="8.77978"><ele>290.0</ele><time>2026-05-01T07:48:55.462Z</time></trkpt><trkpt lat="34.4170956" lon="8.7798508"><ele>290.0</ele><time>2026-05-01T07:48:56.483Z</time></trkpt><trkpt lat="34.4171252" lon="8.7799212"><ele>290.0</ele><time>2026-05-01T07:48:57.468Z</time></trkpt><trkpt lat="34.4171814" lon="8.7800594"><ele>290.6666666666667</ele><time>2026-05-01T07:48:59.461Z</time></trkpt><trkpt lat="34.4172054" lon="8.7801371"><ele>291.33333333333337</ele><time>2026-05-01T07:49:00.479Z</time></trkpt><trkpt lat="34.4172387" lon="8.7802103"><ele>292.0</ele><time>2026-05-01T07:49:01.48Z</time></trkpt><trkpt lat="34.4172691" lon="8.7802818"><ele>292.6666666666667</ele><time>2026-05-01T07:49:02.486Z</time></trkpt><trkpt lat="34.4172904" lon="8.7803581"><ele>293.3333333333333</ele><time>2026-05-01T07:49:03.483Z</time></trkpt><trkpt lat="34.4173095" lon="8.7804373"><ele>294.0</ele><time>2026-05-01T07:49:04.461Z</time></trkpt><trkpt lat="34.4173559" lon="8.7805689"><ele>294.0</ele><time>2026-05-01T07:49:06.481Z</time></trkpt><trkpt lat="34.4174282" lon="8.78067"><ele>294.0</ele><time>2026-05-01T07:49:08.479Z</time></trkpt><trkpt lat="34.4174891" lon="8.7807126"><ele>294.0</ele><time>2026-05-01T07:49:10.463Z</time></trkpt><trkpt lat="34.4175638" lon="8.7807597"><ele>294.0</ele><time>2026-05-01T07:50:02.486Z</time></trkpt><trkpt lat="34.4176211" lon="8.7808065"><ele>294.0</ele><time>2026-05-01T07:50:04.484Z</time></trkpt><trkpt lat="34.4177035" lon="8.7808838"><ele>294.0</ele><time>2026-05-01T07:50:06.486Z</time></trkpt><trkpt lat="34.4177859" lon="8.7809892"><ele>294.14285714285717</ele><time>2026-05-01T07:50:08.467Z</time></trkpt><trkpt lat="34.4178267" lon="8.7810491"><ele>294.2857142857143</ele><time>2026-05-01T07:50:09.475Z</time></trkpt><trkpt lat="34.4178752" lon="8.7811064"><ele>294.42857142857144</ele><time>2026-05-01T07:50:10.457Z</time></trkpt><trkpt lat="34.4179239" lon="8.7811616"><ele>294.57142857142856</ele><time>2026-05-01T07:50:11.469Z</time></trkpt><trkpt lat="34.4179748" lon="8.7812194"><ele>294.7142857142857</ele><time>2026-05-01T07:50:12.436Z</time></trkpt><trkpt lat="34.4180311" lon="8.7812837"><ele>294.8571428571429</ele><time>2026-05-01T07:50:13.5Z</time></trkpt><trkpt lat="34.4180853" lon="8.7813501"><ele>295.0</ele><time>2026-05-01T07:50:14.48Z</time></trkpt><trkpt lat="34.4181483" lon="8.7814185"><ele>295.0</ele><time>2026-05-01T07:50:15.49Z</time></trkpt><trkpt lat="34.4182068" lon="8.7814862"><ele>295.0</ele><time>2026-05-01T07:50:16.473Z</time></trkpt><trkpt lat="34.4182724" lon="8.7815458"><ele>295.0</ele><time>2026-05-01T07:50:17.471Z</time></trkpt><trkpt lat="34.4183316" lon="8.7816105"><ele>295.0</ele><time>2026-05-01T07:50:18.463Z</time></trkpt><trkpt lat="34.4183828" lon="8.7816729"><ele>295.0</ele><time>2026-05-01T07:50:19.482Z</time></trkpt><trkpt lat="34.418437" lon="8.7817296"><ele>295.0</ele><time>2026-05-01T07:50:20.474Z</time></trkpt><trkpt lat="34.4184948" lon="8.7817868"><ele>295.00000000000006</ele><time>2026-05-01T07:50:21.474Z</time></trkpt><trkpt lat="34.418548" lon="8.781836"><ele>295.0</ele><time>2026-05-01T07:50:22.484Z</time></trkpt><trkpt lat="34.4186005" lon="8.7818923"><ele>295.0</ele><time>2026-05-01T07:50:23.48Z</time></trkpt><trkpt lat="34.4186533" lon="8.7819469"><ele>295.0</ele><time>2026-05-01T07:50:24.468Z</time></trkpt><trkpt lat="34.4187018" lon="8.7820068"><ele>295.0</ele><time>2026-05-01T07:50:25.482Z</time></trkpt><trkpt lat="34.4187467" lon="8.7820685"><ele>295.00000000000006</ele><time>2026-05-01T07:50:26.463Z</time></trkpt><trkpt lat="34.4187947" lon="8.7821328"><ele>295.0</ele><time>2026-05-01T07:50:27.484Z</time></trkpt><trkpt lat="34.4188482" lon="8.7821851"><ele>294.25</ele><time>2026-05-01T07:50:28.502Z</time></trkpt><trkpt lat="34.4189421" lon="8.7822566"><ele>293.5</ele><time>2026-05-01T07:50:30.484Z</time></trkpt><trkpt lat="34.4190304" lon="8.7823321"><ele>292.75</ele><time>2026-05-01T07:50:32.487Z</time></trkpt><trkpt lat="34.4191242" lon="8.7824051"><ele>292.0</ele><time>2026-05-01T07:50:34.474Z</time></trkpt><trkpt lat="34.4192253" lon="8.782482"><ele>292.0</ele><time>2026-05-01T07:50:36.477Z</time></trkpt><trkpt lat="34.4193243" lon="8.7825473"><ele>292.0</ele><time>2026-05-01T07:50:38.45Z</time></trkpt><trkpt lat="34.4194056" lon="8.7826372"><ele>292.0</ele><time>2026-05-01T07:50:40.476Z</time></trkpt><trkpt lat="34.4194692" lon="8.7827468"><ele>292.0</ele><time>2026-05-01T07:50:42.469Z</time></trkpt><trkpt lat="34.4194904" lon="8.7828232"><ele>292.0</ele><time>2026-05-01T07:50:43.485Z</time></trkpt><trkpt lat="34.4195015" lon="8.7829109"><ele>292.16666666666663</ele><time>2026-05-01T07:50:44.471Z</time></trkpt><trkpt lat="34.4195065" lon="8.7830006"><ele>292.3333333333333</ele><time>2026-05-01T07:50:45.483Z</time></trkpt><trkpt lat="34.419515" lon="8.7830926"><ele>292.5</ele><time>2026-05-01T07:50:46.466Z</time></trkpt><trkpt lat="34.4195244" lon="8.7831841"><ele>292.6666666666667</ele><time>2026-05-01T07:50:47.465Z</time></trkpt><trkpt lat="34.419534" lon="8.7832735"><ele>292.83333333333337</ele><time>2026-05-01T07:50:48.481Z</time></trkpt><trkpt lat="34.419547" lon="8.7833683"><ele>293.0</ele><time>2026-05-01T07:50:49.472Z</time></trkpt><trkpt lat="34.4195625" lon="8.7834644"><ele>293.5</ele><time>2026-05-01T07:50:50.471Z</time></trkpt><trkpt lat="34.4195742" lon="8.7835651"><ele>294.0</ele><time>2026-05-01T07:50:51.481Z</time></trkpt><trkpt lat="34.4195902" lon="8.7836661"><ele>294.5</ele><time>2026-05-01T07:50:52.443Z</time></trkpt><trkpt lat="34.4196" lon="8.7837666"><ele>295.0</ele><time>2026-05-01T07:50:53.489Z</time></trkpt><trkpt lat="34.4196101" lon="8.7838639"><ele>295.5</ele><time>2026-05-01T07:50:54.493Z</time></trkpt><trkpt lat="34.4196188" lon="8.7839483"><ele>296.0</ele><time>2026-05-01T07:50:55.484Z</time></trkpt><trkpt lat="34.4196328" lon="8.7840277"><ele>296.0</ele><time>2026-05-01T07:50:56.471Z</time></trkpt><trkpt lat="34.4196403" lon="8.7841425"><ele>296.0</ele><time>2026-05-01T07:50:58.465Z</time></trkpt><trkpt lat="34.4196384" lon="8.7842288"><ele>296.0</ele><time>2026-05-01T07:51:01.446Z</time></trkpt><trkpt lat="34.419639" lon="8.7843144"><ele>296.0</ele><time>2026-05-01T07:51:03.477Z</time></trkpt><trkpt lat="34.4196333" lon="8.7844234"><ele>296.0</ele><time>2026-05-01T07:51:05.469Z</time></trkpt><trkpt lat="34.4196192" lon="8.7845535"><ele>296.0</ele><time>2026-05-01T07:51:07.446Z</time></trkpt><trkpt lat="34.4196527" lon="8.7846838"><ele>296.0</ele><time>2026-05-01T07:51:09.484Z</time></trkpt><trkpt lat="34.4197182" lon="8.7848087"><ele>296.0</ele><time>2026-05-01T07:51:11.477Z</time></trkpt><trkpt lat="34.4197348" lon="8.7849669"><ele>296.0</ele><time>2026-05-01T07:51:13.47Z</time></trkpt><trkpt lat="34.4197322" lon="8.7850566"><ele>296.0</ele><time>2026-05-01T07:51:14.478Z</time></trkpt><trkpt lat="34.419732" lon="8.7851469"><ele>296.0</ele><time>2026-05-01T07:51:15.485Z</time></trkpt><trkpt lat="34.4197321" lon="8.7852341"><ele>296.0</ele><time>2026-05-01T07:51:16.484Z</time></trkpt><trkpt lat="34.4197199" lon="8.7853621"><ele>296.0</ele><time>2026-05-01T07:51:18.51Z</time></trkpt><trkpt lat="34.4197178" lon="8.785457"><ele>296.0</ele><time>2026-05-01T07:51:21.451Z</time></trkpt><trkpt lat="34.419713" lon="8.7855379"><ele>296.0</ele><time>2026-05-01T07:52:59.424Z</time></trkpt><trkpt lat="34.4197215" lon="8.7856773"><ele>296.0</ele><time>2026-05-01T07:53:01.474Z</time></trkpt><trkpt lat="34.4197237" lon="8.7857577"><ele>296.0</ele><time>2026-05-01T07:53:02.487Z</time></trkpt><trkpt lat="34.4197353" lon="8.7858446"><ele>296.0</ele><time>2026-05-01T07:53:03.479Z</time></trkpt><trkpt lat="34.4197359" lon="8.785935"><ele>296.0</ele><time>2026-05-01T07:53:04.474Z</time></trkpt><trkpt lat="34.4197338" lon="8.7860324"><ele>296.0</ele><time>2026-05-01T07:53:05.486Z</time></trkpt><trkpt lat="34.4197422" lon="8.7861264"><ele>296.0</ele><time>2026-05-01T07:53:06.464Z</time></trkpt><trkpt lat="34.4197449" lon="8.7862273"><ele>296.0</ele><time>2026-05-01T07:53:07.476Z</time></trkpt><trkpt lat="34.4197498" lon="8.7863307"><ele>296.0</ele><time>2026-05-01T07:53:08.484Z</time></trkpt><trkpt lat="34.4197533" lon="8.7864421"><ele>296.5</ele><time>2026-05-01T07:53:09.471Z</time></trkpt><trkpt lat="34.4197554" lon="8.7865499"><ele>297.0</ele><time>2026-05-01T07:53:10.472Z</time></trkpt><trkpt lat="34.4197553" lon="8.7866621"><ele>297.5</ele><time>2026-05-01T07:53:11.453Z</time></trkpt><trkpt lat="34.4197525" lon="8.786765"><ele>298.0</ele><time>2026-05-01T07:53:12.476Z</time></trkpt><trkpt lat="34.4197488" lon="8.7868674"><ele>298.5</ele><time>2026-05-01T07:53:13.477Z</time></trkpt><trkpt lat="34.419751" lon="8.7869644"><ele>299.0</ele><time>2026-05-01T07:53:14.485Z</time></trkpt><trkpt lat="34.4197536" lon="8.7870531"><ele>299.2</ele><time>2026-05-01T07:53:15.487Z</time></trkpt><trkpt lat="34.4197727" lon="8.7871402"><ele>299.4</ele><time>2026-05-01T07:53:16.484Z</time></trkpt><trkpt lat="34.4197937" lon="8.787222"><ele>299.6</ele><time>2026-05-01T07:53:17.48Z</time></trkpt><trkpt lat="34.4198272" lon="8.7872912"><ele>299.8</ele><time>2026-05-01T07:53:18.486Z</time></trkpt><trkpt lat="34.4198785" lon="8.7874256"><ele>300.0</ele><time>2026-05-01T07:53:20.464Z</time></trkpt><trkpt lat="34.4199249" lon="8.7875602"><ele>300.0</ele><time>2026-05-01T07:53:22.487Z</time></trkpt><trkpt lat="34.4199691" lon="8.7876963"><ele>300.0</ele><time>2026-05-01T07:53:24.464Z</time></trkpt><trkpt lat="34.4200081" lon="8.7878279"><ele>300.0</ele><time>2026-05-01T07:53:26.487Z</time></trkpt><trkpt lat="34.4200379" lon="8.787924"><ele>300.0</ele><time>2026-05-01T07:53:28.494Z</time></trkpt><trkpt lat="34.4200647" lon="8.7879931"><ele>300.0</ele><time>2026-05-01T07:53:30.488Z</time></trkpt><trkpt lat="34.4200914" lon="8.7880634"><ele>300.0</ele><time>2026-05-01T07:53:33.483Z</time></trkpt><trkpt lat="34.4201194" lon="8.7881426"><ele>300.0</ele><time>2026-05-01T07:53:36.492Z</time></trkpt><trkpt lat="34.4201374" lon="8.7882274"><ele>300.0</ele><time>2026-05-01T07:53:40.52Z</time></trkpt><trkpt lat="34.4201358" lon="8.7883219"><ele>300.0</ele><time>2026-05-01T07:53:46.49Z</time></trkpt><trkpt lat="34.4201133" lon="8.7884051"><ele>300.0</ele><time>2026-05-01T07:53:49.471Z</time></trkpt><trkpt lat="34.4200669" lon="8.7884857"><ele>300.0</ele><time>2026-05-01T07:53:52.439Z</time></trkpt><trkpt lat="34.4200058" lon="8.7885424"><ele>300.0</ele><time>2026-05-01T07:53:54.493Z</time></trkpt><trkpt lat="34.4198968" lon="8.7886222"><ele>300.2857142857143</ele><time>2026-05-01T07:53:56.5Z</time></trkpt><trkpt lat="34.4198388" lon="8.7886662"><ele>300.57142857142856</ele><time>2026-05-01T07:53:57.488Z</time></trkpt><trkpt lat="34.4197707" lon="8.788713"><ele>300.8571428571429</ele><time>2026-05-01T07:53:58.504Z</time></trkpt><trkpt lat="34.419701" lon="8.7887562"><ele>301.1428571428571</ele><time>2026-05-01T07:53:59.489Z</time></trkpt><trkpt lat="34.4196349" lon="8.7887996"><ele>301.42857142857144</ele><time>2026-05-01T07:54:00.497Z</time></trkpt><trkpt lat="34.4195752" lon="8.7888357"><ele>301.7142857142857</ele><time>2026-05-01T07:54:01.461Z</time></trkpt><trkpt lat="34.4195113" lon="8.7888728"><ele>302.0</ele><time>2026-05-01T07:54:02.473Z</time></trkpt><trkpt lat="34.4194549" lon="8.7889103"><ele>302.0</ele><time>2026-05-01T07:54:03.484Z</time></trkpt><trkpt lat="34.4193541" lon="8.7889728"><ele>302.0</ele><time>2026-05-01T07:54:05.486Z</time></trkpt><trkpt lat="34.4192508" lon="8.7890353"><ele>302.0</ele><time>2026-05-01T07:54:07.489Z</time></trkpt><trkpt lat="34.4191871" lon="8.7890631"><ele>302.0</ele><time>2026-05-01T07:54:08.487Z</time></trkpt><trkpt lat="34.4191142" lon="8.7890907"><ele>302.0</ele><time>2026-05-01T07:54:09.488Z</time></trkpt><trkpt lat="34.4190476" lon="8.7891204"><ele>302.0</ele><time>2026-05-01T07:54:10.483Z</time></trkpt><trkpt lat="34.4189703" lon="8.7891561"><ele>302.0</ele><time>2026-05-01T07:54:11.496Z</time></trkpt><trkpt lat="34.4188934" lon="8.7891959"><ele>302.0</ele><time>2026-05-01T07:54:12.473Z</time></trkpt><trkpt lat="34.4188172" lon="8.7892332"><ele>302.0</ele><time>2026-05-01T07:54:13.466Z</time></trkpt><trkpt lat="34.4187457" lon="8.7892716"><ele>302.0</ele><time>2026-05-01T07:54:14.478Z</time></trkpt><trkpt lat="34.4186773" lon="8.789306"><ele>302.0</ele><time>2026-05-01T07:54:15.484Z</time></trkpt><trkpt lat="34.4186126" lon="8.78934"><ele>302.0</ele><time>2026-05-01T07:54:16.45Z</time></trkpt><trkpt lat="34.4185021" lon="8.7894067"><ele>301.4</ele><time>2026-05-01T07:54:18.491Z</time></trkpt><trkpt lat="34.4183957" lon="8.7894599"><ele>300.79999999999995</ele><time>2026-05-01T07:54:20.481Z</time></trkpt><trkpt lat="34.4183049" lon="8.7895034"><ele>300.2</ele><time>2026-05-01T07:54:22.47Z</time></trkpt><trkpt lat="34.418228" lon="8.7895391"><ele>299.59999999999997</ele><time>2026-05-01T07:54:24.47Z</time></trkpt><trkpt lat="34.418149" lon="8.7895734"><ele>299.0</ele><time>2026-05-01T07:54:26.465Z</time></trkpt><trkpt lat="34.4180729" lon="8.7896021"><ele>299.0</ele><time>2026-05-01T07:54:28.473Z</time></trkpt><trkpt lat="34.4180086" lon="8.7896505"><ele>299.0</ele><time>2026-05-01T07:54:30.481Z</time></trkpt><trkpt lat="34.4179749" lon="8.7897493"><ele>299.0</ele><time>2026-05-01T07:54:32.437Z</time></trkpt><trkpt lat="34.4180053" lon="8.7898262"><ele>299.0</ele><time>2026-05-01T07:54:34.465Z</time></trkpt><trkpt lat="34.418067" lon="8.7898775"><ele>299.0</ele><time>2026-05-01T07:54:37.488Z</time></trkpt><trkpt lat="34.4181245" lon="8.7899255"><ele>299.0</ele><time>2026-05-01T07:54:41.456Z</time></trkpt><trkpt lat="34.4181675" lon="8.7898601"><ele>299.0</ele><time>2026-05-01T07:59:25.445Z</time></trkpt><trkpt lat="34.4181973" lon="8.7897627"><ele>299.0</ele><time>2026-05-01T07:59:28.443Z</time></trkpt><trkpt lat="34.4181775" lon="8.7896885"><ele>299.0</ele><time>2026-05-01T07:59:30.445Z</time></trkpt><trkpt lat="34.4181004" lon="8.7896414"><ele>299.0</ele><time>2026-05-01T07:59:32.446Z</time></trkpt><trkpt lat="34.4180303" lon="8.7896613"><ele>299.0</ele><time>2026-05-01T07:59:34.444Z</time></trkpt><trkpt lat="34.4179914" lon="8.789746"><ele>299.0</ele><time>2026-05-01T07:59:36.458Z</time></trkpt><trkpt lat="34.4179695" lon="8.7898348"><ele>299.0</ele><time>2026-05-01T07:59:38.453Z</time></trkpt><trkpt lat="34.4179408" lon="8.7899154"><ele>299.2</ele><time>2026-05-01T07:59:40.444Z</time></trkpt><trkpt lat="34.4179045" lon="8.7899819"><ele>299.4</ele><time>2026-05-01T07:59:42.446Z</time></trkpt><trkpt lat="34.4178373" lon="8.7900465"><ele>299.6</ele><time>2026-05-01T07:59:44.44Z</time></trkpt><trkpt lat="34.4177527" lon="8.7901266"><ele>299.8</ele><time>2026-05-01T07:59:46.447Z</time></trkpt><trkpt lat="34.4176689" lon="8.7902029"><ele>300.0</ele><time>2026-05-01T07:59:48.445Z</time></trkpt><trkpt lat="34.4175968" lon="8.7902812"><ele>300.2</ele><time>2026-05-01T07:59:50.441Z</time></trkpt><trkpt lat="34.4175186" lon="8.7903555"><ele>300.4</ele><time>2026-05-01T07:59:52.443Z</time></trkpt><trkpt lat="34.4174502" lon="8.7904487"><ele>300.6</ele><time>2026-05-01T07:59:54.456Z</time></trkpt><trkpt lat="34.4173481" lon="8.7905499"><ele>300.8</ele><time>2026-05-01T07:59:56.442Z</time></trkpt><trkpt lat="34.4172928" lon="8.7906039"><ele>301.0</ele><time>2026-05-01T07:59:57.45Z</time></trkpt><trkpt lat="34.4172365" lon="8.7906603"><ele>301.0</ele><time>2026-05-01T07:59:58.453Z</time></trkpt><trkpt lat="34.4171741" lon="8.7907239"><ele>301.0</ele><time>2026-05-01T07:59:59.451Z</time></trkpt><trkpt lat="34.4171128" lon="8.7907852"><ele>301.0</ele><time>2026-05-01T08:00:00.447Z</time></trkpt><trkpt lat="34.4170527" lon="8.7908432"><ele>301.0</ele><time>2026-05-01T08:00:01.453Z</time></trkpt><trkpt lat="34.416988" lon="8.7909012"><ele>301.0</ele><time>2026-05-01T08:00:02.456Z</time></trkpt><trkpt lat="34.4169278" lon="8.7909625"><ele>301.0</ele><time>2026-05-01T08:00:03.442Z</time></trkpt><trkpt lat="34.4168669" lon="8.7910227"><ele>300.3333333333333</ele><time>2026-05-01T08:00:04.437Z</time></trkpt><trkpt lat="34.4168034" lon="8.7910866"><ele>299.66666666666663</ele><time>2026-05-01T08:00:05.436Z</time></trkpt><trkpt lat="34.4167483" lon="8.7911479"><ele>299.0</ele><time>2026-05-01T08:00:06.459Z</time></trkpt><trkpt lat="34.4166868" lon="8.7912057"><ele>298.3333333333333</ele><time>2026-05-01T08:00:07.437Z</time></trkpt><trkpt lat="34.4166282" lon="8.7912631"><ele>297.6666666666667</ele><time>2026-05-01T08:00:08.44Z</time></trkpt><trkpt lat="34.4165669" lon="8.7913165"><ele>297.0</ele><time>2026-05-01T08:00:09.441Z</time></trkpt><trkpt lat="34.4164605" lon="8.7913961"><ele>297.0</ele><time>2026-05-01T08:00:11.459Z</time></trkpt><trkpt lat="34.4163706" lon="8.7914328"><ele>297.0</ele><time>2026-05-01T08:00:13.44Z</time></trkpt><trkpt lat="34.4162865" lon="8.7914544"><ele>297.0</ele><time>2026-05-01T08:00:15.455Z</time></trkpt><trkpt lat="34.4161936" lon="8.7914741"><ele>297.0</ele><time>2026-05-01T08:00:17.44Z</time></trkpt><trkpt lat="34.4161329" lon="8.7915051"><ele>297.0</ele><time>2026-05-01T08:00:19.45Z</time></trkpt><trkpt lat="34.4160423" lon="8.7915445"><ele>297.0</ele><time>2026-05-01T08:00:22.46Z</time></trkpt><trkpt lat="34.4159312" lon="8.7915763"><ele>296.6</ele><time>2026-05-01T08:00:24.45Z</time></trkpt><trkpt lat="34.4158627" lon="8.7915948"><ele>296.2</ele><time>2026-05-01T08:00:25.445Z</time></trkpt><trkpt lat="34.415743" lon="8.7916298"><ele>295.8</ele><time>2026-05-01T08:00:27.451Z</time></trkpt><trkpt lat="34.4156239" lon="8.7916634"><ele>295.4</ele><time>2026-05-01T08:00:29.449Z</time></trkpt><trkpt lat="34.4155126" lon="8.7917035"><ele>295.0</ele><time>2026-05-01T08:00:31.448Z</time></trkpt><trkpt lat="34.4154131" lon="8.7917444"><ele>295.0</ele><time>2026-05-01T08:00:33.454Z</time></trkpt><trkpt lat="34.4153225" lon="8.791772"><ele>295.0</ele><time>2026-05-01T08:00:35.454Z</time></trkpt><trkpt lat="34.4152185" lon="8.7917891"><ele>295.0</ele><time>2026-05-01T08:00:37.438Z</time></trkpt><trkpt lat="34.4151511" lon="8.7918107"><ele>295.0</ele><time>2026-05-01T08:00:38.436Z</time></trkpt><trkpt lat="34.4150882" lon="8.791837"><ele>295.0</ele><time>2026-05-01T08:00:39.447Z</time></trkpt><trkpt lat="34.4149764" lon="8.7918822"><ele>295.0</ele><time>2026-05-01T08:00:41.455Z</time></trkpt><trkpt lat="34.4148883" lon="8.7919237"><ele>295.0</ele><time>2026-05-01T08:00:43.451Z</time></trkpt><trkpt lat="34.4148033" lon="8.7919567"><ele>295.0</ele><time>2026-05-01T08:00:45.461Z</time></trkpt><trkpt lat="34.4146801" lon="8.7919935"><ele>295.0</ele><time>2026-05-01T08:00:47.443Z</time></trkpt><trkpt lat="34.4146169" lon="8.7920135"><ele>295.0</ele><time>2026-05-01T08:00:48.444Z</time></trkpt><trkpt lat="34.4145486" lon="8.7920318"><ele>295.0</ele><time>2026-05-01T08:00:49.458Z</time></trkpt><trkpt lat="34.4144774" lon="8.792049"><ele>295.5</ele><time>2026-05-01T08:00:50.454Z</time></trkpt><trkpt lat="34.414411" lon="8.7920758"><ele>296.0</ele><time>2026-05-01T08:00:51.438Z</time></trkpt><trkpt lat="34.414308" lon="8.7921107"><ele>296.5</ele><time>2026-05-01T08:00:53.451Z</time></trkpt><trkpt lat="34.4142338" lon="8.7921387"><ele>297.0</ele><time>2026-05-01T08:00:55.445Z</time></trkpt><trkpt lat="34.414156" lon="8.7921631"><ele>297.5</ele><time>2026-05-01T08:00:57.446Z</time></trkpt><trkpt lat="34.4140727" lon="8.7921871"><ele>298.0</ele><time>2026-05-01T08:00:59.448Z</time></trkpt><trkpt lat="34.4139847" lon="8.7922168"><ele>298.0</ele><time>2026-05-01T08:01:01.443Z</time></trkpt><trkpt lat="34.4138967" lon="8.7922536"><ele>298.0</ele><time>2026-05-01T08:01:03.455Z</time></trkpt><trkpt lat="34.4138095" lon="8.7922967"><ele>298.0</ele><time>2026-05-01T08:01:05.448Z</time></trkpt><trkpt lat="34.4137177" lon="8.7923318"><ele>298.0</ele><time>2026-05-01T08:01:07.44Z</time></trkpt><trkpt lat="34.4136073" lon="8.7923734"><ele>298.0</ele><time>2026-05-01T08:01:09.454Z</time></trkpt><trkpt lat="34.4134877" lon="8.7924278"><ele>297.7142857142857</ele><time>2026-05-01T08:01:11.452Z</time></trkpt><trkpt lat="34.4134239" lon="8.7924513"><ele>297.4285714285714</ele><time>2026-05-01T08:01:12.465Z</time></trkpt><trkpt lat="34.4133557" lon="8.7924811"><ele>297.1428571428571</ele><time>2026-05-01T08:01:13.445Z</time></trkpt><trkpt lat="34.4132881" lon="8.7925096"><ele>296.85714285714283</ele><time>2026-05-01T08:01:14.468Z</time></trkpt><trkpt lat="34.4132226" lon="8.7925311"><ele>296.57142857142856</ele><time>2026-05-01T08:01:15.447Z</time></trkpt><trkpt lat="34.4131539" lon="8.7925563"><ele>296.2857142857143</ele><time>2026-05-01T08:01:16.459Z</time></trkpt><trkpt lat="34.4130808" lon="8.7925927"><ele>296.0</ele><time>2026-05-01T08:01:17.449Z</time></trkpt><trkpt lat="34.413004" lon="8.7926277"><ele>296.2</ele><time>2026-05-01T08:01:18.444Z</time></trkpt><trkpt lat="34.41292" lon="8.7926588"><ele>296.40000000000003</ele><time>2026-05-01T08:01:19.448Z</time></trkpt><trkpt lat="34.4128399" lon="8.7926884"><ele>296.6</ele><time>2026-05-01T08:01:20.447Z</time></trkpt><trkpt lat="34.4127549" lon="8.7927218"><ele>296.8</ele><time>2026-05-01T08:01:21.446Z</time></trkpt><trkpt lat="34.4126586" lon="8.7927631"><ele>297.0</ele><time>2026-05-01T08:01:22.441Z</time></trkpt><trkpt lat="34.4125573" lon="8.7928146"><ele>297.0</ele><time>2026-05-01T08:01:23.445Z</time></trkpt><trkpt lat="34.4124426" lon="8.7928724"><ele>297.0</ele><time>2026-05-01T08:01:24.469Z</time></trkpt><trkpt lat="34.4123151" lon="8.7929293"><ele>297.0</ele><time>2026-05-01T08:01:25.454Z</time></trkpt><trkpt lat="34.4121853" lon="8.7929776"><ele>297.0</ele><time>2026-05-01T08:01:26.45Z</time></trkpt><trkpt lat="34.4120605" lon="8.7930362"><ele>296.0</ele><time>2026-05-01T08:01:27.456Z</time></trkpt><trkpt lat="34.4119472" lon="8.7931076"><ele>295.0</ele><time>2026-05-01T08:01:28.456Z</time></trkpt><trkpt lat="34.4118425" lon="8.7931804"><ele>294.0</ele><time>2026-05-01T08:01:29.439Z</time></trkpt><trkpt lat="34.4117489" lon="8.7932617"><ele>293.0</ele><time>2026-05-01T08:01:30.461Z</time></trkpt><trkpt lat="34.4116605" lon="8.7933519"><ele>293.0</ele><time>2026-05-01T08:01:31.457Z</time></trkpt><trkpt lat="34.4115731" lon="8.7934445"><ele>293.0</ele><time>2026-05-01T08:01:32.458Z</time></trkpt><trkpt lat="34.4114864" lon="8.79354"><ele>293.0</ele><time>2026-05-01T08:01:33.461Z</time></trkpt><trkpt lat="34.4114093" lon="8.7936381"><ele>293.0</ele><time>2026-05-01T08:01:34.445Z</time></trkpt><trkpt lat="34.4113326" lon="8.7937341"><ele>292.6</ele><time>2026-05-01T08:01:35.445Z</time></trkpt><trkpt lat="34.4112569" lon="8.7938329"><ele>292.20000000000005</ele><time>2026-05-01T08:01:36.447Z</time></trkpt><trkpt lat="34.4111815" lon="8.7939326"><ele>291.8</ele><time>2026-05-01T08:01:37.455Z</time></trkpt><trkpt lat="34.411103" lon="8.7940252"><ele>291.40000000000003</ele><time>2026-05-01T08:01:38.443Z</time></trkpt><trkpt lat="34.4110284" lon="8.7941134"><ele>291.0</ele><time>2026-05-01T08:01:39.462Z</time></trkpt><trkpt lat="34.410957" lon="8.7941936"><ele>291.0</ele><time>2026-05-01T08:01:40.445Z</time></trkpt><trkpt lat="34.4108884" lon="8.7942737"><ele>291.0</ele><time>2026-05-01T08:01:41.453Z</time></trkpt><trkpt lat="34.4108256" lon="8.7943499"><ele>291.0</ele><time>2026-05-01T08:01:42.464Z</time></trkpt><trkpt lat="34.4107647" lon="8.7944252"><ele>291.0</ele><time>2026-05-01T08:01:43.452Z</time></trkpt><trkpt lat="34.4107081" lon="8.7944939"><ele>291.0</ele><time>2026-05-01T08:01:44.46Z</time></trkpt><trkpt lat="34.4106476" lon="8.7945603"><ele>291.0</ele><time>2026-05-01T08:01:45.454Z</time></trkpt><trkpt lat="34.4105897" lon="8.7946244"><ele>290.6</ele><time>2026-05-01T08:01:46.452Z</time></trkpt><trkpt lat="34.4105287" lon="8.794693"><ele>290.20000000000005</ele><time>2026-05-01T08:01:47.443Z</time></trkpt><trkpt lat="34.4104658" lon="8.7947646"><ele>289.79999999999995</ele><time>2026-05-01T08:01:48.45Z</time></trkpt><trkpt lat="34.410407" lon="8.7948496"><ele>289.4</ele><time>2026-05-01T08:01:49.464Z</time></trkpt><trkpt lat="34.4103439" lon="8.794938"><ele>289.0</ele><time>2026-05-01T08:01:50.455Z</time></trkpt><trkpt lat="34.4102721" lon="8.7950308"><ele>289.0</ele><time>2026-05-01T08:01:51.458Z</time></trkpt><trkpt lat="34.4101919" lon="8.7951235"><ele>289.0</ele><time>2026-05-01T08:01:52.457Z</time></trkpt><trkpt lat="34.4101112" lon="8.7952121"><ele>289.0</ele><time>2026-05-01T08:01:53.451Z</time></trkpt><trkpt lat="34.4100342" lon="8.7953053"><ele>289.0</ele><time>2026-05-01T08:01:54.473Z</time></trkpt><trkpt lat="34.4099523" lon="8.7953987"><ele>289.0</ele><time>2026-05-01T08:01:55.444Z</time></trkpt><trkpt lat="34.409873" lon="8.7954907"><ele>289.0</ele><time>2026-05-01T08:01:56.437Z</time></trkpt><trkpt lat="34.4097933" lon="8.7955814"><ele>289.0</ele><time>2026-05-01T08:01:57.443Z</time></trkpt><trkpt lat="34.4097147" lon="8.795674"><ele>289.0</ele><time>2026-05-01T08:01:58.448Z</time></trkpt><trkpt lat="34.4096397" lon="8.7957729"><ele>289.0</ele><time>2026-05-01T08:01:59.461Z</time></trkpt><trkpt lat="34.4095645" lon="8.7958548"><ele>289.0</ele><time>2026-05-01T08:02:00.442Z</time></trkpt><trkpt lat="34.4094925" lon="8.795938"><ele>289.8333333333333</ele><time>2026-05-01T08:02:01.451Z</time></trkpt><trkpt lat="34.4094246" lon="8.7960217"><ele>290.66666666666663</ele><time>2026-05-01T08:02:02.44Z</time></trkpt><trkpt lat="34.4093646" lon="8.7960946"><ele>291.5</ele><time>2026-05-01T08:02:03.442Z</time></trkpt><trkpt lat="34.4093023" lon="8.7961699"><ele>292.3333333333333</ele><time>2026-05-01T08:02:04.458Z</time></trkpt><trkpt lat="34.4092418" lon="8.7962412"><ele>293.1666666666667</ele><time>2026-05-01T08:02:05.454Z</time></trkpt><trkpt lat="34.4091851" lon="8.7963108"><ele>294.0</ele><time>2026-05-01T08:02:06.454Z</time></trkpt><trkpt lat="34.4091291" lon="8.7963806"><ele>294.0</ele><time>2026-05-01T08:02:07.45Z</time></trkpt><trkpt lat="34.4090706" lon="8.7964534"><ele>294.0</ele><time>2026-05-01T08:02:08.495Z</time></trkpt><trkpt lat="34.4090154" lon="8.7965237"><ele>294.0</ele><time>2026-05-01T08:02:09.465Z</time></trkpt><trkpt lat="34.4089583" lon="8.7965913"><ele>294.0</ele><time>2026-05-01T08:02:10.449Z</time></trkpt><trkpt lat="34.4089022" lon="8.7966618"><ele>294.0</ele><time>2026-05-01T08:02:11.442Z</time></trkpt><trkpt lat="34.4088494" lon="8.796725"><ele>294.0</ele><time>2026-05-01T08:02:12.446Z</time></trkpt><trkpt lat="34.4087981" lon="8.796787"><ele>294.1666666666667</ele><time>2026-05-01T08:02:13.451Z</time></trkpt><trkpt lat="34.4087488" lon="8.7968462"><ele>294.3333333333333</ele><time>2026-05-01T08:02:14.453Z</time></trkpt><trkpt lat="34.4086984" lon="8.7968956"><ele>294.5</ele><time>2026-05-01T08:02:15.439Z</time></trkpt><trkpt lat="34.4086313" lon="8.7969872"><ele>294.66666666666663</ele><time>2026-05-01T08:02:17.463Z</time></trkpt><trkpt lat="34.4086089" lon="8.7970689"><ele>294.8333333333333</ele><time>2026-05-01T08:02:20.464Z</time></trkpt><trkpt lat="34.4086826" lon="8.7971706"><ele>295.0</ele><time>2026-05-01T08:02:22.459Z</time></trkpt><trkpt lat="34.4087338" lon="8.7972371"><ele>295.0</ele><time>2026-05-01T08:02:23.449Z</time></trkpt><trkpt lat="34.4087899" lon="8.7973131"><ele>295.0</ele><time>2026-05-01T08:02:24.441Z</time></trkpt><trkpt lat="34.4088348" lon="8.7973949"><ele>295.0</ele><time>2026-05-01T08:02:25.442Z</time></trkpt><trkpt lat="34.4088861" lon="8.7974764"><ele>295.0</ele><time>2026-05-01T08:02:26.458Z</time></trkpt><trkpt lat="34.4089265" lon="8.7975529"><ele>295.0</ele><time>2026-05-01T08:02:27.456Z</time></trkpt><trkpt lat="34.4089696" lon="8.7976291"><ele>295.0</ele><time>2026-05-01T08:02:28.446Z</time></trkpt><trkpt lat="34.4090092" lon="8.7977042"><ele>296.0</ele><time>2026-05-01T08:02:29.448Z</time></trkpt><trkpt lat="34.4090418" lon="8.7977929"><ele>297.0</ele><time>2026-05-01T08:02:30.451Z</time></trkpt><trkpt lat="34.4090786" lon="8.7978745"><ele>298.0</ele><time>2026-05-01T08:02:31.452Z</time></trkpt><trkpt lat="34.4091149" lon="8.7979553"><ele>299.0</ele><time>2026-05-01T08:02:32.447Z</time></trkpt><trkpt lat="34.4091524" lon="8.7980344"><ele>300.0</ele><time>2026-05-01T08:02:33.438Z</time></trkpt><trkpt lat="34.4091832" lon="8.7981174"><ele>301.0</ele><time>2026-05-01T08:02:34.453Z</time></trkpt><trkpt lat="34.4092205" lon="8.7981961"><ele>301.0</ele><time>2026-05-01T08:02:35.46Z</time></trkpt><trkpt lat="34.4092518" lon="8.7982818"><ele>301.0</ele><time>2026-05-01T08:02:36.452Z</time></trkpt><trkpt lat="34.4092828" lon="8.7983692"><ele>301.0</ele><time>2026-05-01T08:02:37.454Z</time></trkpt><trkpt lat="34.4093049" lon="8.7984439"><ele>301.0</ele><time>2026-05-01T08:02:38.452Z</time></trkpt><trkpt lat="34.4093328" lon="8.7985753"><ele>301.0</ele><time>2026-05-01T08:02:40.444Z</time></trkpt><trkpt lat="34.4094186" lon="8.7985945"><ele>301.0</ele><time>2026-05-01T08:02:44.465Z</time></trkpt><trkpt lat="34.4095034" lon="8.7985063"><ele>301.0</ele><time>2026-05-01T08:02:46.462Z</time></trkpt><trkpt lat="34.4095554" lon="8.7984632"><ele>301.0</ele><time>2026-05-01T08:02:47.448Z</time></trkpt><trkpt lat="34.4096439" lon="8.7983735"><ele>301.0</ele><time>2026-05-01T08:02:49.451Z</time></trkpt><trkpt lat="34.4097136" lon="8.7983184"><ele>301.0</ele><time>2026-05-01T08:02:51.447Z</time></trkpt><trkpt lat="34.4097815" lon="8.7983306"><ele>301.0</ele><time>2026-05-01T08:03:01.456Z</time></trkpt><trkpt lat="34.4098024" lon="8.7984185"><ele>301.0</ele><time>2026-05-01T08:03:03.48Z</time></trkpt><trkpt lat="34.409828" lon="8.7985361"><ele>302.0</ele><time>2026-05-01T08:03:05.46Z</time></trkpt><trkpt lat="34.4098671" lon="8.7986725"><ele>303.0</ele><time>2026-05-01T08:03:07.45Z</time></trkpt><trkpt lat="34.4099149" lon="8.7988234"><ele>304.0</ele><time>2026-05-01T08:03:09.469Z</time></trkpt><trkpt lat="34.4099335" lon="8.7989134"><ele>305.0</ele><time>2026-05-01T08:03:10.449Z</time></trkpt><trkpt lat="34.4099525" lon="8.7990156"><ele>306.0</ele><time>2026-05-01T08:03:11.452Z</time></trkpt><trkpt lat="34.4099752" lon="8.7991327"><ele>306.0</ele><time>2026-05-01T08:03:12.463Z</time></trkpt><trkpt lat="34.4100025" lon="8.7992572"><ele>306.0</ele><time>2026-05-01T08:03:13.45Z</time></trkpt><trkpt lat="34.4100356" lon="8.7994085"><ele>306.0</ele><time>2026-05-01T08:03:14.44Z</time></trkpt><trkpt lat="34.410071" lon="8.799564"><ele>306.0</ele><time>2026-05-01T08:03:15.445Z</time></trkpt><trkpt lat="34.4101066" lon="8.799735"><ele>307.3333333333333</ele><time>2026-05-01T08:03:16.445Z</time></trkpt><trkpt lat="34.4101433" lon="8.7999177"><ele>308.66666666666663</ele><time>2026-05-01T08:03:17.458Z</time></trkpt><trkpt lat="34.4101749" lon="8.8001024"><ele>310.0</ele><time>2026-05-01T08:03:18.449Z</time></trkpt><trkpt lat="34.410203" lon="8.800287"><ele>310.66666666666663</ele><time>2026-05-01T08:03:19.443Z</time></trkpt><trkpt lat="34.410228" lon="8.8004857"><ele>311.3333333333333</ele><time>2026-05-01T08:03:20.434Z</time></trkpt><trkpt lat="34.4102541" lon="8.8006774"><ele>312.0</ele><time>2026-05-01T08:03:21.45Z</time></trkpt><trkpt lat="34.4102794" lon="8.800864"><ele>312.6666666666667</ele><time>2026-05-01T08:03:22.447Z</time></trkpt><trkpt lat="34.4103062" lon="8.8010598"><ele>313.33333333333337</ele><time>2026-05-01T08:03:23.446Z</time></trkpt><trkpt lat="34.4103305" lon="8.8012579"><ele>314.0</ele><time>2026-05-01T08:03:24.464Z</time></trkpt><trkpt lat="34.4103511" lon="8.8014561"><ele>314.0</ele><time>2026-05-01T08:03:25.471Z</time></trkpt><trkpt lat="34.4103682" lon="8.8016557"><ele>314.0</ele><time>2026-05-01T08:03:26.467Z</time></trkpt><trkpt lat="34.4103859" lon="8.8018526"><ele>314.0</ele><time>2026-05-01T08:03:27.46Z</time></trkpt><trkpt lat="34.4104099" lon="8.8020565"><ele>315.0</ele><time>2026-05-01T08:03:28.451Z</time></trkpt><trkpt lat="34.4104318" lon="8.8022516"><ele>316.0</ele><time>2026-05-01T08:03:29.445Z</time></trkpt><trkpt lat="34.4104599" lon="8.8024603"><ele>317.0</ele><time>2026-05-01T08:03:30.45Z</time></trkpt><trkpt lat="34.4104828" lon="8.802664"><ele>315.0</ele><time>2026-05-01T08:03:31.453Z</time></trkpt><trkpt lat="34.4105047" lon="8.802868"><ele>313.0</ele><time>2026-05-01T08:03:32.458Z</time></trkpt><trkpt lat="34.4105219" lon="8.8030638"><ele>311.0</ele><time>2026-05-01T08:03:33.453Z</time></trkpt><trkpt lat="34.4105354" lon="8.8032476"><ele>311.0</ele><time>2026-05-01T08:03:34.443Z</time></trkpt><trkpt lat="34.410549" lon="8.8034214"><ele>311.0</ele><time>2026-05-01T08:03:35.446Z</time></trkpt><trkpt lat="34.410558" lon="8.8035876"><ele>311.0</ele><time>2026-05-01T08:03:36.447Z</time></trkpt><trkpt lat="34.410561" lon="8.8037385"><ele>311.0</ele><time>2026-05-01T08:03:37.449Z</time></trkpt><trkpt lat="34.4105558" lon="8.8038737"><ele>310.8</ele><time>2026-05-01T08:03:38.444Z</time></trkpt><trkpt lat="34.4105469" lon="8.8039918"><ele>310.6</ele><time>2026-05-01T08:03:39.448Z</time></trkpt><trkpt lat="34.4105223" lon="8.8040889"><ele>310.4</ele><time>2026-05-01T08:03:40.448Z</time></trkpt><trkpt lat="34.4104921" lon="8.8041827"><ele>310.2</ele><time>2026-05-01T08:03:41.449Z</time></trkpt><trkpt lat="34.4104508" lon="8.8042581"><ele>310.0</ele><time>2026-05-01T08:03:42.451Z</time></trkpt><trkpt lat="34.4103995" lon="8.8043768"><ele>310.4</ele><time>2026-05-01T08:03:44.446Z</time></trkpt><trkpt lat="34.4103964" lon="8.804486"><ele>310.8</ele><time>2026-05-01T08:03:46.462Z</time></trkpt><trkpt lat="34.4104559" lon="8.8045987"><ele>311.2</ele><time>2026-05-01T08:03:48.444Z</time></trkpt><trkpt lat="34.4105224" lon="8.8046461"><ele>311.6</ele><time>2026-05-01T08:03:49.449Z</time></trkpt><trkpt lat="34.4106145" lon="8.8046915"><ele>312.0</ele><time>2026-05-01T08:03:50.479Z</time></trkpt><trkpt lat="34.4107171" lon="8.8047497"><ele>312.0</ele><time>2026-05-01T08:03:51.458Z</time></trkpt><trkpt lat="34.4108298" lon="8.8048115"><ele>312.0</ele><time>2026-05-01T08:03:52.44Z</time></trkpt><trkpt lat="34.4109477" lon="8.804888"><ele>312.0</ele><time>2026-05-01T08:03:53.452Z</time></trkpt><trkpt lat="34.4110636" lon="8.8049565"><ele>312.0</ele><time>2026-05-01T08:03:54.447Z</time></trkpt><trkpt lat="34.4111798" lon="8.8050307"><ele>312.0</ele><time>2026-05-01T08:03:55.442Z</time></trkpt><trkpt lat="34.4113074" lon="8.80511"><ele>312.0</ele><time>2026-05-01T08:03:56.451Z</time></trkpt><trkpt lat="34.4114456" lon="8.8051876"><ele>312.0</ele><time>2026-05-01T08:03:57.466Z</time></trkpt><trkpt lat="34.4115918" lon="8.8052805"><ele>312.3333333333333</ele><time>2026-05-01T08:03:58.438Z</time></trkpt><trkpt lat="34.4117537" lon="8.8053746"><ele>312.66666666666663</ele><time>2026-05-01T08:03:59.445Z</time></trkpt><trkpt lat="34.4119123" lon="8.8054791"><ele>313.0</ele><time>2026-05-01T08:04:00.433Z</time></trkpt><trkpt lat="34.4120737" lon="8.8055866"><ele>313.3333333333333</ele><time>2026-05-01T08:04:01.43Z</time></trkpt><trkpt lat="34.4122342" lon="8.8056859"><ele>313.6666666666667</ele><time>2026-05-01T08:04:02.443Z</time></trkpt><trkpt lat="34.4123909" lon="8.8057762"><ele>314.0</ele><time>2026-05-01T08:04:03.46Z</time></trkpt><trkpt lat="34.4125343" lon="8.8058515"><ele>314.0</ele><time>2026-05-01T08:04:04.455Z</time></trkpt><trkpt lat="34.4126618" lon="8.8059248"><ele>314.0</ele><time>2026-05-01T08:04:05.455Z</time></trkpt><trkpt lat="34.4127675" lon="8.8059882"><ele>314.0</ele><time>2026-05-01T08:04:06.447Z</time></trkpt><trkpt lat="34.4128761" lon="8.8060448"><ele>314.0</ele><time>2026-05-01T08:04:07.453Z</time></trkpt><trkpt lat="34.4129952" lon="8.8061155"><ele>314.25</ele><time>2026-05-01T08:04:08.455Z</time></trkpt><trkpt lat="34.4131209" lon="8.8061988"><ele>314.5</ele><time>2026-05-01T08:04:09.468Z</time></trkpt><trkpt lat="34.413253" lon="8.8062876"><ele>314.75</ele><time>2026-05-01T08:04:10.451Z</time></trkpt><trkpt lat="34.4133825" lon="8.806367"><ele>315.0</ele><time>2026-05-01T08:04:11.445Z</time></trkpt><trkpt lat="34.4135052" lon="8.8064458"><ele>315.0</ele><time>2026-05-01T08:04:12.456Z</time></trkpt><trkpt lat="34.4136169" lon="8.8065161"><ele>315.0</ele><time>2026-05-01T08:04:13.456Z</time></trkpt><trkpt lat="34.4137222" lon="8.8065793"><ele>315.0</ele><time>2026-05-01T08:04:14.457Z</time></trkpt><trkpt lat="34.4138069" lon="8.8066294"><ele>315.0</ele><time>2026-05-01T08:04:15.435Z</time></trkpt><trkpt lat="34.4138808" lon="8.8066668"><ele>315.0</ele><time>2026-05-01T08:04:16.445Z</time></trkpt><trkpt lat="34.4139678" lon="8.806714"><ele>315.14285714285717</ele><time>2026-05-01T08:04:18.436Z</time></trkpt><trkpt lat="34.4140399" lon="8.8067447"><ele>315.2857142857143</ele><time>2026-05-01T08:04:20.457Z</time></trkpt><trkpt lat="34.4141039" lon="8.8067784"><ele>315.42857142857144</ele><time>2026-05-01T08:04:24.438Z</time></trkpt><trkpt lat="34.4141692" lon="8.8067793"><ele>315.57142857142856</ele><time>2026-05-01T08:04:27.439Z</time></trkpt><trkpt lat="34.4142255" lon="8.8067222"><ele>315.7142857142857</ele><time>2026-05-01T08:04:29.45Z</time></trkpt><trkpt lat="34.4142864" lon="8.8066474"><ele>315.8571428571429</ele><time>2026-05-01T08:04:32.457Z</time></trkpt><trkpt lat="34.4143518" lon="8.8066398"><ele>316.0</ele><time>2026-05-01T08:04:37.46Z</time></trkpt><trkpt lat="34.4144172" lon="8.8066327"><ele>316.00000000000006</ele><time>2026-05-01T08:04:43.438Z</time></trkpt><trkpt lat="34.4144786" lon="8.8066531"><ele>316.0</ele><time>2026-05-01T08:05:27.438Z</time></trkpt><trkpt lat="34.4145449" lon="8.8066445"><ele>316.0</ele><time>2026-05-01T08:10:24.488Z</time></trkpt><trkpt lat="34.4145415" lon="8.8067255"><ele>316.0</ele><time>2026-05-01T08:10:58.491Z</time></trkpt><trkpt lat="34.4145252" lon="8.8068046"><ele>316.0</ele><time>2026-05-01T08:28:22.427Z</time></trkpt><trkpt lat="34.4145167" lon="8.8068932"><ele>316.00000000000006</ele><time>2026-05-01T08:28:27.477Z</time></trkpt><trkpt lat="34.4145124" lon="8.8069932"><ele>316.0</ele><time>2026-05-01T08:28:55.443Z</time></trkpt><trkpt lat="34.414538" lon="8.8070758"><ele>316.2</ele><time>2026-05-01T08:28:58.45Z</time></trkpt><trkpt lat="34.4146507" lon="8.8071452"><ele>316.40000000000003</ele><time>2026-05-01T08:29:00.466Z</time></trkpt><trkpt lat="34.4147218" lon="8.8071835"><ele>316.6</ele><time>2026-05-01T08:29:01.451Z</time></trkpt><trkpt lat="34.4148083" lon="8.8072405"><ele>316.8</ele><time>2026-05-01T08:29:02.46Z</time></trkpt><trkpt lat="34.4148972" lon="8.807301"><ele>317.0</ele><time>2026-05-01T08:29:03.43Z</time></trkpt><trkpt lat="34.4149913" lon="8.8073583"><ele>317.4</ele><time>2026-05-01T08:29:04.437Z</time></trkpt><trkpt lat="34.4150891" lon="8.8074192"><ele>317.79999999999995</ele><time>2026-05-01T08:29:05.447Z</time></trkpt><trkpt lat="34.4151885" lon="8.8074775"><ele>318.2</ele><time>2026-05-01T08:29:06.442Z</time></trkpt><trkpt lat="34.415289" lon="8.8075345"><ele>318.59999999999997</ele><time>2026-05-01T08:29:07.44Z</time></trkpt><trkpt lat="34.4153854" lon="8.8075962"><ele>319.0</ele><time>2026-05-01T08:29:08.433Z</time></trkpt><trkpt lat="34.4154797" lon="8.8076559"><ele>318.25</ele><time>2026-05-01T08:29:09.443Z</time></trkpt><trkpt lat="34.4155773" lon="8.8077157"><ele>317.5</ele><time>2026-05-01T08:29:10.457Z</time></trkpt><trkpt lat="34.4156818" lon="8.8077775"><ele>316.75</ele><time>2026-05-01T08:29:11.452Z</time></trkpt><trkpt lat="34.4157884" lon="8.8078427"><ele>316.0</ele><time>2026-05-01T08:29:12.482Z</time></trkpt><trkpt lat="34.415891" lon="8.8079098"><ele>316.0</ele><time>2026-05-01T08:29:13.428Z</time></trkpt><trkpt lat="34.415987" lon="8.8079666"><ele>316.0</ele><time>2026-05-01T08:29:14.446Z</time></trkpt><trkpt lat="34.4160829" lon="8.8080166"><ele>316.0</ele><time>2026-05-01T08:29:15.445Z</time></trkpt><trkpt lat="34.4161789" lon="8.808068"><ele>316.0</ele><time>2026-05-01T08:29:16.443Z</time></trkpt><trkpt lat="34.4162781" lon="8.8081201"><ele>316.0</ele><time>2026-05-01T08:29:17.434Z</time></trkpt><trkpt lat="34.4163744" lon="8.8081766"><ele>316.25</ele><time>2026-05-01T08:29:18.45Z</time></trkpt><trkpt lat="34.4164719" lon="8.808231"><ele>316.5</ele><time>2026-05-01T08:29:19.456Z</time></trkpt><trkpt lat="34.4165719" lon="8.808286"><ele>316.75</ele><time>2026-05-01T08:29:20.445Z</time></trkpt><trkpt lat="34.4166733" lon="8.8083482"><ele>317.0</ele><time>2026-05-01T08:29:21.447Z</time></trkpt><trkpt lat="34.4167821" lon="8.8084094"><ele>317.0</ele><time>2026-05-01T08:29:22.423Z</time></trkpt><trkpt lat="34.4168961" lon="8.8084804"><ele>317.0</ele><time>2026-05-01T08:29:23.449Z</time></trkpt><trkpt lat="34.4170115" lon="8.8085539"><ele>317.0</ele><time>2026-05-01T08:29:24.45Z</time></trkpt><trkpt lat="34.4171214" lon="8.8086323"><ele>317.0</ele><time>2026-05-01T08:29:25.442Z</time></trkpt><trkpt lat="34.4172291" lon="8.8087068"><ele>317.2</ele><time>2026-05-01T08:29:26.449Z</time></trkpt><trkpt lat="34.4173328" lon="8.808775"><ele>317.4</ele><time>2026-05-01T08:29:27.445Z</time></trkpt><trkpt lat="34.4174304" lon="8.8088347"><ele>317.6</ele><time>2026-05-01T08:29:28.445Z</time></trkpt><trkpt lat="34.4175249" lon="8.8088901"><ele>317.8</ele><time>2026-05-01T08:29:29.463Z</time></trkpt><trkpt lat="34.4176186" lon="8.8089451"><ele>318.0</ele><time>2026-05-01T08:29:30.482Z</time></trkpt><trkpt lat="34.4177099" lon="8.8090018"><ele>318.0</ele><time>2026-05-01T08:29:31.44Z</time></trkpt><trkpt lat="34.4178076" lon="8.8090632"><ele>318.0</ele><time>2026-05-01T08:29:32.435Z</time></trkpt><trkpt lat="34.4179027" lon="8.809123"><ele>318.0</ele><time>2026-05-01T08:29:33.441Z</time></trkpt><trkpt lat="34.4180053" lon="8.8091838"><ele>318.0</ele><time>2026-05-01T08:29:34.44Z</time></trkpt><trkpt lat="34.4181088" lon="8.8092434"><ele>318.0</ele><time>2026-05-01T08:29:35.442Z</time></trkpt><trkpt lat="34.4182187" lon="8.8093107"><ele>318.5</ele><time>2026-05-01T08:29:36.445Z</time></trkpt><trkpt lat="34.4183241" lon="8.809384"><ele>319.0</ele><time>2026-05-01T08:29:37.447Z</time></trkpt><trkpt lat="34.4184316" lon="8.8094513"><ele>319.5</ele><time>2026-05-01T08:29:38.444Z</time></trkpt><trkpt lat="34.4185401" lon="8.8095184"><ele>320.0</ele><time>2026-05-01T08:29:39.456Z</time></trkpt><trkpt lat="34.4186538" lon="8.809584"><ele>320.0</ele><time>2026-05-01T08:29:40.459Z</time></trkpt><trkpt lat="34.4187678" lon="8.809652"><ele>320.0</ele><time>2026-05-01T08:29:41.45Z</time></trkpt><trkpt lat="34.4188851" lon="8.80972"><ele>320.0</ele><time>2026-05-01T08:29:42.444Z</time></trkpt><trkpt lat="34.4189988" lon="8.8097931"><ele>320.0</ele><time>2026-05-01T08:29:43.47Z</time></trkpt><trkpt lat="34.4191152" lon="8.8098622"><ele>319.75</ele><time>2026-05-01T08:29:44.448Z</time></trkpt><trkpt lat="34.4192246" lon="8.8099348"><ele>319.5</ele><time>2026-05-01T08:29:45.438Z</time></trkpt><trkpt lat="34.4193409" lon="8.8100042"><ele>319.25</ele><time>2026-05-01T08:29:46.435Z</time></trkpt><trkpt lat="34.4194566" lon="8.8100708"><ele>319.0</ele><time>2026-05-01T08:29:47.467Z</time></trkpt><trkpt lat="34.4195696" lon="8.8101426"><ele>319.5</ele><time>2026-05-01T08:29:48.458Z</time></trkpt><trkpt lat="34.4196817" lon="8.8102118"><ele>320.0</ele><time>2026-05-01T08:29:49.459Z</time></trkpt><trkpt lat="34.4197882" lon="8.8102798"><ele>320.5</ele><time>2026-05-01T08:29:50.453Z</time></trkpt><trkpt lat="34.4198967" lon="8.8103426"><ele>321.0</ele><time>2026-05-01T08:29:51.441Z</time></trkpt><trkpt lat="34.4200002" lon="8.8104046"><ele>321.0</ele><time>2026-05-01T08:29:52.471Z</time></trkpt><trkpt lat="34.4201052" lon="8.8104634"><ele>321.0</ele><time>2026-05-01T08:29:53.451Z</time></trkpt><trkpt lat="34.4202059" lon="8.8105249"><ele>321.0</ele><time>2026-05-01T08:29:54.461Z</time></trkpt><trkpt lat="34.4203124" lon="8.8105967"><ele>321.0</ele><time>2026-05-01T08:29:55.465Z</time></trkpt><trkpt lat="34.4204189" lon="8.8106681"><ele>321.0</ele><time>2026-05-01T08:29:56.448Z</time></trkpt><trkpt lat="34.4205207" lon="8.8107467"><ele>321.0</ele><time>2026-05-01T08:29:57.451Z</time></trkpt><trkpt lat="34.4206333" lon="8.810822"><ele>321.0</ele><time>2026-05-01T08:29:58.454Z</time></trkpt><trkpt lat="34.420743" lon="8.8108969"><ele>321.0</ele><time>2026-05-01T08:29:59.456Z</time></trkpt><trkpt lat="34.4208589" lon="8.8109684"><ele>320.75</ele><time>2026-05-01T08:30:00.437Z</time></trkpt><trkpt lat="34.4209781" lon="8.8110373"><ele>320.5</ele><time>2026-05-01T08:30:01.446Z</time></trkpt><trkpt lat="34.4210939" lon="8.8111073"><ele>320.25</ele><time>2026-05-01T08:30:02.461Z</time></trkpt><trkpt lat="34.4212141" lon="8.8111812"><ele>320.0</ele><time>2026-05-01T08:30:03.461Z</time></trkpt><trkpt lat="34.421332" lon="8.8112667"><ele>320.75</ele><time>2026-05-01T08:30:04.443Z</time></trkpt><trkpt lat="34.4214516" lon="8.8113437"><ele>321.5</ele><time>2026-05-01T08:30:05.443Z</time></trkpt><trkpt lat="34.4215711" lon="8.8114102"><ele>322.25</ele><time>2026-05-01T08:30:06.435Z</time></trkpt><trkpt lat="34.4216838" lon="8.8114753"><ele>323.0</ele><time>2026-05-01T08:30:07.457Z</time></trkpt><trkpt lat="34.4218004" lon="8.8115326"><ele>323.0</ele><time>2026-05-01T08:30:08.451Z</time></trkpt><trkpt lat="34.421908" lon="8.8115982"><ele>323.0</ele><time>2026-05-01T08:30:09.464Z</time></trkpt><trkpt lat="34.4220145" lon="8.8116673"><ele>323.0</ele><time>2026-05-01T08:30:10.444Z</time></trkpt><trkpt lat="34.4222185" lon="8.8117857"><ele>322.59999999999997</ele><time>2026-05-01T08:30:12.465Z</time></trkpt><trkpt lat="34.4223156" lon="8.8118431"><ele>322.2</ele><time>2026-05-01T08:30:13.457Z</time></trkpt><trkpt lat="34.4224034" lon="8.8118909"><ele>321.8</ele><time>2026-05-01T08:30:14.456Z</time></trkpt><trkpt lat="34.422481" lon="8.8119475"><ele>321.4</ele><time>2026-05-01T08:30:15.448Z</time></trkpt><trkpt lat="34.4225604" lon="8.8119979"><ele>321.0</ele><time>2026-05-01T08:30:16.455Z</time></trkpt><trkpt lat="34.4226327" lon="8.812044"><ele>321.0</ele><time>2026-05-01T08:30:17.451Z</time></trkpt><trkpt lat="34.422701" lon="8.8120939"><ele>321.0</ele><time>2026-05-01T08:30:18.458Z</time></trkpt><trkpt lat="34.4227679" lon="8.8121499"><ele>321.0</ele><time>2026-05-01T08:30:19.455Z</time></trkpt><trkpt lat="34.4228336" lon="8.8122105"><ele>321.0</ele><time>2026-05-01T08:30:20.45Z</time></trkpt><trkpt lat="34.4228962" lon="8.8122744"><ele>321.0</ele><time>2026-05-01T08:30:21.444Z</time></trkpt><trkpt lat="34.4229643" lon="8.812323"><ele>321.0</ele><time>2026-05-01T08:30:22.446Z</time></trkpt><trkpt lat="34.4230392" lon="8.8123673"><ele>321.0</ele><time>2026-05-01T08:30:23.459Z</time></trkpt><trkpt lat="34.4231263" lon="8.8123955"><ele>321.0</ele><time>2026-05-01T08:30:24.458Z</time></trkpt><trkpt lat="34.4232266" lon="8.8124413"><ele>321.0</ele><time>2026-05-01T08:30:25.441Z</time></trkpt><trkpt lat="34.4233472" lon="8.8125069"><ele>321.0</ele><time>2026-05-01T08:30:26.45Z</time></trkpt><trkpt lat="34.4234713" lon="8.8125731"><ele>321.0</ele><time>2026-05-01T08:30:27.46Z</time></trkpt><trkpt lat="34.4236009" lon="8.8126498"><ele>321.0</ele><time>2026-05-01T08:30:28.443Z</time></trkpt><trkpt lat="34.4237342" lon="8.8127273"><ele>321.0</ele><time>2026-05-01T08:30:29.455Z</time></trkpt><trkpt lat="34.4238701" lon="8.8128011"><ele>321.0</ele><time>2026-05-01T08:30:30.459Z</time></trkpt><trkpt lat="34.4240072" lon="8.8128842"><ele>321.3333333333333</ele><time>2026-05-01T08:30:31.457Z</time></trkpt><trkpt lat="34.4241452" lon="8.8129715"><ele>321.66666666666663</ele><time>2026-05-01T08:30:32.457Z</time></trkpt><trkpt lat="34.4242848" lon="8.8130558"><ele>322.0</ele><time>2026-05-01T08:30:33.435Z</time></trkpt><trkpt lat="34.4244217" lon="8.813145"><ele>322.0</ele><time>2026-05-01T08:30:34.448Z</time></trkpt><trkpt lat="34.4245561" lon="8.8132347"><ele>322.0</ele><time>2026-05-01T08:30:35.451Z</time></trkpt><trkpt lat="34.4246891" lon="8.8133206"><ele>322.0</ele><time>2026-05-01T08:30:36.453Z</time></trkpt><trkpt lat="34.42482" lon="8.813404"><ele>322.0</ele><time>2026-05-01T08:30:37.442Z</time></trkpt><trkpt lat="34.424947" lon="8.8134828"><ele>322.0</ele><time>2026-05-01T08:30:38.451Z</time></trkpt><trkpt lat="34.4250701" lon="8.8135636"><ele>322.0</ele><time>2026-05-01T08:30:39.457Z</time></trkpt><trkpt lat="34.4251948" lon="8.8136348"><ele>322.0</ele><time>2026-05-01T08:30:40.463Z</time></trkpt><trkpt lat="34.4253192" lon="8.8137096"><ele>322.0</ele><time>2026-05-01T08:30:41.446Z</time></trkpt><trkpt lat="34.425448" lon="8.8137832"><ele>322.0</ele><time>2026-05-01T08:30:42.437Z</time></trkpt><trkpt lat="34.4255729" lon="8.8138598"><ele>322.0</ele><time>2026-05-01T08:30:43.438Z</time></trkpt><trkpt lat="34.4257007" lon="8.8139324"><ele>322.0</ele><time>2026-05-01T08:30:44.45Z</time></trkpt><trkpt lat="34.4258231" lon="8.8140075"><ele>322.5</ele><time>2026-05-01T08:30:45.447Z</time></trkpt><trkpt lat="34.4259397" lon="8.8140782"><ele>323.0</ele><time>2026-05-01T08:30:46.447Z</time></trkpt><trkpt lat="34.4260493" lon="8.8141469"><ele>323.5</ele><time>2026-05-01T08:30:47.456Z</time></trkpt><trkpt lat="34.4261545" lon="8.8142116"><ele>324.0</ele><time>2026-05-01T08:30:48.436Z</time></trkpt><trkpt lat="34.4262618" lon="8.8142727"><ele>324.0</ele><time>2026-05-01T08:30:49.439Z</time></trkpt><trkpt lat="34.4263672" lon="8.8143317"><ele>324.0</ele><time>2026-05-01T08:30:50.441Z</time></trkpt><trkpt lat="34.4264678" lon="8.8143956"><ele>324.0</ele><time>2026-05-01T08:30:51.444Z</time></trkpt><trkpt lat="34.4265651" lon="8.8144581"><ele>324.0</ele><time>2026-05-01T08:30:52.452Z</time></trkpt><trkpt lat="34.4266649" lon="8.814516"><ele>324.0</ele><time>2026-05-01T08:30:53.456Z</time></trkpt><trkpt lat="34.4267609" lon="8.8145775"><ele>324.0</ele><time>2026-05-01T08:30:54.441Z</time></trkpt><trkpt lat="34.426857" lon="8.8146367"><ele>324.0</ele><time>2026-05-01T08:30:55.454Z</time></trkpt><trkpt lat="34.4269524" lon="8.8146983"><ele>324.0</ele><time>2026-05-01T08:30:56.459Z</time></trkpt><trkpt lat="34.4270475" lon="8.814761"><ele>324.0</ele><time>2026-05-01T08:30:57.452Z</time></trkpt><trkpt lat="34.4271459" lon="8.8148229"><ele>324.25</ele><time>2026-05-01T08:30:58.454Z</time></trkpt><trkpt lat="34.4272483" lon="8.8148854"><ele>324.5</ele><time>2026-05-01T08:30:59.45Z</time></trkpt><trkpt lat="34.4273542" lon="8.8149508"><ele>324.75</ele><time>2026-05-01T08:31:00.452Z</time></trkpt><trkpt lat="34.4274659" lon="8.815013"><ele>325.0</ele><time>2026-05-01T08:31:01.458Z</time></trkpt><trkpt lat="34.4275699" lon="8.815081"><ele>325.0</ele><time>2026-05-01T08:31:02.455Z</time></trkpt><trkpt lat="34.4276778" lon="8.8151494"><ele>325.0</ele><time>2026-05-01T08:31:03.441Z</time></trkpt><trkpt lat="34.4277862" lon="8.8152193"><ele>325.0</ele><time>2026-05-01T08:31:04.447Z</time></trkpt><trkpt lat="34.4278954" lon="8.8152896"><ele>325.0</ele><time>2026-05-01T08:31:05.446Z</time></trkpt><trkpt lat="34.4280049" lon="8.8153603"><ele>325.0</ele><time>2026-05-01T08:31:06.433Z</time></trkpt><trkpt lat="34.4281137" lon="8.8154316"><ele>325.0</ele><time>2026-05-01T08:31:07.443Z</time></trkpt><trkpt lat="34.4282242" lon="8.815501"><ele>325.0</ele><time>2026-05-01T08:31:08.474Z</time></trkpt><trkpt lat="34.4283338" lon="8.8155685"><ele>325.0</ele><time>2026-05-01T08:31:09.452Z</time></trkpt><trkpt lat="34.428441" lon="8.8156392"><ele>325.0</ele><time>2026-05-01T08:31:10.45Z</time></trkpt><trkpt lat="34.4285507" lon="8.8157059"><ele>325.0</ele><time>2026-05-01T08:31:11.444Z</time></trkpt><trkpt lat="34.4286591" lon="8.8157745"><ele>325.0</ele><time>2026-05-01T08:31:12.458Z</time></trkpt><trkpt lat="34.4287665" lon="8.8158396"><ele>325.0</ele><time>2026-05-01T08:31:13.439Z</time></trkpt><trkpt lat="34.4288785" lon="8.8159064"><ele>325.75</ele><time>2026-05-01T08:31:14.447Z</time></trkpt><trkpt lat="34.4289885" lon="8.8159698"><ele>326.5</ele><time>2026-05-01T08:31:15.454Z</time></trkpt><trkpt lat="34.4290995" lon="8.8160407"><ele>327.25</ele><time>2026-05-01T08:31:16.457Z</time></trkpt><trkpt lat="34.4292077" lon="8.8161107"><ele>328.0</ele><time>2026-05-01T08:31:17.438Z</time></trkpt><trkpt lat="34.4293133" lon="8.8161772"><ele>328.0</ele><time>2026-05-01T08:31:18.442Z</time></trkpt><trkpt lat="34.4294044" lon="8.8162344"><ele>328.0</ele><time>2026-05-01T08:31:19.451Z</time></trkpt><trkpt lat="34.4294814" lon="8.816278"><ele>328.0</ele><time>2026-05-01T08:31:20.463Z</time></trkpt><trkpt lat="34.4295525" lon="8.8163236"><ele>328.0</ele><time>2026-05-01T08:31:21.442Z</time></trkpt><trkpt lat="34.4296193" lon="8.8163563"><ele>328.0</ele><time>2026-05-01T08:31:22.446Z</time></trkpt><trkpt lat="34.4297314" lon="8.8164246"><ele>327.79999999999995</ele><time>2026-05-01T08:31:24.446Z</time></trkpt><trkpt lat="34.4298416" lon="8.8164919"><ele>327.6</ele><time>2026-05-01T08:31:26.455Z</time></trkpt><trkpt lat="34.4299404" lon="8.8165522"><ele>327.4</ele><time>2026-05-01T08:31:28.447Z</time></trkpt><trkpt lat="34.4300235" lon="8.8166213"><ele>327.20000000000005</ele><time>2026-05-01T08:31:30.459Z</time></trkpt><trkpt lat="34.4300774" lon="8.8166642"><ele>327.0</ele><time>2026-05-01T08:31:32.448Z</time></trkpt><trkpt lat="34.4301384" lon="8.8167111"><ele>327.0</ele><time>2026-05-01T08:31:36.45Z</time></trkpt><trkpt lat="34.4301871" lon="8.8167773"><ele>327.0</ele><time>2026-05-01T08:31:39.457Z</time></trkpt><trkpt lat="34.4302204" lon="8.8168729"><ele>327.0</ele><time>2026-05-01T08:31:43.453Z</time></trkpt><trkpt lat="34.4302615" lon="8.8169623"><ele>327.0</ele><time>2026-05-01T08:31:45.45Z</time></trkpt><trkpt lat="34.4303405" lon="8.8170438"><ele>327.0</ele><time>2026-05-01T08:31:47.451Z</time></trkpt><trkpt lat="34.4304573" lon="8.8170697"><ele>326.8</ele><time>2026-05-01T08:31:49.466Z</time></trkpt><trkpt lat="34.4305707" lon="8.8170696"><ele>326.6</ele><time>2026-05-01T08:31:51.447Z</time></trkpt><trkpt lat="34.4306954" lon="8.8170642"><ele>326.40000000000003</ele><time>2026-05-01T08:31:53.454Z</time></trkpt><trkpt lat="34.4307724" lon="8.8170898"><ele>326.20000000000005</ele><time>2026-05-01T08:31:54.435Z</time></trkpt><trkpt lat="34.430882" lon="8.817144"><ele>326.0</ele><time>2026-05-01T08:31:55.458Z</time></trkpt><trkpt lat="34.4310295" lon="8.8172195"><ele>326.0</ele><time>2026-05-01T08:31:56.439Z</time></trkpt><trkpt lat="34.431184" lon="8.8173161"><ele>326.0</ele><time>2026-05-01T08:31:57.45Z</time></trkpt><trkpt lat="34.4313453" lon="8.8174155"><ele>326.0</ele><time>2026-05-01T08:31:58.444Z</time></trkpt><trkpt lat="34.4315121" lon="8.8175179"><ele>326.33333333333337</ele><time>2026-05-01T08:31:59.449Z</time></trkpt><trkpt lat="34.4316821" lon="8.817622"><ele>326.6666666666667</ele><time>2026-05-01T08:32:00.457Z</time></trkpt><trkpt lat="34.4318699" lon="8.8177394"><ele>327.0</ele><time>2026-05-01T08:32:01.452Z</time></trkpt><trkpt lat="34.432056" lon="8.8178698"><ele>326.6666666666667</ele><time>2026-05-01T08:32:02.449Z</time></trkpt><trkpt lat="34.432244" lon="8.8180009"><ele>326.33333333333337</ele><time>2026-05-01T08:32:03.454Z</time></trkpt><trkpt lat="34.4324339" lon="8.8181262"><ele>326.0</ele><time>2026-05-01T08:32:04.449Z</time></trkpt><trkpt lat="34.4326179" lon="8.8182383"><ele>326.0</ele><time>2026-05-01T08:32:05.463Z</time></trkpt><trkpt lat="34.4327884" lon="8.8183396"><ele>326.0</ele><time>2026-05-01T08:32:06.448Z</time></trkpt><trkpt lat="34.4329552" lon="8.8184452"><ele>326.0</ele><time>2026-05-01T08:32:07.457Z</time></trkpt><trkpt lat="34.4331145" lon="8.8185513"><ele>327.0</ele><time>2026-05-01T08:32:08.451Z</time></trkpt><trkpt lat="34.4332732" lon="8.8186506"><ele>328.0</ele><time>2026-05-01T08:32:09.445Z</time></trkpt><trkpt lat="34.4334257" lon="8.8187465"><ele>329.0</ele><time>2026-05-01T08:32:10.469Z</time></trkpt><trkpt lat="34.4335796" lon="8.8188432"><ele>329.0</ele><time>2026-05-01T08:32:11.448Z</time></trkpt><trkpt lat="34.4337364" lon="8.8189433"><ele>329.0</ele><time>2026-05-01T08:32:12.459Z</time></trkpt><trkpt lat="34.4338957" lon="8.8190415"><ele>329.0</ele><time>2026-05-01T08:32:13.453Z</time></trkpt><trkpt lat="34.4340596" lon="8.819143"><ele>329.33333333333337</ele><time>2026-05-01T08:32:14.448Z</time></trkpt><trkpt lat="34.4342308" lon="8.8192448"><ele>329.6666666666667</ele><time>2026-05-01T08:32:15.439Z</time></trkpt><trkpt lat="34.4344074" lon="8.8193488"><ele>330.0</ele><time>2026-05-01T08:32:16.459Z</time></trkpt><trkpt lat="34.4345869" lon="8.8194601"><ele>330.0</ele><time>2026-05-01T08:32:17.451Z</time></trkpt><trkpt lat="34.4347632" lon="8.819568"><ele>330.0</ele><time>2026-05-01T08:32:18.482Z</time></trkpt><trkpt lat="34.434939" lon="8.8196751"><ele>330.0</ele><time>2026-05-01T08:32:19.46Z</time></trkpt><trkpt lat="34.4351155" lon="8.8197806"><ele>330.0</ele><time>2026-05-01T08:32:20.457Z</time></trkpt><trkpt lat="34.4352871" lon="8.8198876"><ele>330.0</ele><time>2026-05-01T08:32:21.451Z</time></trkpt><trkpt lat="34.4354543" lon="8.8199952"><ele>330.0</ele><time>2026-05-01T08:32:22.433Z</time></trkpt><trkpt lat="34.4356183" lon="8.8201014"><ele>330.0</ele><time>2026-05-01T08:32:23.473Z</time></trkpt><trkpt lat="34.4357797" lon="8.8201984"><ele>330.0</ele><time>2026-05-01T08:32:24.458Z</time></trkpt><trkpt lat="34.435939" lon="8.8202954"><ele>330.0</ele><time>2026-05-01T08:32:25.445Z</time></trkpt><trkpt lat="34.4360989" lon="8.8203905"><ele>330.0</ele><time>2026-05-01T08:32:26.495Z</time></trkpt><trkpt lat="34.4362518" lon="8.8204798"><ele>330.0</ele><time>2026-05-01T08:32:27.454Z</time></trkpt><trkpt lat="34.4363983" lon="8.8205601"><ele>330.0</ele><time>2026-05-01T08:32:28.429Z</time></trkpt><trkpt lat="34.4365303" lon="8.8206355"><ele>330.25</ele><time>2026-05-01T08:32:29.42Z</time></trkpt><trkpt lat="34.436653" lon="8.8207113"><ele>330.5</ele><time>2026-05-01T08:32:30.453Z</time></trkpt><trkpt lat="34.4367623" lon="8.820783"><ele>330.75</ele><time>2026-05-01T08:32:31.452Z</time></trkpt><trkpt lat="34.4368661" lon="8.8208576"><ele>331.0</ele><time>2026-05-01T08:32:32.428Z</time></trkpt><trkpt lat="34.4369533" lon="8.8209465"><ele>331.0</ele><time>2026-05-01T08:32:33.453Z</time></trkpt><trkpt lat="34.4370339" lon="8.8210404"><ele>331.0</ele><time>2026-05-01T08:32:34.462Z</time></trkpt><trkpt lat="34.4371055" lon="8.8211134"><ele>331.0</ele><time>2026-05-01T08:32:35.442Z</time></trkpt><trkpt lat="34.4371959" lon="8.8211551"><ele>331.0</ele><time>2026-05-01T08:32:36.456Z</time></trkpt><trkpt lat="34.4372888" lon="8.8211851"><ele>331.0</ele><time>2026-05-01T08:32:37.441Z</time></trkpt><trkpt lat="34.4373933" lon="8.8212307"><ele>331.66666666666663</ele><time>2026-05-01T08:32:38.46Z</time></trkpt><trkpt lat="34.4375281" lon="8.8212909"><ele>332.3333333333333</ele><time>2026-05-01T08:32:39.452Z</time></trkpt><trkpt lat="34.4376686" lon="8.821376"><ele>333.0</ele><time>2026-05-01T08:32:40.456Z</time></trkpt><trkpt lat="34.4378196" lon="8.8214703"><ele>332.6666666666667</ele><time>2026-05-01T08:32:41.464Z</time></trkpt><trkpt lat="34.4379847" lon="8.8215777"><ele>332.33333333333337</ele><time>2026-05-01T08:32:42.457Z</time></trkpt><trkpt lat="34.4381503" lon="8.821682"><ele>332.0</ele><time>2026-05-01T08:32:43.455Z</time></trkpt><trkpt lat="34.4383194" lon="8.8217968"><ele>332.6666666666667</ele><time>2026-05-01T08:32:44.431Z</time></trkpt><trkpt lat="34.4384859" lon="8.8219037"><ele>333.3333333333333</ele><time>2026-05-01T08:32:45.446Z</time></trkpt><trkpt lat="34.4386481" lon="8.8220046"><ele>334.0</ele><time>2026-05-01T08:32:46.449Z</time></trkpt><trkpt lat="34.438805" lon="8.8221076"><ele>334.0</ele><time>2026-05-01T08:32:47.43Z</time></trkpt><trkpt lat="34.4389546" lon="8.8222056"><ele>334.0</ele><time>2026-05-01T08:32:48.437Z</time></trkpt><trkpt lat="34.439088" lon="8.8223004"><ele>334.0</ele><time>2026-05-01T08:32:49.441Z</time></trkpt><trkpt lat="34.4392088" lon="8.8223803"><ele>334.0</ele><time>2026-05-01T08:32:50.444Z</time></trkpt><trkpt lat="34.4393116" lon="8.8224526"><ele>334.0</ele><time>2026-05-01T08:32:51.451Z</time></trkpt><trkpt lat="34.4393924" lon="8.8225193"><ele>334.0</ele><time>2026-05-01T08:32:52.456Z</time></trkpt><trkpt lat="34.4394541" lon="8.8225996"><ele>334.0</ele><time>2026-05-01T08:32:53.454Z</time></trkpt><trkpt lat="34.4394998" lon="8.8226707"><ele>334.0</ele><time>2026-05-01T08:32:54.46Z</time></trkpt><trkpt lat="34.4395692" lon="8.822777"><ele>333.79999999999995</ele><time>2026-05-01T08:32:56.453Z</time></trkpt><trkpt lat="34.4396895" lon="8.8228057"><ele>333.59999999999997</ele><time>2026-05-01T08:32:58.442Z</time></trkpt><trkpt lat="34.4397574" lon="8.8228194"><ele>333.4</ele><time>2026-05-01T08:32:59.464Z</time></trkpt><trkpt lat="34.4398507" lon="8.822837"><ele>333.2</ele><time>2026-05-01T08:33:00.465Z</time></trkpt><trkpt lat="34.4399498" lon="8.8228846"><ele>333.0</ele><time>2026-05-01T08:33:01.438Z</time></trkpt><trkpt lat="34.4400628" lon="8.8229611"><ele>333.0</ele><time>2026-05-01T08:33:02.444Z</time></trkpt><trkpt lat="34.4401932" lon="8.8230494"><ele>333.0</ele><time>2026-05-01T08:33:03.445Z</time></trkpt><trkpt lat="34.4403469" lon="8.8231573"><ele>333.0</ele><time>2026-05-01T08:33:04.437Z</time></trkpt><trkpt lat="34.4405222" lon="8.8232801"><ele>333.3333333333333</ele><time>2026-05-01T08:33:05.435Z</time></trkpt><trkpt lat="34.4407059" lon="8.8234074"><ele>333.66666666666663</ele><time>2026-05-01T08:33:06.427Z</time></trkpt><trkpt lat="34.4408927" lon="8.8235296"><ele>334.0</ele><time>2026-05-01T08:33:07.447Z</time></trkpt><trkpt lat="34.4410942" lon="8.8236679"><ele>334.0</ele><time>2026-05-01T08:33:08.446Z</time></trkpt><trkpt lat="34.4412949" lon="8.8238001"><ele>334.0</ele><time>2026-05-01T08:33:09.453Z</time></trkpt><trkpt lat="34.441497" lon="8.823933"><ele>334.5</ele><time>2026-05-01T08:33:10.445Z</time></trkpt><trkpt lat="34.4417009" lon="8.8240627"><ele>335.0</ele><time>2026-05-01T08:33:11.446Z</time></trkpt><trkpt lat="34.4418933" lon="8.8241926"><ele>334.6666666666667</ele><time>2026-05-01T08:33:12.453Z</time></trkpt><trkpt lat="34.4420805" lon="8.8243219"><ele>334.3333333333333</ele><time>2026-05-01T08:33:13.459Z</time></trkpt><trkpt lat="34.4422629" lon="8.8244448"><ele>334.0</ele><time>2026-05-01T08:33:14.461Z</time></trkpt><trkpt lat="34.44244" lon="8.8245666"><ele>335.0</ele><time>2026-05-01T08:33:15.442Z</time></trkpt><trkpt lat="34.442614" lon="8.8246788"><ele>336.0</ele><time>2026-05-01T08:33:16.427Z</time></trkpt><trkpt lat="34.4427836" lon="8.8247835"><ele>337.0</ele><time>2026-05-01T08:33:17.442Z</time></trkpt><trkpt lat="34.4429434" lon="8.824885"><ele>337.66666666666663</ele><time>2026-05-01T08:33:18.449Z</time></trkpt><trkpt lat="34.4430972" lon="8.8249849"><ele>338.3333333333333</ele><time>2026-05-01T08:33:19.449Z</time></trkpt><trkpt lat="34.4432401" lon="8.825083"><ele>339.0</ele><time>2026-05-01T08:33:20.441Z</time></trkpt><trkpt lat="34.4433751" lon="8.8251706"><ele>339.0</ele><time>2026-05-01T08:33:21.446Z</time></trkpt><trkpt lat="34.44349" lon="8.8252458"><ele>339.0</ele><time>2026-05-01T08:33:22.457Z</time></trkpt><trkpt lat="34.4435909" lon="8.8253066"><ele>339.0</ele><time>2026-05-01T08:33:23.444Z</time></trkpt><trkpt lat="34.4436688" lon="8.8253654"><ele>339.0</ele><time>2026-05-01T08:33:24.46Z</time></trkpt><trkpt lat="34.4437302" lon="8.8254166"><ele>339.0</ele><time>2026-05-01T08:33:25.438Z</time></trkpt><trkpt lat="34.4437951" lon="8.8254599"><ele>339.0</ele><time>2026-05-01T08:33:26.467Z</time></trkpt><trkpt lat="34.4438733" lon="8.8255107"><ele>339.0</ele><time>2026-05-01T08:33:27.437Z</time></trkpt><trkpt lat="34.4439532" lon="8.8255571"><ele>339.0</ele><time>2026-05-01T08:33:28.456Z</time></trkpt><trkpt lat="34.4440473" lon="8.8256174"><ele>339.0</ele><time>2026-05-01T08:33:29.446Z</time></trkpt><trkpt lat="34.4441423" lon="8.8256831"><ele>339.0</ele><time>2026-05-01T08:33:30.449Z</time></trkpt><trkpt lat="34.4442354" lon="8.8257518"><ele>339.0</ele><time>2026-05-01T08:33:31.451Z</time></trkpt><trkpt lat="34.4443488" lon="8.8258325"><ele>339.0</ele><time>2026-05-01T08:33:32.458Z</time></trkpt><trkpt lat="34.4444818" lon="8.8259223"><ele>339.0</ele><time>2026-05-01T08:33:33.461Z</time></trkpt><trkpt lat="34.4446104" lon="8.8260112"><ele>339.0</ele><time>2026-05-01T08:33:34.454Z</time></trkpt><trkpt lat="34.4447467" lon="8.8261036"><ele>339.3333333333333</ele><time>2026-05-01T08:33:35.43Z</time></trkpt><trkpt lat="34.4448815" lon="8.8261958"><ele>339.66666666666663</ele><time>2026-05-01T08:33:36.449Z</time></trkpt><trkpt lat="34.4450174" lon="8.8262883"><ele>340.0</ele><time>2026-05-01T08:33:37.45Z</time></trkpt><trkpt lat="34.4451569" lon="8.8263791"><ele>340.0</ele><time>2026-05-01T08:33:38.455Z</time></trkpt><trkpt lat="34.4452909" lon="8.8264662"><ele>340.0</ele><time>2026-05-01T08:33:39.441Z</time></trkpt><trkpt lat="34.4454305" lon="8.8265568"><ele>340.0</ele><time>2026-05-01T08:33:40.451Z</time></trkpt><trkpt lat="34.4455736" lon="8.826654"><ele>339.66666666666663</ele><time>2026-05-01T08:33:41.451Z</time></trkpt><trkpt lat="34.445716" lon="8.8267525"><ele>339.3333333333333</ele><time>2026-05-01T08:33:42.446Z</time></trkpt><trkpt lat="34.4458621" lon="8.8268423"><ele>339.0</ele><time>2026-05-01T08:33:43.442Z</time></trkpt><trkpt lat="34.4460088" lon="8.8269344"><ele>340.0</ele><time>2026-05-01T08:33:44.442Z</time></trkpt><trkpt lat="34.4461562" lon="8.8270321"><ele>341.0</ele><time>2026-05-01T08:33:45.439Z</time></trkpt><trkpt lat="34.4463041" lon="8.8271275"><ele>342.0</ele><time>2026-05-01T08:33:46.432Z</time></trkpt><trkpt lat="34.4464507" lon="8.8272274"><ele>342.0</ele><time>2026-05-01T08:33:47.443Z</time></trkpt><trkpt lat="34.4466028" lon="8.8273245"><ele>342.0</ele><time>2026-05-01T08:33:48.464Z</time></trkpt><trkpt lat="34.4467592" lon="8.8274251"><ele>342.0</ele><time>2026-05-01T08:33:49.441Z</time></trkpt><trkpt lat="34.4469129" lon="8.8275336"><ele>342.0</ele><time>2026-05-01T08:33:50.446Z</time></trkpt><trkpt lat="34.4470616" lon="8.8276311"><ele>342.0</ele><time>2026-05-01T08:33:51.458Z</time></trkpt><trkpt lat="34.4472089" lon="8.8277305"><ele>342.0</ele><time>2026-05-01T08:33:52.454Z</time></trkpt><trkpt lat="34.4473524" lon="8.8278253"><ele>341.0</ele><time>2026-05-01T08:33:53.452Z</time></trkpt><trkpt lat="34.4474949" lon="8.8279214"><ele>340.0</ele><time>2026-05-01T08:33:54.45Z</time></trkpt><trkpt lat="34.4476373" lon="8.82802"><ele>339.0</ele><time>2026-05-01T08:33:55.437Z</time></trkpt><trkpt lat="34.4477823" lon="8.8281181"><ele>339.0</ele><time>2026-05-01T08:33:56.43Z</time></trkpt><trkpt lat="34.4479262" lon="8.8282184"><ele>339.0</ele><time>2026-05-01T08:33:57.44Z</time></trkpt><trkpt lat="34.4480705" lon="8.8283164"><ele>339.0</ele><time>2026-05-01T08:33:58.446Z</time></trkpt><trkpt lat="34.4482135" lon="8.828416"><ele>339.6666666666667</ele><time>2026-05-01T08:33:59.446Z</time></trkpt><trkpt lat="34.4483531" lon="8.8285085"><ele>340.33333333333337</ele><time>2026-05-01T08:34:00.446Z</time></trkpt><trkpt lat="34.4484977" lon="8.8286058"><ele>341.0</ele><time>2026-05-01T08:34:01.455Z</time></trkpt><trkpt lat="34.4486404" lon="8.8286986"><ele>341.0</ele><time>2026-05-01T08:34:02.462Z</time></trkpt><trkpt lat="34.4487835" lon="8.8287972"><ele>341.0</ele><time>2026-05-01T08:34:03.449Z</time></trkpt><trkpt lat="34.448925" lon="8.8288983"><ele>341.0</ele><time>2026-05-01T08:34:04.458Z</time></trkpt><trkpt lat="34.4490664" lon="8.8289945"><ele>340.6666666666667</ele><time>2026-05-01T08:34:05.453Z</time></trkpt><trkpt lat="34.44921" lon="8.8290882"><ele>340.3333333333333</ele><time>2026-05-01T08:34:06.459Z</time></trkpt><trkpt lat="34.4493541" lon="8.8291835"><ele>340.0</ele><time>2026-05-01T08:34:07.441Z</time></trkpt><trkpt lat="34.4494935" lon="8.8292809"><ele>340.0</ele><time>2026-05-01T08:34:08.446Z</time></trkpt><trkpt lat="34.449634" lon="8.8293773"><ele>340.0</ele><time>2026-05-01T08:34:09.445Z</time></trkpt><trkpt lat="34.4497736" lon="8.8294716"><ele>340.0</ele><time>2026-05-01T08:34:10.465Z</time></trkpt><trkpt lat="34.4499122" lon="8.8295658"><ele>340.0</ele><time>2026-05-01T08:34:11.439Z</time></trkpt><trkpt lat="34.4500472" lon="8.8296567"><ele>340.0</ele><time>2026-05-01T08:34:12.456Z</time></trkpt><trkpt lat="34.4501799" lon="8.8297473"><ele>340.0</ele><time>2026-05-01T08:34:13.45Z</time></trkpt><trkpt lat="34.4503184" lon="8.8298415"><ele>340.66666666666663</ele><time>2026-05-01T08:34:14.454Z</time></trkpt><trkpt lat="34.4504594" lon="8.8299365"><ele>341.3333333333333</ele><time>2026-05-01T08:34:15.461Z</time></trkpt><trkpt lat="34.4506012" lon="8.8300281"><ele>342.0</ele><time>2026-05-01T08:34:16.457Z</time></trkpt><trkpt lat="34.4507409" lon="8.8301203"><ele>342.3333333333333</ele><time>2026-05-01T08:34:17.45Z</time></trkpt><trkpt lat="34.45088" lon="8.8302142"><ele>342.66666666666663</ele><time>2026-05-01T08:34:18.441Z</time></trkpt><trkpt lat="34.4510219" lon="8.8303057"><ele>343.0</ele><time>2026-05-01T08:34:19.44Z</time></trkpt><trkpt lat="34.4511668" lon="8.8304044"><ele>343.3333333333333</ele><time>2026-05-01T08:34:20.447Z</time></trkpt><trkpt lat="34.4513087" lon="8.8304994"><ele>343.6666666666667</ele><time>2026-05-01T08:34:21.458Z</time></trkpt><trkpt lat="34.4514573" lon="8.8305954"><ele>344.0</ele><time>2026-05-01T08:34:22.448Z</time></trkpt><trkpt lat="34.4516042" lon="8.8306987"><ele>344.0</ele><time>2026-05-01T08:34:23.451Z</time></trkpt><trkpt lat="34.4517572" lon="8.8308024"><ele>344.0</ele><time>2026-05-01T08:34:24.439Z</time></trkpt><trkpt lat="34.451899" lon="8.8309018"><ele>344.0</ele><time>2026-05-01T08:34:25.441Z</time></trkpt><trkpt lat="34.4520353" lon="8.83099"><ele>343.33333333333337</ele><time>2026-05-01T08:34:26.465Z</time></trkpt><trkpt lat="34.4521678" lon="8.8310826"><ele>342.6666666666667</ele><time>2026-05-01T08:34:27.445Z</time></trkpt><trkpt lat="34.4522978" lon="8.8311661"><ele>342.0</ele><time>2026-05-01T08:34:28.449Z</time></trkpt><trkpt lat="34.4524278" lon="8.8312558"><ele>342.0</ele><time>2026-05-01T08:34:29.458Z</time></trkpt><trkpt lat="34.452556" lon="8.8313442"><ele>342.0</ele><time>2026-05-01T08:34:30.443Z</time></trkpt><trkpt lat="34.452687" lon="8.8314341"><ele>342.0</ele><time>2026-05-01T08:34:31.456Z</time></trkpt><trkpt lat="34.4528201" lon="8.8315239"><ele>342.0</ele><time>2026-05-01T08:34:32.446Z</time></trkpt><trkpt lat="34.4529538" lon="8.8316175"><ele>342.0</ele><time>2026-05-01T08:34:33.46Z</time></trkpt><trkpt lat="34.4530899" lon="8.8317056"><ele>342.0</ele><time>2026-05-01T08:34:34.452Z</time></trkpt><trkpt lat="34.4532266" lon="8.8317927"><ele>341.3333333333333</ele><time>2026-05-01T08:34:35.445Z</time></trkpt><trkpt lat="34.453365" lon="8.8318841"><ele>340.66666666666663</ele><time>2026-05-01T08:34:36.458Z</time></trkpt><trkpt lat="34.4534993" lon="8.8319685"><ele>340.0</ele><time>2026-05-01T08:34:37.461Z</time></trkpt><trkpt lat="34.4536357" lon="8.8320623"><ele>340.0</ele><time>2026-05-01T08:34:38.45Z</time></trkpt><trkpt lat="34.4537679" lon="8.8321518"><ele>340.0</ele><time>2026-05-01T08:34:39.451Z</time></trkpt><trkpt lat="34.4538978" lon="8.8322404"><ele>340.0</ele><time>2026-05-01T08:34:40.444Z</time></trkpt><trkpt lat="34.4540266" lon="8.8323311"><ele>340.0</ele><time>2026-05-01T08:34:41.448Z</time></trkpt><trkpt lat="34.4541596" lon="8.8324168"><ele>340.3333333333333</ele><time>2026-05-01T08:34:42.448Z</time></trkpt><trkpt lat="34.454297" lon="8.8325016"><ele>340.6666666666667</ele><time>2026-05-01T08:34:43.451Z</time></trkpt><trkpt lat="34.4544332" lon="8.8325896"><ele>341.0</ele><time>2026-05-01T08:34:44.455Z</time></trkpt><trkpt lat="34.4545723" lon="8.8326766"><ele>342.33333333333337</ele><time>2026-05-01T08:34:45.434Z</time></trkpt><trkpt lat="34.4547054" lon="8.8327668"><ele>343.6666666666667</ele><time>2026-05-01T08:34:46.431Z</time></trkpt><trkpt lat="34.454842" lon="8.8328549"><ele>345.0</ele><time>2026-05-01T08:34:47.439Z</time></trkpt><trkpt lat="34.4549734" lon="8.8329443"><ele>345.0</ele><time>2026-05-01T08:34:48.437Z</time></trkpt><trkpt lat="34.4551069" lon="8.8330334"><ele>345.0</ele><time>2026-05-01T08:34:49.446Z</time></trkpt><trkpt lat="34.4552404" lon="8.8331198"><ele>345.0</ele><time>2026-05-01T08:34:50.439Z</time></trkpt><trkpt lat="34.4553658" lon="8.8332107"><ele>344.5</ele><time>2026-05-01T08:34:51.446Z</time></trkpt><trkpt lat="34.4554916" lon="8.8332909"><ele>344.0</ele><time>2026-05-01T08:34:52.459Z</time></trkpt><trkpt lat="34.4556228" lon="8.8333786"><ele>343.5</ele><time>2026-05-01T08:34:53.438Z</time></trkpt><trkpt lat="34.4557547" lon="8.8334715"><ele>343.0</ele><time>2026-05-01T08:34:54.457Z</time></trkpt><trkpt lat="34.4558881" lon="8.833557"><ele>342.75</ele><time>2026-05-01T08:34:55.442Z</time></trkpt><trkpt lat="34.4560202" lon="8.8336463"><ele>342.5</ele><time>2026-05-01T08:34:56.444Z</time></trkpt><trkpt lat="34.4561549" lon="8.8337318"><ele>342.25</ele><time>2026-05-01T08:34:57.439Z</time></trkpt><trkpt lat="34.4562798" lon="8.8338152"><ele>342.0</ele><time>2026-05-01T08:34:58.45Z</time></trkpt><trkpt lat="34.4563824" lon="8.8338815"><ele>342.6</ele><time>2026-05-01T08:34:59.462Z</time></trkpt><trkpt lat="34.4564646" lon="8.8339365"><ele>343.20000000000005</ele><time>2026-05-01T08:35:00.446Z</time></trkpt><trkpt lat="34.4565286" lon="8.8339723"><ele>343.8</ele><time>2026-05-01T08:35:01.469Z</time></trkpt><trkpt lat="34.4565861" lon="8.8340108"><ele>344.4</ele><time>2026-05-01T08:35:02.462Z</time></trkpt><trkpt lat="34.456677" lon="8.8340781"><ele>345.0</ele><time>2026-05-01T08:35:04.439Z</time></trkpt><trkpt lat="34.456784" lon="8.8341515"><ele>345.0</ele><time>2026-05-01T08:35:06.458Z</time></trkpt><trkpt lat="34.4568504" lon="8.8341935"><ele>345.0</ele><time>2026-05-01T08:35:07.456Z</time></trkpt><trkpt lat="34.4569309" lon="8.83425"><ele>345.0</ele><time>2026-05-01T08:35:08.462Z</time></trkpt><trkpt lat="34.457026" lon="8.8343116"><ele>345.0</ele><time>2026-05-01T08:35:09.453Z</time></trkpt><trkpt lat="34.4571295" lon="8.8343822"><ele>345.0</ele><time>2026-05-01T08:35:10.449Z</time></trkpt><trkpt lat="34.4572327" lon="8.8344524"><ele>346.25</ele><time>2026-05-01T08:35:11.433Z</time></trkpt><trkpt lat="34.4573391" lon="8.8345233"><ele>347.5</ele><time>2026-05-01T08:35:12.469Z</time></trkpt><trkpt lat="34.4574501" lon="8.8345943"><ele>348.75</ele><time>2026-05-01T08:35:13.447Z</time></trkpt><trkpt lat="34.4575544" lon="8.8346655"><ele>350.0</ele><time>2026-05-01T08:35:14.44Z</time></trkpt><trkpt lat="34.4576626" lon="8.8347365"><ele>350.0</ele><time>2026-05-01T08:35:15.455Z</time></trkpt><trkpt lat="34.4577663" lon="8.8348044"><ele>350.0</ele><time>2026-05-01T08:35:16.449Z</time></trkpt><trkpt lat="34.4578715" lon="8.834876"><ele>350.0</ele><time>2026-05-01T08:35:17.454Z</time></trkpt><trkpt lat="34.4579752" lon="8.834947"><ele>350.0</ele><time>2026-05-01T08:35:18.447Z</time></trkpt><trkpt lat="34.4580888" lon="8.8350237"><ele>350.0</ele><time>2026-05-01T08:35:19.446Z</time></trkpt><trkpt lat="34.4582005" lon="8.8351035"><ele>350.0</ele><time>2026-05-01T08:35:20.46Z</time></trkpt><trkpt lat="34.4583194" lon="8.8351815"><ele>350.0</ele><time>2026-05-01T08:35:21.441Z</time></trkpt><trkpt lat="34.4584463" lon="8.8352672"><ele>350.0</ele><time>2026-05-01T08:35:22.452Z</time></trkpt><trkpt lat="34.4585809" lon="8.8353601"><ele>350.0</ele><time>2026-05-01T08:35:23.429Z</time></trkpt><trkpt lat="34.4587187" lon="8.8354521"><ele>350.0</ele><time>2026-05-01T08:35:24.438Z</time></trkpt><trkpt lat="34.4588611" lon="8.8355494"><ele>350.0</ele><time>2026-05-01T08:35:25.451Z</time></trkpt><trkpt lat="34.4590136" lon="8.8356518"><ele>349.33333333333337</ele><time>2026-05-01T08:35:26.451Z</time></trkpt><trkpt lat="34.4591694" lon="8.8357603"><ele>348.6666666666667</ele><time>2026-05-01T08:35:27.441Z</time></trkpt><trkpt lat="34.4593286" lon="8.8358735"><ele>348.0</ele><time>2026-05-01T08:35:28.461Z</time></trkpt><trkpt lat="34.4594935" lon="8.8359886"><ele>347.3333333333333</ele><time>2026-05-01T08:35:29.448Z</time></trkpt><trkpt lat="34.4596547" lon="8.8360986"><ele>346.66666666666663</ele><time>2026-05-01T08:35:30.455Z</time></trkpt><trkpt lat="34.4598154" lon="8.836212"><ele>346.0</ele><time>2026-05-01T08:35:31.45Z</time></trkpt><trkpt lat="34.4599752" lon="8.8363224"><ele>346.0</ele><time>2026-05-01T08:35:32.447Z</time></trkpt><trkpt lat="34.4601365" lon="8.8364348"><ele>346.0</ele><time>2026-05-01T08:35:33.459Z</time></trkpt><trkpt lat="34.4602982" lon="8.836549"><ele>346.0</ele><time>2026-05-01T08:35:34.446Z</time></trkpt><trkpt lat="34.4604621" lon="8.8366705"><ele>346.0</ele><time>2026-05-01T08:35:35.448Z</time></trkpt><trkpt lat="34.4606249" lon="8.8367909"><ele>346.0</ele><time>2026-05-01T08:35:36.461Z</time></trkpt><trkpt lat="34.4607858" lon="8.8369127"><ele>346.0</ele><time>2026-05-01T08:35:37.455Z</time></trkpt><trkpt lat="34.4609454" lon="8.8370361"><ele>346.0</ele><time>2026-05-01T08:35:38.443Z</time></trkpt><trkpt lat="34.4611044" lon="8.8371612"><ele>346.0</ele><time>2026-05-01T08:35:39.464Z</time></trkpt><trkpt lat="34.4612612" lon="8.8372828"><ele>346.0</ele><time>2026-05-01T08:35:40.446Z</time></trkpt><trkpt lat="34.4614238" lon="8.8374025"><ele>345.66666666666663</ele><time>2026-05-01T08:35:41.458Z</time></trkpt><trkpt lat="34.4615747" lon="8.8375111"><ele>345.3333333333333</ele><time>2026-05-01T08:35:42.454Z</time></trkpt><trkpt lat="34.46172" lon="8.8376208"><ele>345.0</ele><time>2026-05-01T08:35:43.453Z</time></trkpt><trkpt lat="34.4618638" lon="8.8377287"><ele>345.0</ele><time>2026-05-01T08:35:44.449Z</time></trkpt><trkpt lat="34.4620137" lon="8.8378386"><ele>345.0</ele><time>2026-05-01T08:35:45.451Z</time></trkpt><trkpt lat="34.4621704" lon="8.8379588"><ele>345.0</ele><time>2026-05-01T08:35:46.445Z</time></trkpt><trkpt lat="34.4623335" lon="8.8380835"><ele>346.0</ele><time>2026-05-01T08:35:47.44Z</time></trkpt><trkpt lat="34.4624938" lon="8.8382079"><ele>347.0</ele><time>2026-05-01T08:35:48.437Z</time></trkpt><trkpt lat="34.4626631" lon="8.838331"><ele>348.0</ele><time>2026-05-01T08:35:49.446Z</time></trkpt><trkpt lat="34.4628367" lon="8.8384602"><ele>348.0</ele><time>2026-05-01T08:35:50.457Z</time></trkpt><trkpt lat="34.4630227" lon="8.838584"><ele>348.0</ele><time>2026-05-01T08:35:51.446Z</time></trkpt><trkpt lat="34.4632144" lon="8.8387192"><ele>348.0</ele><time>2026-05-01T08:35:52.451Z</time></trkpt><trkpt lat="34.463398" lon="8.8388611"><ele>348.0</ele><time>2026-05-01T08:35:53.435Z</time></trkpt><trkpt lat="34.463573" lon="8.8390006"><ele>348.0</ele><time>2026-05-01T08:35:54.445Z</time></trkpt><trkpt lat="34.4637452" lon="8.8391386"><ele>348.0</ele><time>2026-05-01T08:35:55.444Z</time></trkpt><trkpt lat="34.4639087" lon="8.8392733"><ele>348.3333333333333</ele><time>2026-05-01T08:35:56.446Z</time></trkpt><trkpt lat="34.4640721" lon="8.8393957"><ele>348.66666666666663</ele><time>2026-05-01T08:35:57.443Z</time></trkpt><trkpt lat="34.4642385" lon="8.8395178"><ele>349.0</ele><time>2026-05-01T08:35:58.442Z</time></trkpt><trkpt lat="34.464409" lon="8.8396394"><ele>349.0</ele><time>2026-05-01T08:35:59.456Z</time></trkpt><trkpt lat="34.4645812" lon="8.8397659"><ele>349.0</ele><time>2026-05-01T08:36:00.438Z</time></trkpt><trkpt lat="34.4647506" lon="8.8398886"><ele>349.0</ele><time>2026-05-01T08:36:01.453Z</time></trkpt><trkpt lat="34.4649151" lon="8.8400107"><ele>349.0</ele><time>2026-05-01T08:36:02.449Z</time></trkpt><trkpt lat="34.4650821" lon="8.8401316"><ele>349.0</ele><time>2026-05-01T08:36:03.444Z</time></trkpt><trkpt lat="34.4652433" lon="8.8402519"><ele>349.0</ele><time>2026-05-01T08:36:04.449Z</time></trkpt><trkpt lat="34.465399" lon="8.8403679"><ele>349.0</ele><time>2026-05-01T08:36:05.453Z</time></trkpt><trkpt lat="34.4655549" lon="8.840483"><ele>349.0</ele><time>2026-05-01T08:36:06.439Z</time></trkpt><trkpt lat="34.4657115" lon="8.8405981"><ele>349.0</ele><time>2026-05-01T08:36:07.457Z</time></trkpt><trkpt lat="34.4658704" lon="8.8407189"><ele>349.0</ele><time>2026-05-01T08:36:08.454Z</time></trkpt><trkpt lat="34.4660269" lon="8.840837"><ele>349.0</ele><time>2026-05-01T08:36:09.45Z</time></trkpt><trkpt lat="34.4661861" lon="8.8409555"><ele>349.0</ele><time>2026-05-01T08:36:10.445Z</time></trkpt><trkpt lat="34.4663454" lon="8.8410751"><ele>349.3333333333333</ele><time>2026-05-01T08:36:11.451Z</time></trkpt><trkpt lat="34.4665061" lon="8.8411937"><ele>349.6666666666667</ele><time>2026-05-01T08:36:12.458Z</time></trkpt><trkpt lat="34.4666649" lon="8.8413062"><ele>350.0</ele><time>2026-05-01T08:36:13.451Z</time></trkpt><trkpt lat="34.4668259" lon="8.8414263"><ele>350.0</ele><time>2026-05-01T08:36:14.451Z</time></trkpt><trkpt lat="34.4669864" lon="8.8415458"><ele>350.0</ele><time>2026-05-01T08:36:15.446Z</time></trkpt><trkpt lat="34.4671452" lon="8.8416704"><ele>350.0</ele><time>2026-05-01T08:36:16.449Z</time></trkpt><trkpt lat="34.4673041" lon="8.8417862"><ele>349.33333333333337</ele><time>2026-05-01T08:36:17.489Z</time></trkpt><trkpt lat="34.4674633" lon="8.8419012"><ele>348.6666666666667</ele><time>2026-05-01T08:36:18.442Z</time></trkpt><trkpt lat="34.4676225" lon="8.8420191"><ele>348.0</ele><time>2026-05-01T08:36:19.443Z</time></trkpt><trkpt lat="34.4677767" lon="8.8421465"><ele>348.0</ele><time>2026-05-01T08:36:20.454Z</time></trkpt><trkpt lat="34.467927" lon="8.8422815"><ele>348.0</ele><time>2026-05-01T08:36:21.453Z</time></trkpt><trkpt lat="34.4680788" lon="8.8424143"><ele>348.0</ele><time>2026-05-01T08:36:22.451Z</time></trkpt><trkpt lat="34.4682322" lon="8.8425451"><ele>348.6666666666667</ele><time>2026-05-01T08:36:23.455Z</time></trkpt><trkpt lat="34.4683875" lon="8.8426764"><ele>349.33333333333337</ele><time>2026-05-01T08:36:24.451Z</time></trkpt><trkpt lat="34.468543" lon="8.842813"><ele>350.0</ele><time>2026-05-01T08:36:25.447Z</time></trkpt><trkpt lat="34.4686957" lon="8.8429441"><ele>350.0</ele><time>2026-05-01T08:36:26.434Z</time></trkpt><trkpt lat="34.4688465" lon="8.8430769"><ele>350.0</ele><time>2026-05-01T08:36:27.441Z</time></trkpt><trkpt lat="34.4689974" lon="8.8432108"><ele>350.0</ele><time>2026-05-01T08:36:28.469Z</time></trkpt><trkpt lat="34.4691508" lon="8.8433451"><ele>350.33333333333337</ele><time>2026-05-01T08:36:29.433Z</time></trkpt><trkpt lat="34.469305" lon="8.8434818"><ele>350.6666666666667</ele><time>2026-05-01T08:36:30.45Z</time></trkpt><trkpt lat="34.4694597" lon="8.843618"><ele>351.0</ele><time>2026-05-01T08:36:31.45Z</time></trkpt><trkpt lat="34.4696157" lon="8.8437507"><ele>351.0</ele><time>2026-05-01T08:36:32.456Z</time></trkpt><trkpt lat="34.4697707" lon="8.8438875"><ele>351.0</ele><time>2026-05-01T08:36:33.433Z</time></trkpt><trkpt lat="34.4699205" lon="8.844021"><ele>351.0</ele><time>2026-05-01T08:36:34.44Z</time></trkpt><trkpt lat="34.470069" lon="8.844156"><ele>351.0</ele><time>2026-05-01T08:36:35.434Z</time></trkpt><trkpt lat="34.4702175" lon="8.8442909"><ele>351.0</ele><time>2026-05-01T08:36:36.433Z</time></trkpt><trkpt lat="34.4703649" lon="8.8444218"><ele>351.0</ele><time>2026-05-01T08:36:37.444Z</time></trkpt><trkpt lat="34.470513" lon="8.8445551"><ele>351.6666666666667</ele><time>2026-05-01T08:36:38.447Z</time></trkpt><trkpt lat="34.4706644" lon="8.8446867"><ele>352.33333333333337</ele><time>2026-05-01T08:36:39.444Z</time></trkpt><trkpt lat="34.4708169" lon="8.8448215"><ele>353.0</ele><time>2026-05-01T08:36:40.448Z</time></trkpt><trkpt lat="34.4709684" lon="8.8449533"><ele>353.0</ele><time>2026-05-01T08:36:41.442Z</time></trkpt><trkpt lat="34.4711189" lon="8.8450837"><ele>353.0</ele><time>2026-05-01T08:36:42.451Z</time></trkpt><trkpt lat="34.4712727" lon="8.8452141"><ele>353.0</ele><time>2026-05-01T08:36:43.444Z</time></trkpt><trkpt lat="34.4714227" lon="8.8453477"><ele>353.0</ele><time>2026-05-01T08:36:44.459Z</time></trkpt><trkpt lat="34.4715684" lon="8.8454834"><ele>353.0</ele><time>2026-05-01T08:36:45.464Z</time></trkpt><trkpt lat="34.4717169" lon="8.8456253"><ele>353.0</ele><time>2026-05-01T08:36:46.456Z</time></trkpt><trkpt lat="34.4718734" lon="8.8457584"><ele>353.0</ele><time>2026-05-01T08:36:47.44Z</time></trkpt><trkpt lat="34.4720267" lon="8.8458917"><ele>353.0</ele><time>2026-05-01T08:36:48.449Z</time></trkpt><trkpt lat="34.4721761" lon="8.8460274"><ele>353.0</ele><time>2026-05-01T08:36:49.431Z</time></trkpt><trkpt lat="34.4723263" lon="8.8461644"><ele>353.6666666666667</ele><time>2026-05-01T08:36:50.443Z</time></trkpt><trkpt lat="34.4724703" lon="8.8463053"><ele>354.3333333333333</ele><time>2026-05-01T08:36:51.458Z</time></trkpt><trkpt lat="34.4726227" lon="8.8464488"><ele>355.0</ele><time>2026-05-01T08:36:52.452Z</time></trkpt><trkpt lat="34.4727727" lon="8.8465875"><ele>355.0</ele><time>2026-05-01T08:36:53.436Z</time></trkpt><trkpt lat="34.4729252" lon="8.8467126"><ele>355.0</ele><time>2026-05-01T08:36:54.447Z</time></trkpt><trkpt lat="34.4730769" lon="8.8468416"><ele>355.0</ele><time>2026-05-01T08:36:55.45Z</time></trkpt><trkpt lat="34.4732451" lon="8.8469684"><ele>355.66666666666663</ele><time>2026-05-01T08:36:56.456Z</time></trkpt><trkpt lat="34.4734142" lon="8.8470928"><ele>356.3333333333333</ele><time>2026-05-01T08:36:57.46Z</time></trkpt><trkpt lat="34.4735883" lon="8.8472208"><ele>357.0</ele><time>2026-05-01T08:36:58.444Z</time></trkpt><trkpt lat="34.473766" lon="8.8473516"><ele>356.6666666666667</ele><time>2026-05-01T08:36:59.456Z</time></trkpt><trkpt lat="34.47394" lon="8.8474759"><ele>356.33333333333337</ele><time>2026-05-01T08:37:00.458Z</time></trkpt><trkpt lat="34.4741143" lon="8.8476024"><ele>356.0</ele><time>2026-05-01T08:37:01.47Z</time></trkpt><trkpt lat="34.4742914" lon="8.8477271"><ele>356.0</ele><time>2026-05-01T08:37:02.46Z</time></trkpt><trkpt lat="34.4744709" lon="8.8478538"><ele>356.0</ele><time>2026-05-01T08:37:03.434Z</time></trkpt><trkpt lat="34.4746542" lon="8.8479853"><ele>356.0</ele><time>2026-05-01T08:37:04.438Z</time></trkpt><trkpt lat="34.4748364" lon="8.8481187"><ele>356.0</ele><time>2026-05-01T08:37:05.437Z</time></trkpt><trkpt lat="34.4750171" lon="8.848247"><ele>356.0</ele><time>2026-05-01T08:37:06.44Z</time></trkpt><trkpt lat="34.4752016" lon="8.848378"><ele>356.0</ele><time>2026-05-01T08:37:07.444Z</time></trkpt><trkpt lat="34.4753857" lon="8.848506"><ele>355.6666666666667</ele><time>2026-05-01T08:37:08.438Z</time></trkpt><trkpt lat="34.4755678" lon="8.8486285"><ele>355.3333333333333</ele><time>2026-05-01T08:37:09.459Z</time></trkpt><trkpt lat="34.4757487" lon="8.8487518"><ele>355.0</ele><time>2026-05-01T08:37:10.445Z</time></trkpt><trkpt lat="34.4759261" lon="8.8488748"><ele>355.0</ele><time>2026-05-01T08:37:11.449Z</time></trkpt><trkpt lat="34.4761081" lon="8.8490027"><ele>355.0</ele><time>2026-05-01T08:37:12.445Z</time></trkpt><trkpt lat="34.476285" lon="8.8491285"><ele>355.0</ele><time>2026-05-01T08:37:13.443Z</time></trkpt><trkpt lat="34.4764649" lon="8.8492538"><ele>354.3333333333333</ele><time>2026-05-01T08:37:14.445Z</time></trkpt><trkpt lat="34.4766444" lon="8.8493833"><ele>353.6666666666667</ele><time>2026-05-01T08:37:15.441Z</time></trkpt><trkpt lat="34.476823" lon="8.8495076"><ele>353.0</ele><time>2026-05-01T08:37:16.443Z</time></trkpt><trkpt lat="34.4770052" lon="8.8496368"><ele>354.0</ele><time>2026-05-01T08:37:17.451Z</time></trkpt><trkpt lat="34.4771854" lon="8.8497632"><ele>355.0</ele><time>2026-05-01T08:37:18.445Z</time></trkpt><trkpt lat="34.4773647" lon="8.8498837"><ele>356.0</ele><time>2026-05-01T08:37:19.434Z</time></trkpt><trkpt lat="34.4775417" lon="8.8500018"><ele>355.33333333333337</ele><time>2026-05-01T08:37:20.45Z</time></trkpt><trkpt lat="34.4777154" lon="8.8501278"><ele>354.6666666666667</ele><time>2026-05-01T08:37:21.444Z</time></trkpt><trkpt lat="34.4778955" lon="8.8502461"><ele>354.0</ele><time>2026-05-01T08:37:22.436Z</time></trkpt><trkpt lat="34.478073" lon="8.8503677"><ele>355.6666666666667</ele><time>2026-05-01T08:37:23.458Z</time></trkpt><trkpt lat="34.4782518" lon="8.8504915"><ele>357.33333333333337</ele><time>2026-05-01T08:37:24.443Z</time></trkpt><trkpt lat="34.4784325" lon="8.8506179"><ele>359.0</ele><time>2026-05-01T08:37:25.456Z</time></trkpt><trkpt lat="34.4786144" lon="8.8507449"><ele>358.33333333333337</ele><time>2026-05-01T08:37:26.43Z</time></trkpt><trkpt lat="34.4787956" lon="8.8508756"><ele>357.6666666666667</ele><time>2026-05-01T08:37:27.438Z</time></trkpt><trkpt lat="34.4789784" lon="8.8510031"><ele>357.0</ele><time>2026-05-01T08:37:28.441Z</time></trkpt><trkpt lat="34.4791591" lon="8.851132"><ele>357.0</ele><time>2026-05-01T08:37:29.454Z</time></trkpt><trkpt lat="34.479341" lon="8.8512571"><ele>357.0</ele><time>2026-05-01T08:37:30.444Z</time></trkpt><trkpt lat="34.4795253" lon="8.8513866"><ele>357.0</ele><time>2026-05-01T08:37:31.437Z</time></trkpt><trkpt lat="34.4797077" lon="8.8515141"><ele>356.3333333333333</ele><time>2026-05-01T08:37:32.434Z</time></trkpt><trkpt lat="34.4798879" lon="8.8516463"><ele>355.66666666666663</ele><time>2026-05-01T08:37:33.446Z</time></trkpt><trkpt lat="34.4800651" lon="8.8517759"><ele>355.0</ele><time>2026-05-01T08:37:34.439Z</time></trkpt><trkpt lat="34.4802476" lon="8.8519043"><ele>356.0</ele><time>2026-05-01T08:37:35.433Z</time></trkpt><trkpt lat="34.4804345" lon="8.8520322"><ele>357.0</ele><time>2026-05-01T08:37:36.44Z</time></trkpt><trkpt lat="34.4806132" lon="8.852161"><ele>358.0</ele><time>2026-05-01T08:37:37.444Z</time></trkpt><trkpt lat="34.4807985" lon="8.8522869"><ele>358.0</ele><time>2026-05-01T08:37:38.432Z</time></trkpt><trkpt lat="34.4809857" lon="8.8524141"><ele>358.0</ele><time>2026-05-01T08:37:39.445Z</time></trkpt><trkpt lat="34.4811694" lon="8.8525431"><ele>358.0</ele><time>2026-05-01T08:37:40.443Z</time></trkpt><trkpt lat="34.4813527" lon="8.8526778"><ele>358.66666666666663</ele><time>2026-05-01T08:37:41.444Z</time></trkpt><trkpt lat="34.4815378" lon="8.8528165"><ele>359.3333333333333</ele><time>2026-05-01T08:37:42.441Z</time></trkpt><trkpt lat="34.4817203" lon="8.8529541"><ele>360.0</ele><time>2026-05-01T08:37:43.442Z</time></trkpt><trkpt lat="34.4818984" lon="8.853094"><ele>360.0</ele><time>2026-05-01T08:37:44.447Z</time></trkpt><trkpt lat="34.4820762" lon="8.8532354"><ele>360.0</ele><time>2026-05-01T08:37:45.448Z</time></trkpt><trkpt lat="34.4822557" lon="8.8533752"><ele>360.0</ele><time>2026-05-01T08:37:46.447Z</time></trkpt><trkpt lat="34.4824345" lon="8.8535159"><ele>360.0</ele><time>2026-05-01T08:37:47.454Z</time></trkpt><trkpt lat="34.482613" lon="8.8536526"><ele>360.0</ele><time>2026-05-01T08:37:48.464Z</time></trkpt><trkpt lat="34.4827874" lon="8.8537904"><ele>360.0</ele><time>2026-05-01T08:37:49.457Z</time></trkpt><trkpt lat="34.482969" lon="8.8539297"><ele>360.0</ele><time>2026-05-01T08:37:50.431Z</time></trkpt><trkpt lat="34.4831536" lon="8.8540676"><ele>360.0</ele><time>2026-05-01T08:37:51.437Z</time></trkpt><trkpt lat="34.4833344" lon="8.8542069"><ele>360.0</ele><time>2026-05-01T08:37:52.44Z</time></trkpt><trkpt lat="34.4835145" lon="8.8543448"><ele>359.3333333333333</ele><time>2026-05-01T08:37:53.441Z</time></trkpt><trkpt lat="34.4836941" lon="8.8544838"><ele>358.66666666666663</ele><time>2026-05-01T08:37:54.469Z</time></trkpt><trkpt lat="34.4838772" lon="8.8546191"><ele>358.0</ele><time>2026-05-01T08:37:55.43Z</time></trkpt><trkpt lat="34.4840636" lon="8.8547541"><ele>359.0</ele><time>2026-05-01T08:37:56.455Z</time></trkpt><trkpt lat="34.4842473" lon="8.8548882"><ele>360.0</ele><time>2026-05-01T08:37:57.463Z</time></trkpt><trkpt lat="34.4844299" lon="8.8550238"><ele>361.0</ele><time>2026-05-01T08:37:58.444Z</time></trkpt><trkpt lat="34.4846102" lon="8.8551626"><ele>361.0</ele><time>2026-05-01T08:37:59.443Z</time></trkpt><trkpt lat="34.4847845" lon="8.8552994"><ele>361.0</ele><time>2026-05-01T08:38:00.449Z</time></trkpt><trkpt lat="34.4849669" lon="8.8554357"><ele>361.0</ele><time>2026-05-01T08:38:01.417Z</time></trkpt><trkpt lat="34.4851482" lon="8.8555678"><ele>361.0</ele><time>2026-05-01T08:38:02.418Z</time></trkpt><trkpt lat="34.4853284" lon="8.855703"><ele>361.0</ele><time>2026-05-01T08:38:03.45Z</time></trkpt><trkpt lat="34.4855066" lon="8.855843"><ele>361.0</ele><time>2026-05-01T08:38:04.437Z</time></trkpt><trkpt lat="34.4856898" lon="8.8559778"><ele>362.3333333333333</ele><time>2026-05-01T08:38:05.474Z</time></trkpt><trkpt lat="34.4858713" lon="8.856116"><ele>363.6666666666667</ele><time>2026-05-01T08:38:06.441Z</time></trkpt><trkpt lat="34.4860523" lon="8.8562455"><ele>365.0</ele><time>2026-05-01T08:38:07.45Z</time></trkpt><trkpt lat="34.4862335" lon="8.8563804"><ele>365.0</ele><time>2026-05-01T08:38:08.438Z</time></trkpt><trkpt lat="34.4864139" lon="8.8565138"><ele>365.0</ele><time>2026-05-01T08:38:09.443Z</time></trkpt><trkpt lat="34.4865907" lon="8.8566532"><ele>365.0</ele><time>2026-05-01T08:38:10.474Z</time></trkpt><trkpt lat="34.4867703" lon="8.8567903"><ele>364.6666666666667</ele><time>2026-05-01T08:38:11.448Z</time></trkpt><trkpt lat="34.4869554" lon="8.8569283"><ele>364.3333333333333</ele><time>2026-05-01T08:38:12.452Z</time></trkpt><trkpt lat="34.4871402" lon="8.8570661"><ele>364.0</ele><time>2026-05-01T08:38:13.457Z</time></trkpt><trkpt lat="34.4873201" lon="8.8572056"><ele>364.3333333333333</ele><time>2026-05-01T08:38:14.457Z</time></trkpt><trkpt lat="34.4875053" lon="8.8573448"><ele>364.6666666666667</ele><time>2026-05-01T08:38:15.447Z</time></trkpt><trkpt lat="34.4876851" lon="8.8574836"><ele>365.0</ele><time>2026-05-01T08:38:16.454Z</time></trkpt><trkpt lat="34.4878687" lon="8.8576222"><ele>364.33333333333337</ele><time>2026-05-01T08:38:17.457Z</time></trkpt><trkpt lat="34.4880547" lon="8.8577607"><ele>363.6666666666667</ele><time>2026-05-01T08:38:18.456Z</time></trkpt><trkpt lat="34.4882367" lon="8.8578972"><ele>363.0</ele><time>2026-05-01T08:38:19.439Z</time></trkpt><trkpt lat="34.4884179" lon="8.8580359"><ele>363.0</ele><time>2026-05-01T08:38:20.455Z</time></trkpt><trkpt lat="34.488597" lon="8.8581765"><ele>363.0</ele><time>2026-05-01T08:38:21.469Z</time></trkpt><trkpt lat="34.4887762" lon="8.8583113"><ele>363.0</ele><time>2026-05-01T08:38:22.438Z</time></trkpt><trkpt lat="34.4889558" lon="8.8584463"><ele>362.6666666666667</ele><time>2026-05-01T08:38:23.467Z</time></trkpt><trkpt lat="34.4891349" lon="8.8585806"><ele>362.33333333333337</ele><time>2026-05-01T08:38:24.43Z</time></trkpt><trkpt lat="34.489316" lon="8.8587179"><ele>362.0</ele><time>2026-05-01T08:38:25.451Z</time></trkpt><trkpt lat="34.4894993" lon="8.8588573"><ele>362.6666666666667</ele><time>2026-05-01T08:38:26.454Z</time></trkpt><trkpt lat="34.4896807" lon="8.8589951"><ele>363.3333333333333</ele><time>2026-05-01T08:38:27.445Z</time></trkpt><trkpt lat="34.4898637" lon="8.8591328"><ele>364.0</ele><time>2026-05-01T08:38:28.449Z</time></trkpt><trkpt lat="34.4900464" lon="8.8592666"><ele>363.66666666666663</ele><time>2026-05-01T08:38:29.448Z</time></trkpt><trkpt lat="34.4902287" lon="8.8593993"><ele>363.3333333333333</ele><time>2026-05-01T08:38:30.438Z</time></trkpt><trkpt lat="34.4904085" lon="8.859533"><ele>363.0</ele><time>2026-05-01T08:38:31.457Z</time></trkpt><trkpt lat="34.4905885" lon="8.859666"><ele>363.0</ele><time>2026-05-01T08:38:32.451Z</time></trkpt><trkpt lat="34.4907731" lon="8.8598059"><ele>363.0</ele><time>2026-05-01T08:38:33.455Z</time></trkpt><trkpt lat="34.4909527" lon="8.8599452"><ele>363.0</ele><time>2026-05-01T08:38:34.435Z</time></trkpt><trkpt lat="34.4911375" lon="8.8600839"><ele>363.6666666666667</ele><time>2026-05-01T08:38:35.437Z</time></trkpt><trkpt lat="34.4913183" lon="8.8602223"><ele>364.33333333333337</ele><time>2026-05-01T08:38:36.447Z</time></trkpt><trkpt lat="34.491497" lon="8.8603617"><ele>365.0</ele><time>2026-05-01T08:38:37.45Z</time></trkpt><trkpt lat="34.4916806" lon="8.8605062"><ele>365.0</ele><time>2026-05-01T08:38:38.452Z</time></trkpt><trkpt lat="34.4918613" lon="8.8606403"><ele>365.0</ele><time>2026-05-01T08:38:39.441Z</time></trkpt><trkpt lat="34.4920392" lon="8.8607745"><ele>365.0</ele><time>2026-05-01T08:38:40.443Z</time></trkpt><trkpt lat="34.4922177" lon="8.8609094"><ele>364.0</ele><time>2026-05-01T08:38:41.454Z</time></trkpt><trkpt lat="34.492396" lon="8.8610457"><ele>363.0</ele><time>2026-05-01T08:38:42.457Z</time></trkpt><trkpt lat="34.4925781" lon="8.8611806"><ele>362.0</ele><time>2026-05-01T08:38:43.434Z</time></trkpt><trkpt lat="34.4927621" lon="8.8613185"><ele>361.6666666666667</ele><time>2026-05-01T08:38:44.456Z</time></trkpt><trkpt lat="34.4929443" lon="8.8614508"><ele>361.3333333333333</ele><time>2026-05-01T08:38:45.485Z</time></trkpt><trkpt lat="34.4931257" lon="8.8615872"><ele>361.0</ele><time>2026-05-01T08:38:46.449Z</time></trkpt><trkpt lat="34.4933121" lon="8.8617264"><ele>360.66666666666663</ele><time>2026-05-01T08:38:47.443Z</time></trkpt><trkpt lat="34.4934912" lon="8.8618687"><ele>360.3333333333333</ele><time>2026-05-01T08:38:48.447Z</time></trkpt><trkpt lat="34.4936716" lon="8.8620084"><ele>360.0</ele><time>2026-05-01T08:38:49.439Z</time></trkpt><trkpt lat="34.49385" lon="8.8621441"><ele>360.6666666666667</ele><time>2026-05-01T08:38:50.445Z</time></trkpt><trkpt lat="34.494028" lon="8.8622797"><ele>361.33333333333337</ele><time>2026-05-01T08:38:51.441Z</time></trkpt><trkpt lat="34.4942059" lon="8.8624125"><ele>362.0</ele><time>2026-05-01T08:38:52.434Z</time></trkpt><trkpt lat="34.4943852" lon="8.8625515"><ele>362.0</ele><time>2026-05-01T08:38:53.439Z</time></trkpt><trkpt lat="34.4945617" lon="8.8626872"><ele>362.0</ele><time>2026-05-01T08:38:54.458Z</time></trkpt><trkpt lat="34.4947346" lon="8.8628227"><ele>362.0</ele><time>2026-05-01T08:38:55.451Z</time></trkpt><trkpt lat="34.4949097" lon="8.8629582"><ele>362.33333333333337</ele><time>2026-05-01T08:38:56.455Z</time></trkpt><trkpt lat="34.495089" lon="8.8630919"><ele>362.6666666666667</ele><time>2026-05-01T08:38:57.448Z</time></trkpt><trkpt lat="34.4952651" lon="8.8632203"><ele>363.0</ele><time>2026-05-01T08:38:58.464Z</time></trkpt><trkpt lat="34.4954403" lon="8.8633498"><ele>363.6666666666667</ele><time>2026-05-01T08:38:59.441Z</time></trkpt><trkpt lat="34.4956134" lon="8.8634774"><ele>364.33333333333337</ele><time>2026-05-01T08:39:00.457Z</time></trkpt><trkpt lat="34.4957862" lon="8.863606"><ele>365.0</ele><time>2026-05-01T08:39:01.452Z</time></trkpt><trkpt lat="34.495959" lon="8.8637341"><ele>365.0</ele><time>2026-05-01T08:39:02.463Z</time></trkpt><trkpt lat="34.4961302" lon="8.8638627"><ele>365.0</ele><time>2026-05-01T08:39:03.478Z</time></trkpt><trkpt lat="34.4963018" lon="8.8639925"><ele>365.0</ele><time>2026-05-01T08:39:04.44Z</time></trkpt><trkpt lat="34.4964713" lon="8.8641268"><ele>365.33333333333337</ele><time>2026-05-01T08:39:05.431Z</time></trkpt><trkpt lat="34.496647" lon="8.8642567"><ele>365.6666666666667</ele><time>2026-05-01T08:39:06.444Z</time></trkpt><trkpt lat="34.4968169" lon="8.8643947"><ele>366.0</ele><time>2026-05-01T08:39:07.434Z</time></trkpt><trkpt lat="34.4969914" lon="8.8645213"><ele>365.0</ele><time>2026-05-01T08:39:08.458Z</time></trkpt><trkpt lat="34.4971622" lon="8.8646501"><ele>364.0</ele><time>2026-05-01T08:39:09.438Z</time></trkpt><trkpt lat="34.4973358" lon="8.8647808"><ele>363.0</ele><time>2026-05-01T08:39:10.441Z</time></trkpt><trkpt lat="34.4975078" lon="8.8649119"><ele>363.0</ele><time>2026-05-01T08:39:11.458Z</time></trkpt><trkpt lat="34.4976775" lon="8.865042"><ele>363.0</ele><time>2026-05-01T08:39:12.441Z</time></trkpt><trkpt lat="34.4978536" lon="8.8651716"><ele>363.0</ele><time>2026-05-01T08:39:13.457Z</time></trkpt><trkpt lat="34.4980307" lon="8.865305"><ele>364.0</ele><time>2026-05-01T08:39:14.466Z</time></trkpt><trkpt lat="34.4982025" lon="8.8654363"><ele>365.0</ele><time>2026-05-01T08:39:15.461Z</time></trkpt><trkpt lat="34.4983711" lon="8.8655667"><ele>366.0</ele><time>2026-05-01T08:39:16.442Z</time></trkpt><trkpt lat="34.4985453" lon="8.865697"><ele>366.0</ele><time>2026-05-01T08:39:17.443Z</time></trkpt><trkpt lat="34.4987185" lon="8.8658277"><ele>366.0</ele><time>2026-05-01T08:39:18.444Z</time></trkpt><trkpt lat="34.4988958" lon="8.8659582"><ele>366.0</ele><time>2026-05-01T08:39:19.45Z</time></trkpt><trkpt lat="34.4990694" lon="8.8660991"><ele>366.3333333333333</ele><time>2026-05-01T08:39:20.458Z</time></trkpt><trkpt lat="34.4992443" lon="8.8662357"><ele>366.66666666666663</ele><time>2026-05-01T08:39:21.443Z</time></trkpt><trkpt lat="34.4994178" lon="8.8663644"><ele>367.0</ele><time>2026-05-01T08:39:22.448Z</time></trkpt><trkpt lat="34.4995876" lon="8.8664972"><ele>367.0</ele><time>2026-05-01T08:39:23.436Z</time></trkpt><trkpt lat="34.4997622" lon="8.8666285"><ele>367.0</ele><time>2026-05-01T08:39:24.453Z</time></trkpt><trkpt lat="34.4999362" lon="8.8667617"><ele>367.0</ele><time>2026-05-01T08:39:25.445Z</time></trkpt><trkpt lat="34.5001049" lon="8.8668925"><ele>367.66666666666663</ele><time>2026-05-01T08:39:26.455Z</time></trkpt><trkpt lat="34.5002777" lon="8.867022"><ele>368.3333333333333</ele><time>2026-05-01T08:39:27.448Z</time></trkpt><trkpt lat="34.5004503" lon="8.8671492"><ele>369.0</ele><time>2026-05-01T08:39:28.449Z</time></trkpt><trkpt lat="34.5006222" lon="8.8672814"><ele>369.0</ele><time>2026-05-01T08:39:29.454Z</time></trkpt><trkpt lat="34.500794" lon="8.8674149"><ele>369.0</ele><time>2026-05-01T08:39:30.444Z</time></trkpt><trkpt lat="34.5009688" lon="8.8675465"><ele>369.0</ele><time>2026-05-01T08:39:31.429Z</time></trkpt><trkpt lat="34.5011391" lon="8.8676797"><ele>368.6666666666667</ele><time>2026-05-01T08:39:32.447Z</time></trkpt><trkpt lat="34.5013108" lon="8.8678168"><ele>368.33333333333337</ele><time>2026-05-01T08:39:33.443Z</time></trkpt><trkpt lat="34.501478" lon="8.8679581"><ele>368.0</ele><time>2026-05-01T08:39:34.444Z</time></trkpt><trkpt lat="34.5016528" lon="8.8680962"><ele>368.0</ele><time>2026-05-01T08:39:35.431Z</time></trkpt><trkpt lat="34.5018244" lon="8.8682387"><ele>368.0</ele><time>2026-05-01T08:39:36.449Z</time></trkpt><trkpt lat="34.5019943" lon="8.8683753"><ele>368.0</ele><time>2026-05-01T08:39:37.445Z</time></trkpt><trkpt lat="34.5021658" lon="8.8685065"><ele>367.33333333333337</ele><time>2026-05-01T08:39:38.445Z</time></trkpt><trkpt lat="34.5023332" lon="8.8686422"><ele>366.6666666666667</ele><time>2026-05-01T08:39:39.442Z</time></trkpt><trkpt lat="34.5024957" lon="8.8687821"><ele>366.0</ele><time>2026-05-01T08:39:40.444Z</time></trkpt><trkpt lat="34.5026633" lon="8.8689263"><ele>366.0</ele><time>2026-05-01T08:39:41.463Z</time></trkpt><trkpt lat="34.5028298" lon="8.8690678"><ele>366.0</ele><time>2026-05-01T08:39:42.455Z</time></trkpt><trkpt lat="34.503" lon="8.8692153"><ele>366.0</ele><time>2026-05-01T08:39:43.449Z</time></trkpt><trkpt lat="34.5031663" lon="8.8693574"><ele>366.6666666666667</ele><time>2026-05-01T08:39:44.435Z</time></trkpt><trkpt lat="34.5033314" lon="8.8695107"><ele>367.33333333333337</ele><time>2026-05-01T08:39:45.445Z</time></trkpt><trkpt lat="34.5034906" lon="8.8696611"><ele>368.0</ele><time>2026-05-01T08:39:46.447Z</time></trkpt><trkpt lat="34.503649" lon="8.8698163"><ele>367.6666666666667</ele><time>2026-05-01T08:39:47.455Z</time></trkpt><trkpt lat="34.5038038" lon="8.8699752"><ele>367.3333333333333</ele><time>2026-05-01T08:39:48.446Z</time></trkpt><trkpt lat="34.5039628" lon="8.8701428"><ele>367.0</ele><time>2026-05-01T08:39:49.453Z</time></trkpt><trkpt lat="34.5041159" lon="8.8703103"><ele>366.66666666666663</ele><time>2026-05-01T08:39:50.44Z</time></trkpt><trkpt lat="34.5042739" lon="8.8704793"><ele>366.3333333333333</ele><time>2026-05-01T08:39:51.446Z</time></trkpt><trkpt lat="34.5044268" lon="8.8706463"><ele>366.0</ele><time>2026-05-01T08:39:52.472Z</time></trkpt><trkpt lat="34.5045811" lon="8.8708146"><ele>366.0</ele><time>2026-05-01T08:39:53.433Z</time></trkpt><trkpt lat="34.504734" lon="8.8709764"><ele>366.0</ele><time>2026-05-01T08:39:54.449Z</time></trkpt><trkpt lat="34.5048861" lon="8.8711394"><ele>366.0</ele><time>2026-05-01T08:39:55.472Z</time></trkpt><trkpt lat="34.5050382" lon="8.8713013"><ele>366.0</ele><time>2026-05-01T08:39:56.453Z</time></trkpt><trkpt lat="34.5051909" lon="8.8714628"><ele>366.0</ele><time>2026-05-01T08:39:57.447Z</time></trkpt><trkpt lat="34.5053432" lon="8.8716272"><ele>366.0</ele><time>2026-05-01T08:39:58.44Z</time></trkpt><trkpt lat="34.5054976" lon="8.8717881"><ele>366.0</ele><time>2026-05-01T08:39:59.444Z</time></trkpt><trkpt lat="34.5056488" lon="8.8719494"><ele>366.0</ele><time>2026-05-01T08:40:00.461Z</time></trkpt><trkpt lat="34.5057951" lon="8.8721166"><ele>366.0</ele><time>2026-05-01T08:40:01.441Z</time></trkpt><trkpt lat="34.505943" lon="8.8722787"><ele>366.0</ele><time>2026-05-01T08:40:02.441Z</time></trkpt><trkpt lat="34.5060966" lon="8.8724463"><ele>366.0</ele><time>2026-05-01T08:40:03.446Z</time></trkpt><trkpt lat="34.5062513" lon="8.8726069"><ele>366.0</ele><time>2026-05-01T08:40:04.43Z</time></trkpt><trkpt lat="34.5064016" lon="8.8727784"><ele>366.3333333333333</ele><time>2026-05-01T08:40:05.451Z</time></trkpt><trkpt lat="34.5065552" lon="8.8729497"><ele>366.66666666666663</ele><time>2026-05-01T08:40:06.442Z</time></trkpt><trkpt lat="34.5067067" lon="8.8731195"><ele>367.0</ele><time>2026-05-01T08:40:07.442Z</time></trkpt><trkpt lat="34.5068556" lon="8.8732917"><ele>367.3333333333333</ele><time>2026-05-01T08:40:08.426Z</time></trkpt><trkpt lat="34.5070009" lon="8.8734613"><ele>367.6666666666667</ele><time>2026-05-01T08:40:09.459Z</time></trkpt><trkpt lat="34.5071471" lon="8.8736294"><ele>368.0</ele><time>2026-05-01T08:40:10.458Z</time></trkpt><trkpt lat="34.5072974" lon="8.8737975"><ele>368.0</ele><time>2026-05-01T08:40:11.444Z</time></trkpt><trkpt lat="34.5074484" lon="8.8739642"><ele>368.0</ele><time>2026-05-01T08:40:12.447Z</time></trkpt><trkpt lat="34.5075971" lon="8.8741309"><ele>368.0</ele><time>2026-05-01T08:40:13.446Z</time></trkpt><trkpt lat="34.5077517" lon="8.8742921"><ele>367.33333333333337</ele><time>2026-05-01T08:40:14.463Z</time></trkpt><trkpt lat="34.5079053" lon="8.8744567"><ele>366.6666666666667</ele><time>2026-05-01T08:40:15.437Z</time></trkpt><trkpt lat="34.5080492" lon="8.8746118"><ele>366.0</ele><time>2026-05-01T08:40:16.45Z</time></trkpt><trkpt lat="34.5081936" lon="8.8747635"><ele>366.0</ele><time>2026-05-01T08:40:17.441Z</time></trkpt><trkpt lat="34.5083287" lon="8.8749112"><ele>366.0</ele><time>2026-05-01T08:40:18.444Z</time></trkpt><trkpt lat="34.508455" lon="8.8750506"><ele>366.0</ele><time>2026-05-01T08:40:19.438Z</time></trkpt><trkpt lat="34.5085771" lon="8.8751845"><ele>366.0</ele><time>2026-05-01T08:40:20.443Z</time></trkpt><trkpt lat="34.5086966" lon="8.8753167"><ele>366.0</ele><time>2026-05-01T08:40:21.46Z</time></trkpt><trkpt lat="34.5088147" lon="8.8754473"><ele>366.0</ele><time>2026-05-01T08:40:22.447Z</time></trkpt><trkpt lat="34.508933" lon="8.8755776"><ele>365.6666666666667</ele><time>2026-05-01T08:40:23.438Z</time></trkpt><trkpt lat="34.5090495" lon="8.8757118"><ele>365.33333333333337</ele><time>2026-05-01T08:40:24.44Z</time></trkpt><trkpt lat="34.5091645" lon="8.8758333"><ele>365.0</ele><time>2026-05-01T08:40:25.448Z</time></trkpt><trkpt lat="34.5092696" lon="8.875952"><ele>365.0</ele><time>2026-05-01T08:40:26.469Z</time></trkpt><trkpt lat="34.5093685" lon="8.8760567"><ele>365.0</ele><time>2026-05-01T08:40:27.452Z</time></trkpt><trkpt lat="34.5094547" lon="8.8761537"><ele>365.0</ele><time>2026-05-01T08:40:28.448Z</time></trkpt><trkpt lat="34.5095314" lon="8.8762319"><ele>365.0</ele><time>2026-05-01T08:40:29.446Z</time></trkpt><trkpt lat="34.509592" lon="8.8762977"><ele>365.0</ele><time>2026-05-01T08:40:30.445Z</time></trkpt><trkpt lat="34.5096451" lon="8.8763552"><ele>365.6</ele><time>2026-05-01T08:40:31.452Z</time></trkpt><trkpt lat="34.5096951" lon="8.876407"><ele>366.2</ele><time>2026-05-01T08:40:32.442Z</time></trkpt><trkpt lat="34.5097919" lon="8.8765074"><ele>366.79999999999995</ele><time>2026-05-01T08:40:34.445Z</time></trkpt><trkpt lat="34.509844" lon="8.8765671"><ele>367.4</ele><time>2026-05-01T08:40:35.456Z</time></trkpt><trkpt lat="34.5099038" lon="8.8766378"><ele>368.0</ele><time>2026-05-01T08:40:36.446Z</time></trkpt><trkpt lat="34.5099779" lon="8.8767264"><ele>367.75</ele><time>2026-05-01T08:40:37.444Z</time></trkpt><trkpt lat="34.5100634" lon="8.8768209"><ele>367.5</ele><time>2026-05-01T08:40:38.431Z</time></trkpt><trkpt lat="34.5101515" lon="8.8769179"><ele>367.25</ele><time>2026-05-01T08:40:39.441Z</time></trkpt><trkpt lat="34.5102361" lon="8.8770172"><ele>367.0</ele><time>2026-05-01T08:40:40.44Z</time></trkpt><trkpt lat="34.5103189" lon="8.8771079"><ele>367.0</ele><time>2026-05-01T08:40:41.455Z</time></trkpt><trkpt lat="34.5103902" lon="8.8771835"><ele>367.0</ele><time>2026-05-01T08:40:42.468Z</time></trkpt><trkpt lat="34.5104586" lon="8.8772534"><ele>367.0</ele><time>2026-05-01T08:40:43.452Z</time></trkpt><trkpt lat="34.510518" lon="8.8773234"><ele>367.0</ele><time>2026-05-01T08:40:44.45Z</time></trkpt><trkpt lat="34.5105833" lon="8.8774026"><ele>367.0</ele><time>2026-05-01T08:40:45.447Z</time></trkpt><trkpt lat="34.5106624" lon="8.8774891"><ele>367.0</ele><time>2026-05-01T08:40:46.449Z</time></trkpt><trkpt lat="34.5107544" lon="8.8775995"><ele>367.0</ele><time>2026-05-01T08:40:47.454Z</time></trkpt><trkpt lat="34.5108657" lon="8.8777272"><ele>367.0</ele><time>2026-05-01T08:40:48.449Z</time></trkpt><trkpt lat="34.5109921" lon="8.8778672"><ele>366.66666666666663</ele><time>2026-05-01T08:40:49.458Z</time></trkpt><trkpt lat="34.5111256" lon="8.8780151"><ele>366.3333333333333</ele><time>2026-05-01T08:40:50.458Z</time></trkpt><trkpt lat="34.5112675" lon="8.8781759"><ele>366.0</ele><time>2026-05-01T08:40:51.45Z</time></trkpt><trkpt lat="34.5114113" lon="8.8783433"><ele>365.6666666666667</ele><time>2026-05-01T08:40:52.445Z</time></trkpt><trkpt lat="34.5115613" lon="8.8785105"><ele>365.33333333333337</ele><time>2026-05-01T08:40:53.436Z</time></trkpt><trkpt lat="34.5117147" lon="8.8786802"><ele>365.0</ele><time>2026-05-01T08:40:54.442Z</time></trkpt><trkpt lat="34.5118714" lon="8.8788527"><ele>365.0</ele><time>2026-05-01T08:40:55.452Z</time></trkpt><trkpt lat="34.5120323" lon="8.8790223"><ele>365.0</ele><time>2026-05-01T08:40:56.437Z</time></trkpt><trkpt lat="34.5121881" lon="8.8792039"><ele>365.0</ele><time>2026-05-01T08:40:57.434Z</time></trkpt><trkpt lat="34.5123485" lon="8.879389"><ele>365.33333333333337</ele><time>2026-05-01T08:40:58.436Z</time></trkpt><trkpt lat="34.5125073" lon="8.8795684"><ele>365.6666666666667</ele><time>2026-05-01T08:40:59.44Z</time></trkpt><trkpt lat="34.5126707" lon="8.8797431"><ele>366.0</ele><time>2026-05-01T08:41:00.452Z</time></trkpt><trkpt lat="34.5128308" lon="8.8799273"><ele>365.5</ele><time>2026-05-01T08:41:01.459Z</time></trkpt><trkpt lat="34.5129972" lon="8.8801171"><ele>365.0</ele><time>2026-05-01T08:41:02.446Z</time></trkpt><trkpt lat="34.5131686" lon="8.8803056"><ele>365.0</ele><time>2026-05-01T08:41:03.449Z</time></trkpt><trkpt lat="34.5133421" lon="8.8804943"><ele>365.0</ele><time>2026-05-01T08:41:04.452Z</time></trkpt><trkpt lat="34.5135173" lon="8.8806826"><ele>365.0</ele><time>2026-05-01T08:41:05.439Z</time></trkpt><trkpt lat="34.5136942" lon="8.8808691"><ele>365.0</ele><time>2026-05-01T08:41:06.445Z</time></trkpt><trkpt lat="34.5138784" lon="8.881049"><ele>366.5</ele><time>2026-05-01T08:41:07.445Z</time></trkpt><trkpt lat="34.5140609" lon="8.8812179"><ele>368.0</ele><time>2026-05-01T08:41:08.432Z</time></trkpt><trkpt lat="34.5142494" lon="8.8813796"><ele>368.0</ele><time>2026-05-01T08:41:09.443Z</time></trkpt><trkpt lat="34.5144399" lon="8.8815378"><ele>368.0</ele><time>2026-05-01T08:41:10.479Z</time></trkpt><trkpt lat="34.5146346" lon="8.8816984"><ele>367.0</ele><time>2026-05-01T08:41:11.497Z</time></trkpt><trkpt lat="34.5148283" lon="8.881852"><ele>366.0</ele><time>2026-05-01T08:41:12.459Z</time></trkpt><trkpt lat="34.5150158" lon="8.8820102"><ele>366.0</ele><time>2026-05-01T08:41:13.474Z</time></trkpt><trkpt lat="34.5152111" lon="8.8821691"><ele>366.0</ele><time>2026-05-01T08:41:14.458Z</time></trkpt><trkpt lat="34.5154069" lon="8.8823249"><ele>366.3333333333333</ele><time>2026-05-01T08:41:15.449Z</time></trkpt><trkpt lat="34.515593" lon="8.8824773"><ele>366.66666666666663</ele><time>2026-05-01T08:41:16.455Z</time></trkpt><trkpt lat="34.5157709" lon="8.8826272"><ele>367.0</ele><time>2026-05-01T08:41:17.472Z</time></trkpt><trkpt lat="34.5159426" lon="8.8827714"><ele>366.3333333333333</ele><time>2026-05-01T08:41:18.468Z</time></trkpt><trkpt lat="34.516115" lon="8.8829159"><ele>365.6666666666667</ele><time>2026-05-01T08:41:19.452Z</time></trkpt><trkpt lat="34.5162891" lon="8.8830546"><ele>365.0</ele><time>2026-05-01T08:41:20.465Z</time></trkpt><trkpt lat="34.5164624" lon="8.8831898"><ele>365.0</ele><time>2026-05-01T08:41:21.466Z</time></trkpt><trkpt lat="34.5166314" lon="8.88333"><ele>365.0</ele><time>2026-05-01T08:41:22.476Z</time></trkpt><trkpt lat="34.5167992" lon="8.8834724"><ele>365.0</ele><time>2026-05-01T08:41:23.468Z</time></trkpt><trkpt lat="34.5169717" lon="8.8836185"><ele>364.6666666666667</ele><time>2026-05-01T08:41:24.459Z</time></trkpt><trkpt lat="34.5171438" lon="8.883764"><ele>364.3333333333333</ele><time>2026-05-01T08:41:25.473Z</time></trkpt><trkpt lat="34.5173198" lon="8.8839043"><ele>364.0</ele><time>2026-05-01T08:41:26.474Z</time></trkpt><trkpt lat="34.5174953" lon="8.8840451"><ele>364.0</ele><time>2026-05-01T08:41:27.464Z</time></trkpt><trkpt lat="34.5176652" lon="8.884188"><ele>364.0</ele><time>2026-05-01T08:41:28.477Z</time></trkpt><trkpt lat="34.5178366" lon="8.8843367"><ele>364.0</ele><time>2026-05-01T08:41:29.458Z</time></trkpt><trkpt lat="34.518009" lon="8.8844814"><ele>363.3333333333333</ele><time>2026-05-01T08:41:30.452Z</time></trkpt><trkpt lat="34.5181798" lon="8.8846251"><ele>362.6666666666667</ele><time>2026-05-01T08:41:31.441Z</time></trkpt><trkpt lat="34.5183433" lon="8.884766"><ele>362.0</ele><time>2026-05-01T08:41:32.468Z</time></trkpt><trkpt lat="34.5184993" lon="8.8849051"><ele>362.0</ele><time>2026-05-01T08:41:33.485Z</time></trkpt><trkpt lat="34.5186584" lon="8.8850366"><ele>362.0</ele><time>2026-05-01T08:41:34.458Z</time></trkpt><trkpt lat="34.5188174" lon="8.8851712"><ele>362.0</ele><time>2026-05-01T08:41:35.443Z</time></trkpt><trkpt lat="34.5189742" lon="8.8853028"><ele>361.6666666666667</ele><time>2026-05-01T08:41:36.439Z</time></trkpt><trkpt lat="34.5191335" lon="8.885436"><ele>361.3333333333333</ele><time>2026-05-01T08:41:37.462Z</time></trkpt><trkpt lat="34.5192921" lon="8.885571"><ele>361.0</ele><time>2026-05-01T08:41:38.45Z</time></trkpt><trkpt lat="34.5194548" lon="8.8857017"><ele>361.3333333333333</ele><time>2026-05-01T08:41:39.482Z</time></trkpt><trkpt lat="34.5196103" lon="8.8858285"><ele>361.6666666666667</ele><time>2026-05-01T08:41:40.458Z</time></trkpt><trkpt lat="34.5197639" lon="8.8859602"><ele>362.0</ele><time>2026-05-01T08:41:41.468Z</time></trkpt><trkpt lat="34.5199142" lon="8.8860891"><ele>362.33333333333337</ele><time>2026-05-01T08:41:42.481Z</time></trkpt><trkpt lat="34.5200637" lon="8.8862168"><ele>362.6666666666667</ele><time>2026-05-01T08:41:43.464Z</time></trkpt><trkpt lat="34.5202115" lon="8.8863508"><ele>363.0</ele><time>2026-05-01T08:41:44.46Z</time></trkpt><trkpt lat="34.520355" lon="8.8864878"><ele>363.6666666666667</ele><time>2026-05-01T08:41:45.467Z</time></trkpt><trkpt lat="34.5204943" lon="8.8866321"><ele>364.33333333333337</ele><time>2026-05-01T08:41:46.447Z</time></trkpt><trkpt lat="34.5206278" lon="8.8867783"><ele>365.0</ele><time>2026-05-01T08:41:47.475Z</time></trkpt><trkpt lat="34.5207603" lon="8.8869329"><ele>365.0</ele><time>2026-05-01T08:41:48.478Z</time></trkpt><trkpt lat="34.520881" lon="8.8870914"><ele>365.0</ele><time>2026-05-01T08:41:49.468Z</time></trkpt><trkpt lat="34.5210018" lon="8.8872492"><ele>365.0</ele><time>2026-05-01T08:41:50.466Z</time></trkpt><trkpt lat="34.5211252" lon="8.8874106"><ele>365.33333333333337</ele><time>2026-05-01T08:41:51.467Z</time></trkpt><trkpt lat="34.5212493" lon="8.8875686"><ele>365.6666666666667</ele><time>2026-05-01T08:41:52.462Z</time></trkpt><trkpt lat="34.5213746" lon="8.8877248"><ele>366.0</ele><time>2026-05-01T08:41:53.461Z</time></trkpt><trkpt lat="34.5215006" lon="8.8878774"><ele>366.0</ele><time>2026-05-01T08:41:54.46Z</time></trkpt><trkpt lat="34.5216291" lon="8.8880358"><ele>366.0</ele><time>2026-05-01T08:41:55.435Z</time></trkpt><trkpt lat="34.521751" lon="8.8881962"><ele>366.0</ele><time>2026-05-01T08:41:56.431Z</time></trkpt><trkpt lat="34.5218721" lon="8.8883549"><ele>366.0</ele><time>2026-05-01T08:41:57.422Z</time></trkpt><trkpt lat="34.521998" lon="8.8885067"><ele>366.0</ele><time>2026-05-01T08:41:58.425Z</time></trkpt><trkpt lat="34.5221209" lon="8.8886637"><ele>366.0</ele><time>2026-05-01T08:41:59.422Z</time></trkpt><trkpt lat="34.522248" lon="8.8888198"><ele>366.0</ele><time>2026-05-01T08:42:00.424Z</time></trkpt><trkpt lat="34.5223808" lon="8.8889748"><ele>366.0</ele><time>2026-05-01T08:42:01.431Z</time></trkpt><trkpt lat="34.5225112" lon="8.8891329"><ele>366.0</ele><time>2026-05-01T08:42:02.426Z</time></trkpt><trkpt lat="34.5226381" lon="8.8892847"><ele>365.6666666666667</ele><time>2026-05-01T08:42:03.431Z</time></trkpt><trkpt lat="34.5227655" lon="8.8894382"><ele>365.33333333333337</ele><time>2026-05-01T08:42:04.424Z</time></trkpt><trkpt lat="34.5228983" lon="8.8895888"><ele>365.0</ele><time>2026-05-01T08:42:05.449Z</time></trkpt><trkpt lat="34.5230414" lon="8.8897328"><ele>364.6666666666667</ele><time>2026-05-01T08:42:06.448Z</time></trkpt><trkpt lat="34.523189" lon="8.8898726"><ele>364.3333333333333</ele><time>2026-05-01T08:42:07.435Z</time></trkpt><trkpt lat="34.5233385" lon="8.8900151"><ele>364.0</ele><time>2026-05-01T08:42:08.454Z</time></trkpt><trkpt lat="34.5234904" lon="8.8901529"><ele>364.3333333333333</ele><time>2026-05-01T08:42:09.429Z</time></trkpt><trkpt lat="34.5236396" lon="8.8902885"><ele>364.6666666666667</ele><time>2026-05-01T08:42:10.447Z</time></trkpt><trkpt lat="34.5237911" lon="8.8904211"><ele>365.0</ele><time>2026-05-01T08:42:11.456Z</time></trkpt><trkpt lat="34.5239367" lon="8.8905539"><ele>365.0</ele><time>2026-05-01T08:42:12.447Z</time></trkpt><trkpt lat="34.5240855" lon="8.8906799"><ele>365.0</ele><time>2026-05-01T08:42:13.449Z</time></trkpt><trkpt lat="34.5242354" lon="8.8908109"><ele>365.0</ele><time>2026-05-01T08:42:14.448Z</time></trkpt><trkpt lat="34.5243836" lon="8.8909387"><ele>363.33333333333337</ele><time>2026-05-01T08:42:15.453Z</time></trkpt><trkpt lat="34.5245268" lon="8.8910698"><ele>361.6666666666667</ele><time>2026-05-01T08:42:16.452Z</time></trkpt><trkpt lat="34.5246753" lon="8.8912011"><ele>360.0</ele><time>2026-05-01T08:42:17.45Z</time></trkpt><trkpt lat="34.5248217" lon="8.8913322"><ele>360.0</ele><time>2026-05-01T08:42:18.454Z</time></trkpt><trkpt lat="34.5249663" lon="8.8914659"><ele>360.0</ele><time>2026-05-01T08:42:19.449Z</time></trkpt><trkpt lat="34.5251158" lon="8.8915964"><ele>360.0</ele><time>2026-05-01T08:42:20.459Z</time></trkpt><trkpt lat="34.5252684" lon="8.8917349"><ele>360.0</ele><time>2026-05-01T08:42:21.452Z</time></trkpt><trkpt lat="34.525418" lon="8.8918641"><ele>360.0</ele><time>2026-05-01T08:42:22.453Z</time></trkpt><trkpt lat="34.5255649" lon="8.8919995"><ele>360.0</ele><time>2026-05-01T08:42:23.428Z</time></trkpt><trkpt lat="34.5257128" lon="8.8921345"><ele>360.0</ele><time>2026-05-01T08:42:24.451Z</time></trkpt><trkpt lat="34.525861" lon="8.8922665"><ele>360.0</ele><time>2026-05-01T08:42:25.45Z</time></trkpt><trkpt lat="34.5260087" lon="8.8924006"><ele>360.0</ele><time>2026-05-01T08:42:26.454Z</time></trkpt><trkpt lat="34.526159" lon="8.8925337"><ele>360.3333333333333</ele><time>2026-05-01T08:42:27.45Z</time></trkpt><trkpt lat="34.5263139" lon="8.8926644"><ele>360.66666666666663</ele><time>2026-05-01T08:42:28.433Z</time></trkpt><trkpt lat="34.5264644" lon="8.8927972"><ele>361.0</ele><time>2026-05-01T08:42:29.449Z</time></trkpt><trkpt lat="34.5266146" lon="8.8929335"><ele>361.0</ele><time>2026-05-01T08:42:30.425Z</time></trkpt><trkpt lat="34.5267636" lon="8.8930706"><ele>361.0</ele><time>2026-05-01T08:42:31.457Z</time></trkpt><trkpt lat="34.5269128" lon="8.8932058"><ele>361.0</ele><time>2026-05-01T08:42:32.45Z</time></trkpt><trkpt lat="34.5270637" lon="8.8933375"><ele>361.0</ele><time>2026-05-01T08:42:33.449Z</time></trkpt><trkpt lat="34.5272117" lon="8.893469"><ele>361.0</ele><time>2026-05-01T08:42:34.44Z</time></trkpt><trkpt lat="34.5273608" lon="8.8936038"><ele>361.0</ele><time>2026-05-01T08:42:35.461Z</time></trkpt><trkpt lat="34.5275136" lon="8.8937372"><ele>361.0</ele><time>2026-05-01T08:42:36.45Z</time></trkpt><trkpt lat="34.527662" lon="8.8938683"><ele>361.0</ele><time>2026-05-01T08:42:37.457Z</time></trkpt><trkpt lat="34.5278081" lon="8.8940054"><ele>361.0</ele><time>2026-05-01T08:42:38.451Z</time></trkpt><trkpt lat="34.5279584" lon="8.8941345"><ele>360.3333333333333</ele><time>2026-05-01T08:42:39.442Z</time></trkpt><trkpt lat="34.5281034" lon="8.8942689"><ele>359.6666666666667</ele><time>2026-05-01T08:42:40.451Z</time></trkpt><trkpt lat="34.5282529" lon="8.8944051"><ele>359.0</ele><time>2026-05-01T08:42:41.455Z</time></trkpt><trkpt lat="34.5284041" lon="8.8945445"><ele>359.0</ele><time>2026-05-01T08:42:42.456Z</time></trkpt><trkpt lat="34.5285564" lon="8.8946811"><ele>359.0</ele><time>2026-05-01T08:42:43.447Z</time></trkpt><trkpt lat="34.5287144" lon="8.8948235"><ele>359.0</ele><time>2026-05-01T08:42:44.443Z</time></trkpt><trkpt lat="34.5288838" lon="8.89497"><ele>359.33333333333337</ele><time>2026-05-01T08:42:45.426Z</time></trkpt><trkpt lat="34.5290545" lon="8.8951212"><ele>359.6666666666667</ele><time>2026-05-01T08:42:46.45Z</time></trkpt><trkpt lat="34.5292256" lon="8.8952684"><ele>360.0</ele><time>2026-05-01T08:42:47.452Z</time></trkpt><trkpt lat="34.5293984" lon="8.8954227"><ele>360.3333333333333</ele><time>2026-05-01T08:42:48.446Z</time></trkpt><trkpt lat="34.5295699" lon="8.8955747"><ele>360.66666666666663</ele><time>2026-05-01T08:42:49.447Z</time></trkpt><trkpt lat="34.529735" lon="8.8957274"><ele>361.0</ele><time>2026-05-01T08:42:50.437Z</time></trkpt><trkpt lat="34.5298928" lon="8.8958764"><ele>361.0</ele><time>2026-05-01T08:42:51.439Z</time></trkpt><trkpt lat="34.5300523" lon="8.8960213"><ele>361.0</ele><time>2026-05-01T08:42:52.455Z</time></trkpt><trkpt lat="34.5302105" lon="8.8961666"><ele>361.0</ele><time>2026-05-01T08:42:53.449Z</time></trkpt><trkpt lat="34.5303659" lon="8.8963129"><ele>363.0</ele><time>2026-05-01T08:42:54.462Z</time></trkpt><trkpt lat="34.5305263" lon="8.8964597"><ele>365.0</ele><time>2026-05-01T08:42:55.451Z</time></trkpt><trkpt lat="34.5306848" lon="8.8966044"><ele>367.0</ele><time>2026-05-01T08:42:56.458Z</time></trkpt><trkpt lat="34.5308424" lon="8.8967411"><ele>366.0</ele><time>2026-05-01T08:42:57.442Z</time></trkpt><trkpt lat="34.5310031" lon="8.8968835"><ele>365.0</ele><time>2026-05-01T08:42:58.451Z</time></trkpt><trkpt lat="34.5311637" lon="8.8970215"><ele>364.0</ele><time>2026-05-01T08:42:59.441Z</time></trkpt><trkpt lat="34.5313216" lon="8.8971639"><ele>364.0</ele><time>2026-05-01T08:43:00.439Z</time></trkpt><trkpt lat="34.5314794" lon="8.8973046"><ele>364.0</ele><time>2026-05-01T08:43:01.444Z</time></trkpt><trkpt lat="34.5316399" lon="8.8974471"><ele>364.0</ele><time>2026-05-01T08:43:02.454Z</time></trkpt><trkpt lat="34.5318018" lon="8.8975886"><ele>364.0</ele><time>2026-05-01T08:43:03.453Z</time></trkpt><trkpt lat="34.5319605" lon="8.8977321"><ele>364.0</ele><time>2026-05-01T08:43:04.446Z</time></trkpt><trkpt lat="34.5321179" lon="8.8978759"><ele>364.0</ele><time>2026-05-01T08:43:05.458Z</time></trkpt><trkpt lat="34.5322807" lon="8.8980178"><ele>364.3333333333333</ele><time>2026-05-01T08:43:06.451Z</time></trkpt><trkpt lat="34.5324422" lon="8.8981617"><ele>364.6666666666667</ele><time>2026-05-01T08:43:07.441Z</time></trkpt><trkpt lat="34.5326074" lon="8.8983116"><ele>365.0</ele><time>2026-05-01T08:43:08.425Z</time></trkpt><trkpt lat="34.5327734" lon="8.8984561"><ele>365.0</ele><time>2026-05-01T08:43:09.44Z</time></trkpt><trkpt lat="34.5329352" lon="8.8986041"><ele>365.0</ele><time>2026-05-01T08:43:10.436Z</time></trkpt><trkpt lat="34.5330913" lon="8.8987491"><ele>365.0</ele><time>2026-05-01T08:43:11.451Z</time></trkpt><trkpt lat="34.5332513" lon="8.8988938"><ele>365.0</ele><time>2026-05-01T08:43:12.453Z</time></trkpt><trkpt lat="34.5334134" lon="8.8990341"><ele>365.0</ele><time>2026-05-01T08:43:13.449Z</time></trkpt><trkpt lat="34.5335698" lon="8.8991736"><ele>365.0</ele><time>2026-05-01T08:43:14.457Z</time></trkpt><trkpt lat="34.5337239" lon="8.8993129"><ele>366.33333333333337</ele><time>2026-05-01T08:43:15.46Z</time></trkpt><trkpt lat="34.5338805" lon="8.8994538"><ele>367.6666666666667</ele><time>2026-05-01T08:43:16.462Z</time></trkpt><trkpt lat="34.5340389" lon="8.8995949"><ele>369.0</ele><time>2026-05-01T08:43:17.437Z</time></trkpt><trkpt lat="34.5341967" lon="8.899731"><ele>369.0</ele><time>2026-05-01T08:43:18.434Z</time></trkpt><trkpt lat="34.53435" lon="8.8998725"><ele>369.0</ele><time>2026-05-01T08:43:19.441Z</time></trkpt><trkpt lat="34.5344997" lon="8.9000113"><ele>369.0</ele><time>2026-05-01T08:43:20.444Z</time></trkpt><trkpt lat="34.5346505" lon="8.9001474"><ele>368.6666666666667</ele><time>2026-05-01T08:43:21.448Z</time></trkpt><trkpt lat="34.534802" lon="8.9002818"><ele>368.33333333333337</ele><time>2026-05-01T08:43:22.435Z</time></trkpt><trkpt lat="34.5349544" lon="8.9004168"><ele>368.0</ele><time>2026-05-01T08:43:23.457Z</time></trkpt><trkpt lat="34.5351056" lon="8.9005516"><ele>368.0</ele><time>2026-05-01T08:43:24.457Z</time></trkpt><trkpt lat="34.5352563" lon="8.9006836"><ele>368.0</ele><time>2026-05-01T08:43:25.452Z</time></trkpt><trkpt lat="34.5354065" lon="8.9008224"><ele>368.0</ele><time>2026-05-01T08:43:26.425Z</time></trkpt><trkpt lat="34.5355546" lon="8.9009495"><ele>368.75</ele><time>2026-05-01T08:43:27.444Z</time></trkpt><trkpt lat="34.5356807" lon="8.9010645"><ele>369.5</ele><time>2026-05-01T08:43:28.443Z</time></trkpt><trkpt lat="34.5357942" lon="8.9011687"><ele>370.25</ele><time>2026-05-01T08:43:29.451Z</time></trkpt><trkpt lat="34.5359053" lon="8.9012595"><ele>371.0</ele><time>2026-05-01T08:43:30.458Z</time></trkpt><trkpt lat="34.5359962" lon="8.9013394"><ele>371.0</ele><time>2026-05-01T08:43:31.458Z</time></trkpt><trkpt lat="34.5360638" lon="8.9014075"><ele>371.0</ele><time>2026-05-01T08:43:32.433Z</time></trkpt><trkpt lat="34.5361336" lon="8.9014627"><ele>371.0</ele><time>2026-05-01T08:43:33.446Z</time></trkpt><trkpt lat="34.5361936" lon="8.9015138"><ele>371.0</ele><time>2026-05-01T08:43:34.446Z</time></trkpt><trkpt lat="34.5362494" lon="8.9015605"><ele>371.0</ele><time>2026-05-01T08:43:35.461Z</time></trkpt><trkpt lat="34.5363625" lon="8.9016581"><ele>371.20000000000005</ele><time>2026-05-01T08:43:37.447Z</time></trkpt><trkpt lat="34.536433" lon="8.901718"><ele>371.40000000000003</ele><time>2026-05-01T08:43:38.464Z</time></trkpt><trkpt lat="34.5365078" lon="8.9017833"><ele>371.6</ele><time>2026-05-01T08:43:39.448Z</time></trkpt><trkpt lat="34.536589" lon="8.9018546"><ele>371.8</ele><time>2026-05-01T08:43:40.456Z</time></trkpt><trkpt lat="34.5366761" lon="8.9019294"><ele>372.0</ele><time>2026-05-01T08:43:41.461Z</time></trkpt><trkpt lat="34.5367992" lon="8.9020407"><ele>372.0</ele><time>2026-05-01T08:43:42.456Z</time></trkpt><trkpt lat="34.5369448" lon="8.9021794"><ele>372.0</ele><time>2026-05-01T08:43:43.479Z</time></trkpt><trkpt lat="34.5370943" lon="8.9023136"><ele>372.0</ele><time>2026-05-01T08:43:44.466Z</time></trkpt><trkpt lat="34.5372143" lon="8.9024249"><ele>372.0</ele><time>2026-05-01T08:43:45.469Z</time></trkpt><trkpt lat="34.5373094" lon="8.902491"><ele>372.0</ele><time>2026-05-01T08:43:46.473Z</time></trkpt><trkpt lat="34.5373908" lon="8.902571"><ele>372.0</ele><time>2026-05-01T08:43:47.464Z</time></trkpt><trkpt lat="34.5374718" lon="8.9026455"><ele>372.0</ele><time>2026-05-01T08:43:48.469Z</time></trkpt><trkpt lat="34.5375714" lon="8.902724"><ele>372.0</ele><time>2026-05-01T08:43:49.453Z</time></trkpt><trkpt lat="34.5376874" lon="8.9028276"><ele>371.6666666666667</ele><time>2026-05-01T08:43:50.449Z</time></trkpt><trkpt lat="34.5378296" lon="8.9029534"><ele>371.33333333333337</ele><time>2026-05-01T08:43:51.452Z</time></trkpt><trkpt lat="34.538009" lon="8.9030913"><ele>371.0</ele><time>2026-05-01T08:43:52.472Z</time></trkpt><trkpt lat="34.5382103" lon="8.9032741"><ele>369.0</ele><time>2026-05-01T08:43:53.466Z</time></trkpt><trkpt lat="34.5384279" lon="8.9034983"><ele>367.0</ele><time>2026-05-01T08:43:54.45Z</time></trkpt><trkpt lat="34.5386548" lon="8.903723"><ele>369.5</ele><time>2026-05-01T08:43:55.461Z</time></trkpt><trkpt lat="34.5388872" lon="8.9039299"><ele>372.0</ele><time>2026-05-01T08:43:56.457Z</time></trkpt><trkpt lat="34.5390983" lon="8.9041113"><ele>370.5</ele><time>2026-05-01T08:43:57.463Z</time></trkpt><trkpt lat="34.5392894" lon="8.9042854"><ele>369.0</ele><time>2026-05-01T08:43:58.447Z</time></trkpt><trkpt lat="34.5394617" lon="8.9044388"><ele>369.6666666666667</ele><time>2026-05-01T08:43:59.451Z</time></trkpt><trkpt lat="34.5396349" lon="8.9045858"><ele>370.33333333333337</ele><time>2026-05-01T08:44:00.462Z</time></trkpt><trkpt lat="34.5398053" lon="8.9047253"><ele>371.0</ele><time>2026-05-01T08:44:01.454Z</time></trkpt><trkpt lat="34.5399832" lon="8.9048613"><ele>371.0</ele><time>2026-05-01T08:44:02.469Z</time></trkpt><trkpt lat="34.540157" lon="8.9050157"><ele>371.0</ele><time>2026-05-01T08:44:03.455Z</time></trkpt><trkpt lat="34.5403259" lon="8.9051689"><ele>371.0</ele><time>2026-05-01T08:44:04.461Z</time></trkpt><trkpt lat="34.5405023" lon="8.9053253"><ele>372.0</ele><time>2026-05-01T08:44:05.459Z</time></trkpt><trkpt lat="34.5406975" lon="8.9054831"><ele>373.0</ele><time>2026-05-01T08:44:06.444Z</time></trkpt><trkpt lat="34.5409175" lon="8.9056705"><ele>373.0</ele><time>2026-05-01T08:44:07.46Z</time></trkpt><trkpt lat="34.5411468" lon="8.9058876"><ele>373.0</ele><time>2026-05-01T08:44:08.454Z</time></trkpt><trkpt lat="34.5413797" lon="8.9061115"><ele>372.0</ele><time>2026-05-01T08:44:09.452Z</time></trkpt><trkpt lat="34.5416283" lon="8.9063434"><ele>371.0</ele><time>2026-05-01T08:44:10.472Z</time></trkpt><trkpt lat="34.5418869" lon="8.9065736"><ele>371.0</ele><time>2026-05-01T08:44:11.443Z</time></trkpt><trkpt lat="34.5421304" lon="8.9067945"><ele>371.0</ele><time>2026-05-01T08:44:12.456Z</time></trkpt><trkpt lat="34.5423533" lon="8.9069914"><ele>371.0</ele><time>2026-05-01T08:44:13.43Z</time></trkpt><trkpt lat="34.5425663" lon="8.9071898"><ele>371.0</ele><time>2026-05-01T08:44:14.429Z</time></trkpt><trkpt lat="34.5427666" lon="8.9073736"><ele>371.0</ele><time>2026-05-01T08:44:15.454Z</time></trkpt><trkpt lat="34.5429574" lon="8.9075459"><ele>371.0</ele><time>2026-05-01T08:44:16.458Z</time></trkpt><trkpt lat="34.5431407" lon="8.9077125"><ele>371.0</ele><time>2026-05-01T08:44:17.451Z</time></trkpt><trkpt lat="34.543327" lon="8.90788"><ele>371.0</ele><time>2026-05-01T08:44:18.455Z</time></trkpt><trkpt lat="34.54351" lon="8.9080488"><ele>371.0</ele><time>2026-05-01T08:44:19.454Z</time></trkpt><trkpt lat="34.5436892" lon="8.9082099"><ele>371.0</ele><time>2026-05-01T08:44:20.446Z</time></trkpt><trkpt lat="34.5438681" lon="8.9083678"><ele>371.0</ele><time>2026-05-01T08:44:21.455Z</time></trkpt><trkpt lat="34.5440405" lon="8.9085239"><ele>371.6666666666667</ele><time>2026-05-01T08:44:22.427Z</time></trkpt><trkpt lat="34.5442043" lon="8.9086747"><ele>372.3333333333333</ele><time>2026-05-01T08:44:23.457Z</time></trkpt><trkpt lat="34.5443766" lon="8.9088239"><ele>373.0</ele><time>2026-05-01T08:44:24.435Z</time></trkpt><trkpt lat="34.5445452" lon="8.9089779"><ele>373.66666666666663</ele><time>2026-05-01T08:44:25.429Z</time></trkpt><trkpt lat="34.5447153" lon="8.9091225"><ele>374.3333333333333</ele><time>2026-05-01T08:44:26.421Z</time></trkpt><trkpt lat="34.5448785" lon="8.9092701"><ele>375.0</ele><time>2026-05-01T08:44:27.424Z</time></trkpt><trkpt lat="34.5450495" lon="8.9094221"><ele>376.0</ele><time>2026-05-01T08:44:28.426Z</time></trkpt><trkpt lat="34.5452284" lon="8.9095762"><ele>377.0</ele><time>2026-05-01T08:44:29.426Z</time></trkpt><trkpt lat="34.5454035" lon="8.9097332"><ele>378.0</ele><time>2026-05-01T08:44:30.417Z</time></trkpt><trkpt lat="34.5455775" lon="8.9098912"><ele>377.0</ele><time>2026-05-01T08:44:31.43Z</time></trkpt><trkpt lat="34.5457537" lon="8.9100565"><ele>376.0</ele><time>2026-05-01T08:44:32.433Z</time></trkpt><trkpt lat="34.5459298" lon="8.9102134"><ele>375.0</ele><time>2026-05-01T08:44:33.429Z</time></trkpt><trkpt lat="34.5461048" lon="8.9103672"><ele>375.6666666666667</ele><time>2026-05-01T08:44:34.422Z</time></trkpt><trkpt lat="34.5462751" lon="8.9105216"><ele>376.33333333333337</ele><time>2026-05-01T08:44:35.426Z</time></trkpt><trkpt lat="34.5464419" lon="8.9106754"><ele>377.0</ele><time>2026-05-01T08:44:36.419Z</time></trkpt><trkpt lat="34.5466145" lon="8.9108303"><ele>376.33333333333337</ele><time>2026-05-01T08:44:37.425Z</time></trkpt><trkpt lat="34.5467885" lon="8.9109866"><ele>375.6666666666667</ele><time>2026-05-01T08:44:38.425Z</time></trkpt><trkpt lat="34.5469589" lon="8.9111427"><ele>375.0</ele><time>2026-05-01T08:44:39.416Z</time></trkpt><trkpt lat="34.5471301" lon="8.9112978"><ele>374.6666666666667</ele><time>2026-05-01T08:44:40.415Z</time></trkpt><trkpt lat="34.5473036" lon="8.9114486"><ele>374.33333333333337</ele><time>2026-05-01T08:44:41.423Z</time></trkpt><trkpt lat="34.5474785" lon="8.9116008"><ele>374.0</ele><time>2026-05-01T08:44:42.46Z</time></trkpt><trkpt lat="34.5476518" lon="8.911757"><ele>374.0</ele><time>2026-05-01T08:44:43.428Z</time></trkpt><trkpt lat="34.5478217" lon="8.9119112"><ele>374.0</ele><time>2026-05-01T08:44:44.429Z</time></trkpt><trkpt lat="34.5479956" lon="8.9120664"><ele>374.0</ele><time>2026-05-01T08:44:45.425Z</time></trkpt><trkpt lat="34.5481698" lon="8.9122212"><ele>375.6666666666667</ele><time>2026-05-01T08:44:46.417Z</time></trkpt><trkpt lat="34.5483412" lon="8.9123776"><ele>377.3333333333333</ele><time>2026-05-01T08:44:47.417Z</time></trkpt><trkpt lat="34.5485133" lon="8.9125315"><ele>379.0</ele><time>2026-05-01T08:44:48.431Z</time></trkpt><trkpt lat="34.5486863" lon="8.9126863"><ele>380.66666666666663</ele><time>2026-05-01T08:44:49.43Z</time></trkpt><trkpt lat="34.5488559" lon="8.9128447"><ele>382.3333333333333</ele><time>2026-05-01T08:44:50.421Z</time></trkpt><trkpt lat="34.5490242" lon="8.9130041"><ele>384.0</ele><time>2026-05-01T08:44:51.422Z</time></trkpt><trkpt lat="34.549199" lon="8.9131624"><ele>384.0</ele><time>2026-05-01T08:44:52.429Z</time></trkpt><trkpt lat="34.5493711" lon="8.9133215"><ele>384.0</ele><time>2026-05-01T08:44:53.431Z</time></trkpt><trkpt lat="34.5495475" lon="8.9134844"><ele>384.0</ele><time>2026-05-01T08:44:54.432Z</time></trkpt><trkpt lat="34.5497197" lon="8.9136452"><ele>382.0</ele><time>2026-05-01T08:44:55.421Z</time></trkpt><trkpt lat="34.5498901" lon="8.9138032"><ele>380.0</ele><time>2026-05-01T08:44:56.414Z</time></trkpt><trkpt lat="34.5500569" lon="8.9139639"><ele>378.0</ele><time>2026-05-01T08:44:57.425Z</time></trkpt><trkpt lat="34.5502254" lon="8.914126"><ele>377.3333333333333</ele><time>2026-05-01T08:44:58.416Z</time></trkpt><trkpt lat="34.5503945" lon="8.9142827"><ele>376.66666666666663</ele><time>2026-05-01T08:44:59.42Z</time></trkpt><trkpt lat="34.5505524" lon="8.914434"><ele>376.0</ele><time>2026-05-01T08:45:00.409Z</time></trkpt><trkpt lat="34.5506938" lon="8.9145644"><ele>376.0</ele><time>2026-05-01T08:45:01.422Z</time></trkpt><trkpt lat="34.5508169" lon="8.9146832"><ele>376.0</ele><time>2026-05-01T08:45:02.435Z</time></trkpt><trkpt lat="34.5509174" lon="8.9147854"><ele>376.0</ele><time>2026-05-01T08:45:03.424Z</time></trkpt><trkpt lat="34.5510034" lon="8.9148596"><ele>376.0</ele><time>2026-05-01T08:45:04.426Z</time></trkpt><trkpt lat="34.5510639" lon="8.9149115"><ele>376.0</ele><time>2026-05-01T08:45:05.415Z</time></trkpt><trkpt lat="34.5511123" lon="8.914962"><ele>376.0</ele><time>2026-05-01T08:45:06.42Z</time></trkpt><trkpt lat="34.5511662" lon="8.915014"><ele>376.0</ele><time>2026-05-01T08:45:07.429Z</time></trkpt><trkpt lat="34.5512228" lon="8.9150687"><ele>376.0</ele><time>2026-05-01T08:45:08.434Z</time></trkpt><trkpt lat="34.5512844" lon="8.9151251"><ele>376.0</ele><time>2026-05-01T08:45:09.43Z</time></trkpt><trkpt lat="34.5513536" lon="8.9151893"><ele>376.0</ele><time>2026-05-01T08:45:10.428Z</time></trkpt><trkpt lat="34.5514327" lon="8.9152565"><ele>375.8</ele><time>2026-05-01T08:45:11.437Z</time></trkpt><trkpt lat="34.5515147" lon="8.9153359"><ele>375.6</ele><time>2026-05-01T08:45:12.412Z</time></trkpt><trkpt lat="34.5516" lon="8.9154198"><ele>375.4</ele><time>2026-05-01T08:45:13.456Z</time></trkpt><trkpt lat="34.5516914" lon="8.9155054"><ele>375.2</ele><time>2026-05-01T08:45:14.427Z</time></trkpt><trkpt lat="34.5517807" lon="8.9155899"><ele>375.0</ele><time>2026-05-01T08:45:15.427Z</time></trkpt><trkpt lat="34.5518689" lon="8.9156766"><ele>375.0</ele><time>2026-05-01T08:45:16.423Z</time></trkpt><trkpt lat="34.5519588" lon="8.9157674"><ele>375.0</ele><time>2026-05-01T08:45:17.426Z</time></trkpt><trkpt lat="34.5520447" lon="8.9158524"><ele>375.0</ele><time>2026-05-01T08:45:18.435Z</time></trkpt><trkpt lat="34.5521185" lon="8.915931"><ele>375.0</ele><time>2026-05-01T08:45:19.462Z</time></trkpt><trkpt lat="34.5521899" lon="8.9159974"><ele>375.0</ele><time>2026-05-01T08:45:20.472Z</time></trkpt><trkpt lat="34.552255" lon="8.9160604"><ele>375.0</ele><time>2026-05-01T08:45:21.442Z</time></trkpt><trkpt lat="34.5523202" lon="8.916127"><ele>375.0</ele><time>2026-05-01T08:45:22.437Z</time></trkpt><trkpt lat="34.5523898" lon="8.9161913"><ele>375.0</ele><time>2026-05-01T08:45:23.473Z</time></trkpt><trkpt lat="34.5524627" lon="8.9162569"><ele>375.0</ele><time>2026-05-01T08:45:24.426Z</time></trkpt><trkpt lat="34.5525431" lon="8.916324"><ele>375.0</ele><time>2026-05-01T08:45:25.411Z</time></trkpt><trkpt lat="34.5526296" lon="8.9163942"><ele>375.0</ele><time>2026-05-01T08:45:26.414Z</time></trkpt><trkpt lat="34.55271" lon="8.9164655"><ele>375.0</ele><time>2026-05-01T08:45:27.45Z</time></trkpt><trkpt lat="34.5527853" lon="8.9165375"><ele>375.0</ele><time>2026-05-01T08:45:28.41Z</time></trkpt><trkpt lat="34.5528545" lon="8.9166048"><ele>375.0</ele><time>2026-05-01T08:45:29.414Z</time></trkpt><trkpt lat="34.552914" lon="8.9166712"><ele>375.0</ele><time>2026-05-01T08:45:30.418Z</time></trkpt><trkpt lat="34.5529835" lon="8.9167394"><ele>374.0</ele><time>2026-05-01T08:45:31.429Z</time></trkpt><trkpt lat="34.5530595" lon="8.9168029"><ele>373.0</ele><time>2026-05-01T08:45:32.469Z</time></trkpt><trkpt lat="34.5531351" lon="8.9168706"><ele>372.0</ele><time>2026-05-01T08:45:33.413Z</time></trkpt><trkpt lat="34.5532087" lon="8.916932"><ele>371.0</ele><time>2026-05-01T08:45:34.459Z</time></trkpt><trkpt lat="34.553273" lon="8.9169909"><ele>370.0</ele><time>2026-05-01T08:45:35.449Z</time></trkpt><trkpt lat="34.5533416" lon="8.9170542"><ele>369.0</ele><time>2026-05-01T08:45:36.438Z</time></trkpt><trkpt lat="34.5534111" lon="8.9171155"><ele>369.0</ele><time>2026-05-01T08:45:37.424Z</time></trkpt><trkpt lat="34.5534794" lon="8.9171822"><ele>369.0</ele><time>2026-05-01T08:45:38.412Z</time></trkpt><trkpt lat="34.5535482" lon="8.9172395"><ele>369.0</ele><time>2026-05-01T08:45:39.454Z</time></trkpt><trkpt lat="34.5536202" lon="8.9173157"><ele>369.0</ele><time>2026-05-01T08:45:40.451Z</time></trkpt><trkpt lat="34.5537082" lon="8.9173913"><ele>369.0</ele><time>2026-05-01T08:45:41.449Z</time></trkpt><trkpt lat="34.5538344" lon="8.9175108"><ele>369.3333333333333</ele><time>2026-05-01T08:45:42.431Z</time></trkpt><trkpt lat="34.5539894" lon="8.9176494"><ele>369.66666666666663</ele><time>2026-05-01T08:45:43.429Z</time></trkpt><trkpt lat="34.554137" lon="8.9177914"><ele>370.0</ele><time>2026-05-01T08:45:44.421Z</time></trkpt><trkpt lat="34.554247" lon="8.9179033"><ele>370.0</ele><time>2026-05-01T08:45:45.426Z</time></trkpt><trkpt lat="34.5543424" lon="8.917997"><ele>370.0</ele><time>2026-05-01T08:45:46.451Z</time></trkpt><trkpt lat="34.5544268" lon="8.9180763"><ele>370.0</ele><time>2026-05-01T08:45:47.443Z</time></trkpt><trkpt lat="34.5545011" lon="8.9181444"><ele>370.0</ele><time>2026-05-01T08:45:48.466Z</time></trkpt><trkpt lat="34.554584" lon="8.9182118"><ele>370.0</ele><time>2026-05-01T08:45:49.477Z</time></trkpt><trkpt lat="34.5546747" lon="8.9182938"><ele>370.0</ele><time>2026-05-01T08:45:50.466Z</time></trkpt><trkpt lat="34.5547946" lon="8.9184007"><ele>370.0</ele><time>2026-05-01T08:45:51.426Z</time></trkpt><trkpt lat="34.5549541" lon="8.9185457"><ele>370.0</ele><time>2026-05-01T08:45:52.457Z</time></trkpt><trkpt lat="34.5551105" lon="8.9186942"><ele>370.25</ele><time>2026-05-01T08:45:53.466Z</time></trkpt><trkpt lat="34.5552449" lon="8.9188304"><ele>370.5</ele><time>2026-05-01T08:45:54.445Z</time></trkpt><trkpt lat="34.5553521" lon="8.9189404"><ele>370.75</ele><time>2026-05-01T08:45:55.472Z</time></trkpt><trkpt lat="34.5554522" lon="8.9190378"><ele>371.0</ele><time>2026-05-01T08:45:56.438Z</time></trkpt><trkpt lat="34.5555366" lon="8.9191327"><ele>371.20000000000005</ele><time>2026-05-01T08:45:57.48Z</time></trkpt><trkpt lat="34.5556078" lon="8.9192127"><ele>371.40000000000003</ele><time>2026-05-01T08:45:58.457Z</time></trkpt><trkpt lat="34.5556805" lon="8.9192898"><ele>371.6</ele><time>2026-05-01T08:45:59.458Z</time></trkpt><trkpt lat="34.5557553" lon="8.9193651"><ele>371.8</ele><time>2026-05-01T08:46:00.42Z</time></trkpt><trkpt lat="34.5558475" lon="8.9194542"><ele>372.0</ele><time>2026-05-01T08:46:01.443Z</time></trkpt><trkpt lat="34.5559363" lon="8.9195518"><ele>372.25</ele><time>2026-05-01T08:46:02.479Z</time></trkpt><trkpt lat="34.5560332" lon="8.9196546"><ele>372.5</ele><time>2026-05-01T08:46:03.471Z</time></trkpt><trkpt lat="34.5561353" lon="8.9197648"><ele>372.75</ele><time>2026-05-01T08:46:04.441Z</time></trkpt><trkpt lat="34.556223" lon="8.9198723"><ele>373.0</ele><time>2026-05-01T08:46:05.471Z</time></trkpt><trkpt lat="34.5563128" lon="8.919973"><ele>373.25</ele><time>2026-05-01T08:46:06.482Z</time></trkpt><trkpt lat="34.556412" lon="8.9200933"><ele>373.5</ele><time>2026-05-01T08:46:07.448Z</time></trkpt><trkpt lat="34.5565061" lon="8.9202094"><ele>373.75</ele><time>2026-05-01T08:46:08.458Z</time></trkpt><trkpt lat="34.5566034" lon="8.9203247"><ele>374.0</ele><time>2026-05-01T08:46:09.472Z</time></trkpt><trkpt lat="34.5567087" lon="8.9204477"><ele>374.0</ele><time>2026-05-01T08:46:10.46Z</time></trkpt><trkpt lat="34.5567943" lon="8.9205689"><ele>374.0</ele><time>2026-05-01T08:46:11.465Z</time></trkpt><trkpt lat="34.5568602" lon="8.9206526"><ele>374.0</ele><time>2026-05-01T08:46:12.423Z</time></trkpt><trkpt lat="34.5569267" lon="8.9207296"><ele>374.0</ele><time>2026-05-01T08:46:13.466Z</time></trkpt><trkpt lat="34.5569915" lon="8.9208062"><ele>374.0</ele><time>2026-05-01T08:46:14.46Z</time></trkpt><trkpt lat="34.5570536" lon="8.9208845"><ele>373.6666666666667</ele><time>2026-05-01T08:46:15.452Z</time></trkpt><trkpt lat="34.557119" lon="8.9209545"><ele>373.33333333333337</ele><time>2026-05-01T08:46:16.467Z</time></trkpt><trkpt lat="34.5571819" lon="8.9210163"><ele>373.0</ele><time>2026-05-01T08:46:17.482Z</time></trkpt><trkpt lat="34.5572398" lon="8.9210881"><ele>372.6666666666667</ele><time>2026-05-01T08:46:18.424Z</time></trkpt><trkpt lat="34.5573048" lon="8.9211664"><ele>372.3333333333333</ele><time>2026-05-01T08:46:19.411Z</time></trkpt><trkpt lat="34.5573732" lon="8.9212468"><ele>372.0</ele><time>2026-05-01T08:46:20.468Z</time></trkpt><trkpt lat="34.5574545" lon="8.9213496"><ele>372.0</ele><time>2026-05-01T08:46:21.431Z</time></trkpt><trkpt lat="34.5575933" lon="8.9214916"><ele>372.0</ele><time>2026-05-01T08:46:22.452Z</time></trkpt><trkpt lat="34.5577487" lon="8.9216613"><ele>372.0</ele><time>2026-05-01T08:46:23.422Z</time></trkpt><trkpt lat="34.557871" lon="8.9218145"><ele>372.3333333333333</ele><time>2026-05-01T08:46:24.444Z</time></trkpt><trkpt lat="34.5579811" lon="8.9219482"><ele>372.66666666666663</ele><time>2026-05-01T08:46:25.435Z</time></trkpt><trkpt lat="34.5580958" lon="8.9220845"><ele>373.0</ele><time>2026-05-01T08:46:26.473Z</time></trkpt><trkpt lat="34.5582036" lon="8.922219"><ele>373.0</ele><time>2026-05-01T08:46:27.429Z</time></trkpt><trkpt lat="34.5583057" lon="8.9223417"><ele>373.0</ele><time>2026-05-01T08:46:28.471Z</time></trkpt><trkpt lat="34.5584022" lon="8.9224632"><ele>373.0</ele><time>2026-05-01T08:46:29.462Z</time></trkpt><trkpt lat="34.5585007" lon="8.9225762"><ele>373.0</ele><time>2026-05-01T08:46:30.462Z</time></trkpt><trkpt lat="34.5585937" lon="8.9226922"><ele>373.0</ele><time>2026-05-01T08:46:31.431Z</time></trkpt><trkpt lat="34.5586932" lon="8.9228063"><ele>373.0</ele><time>2026-05-01T08:46:32.439Z</time></trkpt><trkpt lat="34.5587879" lon="8.9229196"><ele>373.0</ele><time>2026-05-01T08:46:33.427Z</time></trkpt><trkpt lat="34.558876" lon="8.9230261"><ele>373.0</ele><time>2026-05-01T08:46:34.428Z</time></trkpt><trkpt lat="34.5589628" lon="8.9231279"><ele>373.0</ele><time>2026-05-01T08:46:35.442Z</time></trkpt><trkpt lat="34.5590514" lon="8.9232313"><ele>373.0</ele><time>2026-05-01T08:46:36.463Z</time></trkpt><trkpt lat="34.5591381" lon="8.9233259"><ele>373.0</ele><time>2026-05-01T08:46:37.435Z</time></trkpt><trkpt lat="34.5592212" lon="8.9234159"><ele>373.0</ele><time>2026-05-01T08:46:38.462Z</time></trkpt><trkpt lat="34.5592996" lon="8.9235094"><ele>373.0</ele><time>2026-05-01T08:46:39.47Z</time></trkpt><trkpt lat="34.5593818" lon="8.923598"><ele>373.0</ele><time>2026-05-01T08:46:40.444Z</time></trkpt><trkpt lat="34.5594618" lon="8.9236881"><ele>373.0</ele><time>2026-05-01T08:46:41.425Z</time></trkpt><trkpt lat="34.5595404" lon="8.9237778"><ele>373.0</ele><time>2026-05-01T08:46:42.434Z</time></trkpt><trkpt lat="34.5596114" lon="8.9238682"><ele>373.0</ele><time>2026-05-01T08:46:43.43Z</time></trkpt><trkpt lat="34.5596829" lon="8.9239624"><ele>373.0</ele><time>2026-05-01T08:46:44.432Z</time></trkpt><trkpt lat="34.5597605" lon="8.924057"><ele>373.0</ele><time>2026-05-01T08:46:45.473Z</time></trkpt><trkpt lat="34.5598394" lon="8.9241428"><ele>373.0</ele><time>2026-05-01T08:46:46.463Z</time></trkpt><trkpt lat="34.5599195" lon="8.9242316"><ele>373.0</ele><time>2026-05-01T08:46:47.444Z</time></trkpt><trkpt lat="34.5600023" lon="8.9243309"><ele>373.0</ele><time>2026-05-01T08:46:48.457Z</time></trkpt><trkpt lat="34.5600891" lon="8.9244313"><ele>372.75</ele><time>2026-05-01T08:46:49.47Z</time></trkpt><trkpt lat="34.5601783" lon="8.9245322"><ele>372.5</ele><time>2026-05-01T08:46:50.445Z</time></trkpt><trkpt lat="34.5602585" lon="8.9246347"><ele>372.25</ele><time>2026-05-01T08:46:51.471Z</time></trkpt><trkpt lat="34.5603462" lon="8.9247264"><ele>372.0</ele><time>2026-05-01T08:46:52.456Z</time></trkpt><trkpt lat="34.5604347" lon="8.9248223"><ele>372.0</ele><time>2026-05-01T08:46:53.421Z</time></trkpt><trkpt lat="34.5605198" lon="8.9249187"><ele>372.0</ele><time>2026-05-01T08:46:54.478Z</time></trkpt><trkpt lat="34.5606061" lon="8.9250181"><ele>372.0</ele><time>2026-05-01T08:46:55.474Z</time></trkpt><trkpt lat="34.5606905" lon="8.9251123"><ele>372.0</ele><time>2026-05-01T08:46:56.47Z</time></trkpt><trkpt lat="34.5607786" lon="8.9252046"><ele>371.75</ele><time>2026-05-01T08:46:57.462Z</time></trkpt><trkpt lat="34.560862" lon="8.9253025"><ele>371.5</ele><time>2026-05-01T08:46:58.456Z</time></trkpt><trkpt lat="34.5609465" lon="8.9254013"><ele>371.25</ele><time>2026-05-01T08:46:59.474Z</time></trkpt><trkpt lat="34.561029" lon="8.9254977"><ele>371.0</ele><time>2026-05-01T08:47:00.453Z</time></trkpt><trkpt lat="34.5611089" lon="8.9255895"><ele>371.0</ele><time>2026-05-01T08:47:01.464Z</time></trkpt><trkpt lat="34.561179" lon="8.9256838"><ele>371.0</ele><time>2026-05-01T08:47:02.473Z</time></trkpt><trkpt lat="34.5612494" lon="8.9257589"><ele>371.0</ele><time>2026-05-01T08:47:03.451Z</time></trkpt><trkpt lat="34.5613137" lon="8.9258303"><ele>371.0</ele><time>2026-05-01T08:47:04.419Z</time></trkpt><trkpt lat="34.561369" lon="8.9259013"><ele>371.0</ele><time>2026-05-01T08:47:05.482Z</time></trkpt><trkpt lat="34.5614282" lon="8.9259685"><ele>371.0</ele><time>2026-05-01T08:47:06.469Z</time></trkpt><trkpt lat="34.5614866" lon="8.926031"><ele>371.33333333333337</ele><time>2026-05-01T08:47:07.46Z</time></trkpt><trkpt lat="34.5615494" lon="8.9260921"><ele>371.6666666666667</ele><time>2026-05-01T08:47:08.469Z</time></trkpt><trkpt lat="34.5616105" lon="8.926157"><ele>372.0</ele><time>2026-05-01T08:47:09.466Z</time></trkpt><trkpt lat="34.561677" lon="8.9262252"><ele>372.3333333333333</ele><time>2026-05-01T08:47:10.466Z</time></trkpt><trkpt lat="34.561753" lon="8.9263018"><ele>372.66666666666663</ele><time>2026-05-01T08:47:11.48Z</time></trkpt><trkpt lat="34.5618246" lon="8.9263834"><ele>373.0</ele><time>2026-05-01T08:47:12.472Z</time></trkpt><trkpt lat="34.5618929" lon="8.9264641"><ele>373.0</ele><time>2026-05-01T08:47:13.477Z</time></trkpt><trkpt lat="34.561963" lon="8.9265459"><ele>373.0</ele><time>2026-05-01T08:47:14.477Z</time></trkpt><trkpt lat="34.5620348" lon="8.9266313"><ele>373.0</ele><time>2026-05-01T08:47:15.47Z</time></trkpt><trkpt lat="34.5621115" lon="8.9267171"><ele>373.0</ele><time>2026-05-01T08:47:16.463Z</time></trkpt><trkpt lat="34.5621833" lon="8.9268028"><ele>373.0</ele><time>2026-05-01T08:47:17.46Z</time></trkpt><trkpt lat="34.5622559" lon="8.9268969"><ele>373.0</ele><time>2026-05-01T08:47:18.416Z</time></trkpt><trkpt lat="34.5623268" lon="8.9269898"><ele>373.0</ele><time>2026-05-01T08:47:19.43Z</time></trkpt><trkpt lat="34.5624095" lon="8.9270832"><ele>373.0</ele><time>2026-05-01T08:47:20.451Z</time></trkpt><trkpt lat="34.5624931" lon="8.9271829"><ele>373.0</ele><time>2026-05-01T08:47:21.461Z</time></trkpt><trkpt lat="34.5625731" lon="8.9272806"><ele>373.0</ele><time>2026-05-01T08:47:22.437Z</time></trkpt><trkpt lat="34.5626412" lon="8.9273523"><ele>373.0</ele><time>2026-05-01T08:47:23.462Z</time></trkpt><trkpt lat="34.5626965" lon="8.9274222"><ele>373.0</ele><time>2026-05-01T08:47:24.48Z</time></trkpt><trkpt lat="34.5627458" lon="8.9274833"><ele>373.0</ele><time>2026-05-01T08:47:25.444Z</time></trkpt><trkpt lat="34.5628014" lon="8.9275543"><ele>373.0</ele><time>2026-05-01T08:47:26.421Z</time></trkpt><trkpt lat="34.5628711" lon="8.9276314"><ele>373.0</ele><time>2026-05-01T08:47:27.45Z</time></trkpt><trkpt lat="34.5629509" lon="8.9277255"><ele>373.0</ele><time>2026-05-01T08:47:28.462Z</time></trkpt><trkpt lat="34.5630373" lon="8.9278372"><ele>372.66666666666663</ele><time>2026-05-01T08:47:29.464Z</time></trkpt><trkpt lat="34.563139" lon="8.9279597"><ele>372.3333333333333</ele><time>2026-05-01T08:47:30.465Z</time></trkpt><trkpt lat="34.5632636" lon="8.928112"><ele>372.0</ele><time>2026-05-01T08:47:31.465Z</time></trkpt><trkpt lat="34.5634042" lon="8.9282811"><ele>372.0</ele><time>2026-05-01T08:47:32.487Z</time></trkpt><trkpt lat="34.5635451" lon="8.9284562"><ele>372.0</ele><time>2026-05-01T08:47:33.417Z</time></trkpt><trkpt lat="34.5636812" lon="8.9286322"><ele>372.0</ele><time>2026-05-01T08:47:34.438Z</time></trkpt><trkpt lat="34.5638101" lon="8.9288007"><ele>371.6666666666667</ele><time>2026-05-01T08:47:35.454Z</time></trkpt><trkpt lat="34.5639434" lon="8.9289605"><ele>371.33333333333337</ele><time>2026-05-01T08:47:36.438Z</time></trkpt><trkpt lat="34.5640759" lon="8.9291258"><ele>371.0</ele><time>2026-05-01T08:47:37.463Z</time></trkpt><trkpt lat="34.5642056" lon="8.929286"><ele>371.0</ele><time>2026-05-01T08:47:38.417Z</time></trkpt><trkpt lat="34.5643332" lon="8.9294443"><ele>371.0</ele><time>2026-05-01T08:47:39.426Z</time></trkpt><trkpt lat="34.5644629" lon="8.9295969"><ele>371.0</ele><time>2026-05-01T08:47:40.446Z</time></trkpt><trkpt lat="34.564587" lon="8.929751"><ele>371.0</ele><time>2026-05-01T08:47:41.452Z</time></trkpt><trkpt lat="34.5647126" lon="8.9299063"><ele>371.0</ele><time>2026-05-01T08:47:42.446Z</time></trkpt><trkpt lat="34.5648404" lon="8.9300665"><ele>371.0</ele><time>2026-05-01T08:47:43.444Z</time></trkpt><trkpt lat="34.5649698" lon="8.9302241"><ele>371.33333333333337</ele><time>2026-05-01T08:47:44.451Z</time></trkpt><trkpt lat="34.5650968" lon="8.9303831"><ele>371.6666666666667</ele><time>2026-05-01T08:47:45.468Z</time></trkpt><trkpt lat="34.5652311" lon="8.9305378"><ele>372.0</ele><time>2026-05-01T08:47:46.448Z</time></trkpt><trkpt lat="34.5653606" lon="8.9306974"><ele>372.0</ele><time>2026-05-01T08:47:47.442Z</time></trkpt><trkpt lat="34.5654949" lon="8.9308596"><ele>372.0</ele><time>2026-05-01T08:47:48.447Z</time></trkpt><trkpt lat="34.5656281" lon="8.9310178"><ele>372.0</ele><time>2026-05-01T08:47:49.464Z</time></trkpt><trkpt lat="34.5657589" lon="8.9311835"><ele>372.0</ele><time>2026-05-01T08:47:50.472Z</time></trkpt><trkpt lat="34.5658934" lon="8.9313449"><ele>372.0</ele><time>2026-05-01T08:47:51.468Z</time></trkpt><trkpt lat="34.566017" lon="8.9315123"><ele>372.0</ele><time>2026-05-01T08:47:52.479Z</time></trkpt><trkpt lat="34.5661438" lon="8.9316727"><ele>373.0</ele><time>2026-05-01T08:47:53.477Z</time></trkpt><trkpt lat="34.5662771" lon="8.9318306"><ele>374.0</ele><time>2026-05-01T08:47:54.466Z</time></trkpt><trkpt lat="34.5664042" lon="8.9319931"><ele>375.0</ele><time>2026-05-01T08:47:55.47Z</time></trkpt><trkpt lat="34.5665357" lon="8.9321554"><ele>375.0</ele><time>2026-05-01T08:47:56.473Z</time></trkpt><trkpt lat="34.566667" lon="8.9323156"><ele>375.0</ele><time>2026-05-01T08:47:57.442Z</time></trkpt><trkpt lat="34.5668002" lon="8.9324738"><ele>375.0</ele><time>2026-05-01T08:47:58.484Z</time></trkpt><trkpt lat="34.5669319" lon="8.9326418"><ele>373.6666666666667</ele><time>2026-05-01T08:47:59.473Z</time></trkpt><trkpt lat="34.5670671" lon="8.932809"><ele>372.33333333333337</ele><time>2026-05-01T08:48:00.423Z</time></trkpt><trkpt lat="34.5671991" lon="8.9329783"><ele>371.0</ele><time>2026-05-01T08:48:01.449Z</time></trkpt><trkpt lat="34.5673323" lon="8.9331389"><ele>371.0</ele><time>2026-05-01T08:48:02.484Z</time></trkpt><trkpt lat="34.5674679" lon="8.9333019"><ele>371.0</ele><time>2026-05-01T08:48:03.47Z</time></trkpt><trkpt lat="34.5676018" lon="8.9334653"><ele>371.0</ele><time>2026-05-01T08:48:04.413Z</time></trkpt><trkpt lat="34.567742" lon="8.9336269"><ele>371.33333333333337</ele><time>2026-05-01T08:48:05.475Z</time></trkpt><trkpt lat="34.5678752" lon="8.9337935"><ele>371.6666666666667</ele><time>2026-05-01T08:48:06.481Z</time></trkpt><trkpt lat="34.5680131" lon="8.9339541"><ele>372.0</ele><time>2026-05-01T08:48:07.467Z</time></trkpt><trkpt lat="34.5681447" lon="8.9341198"><ele>372.6666666666667</ele><time>2026-05-01T08:48:08.481Z</time></trkpt><trkpt lat="34.5682839" lon="8.934283"><ele>373.33333333333337</ele><time>2026-05-01T08:48:09.465Z</time></trkpt><trkpt lat="34.568422" lon="8.9344464"><ele>374.0</ele><time>2026-05-01T08:48:10.464Z</time></trkpt><trkpt lat="34.5685562" lon="8.9346139"><ele>374.0</ele><time>2026-05-01T08:48:11.485Z</time></trkpt><trkpt lat="34.5686871" lon="8.934777"><ele>374.0</ele><time>2026-05-01T08:48:12.477Z</time></trkpt><trkpt lat="34.568819" lon="8.9349393"><ele>374.0</ele><time>2026-05-01T08:48:13.479Z</time></trkpt><trkpt lat="34.5689508" lon="8.9351022"><ele>373.33333333333337</ele><time>2026-05-01T08:48:14.45Z</time></trkpt><trkpt lat="34.5690876" lon="8.9352682"><ele>372.6666666666667</ele><time>2026-05-01T08:48:15.444Z</time></trkpt><trkpt lat="34.5692245" lon="8.9354252"><ele>372.0</ele><time>2026-05-01T08:48:16.466Z</time></trkpt><trkpt lat="34.5693584" lon="8.9355776"><ele>372.0</ele><time>2026-05-01T08:48:17.456Z</time></trkpt><trkpt lat="34.5694895" lon="8.9357349"><ele>372.0</ele><time>2026-05-01T08:48:18.475Z</time></trkpt><trkpt lat="34.5696216" lon="8.9359016"><ele>372.0</ele><time>2026-05-01T08:48:19.454Z</time></trkpt><trkpt lat="34.569753" lon="8.9360652"><ele>372.6666666666667</ele><time>2026-05-01T08:48:20.451Z</time></trkpt><trkpt lat="34.5698907" lon="8.9362271"><ele>373.33333333333337</ele><time>2026-05-01T08:48:21.474Z</time></trkpt><trkpt lat="34.5700304" lon="8.936394"><ele>374.0</ele><time>2026-05-01T08:48:22.458Z</time></trkpt><trkpt lat="34.5701667" lon="8.9365661"><ele>374.0</ele><time>2026-05-01T08:48:23.473Z</time></trkpt><trkpt lat="34.5703029" lon="8.9367361"><ele>374.0</ele><time>2026-05-01T08:48:24.447Z</time></trkpt><trkpt lat="34.570438" lon="8.9369079"><ele>374.0</ele><time>2026-05-01T08:48:25.462Z</time></trkpt><trkpt lat="34.5705767" lon="8.937076"><ele>374.0</ele><time>2026-05-01T08:48:26.464Z</time></trkpt><trkpt lat="34.570715" lon="8.9372462"><ele>374.0</ele><time>2026-05-01T08:48:27.437Z</time></trkpt><trkpt lat="34.5708505" lon="8.9374123"><ele>374.0</ele><time>2026-05-01T08:48:28.459Z</time></trkpt><trkpt lat="34.5709899" lon="8.9375822"><ele>374.33333333333337</ele><time>2026-05-01T08:48:29.471Z</time></trkpt><trkpt lat="34.5711279" lon="8.9377485"><ele>374.6666666666667</ele><time>2026-05-01T08:48:30.468Z</time></trkpt><trkpt lat="34.571259" lon="8.9379126"><ele>375.0</ele><time>2026-05-01T08:48:31.457Z</time></trkpt><trkpt lat="34.5713957" lon="8.9380795"><ele>375.0</ele><time>2026-05-01T08:48:32.472Z</time></trkpt><trkpt lat="34.5715379" lon="8.9382481"><ele>375.0</ele><time>2026-05-01T08:48:33.441Z</time></trkpt><trkpt lat="34.5716739" lon="8.9384152"><ele>375.0</ele><time>2026-05-01T08:48:34.476Z</time></trkpt><trkpt lat="34.5718169" lon="8.9385823"><ele>375.0</ele><time>2026-05-01T08:48:35.433Z</time></trkpt><trkpt lat="34.5719491" lon="8.9387449"><ele>375.0</ele><time>2026-05-01T08:48:36.457Z</time></trkpt><trkpt lat="34.5720834" lon="8.9389157"><ele>375.0</ele><time>2026-05-01T08:48:37.441Z</time></trkpt><trkpt lat="34.5722203" lon="8.9390875"><ele>375.0</ele><time>2026-05-01T08:48:38.45Z</time></trkpt><trkpt lat="34.5723579" lon="8.939253"><ele>375.0</ele><time>2026-05-01T08:48:39.438Z</time></trkpt><trkpt lat="34.5724919" lon="8.9394201"><ele>375.0</ele><time>2026-05-01T08:48:40.435Z</time></trkpt><trkpt lat="34.5726309" lon="8.9395876"><ele>375.0</ele><time>2026-05-01T08:48:41.428Z</time></trkpt><trkpt lat="34.5727669" lon="8.939755"><ele>375.0</ele><time>2026-05-01T08:48:42.416Z</time></trkpt><trkpt lat="34.5729047" lon="8.9399249"><ele>375.0</ele><time>2026-05-01T08:48:43.439Z</time></trkpt><trkpt lat="34.5730413" lon="8.9400962"><ele>375.3333333333333</ele><time>2026-05-01T08:48:44.419Z</time></trkpt><trkpt lat="34.5731764" lon="8.9402603"><ele>375.66666666666663</ele><time>2026-05-01T08:48:45.485Z</time></trkpt><trkpt lat="34.5733148" lon="8.940431"><ele>376.0</ele><time>2026-05-01T08:48:46.457Z</time></trkpt><trkpt lat="34.5734586" lon="8.9406055"><ele>376.0</ele><time>2026-05-01T08:48:47.454Z</time></trkpt><trkpt lat="34.5736078" lon="8.9407837"><ele>376.0</ele><time>2026-05-01T08:48:48.441Z</time></trkpt><trkpt lat="34.5737601" lon="8.9409617"><ele>376.0</ele><time>2026-05-01T08:48:49.422Z</time></trkpt><trkpt lat="34.5739117" lon="8.9411409"><ele>375.66666666666663</ele><time>2026-05-01T08:48:50.456Z</time></trkpt><trkpt lat="34.5740712" lon="8.9413054"><ele>375.3333333333333</ele><time>2026-05-01T08:48:51.419Z</time></trkpt><trkpt lat="34.5742229" lon="8.9414709"><ele>375.0</ele><time>2026-05-01T08:48:52.417Z</time></trkpt><trkpt lat="34.5743742" lon="8.94163"><ele>374.0</ele><time>2026-05-01T08:48:53.416Z</time></trkpt><trkpt lat="34.5745355" lon="8.9417812"><ele>373.0</ele><time>2026-05-01T08:48:54.422Z</time></trkpt><trkpt lat="34.5746961" lon="8.9419351"><ele>372.0</ele><time>2026-05-01T08:48:55.413Z</time></trkpt><trkpt lat="34.5748633" lon="8.9420829"><ele>372.0</ele><time>2026-05-01T08:48:56.417Z</time></trkpt><trkpt lat="34.575025" lon="8.9422304"><ele>372.0</ele><time>2026-05-01T08:48:57.425Z</time></trkpt><trkpt lat="34.5751832" lon="8.9423839"><ele>372.0</ele><time>2026-05-01T08:48:58.424Z</time></trkpt><trkpt lat="34.5753466" lon="8.9425367"><ele>372.0</ele><time>2026-05-01T08:48:59.422Z</time></trkpt><trkpt lat="34.5755052" lon="8.9426995"><ele>372.0</ele><time>2026-05-01T08:49:00.429Z</time></trkpt><trkpt lat="34.5756641" lon="8.9428509"><ele>372.0</ele><time>2026-05-01T08:49:01.418Z</time></trkpt><trkpt lat="34.5758189" lon="8.9430055"><ele>372.0</ele><time>2026-05-01T08:49:02.434Z</time></trkpt><trkpt lat="34.5759731" lon="8.9431631"><ele>372.0</ele><time>2026-05-01T08:49:03.422Z</time></trkpt><trkpt lat="34.5761304" lon="8.9433154"><ele>372.0</ele><time>2026-05-01T08:49:04.427Z</time></trkpt><trkpt lat="34.5762937" lon="8.9434696"><ele>371.6666666666667</ele><time>2026-05-01T08:49:05.428Z</time></trkpt><trkpt lat="34.5764596" lon="8.9436283"><ele>371.33333333333337</ele><time>2026-05-01T08:49:06.43Z</time></trkpt><trkpt lat="34.5766249" lon="8.9437836"><ele>371.0</ele><time>2026-05-01T08:49:07.418Z</time></trkpt><trkpt lat="34.5767878" lon="8.9439383"><ele>371.0</ele><time>2026-05-01T08:49:08.423Z</time></trkpt><trkpt lat="34.5769498" lon="8.9440946"><ele>371.0</ele><time>2026-05-01T08:49:09.42Z</time></trkpt><trkpt lat="34.5771133" lon="8.9442535"><ele>371.0</ele><time>2026-05-01T08:49:10.416Z</time></trkpt><trkpt lat="34.5772774" lon="8.9444123"><ele>371.6666666666667</ele><time>2026-05-01T08:49:11.42Z</time></trkpt><trkpt lat="34.577443" lon="8.9445708"><ele>372.3333333333333</ele><time>2026-05-01T08:49:12.427Z</time></trkpt><trkpt lat="34.5776073" lon="8.9447305"><ele>373.0</ele><time>2026-05-01T08:49:13.417Z</time></trkpt><trkpt lat="34.5777762" lon="8.9448931"><ele>374.0</ele><time>2026-05-01T08:49:14.426Z</time></trkpt><trkpt lat="34.5779447" lon="8.9450568"><ele>375.0</ele><time>2026-05-01T08:49:15.427Z</time></trkpt><trkpt lat="34.5781138" lon="8.9452202"><ele>376.0</ele><time>2026-05-01T08:49:16.424Z</time></trkpt><trkpt lat="34.5782817" lon="8.9453811"><ele>376.0</ele><time>2026-05-01T08:49:17.434Z</time></trkpt><trkpt lat="34.578456" lon="8.9455453"><ele>376.0</ele><time>2026-05-01T08:49:18.436Z</time></trkpt><trkpt lat="34.5786225" lon="8.945711"><ele>376.0</ele><time>2026-05-01T08:49:19.411Z</time></trkpt><trkpt lat="34.5787865" lon="8.9458726"><ele>375.0</ele><time>2026-05-01T08:49:20.427Z</time></trkpt><trkpt lat="34.5789472" lon="8.9460291"><ele>374.0</ele><time>2026-05-01T08:49:21.426Z</time></trkpt><trkpt lat="34.5791141" lon="8.9461913"><ele>373.0</ele><time>2026-05-01T08:49:22.425Z</time></trkpt><trkpt lat="34.5792837" lon="8.9463501"><ele>373.0</ele><time>2026-05-01T08:49:23.431Z</time></trkpt><trkpt lat="34.5794568" lon="8.9465083"><ele>373.0</ele><time>2026-05-01T08:49:24.438Z</time></trkpt><trkpt lat="34.5796297" lon="8.9466675"><ele>373.0</ele><time>2026-05-01T08:49:25.429Z</time></trkpt><trkpt lat="34.5797967" lon="8.9468227"><ele>373.3333333333333</ele><time>2026-05-01T08:49:26.429Z</time></trkpt><trkpt lat="34.5799644" lon="8.9469821"><ele>373.6666666666667</ele><time>2026-05-01T08:49:27.432Z</time></trkpt><trkpt lat="34.580131" lon="8.9471374"><ele>374.0</ele><time>2026-05-01T08:49:28.432Z</time></trkpt><trkpt lat="34.5803023" lon="8.9472853"><ele>374.33333333333337</ele><time>2026-05-01T08:49:29.428Z</time></trkpt><trkpt lat="34.5804753" lon="8.9474293"><ele>374.6666666666667</ele><time>2026-05-01T08:49:30.429Z</time></trkpt><trkpt lat="34.5806529" lon="8.9475664"><ele>375.0</ele><time>2026-05-01T08:49:31.425Z</time></trkpt><trkpt lat="34.5808328" lon="8.9476972"><ele>375.0</ele><time>2026-05-01T08:49:32.435Z</time></trkpt><trkpt lat="34.5810144" lon="8.9478194"><ele>375.0</ele><time>2026-05-01T08:49:33.429Z</time></trkpt><trkpt lat="34.5811982" lon="8.9479263"><ele>375.0</ele><time>2026-05-01T08:49:34.437Z</time></trkpt><trkpt lat="34.5813823" lon="8.948032"><ele>375.6666666666667</ele><time>2026-05-01T08:49:35.427Z</time></trkpt><trkpt lat="34.5815625" lon="8.9481364"><ele>376.33333333333337</ele><time>2026-05-01T08:49:36.421Z</time></trkpt><trkpt lat="34.5817406" lon="8.9482467"><ele>377.0</ele><time>2026-05-01T08:49:37.424Z</time></trkpt><trkpt lat="34.5819139" lon="8.9483467"><ele>377.6666666666667</ele><time>2026-05-01T08:49:38.43Z</time></trkpt><trkpt lat="34.5820915" lon="8.948453"><ele>378.3333333333333</ele><time>2026-05-01T08:49:39.424Z</time></trkpt><trkpt lat="34.5822634" lon="8.9485594"><ele>379.0</ele><time>2026-05-01T08:49:40.423Z</time></trkpt><trkpt lat="34.5824337" lon="8.94866"><ele>379.0</ele><time>2026-05-01T08:49:41.422Z</time></trkpt><trkpt lat="34.5826014" lon="8.9487653"><ele>379.0</ele><time>2026-05-01T08:49:42.42Z</time></trkpt><trkpt lat="34.5827801" lon="8.9488738"><ele>379.0</ele><time>2026-05-01T08:49:43.469Z</time></trkpt><trkpt lat="34.5829571" lon="8.9489843"><ele>377.66666666666663</ele><time>2026-05-01T08:49:44.474Z</time></trkpt><trkpt lat="34.583133" lon="8.9490902"><ele>376.3333333333333</ele><time>2026-05-01T08:49:45.483Z</time></trkpt><trkpt lat="34.5833161" lon="8.9491948"><ele>375.0</ele><time>2026-05-01T08:49:46.422Z</time></trkpt><trkpt lat="34.5834937" lon="8.9492993"><ele>375.3333333333333</ele><time>2026-05-01T08:49:47.446Z</time></trkpt><trkpt lat="34.5836684" lon="8.9494011"><ele>375.66666666666663</ele><time>2026-05-01T08:49:48.472Z</time></trkpt><trkpt lat="34.5838391" lon="8.9495055"><ele>376.0</ele><time>2026-05-01T08:49:49.474Z</time></trkpt><trkpt lat="34.5840054" lon="8.9496098"><ele>376.0</ele><time>2026-05-01T08:49:50.456Z</time></trkpt><trkpt lat="34.5841769" lon="8.9497183"><ele>376.0</ele><time>2026-05-01T08:49:51.476Z</time></trkpt><trkpt lat="34.5843512" lon="8.9498246"><ele>376.0</ele><time>2026-05-01T08:49:52.452Z</time></trkpt><trkpt lat="34.5845217" lon="8.9499328"><ele>376.0</ele><time>2026-05-01T08:49:53.475Z</time></trkpt><trkpt lat="34.5847" lon="8.9500392"><ele>376.0</ele><time>2026-05-01T08:49:54.465Z</time></trkpt><trkpt lat="34.5848781" lon="8.9501508"><ele>376.0</ele><time>2026-05-01T08:49:55.466Z</time></trkpt><trkpt lat="34.5850556" lon="8.950252"><ele>376.0</ele><time>2026-05-01T08:49:56.468Z</time></trkpt><trkpt lat="34.5852323" lon="8.9503576"><ele>376.0</ele><time>2026-05-01T08:49:57.461Z</time></trkpt><trkpt lat="34.5854111" lon="8.9504557"><ele>376.0</ele><time>2026-05-01T08:49:58.445Z</time></trkpt><trkpt lat="34.5855896" lon="8.9505586"><ele>376.0</ele><time>2026-05-01T08:49:59.482Z</time></trkpt><trkpt lat="34.5857673" lon="8.9506655"><ele>376.0</ele><time>2026-05-01T08:50:00.44Z</time></trkpt><trkpt lat="34.5859445" lon="8.9507725"><ele>376.0</ele><time>2026-05-01T08:50:01.483Z</time></trkpt><trkpt lat="34.5861247" lon="8.9508762"><ele>377.0</ele><time>2026-05-01T08:50:02.472Z</time></trkpt><trkpt lat="34.5863014" lon="8.9509854"><ele>378.0</ele><time>2026-05-01T08:50:03.454Z</time></trkpt><trkpt lat="34.5864834" lon="8.9510967"><ele>379.0</ele><time>2026-05-01T08:50:04.475Z</time></trkpt><trkpt lat="34.5866597" lon="8.9512042"><ele>379.0</ele><time>2026-05-01T08:50:05.471Z</time></trkpt><trkpt lat="34.5868337" lon="8.9513161"><ele>379.0</ele><time>2026-05-01T08:50:06.467Z</time></trkpt><trkpt lat="34.5870085" lon="8.9514212"><ele>379.0</ele><time>2026-05-01T08:50:07.466Z</time></trkpt><trkpt lat="34.5871831" lon="8.9515276"><ele>378.66666666666663</ele><time>2026-05-01T08:50:08.465Z</time></trkpt><trkpt lat="34.5873548" lon="8.951634"><ele>378.3333333333333</ele><time>2026-05-01T08:50:09.469Z</time></trkpt><trkpt lat="34.5875266" lon="8.9517402"><ele>378.0</ele><time>2026-05-01T08:50:10.462Z</time></trkpt><trkpt lat="34.5877017" lon="8.9518503"><ele>379.0</ele><time>2026-05-01T08:50:11.471Z</time></trkpt><trkpt lat="34.5878812" lon="8.9519616"><ele>380.0</ele><time>2026-05-01T08:50:12.486Z</time></trkpt><trkpt lat="34.5880593" lon="8.9520652"><ele>381.0</ele><time>2026-05-01T08:50:13.491Z</time></trkpt><trkpt lat="34.5882379" lon="8.9521747"><ele>381.0</ele><time>2026-05-01T08:50:14.478Z</time></trkpt><trkpt lat="34.5884139" lon="8.9522794"><ele>381.0</ele><time>2026-05-01T08:50:15.458Z</time></trkpt><trkpt lat="34.5885889" lon="8.9523855"><ele>381.0</ele><time>2026-05-01T08:50:16.459Z</time></trkpt><trkpt lat="34.5887668" lon="8.9524893"><ele>380.0</ele><time>2026-05-01T08:50:17.438Z</time></trkpt><trkpt lat="34.5889434" lon="8.9525962"><ele>379.0</ele><time>2026-05-01T08:50:18.426Z</time></trkpt><trkpt lat="34.5891197" lon="8.952703"><ele>378.0</ele><time>2026-05-01T08:50:19.473Z</time></trkpt><trkpt lat="34.5892907" lon="8.9528083"><ele>378.0</ele><time>2026-05-01T08:50:20.48Z</time></trkpt><trkpt lat="34.5894671" lon="8.9529143"><ele>378.0</ele><time>2026-05-01T08:50:21.467Z</time></trkpt><trkpt lat="34.5896403" lon="8.9530192"><ele>378.0</ele><time>2026-05-01T08:50:22.47Z</time></trkpt><trkpt lat="34.5898188" lon="8.9531227"><ele>378.0</ele><time>2026-05-01T08:50:23.449Z</time></trkpt><trkpt lat="34.589999" lon="8.9532303"><ele>378.0</ele><time>2026-05-01T08:50:24.472Z</time></trkpt><trkpt lat="34.590183" lon="8.9533356"><ele>378.0</ele><time>2026-05-01T08:50:25.469Z</time></trkpt><trkpt lat="34.5903619" lon="8.9534408"><ele>378.0</ele><time>2026-05-01T08:50:26.465Z</time></trkpt><trkpt lat="34.5905417" lon="8.9535387"><ele>378.0</ele><time>2026-05-01T08:50:27.462Z</time></trkpt><trkpt lat="34.5907194" lon="8.9536436"><ele>378.0</ele><time>2026-05-01T08:50:28.436Z</time></trkpt><trkpt lat="34.5908957" lon="8.9537485"><ele>378.0</ele><time>2026-05-01T08:50:29.48Z</time></trkpt><trkpt lat="34.5910696" lon="8.9538459"><ele>378.0</ele><time>2026-05-01T08:50:30.441Z</time></trkpt><trkpt lat="34.591251" lon="8.9539465"><ele>378.0</ele><time>2026-05-01T08:50:31.467Z</time></trkpt><trkpt lat="34.5914277" lon="8.95405"><ele>378.0</ele><time>2026-05-01T08:50:32.467Z</time></trkpt><trkpt lat="34.5916076" lon="8.9541541"><ele>378.0</ele><time>2026-05-01T08:50:33.469Z</time></trkpt><trkpt lat="34.5917871" lon="8.9542585"><ele>378.0</ele><time>2026-05-01T08:50:34.479Z</time></trkpt><trkpt lat="34.5919635" lon="8.9543709"><ele>378.3333333333333</ele><time>2026-05-01T08:50:35.464Z</time></trkpt><trkpt lat="34.592134" lon="8.954482"><ele>378.66666666666663</ele><time>2026-05-01T08:50:36.449Z</time></trkpt><trkpt lat="34.5923022" lon="8.954601"><ele>379.0</ele><time>2026-05-01T08:50:37.454Z</time></trkpt><trkpt lat="34.5924652" lon="8.9547252"><ele>379.0</ele><time>2026-05-01T08:50:38.43Z</time></trkpt><trkpt lat="34.5926346" lon="8.954857"><ele>379.0</ele><time>2026-05-01T08:50:39.467Z</time></trkpt><trkpt lat="34.5927985" lon="8.9549904"><ele>379.0</ele><time>2026-05-01T08:50:40.412Z</time></trkpt><trkpt lat="34.5929644" lon="8.9551238"><ele>379.3333333333333</ele><time>2026-05-01T08:50:41.456Z</time></trkpt><trkpt lat="34.5931296" lon="8.9552557"><ele>379.6666666666667</ele><time>2026-05-01T08:50:42.47Z</time></trkpt><trkpt lat="34.5932894" lon="8.9553932"><ele>380.0</ele><time>2026-05-01T08:50:43.475Z</time></trkpt><trkpt lat="34.5934498" lon="8.9555347"><ele>380.0</ele><time>2026-05-01T08:50:44.474Z</time></trkpt><trkpt lat="34.5936106" lon="8.9556713"><ele>380.0</ele><time>2026-05-01T08:50:45.486Z</time></trkpt><trkpt lat="34.5937707" lon="8.9558083"><ele>380.0</ele><time>2026-05-01T08:50:46.465Z</time></trkpt><trkpt lat="34.5939297" lon="8.9559439"><ele>380.33333333333337</ele><time>2026-05-01T08:50:47.419Z</time></trkpt><trkpt lat="34.5940842" lon="8.9560812"><ele>380.6666666666667</ele><time>2026-05-01T08:50:48.44Z</time></trkpt><trkpt lat="34.5942434" lon="8.9562214"><ele>381.0</ele><time>2026-05-01T08:50:49.478Z</time></trkpt><trkpt lat="34.5944091" lon="8.9563528"><ele>380.0</ele><time>2026-05-01T08:50:50.476Z</time></trkpt><trkpt lat="34.5945713" lon="8.9564816"><ele>379.0</ele><time>2026-05-01T08:50:51.465Z</time></trkpt><trkpt lat="34.5947349" lon="8.9566196"><ele>378.0</ele><time>2026-05-01T08:50:52.46Z</time></trkpt><trkpt lat="34.594895" lon="8.9567566"><ele>378.0</ele><time>2026-05-01T08:50:53.477Z</time></trkpt><trkpt lat="34.5950602" lon="8.9568937"><ele>378.0</ele><time>2026-05-01T08:50:54.473Z</time></trkpt><trkpt lat="34.5952254" lon="8.9570288"><ele>378.0</ele><time>2026-05-01T08:50:55.451Z</time></trkpt><trkpt lat="34.5953809" lon="8.9571658"><ele>378.0</ele><time>2026-05-01T08:50:56.469Z</time></trkpt><trkpt lat="34.59554" lon="8.9573"><ele>378.0</ele><time>2026-05-01T08:50:57.466Z</time></trkpt><trkpt lat="34.5957003" lon="8.9574362"><ele>378.0</ele><time>2026-05-01T08:50:58.479Z</time></trkpt><trkpt lat="34.5958609" lon="8.957574"><ele>378.0</ele><time>2026-05-01T08:50:59.477Z</time></trkpt><trkpt lat="34.5960199" lon="8.9577144"><ele>378.0</ele><time>2026-05-01T08:51:00.448Z</time></trkpt><trkpt lat="34.5961824" lon="8.9578531"><ele>378.0</ele><time>2026-05-01T08:51:01.468Z</time></trkpt><trkpt lat="34.5963473" lon="8.9579915"><ele>377.6666666666667</ele><time>2026-05-01T08:51:02.476Z</time></trkpt><trkpt lat="34.5965135" lon="8.9581293"><ele>377.33333333333337</ele><time>2026-05-01T08:51:03.484Z</time></trkpt><trkpt lat="34.5966771" lon="8.9582671"><ele>377.0</ele><time>2026-05-01T08:51:04.448Z</time></trkpt><trkpt lat="34.59684" lon="8.9583992"><ele>377.6666666666667</ele><time>2026-05-01T08:51:05.471Z</time></trkpt><trkpt lat="34.5970029" lon="8.9585354"><ele>378.3333333333333</ele><time>2026-05-01T08:51:06.471Z</time></trkpt><trkpt lat="34.597163" lon="8.9586742"><ele>379.0</ele><time>2026-05-01T08:51:07.473Z</time></trkpt><trkpt lat="34.597319" lon="8.9588117"><ele>379.0</ele><time>2026-05-01T08:51:08.451Z</time></trkpt><trkpt lat="34.5974792" lon="8.9589482"><ele>379.0</ele><time>2026-05-01T08:51:09.449Z</time></trkpt><trkpt lat="34.597641" lon="8.9590861"><ele>379.0</ele><time>2026-05-01T08:51:10.439Z</time></trkpt><trkpt lat="34.5978057" lon="8.9592208"><ele>378.3333333333333</ele><time>2026-05-01T08:51:11.459Z</time></trkpt><trkpt lat="34.597964" lon="8.9593591"><ele>377.6666666666667</ele><time>2026-05-01T08:51:12.457Z</time></trkpt><trkpt lat="34.5981225" lon="8.9594972"><ele>377.0</ele><time>2026-05-01T08:51:13.435Z</time></trkpt><trkpt lat="34.5982848" lon="8.9596386"><ele>377.0</ele><time>2026-05-01T08:51:14.472Z</time></trkpt><trkpt lat="34.5984437" lon="8.9597783"><ele>377.0</ele><time>2026-05-01T08:51:15.474Z</time></trkpt><trkpt lat="34.598604" lon="8.9599138"><ele>377.0</ele><time>2026-05-01T08:51:16.471Z</time></trkpt><trkpt lat="34.598762" lon="8.9600485"><ele>377.33333333333337</ele><time>2026-05-01T08:51:17.475Z</time></trkpt><trkpt lat="34.5989213" lon="8.960184"><ele>377.6666666666667</ele><time>2026-05-01T08:51:18.448Z</time></trkpt><trkpt lat="34.5990853" lon="8.9603205"><ele>378.0</ele><time>2026-05-01T08:51:19.454Z</time></trkpt><trkpt lat="34.5992445" lon="8.9604541"><ele>378.0</ele><time>2026-05-01T08:51:20.451Z</time></trkpt><trkpt lat="34.5994038" lon="8.9605867"><ele>378.0</ele><time>2026-05-01T08:51:21.467Z</time></trkpt><trkpt lat="34.5995636" lon="8.9607252"><ele>378.0</ele><time>2026-05-01T08:51:22.464Z</time></trkpt><trkpt lat="34.5997276" lon="8.9608609"><ele>377.6666666666667</ele><time>2026-05-01T08:51:23.466Z</time></trkpt><trkpt lat="34.5998899" lon="8.9609908"><ele>377.33333333333337</ele><time>2026-05-01T08:51:24.48Z</time></trkpt><trkpt lat="34.6000502" lon="8.9611263"><ele>377.0</ele><time>2026-05-01T08:51:25.45Z</time></trkpt><trkpt lat="34.6002137" lon="8.9612619"><ele>377.33333333333337</ele><time>2026-05-01T08:51:26.472Z</time></trkpt><trkpt lat="34.6003748" lon="8.9613956"><ele>377.6666666666667</ele><time>2026-05-01T08:51:27.474Z</time></trkpt><trkpt lat="34.6005372" lon="8.9615373"><ele>378.0</ele><time>2026-05-01T08:51:28.45Z</time></trkpt><trkpt lat="34.6006993" lon="8.961675"><ele>378.0</ele><time>2026-05-01T08:51:29.469Z</time></trkpt><trkpt lat="34.6008598" lon="8.9618096"><ele>378.0</ele><time>2026-05-01T08:51:30.466Z</time></trkpt><trkpt lat="34.601019" lon="8.9619454"><ele>378.0</ele><time>2026-05-01T08:51:31.44Z</time></trkpt><trkpt lat="34.6011789" lon="8.9620821"><ele>378.0</ele><time>2026-05-01T08:51:32.447Z</time></trkpt><trkpt lat="34.601338" lon="8.9622188"><ele>378.0</ele><time>2026-05-01T08:51:33.464Z</time></trkpt><trkpt lat="34.6014982" lon="8.9623506"><ele>378.0</ele><time>2026-05-01T08:51:34.461Z</time></trkpt><trkpt lat="34.6016602" lon="8.962489"><ele>378.3333333333333</ele><time>2026-05-01T08:51:35.457Z</time></trkpt><trkpt lat="34.6018226" lon="8.9626259"><ele>378.66666666666663</ele><time>2026-05-01T08:51:36.469Z</time></trkpt><trkpt lat="34.6019852" lon="8.9627599"><ele>379.0</ele><time>2026-05-01T08:51:37.478Z</time></trkpt><trkpt lat="34.6021513" lon="8.9628925"><ele>379.3333333333333</ele><time>2026-05-01T08:51:38.457Z</time></trkpt><trkpt lat="34.6023114" lon="8.9630302"><ele>379.6666666666667</ele><time>2026-05-01T08:51:39.476Z</time></trkpt><trkpt lat="34.6024722" lon="8.9631683"><ele>380.0</ele><time>2026-05-01T08:51:40.484Z</time></trkpt><trkpt lat="34.6026334" lon="8.9633066"><ele>380.33333333333337</ele><time>2026-05-01T08:51:41.435Z</time></trkpt><trkpt lat="34.602796" lon="8.9634417"><ele>380.6666666666667</ele><time>2026-05-01T08:51:42.475Z</time></trkpt><trkpt lat="34.6029609" lon="8.9635741"><ele>381.0</ele><time>2026-05-01T08:51:43.476Z</time></trkpt><trkpt lat="34.6031139" lon="8.9637014"><ele>381.0</ele><time>2026-05-01T08:51:44.474Z</time></trkpt><trkpt lat="34.6032599" lon="8.9638196"><ele>381.0</ele><time>2026-05-01T08:51:45.472Z</time></trkpt><trkpt lat="34.6033954" lon="8.963943"><ele>381.0</ele><time>2026-05-01T08:51:46.421Z</time></trkpt><trkpt lat="34.6035393" lon="8.9640696"><ele>381.6666666666667</ele><time>2026-05-01T08:51:47.441Z</time></trkpt><trkpt lat="34.6036833" lon="8.9641885"><ele>382.33333333333337</ele><time>2026-05-01T08:51:48.463Z</time></trkpt><trkpt lat="34.6038368" lon="8.9643131"><ele>383.0</ele><time>2026-05-01T08:51:49.469Z</time></trkpt><trkpt lat="34.6039902" lon="8.9644448"><ele>383.0</ele><time>2026-05-01T08:51:50.444Z</time></trkpt><trkpt lat="34.604142" lon="8.9645766"><ele>383.0</ele><time>2026-05-01T08:51:51.441Z</time></trkpt><trkpt lat="34.6043009" lon="8.9647124"><ele>383.0</ele><time>2026-05-01T08:51:52.45Z</time></trkpt><trkpt lat="34.6044557" lon="8.9648452"><ele>383.0</ele><time>2026-05-01T08:51:53.482Z</time></trkpt><trkpt lat="34.6046127" lon="8.9649786"><ele>383.0</ele><time>2026-05-01T08:51:54.461Z</time></trkpt><trkpt lat="34.6047662" lon="8.965109"><ele>383.0</ele><time>2026-05-01T08:51:55.464Z</time></trkpt><trkpt lat="34.6049202" lon="8.9652429"><ele>383.0</ele><time>2026-05-01T08:51:56.454Z</time></trkpt><trkpt lat="34.605075" lon="8.9653717"><ele>383.0</ele><time>2026-05-01T08:51:57.469Z</time></trkpt><trkpt lat="34.6052341" lon="8.9655034"><ele>383.0</ele><time>2026-05-01T08:51:58.478Z</time></trkpt><trkpt lat="34.6053906" lon="8.9656347"><ele>383.33333333333337</ele><time>2026-05-01T08:51:59.48Z</time></trkpt><trkpt lat="34.6055472" lon="8.9657651"><ele>383.6666666666667</ele><time>2026-05-01T08:52:00.472Z</time></trkpt><trkpt lat="34.6057036" lon="8.9658977"><ele>384.0</ele><time>2026-05-01T08:52:01.467Z</time></trkpt><trkpt lat="34.605863" lon="8.9660283"><ele>384.0</ele><time>2026-05-01T08:52:02.469Z</time></trkpt><trkpt lat="34.6060185" lon="8.9661631"><ele>384.0</ele><time>2026-05-01T08:52:03.467Z</time></trkpt><trkpt lat="34.6061766" lon="8.9663005"><ele>384.0</ele><time>2026-05-01T08:52:04.442Z</time></trkpt><trkpt lat="34.6063331" lon="8.9664275"><ele>384.0</ele><time>2026-05-01T08:52:05.45Z</time></trkpt><trkpt lat="34.6064914" lon="8.9665558"><ele>384.0</ele><time>2026-05-01T08:52:06.475Z</time></trkpt><trkpt lat="34.6066518" lon="8.966691"><ele>384.0</ele><time>2026-05-01T08:52:07.475Z</time></trkpt><trkpt lat="34.606809" lon="8.9668269"><ele>384.0</ele><time>2026-05-01T08:52:08.465Z</time></trkpt><trkpt lat="34.6069639" lon="8.9669649"><ele>384.0</ele><time>2026-05-01T08:52:09.475Z</time></trkpt><trkpt lat="34.6071135" lon="8.9671027"><ele>384.0</ele><time>2026-05-01T08:52:10.475Z</time></trkpt><trkpt lat="34.6072677" lon="8.9672385"><ele>384.0</ele><time>2026-05-01T08:52:11.474Z</time></trkpt><trkpt lat="34.6074286" lon="8.9673743"><ele>384.0</ele><time>2026-05-01T08:52:12.474Z</time></trkpt><trkpt lat="34.6075875" lon="8.9675104"><ele>384.0</ele><time>2026-05-01T08:52:13.477Z</time></trkpt><trkpt lat="34.6077434" lon="8.96765"><ele>384.0</ele><time>2026-05-01T08:52:14.47Z</time></trkpt><trkpt lat="34.607899" lon="8.9677907"><ele>384.0</ele><time>2026-05-01T08:52:15.485Z</time></trkpt><trkpt lat="34.6080566" lon="8.9679264"><ele>384.0</ele><time>2026-05-01T08:52:16.482Z</time></trkpt><trkpt lat="34.6082152" lon="8.9680642"><ele>384.0</ele><time>2026-05-01T08:52:17.45Z</time></trkpt><trkpt lat="34.6083664" lon="8.9682043"><ele>384.0</ele><time>2026-05-01T08:52:18.469Z</time></trkpt><trkpt lat="34.6085191" lon="8.9683423"><ele>384.0</ele><time>2026-05-01T08:52:19.475Z</time></trkpt><trkpt lat="34.6086766" lon="8.9684771"><ele>384.66666666666663</ele><time>2026-05-01T08:52:20.46Z</time></trkpt><trkpt lat="34.6088326" lon="8.9686126"><ele>385.3333333333333</ele><time>2026-05-01T08:52:21.452Z</time></trkpt><trkpt lat="34.6089887" lon="8.9687527"><ele>386.0</ele><time>2026-05-01T08:52:22.467Z</time></trkpt><trkpt lat="34.6091454" lon="8.9688933"><ele>386.0</ele><time>2026-05-01T08:52:23.453Z</time></trkpt><trkpt lat="34.6092972" lon="8.9690304"><ele>386.0</ele><time>2026-05-01T08:52:24.472Z</time></trkpt><trkpt lat="34.6094502" lon="8.9691718"><ele>386.0</ele><time>2026-05-01T08:52:25.445Z</time></trkpt><trkpt lat="34.6096036" lon="8.9693047"><ele>386.0</ele><time>2026-05-01T08:52:26.464Z</time></trkpt><trkpt lat="34.6097523" lon="8.969443"><ele>386.0</ele><time>2026-05-01T08:52:27.472Z</time></trkpt><trkpt lat="34.6099094" lon="8.9695852"><ele>386.0</ele><time>2026-05-01T08:52:28.435Z</time></trkpt><trkpt lat="34.6100631" lon="8.9697227"><ele>386.0</ele><time>2026-05-01T08:52:29.443Z</time></trkpt><trkpt lat="34.6102198" lon="8.9698622"><ele>386.0</ele><time>2026-05-01T08:52:30.462Z</time></trkpt><trkpt lat="34.6103744" lon="8.9699997"><ele>386.0</ele><time>2026-05-01T08:52:31.443Z</time></trkpt><trkpt lat="34.6105278" lon="8.9701425"><ele>386.3333333333333</ele><time>2026-05-01T08:52:32.46Z</time></trkpt><trkpt lat="34.6106854" lon="8.970284"><ele>386.66666666666663</ele><time>2026-05-01T08:52:33.429Z</time></trkpt><trkpt lat="34.6108416" lon="8.9704245"><ele>387.0</ele><time>2026-05-01T08:52:34.445Z</time></trkpt><trkpt lat="34.6109943" lon="8.9705607"><ele>387.0</ele><time>2026-05-01T08:52:35.459Z</time></trkpt><trkpt lat="34.6111528" lon="8.9707014"><ele>387.0</ele><time>2026-05-01T08:52:36.452Z</time></trkpt><trkpt lat="34.6113051" lon="8.9708364"><ele>387.0</ele><time>2026-05-01T08:52:37.462Z</time></trkpt><trkpt lat="34.6114624" lon="8.9709734"><ele>386.66666666666663</ele><time>2026-05-01T08:52:38.446Z</time></trkpt><trkpt lat="34.6116164" lon="8.971112"><ele>386.3333333333333</ele><time>2026-05-01T08:52:39.437Z</time></trkpt><trkpt lat="34.6117675" lon="8.9712509"><ele>386.0</ele><time>2026-05-01T08:52:40.467Z</time></trkpt><trkpt lat="34.6119186" lon="8.9713884"><ele>387.0</ele><time>2026-05-01T08:52:41.471Z</time></trkpt><trkpt lat="34.6120742" lon="8.9715253"><ele>388.0</ele><time>2026-05-01T08:52:42.465Z</time></trkpt><trkpt lat="34.6122253" lon="8.9716639"><ele>389.0</ele><time>2026-05-01T08:52:43.462Z</time></trkpt><trkpt lat="34.6123807" lon="8.9717997"><ele>389.0</ele><time>2026-05-01T08:52:44.453Z</time></trkpt><trkpt lat="34.6125358" lon="8.9719317"><ele>389.0</ele><time>2026-05-01T08:52:45.472Z</time></trkpt><trkpt lat="34.6126912" lon="8.9720746"><ele>389.0</ele><time>2026-05-01T08:52:46.427Z</time></trkpt><trkpt lat="34.6128479" lon="8.9722114"><ele>389.0</ele><time>2026-05-01T08:52:47.464Z</time></trkpt><trkpt lat="34.6129997" lon="8.972349"><ele>389.0</ele><time>2026-05-01T08:52:48.45Z</time></trkpt><trkpt lat="34.6131515" lon="8.9724869"><ele>389.0</ele><time>2026-05-01T08:52:49.465Z</time></trkpt><trkpt lat="34.6133022" lon="8.9726168"><ele>389.0</ele><time>2026-05-01T08:52:50.475Z</time></trkpt><trkpt lat="34.6134567" lon="8.9727535"><ele>389.0</ele><time>2026-05-01T08:52:51.462Z</time></trkpt><trkpt lat="34.6136136" lon="8.972893"><ele>389.0</ele><time>2026-05-01T08:52:52.453Z</time></trkpt><trkpt lat="34.613771" lon="8.9730337"><ele>389.0</ele><time>2026-05-01T08:52:53.47Z</time></trkpt><trkpt lat="34.6139272" lon="8.9731748"><ele>389.0</ele><time>2026-05-01T08:52:54.431Z</time></trkpt><trkpt lat="34.6140855" lon="8.9733158"><ele>389.0</ele><time>2026-05-01T08:52:55.466Z</time></trkpt><trkpt lat="34.6142439" lon="8.9734537"><ele>389.66666666666663</ele><time>2026-05-01T08:52:56.469Z</time></trkpt><trkpt lat="34.6144004" lon="8.9735839"><ele>390.33333333333337</ele><time>2026-05-01T08:52:57.455Z</time></trkpt><trkpt lat="34.6145582" lon="8.973719"><ele>391.0</ele><time>2026-05-01T08:52:58.44Z</time></trkpt><trkpt lat="34.6147094" lon="8.9738514"><ele>391.33333333333337</ele><time>2026-05-01T08:52:59.459Z</time></trkpt><trkpt lat="34.6148635" lon="8.9739902"><ele>391.66666666666663</ele><time>2026-05-01T08:53:00.474Z</time></trkpt><trkpt lat="34.6150188" lon="8.9741299"><ele>392.0</ele><time>2026-05-01T08:53:01.455Z</time></trkpt><trkpt lat="34.6151781" lon="8.974267"><ele>392.0</ele><time>2026-05-01T08:53:02.467Z</time></trkpt><trkpt lat="34.615336" lon="8.9744056"><ele>392.0</ele><time>2026-05-01T08:53:03.466Z</time></trkpt><trkpt lat="34.6154849" lon="8.9745455"><ele>392.0</ele><time>2026-05-01T08:53:04.486Z</time></trkpt><trkpt lat="34.6156404" lon="8.974687"><ele>392.0</ele><time>2026-05-01T08:53:05.454Z</time></trkpt><trkpt lat="34.6157935" lon="8.9748251"><ele>392.0</ele><time>2026-05-01T08:53:06.478Z</time></trkpt><trkpt lat="34.6159478" lon="8.9749596"><ele>392.0</ele><time>2026-05-01T08:53:07.459Z</time></trkpt><trkpt lat="34.616099" lon="8.9750986"><ele>392.66666666666663</ele><time>2026-05-01T08:53:08.481Z</time></trkpt><trkpt lat="34.6162534" lon="8.9752374"><ele>393.33333333333337</ele><time>2026-05-01T08:53:09.479Z</time></trkpt><trkpt lat="34.6164089" lon="8.975377"><ele>394.0</ele><time>2026-05-01T08:53:10.466Z</time></trkpt><trkpt lat="34.6165629" lon="8.9755122"><ele>394.0</ele><time>2026-05-01T08:53:11.439Z</time></trkpt><trkpt lat="34.6167169" lon="8.9756506"><ele>394.0</ele><time>2026-05-01T08:53:12.436Z</time></trkpt><trkpt lat="34.6168701" lon="8.9757843"><ele>394.0</ele><time>2026-05-01T08:53:13.481Z</time></trkpt><trkpt lat="34.6170314" lon="8.9759235"><ele>394.33333333333337</ele><time>2026-05-01T08:53:14.475Z</time></trkpt><trkpt lat="34.6171888" lon="8.9760566"><ele>394.66666666666663</ele><time>2026-05-01T08:53:15.457Z</time></trkpt><trkpt lat="34.6173407" lon="8.9761913"><ele>395.0</ele><time>2026-05-01T08:53:16.484Z</time></trkpt><trkpt lat="34.6174896" lon="8.9763288"><ele>395.0</ele><time>2026-05-01T08:53:17.451Z</time></trkpt><trkpt lat="34.6176453" lon="8.9764649"><ele>395.0</ele><time>2026-05-01T08:53:18.466Z</time></trkpt><trkpt lat="34.6178018" lon="8.9766024"><ele>395.0</ele><time>2026-05-01T08:53:19.464Z</time></trkpt><trkpt lat="34.6179572" lon="8.9767427"><ele>395.0</ele><time>2026-05-01T08:53:20.473Z</time></trkpt><trkpt lat="34.618116" lon="8.9768825"><ele>395.0</ele><time>2026-05-01T08:53:21.457Z</time></trkpt><trkpt lat="34.6182688" lon="8.9770235"><ele>395.0</ele><time>2026-05-01T08:53:22.467Z</time></trkpt><trkpt lat="34.6184234" lon="8.977162"><ele>395.0</ele><time>2026-05-01T08:53:23.473Z</time></trkpt><trkpt lat="34.6185792" lon="8.9773017"><ele>395.0</ele><time>2026-05-01T08:53:24.473Z</time></trkpt><trkpt lat="34.6187299" lon="8.977441"><ele>395.0</ele><time>2026-05-01T08:53:25.482Z</time></trkpt><trkpt lat="34.6188833" lon="8.9775806"><ele>394.66666666666663</ele><time>2026-05-01T08:53:26.452Z</time></trkpt><trkpt lat="34.6190361" lon="8.9777176"><ele>394.33333333333337</ele><time>2026-05-01T08:53:27.467Z</time></trkpt><trkpt lat="34.619191" lon="8.9778528"><ele>394.0</ele><time>2026-05-01T08:53:28.444Z</time></trkpt><trkpt lat="34.6193477" lon="8.9779891"><ele>394.0</ele><time>2026-05-01T08:53:29.427Z</time></trkpt><trkpt lat="34.6195062" lon="8.9781242"><ele>394.0</ele><time>2026-05-01T08:53:30.478Z</time></trkpt><trkpt lat="34.6196625" lon="8.9782614"><ele>394.0</ele><time>2026-05-01T08:53:31.467Z</time></trkpt><trkpt lat="34.6198158" lon="8.9784053"><ele>394.6666666666667</ele><time>2026-05-01T08:53:32.465Z</time></trkpt><trkpt lat="34.619971" lon="8.9785464"><ele>395.33333333333337</ele><time>2026-05-01T08:53:33.48Z</time></trkpt><trkpt lat="34.6201283" lon="8.9786825"><ele>396.0</ele><time>2026-05-01T08:53:34.47Z</time></trkpt><trkpt lat="34.6202853" lon="8.9788184"><ele>396.0</ele><time>2026-05-01T08:53:35.467Z</time></trkpt><trkpt lat="34.6204417" lon="8.9789544"><ele>396.0</ele><time>2026-05-01T08:53:36.469Z</time></trkpt><trkpt lat="34.6205969" lon="8.9790911"><ele>396.0</ele><time>2026-05-01T08:53:37.416Z</time></trkpt><trkpt lat="34.6207493" lon="8.9792278"><ele>396.0</ele><time>2026-05-01T08:53:38.453Z</time></trkpt><trkpt lat="34.6209021" lon="8.9793617"><ele>396.0</ele><time>2026-05-01T08:53:39.463Z</time></trkpt><trkpt lat="34.6210579" lon="8.9795006"><ele>396.0</ele><time>2026-05-01T08:53:40.468Z</time></trkpt><trkpt lat="34.6212148" lon="8.9796383"><ele>396.33333333333337</ele><time>2026-05-01T08:53:41.457Z</time></trkpt><trkpt lat="34.6213694" lon="8.9797827"><ele>396.6666666666667</ele><time>2026-05-01T08:53:42.409Z</time></trkpt><trkpt lat="34.6215265" lon="8.9799289"><ele>397.0</ele><time>2026-05-01T08:53:43.474Z</time></trkpt><trkpt lat="34.6216872" lon="8.9800682"><ele>397.33333333333337</ele><time>2026-05-01T08:53:44.472Z</time></trkpt><trkpt lat="34.6218442" lon="8.9802056"><ele>397.66666666666663</ele><time>2026-05-01T08:53:45.478Z</time></trkpt><trkpt lat="34.6220015" lon="8.9803447"><ele>398.0</ele><time>2026-05-01T08:53:46.458Z</time></trkpt><trkpt lat="34.6221583" lon="8.9804822"><ele>397.66666666666663</ele><time>2026-05-01T08:53:47.442Z</time></trkpt><trkpt lat="34.6223126" lon="8.9806234"><ele>397.33333333333337</ele><time>2026-05-01T08:53:48.469Z</time></trkpt><trkpt lat="34.6224679" lon="8.9807668"><ele>397.0</ele><time>2026-05-01T08:53:49.454Z</time></trkpt><trkpt lat="34.6226256" lon="8.9809149"><ele>397.0</ele><time>2026-05-01T08:53:50.449Z</time></trkpt><trkpt lat="34.622784" lon="8.9810581"><ele>397.0</ele><time>2026-05-01T08:53:51.469Z</time></trkpt><trkpt lat="34.622946" lon="8.9812022"><ele>397.0</ele><time>2026-05-01T08:53:52.465Z</time></trkpt><trkpt lat="34.6231021" lon="8.9813412"><ele>397.33333333333337</ele><time>2026-05-01T08:53:53.471Z</time></trkpt><trkpt lat="34.6232612" lon="8.9814778"><ele>397.66666666666663</ele><time>2026-05-01T08:53:54.427Z</time></trkpt><trkpt lat="34.6234203" lon="8.9816205"><ele>398.0</ele><time>2026-05-01T08:53:55.415Z</time></trkpt><trkpt lat="34.623584" lon="8.9817601"><ele>398.66666666666663</ele><time>2026-05-01T08:53:56.441Z</time></trkpt><trkpt lat="34.6237432" lon="8.9818974"><ele>399.33333333333337</ele><time>2026-05-01T08:53:57.474Z</time></trkpt><trkpt lat="34.6238979" lon="8.9820398"><ele>400.0</ele><time>2026-05-01T08:53:58.456Z</time></trkpt><trkpt lat="34.6240548" lon="8.982179"><ele>400.0</ele><time>2026-05-01T08:53:59.44Z</time></trkpt><trkpt lat="34.6242152" lon="8.9823178"><ele>400.0</ele><time>2026-05-01T08:54:00.474Z</time></trkpt><trkpt lat="34.6243797" lon="8.982464"><ele>400.0</ele><time>2026-05-01T08:54:01.456Z</time></trkpt><trkpt lat="34.624542" lon="8.9826052"><ele>400.6666666666667</ele><time>2026-05-01T08:54:02.477Z</time></trkpt><trkpt lat="34.6247002" lon="8.98275"><ele>401.33333333333337</ele><time>2026-05-01T08:54:03.452Z</time></trkpt><trkpt lat="34.6248585" lon="8.9828926"><ele>402.0</ele><time>2026-05-01T08:54:04.464Z</time></trkpt><trkpt lat="34.6250188" lon="8.9830315"><ele>402.0</ele><time>2026-05-01T08:54:05.464Z</time></trkpt><trkpt lat="34.6251759" lon="8.9831753"><ele>402.0</ele><time>2026-05-01T08:54:06.474Z</time></trkpt><trkpt lat="34.6253354" lon="8.983313"><ele>402.0</ele><time>2026-05-01T08:54:07.428Z</time></trkpt><trkpt lat="34.6254907" lon="8.9834512"><ele>402.0</ele><time>2026-05-01T08:54:08.454Z</time></trkpt><trkpt lat="34.6256469" lon="8.9835887"><ele>402.0</ele><time>2026-05-01T08:54:09.461Z</time></trkpt><trkpt lat="34.6258021" lon="8.9837314"><ele>402.0</ele><time>2026-05-01T08:54:10.474Z</time></trkpt><trkpt lat="34.625964" lon="8.9838742"><ele>402.0</ele><time>2026-05-01T08:54:11.47Z</time></trkpt><trkpt lat="34.6261191" lon="8.9840229"><ele>402.0</ele><time>2026-05-01T08:54:12.465Z</time></trkpt><trkpt lat="34.6262735" lon="8.9841684"><ele>402.0</ele><time>2026-05-01T08:54:13.478Z</time></trkpt><trkpt lat="34.6264298" lon="8.9843154"><ele>402.33333333333337</ele><time>2026-05-01T08:54:14.446Z</time></trkpt><trkpt lat="34.6265876" lon="8.9844634"><ele>402.6666666666667</ele><time>2026-05-01T08:54:15.465Z</time></trkpt><trkpt lat="34.6267445" lon="8.9846107"><ele>403.0</ele><time>2026-05-01T08:54:16.467Z</time></trkpt><trkpt lat="34.6269023" lon="8.9847579"><ele>403.6666666666667</ele><time>2026-05-01T08:54:17.468Z</time></trkpt><trkpt lat="34.6270593" lon="8.9849028"><ele>404.33333333333337</ele><time>2026-05-01T08:54:18.459Z</time></trkpt><trkpt lat="34.6272159" lon="8.9850436"><ele>405.0</ele><time>2026-05-01T08:54:19.477Z</time></trkpt><trkpt lat="34.6273789" lon="8.9851847"><ele>405.0</ele><time>2026-05-01T08:54:20.474Z</time></trkpt><trkpt lat="34.6275381" lon="8.9853283"><ele>405.0</ele><time>2026-05-01T08:54:21.482Z</time></trkpt><trkpt lat="34.6276954" lon="8.9854681"><ele>405.0</ele><time>2026-05-01T08:54:22.487Z</time></trkpt><trkpt lat="34.627851" lon="8.9856164"><ele>404.66666666666663</ele><time>2026-05-01T08:54:23.468Z</time></trkpt><trkpt lat="34.6280086" lon="8.9857578"><ele>404.3333333333333</ele><time>2026-05-01T08:54:24.485Z</time></trkpt><trkpt lat="34.6281667" lon="8.9859043"><ele>404.0</ele><time>2026-05-01T08:54:25.483Z</time></trkpt><trkpt lat="34.628323" lon="8.9860494"><ele>403.66666666666663</ele><time>2026-05-01T08:54:26.45Z</time></trkpt><trkpt lat="34.6284756" lon="8.9861989"><ele>403.33333333333337</ele><time>2026-05-01T08:54:27.464Z</time></trkpt><trkpt lat="34.6286302" lon="8.9863414"><ele>403.0</ele><time>2026-05-01T08:54:28.471Z</time></trkpt><trkpt lat="34.6287773" lon="8.9864796"><ele>403.0</ele><time>2026-05-01T08:54:29.46Z</time></trkpt><trkpt lat="34.6289203" lon="8.9866098"><ele>403.0</ele><time>2026-05-01T08:54:30.468Z</time></trkpt><trkpt lat="34.6290625" lon="8.9867415"><ele>403.0</ele><time>2026-05-01T08:54:31.472Z</time></trkpt><trkpt lat="34.6292072" lon="8.9868819"><ele>402.6666666666667</ele><time>2026-05-01T08:54:32.475Z</time></trkpt><trkpt lat="34.629361" lon="8.9870239"><ele>402.33333333333337</ele><time>2026-05-01T08:54:33.471Z</time></trkpt><trkpt lat="34.6295227" lon="8.9871674"><ele>402.0</ele><time>2026-05-01T08:54:34.469Z</time></trkpt><trkpt lat="34.6296869" lon="8.987313"><ele>402.0</ele><time>2026-05-01T08:54:35.461Z</time></trkpt><trkpt lat="34.6298438" lon="8.9874663"><ele>402.0</ele><time>2026-05-01T08:54:36.46Z</time></trkpt><trkpt lat="34.6299996" lon="8.9876131"><ele>402.0</ele><time>2026-05-01T08:54:37.472Z</time></trkpt><trkpt lat="34.6301536" lon="8.9877625"><ele>402.0</ele><time>2026-05-01T08:54:38.44Z</time></trkpt><trkpt lat="34.6303074" lon="8.9879084"><ele>402.0</ele><time>2026-05-01T08:54:39.437Z</time></trkpt><trkpt lat="34.6304605" lon="8.9880547"><ele>402.0</ele><time>2026-05-01T08:54:40.471Z</time></trkpt><trkpt lat="34.6306131" lon="8.9882072"><ele>402.66666666666663</ele><time>2026-05-01T08:54:41.472Z</time></trkpt><trkpt lat="34.6307624" lon="8.988366"><ele>403.3333333333333</ele><time>2026-05-01T08:54:42.467Z</time></trkpt><trkpt lat="34.6309082" lon="8.9885239"><ele>404.0</ele><time>2026-05-01T08:54:43.423Z</time></trkpt><trkpt lat="34.6310563" lon="8.9886844"><ele>404.66666666666663</ele><time>2026-05-01T08:54:44.439Z</time></trkpt><trkpt lat="34.631197" lon="8.988853"><ele>405.33333333333337</ele><time>2026-05-01T08:54:45.471Z</time></trkpt><trkpt lat="34.6313399" lon="8.9890228"><ele>406.0</ele><time>2026-05-01T08:54:46.456Z</time></trkpt><trkpt lat="34.6314822" lon="8.9891916"><ele>406.0</ele><time>2026-05-01T08:54:47.466Z</time></trkpt><trkpt lat="34.6316211" lon="8.989358"><ele>406.0</ele><time>2026-05-01T08:54:48.465Z</time></trkpt><trkpt lat="34.6317596" lon="8.9895258"><ele>406.0</ele><time>2026-05-01T08:54:49.441Z</time></trkpt><trkpt lat="34.6318936" lon="8.9896937"><ele>406.0</ele><time>2026-05-01T08:54:50.482Z</time></trkpt><trkpt lat="34.632029" lon="8.9898643"><ele>406.0</ele><time>2026-05-01T08:54:51.469Z</time></trkpt><trkpt lat="34.6321699" lon="8.9900387"><ele>406.0</ele><time>2026-05-01T08:54:52.429Z</time></trkpt><trkpt lat="34.6323085" lon="8.9902095"><ele>405.6666666666667</ele><time>2026-05-01T08:54:53.466Z</time></trkpt><trkpt lat="34.6324499" lon="8.9903811"><ele>405.33333333333337</ele><time>2026-05-01T08:54:54.442Z</time></trkpt><trkpt lat="34.6325902" lon="8.9905498"><ele>405.0</ele><time>2026-05-01T08:54:55.437Z</time></trkpt><trkpt lat="34.6327274" lon="8.9907188"><ele>404.66666666666663</ele><time>2026-05-01T08:54:56.476Z</time></trkpt><trkpt lat="34.6328656" lon="8.9908808"><ele>404.3333333333333</ele><time>2026-05-01T08:54:57.466Z</time></trkpt><trkpt lat="34.6330029" lon="8.9910508"><ele>404.0</ele><time>2026-05-01T08:54:58.485Z</time></trkpt><trkpt lat="34.6331407" lon="8.991223"><ele>404.0</ele><time>2026-05-01T08:54:59.462Z</time></trkpt><trkpt lat="34.6332786" lon="8.9913972"><ele>404.0</ele><time>2026-05-01T08:55:00.477Z</time></trkpt><trkpt lat="34.6334153" lon="8.991566"><ele>404.0</ele><time>2026-05-01T08:55:01.455Z</time></trkpt><trkpt lat="34.6335563" lon="8.9917366"><ele>404.3333333333333</ele><time>2026-05-01T08:55:02.461Z</time></trkpt><trkpt lat="34.6336949" lon="8.9919077"><ele>404.66666666666663</ele><time>2026-05-01T08:55:03.457Z</time></trkpt><trkpt lat="34.6338358" lon="8.9920769"><ele>405.0</ele><time>2026-05-01T08:55:04.47Z</time></trkpt><trkpt lat="34.6339781" lon="8.9922445"><ele>405.0</ele><time>2026-05-01T08:55:05.468Z</time></trkpt><trkpt lat="34.6341175" lon="8.992416"><ele>405.0</ele><time>2026-05-01T08:55:06.468Z</time></trkpt><trkpt lat="34.6342544" lon="8.9925856"><ele>405.0</ele><time>2026-05-01T08:55:07.472Z</time></trkpt><trkpt lat="34.634394" lon="8.9927567"><ele>406.0</ele><time>2026-05-01T08:55:08.479Z</time></trkpt><trkpt lat="34.63453" lon="8.9929327"><ele>407.0</ele><time>2026-05-01T08:55:09.458Z</time></trkpt><trkpt lat="34.6346669" lon="8.9931025"><ele>408.0</ele><time>2026-05-01T08:55:10.465Z</time></trkpt><trkpt lat="34.6348041" lon="8.9932665"><ele>408.0</ele><time>2026-05-01T08:55:11.469Z</time></trkpt><trkpt lat="34.6349413" lon="8.9934363"><ele>408.0</ele><time>2026-05-01T08:55:12.481Z</time></trkpt><trkpt lat="34.6350778" lon="8.9936023"><ele>408.0</ele><time>2026-05-01T08:55:13.457Z</time></trkpt><trkpt lat="34.6352137" lon="8.9937739"><ele>408.33333333333337</ele><time>2026-05-01T08:55:14.475Z</time></trkpt><trkpt lat="34.6353516" lon="8.9939434"><ele>408.6666666666667</ele><time>2026-05-01T08:55:15.457Z</time></trkpt><trkpt lat="34.6354881" lon="8.9941126"><ele>409.0</ele><time>2026-05-01T08:55:16.457Z</time></trkpt><trkpt lat="34.6356287" lon="8.9942777"><ele>409.33333333333337</ele><time>2026-05-01T08:55:17.449Z</time></trkpt><trkpt lat="34.6357721" lon="8.9944402"><ele>409.66666666666663</ele><time>2026-05-01T08:55:18.453Z</time></trkpt><trkpt lat="34.6359186" lon="8.9946039"><ele>410.0</ele><time>2026-05-01T08:55:19.448Z</time></trkpt><trkpt lat="34.6360661" lon="8.9947645"><ele>410.0</ele><time>2026-05-01T08:55:20.453Z</time></trkpt><trkpt lat="34.6362101" lon="8.994922"><ele>410.0</ele><time>2026-05-01T08:55:21.453Z</time></trkpt><trkpt lat="34.6363612" lon="8.9950797"><ele>410.0</ele><time>2026-05-01T08:55:22.457Z</time></trkpt><trkpt lat="34.6365135" lon="8.9952381"><ele>410.0</ele><time>2026-05-01T08:55:23.468Z</time></trkpt><trkpt lat="34.6366628" lon="8.9953973"><ele>410.0</ele><time>2026-05-01T08:55:24.476Z</time></trkpt><trkpt lat="34.6368091" lon="8.9955532"><ele>410.0</ele><time>2026-05-01T08:55:25.439Z</time></trkpt><trkpt lat="34.6369605" lon="8.9957072"><ele>410.3333333333333</ele><time>2026-05-01T08:55:26.474Z</time></trkpt><trkpt lat="34.6371074" lon="8.9958612"><ele>410.66666666666663</ele><time>2026-05-01T08:55:27.459Z</time></trkpt><trkpt lat="34.6372532" lon="8.9960169"><ele>411.0</ele><time>2026-05-01T08:55:28.476Z</time></trkpt><trkpt lat="34.6373961" lon="8.9961592"><ele>411.0</ele><time>2026-05-01T08:55:29.466Z</time></trkpt><trkpt lat="34.6375355" lon="8.9963055"><ele>411.0</ele><time>2026-05-01T08:55:30.44Z</time></trkpt><trkpt lat="34.63768" lon="8.9964532"><ele>411.0</ele><time>2026-05-01T08:55:31.458Z</time></trkpt><trkpt lat="34.6378309" lon="8.9966068"><ele>411.33333333333337</ele><time>2026-05-01T08:55:32.438Z</time></trkpt><trkpt lat="34.6379841" lon="8.9967594"><ele>411.6666666666667</ele><time>2026-05-01T08:55:33.458Z</time></trkpt><trkpt lat="34.6381338" lon="8.9969197"><ele>412.0</ele><time>2026-05-01T08:55:34.472Z</time></trkpt><trkpt lat="34.638289" lon="8.9970842"><ele>412.0</ele><time>2026-05-01T08:55:35.453Z</time></trkpt><trkpt lat="34.6384413" lon="8.9972422"><ele>412.0</ele><time>2026-05-01T08:55:36.459Z</time></trkpt><trkpt lat="34.6385872" lon="8.997395"><ele>412.0</ele><time>2026-05-01T08:55:37.451Z</time></trkpt><trkpt lat="34.6387365" lon="8.9975498"><ele>410.6666666666667</ele><time>2026-05-01T08:55:38.442Z</time></trkpt><trkpt lat="34.6388885" lon="8.9977012"><ele>409.33333333333337</ele><time>2026-05-01T08:55:39.461Z</time></trkpt><trkpt lat="34.6390343" lon="8.9978621"><ele>408.0</ele><time>2026-05-01T08:55:40.466Z</time></trkpt><trkpt lat="34.6391814" lon="8.9980124"><ele>408.0</ele><time>2026-05-01T08:55:41.478Z</time></trkpt><trkpt lat="34.6393321" lon="8.9981663"><ele>408.0</ele><time>2026-05-01T08:55:42.454Z</time></trkpt><trkpt lat="34.63948" lon="8.9983271"><ele>408.0</ele><time>2026-05-01T08:55:43.467Z</time></trkpt><trkpt lat="34.639629" lon="8.9984838"><ele>409.66666666666663</ele><time>2026-05-01T08:55:44.434Z</time></trkpt><trkpt lat="34.6397746" lon="8.9986401"><ele>411.3333333333333</ele><time>2026-05-01T08:55:45.462Z</time></trkpt><trkpt lat="34.6399227" lon="8.9987964"><ele>413.0</ele><time>2026-05-01T08:55:46.457Z</time></trkpt><trkpt lat="34.6400678" lon="8.9989516"><ele>413.0</ele><time>2026-05-01T08:55:47.46Z</time></trkpt><trkpt lat="34.6402184" lon="8.9991066"><ele>413.0</ele><time>2026-05-01T08:55:48.459Z</time></trkpt><trkpt lat="34.6403684" lon="8.9992674"><ele>413.0</ele><time>2026-05-01T08:55:49.475Z</time></trkpt><trkpt lat="34.6405192" lon="8.9994214"><ele>412.0</ele><time>2026-05-01T08:55:50.473Z</time></trkpt><trkpt lat="34.6406709" lon="8.9995781"><ele>411.0</ele><time>2026-05-01T08:55:51.474Z</time></trkpt><trkpt lat="34.6408221" lon="8.9997326"><ele>410.0</ele><time>2026-05-01T08:55:52.451Z</time></trkpt><trkpt lat="34.6409699" lon="8.9998851"><ele>410.0</ele><time>2026-05-01T08:55:53.47Z</time></trkpt><trkpt lat="34.6411205" lon="9.0000472"><ele>410.0</ele><time>2026-05-01T08:55:54.484Z</time></trkpt><trkpt lat="34.6412691" lon="9.0002038"><ele>410.0</ele><time>2026-05-01T08:55:55.428Z</time></trkpt><trkpt lat="34.6414189" lon="9.0003547"><ele>410.66666666666663</ele><time>2026-05-01T08:55:56.445Z</time></trkpt><trkpt lat="34.6415664" lon="9.000508"><ele>411.33333333333337</ele><time>2026-05-01T08:55:57.458Z</time></trkpt><trkpt lat="34.6417182" lon="9.0006747"><ele>412.0</ele><time>2026-05-01T08:55:58.462Z</time></trkpt><trkpt lat="34.6418739" lon="9.0008445"><ele>412.6666666666667</ele><time>2026-05-01T08:55:59.468Z</time></trkpt><trkpt lat="34.6420379" lon="9.0010134"><ele>413.33333333333337</ele><time>2026-05-01T08:56:00.444Z</time></trkpt><trkpt lat="34.6422048" lon="9.0011947"><ele>414.0</ele><time>2026-05-01T08:56:01.469Z</time></trkpt><trkpt lat="34.6423691" lon="9.0013649"><ele>414.0</ele><time>2026-05-01T08:56:02.46Z</time></trkpt><trkpt lat="34.6425389" lon="9.0015427"><ele>414.0</ele><time>2026-05-01T08:56:03.47Z</time></trkpt><trkpt lat="34.642714" lon="9.0017151"><ele>414.0</ele><time>2026-05-01T08:56:04.468Z</time></trkpt><trkpt lat="34.642887" lon="9.0018868"><ele>413.0</ele><time>2026-05-01T08:56:05.467Z</time></trkpt><trkpt lat="34.643052" lon="9.0020588"><ele>412.0</ele><time>2026-05-01T08:56:06.439Z</time></trkpt><trkpt lat="34.6432104" lon="9.0022264"><ele>411.0</ele><time>2026-05-01T08:56:07.474Z</time></trkpt><trkpt lat="34.6433732" lon="9.0023921"><ele>411.0</ele><time>2026-05-01T08:56:08.432Z</time></trkpt><trkpt lat="34.6435325" lon="9.0025617"><ele>411.0</ele><time>2026-05-01T08:56:09.421Z</time></trkpt><trkpt lat="34.6436932" lon="9.0027278"><ele>411.0</ele><time>2026-05-01T08:56:10.45Z</time></trkpt><trkpt lat="34.6438529" lon="9.0028957"><ele>411.0</ele><time>2026-05-01T08:56:11.466Z</time></trkpt><trkpt lat="34.6440096" lon="9.0030635"><ele>411.0</ele><time>2026-05-01T08:56:12.42Z</time></trkpt><trkpt lat="34.6441641" lon="9.0032327"><ele>411.0</ele><time>2026-05-01T08:56:13.478Z</time></trkpt><trkpt lat="34.6443212" lon="9.0033929"><ele>410.66666666666663</ele><time>2026-05-01T08:56:14.431Z</time></trkpt><trkpt lat="34.6444809" lon="9.0035506"><ele>410.3333333333333</ele><time>2026-05-01T08:56:15.458Z</time></trkpt><trkpt lat="34.6446308" lon="9.0037123"><ele>410.0</ele><time>2026-05-01T08:56:16.453Z</time></trkpt><trkpt lat="34.6447799" lon="9.0038716"><ele>410.0</ele><time>2026-05-01T08:56:17.467Z</time></trkpt><trkpt lat="34.644927" lon="9.0040307"><ele>410.0</ele><time>2026-05-01T08:56:18.462Z</time></trkpt><trkpt lat="34.6450736" lon="9.0041849"><ele>410.0</ele><time>2026-05-01T08:56:19.455Z</time></trkpt><trkpt lat="34.6452206" lon="9.0043394"><ele>409.3333333333333</ele><time>2026-05-01T08:56:20.476Z</time></trkpt><trkpt lat="34.645373" lon="9.004502"><ele>408.66666666666663</ele><time>2026-05-01T08:56:21.436Z</time></trkpt><trkpt lat="34.6455238" lon="9.0046611"><ele>408.0</ele><time>2026-05-01T08:56:22.474Z</time></trkpt><trkpt lat="34.6456738" lon="9.0048217"><ele>408.0</ele><time>2026-05-01T08:56:23.439Z</time></trkpt><trkpt lat="34.6458286" lon="9.0049811"><ele>408.0</ele><time>2026-05-01T08:56:24.469Z</time></trkpt><trkpt lat="34.6459814" lon="9.0051351"><ele>408.0</ele><time>2026-05-01T08:56:25.447Z</time></trkpt><trkpt lat="34.6461285" lon="9.0052893"><ele>408.66666666666663</ele><time>2026-05-01T08:56:26.458Z</time></trkpt><trkpt lat="34.6462769" lon="9.0054464"><ele>409.3333333333333</ele><time>2026-05-01T08:56:27.467Z</time></trkpt><trkpt lat="34.6464276" lon="9.0056047"><ele>410.0</ele><time>2026-05-01T08:56:28.46Z</time></trkpt><trkpt lat="34.6465794" lon="9.0057597"><ele>410.3333333333333</ele><time>2026-05-01T08:56:29.462Z</time></trkpt><trkpt lat="34.6467289" lon="9.0059209"><ele>410.66666666666663</ele><time>2026-05-01T08:56:30.44Z</time></trkpt><trkpt lat="34.6468821" lon="9.0060789"><ele>411.0</ele><time>2026-05-01T08:56:31.452Z</time></trkpt><trkpt lat="34.6470334" lon="9.0062351"><ele>411.33333333333337</ele><time>2026-05-01T08:56:32.469Z</time></trkpt><trkpt lat="34.6471838" lon="9.0063933"><ele>411.6666666666667</ele><time>2026-05-01T08:56:33.468Z</time></trkpt><trkpt lat="34.6473369" lon="9.0065544"><ele>412.0</ele><time>2026-05-01T08:56:34.458Z</time></trkpt><trkpt lat="34.6474877" lon="9.0067176"><ele>412.0</ele><time>2026-05-01T08:56:35.466Z</time></trkpt><trkpt lat="34.6476376" lon="9.0068755"><ele>412.0</ele><time>2026-05-01T08:56:36.466Z</time></trkpt><trkpt lat="34.6477861" lon="9.0070254"><ele>412.0</ele><time>2026-05-01T08:56:37.461Z</time></trkpt><trkpt lat="34.647939" lon="9.0071876"><ele>412.0</ele><time>2026-05-01T08:56:38.442Z</time></trkpt><trkpt lat="34.6480874" lon="9.0073408"><ele>412.0</ele><time>2026-05-01T08:56:39.459Z</time></trkpt><trkpt lat="34.6482311" lon="9.0075029"><ele>412.0</ele><time>2026-05-01T08:56:40.456Z</time></trkpt><trkpt lat="34.6483841" lon="9.0076586"><ele>412.0</ele><time>2026-05-01T08:56:41.493Z</time></trkpt><trkpt lat="34.6485348" lon="9.0078127"><ele>412.0</ele><time>2026-05-01T08:56:42.46Z</time></trkpt><trkpt lat="34.6486855" lon="9.0079754"><ele>412.0</ele><time>2026-05-01T08:56:43.475Z</time></trkpt><trkpt lat="34.6488375" lon="9.0081359"><ele>412.0</ele><time>2026-05-01T08:56:44.431Z</time></trkpt><trkpt lat="34.6489879" lon="9.0082926"><ele>412.0</ele><time>2026-05-01T08:56:45.457Z</time></trkpt><trkpt lat="34.6491386" lon="9.0084534"><ele>412.0</ele><time>2026-05-01T08:56:46.464Z</time></trkpt><trkpt lat="34.6492919" lon="9.0086155"><ele>412.33333333333337</ele><time>2026-05-01T08:56:47.445Z</time></trkpt><trkpt lat="34.6494395" lon="9.0087722"><ele>412.66666666666663</ele><time>2026-05-01T08:56:48.455Z</time></trkpt><trkpt lat="34.6495914" lon="9.0089288"><ele>413.0</ele><time>2026-05-01T08:56:49.49Z</time></trkpt><trkpt lat="34.6497448" lon="9.0090843"><ele>413.0</ele><time>2026-05-01T08:56:50.436Z</time></trkpt><trkpt lat="34.6498961" lon="9.0092338"><ele>413.0</ele><time>2026-05-01T08:56:51.438Z</time></trkpt><trkpt lat="34.6500426" lon="9.0093928"><ele>413.0</ele><time>2026-05-01T08:56:52.413Z</time></trkpt><trkpt lat="34.6501939" lon="9.0095501"><ele>413.0</ele><time>2026-05-01T08:56:53.461Z</time></trkpt><trkpt lat="34.6503486" lon="9.0097129"><ele>413.0</ele><time>2026-05-01T08:56:54.442Z</time></trkpt><trkpt lat="34.6504994" lon="9.009874"><ele>413.0</ele><time>2026-05-01T08:56:55.467Z</time></trkpt><trkpt lat="34.6506473" lon="9.0100299"><ele>413.3333333333333</ele><time>2026-05-01T08:56:56.457Z</time></trkpt><trkpt lat="34.6508002" lon="9.0101888"><ele>413.66666666666663</ele><time>2026-05-01T08:56:57.471Z</time></trkpt><trkpt lat="34.6509495" lon="9.0103434"><ele>414.0</ele><time>2026-05-01T08:56:58.464Z</time></trkpt><trkpt lat="34.6511073" lon="9.0105069"><ele>414.33333333333337</ele><time>2026-05-01T08:56:59.475Z</time></trkpt><trkpt lat="34.6512605" lon="9.0106678"><ele>414.6666666666667</ele><time>2026-05-01T08:57:00.468Z</time></trkpt><trkpt lat="34.6514144" lon="9.0108293"><ele>415.0</ele><time>2026-05-01T08:57:01.464Z</time></trkpt><trkpt lat="34.6515687" lon="9.0109892"><ele>415.33333333333337</ele><time>2026-05-01T08:57:02.453Z</time></trkpt><trkpt lat="34.6517222" lon="9.011144"><ele>415.66666666666663</ele><time>2026-05-01T08:57:03.418Z</time></trkpt><trkpt lat="34.6518764" lon="9.0113019"><ele>416.0</ele><time>2026-05-01T08:57:04.415Z</time></trkpt><trkpt lat="34.6520226" lon="9.0114559"><ele>416.0</ele><time>2026-05-01T08:57:05.415Z</time></trkpt><trkpt lat="34.6521679" lon="9.0116161"><ele>416.0</ele><time>2026-05-01T08:57:06.456Z</time></trkpt><trkpt lat="34.6523172" lon="9.0117775"><ele>416.0</ele><time>2026-05-01T08:57:07.471Z</time></trkpt><trkpt lat="34.6524639" lon="9.0119337"><ele>416.3333333333333</ele><time>2026-05-01T08:57:08.468Z</time></trkpt><trkpt lat="34.652614" lon="9.0120909"><ele>416.66666666666663</ele><time>2026-05-01T08:57:09.469Z</time></trkpt><trkpt lat="34.6527642" lon="9.0122463"><ele>417.0</ele><time>2026-05-01T08:57:10.462Z</time></trkpt><trkpt lat="34.6529163" lon="9.012405"><ele>417.33333333333337</ele><time>2026-05-01T08:57:11.472Z</time></trkpt><trkpt lat="34.6530692" lon="9.0125644"><ele>417.6666666666667</ele><time>2026-05-01T08:57:12.458Z</time></trkpt><trkpt lat="34.6532182" lon="9.0127167"><ele>418.0</ele><time>2026-05-01T08:57:13.474Z</time></trkpt><trkpt lat="34.6533691" lon="9.0128742"><ele>418.0</ele><time>2026-05-01T08:57:14.467Z</time></trkpt><trkpt lat="34.6535171" lon="9.0130344"><ele>418.0</ele><time>2026-05-01T08:57:15.461Z</time></trkpt><trkpt lat="34.653671" lon="9.013192"><ele>418.0</ele><time>2026-05-01T08:57:16.472Z</time></trkpt><trkpt lat="34.6538232" lon="9.0133492"><ele>418.33333333333337</ele><time>2026-05-01T08:57:17.468Z</time></trkpt><trkpt lat="34.6539696" lon="9.0135055"><ele>418.66666666666663</ele><time>2026-05-01T08:57:18.468Z</time></trkpt><trkpt lat="34.6541149" lon="9.0136645"><ele>419.0</ele><time>2026-05-01T08:57:19.463Z</time></trkpt><trkpt lat="34.6542624" lon="9.0138232"><ele>419.0</ele><time>2026-05-01T08:57:20.474Z</time></trkpt><trkpt lat="34.6544123" lon="9.0139823"><ele>419.0</ele><time>2026-05-01T08:57:21.464Z</time></trkpt><trkpt lat="34.6545637" lon="9.0141423"><ele>419.0</ele><time>2026-05-01T08:57:22.469Z</time></trkpt><trkpt lat="34.6547124" lon="9.0142985"><ele>419.3333333333333</ele><time>2026-05-01T08:57:23.471Z</time></trkpt><trkpt lat="34.6548632" lon="9.0144598"><ele>419.66666666666663</ele><time>2026-05-01T08:57:24.468Z</time></trkpt><trkpt lat="34.655014" lon="9.0146146"><ele>420.0</ele><time>2026-05-01T08:57:25.446Z</time></trkpt><trkpt lat="34.6551625" lon="9.0147685"><ele>420.0</ele><time>2026-05-01T08:57:26.49Z</time></trkpt><trkpt lat="34.6553159" lon="9.014923"><ele>420.0</ele><time>2026-05-01T08:57:27.484Z</time></trkpt><trkpt lat="34.655465" lon="9.0150805"><ele>420.0</ele><time>2026-05-01T08:57:28.462Z</time></trkpt><trkpt lat="34.6556185" lon="9.0152404"><ele>420.33333333333337</ele><time>2026-05-01T08:57:29.455Z</time></trkpt><trkpt lat="34.6557693" lon="9.0154027"><ele>420.6666666666667</ele><time>2026-05-01T08:57:30.456Z</time></trkpt><trkpt lat="34.6559202" lon="9.0155608"><ele>421.0</ele><time>2026-05-01T08:57:31.462Z</time></trkpt><trkpt lat="34.6560711" lon="9.0157258"><ele>421.33333333333337</ele><time>2026-05-01T08:57:32.473Z</time></trkpt><trkpt lat="34.6562218" lon="9.0158829"><ele>421.66666666666663</ele><time>2026-05-01T08:57:33.461Z</time></trkpt><trkpt lat="34.6563779" lon="9.0160429"><ele>422.0</ele><time>2026-05-01T08:57:34.469Z</time></trkpt><trkpt lat="34.65653" lon="9.0161991"><ele>422.0</ele><time>2026-05-01T08:57:35.47Z</time></trkpt><trkpt lat="34.6566804" lon="9.0163598"><ele>422.0</ele><time>2026-05-01T08:57:36.472Z</time></trkpt><trkpt lat="34.6568328" lon="9.0165184"><ele>422.0</ele><time>2026-05-01T08:57:37.465Z</time></trkpt><trkpt lat="34.6569841" lon="9.0166719"><ele>421.3333333333333</ele><time>2026-05-01T08:57:38.455Z</time></trkpt><trkpt lat="34.657136" lon="9.0168252"><ele>420.66666666666663</ele><time>2026-05-01T08:57:39.464Z</time></trkpt><trkpt lat="34.6572886" lon="9.0169852"><ele>420.0</ele><time>2026-05-01T08:57:40.466Z</time></trkpt><trkpt lat="34.6574437" lon="9.0171446"><ele>420.0</ele><time>2026-05-01T08:57:41.464Z</time></trkpt><trkpt lat="34.6575912" lon="9.0172994"><ele>420.0</ele><time>2026-05-01T08:57:42.472Z</time></trkpt><trkpt lat="34.6577423" lon="9.0174587"><ele>420.0</ele><time>2026-05-01T08:57:43.463Z</time></trkpt><trkpt lat="34.6578959" lon="9.0176185"><ele>419.66666666666663</ele><time>2026-05-01T08:57:44.467Z</time></trkpt><trkpt lat="34.6580474" lon="9.0177798"><ele>419.3333333333333</ele><time>2026-05-01T08:57:45.435Z</time></trkpt><trkpt lat="34.6582002" lon="9.0179356"><ele>419.0</ele><time>2026-05-01T08:57:46.45Z</time></trkpt><trkpt lat="34.6583501" lon="9.0180903"><ele>419.0</ele><time>2026-05-01T08:57:47.456Z</time></trkpt><trkpt lat="34.6585042" lon="9.01825"><ele>419.0</ele><time>2026-05-01T08:57:48.477Z</time></trkpt><trkpt lat="34.6586551" lon="9.0184009"><ele>419.0</ele><time>2026-05-01T08:57:49.465Z</time></trkpt><trkpt lat="34.6588034" lon="9.0185531"><ele>419.66666666666663</ele><time>2026-05-01T08:57:50.456Z</time></trkpt><trkpt lat="34.6589605" lon="9.0187064"><ele>420.33333333333337</ele><time>2026-05-01T08:57:51.454Z</time></trkpt><trkpt lat="34.6591116" lon="9.0188587"><ele>421.0</ele><time>2026-05-01T08:57:52.443Z</time></trkpt><trkpt lat="34.6592665" lon="9.01901"><ele>421.33333333333337</ele><time>2026-05-01T08:57:53.463Z</time></trkpt><trkpt lat="34.6594261" lon="9.019155"><ele>421.66666666666663</ele><time>2026-05-01T08:57:54.466Z</time></trkpt><trkpt lat="34.6595865" lon="9.0193056"><ele>422.0</ele><time>2026-05-01T08:57:55.483Z</time></trkpt><trkpt lat="34.6597485" lon="9.0194403"><ele>422.0</ele><time>2026-05-01T08:57:56.451Z</time></trkpt><trkpt lat="34.6599136" lon="9.019578"><ele>422.0</ele><time>2026-05-01T08:57:57.48Z</time></trkpt><trkpt lat="34.660079" lon="9.019708"><ele>422.0</ele><time>2026-05-01T08:57:58.473Z</time></trkpt><trkpt lat="34.6602533" lon="9.0198328"><ele>422.0</ele><time>2026-05-01T08:57:59.472Z</time></trkpt><trkpt lat="34.6604268" lon="9.0199459"><ele>422.0</ele><time>2026-05-01T08:58:00.48Z</time></trkpt><trkpt lat="34.6606053" lon="9.0200502"><ele>422.0</ele><time>2026-05-01T08:58:01.452Z</time></trkpt><trkpt lat="34.6607863" lon="9.0201483"><ele>422.66666666666663</ele><time>2026-05-01T08:58:02.464Z</time></trkpt><trkpt lat="34.6609709" lon="9.0202449"><ele>423.33333333333337</ele><time>2026-05-01T08:58:03.461Z</time></trkpt><trkpt lat="34.6611524" lon="9.0203456"><ele>424.0</ele><time>2026-05-01T08:58:04.472Z</time></trkpt><trkpt lat="34.661333" lon="9.0204441"><ele>424.33333333333337</ele><time>2026-05-01T08:58:05.464Z</time></trkpt><trkpt lat="34.6615156" lon="9.0205414"><ele>424.66666666666663</ele><time>2026-05-01T08:58:06.471Z</time></trkpt><trkpt lat="34.6617004" lon="9.0206339"><ele>425.0</ele><time>2026-05-01T08:58:07.478Z</time></trkpt><trkpt lat="34.6618867" lon="9.0207292"><ele>423.66666666666663</ele><time>2026-05-01T08:58:08.425Z</time></trkpt><trkpt lat="34.6620682" lon="9.0208238"><ele>422.33333333333337</ele><time>2026-05-01T08:58:09.467Z</time></trkpt><trkpt lat="34.6622482" lon="9.0209233"><ele>421.0</ele><time>2026-05-01T08:58:10.467Z</time></trkpt><trkpt lat="34.6624275" lon="9.0210148"><ele>421.0</ele><time>2026-05-01T08:58:11.455Z</time></trkpt><trkpt lat="34.66261" lon="9.0211144"><ele>421.0</ele><time>2026-05-01T08:58:12.468Z</time></trkpt><trkpt lat="34.6627925" lon="9.0212139"><ele>421.0</ele><time>2026-05-01T08:58:13.464Z</time></trkpt><trkpt lat="34.6629755" lon="9.021311"><ele>422.33333333333337</ele><time>2026-05-01T08:58:14.446Z</time></trkpt><trkpt lat="34.6631597" lon="9.021412"><ele>423.66666666666663</ele><time>2026-05-01T08:58:15.471Z</time></trkpt><trkpt lat="34.6633423" lon="9.021512"><ele>425.0</ele><time>2026-05-01T08:58:16.466Z</time></trkpt><trkpt lat="34.6635251" lon="9.0216143"><ele>425.3333333333333</ele><time>2026-05-01T08:58:17.47Z</time></trkpt><trkpt lat="34.6637063" lon="9.021711"><ele>425.66666666666663</ele><time>2026-05-01T08:58:18.472Z</time></trkpt><trkpt lat="34.6638894" lon="9.0218083"><ele>426.0</ele><time>2026-05-01T08:58:19.468Z</time></trkpt><trkpt lat="34.6640672" lon="9.0219043"><ele>426.0</ele><time>2026-05-01T08:58:20.452Z</time></trkpt><trkpt lat="34.6642502" lon="9.0220044"><ele>426.0</ele><time>2026-05-01T08:58:21.456Z</time></trkpt><trkpt lat="34.6644376" lon="9.0221017"><ele>426.0</ele><time>2026-05-01T08:58:22.474Z</time></trkpt><trkpt lat="34.6646193" lon="9.0221966"><ele>425.33333333333337</ele><time>2026-05-01T08:58:23.464Z</time></trkpt><trkpt lat="34.6648012" lon="9.0222939"><ele>424.6666666666667</ele><time>2026-05-01T08:58:24.435Z</time></trkpt><trkpt lat="34.6649803" lon="9.0223983"><ele>424.0</ele><time>2026-05-01T08:58:25.447Z</time></trkpt><trkpt lat="34.6651579" lon="9.0225049"><ele>424.33333333333337</ele><time>2026-05-01T08:58:26.436Z</time></trkpt><trkpt lat="34.6653371" lon="9.0226127"><ele>424.66666666666663</ele><time>2026-05-01T08:58:27.475Z</time></trkpt><trkpt lat="34.6655135" lon="9.022722"><ele>425.0</ele><time>2026-05-01T08:58:28.478Z</time></trkpt><trkpt lat="34.6656859" lon="9.0228299"><ele>425.0</ele><time>2026-05-01T08:58:29.47Z</time></trkpt><trkpt lat="34.6658623" lon="9.0229396"><ele>425.0</ele><time>2026-05-01T08:58:30.462Z</time></trkpt><trkpt lat="34.6660413" lon="9.0230479"><ele>425.0</ele><time>2026-05-01T08:58:31.457Z</time></trkpt><trkpt lat="34.6662203" lon="9.0231549"><ele>425.0</ele><time>2026-05-01T08:58:32.464Z</time></trkpt><trkpt lat="34.6664006" lon="9.0232654"><ele>425.0</ele><time>2026-05-01T08:58:33.484Z</time></trkpt><trkpt lat="34.6665792" lon="9.0233712"><ele>425.0</ele><time>2026-05-01T08:58:34.466Z</time></trkpt><trkpt lat="34.6667585" lon="9.0234801"><ele>424.66666666666663</ele><time>2026-05-01T08:58:35.472Z</time></trkpt><trkpt lat="34.666938" lon="9.0235862"><ele>424.33333333333337</ele><time>2026-05-01T08:58:36.449Z</time></trkpt><trkpt lat="34.6671112" lon="9.0236854"><ele>424.0</ele><time>2026-05-01T08:58:37.458Z</time></trkpt><trkpt lat="34.6672845" lon="9.0237945"><ele>424.6666666666667</ele><time>2026-05-01T08:58:38.448Z</time></trkpt><trkpt lat="34.6674676" lon="9.0239115"><ele>425.33333333333337</ele><time>2026-05-01T08:58:39.464Z</time></trkpt><trkpt lat="34.6676487" lon="9.0240222"><ele>426.0</ele><time>2026-05-01T08:58:40.47Z</time></trkpt><trkpt lat="34.6678262" lon="9.0241362"><ele>427.0</ele><time>2026-05-01T08:58:41.441Z</time></trkpt><trkpt lat="34.6680084" lon="9.0242405"><ele>428.0</ele><time>2026-05-01T08:58:42.465Z</time></trkpt><trkpt lat="34.6681895" lon="9.0243481"><ele>429.0</ele><time>2026-05-01T08:58:43.461Z</time></trkpt><trkpt lat="34.6683661" lon="9.024451"><ele>429.0</ele><time>2026-05-01T08:58:44.462Z</time></trkpt><trkpt lat="34.6685442" lon="9.0245547"><ele>429.0</ele><time>2026-05-01T08:58:45.445Z</time></trkpt><trkpt lat="34.6687248" lon="9.024664"><ele>429.0</ele><time>2026-05-01T08:58:46.442Z</time></trkpt><trkpt lat="34.668905" lon="9.0247696"><ele>429.0</ele><time>2026-05-01T08:58:47.45Z</time></trkpt><trkpt lat="34.6690825" lon="9.0248754"><ele>429.0</ele><time>2026-05-01T08:58:48.471Z</time></trkpt><trkpt lat="34.6692633" lon="9.0249764"><ele>429.0</ele><time>2026-05-01T08:58:49.463Z</time></trkpt><trkpt lat="34.6694456" lon="9.0250835"><ele>428.66666666666663</ele><time>2026-05-01T08:58:50.468Z</time></trkpt><trkpt lat="34.6696248" lon="9.0251889"><ele>428.3333333333333</ele><time>2026-05-01T08:58:51.435Z</time></trkpt><trkpt lat="34.6698055" lon="9.0252928"><ele>428.0</ele><time>2026-05-01T08:58:52.455Z</time></trkpt><trkpt lat="34.6699845" lon="9.0253959"><ele>428.0</ele><time>2026-05-01T08:58:53.463Z</time></trkpt><trkpt lat="34.6701643" lon="9.0254989"><ele>428.0</ele><time>2026-05-01T08:58:54.47Z</time></trkpt><trkpt lat="34.6703443" lon="9.025602"><ele>428.0</ele><time>2026-05-01T08:58:55.468Z</time></trkpt><trkpt lat="34.6705249" lon="9.0257026"><ele>428.0</ele><time>2026-05-01T08:58:56.468Z</time></trkpt><trkpt lat="34.6707067" lon="9.0258052"><ele>428.0</ele><time>2026-05-01T08:58:57.473Z</time></trkpt><trkpt lat="34.6708897" lon="9.0259109"><ele>428.0</ele><time>2026-05-01T08:58:58.468Z</time></trkpt><trkpt lat="34.6710729" lon="9.0260151"><ele>428.66666666666663</ele><time>2026-05-01T08:58:59.459Z</time></trkpt><trkpt lat="34.6712524" lon="9.0261222"><ele>429.33333333333337</ele><time>2026-05-01T08:59:00.427Z</time></trkpt><trkpt lat="34.6714307" lon="9.0262217"><ele>430.0</ele><time>2026-05-01T08:59:01.451Z</time></trkpt><trkpt lat="34.6716132" lon="9.0263258"><ele>430.0</ele><time>2026-05-01T08:59:02.469Z</time></trkpt><trkpt lat="34.6717946" lon="9.0264281"><ele>430.0</ele><time>2026-05-01T08:59:03.478Z</time></trkpt><trkpt lat="34.6719711" lon="9.0265292"><ele>430.0</ele><time>2026-05-01T08:59:04.431Z</time></trkpt><trkpt lat="34.6721508" lon="9.0266296"><ele>430.0</ele><time>2026-05-01T08:59:05.474Z</time></trkpt><trkpt lat="34.6723321" lon="9.0267324"><ele>430.0</ele><time>2026-05-01T08:59:06.466Z</time></trkpt><trkpt lat="34.6725152" lon="9.0268411"><ele>430.0</ele><time>2026-05-01T08:59:07.464Z</time></trkpt><trkpt lat="34.6726947" lon="9.0269489"><ele>430.6666666666667</ele><time>2026-05-01T08:59:08.469Z</time></trkpt><trkpt lat="34.6728764" lon="9.0270514"><ele>431.33333333333337</ele><time>2026-05-01T08:59:09.457Z</time></trkpt><trkpt lat="34.6730568" lon="9.0271557"><ele>432.0</ele><time>2026-05-01T08:59:10.469Z</time></trkpt><trkpt lat="34.6732374" lon="9.0272566"><ele>432.0</ele><time>2026-05-01T08:59:11.428Z</time></trkpt><trkpt lat="34.6734154" lon="9.0273568"><ele>432.0</ele><time>2026-05-01T08:59:12.468Z</time></trkpt><trkpt lat="34.6735955" lon="9.0274566"><ele>432.0</ele><time>2026-05-01T08:59:13.464Z</time></trkpt><trkpt lat="34.673778" lon="9.0275583"><ele>431.66666666666663</ele><time>2026-05-01T08:59:14.477Z</time></trkpt><trkpt lat="34.6739599" lon="9.0276638"><ele>431.3333333333333</ele><time>2026-05-01T08:59:15.459Z</time></trkpt><trkpt lat="34.6741421" lon="9.0277656"><ele>431.0</ele><time>2026-05-01T08:59:16.467Z</time></trkpt><trkpt lat="34.6743273" lon="9.0278713"><ele>431.3333333333333</ele><time>2026-05-01T08:59:17.441Z</time></trkpt><trkpt lat="34.6745103" lon="9.0279746"><ele>431.66666666666663</ele><time>2026-05-01T08:59:18.462Z</time></trkpt><trkpt lat="34.674687" lon="9.0280745"><ele>432.0</ele><time>2026-05-01T08:59:19.468Z</time></trkpt><trkpt lat="34.6748624" lon="9.02818"><ele>432.0</ele><time>2026-05-01T08:59:20.474Z</time></trkpt><trkpt lat="34.6750413" lon="9.0282824"><ele>432.0</ele><time>2026-05-01T08:59:21.475Z</time></trkpt><trkpt lat="34.6752223" lon="9.0283875"><ele>432.0</ele><time>2026-05-01T08:59:22.472Z</time></trkpt><trkpt lat="34.6754023" lon="9.0284944"><ele>432.33333333333337</ele><time>2026-05-01T08:59:23.463Z</time></trkpt><trkpt lat="34.6755841" lon="9.0286024"><ele>432.6666666666667</ele><time>2026-05-01T08:59:24.46Z</time></trkpt><trkpt lat="34.6757675" lon="9.0287047"><ele>433.0</ele><time>2026-05-01T08:59:25.459Z</time></trkpt><trkpt lat="34.6759482" lon="9.0288075"><ele>432.33333333333337</ele><time>2026-05-01T08:59:26.464Z</time></trkpt><trkpt lat="34.6761264" lon="9.028905"><ele>431.66666666666663</ele><time>2026-05-01T08:59:27.475Z</time></trkpt><trkpt lat="34.6763038" lon="9.0290088"><ele>431.0</ele><time>2026-05-01T08:59:28.486Z</time></trkpt><trkpt lat="34.6764803" lon="9.0291121"><ele>431.0</ele><time>2026-05-01T08:59:29.46Z</time></trkpt><trkpt lat="34.6766636" lon="9.0292112"><ele>431.0</ele><time>2026-05-01T08:59:30.469Z</time></trkpt><trkpt lat="34.676845" lon="9.0293147"><ele>431.0</ele><time>2026-05-01T08:59:31.471Z</time></trkpt><trkpt lat="34.6770259" lon="9.0294211"><ele>432.3333333333333</ele><time>2026-05-01T08:59:32.453Z</time></trkpt><trkpt lat="34.6772079" lon="9.0295289"><ele>433.66666666666663</ele><time>2026-05-01T08:59:33.467Z</time></trkpt><trkpt lat="34.6773862" lon="9.0296302"><ele>435.0</ele><time>2026-05-01T08:59:34.477Z</time></trkpt><trkpt lat="34.6775667" lon="9.0297358"><ele>435.0</ele><time>2026-05-01T08:59:35.467Z</time></trkpt><trkpt lat="34.6777411" lon="9.0298354"><ele>435.0</ele><time>2026-05-01T08:59:36.469Z</time></trkpt><trkpt lat="34.6779181" lon="9.0299408"><ele>435.0</ele><time>2026-05-01T08:59:37.465Z</time></trkpt><trkpt lat="34.6780961" lon="9.0300411"><ele>434.0</ele><time>2026-05-01T08:59:38.446Z</time></trkpt><trkpt lat="34.6782777" lon="9.0301473"><ele>433.0</ele><time>2026-05-01T08:59:39.462Z</time></trkpt><trkpt lat="34.678457" lon="9.0302524"><ele>432.0</ele><time>2026-05-01T08:59:40.451Z</time></trkpt><trkpt lat="34.6786375" lon="9.030353"><ele>432.0</ele><time>2026-05-01T08:59:41.45Z</time></trkpt><trkpt lat="34.6788191" lon="9.0304552"><ele>432.0</ele><time>2026-05-01T08:59:42.474Z</time></trkpt><trkpt lat="34.6790025" lon="9.0305574"><ele>432.0</ele><time>2026-05-01T08:59:43.471Z</time></trkpt><trkpt lat="34.6791816" lon="9.0306567"><ele>432.0</ele><time>2026-05-01T08:59:44.475Z</time></trkpt><trkpt lat="34.6793641" lon="9.0307573"><ele>432.0</ele><time>2026-05-01T08:59:45.434Z</time></trkpt><trkpt lat="34.6795434" lon="9.0308551"><ele>432.0</ele><time>2026-05-01T08:59:46.43Z</time></trkpt><trkpt lat="34.6797238" lon="9.0309567"><ele>432.0</ele><time>2026-05-01T08:59:47.46Z</time></trkpt><trkpt lat="34.6799053" lon="9.0310606"><ele>432.0</ele><time>2026-05-01T08:59:48.47Z</time></trkpt><trkpt lat="34.6800863" lon="9.0311659"><ele>432.0</ele><time>2026-05-01T08:59:49.473Z</time></trkpt><trkpt lat="34.6802687" lon="9.0312715"><ele>432.33333333333337</ele><time>2026-05-01T08:59:50.472Z</time></trkpt><trkpt lat="34.6804472" lon="9.0313791"><ele>432.6666666666667</ele><time>2026-05-01T08:59:51.462Z</time></trkpt><trkpt lat="34.6806244" lon="9.0314807"><ele>433.0</ele><time>2026-05-01T08:59:52.452Z</time></trkpt><trkpt lat="34.6808024" lon="9.0315828"><ele>432.6666666666667</ele><time>2026-05-01T08:59:53.442Z</time></trkpt><trkpt lat="34.6809841" lon="9.0316836"><ele>432.33333333333337</ele><time>2026-05-01T08:59:54.463Z</time></trkpt><trkpt lat="34.6811654" lon="9.0317923"><ele>432.0</ele><time>2026-05-01T08:59:55.473Z</time></trkpt><trkpt lat="34.6813478" lon="9.0318927"><ele>432.0</ele><time>2026-05-01T08:59:56.461Z</time></trkpt><trkpt lat="34.6815297" lon="9.0319969"><ele>432.0</ele><time>2026-05-01T08:59:57.476Z</time></trkpt><trkpt lat="34.681714" lon="9.0320998"><ele>432.0</ele><time>2026-05-01T08:59:58.47Z</time></trkpt><trkpt lat="34.6818957" lon="9.0322002"><ele>432.33333333333337</ele><time>2026-05-01T08:59:59.447Z</time></trkpt><trkpt lat="34.682077" lon="9.0323044"><ele>432.6666666666667</ele><time>2026-05-01T09:00:00.476Z</time></trkpt><trkpt lat="34.6822577" lon="9.0324109"><ele>433.0</ele><time>2026-05-01T09:00:01.468Z</time></trkpt><trkpt lat="34.6824351" lon="9.0325209"><ele>433.0</ele><time>2026-05-01T09:00:02.444Z</time></trkpt><trkpt lat="34.6826113" lon="9.0326285"><ele>433.0</ele><time>2026-05-01T09:00:03.462Z</time></trkpt><trkpt lat="34.6827937" lon="9.0327313"><ele>433.0</ele><time>2026-05-01T09:00:04.441Z</time></trkpt><trkpt lat="34.6829759" lon="9.0328305"><ele>432.6666666666667</ele><time>2026-05-01T09:00:05.461Z</time></trkpt><trkpt lat="34.6831561" lon="9.0329307"><ele>432.33333333333337</ele><time>2026-05-01T09:00:06.444Z</time></trkpt><trkpt lat="34.6833384" lon="9.033034"><ele>432.0</ele><time>2026-05-01T09:00:07.474Z</time></trkpt><trkpt lat="34.6835187" lon="9.0331374"><ele>432.33333333333337</ele><time>2026-05-01T09:00:08.463Z</time></trkpt><trkpt lat="34.6837031" lon="9.0332411"><ele>432.6666666666667</ele><time>2026-05-01T09:00:09.467Z</time></trkpt><trkpt lat="34.683884" lon="9.0333486"><ele>433.0</ele><time>2026-05-01T09:00:10.473Z</time></trkpt><trkpt lat="34.684065" lon="9.0334511"><ele>433.0</ele><time>2026-05-01T09:00:11.464Z</time></trkpt><trkpt lat="34.6842422" lon="9.0335573"><ele>433.0</ele><time>2026-05-01T09:00:12.434Z</time></trkpt><trkpt lat="34.6844211" lon="9.0336613"><ele>433.0</ele><time>2026-05-01T09:00:13.471Z</time></trkpt><trkpt lat="34.6845978" lon="9.0337631"><ele>433.0</ele><time>2026-05-01T09:00:14.472Z</time></trkpt><trkpt lat="34.6847778" lon="9.033866"><ele>433.0</ele><time>2026-05-01T09:00:15.464Z</time></trkpt><trkpt lat="34.6849612" lon="9.0339668"><ele>433.0</ele><time>2026-05-01T09:00:16.436Z</time></trkpt><trkpt lat="34.6851427" lon="9.0340701"><ele>433.33333333333337</ele><time>2026-05-01T09:00:17.45Z</time></trkpt><trkpt lat="34.6853247" lon="9.0341795"><ele>433.66666666666663</ele><time>2026-05-01T09:00:18.459Z</time></trkpt><trkpt lat="34.6855055" lon="9.0342844"><ele>434.0</ele><time>2026-05-01T09:00:19.424Z</time></trkpt><trkpt lat="34.685687" lon="9.0343861"><ele>434.0</ele><time>2026-05-01T09:00:20.454Z</time></trkpt><trkpt lat="34.6858701" lon="9.034493"><ele>434.0</ele><time>2026-05-01T09:00:21.456Z</time></trkpt><trkpt lat="34.6860468" lon="9.0345942"><ele>434.0</ele><time>2026-05-01T09:00:22.455Z</time></trkpt><trkpt lat="34.6862225" lon="9.0346934"><ele>433.3333333333333</ele><time>2026-05-01T09:00:23.454Z</time></trkpt><trkpt lat="34.6864005" lon="9.0347955"><ele>432.66666666666663</ele><time>2026-05-01T09:00:24.486Z</time></trkpt><trkpt lat="34.6865846" lon="9.0348916"><ele>432.0</ele><time>2026-05-01T09:00:25.477Z</time></trkpt><trkpt lat="34.6867651" lon="9.0349921"><ele>431.33333333333337</ele><time>2026-05-01T09:00:26.474Z</time></trkpt><trkpt lat="34.6869451" lon="9.0350927"><ele>430.6666666666667</ele><time>2026-05-01T09:00:27.445Z</time></trkpt><trkpt lat="34.6871228" lon="9.0351987"><ele>430.0</ele><time>2026-05-01T09:00:28.477Z</time></trkpt><trkpt lat="34.6872987" lon="9.0353029"><ele>430.0</ele><time>2026-05-01T09:00:29.477Z</time></trkpt><trkpt lat="34.6874763" lon="9.035406"><ele>430.0</ele><time>2026-05-01T09:00:30.452Z</time></trkpt><trkpt lat="34.687656" lon="9.0355034"><ele>430.0</ele><time>2026-05-01T09:00:31.461Z</time></trkpt><trkpt lat="34.6878377" lon="9.0356099"><ele>430.0</ele><time>2026-05-01T09:00:32.466Z</time></trkpt><trkpt lat="34.6880175" lon="9.0357143"><ele>430.0</ele><time>2026-05-01T09:00:33.48Z</time></trkpt><trkpt lat="34.6881994" lon="9.0358238"><ele>430.0</ele><time>2026-05-01T09:00:34.479Z</time></trkpt><trkpt lat="34.6883807" lon="9.035925"><ele>430.33333333333337</ele><time>2026-05-01T09:00:35.47Z</time></trkpt><trkpt lat="34.688564" lon="9.0360282"><ele>430.66666666666663</ele><time>2026-05-01T09:00:36.471Z</time></trkpt><trkpt lat="34.6887433" lon="9.0361298"><ele>431.0</ele><time>2026-05-01T09:00:37.463Z</time></trkpt><trkpt lat="34.6889242" lon="9.0362332"><ele>431.0</ele><time>2026-05-01T09:00:38.445Z</time></trkpt><trkpt lat="34.6891042" lon="9.0363344"><ele>431.0</ele><time>2026-05-01T09:00:39.472Z</time></trkpt><trkpt lat="34.6892864" lon="9.0364324"><ele>431.0</ele><time>2026-05-01T09:00:40.461Z</time></trkpt><trkpt lat="34.6894689" lon="9.0365338"><ele>432.3333333333333</ele><time>2026-05-01T09:00:41.482Z</time></trkpt><trkpt lat="34.6896498" lon="9.0366343"><ele>433.66666666666663</ele><time>2026-05-01T09:00:42.448Z</time></trkpt><trkpt lat="34.6898325" lon="9.0367382"><ele>435.0</ele><time>2026-05-01T09:00:43.452Z</time></trkpt><trkpt lat="34.69001" lon="9.036844"><ele>435.33333333333337</ele><time>2026-05-01T09:00:44.472Z</time></trkpt><trkpt lat="34.6901904" lon="9.0369469"><ele>435.6666666666667</ele><time>2026-05-01T09:00:45.466Z</time></trkpt><trkpt lat="34.6903727" lon="9.0370483"><ele>436.0</ele><time>2026-05-01T09:00:46.45Z</time></trkpt><trkpt lat="34.690549" lon="9.037151"><ele>436.33333333333337</ele><time>2026-05-01T09:00:47.45Z</time></trkpt><trkpt lat="34.6907261" lon="9.0372537"><ele>436.66666666666663</ele><time>2026-05-01T09:00:48.48Z</time></trkpt><trkpt lat="34.6909063" lon="9.037364"><ele>437.0</ele><time>2026-05-01T09:00:49.466Z</time></trkpt><trkpt lat="34.6910913" lon="9.0374678"><ele>437.0</ele><time>2026-05-01T09:00:50.466Z</time></trkpt><trkpt lat="34.6912929" lon="9.0375803"><ele>437.0</ele><time>2026-05-01T09:00:51.467Z</time></trkpt><trkpt lat="34.6914953" lon="9.0376994"><ele>437.0</ele><time>2026-05-01T09:00:52.442Z</time></trkpt><trkpt lat="34.6916993" lon="9.0378154"><ele>437.0</ele><time>2026-05-01T09:00:53.472Z</time></trkpt><trkpt lat="34.6919051" lon="9.0379303"><ele>437.0</ele><time>2026-05-01T09:00:54.466Z</time></trkpt><trkpt lat="34.6921106" lon="9.0380475"><ele>437.0</ele><time>2026-05-01T09:00:55.476Z</time></trkpt><trkpt lat="34.69232" lon="9.038166"><ele>437.0</ele><time>2026-05-01T09:00:56.472Z</time></trkpt><trkpt lat="34.6925273" lon="9.0382852"><ele>437.0</ele><time>2026-05-01T09:00:57.458Z</time></trkpt><trkpt lat="34.6927246" lon="9.0383984"><ele>437.0</ele><time>2026-05-01T09:00:58.471Z</time></trkpt><trkpt lat="34.6929047" lon="9.0385009"><ele>437.0</ele><time>2026-05-01T09:00:59.467Z</time></trkpt><trkpt lat="34.6930747" lon="9.0385999"><ele>437.0</ele><time>2026-05-01T09:01:00.44Z</time></trkpt><trkpt lat="34.6932296" lon="9.0386845"><ele>437.0</ele><time>2026-05-01T09:01:01.466Z</time></trkpt><trkpt lat="34.6933834" lon="9.0387715"><ele>437.0</ele><time>2026-05-01T09:01:02.454Z</time></trkpt><trkpt lat="34.6935294" lon="9.0388568"><ele>438.0</ele><time>2026-05-01T09:01:03.427Z</time></trkpt><trkpt lat="34.6936835" lon="9.0389456"><ele>439.0</ele><time>2026-05-01T09:01:04.468Z</time></trkpt><trkpt lat="34.6938431" lon="9.0390357"><ele>440.0</ele><time>2026-05-01T09:01:05.471Z</time></trkpt><trkpt lat="34.6940055" lon="9.0391341"><ele>440.0</ele><time>2026-05-01T09:01:06.476Z</time></trkpt><trkpt lat="34.6941752" lon="9.0392336"><ele>440.0</ele><time>2026-05-01T09:01:07.469Z</time></trkpt><trkpt lat="34.6943446" lon="9.0393321"><ele>440.0</ele><time>2026-05-01T09:01:08.456Z</time></trkpt><trkpt lat="34.6945128" lon="9.0394263"><ele>441.0</ele><time>2026-05-01T09:01:09.456Z</time></trkpt><trkpt lat="34.6946782" lon="9.039525"><ele>442.0</ele><time>2026-05-01T09:01:10.474Z</time></trkpt><trkpt lat="34.6948427" lon="9.0396205"><ele>443.0</ele><time>2026-05-01T09:01:11.476Z</time></trkpt><trkpt lat="34.6950038" lon="9.0397129"><ele>443.0</ele><time>2026-05-01T09:01:12.442Z</time></trkpt><trkpt lat="34.6951675" lon="9.0398054"><ele>443.0</ele><time>2026-05-01T09:01:13.472Z</time></trkpt><trkpt lat="34.6953372" lon="9.0398996"><ele>443.0</ele><time>2026-05-01T09:01:14.474Z</time></trkpt><trkpt lat="34.6955148" lon="9.0400003"><ele>442.66666666666663</ele><time>2026-05-01T09:01:15.477Z</time></trkpt><trkpt lat="34.6956927" lon="9.0401024"><ele>442.33333333333337</ele><time>2026-05-01T09:01:16.475Z</time></trkpt><trkpt lat="34.6958686" lon="9.0402058"><ele>442.0</ele><time>2026-05-01T09:01:17.415Z</time></trkpt><trkpt lat="34.6960399" lon="9.0403038"><ele>442.33333333333337</ele><time>2026-05-01T09:01:18.476Z</time></trkpt><trkpt lat="34.6962143" lon="9.0404029"><ele>442.66666666666663</ele><time>2026-05-01T09:01:19.442Z</time></trkpt><trkpt lat="34.6963894" lon="9.0404999"><ele>443.0</ele><time>2026-05-01T09:01:20.471Z</time></trkpt><trkpt lat="34.6965603" lon="9.0406058"><ele>443.0</ele><time>2026-05-01T09:01:21.459Z</time></trkpt><trkpt lat="34.6967316" lon="9.0407022"><ele>443.0</ele><time>2026-05-01T09:01:22.449Z</time></trkpt><trkpt lat="34.6969078" lon="9.0407936"><ele>443.0</ele><time>2026-05-01T09:01:23.43Z</time></trkpt><trkpt lat="34.6970802" lon="9.0408892"><ele>442.3333333333333</ele><time>2026-05-01T09:01:24.442Z</time></trkpt><trkpt lat="34.6972556" lon="9.0409827"><ele>441.66666666666663</ele><time>2026-05-01T09:01:25.462Z</time></trkpt><trkpt lat="34.6974323" lon="9.0410772"><ele>441.0</ele><time>2026-05-01T09:01:26.445Z</time></trkpt><trkpt lat="34.6976078" lon="9.0411787"><ele>441.66666666666663</ele><time>2026-05-01T09:01:27.456Z</time></trkpt><trkpt lat="34.6977764" lon="9.0412773"><ele>442.3333333333333</ele><time>2026-05-01T09:01:28.473Z</time></trkpt><trkpt lat="34.6979509" lon="9.0413818"><ele>443.0</ele><time>2026-05-01T09:01:29.443Z</time></trkpt><trkpt lat="34.6981227" lon="9.0414839"><ele>443.0</ele><time>2026-05-01T09:01:30.471Z</time></trkpt><trkpt lat="34.6982934" lon="9.0415885"><ele>443.0</ele><time>2026-05-01T09:01:31.462Z</time></trkpt><trkpt lat="34.698469" lon="9.0416884"><ele>443.0</ele><time>2026-05-01T09:01:32.47Z</time></trkpt><trkpt lat="34.6986454" lon="9.04179"><ele>441.3333333333333</ele><time>2026-05-01T09:01:33.465Z</time></trkpt><trkpt lat="34.6988194" lon="9.0418905"><ele>439.66666666666663</ele><time>2026-05-01T09:01:34.465Z</time></trkpt><trkpt lat="34.6989922" lon="9.0419849"><ele>438.0</ele><time>2026-05-01T09:01:35.476Z</time></trkpt><trkpt lat="34.6991688" lon="9.0420846"><ele>438.0</ele><time>2026-05-01T09:01:36.472Z</time></trkpt><trkpt lat="34.6993435" lon="9.042186"><ele>438.0</ele><time>2026-05-01T09:01:37.467Z</time></trkpt><trkpt lat="34.6995174" lon="9.0422868"><ele>438.0</ele><time>2026-05-01T09:01:38.457Z</time></trkpt><trkpt lat="34.6996883" lon="9.0423875"><ele>438.66666666666663</ele><time>2026-05-01T09:01:39.47Z</time></trkpt><trkpt lat="34.6998604" lon="9.0424874"><ele>439.3333333333333</ele><time>2026-05-01T09:01:40.478Z</time></trkpt><trkpt lat="34.7000335" lon="9.0425819"><ele>440.0</ele><time>2026-05-01T09:01:41.474Z</time></trkpt><trkpt lat="34.7002013" lon="9.0426738"><ele>441.3333333333333</ele><time>2026-05-01T09:01:42.444Z</time></trkpt><trkpt lat="34.7003567" lon="9.0427559"><ele>442.66666666666663</ele><time>2026-05-01T09:01:43.47Z</time></trkpt><trkpt lat="34.7004984" lon="9.0428407"><ele>444.0</ele><time>2026-05-01T09:01:44.438Z</time></trkpt><trkpt lat="34.7006302" lon="9.0429098"><ele>444.0</ele><time>2026-05-01T09:01:45.46Z</time></trkpt><trkpt lat="34.7007581" lon="9.0429814"><ele>444.0</ele><time>2026-05-01T09:01:46.477Z</time></trkpt><trkpt lat="34.7008758" lon="9.0430474"><ele>444.0</ele><time>2026-05-01T09:01:47.415Z</time></trkpt><trkpt lat="34.7009834" lon="9.0431073"><ele>444.0</ele><time>2026-05-01T09:01:48.448Z</time></trkpt><trkpt lat="34.7010901" lon="9.0431706"><ele>444.0</ele><time>2026-05-01T09:01:49.451Z</time></trkpt><trkpt lat="34.7011955" lon="9.0432285"><ele>444.0</ele><time>2026-05-01T09:01:50.463Z</time></trkpt><trkpt lat="34.7012983" lon="9.0432909"><ele>444.0</ele><time>2026-05-01T09:01:51.464Z</time></trkpt><trkpt lat="34.7014023" lon="9.0433521"><ele>444.0</ele><time>2026-05-01T09:01:52.44Z</time></trkpt><trkpt lat="34.7015075" lon="9.0434154"><ele>443.75</ele><time>2026-05-01T09:01:53.468Z</time></trkpt><trkpt lat="34.7016156" lon="9.0434782"><ele>443.5</ele><time>2026-05-01T09:01:54.472Z</time></trkpt><trkpt lat="34.7017289" lon="9.0435447"><ele>443.25</ele><time>2026-05-01T09:01:55.449Z</time></trkpt><trkpt lat="34.7018479" lon="9.0436147"><ele>443.0</ele><time>2026-05-01T09:01:56.473Z</time></trkpt><trkpt lat="34.7019696" lon="9.043689"><ele>443.0</ele><time>2026-05-01T09:01:57.458Z</time></trkpt><trkpt lat="34.7020966" lon="9.0437637"><ele>443.0</ele><time>2026-05-01T09:01:58.473Z</time></trkpt><trkpt lat="34.702223" lon="9.0438365"><ele>443.0</ele><time>2026-05-01T09:01:59.475Z</time></trkpt><trkpt lat="34.702352" lon="9.0439146"><ele>443.0</ele><time>2026-05-01T09:02:00.463Z</time></trkpt><trkpt lat="34.702484" lon="9.0439902"><ele>443.0</ele><time>2026-05-01T09:02:01.472Z</time></trkpt><trkpt lat="34.7026173" lon="9.044063"><ele>443.0</ele><time>2026-05-01T09:02:02.478Z</time></trkpt><trkpt lat="34.7027517" lon="9.0441428"><ele>443.0</ele><time>2026-05-01T09:02:03.466Z</time></trkpt><trkpt lat="34.7028902" lon="9.0442304"><ele>442.75</ele><time>2026-05-01T09:02:04.461Z</time></trkpt><trkpt lat="34.7030264" lon="9.0443096"><ele>442.5</ele><time>2026-05-01T09:02:05.471Z</time></trkpt><trkpt lat="34.7031503" lon="9.0443807"><ele>442.25</ele><time>2026-05-01T09:02:06.465Z</time></trkpt><trkpt lat="34.703269" lon="9.0444447"><ele>442.0</ele><time>2026-05-01T09:02:07.447Z</time></trkpt><trkpt lat="34.7033756" lon="9.0445059"><ele>442.00000000000006</ele><time>2026-05-01T09:02:08.471Z</time></trkpt><trkpt lat="34.7034665" lon="9.0445586"><ele>442.0</ele><time>2026-05-01T09:02:09.463Z</time></trkpt><trkpt lat="34.7035478" lon="9.0446066"><ele>442.0</ele><time>2026-05-01T09:02:10.464Z</time></trkpt><trkpt lat="34.7036207" lon="9.044645"><ele>442.0</ele><time>2026-05-01T09:02:11.437Z</time></trkpt><trkpt lat="34.7036887" lon="9.0446811"><ele>442.00000000000006</ele><time>2026-05-01T09:02:12.481Z</time></trkpt><trkpt lat="34.703759" lon="9.0447161"><ele>442.0</ele><time>2026-05-01T09:02:13.484Z</time></trkpt><trkpt lat="34.7038355" lon="9.0447604"><ele>442.40000000000003</ele><time>2026-05-01T09:02:14.496Z</time></trkpt><trkpt lat="34.7039201" lon="9.0448056"><ele>442.80000000000007</ele><time>2026-05-01T09:02:15.476Z</time></trkpt><trkpt lat="34.7040098" lon="9.0448556"><ele>443.2</ele><time>2026-05-01T09:02:16.446Z</time></trkpt><trkpt lat="34.7041016" lon="9.0449109"><ele>443.6</ele><time>2026-05-01T09:02:17.478Z</time></trkpt><trkpt lat="34.7041895" lon="9.044965"><ele>444.0</ele><time>2026-05-01T09:02:18.48Z</time></trkpt><trkpt lat="34.7042854" lon="9.0450174"><ele>444.1666666666667</ele><time>2026-05-01T09:02:19.427Z</time></trkpt><trkpt lat="34.7043733" lon="9.0450638"><ele>444.33333333333337</ele><time>2026-05-01T09:02:20.472Z</time></trkpt><trkpt lat="34.7044506" lon="9.0451044"><ele>444.5</ele><time>2026-05-01T09:02:21.468Z</time></trkpt><trkpt lat="34.7045174" lon="9.0451416"><ele>444.6666666666667</ele><time>2026-05-01T09:02:22.474Z</time></trkpt><trkpt lat="34.704628" lon="9.0452102"><ele>444.83333333333337</ele><time>2026-05-01T09:02:24.473Z</time></trkpt><trkpt lat="34.704689" lon="9.0452508"><ele>445.0</ele><time>2026-05-01T09:02:25.479Z</time></trkpt><trkpt lat="34.7047613" lon="9.0452933"><ele>445.2</ele><time>2026-05-01T09:02:26.472Z</time></trkpt><trkpt lat="34.7048391" lon="9.0453401"><ele>445.4</ele><time>2026-05-01T09:02:27.476Z</time></trkpt><trkpt lat="34.7049234" lon="9.0453973"><ele>445.6</ele><time>2026-05-01T09:02:28.462Z</time></trkpt><trkpt lat="34.7050193" lon="9.0454514"><ele>445.8</ele><time>2026-05-01T09:02:29.448Z</time></trkpt><trkpt lat="34.7051192" lon="9.0455077"><ele>446.0</ele><time>2026-05-01T09:02:30.441Z</time></trkpt><trkpt lat="34.7052296" lon="9.0455703"><ele>446.25</ele><time>2026-05-01T09:02:31.441Z</time></trkpt><trkpt lat="34.7053463" lon="9.0456438"><ele>446.5</ele><time>2026-05-01T09:02:32.466Z</time></trkpt><trkpt lat="34.7054739" lon="9.0457169"><ele>446.75</ele><time>2026-05-01T09:02:33.478Z</time></trkpt><trkpt lat="34.7056084" lon="9.0457966"><ele>447.0</ele><time>2026-05-01T09:02:34.468Z</time></trkpt><trkpt lat="34.7057406" lon="9.0458716"><ele>446.40000000000003</ele><time>2026-05-01T09:02:35.471Z</time></trkpt><trkpt lat="34.7058612" lon="9.0459405"><ele>445.80000000000007</ele><time>2026-05-01T09:02:36.471Z</time></trkpt><trkpt lat="34.705955" lon="9.0459868"><ele>445.2</ele><time>2026-05-01T09:02:37.469Z</time></trkpt><trkpt lat="34.7060324" lon="9.046028"><ele>444.6</ele><time>2026-05-01T09:02:38.455Z</time></trkpt><trkpt lat="34.7061005" lon="9.0460672"><ele>444.0</ele><time>2026-05-01T09:02:39.473Z</time></trkpt><trkpt lat="34.7061743" lon="9.046108"><ele>444.0</ele><time>2026-05-01T09:02:40.485Z</time></trkpt><trkpt lat="34.706255" lon="9.0461478"><ele>444.0</ele><time>2026-05-01T09:02:41.473Z</time></trkpt><trkpt lat="34.7063553" lon="9.046199"><ele>444.0</ele><time>2026-05-01T09:02:42.48Z</time></trkpt><trkpt lat="34.7064719" lon="9.0462652"><ele>444.0</ele><time>2026-05-01T09:02:43.458Z</time></trkpt><trkpt lat="34.7065975" lon="9.046347"><ele>444.0</ele><time>2026-05-01T09:02:44.45Z</time></trkpt><trkpt lat="34.7067396" lon="9.0464292"><ele>444.0</ele><time>2026-05-01T09:02:45.479Z</time></trkpt><trkpt lat="34.7068892" lon="9.0465172"><ele>444.0</ele><time>2026-05-01T09:02:46.444Z</time></trkpt><trkpt lat="34.7070493" lon="9.0466101"><ele>443.66666666666663</ele><time>2026-05-01T09:02:47.463Z</time></trkpt><trkpt lat="34.7072118" lon="9.0466987"><ele>443.3333333333333</ele><time>2026-05-01T09:02:48.432Z</time></trkpt><trkpt lat="34.707379" lon="9.0467831"><ele>443.0</ele><time>2026-05-01T09:02:49.46Z</time></trkpt><trkpt lat="34.7075436" lon="9.0468789"><ele>443.0</ele><time>2026-05-01T09:02:50.465Z</time></trkpt><trkpt lat="34.7077186" lon="9.0469898"><ele>443.0</ele><time>2026-05-01T09:02:51.472Z</time></trkpt><trkpt lat="34.7078891" lon="9.0471033"><ele>443.0</ele><time>2026-05-01T09:02:52.466Z</time></trkpt><trkpt lat="34.708056" lon="9.0472346"><ele>443.0</ele><time>2026-05-01T09:02:53.479Z</time></trkpt><trkpt lat="34.7082158" lon="9.0473671"><ele>443.0</ele><time>2026-05-01T09:02:54.434Z</time></trkpt><trkpt lat="34.7083819" lon="9.047514"><ele>443.0</ele><time>2026-05-01T09:02:55.465Z</time></trkpt><trkpt lat="34.7085355" lon="9.0476611"><ele>443.3333333333333</ele><time>2026-05-01T09:02:56.477Z</time></trkpt><trkpt lat="34.7086869" lon="9.0478119"><ele>443.66666666666663</ele><time>2026-05-01T09:02:57.468Z</time></trkpt><trkpt lat="34.7088368" lon="9.0479676"><ele>444.0</ele><time>2026-05-01T09:02:58.475Z</time></trkpt><trkpt lat="34.708988" lon="9.0481193"><ele>444.0</ele><time>2026-05-01T09:02:59.425Z</time></trkpt><trkpt lat="34.7091355" lon="9.0482781"><ele>444.0</ele><time>2026-05-01T09:03:00.438Z</time></trkpt><trkpt lat="34.7092926" lon="9.048442"><ele>444.0</ele><time>2026-05-01T09:03:01.427Z</time></trkpt><trkpt lat="34.7094477" lon="9.0486066"><ele>443.66666666666663</ele><time>2026-05-01T09:03:02.474Z</time></trkpt><trkpt lat="34.7096043" lon="9.048778"><ele>443.3333333333333</ele><time>2026-05-01T09:03:03.445Z</time></trkpt><trkpt lat="34.7097598" lon="9.0489404"><ele>443.0</ele><time>2026-05-01T09:03:04.454Z</time></trkpt><trkpt lat="34.709918" lon="9.0491022"><ele>443.66666666666663</ele><time>2026-05-01T09:03:05.467Z</time></trkpt><trkpt lat="34.7100759" lon="9.0492624"><ele>444.33333333333337</ele><time>2026-05-01T09:03:06.445Z</time></trkpt><trkpt lat="34.7102312" lon="9.0494232"><ele>445.0</ele><time>2026-05-01T09:03:07.48Z</time></trkpt><trkpt lat="34.7103861" lon="9.0495755"><ele>445.0</ele><time>2026-05-01T09:03:08.472Z</time></trkpt><trkpt lat="34.7105443" lon="9.0497313"><ele>445.0</ele><time>2026-05-01T09:03:09.473Z</time></trkpt><trkpt lat="34.7107043" lon="9.0498917"><ele>445.0</ele><time>2026-05-01T09:03:10.472Z</time></trkpt><trkpt lat="34.7108584" lon="9.0500533"><ele>445.0</ele><time>2026-05-01T09:03:11.45Z</time></trkpt><trkpt lat="34.7110132" lon="9.050212"><ele>445.0</ele><time>2026-05-01T09:03:12.475Z</time></trkpt><trkpt lat="34.7111731" lon="9.0503736"><ele>445.0</ele><time>2026-05-01T09:03:13.443Z</time></trkpt><trkpt lat="34.7113291" lon="9.0505323"><ele>445.0</ele><time>2026-05-01T09:03:14.447Z</time></trkpt><trkpt lat="34.7114874" lon="9.0506928"><ele>445.0</ele><time>2026-05-01T09:03:15.429Z</time></trkpt><trkpt lat="34.7116426" lon="9.0508508"><ele>445.0</ele><time>2026-05-01T09:03:16.458Z</time></trkpt><trkpt lat="34.7117999" lon="9.0510065"><ele>446.0</ele><time>2026-05-01T09:03:17.479Z</time></trkpt><trkpt lat="34.7119581" lon="9.0511596"><ele>447.0</ele><time>2026-05-01T09:03:18.442Z</time></trkpt><trkpt lat="34.7121171" lon="9.0513144"><ele>448.0</ele><time>2026-05-01T09:03:19.481Z</time></trkpt><trkpt lat="34.7122788" lon="9.0514691"><ele>448.0</ele><time>2026-05-01T09:03:20.441Z</time></trkpt><trkpt lat="34.7124401" lon="9.051626"><ele>448.0</ele><time>2026-05-01T09:03:21.453Z</time></trkpt><trkpt lat="34.7125984" lon="9.0517855"><ele>448.0</ele><time>2026-05-01T09:03:22.484Z</time></trkpt><trkpt lat="34.712752" lon="9.0519456"><ele>448.6666666666667</ele><time>2026-05-01T09:03:23.472Z</time></trkpt><trkpt lat="34.712906" lon="9.0521038"><ele>449.33333333333337</ele><time>2026-05-01T09:03:24.472Z</time></trkpt><trkpt lat="34.7130614" lon="9.0522618"><ele>450.0</ele><time>2026-05-01T09:03:25.468Z</time></trkpt><trkpt lat="34.7132173" lon="9.0524167"><ele>449.66666666666663</ele><time>2026-05-01T09:03:26.477Z</time></trkpt><trkpt lat="34.7133752" lon="9.0525811"><ele>449.3333333333333</ele><time>2026-05-01T09:03:27.441Z</time></trkpt><trkpt lat="34.7135322" lon="9.0527369"><ele>449.0</ele><time>2026-05-01T09:03:28.48Z</time></trkpt><trkpt lat="34.7136903" lon="9.052892"><ele>449.0</ele><time>2026-05-01T09:03:29.441Z</time></trkpt><trkpt lat="34.7138432" lon="9.0530481"><ele>449.0</ele><time>2026-05-01T09:03:30.47Z</time></trkpt><trkpt lat="34.7139957" lon="9.0532122"><ele>449.0</ele><time>2026-05-01T09:03:31.484Z</time></trkpt><trkpt lat="34.7141471" lon="9.0533772"><ele>449.3333333333333</ele><time>2026-05-01T09:03:32.468Z</time></trkpt><trkpt lat="34.7143015" lon="9.0535356"><ele>449.66666666666663</ele><time>2026-05-01T09:03:33.469Z</time></trkpt><trkpt lat="34.7144579" lon="9.0536965"><ele>450.0</ele><time>2026-05-01T09:03:34.461Z</time></trkpt><trkpt lat="34.714613" lon="9.0538653"><ele>450.33333333333337</ele><time>2026-05-01T09:03:35.477Z</time></trkpt><trkpt lat="34.7147712" lon="9.0540297"><ele>450.6666666666667</ele><time>2026-05-01T09:03:36.467Z</time></trkpt><trkpt lat="34.7149274" lon="9.0541886"><ele>451.0</ele><time>2026-05-01T09:03:37.462Z</time></trkpt><trkpt lat="34.7150834" lon="9.0543566"><ele>451.33333333333337</ele><time>2026-05-01T09:03:38.448Z</time></trkpt><trkpt lat="34.7152329" lon="9.0545242"><ele>451.66666666666663</ele><time>2026-05-01T09:03:39.485Z</time></trkpt><trkpt lat="34.7153798" lon="9.0547035"><ele>452.0</ele><time>2026-05-01T09:03:40.482Z</time></trkpt><trkpt lat="34.7155171" lon="9.0548878"><ele>451.3333333333333</ele><time>2026-05-01T09:03:41.473Z</time></trkpt><trkpt lat="34.7156496" lon="9.0550886"><ele>450.66666666666663</ele><time>2026-05-01T09:03:42.477Z</time></trkpt><trkpt lat="34.7157731" lon="9.0552948"><ele>450.0</ele><time>2026-05-01T09:03:43.443Z</time></trkpt><trkpt lat="34.7158814" lon="9.0555183"><ele>450.0</ele><time>2026-05-01T09:03:44.471Z</time></trkpt><trkpt lat="34.7159914" lon="9.0557395"><ele>450.0</ele><time>2026-05-01T09:03:45.464Z</time></trkpt><trkpt lat="34.7160932" lon="9.0559543"><ele>450.0</ele><time>2026-05-01T09:03:46.452Z</time></trkpt><trkpt lat="34.7161928" lon="9.0561791"><ele>449.66666666666663</ele><time>2026-05-01T09:03:47.45Z</time></trkpt><trkpt lat="34.7162936" lon="9.0564044"><ele>449.3333333333333</ele><time>2026-05-01T09:03:48.457Z</time></trkpt><trkpt lat="34.7163976" lon="9.056633"><ele>449.0</ele><time>2026-05-01T09:03:49.467Z</time></trkpt><trkpt lat="34.7165017" lon="9.0568612"><ele>449.0</ele><time>2026-05-01T09:03:50.463Z</time></trkpt><trkpt lat="34.7166074" lon="9.0570886"><ele>449.0</ele><time>2026-05-01T09:03:51.445Z</time></trkpt><trkpt lat="34.7167138" lon="9.0573136"><ele>449.0</ele><time>2026-05-01T09:03:52.443Z</time></trkpt><trkpt lat="34.7168234" lon="9.0575335"><ele>449.66666666666663</ele><time>2026-05-01T09:03:53.483Z</time></trkpt><trkpt lat="34.7169561" lon="9.0577344"><ele>450.33333333333337</ele><time>2026-05-01T09:03:54.451Z</time></trkpt><trkpt lat="34.7171008" lon="9.0579175"><ele>451.0</ele><time>2026-05-01T09:03:55.471Z</time></trkpt><trkpt lat="34.7172547" lon="9.0580852"><ele>451.0</ele><time>2026-05-01T09:03:56.461Z</time></trkpt><trkpt lat="34.7174179" lon="9.0582494"><ele>451.0</ele><time>2026-05-01T09:03:57.447Z</time></trkpt><trkpt lat="34.7175805" lon="9.0584033"><ele>451.0</ele><time>2026-05-01T09:03:58.472Z</time></trkpt><trkpt lat="34.717749" lon="9.0585548"><ele>450.6666666666667</ele><time>2026-05-01T09:03:59.455Z</time></trkpt><trkpt lat="34.7179238" lon="9.0587076"><ele>450.33333333333337</ele><time>2026-05-01T09:04:00.44Z</time></trkpt><trkpt lat="34.7180978" lon="9.0588562"><ele>450.0</ele><time>2026-05-01T09:04:01.47Z</time></trkpt><trkpt lat="34.7182759" lon="9.0590056"><ele>450.0</ele><time>2026-05-01T09:04:02.487Z</time></trkpt><trkpt lat="34.718461" lon="9.0591468"><ele>450.0</ele><time>2026-05-01T09:04:03.441Z</time></trkpt><trkpt lat="34.7186504" lon="9.059283"><ele>450.0</ele><time>2026-05-01T09:04:04.451Z</time></trkpt><trkpt lat="34.7188426" lon="9.0594142"><ele>450.0</ele><time>2026-05-01T09:04:05.478Z</time></trkpt><trkpt lat="34.7190356" lon="9.0595384"><ele>450.0</ele><time>2026-05-01T09:04:06.467Z</time></trkpt><trkpt lat="34.719231" lon="9.0596548"><ele>450.0</ele><time>2026-05-01T09:04:07.474Z</time></trkpt><trkpt lat="34.719423" lon="9.059768"><ele>451.0</ele><time>2026-05-01T09:04:08.477Z</time></trkpt><trkpt lat="34.7196213" lon="9.0598736"><ele>452.0</ele><time>2026-05-01T09:04:09.476Z</time></trkpt><trkpt lat="34.7198177" lon="9.059974"><ele>453.0</ele><time>2026-05-01T09:04:10.468Z</time></trkpt><trkpt lat="34.7200176" lon="9.0600649"><ele>453.0</ele><time>2026-05-01T09:04:11.462Z</time></trkpt><trkpt lat="34.7202133" lon="9.0601555"><ele>453.0</ele><time>2026-05-01T09:04:12.464Z</time></trkpt><trkpt lat="34.7204068" lon="9.0602471"><ele>453.0</ele><time>2026-05-01T09:04:13.464Z</time></trkpt><trkpt lat="34.7205981" lon="9.0603379"><ele>452.66666666666663</ele><time>2026-05-01T09:04:14.454Z</time></trkpt><trkpt lat="34.7207907" lon="9.0604275"><ele>452.3333333333333</ele><time>2026-05-01T09:04:15.452Z</time></trkpt><trkpt lat="34.7209791" lon="9.0605126"><ele>452.0</ele><time>2026-05-01T09:04:16.465Z</time></trkpt><trkpt lat="34.7211708" lon="9.0606"><ele>451.66666666666663</ele><time>2026-05-01T09:04:17.482Z</time></trkpt><trkpt lat="34.721359" lon="9.0606858"><ele>451.33333333333337</ele><time>2026-05-01T09:04:18.477Z</time></trkpt><trkpt lat="34.7215529" lon="9.0607744"><ele>451.0</ele><time>2026-05-01T09:04:19.464Z</time></trkpt><trkpt lat="34.7217446" lon="9.0608647"><ele>452.0</ele><time>2026-05-01T09:04:20.448Z</time></trkpt><trkpt lat="34.7219357" lon="9.0609534"><ele>453.0</ele><time>2026-05-01T09:04:21.452Z</time></trkpt><trkpt lat="34.7221178" lon="9.0610398"><ele>454.0</ele><time>2026-05-01T09:04:22.463Z</time></trkpt><trkpt lat="34.7222888" lon="9.0611267"><ele>454.0</ele><time>2026-05-01T09:04:23.456Z</time></trkpt><trkpt lat="34.722461" lon="9.061218"><ele>454.0</ele><time>2026-05-01T09:04:24.47Z</time></trkpt><trkpt lat="34.7226315" lon="9.0613118"><ele>454.0</ele><time>2026-05-01T09:04:25.474Z</time></trkpt><trkpt lat="34.7227994" lon="9.0614019"><ele>454.6666666666667</ele><time>2026-05-01T09:04:26.488Z</time></trkpt><trkpt lat="34.7229629" lon="9.0614863"><ele>455.33333333333337</ele><time>2026-05-01T09:04:27.469Z</time></trkpt><trkpt lat="34.7231185" lon="9.0615743"><ele>456.0</ele><time>2026-05-01T09:04:28.443Z</time></trkpt><trkpt lat="34.7232717" lon="9.0616588"><ele>456.0</ele><time>2026-05-01T09:04:29.464Z</time></trkpt><trkpt lat="34.7234267" lon="9.0617516"><ele>456.0</ele><time>2026-05-01T09:04:30.474Z</time></trkpt><trkpt lat="34.7235718" lon="9.0618356"><ele>456.0</ele><time>2026-05-01T09:04:31.465Z</time></trkpt><trkpt lat="34.7237123" lon="9.0619308"><ele>454.66666666666663</ele><time>2026-05-01T09:04:32.48Z</time></trkpt><trkpt lat="34.7238486" lon="9.0620354"><ele>453.3333333333333</ele><time>2026-05-01T09:04:33.438Z</time></trkpt><trkpt lat="34.72398" lon="9.062142"><ele>452.0</ele><time>2026-05-01T09:04:34.477Z</time></trkpt><trkpt lat="34.7241042" lon="9.062253"><ele>452.0</ele><time>2026-05-01T09:04:35.472Z</time></trkpt><trkpt lat="34.7242154" lon="9.0623659"><ele>452.0</ele><time>2026-05-01T09:04:36.474Z</time></trkpt><trkpt lat="34.7243246" lon="9.0624797"><ele>452.0</ele><time>2026-05-01T09:04:37.475Z</time></trkpt><trkpt lat="34.7244324" lon="9.0626005"><ele>452.0</ele><time>2026-05-01T09:04:38.443Z</time></trkpt><trkpt lat="34.7245373" lon="9.062729"><ele>453.3333333333333</ele><time>2026-05-01T09:04:39.474Z</time></trkpt><trkpt lat="34.7246454" lon="9.0628567"><ele>454.66666666666663</ele><time>2026-05-01T09:04:40.484Z</time></trkpt><trkpt lat="34.7247504" lon="9.0629884"><ele>456.0</ele><time>2026-05-01T09:04:41.48Z</time></trkpt><trkpt lat="34.7248541" lon="9.0631237"><ele>456.0</ele><time>2026-05-01T09:04:42.468Z</time></trkpt><trkpt lat="34.7249635" lon="9.0632522"><ele>456.0</ele><time>2026-05-01T09:04:43.469Z</time></trkpt><trkpt lat="34.7250764" lon="9.0633796"><ele>456.0</ele><time>2026-05-01T09:04:44.464Z</time></trkpt><trkpt lat="34.7251905" lon="9.063501"><ele>457.0</ele><time>2026-05-01T09:04:45.451Z</time></trkpt><trkpt lat="34.7253183" lon="9.0636219"><ele>458.0</ele><time>2026-05-01T09:04:46.482Z</time></trkpt><trkpt lat="34.7254594" lon="9.0637352"><ele>459.0</ele><time>2026-05-01T09:04:47.456Z</time></trkpt><trkpt lat="34.7256129" lon="9.0638484"><ele>459.0</ele><time>2026-05-01T09:04:48.47Z</time></trkpt><trkpt lat="34.7257872" lon="9.0639506"><ele>459.0</ele><time>2026-05-01T09:04:49.439Z</time></trkpt><trkpt lat="34.7259836" lon="9.0640641"><ele>459.0</ele><time>2026-05-01T09:04:50.474Z</time></trkpt><trkpt lat="34.7262118" lon="9.0641802"><ele>459.5</ele><time>2026-05-01T09:04:51.469Z</time></trkpt><trkpt lat="34.7264429" lon="9.0643172"><ele>460.0</ele><time>2026-05-01T09:04:52.462Z</time></trkpt><trkpt lat="34.7266658" lon="9.0644676"><ele>460.0</ele><time>2026-05-01T09:04:53.484Z</time></trkpt><trkpt lat="34.7268894" lon="9.0646244"><ele>460.0</ele><time>2026-05-01T09:04:54.463Z</time></trkpt><trkpt lat="34.7271075" lon="9.064775"><ele>460.0</ele><time>2026-05-01T09:04:55.476Z</time></trkpt><trkpt lat="34.7273004" lon="9.0649047"><ele>460.0</ele><time>2026-05-01T09:04:56.473Z</time></trkpt><trkpt lat="34.7274744" lon="9.0650192"><ele>460.0</ele><time>2026-05-01T09:04:57.477Z</time></trkpt><trkpt lat="34.7276428" lon="9.0651359"><ele>459.0</ele><time>2026-05-01T09:04:58.468Z</time></trkpt><trkpt lat="34.7278046" lon="9.0652426"><ele>458.0</ele><time>2026-05-01T09:04:59.477Z</time></trkpt><trkpt lat="34.7279641" lon="9.0653455"><ele>457.0</ele><time>2026-05-01T09:05:00.48Z</time></trkpt><trkpt lat="34.7281237" lon="9.0654446"><ele>457.0</ele><time>2026-05-01T09:05:01.482Z</time></trkpt><trkpt lat="34.7282803" lon="9.0655441"><ele>457.0</ele><time>2026-05-01T09:05:02.451Z</time></trkpt><trkpt lat="34.7284446" lon="9.0656462"><ele>457.0</ele><time>2026-05-01T09:05:03.472Z</time></trkpt><trkpt lat="34.7286111" lon="9.065748"><ele>457.6666666666667</ele><time>2026-05-01T09:05:04.483Z</time></trkpt><trkpt lat="34.7287787" lon="9.0658525"><ele>458.33333333333337</ele><time>2026-05-01T09:05:05.473Z</time></trkpt><trkpt lat="34.7289448" lon="9.0659604"><ele>459.0</ele><time>2026-05-01T09:05:06.487Z</time></trkpt><trkpt lat="34.7291121" lon="9.0660682"><ele>459.0</ele><time>2026-05-01T09:05:07.464Z</time></trkpt><trkpt lat="34.7292806" lon="9.0661685"><ele>459.0</ele><time>2026-05-01T09:05:08.448Z</time></trkpt><trkpt lat="34.729452" lon="9.0662707"><ele>459.0</ele><time>2026-05-01T09:05:09.473Z</time></trkpt><trkpt lat="34.7296154" lon="9.0663759"><ele>458.66666666666663</ele><time>2026-05-01T09:05:10.471Z</time></trkpt><trkpt lat="34.729779" lon="9.0664847"><ele>458.3333333333333</ele><time>2026-05-01T09:05:11.473Z</time></trkpt><trkpt lat="34.7299488" lon="9.066591"><ele>458.0</ele><time>2026-05-01T09:05:12.482Z</time></trkpt><trkpt lat="34.7301127" lon="9.0667006"><ele>458.0</ele><time>2026-05-01T09:05:13.472Z</time></trkpt><trkpt lat="34.7302784" lon="9.0668031"><ele>458.0</ele><time>2026-05-01T09:05:14.469Z</time></trkpt><trkpt lat="34.7304485" lon="9.0669105"><ele>458.0</ele><time>2026-05-01T09:05:15.493Z</time></trkpt><trkpt lat="34.7306211" lon="9.0670113"><ele>458.0</ele><time>2026-05-01T09:05:16.427Z</time></trkpt><trkpt lat="34.7307913" lon="9.0671241"><ele>458.0</ele><time>2026-05-01T09:05:17.471Z</time></trkpt><trkpt lat="34.7309628" lon="9.0672289"><ele>458.0</ele><time>2026-05-01T09:05:18.419Z</time></trkpt><trkpt lat="34.7311357" lon="9.067333"><ele>457.0</ele><time>2026-05-01T09:05:19.432Z</time></trkpt><trkpt lat="34.7313087" lon="9.0674481"><ele>456.0</ele><time>2026-05-01T09:05:20.45Z</time></trkpt><trkpt lat="34.7314818" lon="9.0675603"><ele>455.0</ele><time>2026-05-01T09:05:21.45Z</time></trkpt><trkpt lat="34.7316509" lon="9.0676672"><ele>455.0</ele><time>2026-05-01T09:05:22.428Z</time></trkpt><trkpt lat="34.7318202" lon="9.0677744"><ele>455.0</ele><time>2026-05-01T09:05:23.432Z</time></trkpt><trkpt lat="34.7319891" lon="9.0678831"><ele>455.0</ele><time>2026-05-01T09:05:24.448Z</time></trkpt><trkpt lat="34.7321565" lon="9.0679888"><ele>455.66666666666663</ele><time>2026-05-01T09:05:25.466Z</time></trkpt><trkpt lat="34.7323273" lon="9.0680945"><ele>456.33333333333337</ele><time>2026-05-01T09:05:26.474Z</time></trkpt><trkpt lat="34.7325028" lon="9.0682042"><ele>457.0</ele><time>2026-05-01T09:05:27.476Z</time></trkpt><trkpt lat="34.7326762" lon="9.068313"><ele>457.6666666666667</ele><time>2026-05-01T09:05:28.432Z</time></trkpt><trkpt lat="34.732852" lon="9.0684238"><ele>458.33333333333337</ele><time>2026-05-01T09:05:29.482Z</time></trkpt><trkpt lat="34.7330254" lon="9.068537"><ele>459.0</ele><time>2026-05-01T09:05:30.45Z</time></trkpt><trkpt lat="34.7332017" lon="9.0686483"><ele>459.0</ele><time>2026-05-01T09:05:31.436Z</time></trkpt><trkpt lat="34.7333785" lon="9.0687638"><ele>459.0</ele><time>2026-05-01T09:05:32.47Z</time></trkpt><trkpt lat="34.7335564" lon="9.068873"><ele>459.0</ele><time>2026-05-01T09:05:33.481Z</time></trkpt><trkpt lat="34.7337361" lon="9.0689834"><ele>458.66666666666663</ele><time>2026-05-01T09:05:34.473Z</time></trkpt><trkpt lat="34.7339092" lon="9.0690939"><ele>458.3333333333333</ele><time>2026-05-01T09:05:35.475Z</time></trkpt><trkpt lat="34.7340892" lon="9.0692025"><ele>458.0</ele><time>2026-05-01T09:05:36.442Z</time></trkpt><trkpt lat="34.7342658" lon="9.0693162"><ele>459.0</ele><time>2026-05-01T09:05:37.478Z</time></trkpt><trkpt lat="34.7344385" lon="9.0694263"><ele>460.0</ele><time>2026-05-01T09:05:38.463Z</time></trkpt><trkpt lat="34.7346117" lon="9.0695408"><ele>461.0</ele><time>2026-05-01T09:05:39.439Z</time></trkpt><trkpt lat="34.7347865" lon="9.0696465"><ele>461.0</ele><time>2026-05-01T09:05:40.449Z</time></trkpt><trkpt lat="34.7349611" lon="9.0697576"><ele>461.0</ele><time>2026-05-01T09:05:41.478Z</time></trkpt><trkpt lat="34.7351336" lon="9.06987"><ele>461.0</ele><time>2026-05-01T09:05:42.453Z</time></trkpt><trkpt lat="34.7353057" lon="9.0699826"><ele>459.66666666666663</ele><time>2026-05-01T09:05:43.485Z</time></trkpt><trkpt lat="34.7354805" lon="9.0700914"><ele>458.33333333333337</ele><time>2026-05-01T09:05:44.443Z</time></trkpt><trkpt lat="34.7356574" lon="9.0702037"><ele>457.0</ele><time>2026-05-01T09:05:45.462Z</time></trkpt><trkpt lat="34.7358323" lon="9.0703086"><ele>457.0</ele><time>2026-05-01T09:05:46.455Z</time></trkpt><trkpt lat="34.7360071" lon="9.0704201"><ele>457.0</ele><time>2026-05-01T09:05:47.461Z</time></trkpt><trkpt lat="34.7361804" lon="9.0705254"><ele>457.0</ele><time>2026-05-01T09:05:48.445Z</time></trkpt><trkpt lat="34.7363557" lon="9.0706323"><ele>457.0</ele><time>2026-05-01T09:05:49.459Z</time></trkpt><trkpt lat="34.7365351" lon="9.0707524"><ele>457.0</ele><time>2026-05-01T09:05:50.406Z</time></trkpt><trkpt lat="34.7367109" lon="9.0708668"><ele>457.0</ele><time>2026-05-01T09:05:51.473Z</time></trkpt><trkpt lat="34.7368874" lon="9.0709776"><ele>456.33333333333337</ele><time>2026-05-01T09:05:52.457Z</time></trkpt><trkpt lat="34.7370667" lon="9.0710927"><ele>455.66666666666663</ele><time>2026-05-01T09:05:53.467Z</time></trkpt><trkpt lat="34.7372434" lon="9.0712062"><ele>455.0</ele><time>2026-05-01T09:05:54.458Z</time></trkpt><trkpt lat="34.7374148" lon="9.0713189"><ele>455.0</ele><time>2026-05-01T09:05:55.475Z</time></trkpt><trkpt lat="34.737591" lon="9.071425"><ele>455.0</ele><time>2026-05-01T09:05:56.475Z</time></trkpt><trkpt lat="34.7377627" lon="9.0715354"><ele>455.0</ele><time>2026-05-01T09:05:57.471Z</time></trkpt><trkpt lat="34.7379361" lon="9.0716454"><ele>456.3333333333333</ele><time>2026-05-01T09:05:58.482Z</time></trkpt><trkpt lat="34.7381119" lon="9.0717542"><ele>457.66666666666663</ele><time>2026-05-01T09:05:59.496Z</time></trkpt><trkpt lat="34.7382887" lon="9.0718636"><ele>459.0</ele><time>2026-05-01T09:06:00.415Z</time></trkpt><trkpt lat="34.7384595" lon="9.0719747"><ele>459.0</ele><time>2026-05-01T09:06:01.414Z</time></trkpt><trkpt lat="34.7386197" lon="9.0720804"><ele>459.0</ele><time>2026-05-01T09:06:02.424Z</time></trkpt><trkpt lat="34.7387793" lon="9.0721773"><ele>459.0</ele><time>2026-05-01T09:06:03.445Z</time></trkpt><trkpt lat="34.7389272" lon="9.072268"><ele>459.0</ele><time>2026-05-01T09:06:04.457Z</time></trkpt><trkpt lat="34.7390727" lon="9.0723615"><ele>459.0</ele><time>2026-05-01T09:06:05.462Z</time></trkpt><trkpt lat="34.7392098" lon="9.0724547"><ele>459.0</ele><time>2026-05-01T09:06:06.464Z</time></trkpt><trkpt lat="34.7393499" lon="9.0725438"><ele>459.33333333333337</ele><time>2026-05-01T09:06:07.473Z</time></trkpt><trkpt lat="34.7394897" lon="9.0726266"><ele>459.6666666666667</ele><time>2026-05-01T09:06:08.473Z</time></trkpt><trkpt lat="34.7396275" lon="9.0727132"><ele>460.0</ele><time>2026-05-01T09:06:09.461Z</time></trkpt><trkpt lat="34.7397645" lon="9.0727949"><ele>460.0</ele><time>2026-05-01T09:06:10.477Z</time></trkpt><trkpt lat="34.7398977" lon="9.0728781"><ele>460.0</ele><time>2026-05-01T09:06:11.46Z</time></trkpt><trkpt lat="34.7400338" lon="9.0729633"><ele>460.0</ele><time>2026-05-01T09:06:12.482Z</time></trkpt><trkpt lat="34.7401696" lon="9.0730439"><ele>459.75</ele><time>2026-05-01T09:06:13.479Z</time></trkpt><trkpt lat="34.7402949" lon="9.0731254"><ele>459.5</ele><time>2026-05-01T09:06:14.47Z</time></trkpt><trkpt lat="34.7404162" lon="9.073194"><ele>459.25</ele><time>2026-05-01T09:06:15.472Z</time></trkpt><trkpt lat="34.7405298" lon="9.0732632"><ele>459.0</ele><time>2026-05-01T09:06:16.462Z</time></trkpt><trkpt lat="34.7406368" lon="9.073328"><ele>459.0</ele><time>2026-05-01T09:06:17.474Z</time></trkpt><trkpt lat="34.7407475" lon="9.0733978"><ele>459.0</ele><time>2026-05-01T09:06:18.472Z</time></trkpt><trkpt lat="34.7408522" lon="9.0734663"><ele>459.0</ele><time>2026-05-01T09:06:19.471Z</time></trkpt><trkpt lat="34.7409604" lon="9.0735346"><ele>459.0</ele><time>2026-05-01T09:06:20.474Z</time></trkpt><trkpt lat="34.7410735" lon="9.0736064"><ele>459.25</ele><time>2026-05-01T09:06:21.447Z</time></trkpt><trkpt lat="34.7411906" lon="9.0736816"><ele>459.5</ele><time>2026-05-01T09:06:22.459Z</time></trkpt><trkpt lat="34.7413114" lon="9.0737565"><ele>459.75</ele><time>2026-05-01T09:06:23.458Z</time></trkpt><trkpt lat="34.7414294" lon="9.0738344"><ele>460.0</ele><time>2026-05-01T09:06:24.476Z</time></trkpt><trkpt lat="34.7415535" lon="9.0739146"><ele>460.0</ele><time>2026-05-01T09:06:25.45Z</time></trkpt><trkpt lat="34.7416788" lon="9.0739957"><ele>460.0</ele><time>2026-05-01T09:06:26.484Z</time></trkpt><trkpt lat="34.74181" lon="9.0740755"><ele>460.0</ele><time>2026-05-01T09:06:27.415Z</time></trkpt><trkpt lat="34.7419358" lon="9.0741574"><ele>460.0</ele><time>2026-05-01T09:06:28.438Z</time></trkpt><trkpt lat="34.7420614" lon="9.074238"><ele>459.75</ele><time>2026-05-01T09:06:29.457Z</time></trkpt><trkpt lat="34.742187" lon="9.0743169"><ele>459.5</ele><time>2026-05-01T09:06:30.49Z</time></trkpt><trkpt lat="34.7423126" lon="9.0743966"><ele>459.25</ele><time>2026-05-01T09:06:31.467Z</time></trkpt><trkpt lat="34.7424442" lon="9.0744769"><ele>459.0</ele><time>2026-05-01T09:06:32.479Z</time></trkpt><trkpt lat="34.7425699" lon="9.0745526"><ele>459.0</ele><time>2026-05-01T09:06:33.476Z</time></trkpt><trkpt lat="34.742694" lon="9.0746322"><ele>459.0</ele><time>2026-05-01T09:06:34.458Z</time></trkpt><trkpt lat="34.7428173" lon="9.0747094"><ele>459.0</ele><time>2026-05-01T09:06:35.475Z</time></trkpt><trkpt lat="34.7429394" lon="9.07478"><ele>459.0</ele><time>2026-05-01T09:06:36.452Z</time></trkpt><trkpt lat="34.7430544" lon="9.0748565"><ele>459.2</ele><time>2026-05-01T09:06:37.473Z</time></trkpt><trkpt lat="34.7431576" lon="9.0749292"><ele>459.4</ele><time>2026-05-01T09:06:38.441Z</time></trkpt><trkpt lat="34.7432523" lon="9.0749889"><ele>459.6</ele><time>2026-05-01T09:06:39.479Z</time></trkpt><trkpt lat="34.7433328" lon="9.0750391"><ele>459.8</ele><time>2026-05-01T09:06:40.488Z</time></trkpt><trkpt lat="34.7434077" lon="9.0750904"><ele>460.0</ele><time>2026-05-01T09:06:41.469Z</time></trkpt><trkpt lat="34.7434734" lon="9.0751387"><ele>460.00000000000006</ele><time>2026-05-01T09:06:42.484Z</time></trkpt><trkpt lat="34.7435333" lon="9.0751778"><ele>460.0</ele><time>2026-05-01T09:06:43.486Z</time></trkpt><trkpt lat="34.743605" lon="9.0752246"><ele>460.0</ele><time>2026-05-01T09:06:44.471Z</time></trkpt><trkpt lat="34.7436824" lon="9.0752771"><ele>460.0</ele><time>2026-05-01T09:06:45.46Z</time></trkpt><trkpt lat="34.7437675" lon="9.0753345"><ele>460.00000000000006</ele><time>2026-05-01T09:06:46.444Z</time></trkpt><trkpt lat="34.7438637" lon="9.0753907"><ele>460.0</ele><time>2026-05-01T09:06:47.465Z</time></trkpt><trkpt lat="34.7439687" lon="9.0754617"><ele>460.5</ele><time>2026-05-01T09:06:48.475Z</time></trkpt><trkpt lat="34.7440853" lon="9.0755334"><ele>461.0</ele><time>2026-05-01T09:06:49.479Z</time></trkpt><trkpt lat="34.7442102" lon="9.0756036"><ele>461.5</ele><time>2026-05-01T09:06:50.469Z</time></trkpt><trkpt lat="34.7443304" lon="9.0756775"><ele>462.0</ele><time>2026-05-01T09:06:51.457Z</time></trkpt><trkpt lat="34.7444519" lon="9.0757541"><ele>462.0</ele><time>2026-05-01T09:06:52.474Z</time></trkpt><trkpt lat="34.7445652" lon="9.0758233"><ele>462.0</ele><time>2026-05-01T09:06:53.48Z</time></trkpt><trkpt lat="34.7446753" lon="9.0758854"><ele>462.0</ele><time>2026-05-01T09:06:54.448Z</time></trkpt><trkpt lat="34.74478" lon="9.0759432"><ele>462.0</ele><time>2026-05-01T09:06:55.451Z</time></trkpt><trkpt lat="34.7448739" lon="9.0760015"><ele>462.0</ele><time>2026-05-01T09:06:56.478Z</time></trkpt><trkpt lat="34.7449531" lon="9.0760605"><ele>462.0</ele><time>2026-05-01T09:06:57.469Z</time></trkpt><trkpt lat="34.7450184" lon="9.0761012"><ele>462.0</ele><time>2026-05-01T09:06:58.471Z</time></trkpt><trkpt lat="34.745082" lon="9.0761433"><ele>462.0</ele><time>2026-05-01T09:06:59.475Z</time></trkpt><trkpt lat="34.745142" lon="9.0761808"><ele>462.0</ele><time>2026-05-01T09:07:00.47Z</time></trkpt><trkpt lat="34.7452143" lon="9.0762296"><ele>462.0</ele><time>2026-05-01T09:07:01.471Z</time></trkpt><trkpt lat="34.7453032" lon="9.0762866"><ele>462.0</ele><time>2026-05-01T09:07:02.48Z</time></trkpt><trkpt lat="34.7454044" lon="9.0763564"><ele>462.0</ele><time>2026-05-01T09:07:03.448Z</time></trkpt><trkpt lat="34.7455209" lon="9.0764421"><ele>462.0</ele><time>2026-05-01T09:07:04.425Z</time></trkpt><trkpt lat="34.7456528" lon="9.076534"><ele>462.0</ele><time>2026-05-01T09:07:05.479Z</time></trkpt><trkpt lat="34.7457882" lon="9.0766147"><ele>462.0</ele><time>2026-05-01T09:07:06.473Z</time></trkpt><trkpt lat="34.7459276" lon="9.0766998"><ele>462.0</ele><time>2026-05-01T09:07:07.477Z</time></trkpt><trkpt lat="34.7460494" lon="9.0767795"><ele>462.0</ele><time>2026-05-01T09:07:08.474Z</time></trkpt><trkpt lat="34.7461567" lon="9.0768482"><ele>462.0</ele><time>2026-05-01T09:07:09.471Z</time></trkpt><trkpt lat="34.7462589" lon="9.0769196"><ele>462.0</ele><time>2026-05-01T09:07:10.454Z</time></trkpt><trkpt lat="34.7463422" lon="9.0769722"><ele>462.0</ele><time>2026-05-01T09:07:11.463Z</time></trkpt><trkpt lat="34.7464109" lon="9.0770137"><ele>462.0</ele><time>2026-05-01T09:07:12.489Z</time></trkpt><trkpt lat="34.7464834" lon="9.0770558"><ele>462.0</ele><time>2026-05-01T09:07:13.473Z</time></trkpt><trkpt lat="34.7465521" lon="9.0770984"><ele>462.0</ele><time>2026-05-01T09:07:14.453Z</time></trkpt><trkpt lat="34.7466185" lon="9.0771374"><ele>462.0</ele><time>2026-05-01T09:07:15.471Z</time></trkpt><trkpt lat="34.7467005" lon="9.0771925"><ele>462.0</ele><time>2026-05-01T09:07:16.47Z</time></trkpt><trkpt lat="34.7467992" lon="9.0772534"><ele>462.0</ele><time>2026-05-01T09:07:17.477Z</time></trkpt><trkpt lat="34.7469152" lon="9.0773139"><ele>462.0</ele><time>2026-05-01T09:07:18.482Z</time></trkpt><trkpt lat="34.7470348" lon="9.0773871"><ele>462.0</ele><time>2026-05-01T09:07:19.452Z</time></trkpt><trkpt lat="34.7471658" lon="9.0774746"><ele>462.33333333333337</ele><time>2026-05-01T09:07:20.466Z</time></trkpt><trkpt lat="34.7472975" lon="9.0775659"><ele>462.6666666666667</ele><time>2026-05-01T09:07:21.463Z</time></trkpt><trkpt lat="34.7474339" lon="9.0776494"><ele>463.0</ele><time>2026-05-01T09:07:22.485Z</time></trkpt><trkpt lat="34.7475788" lon="9.0777397"><ele>463.0</ele><time>2026-05-01T09:07:23.459Z</time></trkpt><trkpt lat="34.7477223" lon="9.0778336"><ele>463.0</ele><time>2026-05-01T09:07:24.465Z</time></trkpt><trkpt lat="34.7478792" lon="9.0779317"><ele>463.0</ele><time>2026-05-01T09:07:25.466Z</time></trkpt><trkpt lat="34.74804" lon="9.0780302"><ele>463.0</ele><time>2026-05-01T09:07:26.481Z</time></trkpt><trkpt lat="34.7482066" lon="9.0781346"><ele>463.0</ele><time>2026-05-01T09:07:27.427Z</time></trkpt><trkpt lat="34.74838" lon="9.0782413"><ele>463.0</ele><time>2026-05-01T09:07:28.476Z</time></trkpt><trkpt lat="34.7485591" lon="9.0783562"><ele>462.6666666666667</ele><time>2026-05-01T09:07:29.466Z</time></trkpt><trkpt lat="34.7487403" lon="9.0784745"><ele>462.33333333333337</ele><time>2026-05-01T09:07:30.443Z</time></trkpt><trkpt lat="34.7489201" lon="9.0785916"><ele>462.0</ele><time>2026-05-01T09:07:31.471Z</time></trkpt><trkpt lat="34.7491058" lon="9.0787068"><ele>462.0</ele><time>2026-05-01T09:07:32.456Z</time></trkpt><trkpt lat="34.7492925" lon="9.0788225"><ele>462.0</ele><time>2026-05-01T09:07:33.448Z</time></trkpt><trkpt lat="34.7494775" lon="9.0789369"><ele>462.0</ele><time>2026-05-01T09:07:34.476Z</time></trkpt><trkpt lat="34.7496628" lon="9.0790524"><ele>462.33333333333337</ele><time>2026-05-01T09:07:35.464Z</time></trkpt><trkpt lat="34.7498473" lon="9.0791697"><ele>462.6666666666667</ele><time>2026-05-01T09:07:36.475Z</time></trkpt><trkpt lat="34.7500287" lon="9.0792844"><ele>463.0</ele><time>2026-05-01T09:07:37.474Z</time></trkpt><trkpt lat="34.7502119" lon="9.0794019"><ele>463.0</ele><time>2026-05-01T09:07:38.448Z</time></trkpt><trkpt lat="34.750398" lon="9.0795168"><ele>463.0</ele><time>2026-05-01T09:07:39.432Z</time></trkpt><trkpt lat="34.7505817" lon="9.0796358"><ele>463.0</ele><time>2026-05-01T09:07:40.464Z</time></trkpt><trkpt lat="34.7507652" lon="9.0797544"><ele>463.0</ele><time>2026-05-01T09:07:41.476Z</time></trkpt><trkpt lat="34.7509481" lon="9.0798762"><ele>463.0</ele><time>2026-05-01T09:07:42.477Z</time></trkpt><trkpt lat="34.7511352" lon="9.0799928"><ele>463.0</ele><time>2026-05-01T09:07:43.482Z</time></trkpt><trkpt lat="34.7513178" lon="9.0801103"><ele>463.33333333333337</ele><time>2026-05-01T09:07:44.474Z</time></trkpt><trkpt lat="34.7514988" lon="9.0802232"><ele>463.66666666666663</ele><time>2026-05-01T09:07:45.429Z</time></trkpt><trkpt lat="34.7516808" lon="9.0803411"><ele>464.0</ele><time>2026-05-01T09:07:46.462Z</time></trkpt><trkpt lat="34.7518655" lon="9.0804585"><ele>464.3333333333333</ele><time>2026-05-01T09:07:47.458Z</time></trkpt><trkpt lat="34.7520522" lon="9.080575"><ele>464.66666666666663</ele><time>2026-05-01T09:07:48.457Z</time></trkpt><trkpt lat="34.7522344" lon="9.0806885"><ele>465.0</ele><time>2026-05-01T09:07:49.423Z</time></trkpt><trkpt lat="34.7524169" lon="9.0808062"><ele>465.0</ele><time>2026-05-01T09:07:50.461Z</time></trkpt><trkpt lat="34.7526016" lon="9.0809209"><ele>465.0</ele><time>2026-05-01T09:07:51.433Z</time></trkpt><trkpt lat="34.7527876" lon="9.0810387"><ele>465.0</ele><time>2026-05-01T09:07:52.446Z</time></trkpt><trkpt lat="34.752974" lon="9.0811556"><ele>465.0</ele><time>2026-05-01T09:07:53.486Z</time></trkpt><trkpt lat="34.7531535" lon="9.081268"><ele>465.0</ele><time>2026-05-01T09:07:54.463Z</time></trkpt><trkpt lat="34.7533368" lon="9.0813854"><ele>465.0</ele><time>2026-05-01T09:07:55.486Z</time></trkpt><trkpt lat="34.7535177" lon="9.0815043"><ele>465.33333333333337</ele><time>2026-05-01T09:07:56.497Z</time></trkpt><trkpt lat="34.7536977" lon="9.081623"><ele>465.6666666666667</ele><time>2026-05-01T09:07:57.487Z</time></trkpt><trkpt lat="34.7538803" lon="9.0817353"><ele>466.0</ele><time>2026-05-01T09:07:58.476Z</time></trkpt><trkpt lat="34.754066" lon="9.0818476"><ele>466.0</ele><time>2026-05-01T09:07:59.479Z</time></trkpt><trkpt lat="34.7542476" lon="9.0819625"><ele>466.0</ele><time>2026-05-01T09:08:00.472Z</time></trkpt><trkpt lat="34.7544333" lon="9.0820777"><ele>466.0</ele><time>2026-05-01T09:08:01.47Z</time></trkpt><trkpt lat="34.7546156" lon="9.0821958"><ele>466.0</ele><time>2026-05-01T09:08:02.457Z</time></trkpt><trkpt lat="34.7548019" lon="9.0823083"><ele>466.0</ele><time>2026-05-01T09:08:03.474Z</time></trkpt><trkpt lat="34.7549841" lon="9.0824286"><ele>466.0</ele><time>2026-05-01T09:08:04.484Z</time></trkpt><trkpt lat="34.7551668" lon="9.0825507"><ele>467.0</ele><time>2026-05-01T09:08:05.461Z</time></trkpt><trkpt lat="34.7553499" lon="9.0826632"><ele>468.0</ele><time>2026-05-01T09:08:06.466Z</time></trkpt><trkpt lat="34.7555334" lon="9.0827776"><ele>469.0</ele><time>2026-05-01T09:08:07.472Z</time></trkpt><trkpt lat="34.7557166" lon="9.0828953"><ele>469.0</ele><time>2026-05-01T09:08:08.474Z</time></trkpt><trkpt lat="34.7559011" lon="9.0830106"><ele>469.0</ele><time>2026-05-01T09:08:09.476Z</time></trkpt><trkpt lat="34.7560869" lon="9.0831304"><ele>469.0</ele><time>2026-05-01T09:08:10.484Z</time></trkpt><trkpt lat="34.7562702" lon="9.0832467"><ele>469.33333333333337</ele><time>2026-05-01T09:08:11.486Z</time></trkpt><trkpt lat="34.7564502" lon="9.0833601"><ele>469.66666666666663</ele><time>2026-05-01T09:08:12.453Z</time></trkpt><trkpt lat="34.756633" lon="9.0834778"><ele>470.0</ele><time>2026-05-01T09:08:13.442Z</time></trkpt><trkpt lat="34.7568145" lon="9.0835903"><ele>469.66666666666663</ele><time>2026-05-01T09:08:14.472Z</time></trkpt><trkpt lat="34.7569957" lon="9.0837048"><ele>469.33333333333337</ele><time>2026-05-01T09:08:15.476Z</time></trkpt><trkpt lat="34.7571772" lon="9.0838183"><ele>469.0</ele><time>2026-05-01T09:08:16.481Z</time></trkpt><trkpt lat="34.7573609" lon="9.0839338"><ele>469.0</ele><time>2026-05-01T09:08:17.466Z</time></trkpt><trkpt lat="34.7575472" lon="9.0840502"><ele>469.0</ele><time>2026-05-01T09:08:18.466Z</time></trkpt><trkpt lat="34.757731" lon="9.0841624"><ele>469.0</ele><time>2026-05-01T09:08:19.475Z</time></trkpt><trkpt lat="34.7579155" lon="9.0842817"><ele>469.33333333333337</ele><time>2026-05-01T09:08:20.461Z</time></trkpt><trkpt lat="34.7580958" lon="9.0843968"><ele>469.66666666666663</ele><time>2026-05-01T09:08:21.477Z</time></trkpt><trkpt lat="34.7582798" lon="9.0845113"><ele>470.0</ele><time>2026-05-01T09:08:22.475Z</time></trkpt><trkpt lat="34.7584595" lon="9.0846263"><ele>470.0</ele><time>2026-05-01T09:08:23.481Z</time></trkpt><trkpt lat="34.7586433" lon="9.0847377"><ele>470.0</ele><time>2026-05-01T09:08:24.492Z</time></trkpt><trkpt lat="34.7588229" lon="9.0848566"><ele>470.0</ele><time>2026-05-01T09:08:25.447Z</time></trkpt><trkpt lat="34.7590091" lon="9.0849708"><ele>469.66666666666663</ele><time>2026-05-01T09:08:26.48Z</time></trkpt><trkpt lat="34.759194" lon="9.0850879"><ele>469.33333333333337</ele><time>2026-05-01T09:08:27.473Z</time></trkpt><trkpt lat="34.7593778" lon="9.0852049"><ele>469.0</ele><time>2026-05-01T09:08:28.481Z</time></trkpt><trkpt lat="34.7595596" lon="9.0853219"><ele>469.0</ele><time>2026-05-01T09:08:29.457Z</time></trkpt><trkpt lat="34.7597437" lon="9.0854413"><ele>469.0</ele><time>2026-05-01T09:08:30.464Z</time></trkpt><trkpt lat="34.7599285" lon="9.0855618"><ele>469.0</ele><time>2026-05-01T09:08:31.473Z</time></trkpt><trkpt lat="34.7601121" lon="9.0856706"><ele>469.0</ele><time>2026-05-01T09:08:32.416Z</time></trkpt><trkpt lat="34.7603001" lon="9.0857844"><ele>469.0</ele><time>2026-05-01T09:08:33.476Z</time></trkpt><trkpt lat="34.7604878" lon="9.0859003"><ele>469.0</ele><time>2026-05-01T09:08:34.467Z</time></trkpt><trkpt lat="34.7606652" lon="9.0860145"><ele>469.0</ele><time>2026-05-01T09:08:35.451Z</time></trkpt><trkpt lat="34.7608433" lon="9.0861309"><ele>469.0</ele><time>2026-05-01T09:08:36.473Z</time></trkpt><trkpt lat="34.7610269" lon="9.0862513"><ele>469.0</ele><time>2026-05-01T09:08:37.433Z</time></trkpt><trkpt lat="34.7612081" lon="9.0863697"><ele>469.0</ele><time>2026-05-01T09:08:38.433Z</time></trkpt><trkpt lat="34.7613917" lon="9.0864898"><ele>469.0</ele><time>2026-05-01T09:08:39.47Z</time></trkpt><trkpt lat="34.7615774" lon="9.0866014"><ele>469.0</ele><time>2026-05-01T09:08:40.481Z</time></trkpt><trkpt lat="34.7617642" lon="9.0867187"><ele>468.6666666666667</ele><time>2026-05-01T09:08:41.479Z</time></trkpt><trkpt lat="34.7619468" lon="9.0868322"><ele>468.33333333333337</ele><time>2026-05-01T09:08:42.471Z</time></trkpt><trkpt lat="34.7621299" lon="9.0869476"><ele>468.0</ele><time>2026-05-01T09:08:43.471Z</time></trkpt><trkpt lat="34.7623141" lon="9.0870622"><ele>468.0</ele><time>2026-05-01T09:08:44.47Z</time></trkpt><trkpt lat="34.7624849" lon="9.0871686"><ele>468.0</ele><time>2026-05-01T09:08:45.467Z</time></trkpt><trkpt lat="34.7626465" lon="9.08727"><ele>468.0</ele><time>2026-05-01T09:08:46.453Z</time></trkpt><trkpt lat="34.7628079" lon="9.0873708"><ele>468.33333333333337</ele><time>2026-05-01T09:08:47.468Z</time></trkpt><trkpt lat="34.7629666" lon="9.0874705"><ele>468.6666666666667</ele><time>2026-05-01T09:08:48.464Z</time></trkpt><trkpt lat="34.763127" lon="9.0875702"><ele>469.0</ele><time>2026-05-01T09:08:49.466Z</time></trkpt><trkpt lat="34.7632918" lon="9.0876727"><ele>469.0</ele><time>2026-05-01T09:08:50.469Z</time></trkpt><trkpt lat="34.7634596" lon="9.0877831"><ele>469.0</ele><time>2026-05-01T09:08:51.468Z</time></trkpt><trkpt lat="34.7636298" lon="9.0878956"><ele>469.0</ele><time>2026-05-01T09:08:52.418Z</time></trkpt><trkpt lat="34.7637965" lon="9.0880017"><ele>468.33333333333337</ele><time>2026-05-01T09:08:53.467Z</time></trkpt><trkpt lat="34.7639621" lon="9.0881104"><ele>467.66666666666663</ele><time>2026-05-01T09:08:54.458Z</time></trkpt><trkpt lat="34.7641247" lon="9.0882177"><ele>467.0</ele><time>2026-05-01T09:08:55.432Z</time></trkpt><trkpt lat="34.7642918" lon="9.0883306"><ele>467.3333333333333</ele><time>2026-05-01T09:08:56.476Z</time></trkpt><trkpt lat="34.7644613" lon="9.088434"><ele>467.66666666666663</ele><time>2026-05-01T09:08:57.452Z</time></trkpt><trkpt lat="34.7646388" lon="9.0885487"><ele>468.0</ele><time>2026-05-01T09:08:58.446Z</time></trkpt><trkpt lat="34.7648127" lon="9.088658"><ele>468.0</ele><time>2026-05-01T09:08:59.465Z</time></trkpt><trkpt lat="34.7649847" lon="9.0887683"><ele>468.0</ele><time>2026-05-01T09:09:00.464Z</time></trkpt><trkpt lat="34.7651631" lon="9.0888799"><ele>468.0</ele><time>2026-05-01T09:09:01.474Z</time></trkpt><trkpt lat="34.7653372" lon="9.0889852"><ele>467.33333333333337</ele><time>2026-05-01T09:09:02.479Z</time></trkpt><trkpt lat="34.7655095" lon="9.0890956"><ele>466.6666666666667</ele><time>2026-05-01T09:09:03.484Z</time></trkpt><trkpt lat="34.7656863" lon="9.089207"><ele>466.0</ele><time>2026-05-01T09:09:04.473Z</time></trkpt><trkpt lat="34.765856" lon="9.0893143"><ele>466.0</ele><time>2026-05-01T09:09:05.447Z</time></trkpt><trkpt lat="34.7660266" lon="9.0894251"><ele>466.0</ele><time>2026-05-01T09:09:06.47Z</time></trkpt><trkpt lat="34.7661998" lon="9.0895345"><ele>466.0</ele><time>2026-05-01T09:09:07.457Z</time></trkpt><trkpt lat="34.7663725" lon="9.0896421"><ele>466.6666666666667</ele><time>2026-05-01T09:09:08.471Z</time></trkpt><trkpt lat="34.7665469" lon="9.0897531"><ele>467.33333333333337</ele><time>2026-05-01T09:09:09.466Z</time></trkpt><trkpt lat="34.766723" lon="9.0898611"><ele>468.0</ele><time>2026-05-01T09:09:10.473Z</time></trkpt><trkpt lat="34.7668939" lon="9.0899717"><ele>468.0</ele><time>2026-05-01T09:09:11.468Z</time></trkpt><trkpt lat="34.7670683" lon="9.0900809"><ele>468.0</ele><time>2026-05-01T09:09:12.477Z</time></trkpt><trkpt lat="34.767245" lon="9.0901941"><ele>468.0</ele><time>2026-05-01T09:09:13.456Z</time></trkpt><trkpt lat="34.7674191" lon="9.0903047"><ele>468.0</ele><time>2026-05-01T09:09:14.441Z</time></trkpt><trkpt lat="34.7675902" lon="9.0904208"><ele>468.0</ele><time>2026-05-01T09:09:15.455Z</time></trkpt><trkpt lat="34.7677625" lon="9.0905315"><ele>468.0</ele><time>2026-05-01T09:09:16.455Z</time></trkpt><trkpt lat="34.7679374" lon="9.0906381"><ele>468.33333333333337</ele><time>2026-05-01T09:09:17.473Z</time></trkpt><trkpt lat="34.7681119" lon="9.0907467"><ele>468.6666666666667</ele><time>2026-05-01T09:09:18.473Z</time></trkpt><trkpt lat="34.7682861" lon="9.0908568"><ele>469.0</ele><time>2026-05-01T09:09:19.472Z</time></trkpt><trkpt lat="34.7684593" lon="9.0909708"><ele>468.0</ele><time>2026-05-01T09:09:20.483Z</time></trkpt><trkpt lat="34.768634" lon="9.0910808"><ele>467.0</ele><time>2026-05-01T09:09:21.467Z</time></trkpt><trkpt lat="34.7688099" lon="9.0911961"><ele>466.0</ele><time>2026-05-01T09:09:22.483Z</time></trkpt><trkpt lat="34.7689834" lon="9.0913084"><ele>466.0</ele><time>2026-05-01T09:09:23.473Z</time></trkpt><trkpt lat="34.7691576" lon="9.0914185"><ele>466.0</ele><time>2026-05-01T09:09:24.49Z</time></trkpt><trkpt lat="34.7693341" lon="9.0915262"><ele>466.0</ele><time>2026-05-01T09:09:25.471Z</time></trkpt><trkpt lat="34.76951" lon="9.091631"><ele>466.0</ele><time>2026-05-01T09:09:26.477Z</time></trkpt><trkpt lat="34.7696858" lon="9.0917432"><ele>466.0</ele><time>2026-05-01T09:09:27.476Z</time></trkpt><trkpt lat="34.7698556" lon="9.0918519"><ele>466.0</ele><time>2026-05-01T09:09:28.476Z</time></trkpt><trkpt lat="34.7700274" lon="9.0919635"><ele>466.6666666666667</ele><time>2026-05-01T09:09:29.452Z</time></trkpt><trkpt lat="34.7701982" lon="9.0920768"><ele>467.33333333333337</ele><time>2026-05-01T09:09:30.462Z</time></trkpt><trkpt lat="34.7703719" lon="9.0921867"><ele>468.0</ele><time>2026-05-01T09:09:31.466Z</time></trkpt><trkpt lat="34.7705482" lon="9.0923043"><ele>468.0</ele><time>2026-05-01T09:09:32.473Z</time></trkpt><trkpt lat="34.7707256" lon="9.0924185"><ele>468.0</ele><time>2026-05-01T09:09:33.463Z</time></trkpt><trkpt lat="34.7709034" lon="9.0925274"><ele>468.0</ele><time>2026-05-01T09:09:34.412Z</time></trkpt><trkpt lat="34.7710842" lon="9.0926342"><ele>468.0</ele><time>2026-05-01T09:09:35.416Z</time></trkpt><trkpt lat="34.7712621" lon="9.0927457"><ele>468.0</ele><time>2026-05-01T09:09:36.465Z</time></trkpt><trkpt lat="34.7714398" lon="9.0928566"><ele>468.0</ele><time>2026-05-01T09:09:37.466Z</time></trkpt><trkpt lat="34.7716141" lon="9.0929656"><ele>468.0</ele><time>2026-05-01T09:09:38.462Z</time></trkpt><trkpt lat="34.7717856" lon="9.0930788"><ele>468.0</ele><time>2026-05-01T09:09:39.484Z</time></trkpt><trkpt lat="34.7719561" lon="9.0931901"><ele>468.0</ele><time>2026-05-01T09:09:40.467Z</time></trkpt><trkpt lat="34.7721313" lon="9.0933001"><ele>467.66666666666663</ele><time>2026-05-01T09:09:41.464Z</time></trkpt><trkpt lat="34.7723036" lon="9.09341"><ele>467.3333333333333</ele><time>2026-05-01T09:09:42.468Z</time></trkpt><trkpt lat="34.7724737" lon="9.0935164"><ele>467.0</ele><time>2026-05-01T09:09:43.461Z</time></trkpt><trkpt lat="34.772646" lon="9.0936189"><ele>466.0</ele><time>2026-05-01T09:09:44.474Z</time></trkpt><trkpt lat="34.7728226" lon="9.0937308"><ele>465.0</ele><time>2026-05-01T09:09:45.426Z</time></trkpt><trkpt lat="34.7729974" lon="9.0938441"><ele>464.0</ele><time>2026-05-01T09:09:46.481Z</time></trkpt><trkpt lat="34.7731741" lon="9.0939614"><ele>464.0</ele><time>2026-05-01T09:09:47.476Z</time></trkpt><trkpt lat="34.7733525" lon="9.0940738"><ele>464.0</ele><time>2026-05-01T09:09:48.469Z</time></trkpt><trkpt lat="34.7735288" lon="9.094187"><ele>464.0</ele><time>2026-05-01T09:09:49.465Z</time></trkpt><trkpt lat="34.7737048" lon="9.0942997"><ele>464.3333333333333</ele><time>2026-05-01T09:09:50.466Z</time></trkpt><trkpt lat="34.7738789" lon="9.0944092"><ele>464.66666666666663</ele><time>2026-05-01T09:09:51.469Z</time></trkpt><trkpt lat="34.774054" lon="9.0945162"><ele>465.0</ele><time>2026-05-01T09:09:52.489Z</time></trkpt><trkpt lat="34.7742308" lon="9.0946242"><ele>464.66666666666663</ele><time>2026-05-01T09:09:53.458Z</time></trkpt><trkpt lat="34.7744063" lon="9.0947368"><ele>464.3333333333333</ele><time>2026-05-01T09:09:54.469Z</time></trkpt><trkpt lat="34.7745839" lon="9.0948528"><ele>464.0</ele><time>2026-05-01T09:09:55.479Z</time></trkpt><trkpt lat="34.7747619" lon="9.0949694"><ele>464.0</ele><time>2026-05-01T09:09:56.456Z</time></trkpt><trkpt lat="34.7749424" lon="9.0950813"><ele>464.0</ele><time>2026-05-01T09:09:57.462Z</time></trkpt><trkpt lat="34.7751218" lon="9.0951932"><ele>464.0</ele><time>2026-05-01T09:09:58.416Z</time></trkpt><trkpt lat="34.7752963" lon="9.0953114"><ele>464.0</ele><time>2026-05-01T09:09:59.463Z</time></trkpt><trkpt lat="34.7754712" lon="9.0954213"><ele>464.0</ele><time>2026-05-01T09:10:00.466Z</time></trkpt><trkpt lat="34.7756498" lon="9.0955309"><ele>464.0</ele><time>2026-05-01T09:10:01.462Z</time></trkpt><trkpt lat="34.7758257" lon="9.0956476"><ele>463.66666666666663</ele><time>2026-05-01T09:10:02.475Z</time></trkpt><trkpt lat="34.7760046" lon="9.0957561"><ele>463.33333333333337</ele><time>2026-05-01T09:10:03.445Z</time></trkpt><trkpt lat="34.7761817" lon="9.0958682"><ele>463.0</ele><time>2026-05-01T09:10:04.46Z</time></trkpt><trkpt lat="34.7763615" lon="9.0959814"><ele>463.0</ele><time>2026-05-01T09:10:05.463Z</time></trkpt><trkpt lat="34.7765352" lon="9.0960905"><ele>463.0</ele><time>2026-05-01T09:10:06.467Z</time></trkpt><trkpt lat="34.7767098" lon="9.0962036"><ele>463.0</ele><time>2026-05-01T09:10:07.477Z</time></trkpt><trkpt lat="34.7768903" lon="9.0963191"><ele>463.0</ele><time>2026-05-01T09:10:08.437Z</time></trkpt><trkpt lat="34.7770659" lon="9.0964263"><ele>463.0</ele><time>2026-05-01T09:10:09.462Z</time></trkpt><trkpt lat="34.7772381" lon="9.0965382"><ele>463.0</ele><time>2026-05-01T09:10:10.467Z</time></trkpt><trkpt lat="34.7774151" lon="9.0966542"><ele>463.0</ele><time>2026-05-01T09:10:11.475Z</time></trkpt><trkpt lat="34.7775931" lon="9.0967658"><ele>463.0</ele><time>2026-05-01T09:10:12.479Z</time></trkpt><trkpt lat="34.777772" lon="9.0968765"><ele>463.0</ele><time>2026-05-01T09:10:13.476Z</time></trkpt><trkpt lat="34.7779508" lon="9.0969871"><ele>463.0</ele><time>2026-05-01T09:10:14.441Z</time></trkpt><trkpt lat="34.7781282" lon="9.0970943"><ele>463.0</ele><time>2026-05-01T09:10:15.474Z</time></trkpt><trkpt lat="34.7783068" lon="9.0972051"><ele>463.0</ele><time>2026-05-01T09:10:16.43Z</time></trkpt><trkpt lat="34.7784798" lon="9.097319"><ele>462.6666666666667</ele><time>2026-05-01T09:10:17.472Z</time></trkpt><trkpt lat="34.7786584" lon="9.0974284"><ele>462.33333333333337</ele><time>2026-05-01T09:10:18.466Z</time></trkpt><trkpt lat="34.7788323" lon="9.0975409"><ele>462.0</ele><time>2026-05-01T09:10:19.467Z</time></trkpt><trkpt lat="34.7790115" lon="9.0976603"><ele>462.0</ele><time>2026-05-01T09:10:20.464Z</time></trkpt><trkpt lat="34.7791878" lon="9.097774"><ele>462.0</ele><time>2026-05-01T09:10:21.452Z</time></trkpt><trkpt lat="34.7793602" lon="9.0978809"><ele>462.0</ele><time>2026-05-01T09:10:22.426Z</time></trkpt><trkpt lat="34.7795371" lon="9.0979843"><ele>462.0</ele><time>2026-05-01T09:10:23.407Z</time></trkpt><trkpt lat="34.7797106" lon="9.0980903"><ele>462.0</ele><time>2026-05-01T09:10:24.439Z</time></trkpt><trkpt lat="34.7798875" lon="9.0981987"><ele>462.0</ele><time>2026-05-01T09:10:25.43Z</time></trkpt><trkpt lat="34.7800646" lon="9.0983054"><ele>462.0</ele><time>2026-05-01T09:10:26.441Z</time></trkpt><trkpt lat="34.7802419" lon="9.0984165"><ele>462.0</ele><time>2026-05-01T09:10:27.414Z</time></trkpt><trkpt lat="34.7804194" lon="9.0985313"><ele>462.0</ele><time>2026-05-01T09:10:28.426Z</time></trkpt><trkpt lat="34.7805932" lon="9.0986496"><ele>462.0</ele><time>2026-05-01T09:10:29.465Z</time></trkpt><trkpt lat="34.7807743" lon="9.0987636"><ele>462.0</ele><time>2026-05-01T09:10:30.438Z</time></trkpt><trkpt lat="34.7809522" lon="9.0988799"><ele>462.0</ele><time>2026-05-01T09:10:31.433Z</time></trkpt><trkpt lat="34.7811287" lon="9.0989947"><ele>461.0</ele><time>2026-05-01T09:10:32.462Z</time></trkpt><trkpt lat="34.781307" lon="9.0991093"><ele>460.0</ele><time>2026-05-01T09:10:33.469Z</time></trkpt><trkpt lat="34.7814832" lon="9.0992203"><ele>459.0</ele><time>2026-05-01T09:10:34.446Z</time></trkpt><trkpt lat="34.7816627" lon="9.0993362"><ele>459.0</ele><time>2026-05-01T09:10:35.478Z</time></trkpt><trkpt lat="34.7818455" lon="9.0994558"><ele>459.0</ele><time>2026-05-01T09:10:36.422Z</time></trkpt><trkpt lat="34.7820213" lon="9.0995676"><ele>459.0</ele><time>2026-05-01T09:10:37.471Z</time></trkpt><trkpt lat="34.7821999" lon="9.0996823"><ele>459.33333333333337</ele><time>2026-05-01T09:10:38.448Z</time></trkpt><trkpt lat="34.7823771" lon="9.0997971"><ele>459.6666666666667</ele><time>2026-05-01T09:10:39.424Z</time></trkpt><trkpt lat="34.7825576" lon="9.0999096"><ele>460.0</ele><time>2026-05-01T09:10:40.459Z</time></trkpt><trkpt lat="34.7827346" lon="9.1000264"><ele>460.0</ele><time>2026-05-01T09:10:41.454Z</time></trkpt><trkpt lat="34.7829109" lon="9.1001407"><ele>460.0</ele><time>2026-05-01T09:10:42.463Z</time></trkpt><trkpt lat="34.7830866" lon="9.1002536"><ele>460.0</ele><time>2026-05-01T09:10:43.468Z</time></trkpt><trkpt lat="34.78326" lon="9.1003655"><ele>460.0</ele><time>2026-05-01T09:10:44.444Z</time></trkpt><trkpt lat="34.7834388" lon="9.1004747"><ele>460.0</ele><time>2026-05-01T09:10:45.462Z</time></trkpt><trkpt lat="34.7836122" lon="9.1005863"><ele>460.0</ele><time>2026-05-01T09:10:46.455Z</time></trkpt><trkpt lat="34.7837862" lon="9.1006926"><ele>459.6666666666667</ele><time>2026-05-01T09:10:47.472Z</time></trkpt><trkpt lat="34.7839661" lon="9.1008022"><ele>459.33333333333337</ele><time>2026-05-01T09:10:48.45Z</time></trkpt><trkpt lat="34.7841435" lon="9.1009141"><ele>459.0</ele><time>2026-05-01T09:10:49.467Z</time></trkpt><trkpt lat="34.7843218" lon="9.1010287"><ele>459.66666666666663</ele><time>2026-05-01T09:10:50.471Z</time></trkpt><trkpt lat="34.7844936" lon="9.1011436"><ele>460.3333333333333</ele><time>2026-05-01T09:10:51.465Z</time></trkpt><trkpt lat="34.7846674" lon="9.1012585"><ele>461.0</ele><time>2026-05-01T09:10:52.447Z</time></trkpt><trkpt lat="34.7848469" lon="9.1013742"><ele>461.0</ele><time>2026-05-01T09:10:53.409Z</time></trkpt><trkpt lat="34.7850276" lon="9.1014883"><ele>461.0</ele><time>2026-05-01T09:10:54.451Z</time></trkpt><trkpt lat="34.7851988" lon="9.1015979"><ele>461.0</ele><time>2026-05-01T09:10:55.475Z</time></trkpt><trkpt lat="34.7853776" lon="9.1017082"><ele>460.3333333333333</ele><time>2026-05-01T09:10:56.445Z</time></trkpt><trkpt lat="34.7855516" lon="9.1018136"><ele>459.66666666666663</ele><time>2026-05-01T09:10:57.466Z</time></trkpt><trkpt lat="34.7857307" lon="9.1019242"><ele>459.0</ele><time>2026-05-01T09:10:58.466Z</time></trkpt><trkpt lat="34.7859073" lon="9.1020322"><ele>459.0</ele><time>2026-05-01T09:10:59.453Z</time></trkpt><trkpt lat="34.7860816" lon="9.1021386"><ele>459.0</ele><time>2026-05-01T09:11:00.472Z</time></trkpt><trkpt lat="34.7862585" lon="9.1022527"><ele>459.0</ele><time>2026-05-01T09:11:01.462Z</time></trkpt><trkpt lat="34.7864356" lon="9.1023643"><ele>459.0</ele><time>2026-05-01T09:11:02.455Z</time></trkpt><trkpt lat="34.7866164" lon="9.1024806"><ele>459.0</ele><time>2026-05-01T09:11:03.472Z</time></trkpt><trkpt lat="34.7867953" lon="9.1025928"><ele>459.0</ele><time>2026-05-01T09:11:04.47Z</time></trkpt><trkpt lat="34.7869698" lon="9.1027047"><ele>459.0</ele><time>2026-05-01T09:11:05.473Z</time></trkpt><trkpt lat="34.7871485" lon="9.1028214"><ele>459.0</ele><time>2026-05-01T09:11:06.452Z</time></trkpt><trkpt lat="34.787325" lon="9.1029278"><ele>459.0</ele><time>2026-05-01T09:11:07.461Z</time></trkpt><trkpt lat="34.7875054" lon="9.103044"><ele>459.0</ele><time>2026-05-01T09:11:08.467Z</time></trkpt><trkpt lat="34.7876808" lon="9.1031622"><ele>459.0</ele><time>2026-05-01T09:11:09.465Z</time></trkpt><trkpt lat="34.7878634" lon="9.103275"><ele>459.0</ele><time>2026-05-01T09:11:10.457Z</time></trkpt><trkpt lat="34.7880389" lon="9.1033818"><ele>459.0</ele><time>2026-05-01T09:11:11.465Z</time></trkpt><trkpt lat="34.7882181" lon="9.1034953"><ele>459.0</ele><time>2026-05-01T09:11:12.469Z</time></trkpt><trkpt lat="34.7883956" lon="9.1036072"><ele>459.0</ele><time>2026-05-01T09:11:13.471Z</time></trkpt><trkpt lat="34.7885695" lon="9.1037199"><ele>459.0</ele><time>2026-05-01T09:11:14.469Z</time></trkpt><trkpt lat="34.7887447" lon="9.1038315"><ele>459.0</ele><time>2026-05-01T09:11:15.468Z</time></trkpt><trkpt lat="34.7889212" lon="9.1039434"><ele>459.0</ele><time>2026-05-01T09:11:16.469Z</time></trkpt><trkpt lat="34.7890959" lon="9.1040532"><ele>458.0</ele><time>2026-05-01T09:11:17.465Z</time></trkpt><trkpt lat="34.7892747" lon="9.1041659"><ele>457.0</ele><time>2026-05-01T09:11:18.473Z</time></trkpt><trkpt lat="34.789454" lon="9.1042775"><ele>456.0</ele><time>2026-05-01T09:11:19.454Z</time></trkpt><trkpt lat="34.78963" lon="9.1043885"><ele>455.66666666666663</ele><time>2026-05-01T09:11:20.467Z</time></trkpt><trkpt lat="34.7898068" lon="9.1045034"><ele>455.3333333333333</ele><time>2026-05-01T09:11:21.485Z</time></trkpt><trkpt lat="34.7899796" lon="9.104618"><ele>455.0</ele><time>2026-05-01T09:11:22.459Z</time></trkpt><trkpt lat="34.7901529" lon="9.1047284"><ele>455.66666666666663</ele><time>2026-05-01T09:11:23.461Z</time></trkpt><trkpt lat="34.7903293" lon="9.1048454"><ele>456.33333333333337</ele><time>2026-05-01T09:11:24.464Z</time></trkpt><trkpt lat="34.7905085" lon="9.1049542"><ele>457.0</ele><time>2026-05-01T09:11:25.464Z</time></trkpt><trkpt lat="34.7906927" lon="9.1050688"><ele>457.0</ele><time>2026-05-01T09:11:26.449Z</time></trkpt><trkpt lat="34.79087" lon="9.1051845"><ele>457.0</ele><time>2026-05-01T09:11:27.472Z</time></trkpt><trkpt lat="34.7910454" lon="9.1052981"><ele>457.0</ele><time>2026-05-01T09:11:28.438Z</time></trkpt><trkpt lat="34.7912212" lon="9.1054071"><ele>456.33333333333337</ele><time>2026-05-01T09:11:29.448Z</time></trkpt><trkpt lat="34.7914012" lon="9.1055237"><ele>455.66666666666663</ele><time>2026-05-01T09:11:30.449Z</time></trkpt><trkpt lat="34.7915758" lon="9.1056319"><ele>455.0</ele><time>2026-05-01T09:11:31.458Z</time></trkpt><trkpt lat="34.7917496" lon="9.1057423"><ele>454.66666666666663</ele><time>2026-05-01T09:11:32.474Z</time></trkpt><trkpt lat="34.7919267" lon="9.1058523"><ele>454.33333333333337</ele><time>2026-05-01T09:11:33.462Z</time></trkpt><trkpt lat="34.792104" lon="9.1059633"><ele>454.0</ele><time>2026-05-01T09:11:34.47Z</time></trkpt><trkpt lat="34.7922777" lon="9.1060763"><ele>454.0</ele><time>2026-05-01T09:11:35.457Z</time></trkpt><trkpt lat="34.7924508" lon="9.10619"><ele>454.0</ele><time>2026-05-01T09:11:36.449Z</time></trkpt><trkpt lat="34.7926247" lon="9.1063021"><ele>454.0</ele><time>2026-05-01T09:11:37.459Z</time></trkpt><trkpt lat="34.7928004" lon="9.1064169"><ele>454.33333333333337</ele><time>2026-05-01T09:11:38.441Z</time></trkpt><trkpt lat="34.7929788" lon="9.1065326"><ele>454.66666666666663</ele><time>2026-05-01T09:11:39.453Z</time></trkpt><trkpt lat="34.7931549" lon="9.1066407"><ele>455.0</ele><time>2026-05-01T09:11:40.464Z</time></trkpt><trkpt lat="34.793332" lon="9.1067542"><ele>454.66666666666663</ele><time>2026-05-01T09:11:41.459Z</time></trkpt><trkpt lat="34.7935106" lon="9.1068694"><ele>454.33333333333337</ele><time>2026-05-01T09:11:42.468Z</time></trkpt><trkpt lat="34.7936907" lon="9.1069845"><ele>454.0</ele><time>2026-05-01T09:11:43.466Z</time></trkpt><trkpt lat="34.7938676" lon="9.1070942"><ele>454.0</ele><time>2026-05-01T09:11:44.471Z</time></trkpt><trkpt lat="34.7940439" lon="9.107208"><ele>454.0</ele><time>2026-05-01T09:11:45.477Z</time></trkpt><trkpt lat="34.7942166" lon="9.1073199"><ele>454.0</ele><time>2026-05-01T09:11:46.449Z</time></trkpt><trkpt lat="34.7943928" lon="9.1074318"><ele>454.0</ele><time>2026-05-01T09:11:47.464Z</time></trkpt><trkpt lat="34.794569" lon="9.107541"><ele>454.0</ele><time>2026-05-01T09:11:48.455Z</time></trkpt><trkpt lat="34.7947466" lon="9.1076516"><ele>454.0</ele><time>2026-05-01T09:11:49.482Z</time></trkpt><trkpt lat="34.7949251" lon="9.1077628"><ele>454.0</ele><time>2026-05-01T09:11:50.48Z</time></trkpt><trkpt lat="34.7951048" lon="9.1078735"><ele>454.0</ele><time>2026-05-01T09:11:51.473Z</time></trkpt><trkpt lat="34.7952829" lon="9.1079894"><ele>454.0</ele><time>2026-05-01T09:11:52.472Z</time></trkpt><trkpt lat="34.7954625" lon="9.1081058"><ele>453.6666666666667</ele><time>2026-05-01T09:11:53.467Z</time></trkpt><trkpt lat="34.7956448" lon="9.1082186"><ele>453.33333333333337</ele><time>2026-05-01T09:11:54.421Z</time></trkpt><trkpt lat="34.795823" lon="9.1083265"><ele>453.0</ele><time>2026-05-01T09:11:55.468Z</time></trkpt><trkpt lat="34.7959946" lon="9.1084364"><ele>452.66666666666663</ele><time>2026-05-01T09:11:56.434Z</time></trkpt><trkpt lat="34.7961679" lon="9.1085442"><ele>452.3333333333333</ele><time>2026-05-01T09:11:57.471Z</time></trkpt><trkpt lat="34.7963448" lon="9.1086524"><ele>452.0</ele><time>2026-05-01T09:11:58.476Z</time></trkpt><trkpt lat="34.7965223" lon="9.1087656"><ele>452.0</ele><time>2026-05-01T09:11:59.461Z</time></trkpt><trkpt lat="34.7966995" lon="9.1088817"><ele>452.0</ele><time>2026-05-01T09:12:00.471Z</time></trkpt><trkpt lat="34.7968728" lon="9.1089942"><ele>452.0</ele><time>2026-05-01T09:12:01.466Z</time></trkpt><trkpt lat="34.7970471" lon="9.1091081"><ele>452.0</ele><time>2026-05-01T09:12:02.47Z</time></trkpt><trkpt lat="34.7972226" lon="9.1092252"><ele>452.0</ele><time>2026-05-01T09:12:03.455Z</time></trkpt><trkpt lat="34.7973934" lon="9.1093367"><ele>452.0</ele><time>2026-05-01T09:12:04.467Z</time></trkpt><trkpt lat="34.7975681" lon="9.1094466"><ele>452.3333333333333</ele><time>2026-05-01T09:12:05.474Z</time></trkpt><trkpt lat="34.7977444" lon="9.1095541"><ele>452.66666666666663</ele><time>2026-05-01T09:12:06.417Z</time></trkpt><trkpt lat="34.7979187" lon="9.1096628"><ele>453.0</ele><time>2026-05-01T09:12:07.464Z</time></trkpt><trkpt lat="34.798099" lon="9.1097788"><ele>453.0</ele><time>2026-05-01T09:12:08.464Z</time></trkpt><trkpt lat="34.798279" lon="9.1098951"><ele>453.0</ele><time>2026-05-01T09:12:09.455Z</time></trkpt><trkpt lat="34.7984568" lon="9.1100117"><ele>453.0</ele><time>2026-05-01T09:12:10.47Z</time></trkpt><trkpt lat="34.7986304" lon="9.1101195"><ele>453.0</ele><time>2026-05-01T09:12:11.467Z</time></trkpt><trkpt lat="34.7988136" lon="9.1102332"><ele>453.0</ele><time>2026-05-01T09:12:12.471Z</time></trkpt><trkpt lat="34.7989943" lon="9.1103515"><ele>453.0</ele><time>2026-05-01T09:12:13.473Z</time></trkpt><trkpt lat="34.7991704" lon="9.1104604"><ele>453.33333333333337</ele><time>2026-05-01T09:12:14.469Z</time></trkpt><trkpt lat="34.7993466" lon="9.1105739"><ele>453.6666666666667</ele><time>2026-05-01T09:12:15.462Z</time></trkpt><trkpt lat="34.799524" lon="9.1106841"><ele>454.0</ele><time>2026-05-01T09:12:16.449Z</time></trkpt><trkpt lat="34.7997018" lon="9.1107944"><ele>454.0</ele><time>2026-05-01T09:12:17.44Z</time></trkpt><trkpt lat="34.7998792" lon="9.1109045"><ele>454.0</ele><time>2026-05-01T09:12:18.461Z</time></trkpt><trkpt lat="34.8000567" lon="9.1110192"><ele>454.0</ele><time>2026-05-01T09:12:19.474Z</time></trkpt><trkpt lat="34.8002346" lon="9.1111301"><ele>453.6666666666667</ele><time>2026-05-01T09:12:20.456Z</time></trkpt><trkpt lat="34.8004124" lon="9.1112401"><ele>453.33333333333337</ele><time>2026-05-01T09:12:21.458Z</time></trkpt><trkpt lat="34.8005937" lon="9.1113556"><ele>453.0</ele><time>2026-05-01T09:12:22.472Z</time></trkpt><trkpt lat="34.8007738" lon="9.111467"><ele>453.0</ele><time>2026-05-01T09:12:23.469Z</time></trkpt><trkpt lat="34.8009524" lon="9.1115841"><ele>453.0</ele><time>2026-05-01T09:12:24.457Z</time></trkpt><trkpt lat="34.8011279" lon="9.1116949"><ele>453.0</ele><time>2026-05-01T09:12:25.468Z</time></trkpt><trkpt lat="34.801305" lon="9.1118078"><ele>453.0</ele><time>2026-05-01T09:12:26.469Z</time></trkpt><trkpt lat="34.8014805" lon="9.1119192"><ele>453.0</ele><time>2026-05-01T09:12:27.455Z</time></trkpt><trkpt lat="34.8016546" lon="9.1120337"><ele>453.0</ele><time>2026-05-01T09:12:28.467Z</time></trkpt><trkpt lat="34.8018268" lon="9.1121502"><ele>452.66666666666663</ele><time>2026-05-01T09:12:29.44Z</time></trkpt><trkpt lat="34.8019998" lon="9.1122677"><ele>452.3333333333333</ele><time>2026-05-01T09:12:30.471Z</time></trkpt><trkpt lat="34.8021743" lon="9.1123889"><ele>452.0</ele><time>2026-05-01T09:12:31.458Z</time></trkpt><trkpt lat="34.8023479" lon="9.1125086"><ele>452.0</ele><time>2026-05-01T09:12:32.473Z</time></trkpt><trkpt lat="34.8025193" lon="9.1126306"><ele>452.0</ele><time>2026-05-01T09:12:33.467Z</time></trkpt><trkpt lat="34.8026925" lon="9.1127544"><ele>452.0</ele><time>2026-05-01T09:12:34.429Z</time></trkpt><trkpt lat="34.8028662" lon="9.1128756"><ele>452.3333333333333</ele><time>2026-05-01T09:12:35.46Z</time></trkpt><trkpt lat="34.8030426" lon="9.1130011"><ele>452.66666666666663</ele><time>2026-05-01T09:12:36.46Z</time></trkpt><trkpt lat="34.8032137" lon="9.1131247"><ele>453.0</ele><time>2026-05-01T09:12:37.47Z</time></trkpt><trkpt lat="34.8033875" lon="9.1132484"><ele>453.0</ele><time>2026-05-01T09:12:38.46Z</time></trkpt><trkpt lat="34.8035602" lon="9.1133695"><ele>453.0</ele><time>2026-05-01T09:12:39.475Z</time></trkpt><trkpt lat="34.8037323" lon="9.113489"><ele>453.0</ele><time>2026-05-01T09:12:40.466Z</time></trkpt><trkpt lat="34.8039023" lon="9.1136121"><ele>453.0</ele><time>2026-05-01T09:12:41.472Z</time></trkpt><trkpt lat="34.8040724" lon="9.1137342"><ele>453.0</ele><time>2026-05-01T09:12:42.469Z</time></trkpt><trkpt lat="34.8042431" lon="9.1138557"><ele>453.0</ele><time>2026-05-01T09:12:43.474Z</time></trkpt><trkpt lat="34.8044139" lon="9.1139753"><ele>452.66666666666663</ele><time>2026-05-01T09:12:44.467Z</time></trkpt><trkpt lat="34.8045847" lon="9.1140995"><ele>452.3333333333333</ele><time>2026-05-01T09:12:45.472Z</time></trkpt><trkpt lat="34.8047587" lon="9.1142178"><ele>452.0</ele><time>2026-05-01T09:12:46.469Z</time></trkpt><trkpt lat="34.8049303" lon="9.1143357"><ele>452.0</ele><time>2026-05-01T09:12:47.452Z</time></trkpt><trkpt lat="34.8050981" lon="9.1144663"><ele>452.0</ele><time>2026-05-01T09:12:48.458Z</time></trkpt><trkpt lat="34.8052658" lon="9.1145961"><ele>452.0</ele><time>2026-05-01T09:12:49.472Z</time></trkpt><trkpt lat="34.8054347" lon="9.1147185"><ele>451.66666666666663</ele><time>2026-05-01T09:12:50.462Z</time></trkpt><trkpt lat="34.8056056" lon="9.1148436"><ele>451.33333333333337</ele><time>2026-05-01T09:12:51.45Z</time></trkpt><trkpt lat="34.8057776" lon="9.1149716"><ele>451.0</ele><time>2026-05-01T09:12:52.443Z</time></trkpt><trkpt lat="34.8059529" lon="9.1150975"><ele>451.0</ele><time>2026-05-01T09:12:53.464Z</time></trkpt><trkpt lat="34.8061245" lon="9.1152235"><ele>451.0</ele><time>2026-05-01T09:12:54.449Z</time></trkpt><trkpt lat="34.8062956" lon="9.1153453"><ele>451.0</ele><time>2026-05-01T09:12:55.463Z</time></trkpt><trkpt lat="34.8064682" lon="9.1154707"><ele>451.0</ele><time>2026-05-01T09:12:56.47Z</time></trkpt><trkpt lat="34.806643" lon="9.1155922"><ele>451.0</ele><time>2026-05-01T09:12:57.454Z</time></trkpt><trkpt lat="34.8068155" lon="9.1157107"><ele>451.0</ele><time>2026-05-01T09:12:58.467Z</time></trkpt><trkpt lat="34.8069898" lon="9.115829"><ele>451.33333333333337</ele><time>2026-05-01T09:12:59.471Z</time></trkpt><trkpt lat="34.807159" lon="9.1159382"><ele>451.66666666666663</ele><time>2026-05-01T09:13:00.466Z</time></trkpt><trkpt lat="34.8073153" lon="9.1160413"><ele>452.0</ele><time>2026-05-01T09:13:01.47Z</time></trkpt><trkpt lat="34.8074583" lon="9.1161332"><ele>452.0</ele><time>2026-05-01T09:13:02.446Z</time></trkpt><trkpt lat="34.8075837" lon="9.1162107"><ele>452.00000000000006</ele><time>2026-05-01T09:13:03.464Z</time></trkpt><trkpt lat="34.8076943" lon="9.1162837"><ele>452.00000000000006</ele><time>2026-05-01T09:13:04.471Z</time></trkpt><trkpt lat="34.8077808" lon="9.1163376"><ele>452.0</ele><time>2026-05-01T09:13:05.47Z</time></trkpt><trkpt lat="34.807853" lon="9.1163865"><ele>452.0</ele><time>2026-05-01T09:13:06.438Z</time></trkpt><trkpt lat="34.8079246" lon="9.1164332"><ele>452.20000000000005</ele><time>2026-05-01T09:13:07.467Z</time></trkpt><trkpt lat="34.8079926" lon="9.1164762"><ele>452.40000000000003</ele><time>2026-05-01T09:13:08.479Z</time></trkpt><trkpt lat="34.8080661" lon="9.1165285"><ele>452.59999999999997</ele><time>2026-05-01T09:13:09.481Z</time></trkpt><trkpt lat="34.8081461" lon="9.116583"><ele>452.79999999999995</ele><time>2026-05-01T09:13:10.442Z</time></trkpt><trkpt lat="34.8082328" lon="9.1166402"><ele>453.0</ele><time>2026-05-01T09:13:11.471Z</time></trkpt><trkpt lat="34.8083264" lon="9.1166996"><ele>453.0</ele><time>2026-05-01T09:13:12.475Z</time></trkpt><trkpt lat="34.8084163" lon="9.1167554"><ele>452.99999999999994</ele><time>2026-05-01T09:13:13.48Z</time></trkpt><trkpt lat="34.8084958" lon="9.1168028"><ele>452.99999999999994</ele><time>2026-05-01T09:13:14.477Z</time></trkpt><trkpt lat="34.8085737" lon="9.1168517"><ele>453.0</ele><time>2026-05-01T09:13:15.46Z</time></trkpt><trkpt lat="34.8086592" lon="9.1169034"><ele>453.0</ele><time>2026-05-01T09:13:16.471Z</time></trkpt><trkpt lat="34.8087545" lon="9.1169678"><ele>453.0</ele><time>2026-05-01T09:13:17.443Z</time></trkpt><trkpt lat="34.80887" lon="9.1170511"><ele>453.0</ele><time>2026-05-01T09:13:18.469Z</time></trkpt><trkpt lat="34.808999" lon="9.1171377"><ele>453.0</ele><time>2026-05-01T09:13:19.472Z</time></trkpt><trkpt lat="34.8091343" lon="9.1172187"><ele>453.0</ele><time>2026-05-01T09:13:20.47Z</time></trkpt><trkpt lat="34.809283" lon="9.1173073"><ele>452.66666666666663</ele><time>2026-05-01T09:13:21.457Z</time></trkpt><trkpt lat="34.8094317" lon="9.1173983"><ele>452.3333333333333</ele><time>2026-05-01T09:13:22.423Z</time></trkpt><trkpt lat="34.8095804" lon="9.1174896"><ele>452.0</ele><time>2026-05-01T09:13:23.425Z</time></trkpt><trkpt lat="34.809726" lon="9.1175873"><ele>452.66666666666663</ele><time>2026-05-01T09:13:24.469Z</time></trkpt><trkpt lat="34.8098712" lon="9.11768"><ele>453.33333333333337</ele><time>2026-05-01T09:13:25.45Z</time></trkpt><trkpt lat="34.8100163" lon="9.1177713"><ele>454.0</ele><time>2026-05-01T09:13:26.463Z</time></trkpt><trkpt lat="34.8101575" lon="9.1178587"><ele>453.6666666666667</ele><time>2026-05-01T09:13:27.441Z</time></trkpt><trkpt lat="34.8103032" lon="9.117948"><ele>453.33333333333337</ele><time>2026-05-01T09:13:28.47Z</time></trkpt><trkpt lat="34.8104512" lon="9.1180452"><ele>453.0</ele><time>2026-05-01T09:13:29.479Z</time></trkpt><trkpt lat="34.8105962" lon="9.1181379"><ele>453.0</ele><time>2026-05-01T09:13:30.465Z</time></trkpt><trkpt lat="34.8107421" lon="9.1182323"><ele>453.0</ele><time>2026-05-01T09:13:31.438Z</time></trkpt><trkpt lat="34.8108886" lon="9.1183269"><ele>453.0</ele><time>2026-05-01T09:13:32.455Z</time></trkpt><trkpt lat="34.8110321" lon="9.1184171"><ele>453.0</ele><time>2026-05-01T09:13:33.48Z</time></trkpt><trkpt lat="34.8111726" lon="9.1185074"><ele>453.0</ele><time>2026-05-01T09:13:34.467Z</time></trkpt><trkpt lat="34.8113126" lon="9.1185924"><ele>453.0</ele><time>2026-05-01T09:13:35.464Z</time></trkpt><trkpt lat="34.8114515" lon="9.1186762"><ele>453.0</ele><time>2026-05-01T09:13:36.465Z</time></trkpt><trkpt lat="34.8115913" lon="9.1187634"><ele>453.0</ele><time>2026-05-01T09:13:37.459Z</time></trkpt><trkpt lat="34.8117267" lon="9.1188504"><ele>453.0</ele><time>2026-05-01T09:13:38.442Z</time></trkpt><trkpt lat="34.8118687" lon="9.1189403"><ele>453.33333333333337</ele><time>2026-05-01T09:13:39.483Z</time></trkpt><trkpt lat="34.8120083" lon="9.1190277"><ele>453.6666666666667</ele><time>2026-05-01T09:13:40.44Z</time></trkpt><trkpt lat="34.8121463" lon="9.1191094"><ele>454.0</ele><time>2026-05-01T09:13:41.465Z</time></trkpt><trkpt lat="34.8122827" lon="9.1191983"><ele>454.0</ele><time>2026-05-01T09:13:42.444Z</time></trkpt><trkpt lat="34.8124204" lon="9.1192911"><ele>454.0</ele><time>2026-05-01T09:13:43.461Z</time></trkpt><trkpt lat="34.8125667" lon="9.1193805"><ele>454.0</ele><time>2026-05-01T09:13:44.475Z</time></trkpt><trkpt lat="34.8127158" lon="9.1194721"><ele>453.6666666666667</ele><time>2026-05-01T09:13:45.471Z</time></trkpt><trkpt lat="34.8128647" lon="9.1195639"><ele>453.33333333333337</ele><time>2026-05-01T09:13:46.458Z</time></trkpt><trkpt lat="34.8130127" lon="9.1196562"><ele>453.0</ele><time>2026-05-01T09:13:47.424Z</time></trkpt><trkpt lat="34.8131632" lon="9.1197548"><ele>453.0</ele><time>2026-05-01T09:13:48.452Z</time></trkpt><trkpt lat="34.8133167" lon="9.1198563"><ele>453.0</ele><time>2026-05-01T09:13:49.47Z</time></trkpt><trkpt lat="34.8134733" lon="9.1199622"><ele>453.0</ele><time>2026-05-01T09:13:50.472Z</time></trkpt><trkpt lat="34.8136268" lon="9.1200608"><ele>453.33333333333337</ele><time>2026-05-01T09:13:51.444Z</time></trkpt><trkpt lat="34.8137878" lon="9.1201543"><ele>453.6666666666667</ele><time>2026-05-01T09:13:52.448Z</time></trkpt><trkpt lat="34.8139455" lon="9.1202566"><ele>454.0</ele><time>2026-05-01T09:13:53.474Z</time></trkpt><trkpt lat="34.8141074" lon="9.1203584"><ele>454.0</ele><time>2026-05-01T09:13:54.475Z</time></trkpt><trkpt lat="34.8142708" lon="9.1204595"><ele>454.0</ele><time>2026-05-01T09:13:55.43Z</time></trkpt><trkpt lat="34.8144392" lon="9.1205646"><ele>454.0</ele><time>2026-05-01T09:13:56.467Z</time></trkpt><trkpt lat="34.8146061" lon="9.1206741"><ele>454.0</ele><time>2026-05-01T09:13:57.47Z</time></trkpt><trkpt lat="34.8147754" lon="9.1207807"><ele>454.0</ele><time>2026-05-01T09:13:58.437Z</time></trkpt><trkpt lat="34.8149494" lon="9.120891"><ele>454.0</ele><time>2026-05-01T09:13:59.421Z</time></trkpt><trkpt lat="34.8151236" lon="9.1209968"><ele>454.0</ele><time>2026-05-01T09:14:00.432Z</time></trkpt><trkpt lat="34.8152961" lon="9.1211052"><ele>454.0</ele><time>2026-05-01T09:14:01.465Z</time></trkpt><trkpt lat="34.8154679" lon="9.1212176"><ele>454.0</ele><time>2026-05-01T09:14:02.445Z</time></trkpt><trkpt lat="34.8156368" lon="9.121329"><ele>454.0</ele><time>2026-05-01T09:14:03.461Z</time></trkpt><trkpt lat="34.8158115" lon="9.1214345"><ele>454.0</ele><time>2026-05-01T09:14:04.469Z</time></trkpt><trkpt lat="34.815983" lon="9.1215428"><ele>454.0</ele><time>2026-05-01T09:14:05.477Z</time></trkpt><trkpt lat="34.8161521" lon="9.1216522"><ele>454.6666666666667</ele><time>2026-05-01T09:14:06.438Z</time></trkpt><trkpt lat="34.8163195" lon="9.1217563"><ele>455.33333333333337</ele><time>2026-05-01T09:14:07.471Z</time></trkpt><trkpt lat="34.8164872" lon="9.1218611"><ele>456.0</ele><time>2026-05-01T09:14:08.483Z</time></trkpt><trkpt lat="34.8166562" lon="9.1219685"><ele>456.33333333333337</ele><time>2026-05-01T09:14:09.445Z</time></trkpt><trkpt lat="34.8168194" lon="9.1220701"><ele>456.6666666666667</ele><time>2026-05-01T09:14:10.456Z</time></trkpt><trkpt lat="34.8169841" lon="9.1221726"><ele>457.0</ele><time>2026-05-01T09:14:11.479Z</time></trkpt><trkpt lat="34.8171477" lon="9.1222807"><ele>457.0</ele><time>2026-05-01T09:14:12.472Z</time></trkpt><trkpt lat="34.8173111" lon="9.1223881"><ele>457.0</ele><time>2026-05-01T09:14:13.464Z</time></trkpt><trkpt lat="34.8174782" lon="9.1224896"><ele>457.0</ele><time>2026-05-01T09:14:14.474Z</time></trkpt><trkpt lat="34.8176444" lon="9.1225904"><ele>457.0</ele><time>2026-05-01T09:14:15.479Z</time></trkpt><trkpt lat="34.8178171" lon="9.1227005"><ele>457.0</ele><time>2026-05-01T09:14:16.467Z</time></trkpt><trkpt lat="34.8179909" lon="9.1228052"><ele>457.0</ele><time>2026-05-01T09:14:17.436Z</time></trkpt><trkpt lat="34.8181584" lon="9.1229144"><ele>457.0</ele><time>2026-05-01T09:14:18.467Z</time></trkpt><trkpt lat="34.8183323" lon="9.1230233"><ele>457.0</ele><time>2026-05-01T09:14:19.46Z</time></trkpt><trkpt lat="34.8185" lon="9.123126"><ele>457.0</ele><time>2026-05-01T09:14:20.47Z</time></trkpt><trkpt lat="34.8186699" lon="9.1232344"><ele>457.0</ele><time>2026-05-01T09:14:21.466Z</time></trkpt><trkpt lat="34.8188446" lon="9.1233429"><ele>457.0</ele><time>2026-05-01T09:14:22.444Z</time></trkpt><trkpt lat="34.8190202" lon="9.1234538"><ele>457.0</ele><time>2026-05-01T09:14:23.458Z</time></trkpt><trkpt lat="34.8192028" lon="9.1235703"><ele>457.0</ele><time>2026-05-01T09:14:24.472Z</time></trkpt><trkpt lat="34.8193851" lon="9.1236884"><ele>457.0</ele><time>2026-05-01T09:14:25.476Z</time></trkpt><trkpt lat="34.8195614" lon="9.1238052"><ele>457.0</ele><time>2026-05-01T09:14:26.413Z</time></trkpt><trkpt lat="34.8197364" lon="9.1239174"><ele>457.0</ele><time>2026-05-01T09:14:27.463Z</time></trkpt><trkpt lat="34.8199163" lon="9.1240356"><ele>457.0</ele><time>2026-05-01T09:14:28.469Z</time></trkpt><trkpt lat="34.8200993" lon="9.1241501"><ele>457.0</ele><time>2026-05-01T09:14:29.459Z</time></trkpt><trkpt lat="34.8202836" lon="9.1242661"><ele>456.33333333333337</ele><time>2026-05-01T09:14:30.461Z</time></trkpt><trkpt lat="34.8204736" lon="9.1243864"><ele>455.66666666666663</ele><time>2026-05-01T09:14:31.463Z</time></trkpt><trkpt lat="34.8206517" lon="9.1245003"><ele>455.0</ele><time>2026-05-01T09:14:32.464Z</time></trkpt><trkpt lat="34.8208335" lon="9.1246125"><ele>456.0</ele><time>2026-05-01T09:14:33.465Z</time></trkpt><trkpt lat="34.8210148" lon="9.1247236"><ele>457.0</ele><time>2026-05-01T09:14:34.477Z</time></trkpt><trkpt lat="34.8211995" lon="9.1248362"><ele>458.0</ele><time>2026-05-01T09:14:35.465Z</time></trkpt><trkpt lat="34.8213771" lon="9.1249516"><ele>458.0</ele><time>2026-05-01T09:14:36.464Z</time></trkpt><trkpt lat="34.8215561" lon="9.125067"><ele>458.0</ele><time>2026-05-01T09:14:37.447Z</time></trkpt><trkpt lat="34.8217386" lon="9.1251815"><ele>458.0</ele><time>2026-05-01T09:14:38.456Z</time></trkpt><trkpt lat="34.8219186" lon="9.1252949"><ele>458.0</ele><time>2026-05-01T09:14:39.469Z</time></trkpt><trkpt lat="34.8221006" lon="9.1254093"><ele>458.0</ele><time>2026-05-01T09:14:40.466Z</time></trkpt><trkpt lat="34.8222792" lon="9.125527"><ele>458.0</ele><time>2026-05-01T09:14:41.463Z</time></trkpt><trkpt lat="34.8224627" lon="9.1256416"><ele>458.0</ele><time>2026-05-01T09:14:42.436Z</time></trkpt><trkpt lat="34.8226419" lon="9.1257564"><ele>458.0</ele><time>2026-05-01T09:14:43.432Z</time></trkpt><trkpt lat="34.8228239" lon="9.1258721"><ele>458.0</ele><time>2026-05-01T09:14:44.467Z</time></trkpt><trkpt lat="34.8230088" lon="9.1259858"><ele>458.0</ele><time>2026-05-01T09:14:45.43Z</time></trkpt><trkpt lat="34.8231915" lon="9.1260997"><ele>458.0</ele><time>2026-05-01T09:14:46.446Z</time></trkpt><trkpt lat="34.8233688" lon="9.1262085"><ele>458.0</ele><time>2026-05-01T09:14:47.426Z</time></trkpt><trkpt lat="34.8235482" lon="9.1263215"><ele>458.0</ele><time>2026-05-01T09:14:48.476Z</time></trkpt><trkpt lat="34.8237305" lon="9.1264371"><ele>458.0</ele><time>2026-05-01T09:14:49.475Z</time></trkpt><trkpt lat="34.823911" lon="9.1265562"><ele>458.0</ele><time>2026-05-01T09:14:50.467Z</time></trkpt><trkpt lat="34.8240941" lon="9.1266717"><ele>458.0</ele><time>2026-05-01T09:14:51.465Z</time></trkpt><trkpt lat="34.8242766" lon="9.1267829"><ele>458.0</ele><time>2026-05-01T09:14:52.446Z</time></trkpt><trkpt lat="34.8244599" lon="9.1268976"><ele>458.0</ele><time>2026-05-01T09:14:53.471Z</time></trkpt><trkpt lat="34.8246394" lon="9.1270141"><ele>458.0</ele><time>2026-05-01T09:14:54.471Z</time></trkpt><trkpt lat="34.8248185" lon="9.127131"><ele>458.0</ele><time>2026-05-01T09:14:55.424Z</time></trkpt><trkpt lat="34.825001" lon="9.1272479"><ele>458.0</ele><time>2026-05-01T09:14:56.457Z</time></trkpt><trkpt lat="34.8251846" lon="9.1273663"><ele>458.66666666666663</ele><time>2026-05-01T09:14:57.442Z</time></trkpt><trkpt lat="34.8253659" lon="9.1274807"><ele>459.33333333333337</ele><time>2026-05-01T09:14:58.475Z</time></trkpt><trkpt lat="34.8255472" lon="9.1275921"><ele>460.0</ele><time>2026-05-01T09:14:59.466Z</time></trkpt><trkpt lat="34.8257313" lon="9.1277065"><ele>460.0</ele><time>2026-05-01T09:15:00.443Z</time></trkpt><trkpt lat="34.8259092" lon="9.1278133"><ele>460.0</ele><time>2026-05-01T09:15:01.465Z</time></trkpt><trkpt lat="34.8260779" lon="9.1279171"><ele>460.0</ele><time>2026-05-01T09:15:02.458Z</time></trkpt><trkpt lat="34.8262409" lon="9.128019"><ele>460.0</ele><time>2026-05-01T09:15:03.461Z</time></trkpt><trkpt lat="34.826401" lon="9.1281241"><ele>460.0</ele><time>2026-05-01T09:15:04.485Z</time></trkpt><trkpt lat="34.8265597" lon="9.1282232"><ele>460.0</ele><time>2026-05-01T09:15:05.467Z</time></trkpt><trkpt lat="34.8267161" lon="9.1283224"><ele>459.6666666666667</ele><time>2026-05-01T09:15:06.451Z</time></trkpt><trkpt lat="34.826872" lon="9.1284206"><ele>459.33333333333337</ele><time>2026-05-01T09:15:07.465Z</time></trkpt><trkpt lat="34.8270254" lon="9.1285171"><ele>459.0</ele><time>2026-05-01T09:15:08.465Z</time></trkpt><trkpt lat="34.827178" lon="9.1286163"><ele>459.0</ele><time>2026-05-01T09:15:09.474Z</time></trkpt><trkpt lat="34.8273354" lon="9.1287137"><ele>459.0</ele><time>2026-05-01T09:15:10.471Z</time></trkpt><trkpt lat="34.8274892" lon="9.1288105"><ele>459.0</ele><time>2026-05-01T09:15:11.478Z</time></trkpt><trkpt lat="34.8276491" lon="9.1289109"><ele>459.0</ele><time>2026-05-01T09:15:12.47Z</time></trkpt><trkpt lat="34.8278122" lon="9.1290211"><ele>459.0</ele><time>2026-05-01T09:15:13.479Z</time></trkpt><trkpt lat="34.82798" lon="9.1291248"><ele>459.0</ele><time>2026-05-01T09:15:14.485Z</time></trkpt><trkpt lat="34.8281469" lon="9.1292271"><ele>459.0</ele><time>2026-05-01T09:15:15.482Z</time></trkpt><trkpt lat="34.8283134" lon="9.129333"><ele>459.0</ele><time>2026-05-01T09:15:16.469Z</time></trkpt><trkpt lat="34.8284886" lon="9.1294453"><ele>459.0</ele><time>2026-05-01T09:15:17.469Z</time></trkpt><trkpt lat="34.8286662" lon="9.1295579"><ele>459.0</ele><time>2026-05-01T09:15:18.447Z</time></trkpt><trkpt lat="34.8288446" lon="9.1296673"><ele>459.0</ele><time>2026-05-01T09:15:19.482Z</time></trkpt><trkpt lat="34.8290231" lon="9.1297756"><ele>459.0</ele><time>2026-05-01T09:15:20.457Z</time></trkpt><trkpt lat="34.8291959" lon="9.1298927"><ele>459.66666666666663</ele><time>2026-05-01T09:15:21.449Z</time></trkpt><trkpt lat="34.8293726" lon="9.1300051"><ele>460.3333333333333</ele><time>2026-05-01T09:15:22.445Z</time></trkpt><trkpt lat="34.8295434" lon="9.1301122"><ele>461.0</ele><time>2026-05-01T09:15:23.457Z</time></trkpt><trkpt lat="34.8297137" lon="9.1302177"><ele>461.0</ele><time>2026-05-01T09:15:24.465Z</time></trkpt><trkpt lat="34.8298874" lon="9.1303263"><ele>461.0</ele><time>2026-05-01T09:15:25.479Z</time></trkpt><trkpt lat="34.8300557" lon="9.1304307"><ele>461.0</ele><time>2026-05-01T09:15:26.474Z</time></trkpt><trkpt lat="34.8302305" lon="9.1305412"><ele>461.0</ele><time>2026-05-01T09:15:27.469Z</time></trkpt><trkpt lat="34.8304054" lon="9.130652"><ele>461.0</ele><time>2026-05-01T09:15:28.413Z</time></trkpt><trkpt lat="34.8305786" lon="9.1307607"><ele>461.0</ele><time>2026-05-01T09:15:29.465Z</time></trkpt><trkpt lat="34.8307502" lon="9.1308705"><ele>461.0</ele><time>2026-05-01T09:15:30.467Z</time></trkpt><trkpt lat="34.8309243" lon="9.130979"><ele>461.0</ele><time>2026-05-01T09:15:31.467Z</time></trkpt><trkpt lat="34.8311008" lon="9.1310887"><ele>461.0</ele><time>2026-05-01T09:15:32.454Z</time></trkpt><trkpt lat="34.8312773" lon="9.1311996"><ele>461.0</ele><time>2026-05-01T09:15:33.472Z</time></trkpt><trkpt lat="34.8314526" lon="9.1313131"><ele>461.0</ele><time>2026-05-01T09:15:34.472Z</time></trkpt><trkpt lat="34.8316282" lon="9.1314231"><ele>461.0</ele><time>2026-05-01T09:15:35.463Z</time></trkpt><trkpt lat="34.8317993" lon="9.1315325"><ele>461.0</ele><time>2026-05-01T09:15:36.47Z</time></trkpt><trkpt lat="34.8319754" lon="9.1316431"><ele>461.0</ele><time>2026-05-01T09:15:37.475Z</time></trkpt><trkpt lat="34.8321468" lon="9.1317517"><ele>461.0</ele><time>2026-05-01T09:15:38.454Z</time></trkpt><trkpt lat="34.832317" lon="9.1318595"><ele>461.0</ele><time>2026-05-01T09:15:39.462Z</time></trkpt><trkpt lat="34.8324896" lon="9.1319702"><ele>461.0</ele><time>2026-05-01T09:15:40.477Z</time></trkpt><trkpt lat="34.8326589" lon="9.1320742"><ele>461.0</ele><time>2026-05-01T09:15:41.463Z</time></trkpt><trkpt lat="34.8328262" lon="9.1321814"><ele>461.0</ele><time>2026-05-01T09:15:42.441Z</time></trkpt><trkpt lat="34.8329963" lon="9.1322857"><ele>461.0</ele><time>2026-05-01T09:15:43.449Z</time></trkpt><trkpt lat="34.833168" lon="9.1323963"><ele>461.0</ele><time>2026-05-01T09:15:44.404Z</time></trkpt><trkpt lat="34.8333443" lon="9.1325087"><ele>460.66666666666663</ele><time>2026-05-01T09:15:45.423Z</time></trkpt><trkpt lat="34.8335129" lon="9.1326196"><ele>460.33333333333337</ele><time>2026-05-01T09:15:46.47Z</time></trkpt><trkpt lat="34.8336858" lon="9.132729"><ele>460.0</ele><time>2026-05-01T09:15:47.437Z</time></trkpt><trkpt lat="34.8338587" lon="9.1328365"><ele>460.0</ele><time>2026-05-01T09:15:48.459Z</time></trkpt><trkpt lat="34.8340317" lon="9.1329458"><ele>460.0</ele><time>2026-05-01T09:15:49.467Z</time></trkpt><trkpt lat="34.8342057" lon="9.1330516"><ele>460.0</ele><time>2026-05-01T09:15:50.474Z</time></trkpt><trkpt lat="34.8343783" lon="9.1331587"><ele>459.6666666666667</ele><time>2026-05-01T09:15:51.471Z</time></trkpt><trkpt lat="34.8345519" lon="9.1332698"><ele>459.33333333333337</ele><time>2026-05-01T09:15:52.451Z</time></trkpt><trkpt lat="34.8347264" lon="9.1333793"><ele>459.0</ele><time>2026-05-01T09:15:53.471Z</time></trkpt><trkpt lat="34.8348976" lon="9.1334887"><ele>459.0</ele><time>2026-05-01T09:15:54.479Z</time></trkpt><trkpt lat="34.8350706" lon="9.1336008"><ele>459.0</ele><time>2026-05-01T09:15:55.478Z</time></trkpt><trkpt lat="34.8352449" lon="9.1337117"><ele>459.0</ele><time>2026-05-01T09:15:56.434Z</time></trkpt><trkpt lat="34.8354168" lon="9.1338243"><ele>459.0</ele><time>2026-05-01T09:15:57.47Z</time></trkpt><trkpt lat="34.8355896" lon="9.1339326"><ele>459.0</ele><time>2026-05-01T09:15:58.453Z</time></trkpt><trkpt lat="34.8357627" lon="9.1340425"><ele>459.0</ele><time>2026-05-01T09:15:59.446Z</time></trkpt><trkpt lat="34.8359337" lon="9.1341465"><ele>459.66666666666663</ele><time>2026-05-01T09:16:00.471Z</time></trkpt><trkpt lat="34.8361073" lon="9.1342546"><ele>460.3333333333333</ele><time>2026-05-01T09:16:01.464Z</time></trkpt><trkpt lat="34.836282" lon="9.1343617"><ele>461.0</ele><time>2026-05-01T09:16:02.458Z</time></trkpt><trkpt lat="34.836456" lon="9.1344724"><ele>461.0</ele><time>2026-05-01T09:16:03.463Z</time></trkpt><trkpt lat="34.8366325" lon="9.134577"><ele>461.0</ele><time>2026-05-01T09:16:04.462Z</time></trkpt><trkpt lat="34.8368017" lon="9.1346868"><ele>461.0</ele><time>2026-05-01T09:16:05.474Z</time></trkpt><trkpt lat="34.8369708" lon="9.1347974"><ele>460.66666666666663</ele><time>2026-05-01T09:16:06.473Z</time></trkpt><trkpt lat="34.8371467" lon="9.1349103"><ele>460.33333333333337</ele><time>2026-05-01T09:16:07.47Z</time></trkpt><trkpt lat="34.8373196" lon="9.1350217"><ele>460.0</ele><time>2026-05-01T09:16:08.433Z</time></trkpt><trkpt lat="34.8374922" lon="9.1351293"><ele>460.0</ele><time>2026-05-01T09:16:09.449Z</time></trkpt><trkpt lat="34.8376662" lon="9.1352369"><ele>460.0</ele><time>2026-05-01T09:16:10.476Z</time></trkpt><trkpt lat="34.8378416" lon="9.1353467"><ele>460.0</ele><time>2026-05-01T09:16:11.489Z</time></trkpt><trkpt lat="34.8380103" lon="9.1354567"><ele>460.0</ele><time>2026-05-01T09:16:12.475Z</time></trkpt><trkpt lat="34.8381843" lon="9.135566"><ele>460.0</ele><time>2026-05-01T09:16:13.492Z</time></trkpt><trkpt lat="34.8383614" lon="9.135679"><ele>460.0</ele><time>2026-05-01T09:16:14.471Z</time></trkpt><trkpt lat="34.8385337" lon="9.1357917"><ele>460.33333333333337</ele><time>2026-05-01T09:16:15.469Z</time></trkpt><trkpt lat="34.8387034" lon="9.1358976"><ele>460.66666666666663</ele><time>2026-05-01T09:16:16.465Z</time></trkpt><trkpt lat="34.8388782" lon="9.1360057"><ele>461.0</ele><time>2026-05-01T09:16:17.472Z</time></trkpt><trkpt lat="34.8390497" lon="9.136116"><ele>461.0</ele><time>2026-05-01T09:16:18.438Z</time></trkpt><trkpt lat="34.8392161" lon="9.1362232"><ele>461.0</ele><time>2026-05-01T09:16:19.478Z</time></trkpt><trkpt lat="34.839375" lon="9.1363224"><ele>461.0</ele><time>2026-05-01T09:16:20.425Z</time></trkpt><trkpt lat="34.8395316" lon="9.1364252"><ele>461.0</ele><time>2026-05-01T09:16:21.456Z</time></trkpt><trkpt lat="34.8396765" lon="9.1365168"><ele>461.0</ele><time>2026-05-01T09:16:22.478Z</time></trkpt><trkpt lat="34.8398125" lon="9.1366"><ele>461.0</ele><time>2026-05-01T09:16:23.46Z</time></trkpt><trkpt lat="34.8399446" lon="9.1366785"><ele>460.75</ele><time>2026-05-01T09:16:24.469Z</time></trkpt><trkpt lat="34.8400685" lon="9.1367562"><ele>460.5</ele><time>2026-05-01T09:16:25.466Z</time></trkpt><trkpt lat="34.8402017" lon="9.136845"><ele>460.25</ele><time>2026-05-01T09:16:26.477Z</time></trkpt><trkpt lat="34.8403284" lon="9.1369252"><ele>460.0</ele><time>2026-05-01T09:16:27.485Z</time></trkpt><trkpt lat="34.8404534" lon="9.1370022"><ele>460.5</ele><time>2026-05-01T09:16:28.406Z</time></trkpt><trkpt lat="34.8405715" lon="9.1370779"><ele>461.0</ele><time>2026-05-01T09:16:29.466Z</time></trkpt><trkpt lat="34.8406928" lon="9.1371483"><ele>461.5</ele><time>2026-05-01T09:16:30.472Z</time></trkpt><trkpt lat="34.8408075" lon="9.137222"><ele>462.0</ele><time>2026-05-01T09:16:31.436Z</time></trkpt><trkpt lat="34.8409081" lon="9.1372916"><ele>462.0</ele><time>2026-05-01T09:16:32.472Z</time></trkpt><trkpt lat="34.8410027" lon="9.1373543"><ele>462.00000000000006</ele><time>2026-05-01T09:16:33.466Z</time></trkpt><trkpt lat="34.8410888" lon="9.1374105"><ele>462.00000000000006</ele><time>2026-05-01T09:16:34.43Z</time></trkpt><trkpt lat="34.8411716" lon="9.1374628"><ele>462.0</ele><time>2026-05-01T09:16:35.412Z</time></trkpt><trkpt lat="34.8412484" lon="9.1375172"><ele>462.0</ele><time>2026-05-01T09:16:36.47Z</time></trkpt><trkpt lat="34.84132" lon="9.1375622"><ele>462.0</ele><time>2026-05-01T09:16:37.455Z</time></trkpt><trkpt lat="34.8413844" lon="9.1376088"><ele>462.00000000000006</ele><time>2026-05-01T09:16:38.425Z</time></trkpt><trkpt lat="34.8414515" lon="9.1376523"><ele>462.00000000000006</ele><time>2026-05-01T09:16:39.47Z</time></trkpt><trkpt lat="34.8415254" lon="9.1377024"><ele>462.0</ele><time>2026-05-01T09:16:40.464Z</time></trkpt><trkpt lat="34.841612" lon="9.1377623"><ele>462.0</ele><time>2026-05-01T09:16:41.462Z</time></trkpt><trkpt lat="34.8417188" lon="9.1378304"><ele>461.75</ele><time>2026-05-01T09:16:42.447Z</time></trkpt><trkpt lat="34.8418319" lon="9.1378952"><ele>461.5</ele><time>2026-05-01T09:16:43.471Z</time></trkpt><trkpt lat="34.841949" lon="9.1379661"><ele>461.25</ele><time>2026-05-01T09:16:44.475Z</time></trkpt><trkpt lat="34.8420566" lon="9.1380326"><ele>461.0</ele><time>2026-05-01T09:16:45.455Z</time></trkpt><trkpt lat="34.8421646" lon="9.1381006"><ele>461.0</ele><time>2026-05-01T09:16:46.442Z</time></trkpt><trkpt lat="34.8422708" lon="9.1381725"><ele>461.0</ele><time>2026-05-01T09:16:47.445Z</time></trkpt><trkpt lat="34.8423705" lon="9.1382419"><ele>461.0</ele><time>2026-05-01T09:16:48.483Z</time></trkpt><trkpt lat="34.84247" lon="9.138306"><ele>461.0</ele><time>2026-05-01T09:16:49.466Z</time></trkpt><trkpt lat="34.8425763" lon="9.1383674"><ele>461.25</ele><time>2026-05-01T09:16:50.478Z</time></trkpt><trkpt lat="34.842683" lon="9.1384342"><ele>461.5</ele><time>2026-05-01T09:16:51.46Z</time></trkpt><trkpt lat="34.8427921" lon="9.1384993"><ele>461.75</ele><time>2026-05-01T09:16:52.442Z</time></trkpt><trkpt lat="34.8428938" lon="9.1385684"><ele>462.0</ele><time>2026-05-01T09:16:53.465Z</time></trkpt><trkpt lat="34.8429916" lon="9.1386321"><ele>462.0</ele><time>2026-05-01T09:16:54.468Z</time></trkpt><trkpt lat="34.8430862" lon="9.1386968"><ele>462.00000000000006</ele><time>2026-05-01T09:16:55.474Z</time></trkpt><trkpt lat="34.8431675" lon="9.1387527"><ele>462.00000000000006</ele><time>2026-05-01T09:16:56.449Z</time></trkpt><trkpt lat="34.8432489" lon="9.1388163"><ele>462.0</ele><time>2026-05-01T09:16:57.429Z</time></trkpt><trkpt lat="34.8433271" lon="9.1388829"><ele>462.0</ele><time>2026-05-01T09:16:58.467Z</time></trkpt><trkpt lat="34.8434049" lon="9.1389489"><ele>462.20000000000005</ele><time>2026-05-01T09:16:59.47Z</time></trkpt><trkpt lat="34.843494" lon="9.1390098"><ele>462.40000000000003</ele><time>2026-05-01T09:17:00.477Z</time></trkpt><trkpt lat="34.8435894" lon="9.139056"><ele>462.59999999999997</ele><time>2026-05-01T09:17:01.411Z</time></trkpt><trkpt lat="34.8436801" lon="9.1391036"><ele>462.79999999999995</ele><time>2026-05-01T09:17:02.429Z</time></trkpt><trkpt lat="34.843762" lon="9.1391404"><ele>463.0</ele><time>2026-05-01T09:17:03.415Z</time></trkpt><trkpt lat="34.8438349" lon="9.1391816"><ele>462.59999999999997</ele><time>2026-05-01T09:17:04.428Z</time></trkpt><trkpt lat="34.8438936" lon="9.1392128"><ele>462.19999999999993</ele><time>2026-05-01T09:17:05.429Z</time></trkpt><trkpt lat="34.8440097" lon="9.1392858"><ele>461.8</ele><time>2026-05-01T09:17:07.433Z</time></trkpt><trkpt lat="34.8440792" lon="9.1393297"><ele>461.4</ele><time>2026-05-01T09:17:08.435Z</time></trkpt><trkpt lat="34.8441527" lon="9.1393732"><ele>461.0</ele><time>2026-05-01T09:17:09.441Z</time></trkpt><trkpt lat="34.8442365" lon="9.1394273"><ele>460.6</ele><time>2026-05-01T09:17:10.418Z</time></trkpt><trkpt lat="34.8443268" lon="9.139483"><ele>460.20000000000005</ele><time>2026-05-01T09:17:11.468Z</time></trkpt><trkpt lat="34.8444177" lon="9.1395321"><ele>459.79999999999995</ele><time>2026-05-01T09:17:12.432Z</time></trkpt><trkpt lat="34.844506" lon="9.139582"><ele>459.4</ele><time>2026-05-01T09:17:13.415Z</time></trkpt><trkpt lat="34.8445945" lon="9.1396344"><ele>459.0</ele><time>2026-05-01T09:17:14.443Z</time></trkpt><trkpt lat="34.8446679" lon="9.1396861"><ele>459.0</ele><time>2026-05-01T09:17:15.438Z</time></trkpt><trkpt lat="34.8447406" lon="9.1397362"><ele>459.0</ele><time>2026-05-01T09:17:16.45Z</time></trkpt><trkpt lat="34.8448122" lon="9.1397815"><ele>459.0</ele><time>2026-05-01T09:17:17.421Z</time></trkpt><trkpt lat="34.8448964" lon="9.1398345"><ele>459.0</ele><time>2026-05-01T09:17:18.415Z</time></trkpt><trkpt lat="34.844981" lon="9.1398856"><ele>459.0</ele><time>2026-05-01T09:17:19.46Z</time></trkpt><trkpt lat="34.845064" lon="9.1399322"><ele>459.0</ele><time>2026-05-01T09:17:20.455Z</time></trkpt><trkpt lat="34.8451479" lon="9.139991"><ele>459.3333333333333</ele><time>2026-05-01T09:17:21.47Z</time></trkpt><trkpt lat="34.8452234" lon="9.1400388"><ele>459.66666666666663</ele><time>2026-05-01T09:17:22.46Z</time></trkpt><trkpt lat="34.8452989" lon="9.1400839"><ele>460.0</ele><time>2026-05-01T09:17:23.469Z</time></trkpt><trkpt lat="34.8453691" lon="9.1401246"><ele>460.3333333333333</ele><time>2026-05-01T09:17:24.407Z</time></trkpt><trkpt lat="34.8454246" lon="9.1401684"><ele>460.66666666666663</ele><time>2026-05-01T09:17:25.462Z</time></trkpt><trkpt lat="34.8455357" lon="9.1402398"><ele>461.0</ele><time>2026-05-01T09:17:27.471Z</time></trkpt><trkpt lat="34.845607" lon="9.1402834"><ele>461.0</ele><time>2026-05-01T09:17:28.444Z</time></trkpt><trkpt lat="34.8456853" lon="9.1403298"><ele>461.0</ele><time>2026-05-01T09:17:29.44Z</time></trkpt><trkpt lat="34.8457722" lon="9.1403785"><ele>461.0</ele><time>2026-05-01T09:17:30.455Z</time></trkpt><trkpt lat="34.845862" lon="9.1404267"><ele>461.0</ele><time>2026-05-01T09:17:31.463Z</time></trkpt><trkpt lat="34.8459495" lon="9.1404816"><ele>461.0</ele><time>2026-05-01T09:17:32.462Z</time></trkpt><trkpt lat="34.8460366" lon="9.1405386"><ele>461.20000000000005</ele><time>2026-05-01T09:17:33.465Z</time></trkpt><trkpt lat="34.8461213" lon="9.14059"><ele>461.40000000000003</ele><time>2026-05-01T09:17:34.428Z</time></trkpt><trkpt lat="34.8462018" lon="9.1406392"><ele>461.6</ele><time>2026-05-01T09:17:35.468Z</time></trkpt><trkpt lat="34.846284" lon="9.1406893"><ele>461.8</ele><time>2026-05-01T09:17:36.443Z</time></trkpt><trkpt lat="34.8463663" lon="9.1407384"><ele>462.0</ele><time>2026-05-01T09:17:37.473Z</time></trkpt><trkpt lat="34.8464537" lon="9.1407905"><ele>462.0</ele><time>2026-05-01T09:17:38.44Z</time></trkpt><trkpt lat="34.8465344" lon="9.1408407"><ele>462.00000000000006</ele><time>2026-05-01T09:17:39.471Z</time></trkpt><trkpt lat="34.8466148" lon="9.1408941"><ele>462.00000000000006</ele><time>2026-05-01T09:17:40.473Z</time></trkpt><trkpt lat="34.8466947" lon="9.1409444"><ele>462.0</ele><time>2026-05-01T09:17:41.465Z</time></trkpt><trkpt lat="34.846782" lon="9.1409996"><ele>462.0</ele><time>2026-05-01T09:17:42.426Z</time></trkpt><trkpt lat="34.8468768" lon="9.1410613"><ele>461.75</ele><time>2026-05-01T09:17:43.479Z</time></trkpt><trkpt lat="34.8469778" lon="9.1411213"><ele>461.5</ele><time>2026-05-01T09:17:44.471Z</time></trkpt><trkpt lat="34.8470806" lon="9.141188"><ele>461.25</ele><time>2026-05-01T09:17:45.471Z</time></trkpt><trkpt lat="34.847181" lon="9.1412476"><ele>461.0</ele><time>2026-05-01T09:17:46.468Z</time></trkpt><trkpt lat="34.8472804" lon="9.1413132"><ele>461.0</ele><time>2026-05-01T09:17:47.456Z</time></trkpt><trkpt lat="34.8473834" lon="9.1413783"><ele>461.0</ele><time>2026-05-01T09:17:48.471Z</time></trkpt><trkpt lat="34.8474953" lon="9.1414483"><ele>461.0</ele><time>2026-05-01T09:17:49.459Z</time></trkpt><trkpt lat="34.8475987" lon="9.1415111"><ele>461.0</ele><time>2026-05-01T09:17:50.435Z</time></trkpt><trkpt lat="34.8477011" lon="9.1415729"><ele>461.0</ele><time>2026-05-01T09:17:51.463Z</time></trkpt><trkpt lat="34.8477991" lon="9.14164"><ele>461.0</ele><time>2026-05-01T09:17:52.469Z</time></trkpt><trkpt lat="34.8478996" lon="9.1417056"><ele>461.0</ele><time>2026-05-01T09:17:53.464Z</time></trkpt><trkpt lat="34.8480032" lon="9.1417717"><ele>461.0</ele><time>2026-05-01T09:17:54.46Z</time></trkpt><trkpt lat="34.8481044" lon="9.1418404"><ele>461.0</ele><time>2026-05-01T09:17:55.453Z</time></trkpt><trkpt lat="34.8482107" lon="9.1419058"><ele>461.0</ele><time>2026-05-01T09:17:56.464Z</time></trkpt><trkpt lat="34.8483175" lon="9.1419743"><ele>461.0</ele><time>2026-05-01T09:17:57.466Z</time></trkpt><trkpt lat="34.8484255" lon="9.1420451"><ele>461.0</ele><time>2026-05-01T09:17:58.47Z</time></trkpt><trkpt lat="34.8485329" lon="9.1421161"><ele>461.25</ele><time>2026-05-01T09:17:59.462Z</time></trkpt><trkpt lat="34.8486422" lon="9.1421802"><ele>461.5</ele><time>2026-05-01T09:18:00.469Z</time></trkpt><trkpt lat="34.8487494" lon="9.1422482"><ele>461.75</ele><time>2026-05-01T09:18:01.468Z</time></trkpt><trkpt lat="34.848856" lon="9.1423163"><ele>462.0</ele><time>2026-05-01T09:18:02.468Z</time></trkpt><trkpt lat="34.848965" lon="9.1423771"><ele>462.0</ele><time>2026-05-01T09:18:03.442Z</time></trkpt><trkpt lat="34.849069" lon="9.1424398"><ele>462.0</ele><time>2026-05-01T09:18:04.462Z</time></trkpt><trkpt lat="34.8491544" lon="9.1424984"><ele>462.0</ele><time>2026-05-01T09:18:05.448Z</time></trkpt><trkpt lat="34.8492233" lon="9.1425461"><ele>462.0</ele><time>2026-05-01T09:18:06.471Z</time></trkpt><trkpt lat="34.8492786" lon="9.1425851"><ele>462.0</ele><time>2026-05-01T09:18:07.439Z</time></trkpt><trkpt lat="34.8493389" lon="9.1426242"><ele>462.0</ele><time>2026-05-01T09:18:08.468Z</time></trkpt><trkpt lat="34.8493977" lon="9.1426636"><ele>462.0</ele><time>2026-05-01T09:18:09.46Z</time></trkpt><trkpt lat="34.8494632" lon="9.1427049"><ele>462.0</ele><time>2026-05-01T09:18:10.466Z</time></trkpt><trkpt lat="34.8495298" lon="9.1427465"><ele>462.0</ele><time>2026-05-01T09:18:11.449Z</time></trkpt><trkpt lat="34.8495997" lon="9.1427937"><ele>462.0</ele><time>2026-05-01T09:18:12.459Z</time></trkpt><trkpt lat="34.8496696" lon="9.1428459"><ele>462.0</ele><time>2026-05-01T09:18:13.47Z</time></trkpt><trkpt lat="34.8497407" lon="9.1428833"><ele>462.0</ele><time>2026-05-01T09:18:14.451Z</time></trkpt><trkpt lat="34.8498263" lon="9.1429337"><ele>462.0</ele><time>2026-05-01T09:18:15.462Z</time></trkpt><trkpt lat="34.8499156" lon="9.1429889"><ele>462.00000000000006</ele><time>2026-05-01T09:18:16.461Z</time></trkpt><trkpt lat="34.8500034" lon="9.1430507"><ele>462.00000000000006</ele><time>2026-05-01T09:18:17.464Z</time></trkpt><trkpt lat="34.8500932" lon="9.1431135"><ele>462.0</ele><time>2026-05-01T09:18:18.458Z</time></trkpt><trkpt lat="34.8501823" lon="9.1431682"><ele>462.0</ele><time>2026-05-01T09:18:19.469Z</time></trkpt><trkpt lat="34.8502696" lon="9.1432214"><ele>462.0</ele><time>2026-05-01T09:18:20.474Z</time></trkpt><trkpt lat="34.8503597" lon="9.1432769"><ele>462.00000000000006</ele><time>2026-05-01T09:18:21.461Z</time></trkpt><trkpt lat="34.8504505" lon="9.1433332"><ele>462.00000000000006</ele><time>2026-05-01T09:18:22.463Z</time></trkpt><trkpt lat="34.8505435" lon="9.1433904"><ele>462.0</ele><time>2026-05-01T09:18:23.42Z</time></trkpt><trkpt lat="34.8506401" lon="9.1434459"><ele>462.0</ele><time>2026-05-01T09:18:24.464Z</time></trkpt><trkpt lat="34.8507433" lon="9.1435069"><ele>462.0</ele><time>2026-05-01T09:18:25.47Z</time></trkpt><trkpt lat="34.8508441" lon="9.1435674"><ele>462.0</ele><time>2026-05-01T09:18:26.471Z</time></trkpt><trkpt lat="34.8509444" lon="9.1436292"><ele>462.0</ele><time>2026-05-01T09:18:27.475Z</time></trkpt><trkpt lat="34.8510444" lon="9.143696"><ele>462.0</ele><time>2026-05-01T09:18:28.471Z</time></trkpt><trkpt lat="34.8511417" lon="9.1437608"><ele>462.0</ele><time>2026-05-01T09:18:29.458Z</time></trkpt><trkpt lat="34.8512319" lon="9.143827"><ele>462.00000000000006</ele><time>2026-05-01T09:18:30.468Z</time></trkpt><trkpt lat="34.8513232" lon="9.1438862"><ele>462.00000000000006</ele><time>2026-05-01T09:18:31.467Z</time></trkpt><trkpt lat="34.8514128" lon="9.1439413"><ele>462.0</ele><time>2026-05-01T09:18:32.468Z</time></trkpt><trkpt lat="34.8515031" lon="9.1440006"><ele>462.0</ele><time>2026-05-01T09:18:33.478Z</time></trkpt><trkpt lat="34.8515929" lon="9.1440574"><ele>462.0</ele><time>2026-05-01T09:18:34.468Z</time></trkpt><trkpt lat="34.8516797" lon="9.144112"><ele>462.00000000000006</ele><time>2026-05-01T09:18:35.471Z</time></trkpt><trkpt lat="34.851767" lon="9.1441664"><ele>462.00000000000006</ele><time>2026-05-01T09:18:36.477Z</time></trkpt><trkpt lat="34.8518569" lon="9.1442228"><ele>462.0</ele><time>2026-05-01T09:18:37.425Z</time></trkpt><trkpt lat="34.8519439" lon="9.1442791"><ele>462.0</ele><time>2026-05-01T09:18:38.443Z</time></trkpt><trkpt lat="34.8520238" lon="9.1443326"><ele>462.0</ele><time>2026-05-01T09:18:39.435Z</time></trkpt><trkpt lat="34.8520973" lon="9.1443804"><ele>462.00000000000006</ele><time>2026-05-01T09:18:40.466Z</time></trkpt><trkpt lat="34.852161" lon="9.1444247"><ele>462.00000000000006</ele><time>2026-05-01T09:18:41.432Z</time></trkpt><trkpt lat="34.8522701" lon="9.144496"><ele>462.0</ele><time>2026-05-01T09:18:43.456Z</time></trkpt><trkpt lat="34.8523509" lon="9.1445559"><ele>462.0</ele><time>2026-05-01T09:18:45.461Z</time></trkpt><trkpt lat="34.852426" lon="9.1446021"><ele>462.0</ele><time>2026-05-01T09:18:47.468Z</time></trkpt><trkpt lat="34.8525402" lon="9.1446646"><ele>462.00000000000006</ele><time>2026-05-01T09:18:49.443Z</time></trkpt><trkpt lat="34.8526074" lon="9.1447011"><ele>462.00000000000006</ele><time>2026-05-01T09:18:50.418Z</time></trkpt><trkpt lat="34.8526811" lon="9.1447374"><ele>462.0</ele><time>2026-05-01T09:18:51.46Z</time></trkpt><trkpt lat="34.8527615" lon="9.1447817"><ele>462.0</ele><time>2026-05-01T09:18:52.45Z</time></trkpt><trkpt lat="34.8528427" lon="9.1448237"><ele>461.8</ele><time>2026-05-01T09:18:53.446Z</time></trkpt><trkpt lat="34.8529241" lon="9.1448706"><ele>461.6</ele><time>2026-05-01T09:18:54.458Z</time></trkpt><trkpt lat="34.8530015" lon="9.1449143"><ele>461.40000000000003</ele><time>2026-05-01T09:18:55.439Z</time></trkpt><trkpt lat="34.8530838" lon="9.1449677"><ele>461.20000000000005</ele><time>2026-05-01T09:18:56.46Z</time></trkpt><trkpt lat="34.8531677" lon="9.1450214"><ele>461.0</ele><time>2026-05-01T09:18:57.456Z</time></trkpt><trkpt lat="34.8532465" lon="9.145075"><ele>461.0</ele><time>2026-05-01T09:18:58.435Z</time></trkpt><trkpt lat="34.8533234" lon="9.1451268"><ele>461.0</ele><time>2026-05-01T09:18:59.467Z</time></trkpt><trkpt lat="34.8534039" lon="9.1451838"><ele>461.0</ele><time>2026-05-01T09:19:00.462Z</time></trkpt><trkpt lat="34.8534841" lon="9.1452372"><ele>461.0</ele><time>2026-05-01T09:19:01.457Z</time></trkpt><trkpt lat="34.8535697" lon="9.145294"><ele>461.0</ele><time>2026-05-01T09:19:02.467Z</time></trkpt><trkpt lat="34.8536547" lon="9.1453443"><ele>461.20000000000005</ele><time>2026-05-01T09:19:03.435Z</time></trkpt><trkpt lat="34.8537448" lon="9.1454029"><ele>461.40000000000003</ele><time>2026-05-01T09:19:04.438Z</time></trkpt><trkpt lat="34.8538404" lon="9.1454583"><ele>461.6</ele><time>2026-05-01T09:19:05.459Z</time></trkpt><trkpt lat="34.8539308" lon="9.1455152"><ele>461.8</ele><time>2026-05-01T09:19:06.464Z</time></trkpt><trkpt lat="34.8540204" lon="9.1455683"><ele>462.0</ele><time>2026-05-01T09:19:07.457Z</time></trkpt><trkpt lat="34.8541108" lon="9.1456235"><ele>462.0</ele><time>2026-05-01T09:19:08.46Z</time></trkpt><trkpt lat="34.8542001" lon="9.1456817"><ele>462.00000000000006</ele><time>2026-05-01T09:19:09.448Z</time></trkpt><trkpt lat="34.8542964" lon="9.1457436"><ele>462.00000000000006</ele><time>2026-05-01T09:19:10.456Z</time></trkpt><trkpt lat="34.8543894" lon="9.1458042"><ele>462.0</ele><time>2026-05-01T09:19:11.456Z</time></trkpt><trkpt lat="34.854487" lon="9.1458678"><ele>462.0</ele><time>2026-05-01T09:19:12.421Z</time></trkpt><trkpt lat="34.8545848" lon="9.1459266"><ele>461.6</ele><time>2026-05-01T09:19:13.438Z</time></trkpt><trkpt lat="34.8546861" lon="9.1459884"><ele>461.20000000000005</ele><time>2026-05-01T09:19:14.469Z</time></trkpt><trkpt lat="34.8547817" lon="9.1460465"><ele>460.8</ele><time>2026-05-01T09:19:15.46Z</time></trkpt><trkpt lat="34.8548787" lon="9.1461029"><ele>460.4</ele><time>2026-05-01T09:19:16.449Z</time></trkpt><trkpt lat="34.8549739" lon="9.1461693"><ele>460.0</ele><time>2026-05-01T09:19:17.452Z</time></trkpt><trkpt lat="34.8550691" lon="9.1462299"><ele>460.0</ele><time>2026-05-01T09:19:18.464Z</time></trkpt><trkpt lat="34.8551702" lon="9.1462928"><ele>460.0</ele><time>2026-05-01T09:19:19.445Z</time></trkpt><trkpt lat="34.855274" lon="9.1463469"><ele>460.0</ele><time>2026-05-01T09:19:20.472Z</time></trkpt><trkpt lat="34.8553835" lon="9.1464157"><ele>460.0</ele><time>2026-05-01T09:19:21.464Z</time></trkpt><trkpt lat="34.8554815" lon="9.1464815"><ele>460.0</ele><time>2026-05-01T09:19:22.459Z</time></trkpt><trkpt lat="34.8555662" lon="9.1465443"><ele>460.0</ele><time>2026-05-01T09:19:23.487Z</time></trkpt><trkpt lat="34.8556415" lon="9.1465938"><ele>460.0</ele><time>2026-05-01T09:19:24.465Z</time></trkpt><trkpt lat="34.855719" lon="9.146641"><ele>460.0</ele><time>2026-05-01T09:19:25.464Z</time></trkpt><trkpt lat="34.8557975" lon="9.1466913"><ele>460.0</ele><time>2026-05-01T09:19:26.465Z</time></trkpt><trkpt lat="34.8558988" lon="9.1467531"><ele>459.75</ele><time>2026-05-01T09:19:27.41Z</time></trkpt><trkpt lat="34.8560178" lon="9.1468287"><ele>459.5</ele><time>2026-05-01T09:19:28.456Z</time></trkpt><trkpt lat="34.8561359" lon="9.1469046"><ele>459.25</ele><time>2026-05-01T09:19:29.478Z</time></trkpt><trkpt lat="34.8562575" lon="9.1469807"><ele>459.0</ele><time>2026-05-01T09:19:30.471Z</time></trkpt><trkpt lat="34.8563766" lon="9.1470614"><ele>459.0</ele><time>2026-05-01T09:19:31.469Z</time></trkpt><trkpt lat="34.8565004" lon="9.1471391"><ele>459.0</ele><time>2026-05-01T09:19:32.48Z</time></trkpt><trkpt lat="34.8566221" lon="9.1472162"><ele>459.0</ele><time>2026-05-01T09:19:33.47Z</time></trkpt><trkpt lat="34.8567354" lon="9.1472912"><ele>459.0</ele><time>2026-05-01T09:19:34.423Z</time></trkpt><trkpt lat="34.8568423" lon="9.1473529"><ele>458.79999999999995</ele><time>2026-05-01T09:19:35.476Z</time></trkpt><trkpt lat="34.8569407" lon="9.1474173"><ele>458.59999999999997</ele><time>2026-05-01T09:19:36.452Z</time></trkpt><trkpt lat="34.857036" lon="9.1474799"><ele>458.4</ele><time>2026-05-01T09:19:37.473Z</time></trkpt><trkpt lat="34.8571201" lon="9.1475355"><ele>458.2</ele><time>2026-05-01T09:19:38.448Z</time></trkpt><trkpt lat="34.857191" lon="9.1475833"><ele>458.0</ele><time>2026-05-01T09:19:39.453Z</time></trkpt><trkpt lat="34.8572524" lon="9.1476261"><ele>458.0</ele><time>2026-05-01T09:19:40.446Z</time></trkpt><trkpt lat="34.8573191" lon="9.1476696"><ele>458.0</ele><time>2026-05-01T09:19:41.464Z</time></trkpt><trkpt lat="34.8573782" lon="9.1477047"><ele>458.0</ele><time>2026-05-01T09:19:42.464Z</time></trkpt><trkpt lat="34.8574385" lon="9.1477409"><ele>458.0</ele><time>2026-05-01T09:19:43.482Z</time></trkpt><trkpt lat="34.8575059" lon="9.1477773"><ele>458.0</ele><time>2026-05-01T09:19:44.47Z</time></trkpt><trkpt lat="34.857573" lon="9.1478167"><ele>458.0</ele><time>2026-05-01T09:19:45.46Z</time></trkpt><trkpt lat="34.8576441" lon="9.147855"><ele>458.0</ele><time>2026-05-01T09:19:46.456Z</time></trkpt><trkpt lat="34.8577305" lon="9.1479064"><ele>457.75</ele><time>2026-05-01T09:19:47.463Z</time></trkpt><trkpt lat="34.8578298" lon="9.1479673"><ele>457.5</ele><time>2026-05-01T09:19:48.47Z</time></trkpt><trkpt lat="34.857937" lon="9.1480347"><ele>457.25</ele><time>2026-05-01T09:19:49.433Z</time></trkpt><trkpt lat="34.8580598" lon="9.1481191"><ele>457.0</ele><time>2026-05-01T09:19:50.449Z</time></trkpt><trkpt lat="34.858192" lon="9.1482003"><ele>457.6666666666667</ele><time>2026-05-01T09:19:51.422Z</time></trkpt><trkpt lat="34.8583216" lon="9.1482967"><ele>458.33333333333337</ele><time>2026-05-01T09:19:52.424Z</time></trkpt><trkpt lat="34.8584578" lon="9.1483874"><ele>459.0</ele><time>2026-05-01T09:19:53.405Z</time></trkpt><trkpt lat="34.85859" lon="9.1484761"><ele>459.0</ele><time>2026-05-01T09:19:54.424Z</time></trkpt><trkpt lat="34.858729" lon="9.1485648"><ele>459.0</ele><time>2026-05-01T09:19:55.427Z</time></trkpt><trkpt lat="34.8588735" lon="9.1486565"><ele>459.0</ele><time>2026-05-01T09:19:56.436Z</time></trkpt><trkpt lat="34.8590169" lon="9.1487438"><ele>459.0</ele><time>2026-05-01T09:19:57.417Z</time></trkpt><trkpt lat="34.8591603" lon="9.1488325"><ele>459.0</ele><time>2026-05-01T09:19:58.407Z</time></trkpt><trkpt lat="34.8593031" lon="9.1489179"><ele>459.0</ele><time>2026-05-01T09:19:59.433Z</time></trkpt><trkpt lat="34.859443" lon="9.1490046"><ele>458.66666666666663</ele><time>2026-05-01T09:20:00.396Z</time></trkpt><trkpt lat="34.8595832" lon="9.1490949"><ele>458.3333333333333</ele><time>2026-05-01T09:20:01.415Z</time></trkpt><trkpt lat="34.8597224" lon="9.1491802"><ele>458.0</ele><time>2026-05-01T09:20:02.465Z</time></trkpt><trkpt lat="34.8598603" lon="9.1492628"><ele>458.0</ele><time>2026-05-01T09:20:03.45Z</time></trkpt><trkpt lat="34.86" lon="9.1493593"><ele>458.0</ele><time>2026-05-01T09:20:04.447Z</time></trkpt><trkpt lat="34.860137" lon="9.1494449"><ele>458.0</ele><time>2026-05-01T09:20:05.458Z</time></trkpt><trkpt lat="34.8602707" lon="9.1495338"><ele>458.0</ele><time>2026-05-01T09:20:06.458Z</time></trkpt><trkpt lat="34.8604132" lon="9.1496197"><ele>458.0</ele><time>2026-05-01T09:20:07.451Z</time></trkpt><trkpt lat="34.8605567" lon="9.1497072"><ele>458.0</ele><time>2026-05-01T09:20:08.459Z</time></trkpt><trkpt lat="34.860701" lon="9.1498008"><ele>458.3333333333333</ele><time>2026-05-01T09:20:09.457Z</time></trkpt><trkpt lat="34.8608455" lon="9.1498938"><ele>458.66666666666663</ele><time>2026-05-01T09:20:10.468Z</time></trkpt><trkpt lat="34.8609862" lon="9.1499871"><ele>459.0</ele><time>2026-05-01T09:20:11.465Z</time></trkpt><trkpt lat="34.8611252" lon="9.1500755"><ele>458.33333333333337</ele><time>2026-05-01T09:20:12.43Z</time></trkpt><trkpt lat="34.8612621" lon="9.1501637"><ele>457.6666666666667</ele><time>2026-05-01T09:20:13.444Z</time></trkpt><trkpt lat="34.8614075" lon="9.1502565"><ele>457.0</ele><time>2026-05-01T09:20:14.474Z</time></trkpt><trkpt lat="34.8615532" lon="9.1503513"><ele>457.0</ele><time>2026-05-01T09:20:15.445Z</time></trkpt><trkpt lat="34.8617009" lon="9.1504399"><ele>457.0</ele><time>2026-05-01T09:20:16.455Z</time></trkpt><trkpt lat="34.8618501" lon="9.150533"><ele>457.0</ele><time>2026-05-01T09:20:17.476Z</time></trkpt><trkpt lat="34.8620068" lon="9.1506275"><ele>457.33333333333337</ele><time>2026-05-01T09:20:18.469Z</time></trkpt><trkpt lat="34.8621536" lon="9.1507196"><ele>457.66666666666663</ele><time>2026-05-01T09:20:19.469Z</time></trkpt><trkpt lat="34.8623019" lon="9.1508162"><ele>458.0</ele><time>2026-05-01T09:20:20.448Z</time></trkpt><trkpt lat="34.862427" lon="9.1508989"><ele>458.0</ele><time>2026-05-01T09:20:21.451Z</time></trkpt><trkpt lat="34.8625422" lon="9.1509757"><ele>457.99999999999994</ele><time>2026-05-01T09:20:22.441Z</time></trkpt><trkpt lat="34.862642" lon="9.1510401"><ele>457.99999999999994</ele><time>2026-05-01T09:20:23.449Z</time></trkpt><trkpt lat="34.8627303" lon="9.1511021"><ele>458.0</ele><time>2026-05-01T09:20:24.454Z</time></trkpt><trkpt lat="34.8628049" lon="9.1511493"><ele>458.0</ele><time>2026-05-01T09:20:25.455Z</time></trkpt><trkpt lat="34.8628701" lon="9.1511818"><ele>457.99999999999994</ele><time>2026-05-01T09:20:26.453Z</time></trkpt><trkpt lat="34.8629277" lon="9.1512172"><ele>458.0</ele><time>2026-05-01T09:20:27.437Z</time></trkpt><trkpt lat="34.8629841" lon="9.1512533"><ele>458.0</ele><time>2026-05-01T09:20:28.462Z</time></trkpt><trkpt lat="34.8630517" lon="9.151297"><ele>458.0</ele><time>2026-05-01T09:20:29.451Z</time></trkpt><trkpt lat="34.8631286" lon="9.1513429"><ele>457.99999999999994</ele><time>2026-05-01T09:20:30.45Z</time></trkpt><trkpt lat="34.8632167" lon="9.1513957"><ele>458.0</ele><time>2026-05-01T09:20:31.435Z</time></trkpt><trkpt lat="34.863312" lon="9.1514605"><ele>458.0</ele><time>2026-05-01T09:20:32.444Z</time></trkpt><trkpt lat="34.8634084" lon="9.151521"><ele>457.99999999999994</ele><time>2026-05-01T09:20:33.45Z</time></trkpt><trkpt lat="34.8635019" lon="9.1515853"><ele>457.99999999999994</ele><time>2026-05-01T09:20:34.455Z</time></trkpt><trkpt lat="34.8635971" lon="9.151651"><ele>458.0</ele><time>2026-05-01T09:20:35.465Z</time></trkpt><trkpt lat="34.863696" lon="9.1517123"><ele>458.0</ele><time>2026-05-01T09:20:36.435Z</time></trkpt><trkpt lat="34.8638016" lon="9.1517778"><ele>458.25</ele><time>2026-05-01T09:20:37.467Z</time></trkpt><trkpt lat="34.863907" lon="9.1518414"><ele>458.5</ele><time>2026-05-01T09:20:38.443Z</time></trkpt><trkpt lat="34.8640107" lon="9.1519021"><ele>458.75</ele><time>2026-05-01T09:20:39.462Z</time></trkpt><trkpt lat="34.8641163" lon="9.1519689"><ele>459.0</ele><time>2026-05-01T09:20:40.455Z</time></trkpt><trkpt lat="34.864223" lon="9.1520313"><ele>458.25</ele><time>2026-05-01T09:20:41.44Z</time></trkpt><trkpt lat="34.8643324" lon="9.1520972"><ele>457.5</ele><time>2026-05-01T09:20:42.463Z</time></trkpt><trkpt lat="34.8644488" lon="9.1521668"><ele>456.75</ele><time>2026-05-01T09:20:43.436Z</time></trkpt><trkpt lat="34.8645698" lon="9.1522389"><ele>456.0</ele><time>2026-05-01T09:20:44.439Z</time></trkpt><trkpt lat="34.8646911" lon="9.1523106"><ele>456.0</ele><time>2026-05-01T09:20:45.463Z</time></trkpt><trkpt lat="34.8648138" lon="9.1523877"><ele>456.0</ele><time>2026-05-01T09:20:46.445Z</time></trkpt><trkpt lat="34.8649358" lon="9.1524637"><ele>456.0</ele><time>2026-05-01T09:20:47.43Z</time></trkpt><trkpt lat="34.8650519" lon="9.1525423"><ele>456.0</ele><time>2026-05-01T09:20:48.465Z</time></trkpt><trkpt lat="34.8651748" lon="9.1526252"><ele>456.0</ele><time>2026-05-01T09:20:49.468Z</time></trkpt><trkpt lat="34.8653072" lon="9.1527084"><ele>456.0</ele><time>2026-05-01T09:20:50.464Z</time></trkpt><trkpt lat="34.8654429" lon="9.1527893"><ele>456.0</ele><time>2026-05-01T09:20:51.464Z</time></trkpt><trkpt lat="34.865578" lon="9.1528731"><ele>456.0</ele><time>2026-05-01T09:20:52.442Z</time></trkpt><trkpt lat="34.8657163" lon="9.1529627"><ele>456.0</ele><time>2026-05-01T09:20:53.459Z</time></trkpt><trkpt lat="34.8658561" lon="9.1530445"><ele>456.0</ele><time>2026-05-01T09:20:54.461Z</time></trkpt><trkpt lat="34.8659998" lon="9.1531428"><ele>455.66666666666663</ele><time>2026-05-01T09:20:55.461Z</time></trkpt><trkpt lat="34.8661437" lon="9.1532364"><ele>455.3333333333333</ele><time>2026-05-01T09:20:56.429Z</time></trkpt><trkpt lat="34.8662915" lon="9.153328"><ele>455.0</ele><time>2026-05-01T09:20:57.463Z</time></trkpt><trkpt lat="34.8664393" lon="9.1534201"><ele>455.0</ele><time>2026-05-01T09:20:58.465Z</time></trkpt><trkpt lat="34.8665855" lon="9.1535119"><ele>455.0</ele><time>2026-05-01T09:20:59.46Z</time></trkpt><trkpt lat="34.8667315" lon="9.1536053"><ele>455.0</ele><time>2026-05-01T09:21:00.477Z</time></trkpt><trkpt lat="34.8668755" lon="9.1536962"><ele>454.66666666666663</ele><time>2026-05-01T09:21:01.414Z</time></trkpt><trkpt lat="34.867022" lon="9.1537909"><ele>454.33333333333337</ele><time>2026-05-01T09:21:02.475Z</time></trkpt><trkpt lat="34.8671645" lon="9.1538831"><ele>454.0</ele><time>2026-05-01T09:21:03.474Z</time></trkpt><trkpt lat="34.8673076" lon="9.1539752"><ele>454.0</ele><time>2026-05-01T09:21:04.463Z</time></trkpt><trkpt lat="34.8674513" lon="9.1540645"><ele>454.0</ele><time>2026-05-01T09:21:05.465Z</time></trkpt><trkpt lat="34.8675943" lon="9.1541544"><ele>454.0</ele><time>2026-05-01T09:21:06.461Z</time></trkpt><trkpt lat="34.8677427" lon="9.1542479"><ele>454.0</ele><time>2026-05-01T09:21:07.467Z</time></trkpt><trkpt lat="34.8678868" lon="9.154343"><ele>454.0</ele><time>2026-05-01T09:21:08.453Z</time></trkpt><trkpt lat="34.8680375" lon="9.1544333"><ele>454.0</ele><time>2026-05-01T09:21:09.456Z</time></trkpt><trkpt lat="34.868195" lon="9.1545229"><ele>454.0</ele><time>2026-05-01T09:21:10.431Z</time></trkpt><trkpt lat="34.8683582" lon="9.1546166"><ele>454.0</ele><time>2026-05-01T09:21:11.467Z</time></trkpt><trkpt lat="34.868529" lon="9.154714"><ele>454.0</ele><time>2026-05-01T09:21:12.454Z</time></trkpt><trkpt lat="34.868706" lon="9.1548169"><ele>453.6666666666667</ele><time>2026-05-01T09:21:13.458Z</time></trkpt><trkpt lat="34.8688799" lon="9.1549269"><ele>453.33333333333337</ele><time>2026-05-01T09:21:14.452Z</time></trkpt><trkpt lat="34.8690526" lon="9.1550407"><ele>453.0</ele><time>2026-05-01T09:21:15.469Z</time></trkpt><trkpt lat="34.8692157" lon="9.1551544"><ele>453.33333333333337</ele><time>2026-05-01T09:21:16.471Z</time></trkpt><trkpt lat="34.8693774" lon="9.1552678"><ele>453.6666666666667</ele><time>2026-05-01T09:21:17.471Z</time></trkpt><trkpt lat="34.8695365" lon="9.1553736"><ele>454.0</ele><time>2026-05-01T09:21:18.47Z</time></trkpt><trkpt lat="34.8696964" lon="9.1554725"><ele>454.0</ele><time>2026-05-01T09:21:19.465Z</time></trkpt><trkpt lat="34.8698537" lon="9.1555724"><ele>454.0</ele><time>2026-05-01T09:21:20.441Z</time></trkpt><trkpt lat="34.8700095" lon="9.155668"><ele>454.0</ele><time>2026-05-01T09:21:21.457Z</time></trkpt><trkpt lat="34.8701642" lon="9.1557662"><ele>453.6666666666667</ele><time>2026-05-01T09:21:22.468Z</time></trkpt><trkpt lat="34.8703194" lon="9.1558561"><ele>453.33333333333337</ele><time>2026-05-01T09:21:23.464Z</time></trkpt><trkpt lat="34.8704685" lon="9.1559468"><ele>453.0</ele><time>2026-05-01T09:21:24.46Z</time></trkpt><trkpt lat="34.8706165" lon="9.1560447"><ele>453.0</ele><time>2026-05-01T09:21:25.441Z</time></trkpt><trkpt lat="34.8707623" lon="9.1561421"><ele>453.0</ele><time>2026-05-01T09:21:26.453Z</time></trkpt><trkpt lat="34.8709039" lon="9.156236"><ele>453.0</ele><time>2026-05-01T09:21:27.476Z</time></trkpt><trkpt lat="34.8710518" lon="9.1563249"><ele>453.0</ele><time>2026-05-01T09:21:28.478Z</time></trkpt><trkpt lat="34.871201" lon="9.1564183"><ele>453.0</ele><time>2026-05-01T09:21:29.459Z</time></trkpt><trkpt lat="34.8713494" lon="9.1565104"><ele>453.0</ele><time>2026-05-01T09:21:30.442Z</time></trkpt><trkpt lat="34.8715016" lon="9.1566034"><ele>453.0</ele><time>2026-05-01T09:21:31.469Z</time></trkpt><trkpt lat="34.8716534" lon="9.1566989"><ele>453.0</ele><time>2026-05-01T09:21:32.451Z</time></trkpt><trkpt lat="34.8718054" lon="9.1567961"><ele>453.0</ele><time>2026-05-01T09:21:33.437Z</time></trkpt><trkpt lat="34.8719633" lon="9.156898"><ele>452.66666666666663</ele><time>2026-05-01T09:21:34.441Z</time></trkpt><trkpt lat="34.8721209" lon="9.1569994"><ele>452.3333333333333</ele><time>2026-05-01T09:21:35.444Z</time></trkpt><trkpt lat="34.8722783" lon="9.1570981"><ele>452.0</ele><time>2026-05-01T09:21:36.46Z</time></trkpt><trkpt lat="34.8724329" lon="9.1571972"><ele>452.0</ele><time>2026-05-01T09:21:37.462Z</time></trkpt><trkpt lat="34.8725911" lon="9.1572959"><ele>452.0</ele><time>2026-05-01T09:21:38.415Z</time></trkpt><trkpt lat="34.8727481" lon="9.1573957"><ele>452.0</ele><time>2026-05-01T09:21:39.461Z</time></trkpt><trkpt lat="34.8729069" lon="9.1574962"><ele>451.0</ele><time>2026-05-01T09:21:40.459Z</time></trkpt><trkpt lat="34.8730649" lon="9.157598"><ele>450.0</ele><time>2026-05-01T09:21:41.463Z</time></trkpt><trkpt lat="34.8732226" lon="9.1577038"><ele>449.0</ele><time>2026-05-01T09:21:42.435Z</time></trkpt><trkpt lat="34.8733849" lon="9.1578097"><ele>449.3333333333333</ele><time>2026-05-01T09:21:43.453Z</time></trkpt><trkpt lat="34.873547" lon="9.1579121"><ele>449.66666666666663</ele><time>2026-05-01T09:21:44.451Z</time></trkpt><trkpt lat="34.8737148" lon="9.1580129"><ele>450.0</ele><time>2026-05-01T09:21:45.466Z</time></trkpt><trkpt lat="34.8738777" lon="9.1581199"><ele>450.0</ele><time>2026-05-01T09:21:46.458Z</time></trkpt><trkpt lat="34.8740405" lon="9.1582235"><ele>450.0</ele><time>2026-05-01T09:21:47.471Z</time></trkpt><trkpt lat="34.8742026" lon="9.1583228"><ele>450.0</ele><time>2026-05-01T09:21:48.467Z</time></trkpt><trkpt lat="34.8743679" lon="9.1584303"><ele>450.0</ele><time>2026-05-01T09:21:49.465Z</time></trkpt><trkpt lat="34.8745311" lon="9.1585351"><ele>450.0</ele><time>2026-05-01T09:21:50.45Z</time></trkpt><trkpt lat="34.8746909" lon="9.1586362"><ele>450.0</ele><time>2026-05-01T09:21:51.475Z</time></trkpt><trkpt lat="34.8748501" lon="9.1587414"><ele>450.0</ele><time>2026-05-01T09:21:52.45Z</time></trkpt><trkpt lat="34.8750157" lon="9.1588429"><ele>450.0</ele><time>2026-05-01T09:21:53.471Z</time></trkpt><trkpt lat="34.8751829" lon="9.1589498"><ele>450.0</ele><time>2026-05-01T09:21:54.464Z</time></trkpt><trkpt lat="34.8753443" lon="9.159055"><ele>449.66666666666663</ele><time>2026-05-01T09:21:55.462Z</time></trkpt><trkpt lat="34.8755051" lon="9.1591591"><ele>449.3333333333333</ele><time>2026-05-01T09:21:56.484Z</time></trkpt><trkpt lat="34.8756657" lon="9.159258"><ele>449.0</ele><time>2026-05-01T09:21:57.466Z</time></trkpt><trkpt lat="34.8758218" lon="9.1593586"><ele>448.66666666666663</ele><time>2026-05-01T09:21:58.458Z</time></trkpt><trkpt lat="34.8759798" lon="9.1594577"><ele>448.33333333333337</ele><time>2026-05-01T09:21:59.442Z</time></trkpt><trkpt lat="34.8761384" lon="9.1595584"><ele>448.0</ele><time>2026-05-01T09:22:00.465Z</time></trkpt><trkpt lat="34.8762935" lon="9.1596585"><ele>448.0</ele><time>2026-05-01T09:22:01.461Z</time></trkpt><trkpt lat="34.8764506" lon="9.1597516"><ele>448.0</ele><time>2026-05-01T09:22:02.472Z</time></trkpt><trkpt lat="34.8766091" lon="9.1598494"><ele>448.0</ele><time>2026-05-01T09:22:03.462Z</time></trkpt><trkpt lat="34.8767735" lon="9.1599501"><ele>449.33333333333337</ele><time>2026-05-01T09:22:04.454Z</time></trkpt><trkpt lat="34.8769365" lon="9.160056"><ele>450.66666666666663</ele><time>2026-05-01T09:22:05.481Z</time></trkpt><trkpt lat="34.8771012" lon="9.1601663"><ele>452.0</ele><time>2026-05-01T09:22:06.467Z</time></trkpt><trkpt lat="34.8772674" lon="9.1602702"><ele>452.0</ele><time>2026-05-01T09:22:07.464Z</time></trkpt><trkpt lat="34.8774398" lon="9.1603755"><ele>452.0</ele><time>2026-05-01T09:22:08.474Z</time></trkpt><trkpt lat="34.8776109" lon="9.1604816"><ele>452.0</ele><time>2026-05-01T09:22:09.447Z</time></trkpt><trkpt lat="34.8777823" lon="9.16059"><ele>451.0</ele><time>2026-05-01T09:22:10.459Z</time></trkpt><trkpt lat="34.8779611" lon="9.1607014"><ele>450.0</ele><time>2026-05-01T09:22:11.467Z</time></trkpt><trkpt lat="34.8781397" lon="9.1608158"><ele>449.0</ele><time>2026-05-01T09:22:12.471Z</time></trkpt><trkpt lat="34.8783178" lon="9.1609292"><ele>448.66666666666663</ele><time>2026-05-01T09:22:13.418Z</time></trkpt><trkpt lat="34.8784921" lon="9.1610403"><ele>448.33333333333337</ele><time>2026-05-01T09:22:14.419Z</time></trkpt><trkpt lat="34.8786636" lon="9.1611509"><ele>448.0</ele><time>2026-05-01T09:22:15.458Z</time></trkpt><trkpt lat="34.8788332" lon="9.1612547"><ele>448.0</ele><time>2026-05-01T09:22:16.474Z</time></trkpt><trkpt lat="34.8790028" lon="9.1613637"><ele>448.0</ele><time>2026-05-01T09:22:17.476Z</time></trkpt><trkpt lat="34.8791701" lon="9.1614775"><ele>448.0</ele><time>2026-05-01T09:22:18.453Z</time></trkpt><trkpt lat="34.8793452" lon="9.1615852"><ele>447.0</ele><time>2026-05-01T09:22:19.463Z</time></trkpt><trkpt lat="34.8795163" lon="9.1616901"><ele>446.0</ele><time>2026-05-01T09:22:20.417Z</time></trkpt><trkpt lat="34.8796899" lon="9.1617991"><ele>445.0</ele><time>2026-05-01T09:22:21.455Z</time></trkpt><trkpt lat="34.8798658" lon="9.1619087"><ele>445.0</ele><time>2026-05-01T09:22:22.462Z</time></trkpt><trkpt lat="34.8800362" lon="9.162014"><ele>445.0</ele><time>2026-05-01T09:22:23.437Z</time></trkpt><trkpt lat="34.8802053" lon="9.162117"><ele>445.0</ele><time>2026-05-01T09:22:24.461Z</time></trkpt><trkpt lat="34.880369" lon="9.1622182"><ele>445.33333333333337</ele><time>2026-05-01T09:22:25.456Z</time></trkpt><trkpt lat="34.8805309" lon="9.1623208"><ele>445.66666666666663</ele><time>2026-05-01T09:22:26.453Z</time></trkpt><trkpt lat="34.880685" lon="9.1624166"><ele>446.0</ele><time>2026-05-01T09:22:27.454Z</time></trkpt><trkpt lat="34.8808312" lon="9.1625144"><ele>446.3333333333333</ele><time>2026-05-01T09:22:28.436Z</time></trkpt><trkpt lat="34.8809764" lon="9.1626108"><ele>446.66666666666663</ele><time>2026-05-01T09:22:29.448Z</time></trkpt><trkpt lat="34.8811211" lon="9.1627049"><ele>447.0</ele><time>2026-05-01T09:22:30.418Z</time></trkpt><trkpt lat="34.8812648" lon="9.1627949"><ele>447.0</ele><time>2026-05-01T09:22:31.445Z</time></trkpt><trkpt lat="34.8814079" lon="9.1628888"><ele>447.0</ele><time>2026-05-01T09:22:32.446Z</time></trkpt><trkpt lat="34.8815543" lon="9.1629829"><ele>447.0</ele><time>2026-05-01T09:22:33.468Z</time></trkpt><trkpt lat="34.8817078" lon="9.1630727"><ele>447.0</ele><time>2026-05-01T09:22:34.458Z</time></trkpt><trkpt lat="34.8818566" lon="9.163168"><ele>447.0</ele><time>2026-05-01T09:22:35.454Z</time></trkpt><trkpt lat="34.8820076" lon="9.1632609"><ele>447.0</ele><time>2026-05-01T09:22:36.471Z</time></trkpt><trkpt lat="34.8821583" lon="9.1633551"><ele>447.0</ele><time>2026-05-01T09:22:37.466Z</time></trkpt><trkpt lat="34.8823074" lon="9.1634511"><ele>447.0</ele><time>2026-05-01T09:22:38.414Z</time></trkpt><trkpt lat="34.8824541" lon="9.1635431"><ele>447.0</ele><time>2026-05-01T09:22:39.472Z</time></trkpt><trkpt lat="34.8825979" lon="9.1636347"><ele>446.33333333333337</ele><time>2026-05-01T09:22:40.423Z</time></trkpt><trkpt lat="34.8827361" lon="9.1637273"><ele>445.6666666666667</ele><time>2026-05-01T09:22:41.473Z</time></trkpt><trkpt lat="34.8828689" lon="9.1638132"><ele>445.0</ele><time>2026-05-01T09:22:42.464Z</time></trkpt><trkpt lat="34.8829962" lon="9.1638939"><ele>445.0</ele><time>2026-05-01T09:22:43.453Z</time></trkpt><trkpt lat="34.8831041" lon="9.1639616"><ele>445.0</ele><time>2026-05-01T09:22:44.469Z</time></trkpt><trkpt lat="34.8831906" lon="9.1640159"><ele>445.0</ele><time>2026-05-01T09:22:45.472Z</time></trkpt><trkpt lat="34.8832632" lon="9.1640622"><ele>445.0</ele><time>2026-05-01T09:22:46.417Z</time></trkpt><trkpt lat="34.883324" lon="9.1641005"><ele>445.0</ele><time>2026-05-01T09:22:47.469Z</time></trkpt><trkpt lat="34.8834094" lon="9.1641461"><ele>445.0</ele><time>2026-05-01T09:22:49.472Z</time></trkpt><trkpt lat="34.8834846" lon="9.1641897"><ele>445.0</ele><time>2026-05-01T09:22:51.455Z</time></trkpt><trkpt lat="34.8836054" lon="9.1642695"><ele>445.0</ele><time>2026-05-01T09:22:53.471Z</time></trkpt><trkpt lat="34.8836996" lon="9.1643212"><ele>445.0</ele><time>2026-05-01T09:22:54.421Z</time></trkpt><trkpt lat="34.8838026" lon="9.1643777"><ele>445.0</ele><time>2026-05-01T09:22:55.46Z</time></trkpt><trkpt lat="34.8839182" lon="9.1644316"><ele>445.0</ele><time>2026-05-01T09:22:56.474Z</time></trkpt><trkpt lat="34.8840433" lon="9.1644957"><ele>445.0</ele><time>2026-05-01T09:22:57.478Z</time></trkpt><trkpt lat="34.8841584" lon="9.1645697"><ele>445.0</ele><time>2026-05-01T09:22:58.463Z</time></trkpt><trkpt lat="34.8842798" lon="9.1646545"><ele>445.0</ele><time>2026-05-01T09:22:59.479Z</time></trkpt><trkpt lat="34.8843984" lon="9.1647403"><ele>444.75</ele><time>2026-05-01T09:23:00.459Z</time></trkpt><trkpt lat="34.8845152" lon="9.1648242"><ele>444.5</ele><time>2026-05-01T09:23:01.462Z</time></trkpt><trkpt lat="34.8846379" lon="9.1649153"><ele>444.25</ele><time>2026-05-01T09:23:02.405Z</time></trkpt><trkpt lat="34.8847679" lon="9.1650038"><ele>444.0</ele><time>2026-05-01T09:23:03.457Z</time></trkpt><trkpt lat="34.8848988" lon="9.1650914"><ele>444.0</ele><time>2026-05-01T09:23:04.453Z</time></trkpt><trkpt lat="34.8850276" lon="9.1651718"><ele>444.0</ele><time>2026-05-01T09:23:05.472Z</time></trkpt><trkpt lat="34.8851429" lon="9.1652515"><ele>444.0</ele><time>2026-05-01T09:23:06.465Z</time></trkpt><trkpt lat="34.8852438" lon="9.1653136"><ele>444.0</ele><time>2026-05-01T09:23:07.469Z</time></trkpt><trkpt lat="34.8853368" lon="9.1653817"><ele>443.6666666666667</ele><time>2026-05-01T09:23:08.434Z</time></trkpt><trkpt lat="34.8854251" lon="9.1654421"><ele>443.33333333333337</ele><time>2026-05-01T09:23:09.418Z</time></trkpt><trkpt lat="34.8855015" lon="9.1654829"><ele>443.0</ele><time>2026-05-01T09:23:10.443Z</time></trkpt><trkpt lat="34.8855746" lon="9.1655171"><ele>442.6666666666667</ele><time>2026-05-01T09:23:11.465Z</time></trkpt><trkpt lat="34.8856377" lon="9.1655419"><ele>442.33333333333337</ele><time>2026-05-01T09:23:12.463Z</time></trkpt><trkpt lat="34.8857062" lon="9.1655825"><ele>442.0</ele><time>2026-05-01T09:23:13.478Z</time></trkpt><trkpt lat="34.8857856" lon="9.1656288"><ele>442.0</ele><time>2026-05-01T09:23:14.485Z</time></trkpt><trkpt lat="34.8858746" lon="9.1656922"><ele>442.0</ele><time>2026-05-01T09:23:15.443Z</time></trkpt><trkpt lat="34.8859755" lon="9.1657768"><ele>442.0</ele><time>2026-05-01T09:23:16.47Z</time></trkpt><trkpt lat="34.8860933" lon="9.1658606"><ele>442.0</ele><time>2026-05-01T09:23:17.468Z</time></trkpt><trkpt lat="34.8862172" lon="9.1659343"><ele>442.0</ele><time>2026-05-01T09:23:18.459Z</time></trkpt><trkpt lat="34.8863458" lon="9.1660141"><ele>442.0</ele><time>2026-05-01T09:23:19.475Z</time></trkpt><trkpt lat="34.8864763" lon="9.1661003"><ele>442.0</ele><time>2026-05-01T09:23:20.463Z</time></trkpt><trkpt lat="34.8866162" lon="9.1661895"><ele>442.0</ele><time>2026-05-01T09:23:21.431Z</time></trkpt><trkpt lat="34.8867572" lon="9.1662765"><ele>442.0</ele><time>2026-05-01T09:23:22.461Z</time></trkpt><trkpt lat="34.8868986" lon="9.1663629"><ele>442.0</ele><time>2026-05-01T09:23:23.443Z</time></trkpt><trkpt lat="34.8870334" lon="9.1664481"><ele>441.6666666666667</ele><time>2026-05-01T09:23:24.468Z</time></trkpt><trkpt lat="34.8871731" lon="9.1665363"><ele>441.33333333333337</ele><time>2026-05-01T09:23:25.464Z</time></trkpt><trkpt lat="34.8873141" lon="9.1666208"><ele>441.0</ele><time>2026-05-01T09:23:26.455Z</time></trkpt><trkpt lat="34.8874509" lon="9.1667042"><ele>442.0</ele><time>2026-05-01T09:23:27.435Z</time></trkpt><trkpt lat="34.8875943" lon="9.1667958"><ele>443.0</ele><time>2026-05-01T09:23:28.46Z</time></trkpt><trkpt lat="34.8877442" lon="9.1668883"><ele>444.0</ele><time>2026-05-01T09:23:29.467Z</time></trkpt><trkpt lat="34.8878942" lon="9.1669862"><ele>444.0</ele><time>2026-05-01T09:23:30.474Z</time></trkpt><trkpt lat="34.8880475" lon="9.1670841"><ele>444.0</ele><time>2026-05-01T09:23:31.447Z</time></trkpt><trkpt lat="34.8882016" lon="9.1671884"><ele>444.0</ele><time>2026-05-01T09:23:32.455Z</time></trkpt><trkpt lat="34.8883604" lon="9.1672904"><ele>444.0</ele><time>2026-05-01T09:23:33.468Z</time></trkpt><trkpt lat="34.8885201" lon="9.1673929"><ele>444.0</ele><time>2026-05-01T09:23:34.455Z</time></trkpt><trkpt lat="34.8886756" lon="9.167494"><ele>444.0</ele><time>2026-05-01T09:23:35.465Z</time></trkpt><trkpt lat="34.8888294" lon="9.1675882"><ele>444.0</ele><time>2026-05-01T09:23:36.455Z</time></trkpt><trkpt lat="34.8889876" lon="9.1676887"><ele>444.0</ele><time>2026-05-01T09:23:37.422Z</time></trkpt><trkpt lat="34.8891482" lon="9.1677857"><ele>444.0</ele><time>2026-05-01T09:23:38.453Z</time></trkpt><trkpt lat="34.8893067" lon="9.1678775"><ele>444.0</ele><time>2026-05-01T09:23:39.451Z</time></trkpt><trkpt lat="34.889471" lon="9.1679788"><ele>444.0</ele><time>2026-05-01T09:23:40.445Z</time></trkpt><trkpt lat="34.889628" lon="9.1680732"><ele>444.0</ele><time>2026-05-01T09:23:41.456Z</time></trkpt><trkpt lat="34.8897883" lon="9.1681706"><ele>443.66666666666663</ele><time>2026-05-01T09:23:42.451Z</time></trkpt><trkpt lat="34.8899533" lon="9.1682763"><ele>443.3333333333333</ele><time>2026-05-01T09:23:43.441Z</time></trkpt><trkpt lat="34.890112" lon="9.1683787"><ele>443.0</ele><time>2026-05-01T09:23:44.476Z</time></trkpt><trkpt lat="34.8902706" lon="9.1684898"><ele>443.0</ele><time>2026-05-01T09:23:45.465Z</time></trkpt><trkpt lat="34.8904345" lon="9.1686004"><ele>443.0</ele><time>2026-05-01T09:23:46.472Z</time></trkpt><trkpt lat="34.8905987" lon="9.1687091"><ele>443.0</ele><time>2026-05-01T09:23:47.452Z</time></trkpt><trkpt lat="34.8907646" lon="9.1688138"><ele>442.66666666666663</ele><time>2026-05-01T09:23:48.459Z</time></trkpt><trkpt lat="34.8909324" lon="9.1689221"><ele>442.33333333333337</ele><time>2026-05-01T09:23:49.464Z</time></trkpt><trkpt lat="34.8910983" lon="9.1690296"><ele>442.0</ele><time>2026-05-01T09:23:50.446Z</time></trkpt><trkpt lat="34.8912691" lon="9.1691346"><ele>442.0</ele><time>2026-05-01T09:23:51.409Z</time></trkpt><trkpt lat="34.8914391" lon="9.1692408"><ele>442.0</ele><time>2026-05-01T09:23:52.442Z</time></trkpt><trkpt lat="34.8916148" lon="9.1693498"><ele>442.0</ele><time>2026-05-01T09:23:53.465Z</time></trkpt><trkpt lat="34.8917884" lon="9.1694613"><ele>441.33333333333337</ele><time>2026-05-01T09:23:54.427Z</time></trkpt><trkpt lat="34.8919686" lon="9.1695813"><ele>440.66666666666663</ele><time>2026-05-01T09:23:55.468Z</time></trkpt><trkpt lat="34.8921507" lon="9.1696963"><ele>440.0</ele><time>2026-05-01T09:23:56.464Z</time></trkpt><trkpt lat="34.8923355" lon="9.1698096"><ele>440.66666666666663</ele><time>2026-05-01T09:23:57.466Z</time></trkpt><trkpt lat="34.8925228" lon="9.1699211"><ele>441.33333333333337</ele><time>2026-05-01T09:23:58.463Z</time></trkpt><trkpt lat="34.8927056" lon="9.170037"><ele>442.0</ele><time>2026-05-01T09:23:59.442Z</time></trkpt><trkpt lat="34.8928893" lon="9.1701532"><ele>442.0</ele><time>2026-05-01T09:24:00.476Z</time></trkpt><trkpt lat="34.8930774" lon="9.1702691"><ele>442.0</ele><time>2026-05-01T09:24:01.443Z</time></trkpt><trkpt lat="34.8932685" lon="9.1703907"><ele>442.0</ele><time>2026-05-01T09:24:02.465Z</time></trkpt><trkpt lat="34.8934565" lon="9.170509"><ele>442.0</ele><time>2026-05-01T09:24:03.435Z</time></trkpt><trkpt lat="34.8936437" lon="9.1706297"><ele>442.0</ele><time>2026-05-01T09:24:04.43Z</time></trkpt><trkpt lat="34.8938355" lon="9.1707511"><ele>442.0</ele><time>2026-05-01T09:24:05.445Z</time></trkpt><trkpt lat="34.8940248" lon="9.1708758"><ele>442.0</ele><time>2026-05-01T09:24:06.45Z</time></trkpt><trkpt lat="34.894218" lon="9.17099"><ele>442.0</ele><time>2026-05-01T09:24:07.468Z</time></trkpt><trkpt lat="34.8944078" lon="9.1711109"><ele>442.0</ele><time>2026-05-01T09:24:08.482Z</time></trkpt><trkpt lat="34.8945976" lon="9.1712301"><ele>441.6666666666667</ele><time>2026-05-01T09:24:09.451Z</time></trkpt><trkpt lat="34.8947922" lon="9.171356"><ele>441.33333333333337</ele><time>2026-05-01T09:24:10.464Z</time></trkpt><trkpt lat="34.8949802" lon="9.171478"><ele>441.0</ele><time>2026-05-01T09:24:11.466Z</time></trkpt><trkpt lat="34.8951666" lon="9.1715979"><ele>440.33333333333337</ele><time>2026-05-01T09:24:12.464Z</time></trkpt><trkpt lat="34.8953535" lon="9.1717171"><ele>439.6666666666667</ele><time>2026-05-01T09:24:13.474Z</time></trkpt><trkpt lat="34.8955423" lon="9.1718382"><ele>439.0</ele><time>2026-05-01T09:24:14.421Z</time></trkpt><trkpt lat="34.8957287" lon="9.1719567"><ele>439.0</ele><time>2026-05-01T09:24:15.457Z</time></trkpt><trkpt lat="34.8959171" lon="9.1720724"><ele>439.0</ele><time>2026-05-01T09:24:16.462Z</time></trkpt><trkpt lat="34.8961071" lon="9.1721912"><ele>439.0</ele><time>2026-05-01T09:24:17.453Z</time></trkpt><trkpt lat="34.8962994" lon="9.1723123"><ele>439.33333333333337</ele><time>2026-05-01T09:24:18.446Z</time></trkpt><trkpt lat="34.896489" lon="9.1724323"><ele>439.66666666666663</ele><time>2026-05-01T09:24:19.46Z</time></trkpt><trkpt lat="34.8966777" lon="9.1725536"><ele>440.0</ele><time>2026-05-01T09:24:20.459Z</time></trkpt><trkpt lat="34.8968687" lon="9.1726722"><ele>440.0</ele><time>2026-05-01T09:24:21.413Z</time></trkpt><trkpt lat="34.897055" lon="9.1727932"><ele>440.0</ele><time>2026-05-01T09:24:22.418Z</time></trkpt><trkpt lat="34.8972449" lon="9.1729183"><ele>440.0</ele><time>2026-05-01T09:24:23.438Z</time></trkpt><trkpt lat="34.8974303" lon="9.173039"><ele>439.66666666666663</ele><time>2026-05-01T09:24:24.466Z</time></trkpt><trkpt lat="34.8976138" lon="9.1731562"><ele>439.33333333333337</ele><time>2026-05-01T09:24:25.463Z</time></trkpt><trkpt lat="34.8977977" lon="9.1732739"><ele>439.0</ele><time>2026-05-01T09:24:26.457Z</time></trkpt><trkpt lat="34.8979761" lon="9.1733818"><ele>439.0</ele><time>2026-05-01T09:24:27.454Z</time></trkpt><trkpt lat="34.8981501" lon="9.1734898"><ele>439.0</ele><time>2026-05-01T09:24:28.458Z</time></trkpt><trkpt lat="34.898324" lon="9.1735961"><ele>439.0</ele><time>2026-05-01T09:24:29.461Z</time></trkpt><trkpt lat="34.8984924" lon="9.1737027"><ele>439.33333333333337</ele><time>2026-05-01T09:24:30.474Z</time></trkpt><trkpt lat="34.8986618" lon="9.1738107"><ele>439.66666666666663</ele><time>2026-05-01T09:24:31.439Z</time></trkpt><trkpt lat="34.8988322" lon="9.1739156"><ele>440.0</ele><time>2026-05-01T09:24:32.469Z</time></trkpt><trkpt lat="34.8989984" lon="9.1740202"><ele>439.3333333333333</ele><time>2026-05-01T09:24:33.463Z</time></trkpt><trkpt lat="34.8991665" lon="9.174127"><ele>438.66666666666663</ele><time>2026-05-01T09:24:34.472Z</time></trkpt><trkpt lat="34.8993348" lon="9.1742318"><ele>438.0</ele><time>2026-05-01T09:24:35.466Z</time></trkpt><trkpt lat="34.8995012" lon="9.1743445"><ele>438.0</ele><time>2026-05-01T09:24:36.45Z</time></trkpt><trkpt lat="34.8996719" lon="9.1744516"><ele>438.0</ele><time>2026-05-01T09:24:37.46Z</time></trkpt><trkpt lat="34.899841" lon="9.1745559"><ele>438.0</ele><time>2026-05-01T09:24:38.444Z</time></trkpt><trkpt lat="34.9000108" lon="9.174665"><ele>437.66666666666663</ele><time>2026-05-01T09:24:39.46Z</time></trkpt><trkpt lat="34.9001773" lon="9.1747692"><ele>437.3333333333333</ele><time>2026-05-01T09:24:40.47Z</time></trkpt><trkpt lat="34.9003447" lon="9.1748719"><ele>437.0</ele><time>2026-05-01T09:24:41.43Z</time></trkpt><trkpt lat="34.9005111" lon="9.1749768"><ele>437.0</ele><time>2026-05-01T09:24:42.461Z</time></trkpt><trkpt lat="34.9006736" lon="9.1750825"><ele>437.0</ele><time>2026-05-01T09:24:43.459Z</time></trkpt><trkpt lat="34.9008375" lon="9.1751887"><ele>437.0</ele><time>2026-05-01T09:24:44.472Z</time></trkpt><trkpt lat="34.9009986" lon="9.1752896"><ele>437.3333333333333</ele><time>2026-05-01T09:24:45.454Z</time></trkpt><trkpt lat="34.9011627" lon="9.1753916"><ele>437.66666666666663</ele><time>2026-05-01T09:24:46.428Z</time></trkpt><trkpt lat="34.9013243" lon="9.1754937"><ele>438.0</ele><time>2026-05-01T09:24:47.463Z</time></trkpt><trkpt lat="34.9014882" lon="9.1755949"><ele>438.33333333333337</ele><time>2026-05-01T09:24:48.467Z</time></trkpt><trkpt lat="34.9016547" lon="9.1756931"><ele>438.6666666666667</ele><time>2026-05-01T09:24:49.471Z</time></trkpt><trkpt lat="34.9018221" lon="9.1757958"><ele>439.0</ele><time>2026-05-01T09:24:50.456Z</time></trkpt><trkpt lat="34.9019876" lon="9.1758963"><ele>438.0</ele><time>2026-05-01T09:24:51.446Z</time></trkpt><trkpt lat="34.9021534" lon="9.1759987"><ele>437.0</ele><time>2026-05-01T09:24:52.436Z</time></trkpt><trkpt lat="34.90232" lon="9.1761008"><ele>436.0</ele><time>2026-05-01T09:24:53.465Z</time></trkpt><trkpt lat="34.9024904" lon="9.176209"><ele>436.0</ele><time>2026-05-01T09:24:54.457Z</time></trkpt><trkpt lat="34.9026536" lon="9.1763156"><ele>436.0</ele><time>2026-05-01T09:24:55.457Z</time></trkpt><trkpt lat="34.9028156" lon="9.1764213"><ele>436.0</ele><time>2026-05-01T09:24:56.49Z</time></trkpt><trkpt lat="34.9029823" lon="9.1765283"><ele>436.0</ele><time>2026-05-01T09:24:57.475Z</time></trkpt><trkpt lat="34.9031482" lon="9.1766364"><ele>436.0</ele><time>2026-05-01T09:24:58.472Z</time></trkpt><trkpt lat="34.9033083" lon="9.1767347"><ele>436.0</ele><time>2026-05-01T09:24:59.472Z</time></trkpt><trkpt lat="34.9034579" lon="9.1768304"><ele>436.0</ele><time>2026-05-01T09:25:00.465Z</time></trkpt><trkpt lat="34.9035964" lon="9.1769166"><ele>436.0</ele><time>2026-05-01T09:25:01.412Z</time></trkpt><trkpt lat="34.903732" lon="9.1770048"><ele>436.0</ele><time>2026-05-01T09:25:02.458Z</time></trkpt><trkpt lat="34.9038619" lon="9.1770947"><ele>436.0</ele><time>2026-05-01T09:25:03.459Z</time></trkpt><trkpt lat="34.9039987" lon="9.1771778"><ele>436.0</ele><time>2026-05-01T09:25:04.445Z</time></trkpt><trkpt lat="34.9041381" lon="9.1772636"><ele>436.0</ele><time>2026-05-01T09:25:05.467Z</time></trkpt><trkpt lat="34.904278" lon="9.1773519"><ele>435.6666666666667</ele><time>2026-05-01T09:25:06.469Z</time></trkpt><trkpt lat="34.9044225" lon="9.1774469"><ele>435.33333333333337</ele><time>2026-05-01T09:25:07.467Z</time></trkpt><trkpt lat="34.9045737" lon="9.1775417"><ele>435.0</ele><time>2026-05-01T09:25:08.452Z</time></trkpt><trkpt lat="34.9047214" lon="9.1776389"><ele>435.0</ele><time>2026-05-01T09:25:09.458Z</time></trkpt><trkpt lat="34.9048772" lon="9.1777453"><ele>435.0</ele><time>2026-05-01T09:25:10.459Z</time></trkpt><trkpt lat="34.9050323" lon="9.1778455"><ele>435.0</ele><time>2026-05-01T09:25:11.444Z</time></trkpt><trkpt lat="34.905191" lon="9.1779379"><ele>436.0</ele><time>2026-05-01T09:25:12.468Z</time></trkpt><trkpt lat="34.9053534" lon="9.178035"><ele>437.0</ele><time>2026-05-01T09:25:13.469Z</time></trkpt><trkpt lat="34.905516" lon="9.1781409"><ele>438.0</ele><time>2026-05-01T09:25:14.427Z</time></trkpt><trkpt lat="34.9056776" lon="9.1782428"><ele>438.33333333333337</ele><time>2026-05-01T09:25:15.42Z</time></trkpt><trkpt lat="34.9058388" lon="9.1783427"><ele>438.6666666666667</ele><time>2026-05-01T09:25:16.471Z</time></trkpt><trkpt lat="34.9059965" lon="9.1784418"><ele>439.0</ele><time>2026-05-01T09:25:17.453Z</time></trkpt><trkpt lat="34.9061557" lon="9.1785423"><ele>437.6666666666667</ele><time>2026-05-01T09:25:18.481Z</time></trkpt><trkpt lat="34.906313" lon="9.1786405"><ele>436.33333333333337</ele><time>2026-05-01T09:25:19.432Z</time></trkpt><trkpt lat="34.9064678" lon="9.1787378"><ele>435.0</ele><time>2026-05-01T09:25:20.432Z</time></trkpt><trkpt lat="34.9066231" lon="9.1788326"><ele>435.0</ele><time>2026-05-01T09:25:21.401Z</time></trkpt><trkpt lat="34.9067766" lon="9.1789342"><ele>435.0</ele><time>2026-05-01T09:25:22.423Z</time></trkpt><trkpt lat="34.9069326" lon="9.1790308"><ele>435.0</ele><time>2026-05-01T09:25:23.437Z</time></trkpt><trkpt lat="34.9070841" lon="9.1791309"><ele>435.0</ele><time>2026-05-01T09:25:24.451Z</time></trkpt><trkpt lat="34.9072443" lon="9.1792331"><ele>435.0</ele><time>2026-05-01T09:25:25.447Z</time></trkpt><trkpt lat="34.9074024" lon="9.1793336"><ele>435.0</ele><time>2026-05-01T09:25:26.422Z</time></trkpt><trkpt lat="34.9075592" lon="9.1794343"><ele>435.33333333333337</ele><time>2026-05-01T09:25:27.439Z</time></trkpt><trkpt lat="34.9077179" lon="9.1795334"><ele>435.6666666666667</ele><time>2026-05-01T09:25:28.456Z</time></trkpt><trkpt lat="34.907878" lon="9.1796262"><ele>436.0</ele><time>2026-05-01T09:25:29.465Z</time></trkpt><trkpt lat="34.9080375" lon="9.1797218"><ele>436.0</ele><time>2026-05-01T09:25:30.462Z</time></trkpt><trkpt lat="34.9081926" lon="9.1798235"><ele>436.0</ele><time>2026-05-01T09:25:31.443Z</time></trkpt><trkpt lat="34.9083479" lon="9.1799248"><ele>436.0</ele><time>2026-05-01T09:25:32.455Z</time></trkpt><trkpt lat="34.9085055" lon="9.180029"><ele>435.33333333333337</ele><time>2026-05-01T09:25:33.471Z</time></trkpt><trkpt lat="34.9086659" lon="9.180134"><ele>434.66666666666663</ele><time>2026-05-01T09:25:34.462Z</time></trkpt><trkpt lat="34.9088265" lon="9.1802359"><ele>434.0</ele><time>2026-05-01T09:25:35.476Z</time></trkpt><trkpt lat="34.908987" lon="9.1803325"><ele>434.0</ele><time>2026-05-01T09:25:36.45Z</time></trkpt><trkpt lat="34.909143" lon="9.1804332"><ele>434.0</ele><time>2026-05-01T09:25:37.458Z</time></trkpt><trkpt lat="34.9093005" lon="9.1805323"><ele>434.0</ele><time>2026-05-01T09:25:38.449Z</time></trkpt><trkpt lat="34.9094553" lon="9.1806317"><ele>434.66666666666663</ele><time>2026-05-01T09:25:39.47Z</time></trkpt><trkpt lat="34.9096133" lon="9.1807293"><ele>435.33333333333337</ele><time>2026-05-01T09:25:40.471Z</time></trkpt><trkpt lat="34.9097696" lon="9.1808197"><ele>436.0</ele><time>2026-05-01T09:25:41.462Z</time></trkpt><trkpt lat="34.9099208" lon="9.1809151"><ele>436.0</ele><time>2026-05-01T09:25:42.465Z</time></trkpt><trkpt lat="34.9100714" lon="9.1810117"><ele>436.0</ele><time>2026-05-01T09:25:43.458Z</time></trkpt><trkpt lat="34.9102247" lon="9.1811093"><ele>436.0</ele><time>2026-05-01T09:25:44.418Z</time></trkpt><trkpt lat="34.9103773" lon="9.1812039"><ele>436.0</ele><time>2026-05-01T09:25:45.472Z</time></trkpt><trkpt lat="34.9105246" lon="9.1813003"><ele>436.0</ele><time>2026-05-01T09:25:46.457Z</time></trkpt><trkpt lat="34.9106746" lon="9.1813971"><ele>436.0</ele><time>2026-05-01T09:25:47.453Z</time></trkpt><trkpt lat="34.9108236" lon="9.1814914"><ele>435.33333333333337</ele><time>2026-05-01T09:25:48.466Z</time></trkpt><trkpt lat="34.9109771" lon="9.1815855"><ele>434.66666666666663</ele><time>2026-05-01T09:25:49.443Z</time></trkpt><trkpt lat="34.911127" lon="9.1816801"><ele>434.0</ele><time>2026-05-01T09:25:50.465Z</time></trkpt><trkpt lat="34.9112727" lon="9.1817723"><ele>434.0</ele><time>2026-05-01T09:25:51.462Z</time></trkpt><trkpt lat="34.9114139" lon="9.1818607"><ele>434.0</ele><time>2026-05-01T09:25:52.464Z</time></trkpt><trkpt lat="34.9115568" lon="9.1819483"><ele>434.0</ele><time>2026-05-01T09:25:53.442Z</time></trkpt><trkpt lat="34.9116996" lon="9.1820448"><ele>434.0</ele><time>2026-05-01T09:25:54.461Z</time></trkpt><trkpt lat="34.9118439" lon="9.1821391"><ele>434.0</ele><time>2026-05-01T09:25:55.462Z</time></trkpt><trkpt lat="34.9119871" lon="9.1822292"><ele>434.0</ele><time>2026-05-01T09:25:56.471Z</time></trkpt><trkpt lat="34.9121289" lon="9.1823189"><ele>433.66666666666663</ele><time>2026-05-01T09:25:57.466Z</time></trkpt><trkpt lat="34.9122712" lon="9.1824069"><ele>433.33333333333337</ele><time>2026-05-01T09:25:58.455Z</time></trkpt><trkpt lat="34.9124093" lon="9.1824991"><ele>433.0</ele><time>2026-05-01T09:25:59.471Z</time></trkpt><trkpt lat="34.9125491" lon="9.1825864"><ele>434.0</ele><time>2026-05-01T09:26:00.453Z</time></trkpt><trkpt lat="34.9126882" lon="9.1826717"><ele>435.0</ele><time>2026-05-01T09:26:01.439Z</time></trkpt><trkpt lat="34.9128245" lon="9.1827599"><ele>436.0</ele><time>2026-05-01T09:26:02.459Z</time></trkpt><trkpt lat="34.912964" lon="9.1828504"><ele>436.0</ele><time>2026-05-01T09:26:03.45Z</time></trkpt><trkpt lat="34.913105" lon="9.1829439"><ele>436.0</ele><time>2026-05-01T09:26:04.42Z</time></trkpt><trkpt lat="34.9132487" lon="9.1830362"><ele>436.0</ele><time>2026-05-01T09:26:05.447Z</time></trkpt><trkpt lat="34.9133927" lon="9.1831247"><ele>436.0</ele><time>2026-05-01T09:26:06.462Z</time></trkpt><trkpt lat="34.9135388" lon="9.1832162"><ele>436.0</ele><time>2026-05-01T09:26:07.466Z</time></trkpt><trkpt lat="34.9136831" lon="9.1833103"><ele>436.0</ele><time>2026-05-01T09:26:08.466Z</time></trkpt><trkpt lat="34.9138345" lon="9.1834023"><ele>436.0</ele><time>2026-05-01T09:26:09.469Z</time></trkpt><trkpt lat="34.9139818" lon="9.1834964"><ele>436.0</ele><time>2026-05-01T09:26:10.429Z</time></trkpt><trkpt lat="34.9141308" lon="9.1835938"><ele>436.0</ele><time>2026-05-01T09:26:11.455Z</time></trkpt><trkpt lat="34.9142777" lon="9.1836881"><ele>436.33333333333337</ele><time>2026-05-01T09:26:12.463Z</time></trkpt><trkpt lat="34.914429" lon="9.1837841"><ele>436.66666666666663</ele><time>2026-05-01T09:26:13.469Z</time></trkpt><trkpt lat="34.9145772" lon="9.1838746"><ele>437.0</ele><time>2026-05-01T09:26:14.438Z</time></trkpt><trkpt lat="34.9147226" lon="9.183964"><ele>437.0</ele><time>2026-05-01T09:26:15.463Z</time></trkpt><trkpt lat="34.91487" lon="9.1840605"><ele>437.0</ele><time>2026-05-01T09:26:16.468Z</time></trkpt><trkpt lat="34.9150162" lon="9.1841524"><ele>437.0</ele><time>2026-05-01T09:26:17.457Z</time></trkpt><trkpt lat="34.9151624" lon="9.184244"><ele>437.0</ele><time>2026-05-01T09:26:18.472Z</time></trkpt><trkpt lat="34.9153066" lon="9.1843322"><ele>437.0</ele><time>2026-05-01T09:26:19.447Z</time></trkpt><trkpt lat="34.9154483" lon="9.1844251"><ele>437.0</ele><time>2026-05-01T09:26:20.467Z</time></trkpt><trkpt lat="34.9155887" lon="9.1845136"><ele>437.0</ele><time>2026-05-01T09:26:21.41Z</time></trkpt><trkpt lat="34.9157283" lon="9.1846015"><ele>437.0</ele><time>2026-05-01T09:26:22.454Z</time></trkpt><trkpt lat="34.9158682" lon="9.1846879"><ele>437.0</ele><time>2026-05-01T09:26:23.46Z</time></trkpt><trkpt lat="34.9160035" lon="9.1847779"><ele>436.75</ele><time>2026-05-01T09:26:24.474Z</time></trkpt><trkpt lat="34.9161304" lon="9.184858"><ele>436.5</ele><time>2026-05-01T09:26:25.467Z</time></trkpt><trkpt lat="34.9162456" lon="9.1849328"><ele>436.25</ele><time>2026-05-01T09:26:26.457Z</time></trkpt><trkpt lat="34.916349" lon="9.1849934"><ele>436.0</ele><time>2026-05-01T09:26:27.463Z</time></trkpt><trkpt lat="34.9164415" lon="9.1850493"><ele>436.00000000000006</ele><time>2026-05-01T09:26:28.468Z</time></trkpt><trkpt lat="34.9165318" lon="9.1851144"><ele>436.0</ele><time>2026-05-01T09:26:29.475Z</time></trkpt><trkpt lat="34.9166119" lon="9.1851627"><ele>436.0</ele><time>2026-05-01T09:26:30.421Z</time></trkpt><trkpt lat="34.916686" lon="9.1852058"><ele>436.0</ele><time>2026-05-01T09:26:31.456Z</time></trkpt><trkpt lat="34.9167489" lon="9.1852452"><ele>436.00000000000006</ele><time>2026-05-01T09:26:32.467Z</time></trkpt><trkpt lat="34.916815" lon="9.1852851"><ele>436.0</ele><time>2026-05-01T09:26:33.477Z</time></trkpt><trkpt lat="34.9168851" lon="9.1853261"><ele>435.8</ele><time>2026-05-01T09:26:34.468Z</time></trkpt><trkpt lat="34.9169666" lon="9.1853744"><ele>435.6</ele><time>2026-05-01T09:26:35.466Z</time></trkpt><trkpt lat="34.9170529" lon="9.1854291"><ele>435.4</ele><time>2026-05-01T09:26:36.469Z</time></trkpt><trkpt lat="34.9171491" lon="9.1854828"><ele>435.2</ele><time>2026-05-01T09:26:37.467Z</time></trkpt><trkpt lat="34.9172485" lon="9.1855461"><ele>435.0</ele><time>2026-05-01T09:26:38.436Z</time></trkpt><trkpt lat="34.917349" lon="9.1856126"><ele>434.75</ele><time>2026-05-01T09:26:39.462Z</time></trkpt><trkpt lat="34.9174539" lon="9.1856906"><ele>434.5</ele><time>2026-05-01T09:26:40.422Z</time></trkpt><trkpt lat="34.9175663" lon="9.185775"><ele>434.25</ele><time>2026-05-01T09:26:41.461Z</time></trkpt><trkpt lat="34.9176891" lon="9.1858527"><ele>434.0</ele><time>2026-05-01T09:26:42.445Z</time></trkpt><trkpt lat="34.9178142" lon="9.1859304"><ele>434.0</ele><time>2026-05-01T09:26:43.442Z</time></trkpt><trkpt lat="34.9179373" lon="9.1860069"><ele>434.0</ele><time>2026-05-01T09:26:44.456Z</time></trkpt><trkpt lat="34.9180613" lon="9.1860821"><ele>434.0</ele><time>2026-05-01T09:26:45.456Z</time></trkpt><trkpt lat="34.9181773" lon="9.1861575"><ele>434.0</ele><time>2026-05-01T09:26:46.457Z</time></trkpt><trkpt lat="34.9182829" lon="9.1862237"><ele>434.0</ele><time>2026-05-01T09:26:47.472Z</time></trkpt><trkpt lat="34.9183749" lon="9.1862847"><ele>434.0</ele><time>2026-05-01T09:26:48.479Z</time></trkpt><trkpt lat="34.918457" lon="9.1863319"><ele>434.0</ele><time>2026-05-01T09:26:49.467Z</time></trkpt><trkpt lat="34.9185287" lon="9.1863735"><ele>434.0</ele><time>2026-05-01T09:26:50.439Z</time></trkpt><trkpt lat="34.9186033" lon="9.1864196"><ele>434.0</ele><time>2026-05-01T09:26:51.463Z</time></trkpt><trkpt lat="34.9186864" lon="9.1864749"><ele>433.75</ele><time>2026-05-01T09:26:52.434Z</time></trkpt><trkpt lat="34.9187818" lon="9.186536"><ele>433.5</ele><time>2026-05-01T09:26:53.457Z</time></trkpt><trkpt lat="34.9188811" lon="9.1865983"><ele>433.25</ele><time>2026-05-01T09:26:54.47Z</time></trkpt><trkpt lat="34.918984" lon="9.186659"><ele>433.0</ele><time>2026-05-01T09:26:55.467Z</time></trkpt><trkpt lat="34.9190934" lon="9.1867202"><ele>433.0</ele><time>2026-05-01T09:26:56.477Z</time></trkpt><trkpt lat="34.9191994" lon="9.1867826"><ele>433.0</ele><time>2026-05-01T09:26:57.454Z</time></trkpt><trkpt lat="34.9193096" lon="9.1868523"><ele>433.0</ele><time>2026-05-01T09:26:58.474Z</time></trkpt><trkpt lat="34.9194174" lon="9.186925"><ele>433.0</ele><time>2026-05-01T09:26:59.482Z</time></trkpt><trkpt lat="34.9195326" lon="9.186997"><ele>433.5</ele><time>2026-05-01T09:27:00.436Z</time></trkpt><trkpt lat="34.9196536" lon="9.1870705"><ele>434.0</ele><time>2026-05-01T09:27:01.467Z</time></trkpt><trkpt lat="34.919771" lon="9.1871405"><ele>434.5</ele><time>2026-05-01T09:27:02.444Z</time></trkpt><trkpt lat="34.9198954" lon="9.1872167"><ele>435.0</ele><time>2026-05-01T09:27:03.456Z</time></trkpt><trkpt lat="34.920017" lon="9.1872943"><ele>435.0</ele><time>2026-05-01T09:27:04.468Z</time></trkpt><trkpt lat="34.9201358" lon="9.1873681"><ele>435.0</ele><time>2026-05-01T09:27:05.401Z</time></trkpt><trkpt lat="34.9202587" lon="9.1874426"><ele>435.0</ele><time>2026-05-01T09:27:06.472Z</time></trkpt><trkpt lat="34.9203831" lon="9.1875191"><ele>435.0</ele><time>2026-05-01T09:27:07.413Z</time></trkpt><trkpt lat="34.9205029" lon="9.1875941"><ele>435.0</ele><time>2026-05-01T09:27:08.456Z</time></trkpt><trkpt lat="34.9206174" lon="9.1876654"><ele>435.0</ele><time>2026-05-01T09:27:09.464Z</time></trkpt><trkpt lat="34.9207244" lon="9.187737"><ele>435.0</ele><time>2026-05-01T09:27:10.446Z</time></trkpt><trkpt lat="34.9208333" lon="9.1878114"><ele>435.0</ele><time>2026-05-01T09:27:11.463Z</time></trkpt><trkpt lat="34.9209391" lon="9.1878862"><ele>434.5</ele><time>2026-05-01T09:27:12.455Z</time></trkpt><trkpt lat="34.9210451" lon="9.18796"><ele>434.0</ele><time>2026-05-01T09:27:13.456Z</time></trkpt><trkpt lat="34.9211459" lon="9.1880258"><ele>433.5</ele><time>2026-05-01T09:27:14.467Z</time></trkpt><trkpt lat="34.9212421" lon="9.1880853"><ele>433.0</ele><time>2026-05-01T09:27:15.458Z</time></trkpt><trkpt lat="34.9213365" lon="9.1881453"><ele>433.2</ele><time>2026-05-01T09:27:16.462Z</time></trkpt><trkpt lat="34.9214149" lon="9.1882008"><ele>433.4</ele><time>2026-05-01T09:27:17.465Z</time></trkpt><trkpt lat="34.9214844" lon="9.1882437"><ele>433.59999999999997</ele><time>2026-05-01T09:27:18.464Z</time></trkpt><trkpt lat="34.9215529" lon="9.188278"><ele>433.79999999999995</ele><time>2026-05-01T09:27:19.469Z</time></trkpt><trkpt lat="34.9216535" lon="9.1883356"><ele>434.0</ele><time>2026-05-01T09:27:21.451Z</time></trkpt><trkpt lat="34.9217684" lon="9.1884001"><ele>434.16666666666663</ele><time>2026-05-01T09:27:23.457Z</time></trkpt><trkpt lat="34.9218368" lon="9.1884396"><ele>434.3333333333333</ele><time>2026-05-01T09:27:24.448Z</time></trkpt><trkpt lat="34.9219161" lon="9.1884872"><ele>434.5</ele><time>2026-05-01T09:27:25.452Z</time></trkpt><trkpt lat="34.9219987" lon="9.1885326"><ele>434.66666666666663</ele><time>2026-05-01T09:27:26.471Z</time></trkpt><trkpt lat="34.9220807" lon="9.1885807"><ele>434.8333333333333</ele><time>2026-05-01T09:27:27.471Z</time></trkpt><trkpt lat="34.9221682" lon="9.1886318"><ele>435.0</ele><time>2026-05-01T09:27:28.479Z</time></trkpt><trkpt lat="34.9222515" lon="9.1886823"><ele>435.0</ele><time>2026-05-01T09:27:29.469Z</time></trkpt><trkpt lat="34.9223281" lon="9.1887373"><ele>435.0</ele><time>2026-05-01T09:27:30.475Z</time></trkpt><trkpt lat="34.9224073" lon="9.188796"><ele>435.0</ele><time>2026-05-01T09:27:31.451Z</time></trkpt><trkpt lat="34.9224891" lon="9.1888546"><ele>435.0</ele><time>2026-05-01T09:27:32.435Z</time></trkpt><trkpt lat="34.9225725" lon="9.1889151"><ele>435.0</ele><time>2026-05-01T09:27:33.468Z</time></trkpt><trkpt lat="34.9226544" lon="9.1889727"><ele>434.8</ele><time>2026-05-01T09:27:34.465Z</time></trkpt><trkpt lat="34.9227394" lon="9.1890286"><ele>434.6</ele><time>2026-05-01T09:27:35.425Z</time></trkpt><trkpt lat="34.9228285" lon="9.1890813"><ele>434.4</ele><time>2026-05-01T09:27:36.464Z</time></trkpt><trkpt lat="34.9229178" lon="9.1891353"><ele>434.2</ele><time>2026-05-01T09:27:37.461Z</time></trkpt><trkpt lat="34.9230052" lon="9.1891871"><ele>434.0</ele><time>2026-05-01T09:27:38.44Z</time></trkpt><trkpt lat="34.923087" lon="9.1892498"><ele>434.0</ele><time>2026-05-01T09:27:39.48Z</time></trkpt><trkpt lat="34.9231735" lon="9.1893082"><ele>434.0</ele><time>2026-05-01T09:27:40.467Z</time></trkpt><trkpt lat="34.9232612" lon="9.1893696"><ele>434.0</ele><time>2026-05-01T09:27:41.467Z</time></trkpt><trkpt lat="34.9233544" lon="9.1894264"><ele>434.0</ele><time>2026-05-01T09:27:42.466Z</time></trkpt><trkpt lat="34.9234495" lon="9.1894905"><ele>434.0</ele><time>2026-05-01T09:27:43.471Z</time></trkpt><trkpt lat="34.9235398" lon="9.1895482"><ele>434.25</ele><time>2026-05-01T09:27:44.431Z</time></trkpt><trkpt lat="34.9236349" lon="9.1896073"><ele>434.5</ele><time>2026-05-01T09:27:45.469Z</time></trkpt><trkpt lat="34.9237328" lon="9.1896668"><ele>434.75</ele><time>2026-05-01T09:27:46.444Z</time></trkpt><trkpt lat="34.9238368" lon="9.1897285"><ele>435.0</ele><time>2026-05-01T09:27:47.476Z</time></trkpt><trkpt lat="34.9239449" lon="9.1897994"><ele>435.0</ele><time>2026-05-01T09:27:48.436Z</time></trkpt><trkpt lat="34.9240554" lon="9.1898617"><ele>435.0</ele><time>2026-05-01T09:27:49.466Z</time></trkpt><trkpt lat="34.9241616" lon="9.1899295"><ele>435.0</ele><time>2026-05-01T09:27:50.461Z</time></trkpt><trkpt lat="34.9242717" lon="9.1899942"><ele>435.0</ele><time>2026-05-01T09:27:51.469Z</time></trkpt><trkpt lat="34.9243765" lon="9.1900586"><ele>435.4</ele><time>2026-05-01T09:27:52.465Z</time></trkpt><trkpt lat="34.9244812" lon="9.1901243"><ele>435.8</ele><time>2026-05-01T09:27:53.45Z</time></trkpt><trkpt lat="34.9245824" lon="9.1901885"><ele>436.20000000000005</ele><time>2026-05-01T09:27:54.466Z</time></trkpt><trkpt lat="34.9246817" lon="9.1902469"><ele>436.6</ele><time>2026-05-01T09:27:55.43Z</time></trkpt><trkpt lat="34.9247733" lon="9.1903056"><ele>437.0</ele><time>2026-05-01T09:27:56.473Z</time></trkpt><trkpt lat="34.9248657" lon="9.1903604"><ele>437.0</ele><time>2026-05-01T09:27:57.443Z</time></trkpt><trkpt lat="34.9249551" lon="9.1904176"><ele>437.00000000000006</ele><time>2026-05-01T09:27:58.469Z</time></trkpt><trkpt lat="34.9250465" lon="9.1904757"><ele>437.00000000000006</ele><time>2026-05-01T09:27:59.462Z</time></trkpt><trkpt lat="34.9251354" lon="9.1905322"><ele>437.0</ele><time>2026-05-01T09:28:00.478Z</time></trkpt><trkpt lat="34.9252219" lon="9.190592"><ele>437.0</ele><time>2026-05-01T09:28:01.473Z</time></trkpt><trkpt lat="34.9253156" lon="9.1906512"><ele>436.8</ele><time>2026-05-01T09:28:02.449Z</time></trkpt><trkpt lat="34.9254095" lon="9.1907116"><ele>436.6</ele><time>2026-05-01T09:28:03.468Z</time></trkpt><trkpt lat="34.9254997" lon="9.1907711"><ele>436.40000000000003</ele><time>2026-05-01T09:28:04.466Z</time></trkpt><trkpt lat="34.9255837" lon="9.1908276"><ele>436.20000000000005</ele><time>2026-05-01T09:28:05.462Z</time></trkpt><trkpt lat="34.9256679" lon="9.19088"><ele>436.0</ele><time>2026-05-01T09:28:06.44Z</time></trkpt><trkpt lat="34.9257413" lon="9.190923"><ele>436.0</ele><time>2026-05-01T09:28:07.43Z</time></trkpt><trkpt lat="34.9258005" lon="9.1909574"><ele>436.0</ele><time>2026-05-01T09:28:08.47Z</time></trkpt><trkpt lat="34.9259105" lon="9.1910271"><ele>436.0</ele><time>2026-05-01T09:28:10.471Z</time></trkpt><trkpt lat="34.9259793" lon="9.1910691"><ele>436.0</ele><time>2026-05-01T09:28:11.463Z</time></trkpt><trkpt lat="34.9260553" lon="9.1911214"><ele>436.0</ele><time>2026-05-01T09:28:12.427Z</time></trkpt><trkpt lat="34.9261417" lon="9.1911815"><ele>436.20000000000005</ele><time>2026-05-01T09:28:13.456Z</time></trkpt><trkpt lat="34.9262281" lon="9.1912372"><ele>436.40000000000003</ele><time>2026-05-01T09:28:14.472Z</time></trkpt><trkpt lat="34.9263136" lon="9.1912952"><ele>436.6</ele><time>2026-05-01T09:28:15.465Z</time></trkpt><trkpt lat="34.9264057" lon="9.1913595"><ele>436.8</ele><time>2026-05-01T09:28:16.466Z</time></trkpt><trkpt lat="34.9264923" lon="9.1914182"><ele>437.0</ele><time>2026-05-01T09:28:17.46Z</time></trkpt><trkpt lat="34.926582" lon="9.1914774"><ele>437.20000000000005</ele><time>2026-05-01T09:28:18.486Z</time></trkpt><trkpt lat="34.9266706" lon="9.1915432"><ele>437.40000000000003</ele><time>2026-05-01T09:28:19.417Z</time></trkpt><trkpt lat="34.9267558" lon="9.191604"><ele>437.59999999999997</ele><time>2026-05-01T09:28:20.479Z</time></trkpt><trkpt lat="34.9268353" lon="9.1916699"><ele>437.79999999999995</ele><time>2026-05-01T09:28:21.433Z</time></trkpt><trkpt lat="34.9269144" lon="9.1917392"><ele>438.0</ele><time>2026-05-01T09:28:22.461Z</time></trkpt><trkpt lat="34.9269914" lon="9.1918073"><ele>438.0</ele><time>2026-05-01T09:28:23.459Z</time></trkpt><trkpt lat="34.9270659" lon="9.1918762"><ele>437.99999999999994</ele><time>2026-05-01T09:28:24.467Z</time></trkpt><trkpt lat="34.9271405" lon="9.1919403"><ele>437.99999999999994</ele><time>2026-05-01T09:28:25.451Z</time></trkpt><trkpt lat="34.9272152" lon="9.1920061"><ele>438.0</ele><time>2026-05-01T09:28:26.474Z</time></trkpt><trkpt lat="34.9272908" lon="9.192072"><ele>438.0</ele><time>2026-05-01T09:28:27.45Z</time></trkpt><trkpt lat="34.9273708" lon="9.1921381"><ele>438.0</ele><time>2026-05-01T09:28:28.473Z</time></trkpt><trkpt lat="34.9274519" lon="9.1921982"><ele>437.99999999999994</ele><time>2026-05-01T09:28:29.439Z</time></trkpt><trkpt lat="34.9275305" lon="9.1922609"><ele>437.99999999999994</ele><time>2026-05-01T09:28:30.462Z</time></trkpt><trkpt lat="34.9276079" lon="9.1923149"><ele>438.0</ele><time>2026-05-01T09:28:31.459Z</time></trkpt><trkpt lat="34.9276814" lon="9.192374"><ele>438.0</ele><time>2026-05-01T09:28:32.438Z</time></trkpt><trkpt lat="34.9277519" lon="9.1924286"><ele>437.59999999999997</ele><time>2026-05-01T09:28:33.424Z</time></trkpt><trkpt lat="34.9278225" lon="9.1924845"><ele>437.19999999999993</ele><time>2026-05-01T09:28:34.459Z</time></trkpt><trkpt lat="34.9278885" lon="9.1925395"><ele>436.8</ele><time>2026-05-01T09:28:35.433Z</time></trkpt><trkpt lat="34.9279513" lon="9.1925825"><ele>436.4</ele><time>2026-05-01T09:28:36.445Z</time></trkpt><trkpt lat="34.9280445" lon="9.1926587"><ele>436.0</ele><time>2026-05-01T09:28:38.444Z</time></trkpt><trkpt lat="34.9281341" lon="9.1927537"><ele>436.00000000000006</ele><time>2026-05-01T09:28:40.465Z</time></trkpt><trkpt lat="34.9282278" lon="9.1928394"><ele>436.0</ele><time>2026-05-01T09:28:42.483Z</time></trkpt><trkpt lat="34.9282908" lon="9.1928837"><ele>436.0</ele><time>2026-05-01T09:28:44.462Z</time></trkpt><trkpt lat="34.928346" lon="9.1929256"><ele>436.0</ele><time>2026-05-01T09:28:46.426Z</time></trkpt><trkpt lat="34.928426" lon="9.1929864"><ele>436.00000000000006</ele><time>2026-05-01T09:28:49.463Z</time></trkpt><trkpt lat="34.9284864" lon="9.1930277"><ele>436.0</ele><time>2026-05-01T09:28:51.461Z</time></trkpt><trkpt lat="34.9285808" lon="9.1930877"><ele>436.14285714285717</ele><time>2026-05-01T09:28:53.464Z</time></trkpt><trkpt lat="34.9286795" lon="9.1931636"><ele>436.28571428571433</ele><time>2026-05-01T09:28:55.43Z</time></trkpt><trkpt lat="34.9287326" lon="9.1932068"><ele>436.42857142857144</ele><time>2026-05-01T09:28:56.462Z</time></trkpt><trkpt lat="34.9287904" lon="9.1932497"><ele>436.57142857142856</ele><time>2026-05-01T09:28:57.461Z</time></trkpt><trkpt lat="34.9288442" lon="9.1932908"><ele>436.7142857142857</ele><time>2026-05-01T09:28:58.446Z</time></trkpt><trkpt lat="34.928898" lon="9.1933329"><ele>436.85714285714283</ele><time>2026-05-01T09:28:59.473Z</time></trkpt><trkpt lat="34.928955" lon="9.1933798"><ele>437.0</ele><time>2026-05-01T09:29:00.413Z</time></trkpt><trkpt lat="34.9290558" lon="9.1934577"><ele>436.8</ele><time>2026-05-01T09:29:02.463Z</time></trkpt><trkpt lat="34.9291397" lon="9.1935434"><ele>436.6</ele><time>2026-05-01T09:29:04.473Z</time></trkpt><trkpt lat="34.9292381" lon="9.1936301"><ele>436.40000000000003</ele><time>2026-05-01T09:29:06.471Z</time></trkpt><trkpt lat="34.9292957" lon="9.1936819"><ele>436.20000000000005</ele><time>2026-05-01T09:29:07.459Z</time></trkpt><trkpt lat="34.9293642" lon="9.193741"><ele>436.0</ele><time>2026-05-01T09:29:08.445Z</time></trkpt><trkpt lat="34.9294398" lon="9.193805"><ele>436.00000000000006</ele><time>2026-05-01T09:29:09.475Z</time></trkpt><trkpt lat="34.9295127" lon="9.1938664"><ele>436.0</ele><time>2026-05-01T09:29:10.418Z</time></trkpt><trkpt lat="34.9295814" lon="9.1939255"><ele>436.0</ele><time>2026-05-01T09:29:11.468Z</time></trkpt><trkpt lat="34.9296476" lon="9.1939819"><ele>436.0</ele><time>2026-05-01T09:29:12.454Z</time></trkpt><trkpt lat="34.9297085" lon="9.1940287"><ele>436.00000000000006</ele><time>2026-05-01T09:29:13.447Z</time></trkpt><trkpt lat="34.929808" lon="9.1940954"><ele>436.0</ele><time>2026-05-01T09:29:15.475Z</time></trkpt><trkpt lat="34.9298845" lon="9.1941487"><ele>436.00000000000006</ele><time>2026-05-01T09:29:17.408Z</time></trkpt><trkpt lat="34.92995" lon="9.1941979"><ele>436.0</ele><time>2026-05-01T09:29:19.416Z</time></trkpt><trkpt lat="34.9300222" lon="9.1942522"><ele>436.0</ele><time>2026-05-01T09:29:21.459Z</time></trkpt><trkpt lat="34.9301033" lon="9.1942996"><ele>436.0</ele><time>2026-05-01T09:29:23.46Z</time></trkpt><trkpt lat="34.9301799" lon="9.1943585"><ele>436.00000000000006</ele><time>2026-05-01T09:29:25.463Z</time></trkpt><trkpt lat="34.9302412" lon="9.1944124"><ele>436.0</ele><time>2026-05-01T09:29:27.46Z</time></trkpt><trkpt lat="34.9302995" lon="9.1944714"><ele>436.00000000000006</ele><time>2026-05-01T09:29:29.468Z</time></trkpt><trkpt lat="34.9303588" lon="9.1945155"><ele>436.0</ele><time>2026-05-01T09:29:31.432Z</time></trkpt><trkpt lat="34.9304165" lon="9.1945625"><ele>436.0</ele><time>2026-05-01T09:29:33.465Z</time></trkpt><trkpt lat="34.9304731" lon="9.1946097"><ele>436.0</ele><time>2026-05-01T09:29:35.466Z</time></trkpt><trkpt lat="34.9305487" lon="9.1946858"><ele>436.00000000000006</ele><time>2026-05-01T09:29:37.463Z</time></trkpt><trkpt lat="34.9306361" lon="9.1947697"><ele>436.0</ele><time>2026-05-01T09:29:39.467Z</time></trkpt><trkpt lat="34.9307204" lon="9.1948386"><ele>435.6666666666667</ele><time>2026-05-01T09:29:41.443Z</time></trkpt><trkpt lat="34.9307901" lon="9.1949001"><ele>435.33333333333337</ele><time>2026-05-01T09:29:44.463Z</time></trkpt><trkpt lat="34.9308373" lon="9.1949557"><ele>435.0</ele><time>2026-05-01T09:30:30.418Z</time></trkpt><trkpt lat="34.9309087" lon="9.1949974"><ele>434.66666666666663</ele><time>2026-05-01T09:30:32.422Z</time></trkpt><trkpt lat="34.9310007" lon="9.1950614"><ele>434.3333333333333</ele><time>2026-05-01T09:30:34.4Z</time></trkpt><trkpt lat="34.9310802" lon="9.1951251"><ele>434.0</ele><time>2026-05-01T09:30:36.419Z</time></trkpt><trkpt lat="34.9311493" lon="9.195181"><ele>433.79999999999995</ele><time>2026-05-01T09:30:38.409Z</time></trkpt><trkpt lat="34.9312275" lon="9.1952576"><ele>433.59999999999997</ele><time>2026-05-01T09:30:40.43Z</time></trkpt><trkpt lat="34.9313095" lon="9.1953358"><ele>433.4</ele><time>2026-05-01T09:30:42.424Z</time></trkpt><trkpt lat="34.9313964" lon="9.1954044"><ele>433.2</ele><time>2026-05-01T09:30:44.416Z</time></trkpt><trkpt lat="34.9314627" lon="9.1954639"><ele>433.0</ele><time>2026-05-01T09:30:46.41Z</time></trkpt><trkpt lat="34.9315279" lon="9.1955138"><ele>433.0</ele><time>2026-05-01T09:30:48.411Z</time></trkpt><trkpt lat="34.9316126" lon="9.195585"><ele>432.99999999999994</ele><time>2026-05-01T09:30:50.421Z</time></trkpt><trkpt lat="34.9316959" lon="9.1956735"><ele>432.99999999999994</ele><time>2026-05-01T09:30:52.423Z</time></trkpt><trkpt lat="34.9317827" lon="9.1957481"><ele>433.0</ele><time>2026-05-01T09:30:54.448Z</time></trkpt><trkpt lat="34.9318571" lon="9.1958274"><ele>433.0</ele><time>2026-05-01T09:30:56.439Z</time></trkpt><trkpt lat="34.9319193" lon="9.195899"><ele>433.0</ele><time>2026-05-01T09:30:58.418Z</time></trkpt><trkpt lat="34.9319896" lon="9.1959682"><ele>432.99999999999994</ele><time>2026-05-01T09:31:01.412Z</time></trkpt><trkpt lat="34.9320405" lon="9.196015"><ele>432.99999999999994</ele><time>2026-05-01T09:31:03.411Z</time></trkpt><trkpt lat="34.9321399" lon="9.1960745"><ele>433.0</ele><time>2026-05-01T09:31:05.412Z</time></trkpt><trkpt lat="34.932252" lon="9.1961238"><ele>433.0</ele><time>2026-05-01T09:31:07.422Z</time></trkpt><trkpt lat="34.9323174" lon="9.1961544"><ele>432.99999999999994</ele><time>2026-05-01T09:31:08.416Z</time></trkpt><trkpt lat="34.9323828" lon="9.1961905"><ele>433.0</ele><time>2026-05-01T09:31:09.431Z</time></trkpt><trkpt lat="34.9324466" lon="9.1962401"><ele>433.0</ele><time>2026-05-01T09:31:10.41Z</time></trkpt><trkpt lat="34.9325093" lon="9.1962894"><ele>433.0</ele><time>2026-05-01T09:31:11.418Z</time></trkpt><trkpt lat="34.9325741" lon="9.1963289"><ele>433.0</ele><time>2026-05-01T09:31:12.41Z</time></trkpt><trkpt lat="34.9326251" lon="9.1963749"><ele>432.99999999999994</ele><time>2026-05-01T09:31:13.428Z</time></trkpt><trkpt lat="34.9326843" lon="9.1964217"><ele>433.0</ele><time>2026-05-01T09:31:14.421Z</time></trkpt><trkpt lat="34.9327501" lon="9.1964679"><ele>433.1666666666667</ele><time>2026-05-01T09:31:15.421Z</time></trkpt><trkpt lat="34.9328204" lon="9.1965228"><ele>433.33333333333337</ele><time>2026-05-01T09:31:16.424Z</time></trkpt><trkpt lat="34.9328977" lon="9.196576"><ele>433.5</ele><time>2026-05-01T09:31:17.46Z</time></trkpt><trkpt lat="34.9329699" lon="9.1966353"><ele>433.66666666666663</ele><time>2026-05-01T09:31:18.409Z</time></trkpt><trkpt lat="34.9330403" lon="9.1966914"><ele>433.8333333333333</ele><time>2026-05-01T09:31:19.42Z</time></trkpt><trkpt lat="34.9331121" lon="9.1967527"><ele>434.0</ele><time>2026-05-01T09:31:20.424Z</time></trkpt><trkpt lat="34.933183" lon="9.1968114"><ele>434.0</ele><time>2026-05-01T09:31:21.413Z</time></trkpt><trkpt lat="34.9332526" lon="9.1968733"><ele>434.0</ele><time>2026-05-01T09:31:22.424Z</time></trkpt><trkpt lat="34.9333168" lon="9.1969293"><ele>434.0</ele><time>2026-05-01T09:31:23.417Z</time></trkpt><trkpt lat="34.9333759" lon="9.1969768"><ele>434.0</ele><time>2026-05-01T09:31:24.403Z</time></trkpt><trkpt lat="34.9334754" lon="9.1970557"><ele>434.0</ele><time>2026-05-01T09:31:26.414Z</time></trkpt><trkpt lat="34.93356" lon="9.1971543"><ele>433.99999999999994</ele><time>2026-05-01T09:31:28.402Z</time></trkpt><trkpt lat="34.9336127" lon="9.1972138"><ele>434.0</ele><time>2026-05-01T09:31:29.417Z</time></trkpt><trkpt lat="34.9336793" lon="9.197276"><ele>434.0</ele><time>2026-05-01T09:31:30.409Z</time></trkpt><trkpt lat="34.9337517" lon="9.1973365"><ele>434.0</ele><time>2026-05-01T09:31:31.413Z</time></trkpt><trkpt lat="34.9338336" lon="9.1974006"><ele>433.99999999999994</ele><time>2026-05-01T09:31:32.413Z</time></trkpt><trkpt lat="34.9339153" lon="9.1974631"><ele>434.0</ele><time>2026-05-01T09:31:33.42Z</time></trkpt><trkpt lat="34.9339928" lon="9.1975234"><ele>433.99999999999994</ele><time>2026-05-01T09:31:34.425Z</time></trkpt><trkpt lat="34.9340657" lon="9.1975768"><ele>434.0</ele><time>2026-05-01T09:31:35.42Z</time></trkpt><trkpt lat="34.9341392" lon="9.1976251"><ele>434.0</ele><time>2026-05-01T09:31:36.42Z</time></trkpt><trkpt lat="34.9342096" lon="9.1976794"><ele>434.0</ele><time>2026-05-01T09:31:37.415Z</time></trkpt><trkpt lat="34.9342738" lon="9.1977354"><ele>433.99999999999994</ele><time>2026-05-01T09:31:38.413Z</time></trkpt><trkpt lat="34.9343328" lon="9.1977865"><ele>434.0</ele><time>2026-05-01T09:31:39.42Z</time></trkpt><trkpt lat="34.9343907" lon="9.1978305"><ele>434.75</ele><time>2026-05-01T09:31:40.418Z</time></trkpt><trkpt lat="34.9344902" lon="9.1979141"><ele>435.5</ele><time>2026-05-01T09:31:42.424Z</time></trkpt><trkpt lat="34.9345814" lon="9.1979912"><ele>436.25</ele><time>2026-05-01T09:31:44.416Z</time></trkpt><trkpt lat="34.9346799" lon="9.1980623"><ele>437.0</ele><time>2026-05-01T09:31:46.412Z</time></trkpt><trkpt lat="34.9347709" lon="9.1981271"><ele>436.8</ele><time>2026-05-01T09:31:48.415Z</time></trkpt><trkpt lat="34.9348499" lon="9.1981881"><ele>436.6</ele><time>2026-05-01T09:31:50.421Z</time></trkpt><trkpt lat="34.9349326" lon="9.1982587"><ele>436.40000000000003</ele><time>2026-05-01T09:31:52.415Z</time></trkpt><trkpt lat="34.9350386" lon="9.1983542"><ele>436.20000000000005</ele><time>2026-05-01T09:31:54.399Z</time></trkpt><trkpt lat="34.9351014" lon="9.1984072"><ele>436.0</ele><time>2026-05-01T09:31:55.411Z</time></trkpt><trkpt lat="34.935165" lon="9.198459"><ele>436.0</ele><time>2026-05-01T09:31:56.414Z</time></trkpt><trkpt lat="34.93523" lon="9.1985082"><ele>436.0</ele><time>2026-05-01T09:31:57.409Z</time></trkpt><trkpt lat="34.9352974" lon="9.1985574"><ele>436.0</ele><time>2026-05-01T09:31:58.407Z</time></trkpt><trkpt lat="34.935364" lon="9.1986083"><ele>436.0</ele><time>2026-05-01T09:31:59.412Z</time></trkpt><trkpt lat="34.9354246" lon="9.1986585"><ele>436.0</ele><time>2026-05-01T09:32:00.421Z</time></trkpt><trkpt lat="34.9354856" lon="9.1987016"><ele>436.0</ele><time>2026-05-01T09:32:01.421Z</time></trkpt><trkpt lat="34.9355418" lon="9.1987493"><ele>436.0</ele><time>2026-05-01T09:32:02.41Z</time></trkpt><trkpt lat="34.935603" lon="9.1987973"><ele>436.00000000000006</ele><time>2026-05-01T09:32:03.418Z</time></trkpt><trkpt lat="34.935665" lon="9.1988449"><ele>436.0</ele><time>2026-05-01T09:32:04.422Z</time></trkpt><trkpt lat="34.9357328" lon="9.198906"><ele>436.0</ele><time>2026-05-01T09:32:05.419Z</time></trkpt><trkpt lat="34.935808" lon="9.1989644"><ele>436.0</ele><time>2026-05-01T09:32:06.422Z</time></trkpt><trkpt lat="34.9358829" lon="9.1990282"><ele>436.00000000000006</ele><time>2026-05-01T09:32:07.415Z</time></trkpt><trkpt lat="34.9359592" lon="9.1990946"><ele>436.0</ele><time>2026-05-01T09:32:08.434Z</time></trkpt><trkpt lat="34.9360328" lon="9.1991589"><ele>436.20000000000005</ele><time>2026-05-01T09:32:09.416Z</time></trkpt><trkpt lat="34.9361066" lon="9.1992231"><ele>436.40000000000003</ele><time>2026-05-01T09:32:10.416Z</time></trkpt><trkpt lat="34.936179" lon="9.1992868"><ele>436.6</ele><time>2026-05-01T09:32:11.417Z</time></trkpt><trkpt lat="34.9362506" lon="9.1993521"><ele>436.8</ele><time>2026-05-01T09:32:12.423Z</time></trkpt><trkpt lat="34.9363259" lon="9.1994124"><ele>437.0</ele><time>2026-05-01T09:32:13.421Z</time></trkpt><trkpt lat="34.9364068" lon="9.1994829"><ele>437.0</ele><time>2026-05-01T09:32:14.412Z</time></trkpt><trkpt lat="34.9364879" lon="9.1995468"><ele>437.00000000000006</ele><time>2026-05-01T09:32:15.409Z</time></trkpt><trkpt lat="34.9365681" lon="9.19961"><ele>437.00000000000006</ele><time>2026-05-01T09:32:16.405Z</time></trkpt><trkpt lat="34.9366526" lon="9.1996722"><ele>437.0</ele><time>2026-05-01T09:32:17.404Z</time></trkpt><trkpt lat="34.9367309" lon="9.1997354"><ele>437.0</ele><time>2026-05-01T09:32:18.431Z</time></trkpt><trkpt lat="34.9367979" lon="9.1997842"><ele>437.16666666666663</ele><time>2026-05-01T09:32:19.417Z</time></trkpt><trkpt lat="34.9368521" lon="9.1998267"><ele>437.3333333333333</ele><time>2026-05-01T09:32:20.421Z</time></trkpt><trkpt lat="34.936904" lon="9.1998704"><ele>437.5</ele><time>2026-05-01T09:32:21.418Z</time></trkpt><trkpt lat="34.9370144" lon="9.1999535"><ele>437.66666666666663</ele><time>2026-05-01T09:32:23.419Z</time></trkpt><trkpt lat="34.9370744" lon="9.2000042"><ele>437.8333333333333</ele><time>2026-05-01T09:32:24.428Z</time></trkpt><trkpt lat="34.9371425" lon="9.2000548"><ele>438.0</ele><time>2026-05-01T09:32:25.419Z</time></trkpt><trkpt lat="34.9372069" lon="9.2001085"><ele>437.6666666666667</ele><time>2026-05-01T09:32:26.426Z</time></trkpt><trkpt lat="34.9372745" lon="9.2001653"><ele>437.33333333333337</ele><time>2026-05-01T09:32:27.424Z</time></trkpt><trkpt lat="34.9373495" lon="9.2002237"><ele>437.0</ele><time>2026-05-01T09:32:28.421Z</time></trkpt><trkpt lat="34.9374192" lon="9.2002845"><ele>436.6666666666667</ele><time>2026-05-01T09:32:29.422Z</time></trkpt><trkpt lat="34.9374889" lon="9.2003458"><ele>436.33333333333337</ele><time>2026-05-01T09:32:30.411Z</time></trkpt><trkpt lat="34.9375619" lon="9.2004041"><ele>436.0</ele><time>2026-05-01T09:32:31.42Z</time></trkpt><trkpt lat="34.9376344" lon="9.2004582"><ele>435.83333333333337</ele><time>2026-05-01T09:32:32.42Z</time></trkpt><trkpt lat="34.9377005" lon="9.2005109"><ele>435.6666666666667</ele><time>2026-05-01T09:32:33.446Z</time></trkpt><trkpt lat="34.9377581" lon="9.2005624"><ele>435.5</ele><time>2026-05-01T09:32:34.425Z</time></trkpt><trkpt lat="34.9378202" lon="9.2006143"><ele>435.33333333333337</ele><time>2026-05-01T09:32:35.412Z</time></trkpt><trkpt lat="34.9378811" lon="9.2006652"><ele>435.1666666666667</ele><time>2026-05-01T09:32:36.418Z</time></trkpt><trkpt lat="34.9379424" lon="9.2007177"><ele>435.0</ele><time>2026-05-01T09:32:37.418Z</time></trkpt><trkpt lat="34.9380036" lon="9.2007761"><ele>435.0</ele><time>2026-05-01T09:32:38.4Z</time></trkpt><trkpt lat="34.9380579" lon="9.2008256"><ele>435.0</ele><time>2026-05-01T09:32:39.418Z</time></trkpt><trkpt lat="34.9381109" lon="9.2008714"><ele>435.0</ele><time>2026-05-01T09:32:40.414Z</time></trkpt><trkpt lat="34.9382108" lon="9.2009449"><ele>435.0</ele><time>2026-05-01T09:32:42.417Z</time></trkpt><trkpt lat="34.9382819" lon="9.2009924"><ele>435.0</ele><time>2026-05-01T09:32:44.419Z</time></trkpt><trkpt lat="34.9383486" lon="9.2010573"><ele>435.0</ele><time>2026-05-01T09:32:47.415Z</time></trkpt><trkpt lat="34.9384019" lon="9.2011031"><ele>435.0</ele><time>2026-05-01T09:32:49.412Z</time></trkpt><trkpt lat="34.9384911" lon="9.2011746"><ele>435.0</ele><time>2026-05-01T09:32:51.426Z</time></trkpt><trkpt lat="34.938591" lon="9.2012567"><ele>435.0</ele><time>2026-05-01T09:32:53.416Z</time></trkpt><trkpt lat="34.9386929" lon="9.2013375"><ele>435.0</ele><time>2026-05-01T09:32:55.406Z</time></trkpt><trkpt lat="34.9387487" lon="9.2013811"><ele>435.0</ele><time>2026-05-01T09:32:56.418Z</time></trkpt><trkpt lat="34.9388103" lon="9.2014289"><ele>435.0</ele><time>2026-05-01T09:32:57.418Z</time></trkpt><trkpt lat="34.9388754" lon="9.2014838"><ele>435.0</ele><time>2026-05-01T09:32:58.41Z</time></trkpt><trkpt lat="34.9389422" lon="9.2015391"><ele>435.0</ele><time>2026-05-01T09:32:59.409Z</time></trkpt><trkpt lat="34.9390117" lon="9.2015974"><ele>435.0</ele><time>2026-05-01T09:33:00.419Z</time></trkpt><trkpt lat="34.9390803" lon="9.2016463"><ele>435.0</ele><time>2026-05-01T09:33:01.418Z</time></trkpt><trkpt lat="34.9391561" lon="9.2017002"><ele>435.0</ele><time>2026-05-01T09:33:02.422Z</time></trkpt><trkpt lat="34.93923" lon="9.201769"><ele>435.0</ele><time>2026-05-01T09:33:03.416Z</time></trkpt><trkpt lat="34.9393082" lon="9.2018401"><ele>435.0</ele><time>2026-05-01T09:33:04.407Z</time></trkpt><trkpt lat="34.9393844" lon="9.2019112"><ele>435.0</ele><time>2026-05-01T09:33:05.41Z</time></trkpt><trkpt lat="34.9394656" lon="9.201982"><ele>435.0</ele><time>2026-05-01T09:33:06.408Z</time></trkpt><trkpt lat="34.9395471" lon="9.2020542"><ele>435.0</ele><time>2026-05-01T09:33:07.414Z</time></trkpt><trkpt lat="34.9396304" lon="9.2021236"><ele>435.0</ele><time>2026-05-01T09:33:08.406Z</time></trkpt><trkpt lat="34.9397128" lon="9.2021979"><ele>435.0</ele><time>2026-05-01T09:33:09.399Z</time></trkpt><trkpt lat="34.9398029" lon="9.2022743"><ele>435.0</ele><time>2026-05-01T09:33:10.449Z</time></trkpt><trkpt lat="34.9398886" lon="9.2023466"><ele>435.0</ele><time>2026-05-01T09:33:11.419Z</time></trkpt><trkpt lat="34.9399801" lon="9.202427"><ele>435.0</ele><time>2026-05-01T09:33:12.424Z</time></trkpt><trkpt lat="34.9400714" lon="9.2024956"><ele>434.8</ele><time>2026-05-01T09:33:13.407Z</time></trkpt><trkpt lat="34.9401623" lon="9.2025689"><ele>434.6</ele><time>2026-05-01T09:33:14.415Z</time></trkpt><trkpt lat="34.9402541" lon="9.202645"><ele>434.4</ele><time>2026-05-01T09:33:15.423Z</time></trkpt><trkpt lat="34.9403445" lon="9.2027273"><ele>434.2</ele><time>2026-05-01T09:33:16.422Z</time></trkpt><trkpt lat="34.9404312" lon="9.2028044"><ele>434.0</ele><time>2026-05-01T09:33:17.418Z</time></trkpt><trkpt lat="34.9405215" lon="9.2028958"><ele>434.0</ele><time>2026-05-01T09:33:18.417Z</time></trkpt><trkpt lat="34.9406111" lon="9.2029804"><ele>434.0</ele><time>2026-05-01T09:33:19.409Z</time></trkpt><trkpt lat="34.9406981" lon="9.2030578"><ele>434.0</ele><time>2026-05-01T09:33:20.412Z</time></trkpt><trkpt lat="34.9407856" lon="9.2031357"><ele>434.0</ele><time>2026-05-01T09:33:21.418Z</time></trkpt><trkpt lat="34.9408612" lon="9.2032045"><ele>434.0</ele><time>2026-05-01T09:33:22.418Z</time></trkpt><trkpt lat="34.9409286" lon="9.2032617"><ele>433.8333333333333</ele><time>2026-05-01T09:33:23.417Z</time></trkpt><trkpt lat="34.9409827" lon="9.2033151"><ele>433.66666666666663</ele><time>2026-05-01T09:33:24.415Z</time></trkpt><trkpt lat="34.9410351" lon="9.2033656"><ele>433.5</ele><time>2026-05-01T09:33:25.419Z</time></trkpt><trkpt lat="34.9410848" lon="9.2034128"><ele>433.33333333333337</ele><time>2026-05-01T09:33:26.413Z</time></trkpt><trkpt lat="34.9411596" lon="9.2034774"><ele>433.1666666666667</ele><time>2026-05-01T09:33:27.419Z</time></trkpt><trkpt lat="34.9412444" lon="9.2035456"><ele>433.0</ele><time>2026-05-01T09:33:28.414Z</time></trkpt><trkpt lat="34.9413363" lon="9.2036188"><ele>433.0</ele><time>2026-05-01T09:33:29.404Z</time></trkpt><trkpt lat="34.9414315" lon="9.2037028"><ele>433.0</ele><time>2026-05-01T09:33:30.42Z</time></trkpt><trkpt lat="34.9415297" lon="9.2037805"><ele>433.0</ele><time>2026-05-01T09:33:31.424Z</time></trkpt><trkpt lat="34.9416301" lon="9.2038681"><ele>433.0</ele><time>2026-05-01T09:33:32.408Z</time></trkpt><trkpt lat="34.9417343" lon="9.2039672"><ele>432.6666666666667</ele><time>2026-05-01T09:33:33.425Z</time></trkpt><trkpt lat="34.9418567" lon="9.2040696"><ele>432.33333333333337</ele><time>2026-05-01T09:33:34.41Z</time></trkpt><trkpt lat="34.941997" lon="9.2041885"><ele>432.0</ele><time>2026-05-01T09:33:35.418Z</time></trkpt><trkpt lat="34.9421426" lon="9.2043141"><ele>432.0</ele><time>2026-05-01T09:33:36.401Z</time></trkpt><trkpt lat="34.9422855" lon="9.2044484"><ele>432.0</ele><time>2026-05-01T09:33:37.414Z</time></trkpt><trkpt lat="34.9424222" lon="9.2045829"><ele>432.0</ele><time>2026-05-01T09:33:38.416Z</time></trkpt><trkpt lat="34.9425496" lon="9.2047037"><ele>431.66666666666663</ele><time>2026-05-01T09:33:39.422Z</time></trkpt><trkpt lat="34.9426759" lon="9.2048067"><ele>431.3333333333333</ele><time>2026-05-01T09:33:40.436Z</time></trkpt><trkpt lat="34.9428007" lon="9.2049176"><ele>431.0</ele><time>2026-05-01T09:33:41.409Z</time></trkpt><trkpt lat="34.9429231" lon="9.2050213"><ele>431.0</ele><time>2026-05-01T09:33:42.411Z</time></trkpt><trkpt lat="34.9430436" lon="9.2051291"><ele>431.0</ele><time>2026-05-01T09:33:43.418Z</time></trkpt><trkpt lat="34.9431636" lon="9.205237"><ele>431.0</ele><time>2026-05-01T09:33:44.415Z</time></trkpt><trkpt lat="34.9432818" lon="9.2053459"><ele>431.0</ele><time>2026-05-01T09:33:45.415Z</time></trkpt><trkpt lat="34.9433935" lon="9.2054484"><ele>431.0</ele><time>2026-05-01T09:33:46.421Z</time></trkpt><trkpt lat="34.9435125" lon="9.2055533"><ele>431.0</ele><time>2026-05-01T09:33:47.418Z</time></trkpt><trkpt lat="34.9436275" lon="9.2056594"><ele>431.0</ele><time>2026-05-01T09:33:48.405Z</time></trkpt><trkpt lat="34.9437425" lon="9.2057608"><ele>431.0</ele><time>2026-05-01T09:33:49.414Z</time></trkpt><trkpt lat="34.9438607" lon="9.2058561"><ele>431.0</ele><time>2026-05-01T09:33:50.418Z</time></trkpt><trkpt lat="34.9439775" lon="9.2059558"><ele>431.0</ele><time>2026-05-01T09:33:51.42Z</time></trkpt><trkpt lat="34.944085" lon="9.2060515"><ele>431.0</ele><time>2026-05-01T09:33:52.412Z</time></trkpt><trkpt lat="34.9441995" lon="9.2061478"><ele>431.0</ele><time>2026-05-01T09:33:53.42Z</time></trkpt><trkpt lat="34.9443128" lon="9.2062458"><ele>431.0</ele><time>2026-05-01T09:33:54.415Z</time></trkpt><trkpt lat="34.9444324" lon="9.2063487"><ele>431.0</ele><time>2026-05-01T09:33:55.401Z</time></trkpt><trkpt lat="34.944553" lon="9.2064569"><ele>431.0</ele><time>2026-05-01T09:33:56.405Z</time></trkpt><trkpt lat="34.9446765" lon="9.2065704"><ele>430.0</ele><time>2026-05-01T09:33:57.423Z</time></trkpt><trkpt lat="34.9447983" lon="9.206686"><ele>429.0</ele><time>2026-05-01T09:33:58.407Z</time></trkpt><trkpt lat="34.9449214" lon="9.206802"><ele>428.0</ele><time>2026-05-01T09:33:59.405Z</time></trkpt><trkpt lat="34.9450473" lon="9.2069168"><ele>428.0</ele><time>2026-05-01T09:34:00.414Z</time></trkpt><trkpt lat="34.9451761" lon="9.2070321"><ele>428.0</ele><time>2026-05-01T09:34:01.423Z</time></trkpt><trkpt lat="34.9453065" lon="9.2071458"><ele>428.0</ele><time>2026-05-01T09:34:02.419Z</time></trkpt><trkpt lat="34.9454404" lon="9.2072614"><ele>427.0</ele><time>2026-05-01T09:34:03.417Z</time></trkpt><trkpt lat="34.9455736" lon="9.2073826"><ele>426.0</ele><time>2026-05-01T09:34:04.438Z</time></trkpt><trkpt lat="34.9457118" lon="9.2075028"><ele>425.0</ele><time>2026-05-01T09:34:05.418Z</time></trkpt><trkpt lat="34.9458434" lon="9.207621"><ele>424.66666666666663</ele><time>2026-05-01T09:34:06.424Z</time></trkpt><trkpt lat="34.9459762" lon="9.2077383"><ele>424.33333333333337</ele><time>2026-05-01T09:34:07.415Z</time></trkpt><trkpt lat="34.9461016" lon="9.2078562"><ele>424.0</ele><time>2026-05-01T09:34:08.415Z</time></trkpt><trkpt lat="34.9462285" lon="9.207973"><ele>424.0</ele><time>2026-05-01T09:34:09.427Z</time></trkpt><trkpt lat="34.9463528" lon="9.2080833"><ele>424.0</ele><time>2026-05-01T09:34:10.409Z</time></trkpt><trkpt lat="34.9464769" lon="9.2081916"><ele>424.0</ele><time>2026-05-01T09:34:11.422Z</time></trkpt><trkpt lat="34.9466054" lon="9.2083054"><ele>423.6666666666667</ele><time>2026-05-01T09:34:12.426Z</time></trkpt><trkpt lat="34.9467336" lon="9.2084146"><ele>423.33333333333337</ele><time>2026-05-01T09:34:13.419Z</time></trkpt><trkpt lat="34.9468547" lon="9.2085308"><ele>423.0</ele><time>2026-05-01T09:34:14.415Z</time></trkpt><trkpt lat="34.9469792" lon="9.2086416"><ele>423.0</ele><time>2026-05-01T09:34:15.421Z</time></trkpt><trkpt lat="34.9471039" lon="9.2087554"><ele>423.0</ele><time>2026-05-01T09:34:16.41Z</time></trkpt><trkpt lat="34.9472315" lon="9.2088647"><ele>423.0</ele><time>2026-05-01T09:34:17.406Z</time></trkpt><trkpt lat="34.9473608" lon="9.2089812"><ele>423.0</ele><time>2026-05-01T09:34:18.417Z</time></trkpt><trkpt lat="34.9474828" lon="9.2090916"><ele>423.0</ele><time>2026-05-01T09:34:19.417Z</time></trkpt><trkpt lat="34.9476043" lon="9.2092"><ele>423.0</ele><time>2026-05-01T09:34:20.417Z</time></trkpt><trkpt lat="34.9477243" lon="9.2093106"><ele>423.5</ele><time>2026-05-01T09:34:21.421Z</time></trkpt><trkpt lat="34.9478433" lon="9.2094153"><ele>424.0</ele><time>2026-05-01T09:34:22.419Z</time></trkpt><trkpt lat="34.9479613" lon="9.2095176"><ele>424.5</ele><time>2026-05-01T09:34:23.422Z</time></trkpt><trkpt lat="34.9480766" lon="9.2096241"><ele>425.0</ele><time>2026-05-01T09:34:24.418Z</time></trkpt><trkpt lat="34.9481965" lon="9.2097245"><ele>425.0</ele><time>2026-05-01T09:34:25.423Z</time></trkpt><trkpt lat="34.9483127" lon="9.2098248"><ele>425.0</ele><time>2026-05-01T09:34:26.427Z</time></trkpt><trkpt lat="34.9484341" lon="9.2099283"><ele>425.0</ele><time>2026-05-01T09:34:27.424Z</time></trkpt><trkpt lat="34.9485585" lon="9.210031"><ele>425.0</ele><time>2026-05-01T09:34:28.422Z</time></trkpt><trkpt lat="34.9486771" lon="9.2101364"><ele>424.25</ele><time>2026-05-01T09:34:29.418Z</time></trkpt><trkpt lat="34.9487989" lon="9.2102402"><ele>423.5</ele><time>2026-05-01T09:34:30.424Z</time></trkpt><trkpt lat="34.9489195" lon="9.2103437"><ele>422.75</ele><time>2026-05-01T09:34:31.418Z</time></trkpt><trkpt lat="34.9490338" lon="9.2104458"><ele>422.0</ele><time>2026-05-01T09:34:32.421Z</time></trkpt><trkpt lat="34.9491521" lon="9.210554"><ele>422.3333333333333</ele><time>2026-05-01T09:34:33.413Z</time></trkpt><trkpt lat="34.949267" lon="9.2106679"><ele>422.66666666666663</ele><time>2026-05-01T09:34:34.432Z</time></trkpt><trkpt lat="34.9493843" lon="9.2107762"><ele>423.0</ele><time>2026-05-01T09:34:35.407Z</time></trkpt><trkpt lat="34.9495109" lon="9.2108884"><ele>423.0</ele><time>2026-05-01T09:34:36.417Z</time></trkpt><trkpt lat="34.9496399" lon="9.2109964"><ele>423.0</ele><time>2026-05-01T09:34:37.414Z</time></trkpt><trkpt lat="34.9497725" lon="9.2111078"><ele>423.0</ele><time>2026-05-01T09:34:38.418Z</time></trkpt><trkpt lat="34.9499091" lon="9.2112199"><ele>423.0</ele><time>2026-05-01T09:34:39.418Z</time></trkpt><trkpt lat="34.9500458" lon="9.2113389"><ele>423.0</ele><time>2026-05-01T09:34:40.424Z</time></trkpt><trkpt lat="34.9501887" lon="9.2114639"><ele>423.0</ele><time>2026-05-01T09:34:41.437Z</time></trkpt><trkpt lat="34.9503287" lon="9.2115944"><ele>422.33333333333337</ele><time>2026-05-01T09:34:42.416Z</time></trkpt><trkpt lat="34.9504679" lon="9.2117276"><ele>421.6666666666667</ele><time>2026-05-01T09:34:43.419Z</time></trkpt><trkpt lat="34.9506021" lon="9.2118572"><ele>421.0</ele><time>2026-05-01T09:34:44.421Z</time></trkpt><trkpt lat="34.9507402" lon="9.2119785"><ele>421.33333333333337</ele><time>2026-05-01T09:34:45.414Z</time></trkpt><trkpt lat="34.950881" lon="9.212105"><ele>421.66666666666663</ele><time>2026-05-01T09:34:46.412Z</time></trkpt><trkpt lat="34.9510259" lon="9.2122289"><ele>422.0</ele><time>2026-05-01T09:34:47.418Z</time></trkpt><trkpt lat="34.9511683" lon="9.2123509"><ele>422.0</ele><time>2026-05-01T09:34:48.413Z</time></trkpt><trkpt lat="34.9513139" lon="9.2124787"><ele>422.0</ele><time>2026-05-01T09:34:49.414Z</time></trkpt><trkpt lat="34.9514612" lon="9.2126112"><ele>422.0</ele><time>2026-05-01T09:34:50.436Z</time></trkpt><trkpt lat="34.9516095" lon="9.2127469"><ele>421.66666666666663</ele><time>2026-05-01T09:34:51.434Z</time></trkpt><trkpt lat="34.9517657" lon="9.2128892"><ele>421.33333333333337</ele><time>2026-05-01T09:34:52.406Z</time></trkpt><trkpt lat="34.9519212" lon="9.2130262"><ele>421.0</ele><time>2026-05-01T09:34:53.417Z</time></trkpt><trkpt lat="34.9520733" lon="9.2131556"><ele>420.33333333333337</ele><time>2026-05-01T09:34:54.408Z</time></trkpt><trkpt lat="34.9522259" lon="9.2132846"><ele>419.66666666666663</ele><time>2026-05-01T09:34:55.408Z</time></trkpt><trkpt lat="34.9523773" lon="9.2134186"><ele>419.0</ele><time>2026-05-01T09:34:56.408Z</time></trkpt><trkpt lat="34.9525277" lon="9.2135516"><ele>419.66666666666663</ele><time>2026-05-01T09:34:57.418Z</time></trkpt><trkpt lat="34.9526756" lon="9.213689"><ele>420.33333333333337</ele><time>2026-05-01T09:34:58.443Z</time></trkpt><trkpt lat="34.9528258" lon="9.2138278"><ele>421.0</ele><time>2026-05-01T09:34:59.414Z</time></trkpt><trkpt lat="34.9529799" lon="9.2139675"><ele>420.33333333333337</ele><time>2026-05-01T09:35:00.447Z</time></trkpt><trkpt lat="34.9531353" lon="9.2141038"><ele>419.66666666666663</ele><time>2026-05-01T09:35:01.417Z</time></trkpt><trkpt lat="34.9532911" lon="9.2142389"><ele>419.0</ele><time>2026-05-01T09:35:02.421Z</time></trkpt><trkpt lat="34.9534452" lon="9.214375"><ele>419.0</ele><time>2026-05-01T09:35:03.402Z</time></trkpt><trkpt lat="34.9535951" lon="9.2145122"><ele>419.0</ele><time>2026-05-01T09:35:04.423Z</time></trkpt><trkpt lat="34.9537483" lon="9.2146494"><ele>419.0</ele><time>2026-05-01T09:35:05.417Z</time></trkpt><trkpt lat="34.9539017" lon="9.2147851"><ele>418.66666666666663</ele><time>2026-05-01T09:35:06.43Z</time></trkpt><trkpt lat="34.9540574" lon="9.2149175"><ele>418.33333333333337</ele><time>2026-05-01T09:35:07.452Z</time></trkpt><trkpt lat="34.9542145" lon="9.2150545"><ele>418.0</ele><time>2026-05-01T09:35:08.442Z</time></trkpt><trkpt lat="34.9543696" lon="9.2151912"><ele>418.0</ele><time>2026-05-01T09:35:09.423Z</time></trkpt><trkpt lat="34.9545221" lon="9.2153304"><ele>418.0</ele><time>2026-05-01T09:35:10.437Z</time></trkpt><trkpt lat="34.9546751" lon="9.2154626"><ele>418.0</ele><time>2026-05-01T09:35:11.455Z</time></trkpt><trkpt lat="34.9548308" lon="9.2155992"><ele>417.6666666666667</ele><time>2026-05-01T09:35:12.407Z</time></trkpt><trkpt lat="34.9549853" lon="9.2157419"><ele>417.33333333333337</ele><time>2026-05-01T09:35:13.418Z</time></trkpt><trkpt lat="34.9551388" lon="9.2158781"><ele>417.0</ele><time>2026-05-01T09:35:14.428Z</time></trkpt><trkpt lat="34.9552896" lon="9.2160137"><ele>417.0</ele><time>2026-05-01T09:35:15.421Z</time></trkpt><trkpt lat="34.9554393" lon="9.2161487"><ele>417.0</ele><time>2026-05-01T09:35:16.41Z</time></trkpt><trkpt lat="34.9555917" lon="9.2162841"><ele>417.0</ele><time>2026-05-01T09:35:17.411Z</time></trkpt><trkpt lat="34.9557454" lon="9.2164127"><ele>416.0</ele><time>2026-05-01T09:35:18.405Z</time></trkpt><trkpt lat="34.9558975" lon="9.2165439"><ele>415.0</ele><time>2026-05-01T09:35:19.416Z</time></trkpt><trkpt lat="34.956053" lon="9.2166707"><ele>414.0</ele><time>2026-05-01T09:35:20.409Z</time></trkpt><trkpt lat="34.9562123" lon="9.2168046"><ele>414.0</ele><time>2026-05-01T09:35:21.413Z</time></trkpt><trkpt lat="34.9563701" lon="9.2169416"><ele>414.0</ele><time>2026-05-01T09:35:22.42Z</time></trkpt><trkpt lat="34.9565254" lon="9.2170776"><ele>414.0</ele><time>2026-05-01T09:35:23.407Z</time></trkpt><trkpt lat="34.9566791" lon="9.2172094"><ele>414.0</ele><time>2026-05-01T09:35:24.411Z</time></trkpt><trkpt lat="34.9568318" lon="9.2173521"><ele>414.0</ele><time>2026-05-01T09:35:25.406Z</time></trkpt><trkpt lat="34.9569837" lon="9.2174918"><ele>414.0</ele><time>2026-05-01T09:35:26.418Z</time></trkpt><trkpt lat="34.9571381" lon="9.2176322"><ele>414.0</ele><time>2026-05-01T09:35:27.418Z</time></trkpt><trkpt lat="34.9572907" lon="9.2177683"><ele>414.0</ele><time>2026-05-01T09:35:28.421Z</time></trkpt><trkpt lat="34.9574396" lon="9.2179063"><ele>414.0</ele><time>2026-05-01T09:35:29.409Z</time></trkpt><trkpt lat="34.957593" lon="9.2180426"><ele>413.66666666666663</ele><time>2026-05-01T09:35:30.423Z</time></trkpt><trkpt lat="34.957744" lon="9.2181819"><ele>413.3333333333333</ele><time>2026-05-01T09:35:31.433Z</time></trkpt><trkpt lat="34.9578976" lon="9.2183221"><ele>413.0</ele><time>2026-05-01T09:35:32.406Z</time></trkpt><trkpt lat="34.9580523" lon="9.2184631"><ele>413.0</ele><time>2026-05-01T09:35:33.422Z</time></trkpt><trkpt lat="34.9582096" lon="9.2186022"><ele>413.0</ele><time>2026-05-01T09:35:34.415Z</time></trkpt><trkpt lat="34.9583721" lon="9.2187401"><ele>413.0</ele><time>2026-05-01T09:35:35.412Z</time></trkpt><trkpt lat="34.958531" lon="9.2188788"><ele>412.66666666666663</ele><time>2026-05-01T09:35:36.419Z</time></trkpt><trkpt lat="34.9586886" lon="9.2190237"><ele>412.33333333333337</ele><time>2026-05-01T09:35:37.415Z</time></trkpt><trkpt lat="34.9588524" lon="9.219171"><ele>412.0</ele><time>2026-05-01T09:35:38.412Z</time></trkpt><trkpt lat="34.9590143" lon="9.2193118"><ele>412.0</ele><time>2026-05-01T09:35:39.418Z</time></trkpt><trkpt lat="34.959174" lon="9.2194503"><ele>412.0</ele><time>2026-05-01T09:35:40.417Z</time></trkpt><trkpt lat="34.9593363" lon="9.2195922"><ele>412.0</ele><time>2026-05-01T09:35:41.407Z</time></trkpt><trkpt lat="34.959501" lon="9.2197401"><ele>411.6666666666667</ele><time>2026-05-01T09:35:42.419Z</time></trkpt><trkpt lat="34.9596658" lon="9.219888"><ele>411.33333333333337</ele><time>2026-05-01T09:35:43.426Z</time></trkpt><trkpt lat="34.9598366" lon="9.2200403"><ele>411.0</ele><time>2026-05-01T09:35:44.415Z</time></trkpt><trkpt lat="34.9600089" lon="9.220197"><ele>410.33333333333337</ele><time>2026-05-01T09:35:45.42Z</time></trkpt><trkpt lat="34.960185" lon="9.2203574"><ele>409.6666666666667</ele><time>2026-05-01T09:35:46.414Z</time></trkpt><trkpt lat="34.9603633" lon="9.2205138"><ele>409.0</ele><time>2026-05-01T09:35:47.411Z</time></trkpt><trkpt lat="34.9605409" lon="9.220671"><ele>409.0</ele><time>2026-05-01T09:35:48.424Z</time></trkpt><trkpt lat="34.9607231" lon="9.2208289"><ele>409.0</ele><time>2026-05-01T09:35:49.425Z</time></trkpt><trkpt lat="34.960902" lon="9.220987"><ele>409.0</ele><time>2026-05-01T09:35:50.414Z</time></trkpt><trkpt lat="34.9610806" lon="9.2211443"><ele>408.6666666666667</ele><time>2026-05-01T09:35:51.416Z</time></trkpt><trkpt lat="34.9612563" lon="9.2213051"><ele>408.33333333333337</ele><time>2026-05-01T09:35:52.408Z</time></trkpt><trkpt lat="34.961426" lon="9.2214645"><ele>408.0</ele><time>2026-05-01T09:35:53.432Z</time></trkpt><trkpt lat="34.9615964" lon="9.2216207"><ele>407.33333333333337</ele><time>2026-05-01T09:35:54.412Z</time></trkpt><trkpt lat="34.9617679" lon="9.2217718"><ele>406.6666666666667</ele><time>2026-05-01T09:35:55.415Z</time></trkpt><trkpt lat="34.9619409" lon="9.2219209"><ele>406.0</ele><time>2026-05-01T09:35:56.42Z</time></trkpt><trkpt lat="34.9621113" lon="9.2220748"><ele>406.0</ele><time>2026-05-01T09:35:57.416Z</time></trkpt><trkpt lat="34.9622832" lon="9.2222256"><ele>406.0</ele><time>2026-05-01T09:35:58.415Z</time></trkpt><trkpt lat="34.9624474" lon="9.2223723"><ele>406.0</ele><time>2026-05-01T09:35:59.414Z</time></trkpt><trkpt lat="34.9626096" lon="9.2225138"><ele>406.33333333333337</ele><time>2026-05-01T09:36:00.417Z</time></trkpt><trkpt lat="34.9627743" lon="9.222662"><ele>406.66666666666663</ele><time>2026-05-01T09:36:01.416Z</time></trkpt><trkpt lat="34.9629396" lon="9.2228065"><ele>407.0</ele><time>2026-05-01T09:36:02.429Z</time></trkpt><trkpt lat="34.9631036" lon="9.2229488"><ele>407.0</ele><time>2026-05-01T09:36:03.416Z</time></trkpt><trkpt lat="34.9632674" lon="9.223095"><ele>407.0</ele><time>2026-05-01T09:36:04.417Z</time></trkpt><trkpt lat="34.9634273" lon="9.2232443"><ele>407.0</ele><time>2026-05-01T09:36:05.416Z</time></trkpt><trkpt lat="34.9635843" lon="9.2233875"><ele>406.66666666666663</ele><time>2026-05-01T09:36:06.415Z</time></trkpt><trkpt lat="34.9637433" lon="9.2235289"><ele>406.33333333333337</ele><time>2026-05-01T09:36:07.411Z</time></trkpt><trkpt lat="34.9639001" lon="9.2236657"><ele>406.0</ele><time>2026-05-01T09:36:08.423Z</time></trkpt><trkpt lat="34.9640559" lon="9.223806"><ele>406.33333333333337</ele><time>2026-05-01T09:36:09.416Z</time></trkpt><trkpt lat="34.9642149" lon="9.2239443"><ele>406.66666666666663</ele><time>2026-05-01T09:36:10.424Z</time></trkpt><trkpt lat="34.9643713" lon="9.2240878"><ele>407.0</ele><time>2026-05-01T09:36:11.421Z</time></trkpt><trkpt lat="34.9645302" lon="9.2242276"><ele>407.3333333333333</ele><time>2026-05-01T09:36:12.407Z</time></trkpt><trkpt lat="34.9646884" lon="9.2243642"><ele>407.66666666666663</ele><time>2026-05-01T09:36:13.423Z</time></trkpt><trkpt lat="34.9648402" lon="9.2244958"><ele>408.0</ele><time>2026-05-01T09:36:14.412Z</time></trkpt><trkpt lat="34.9649909" lon="9.2246285"><ele>408.0</ele><time>2026-05-01T09:36:15.42Z</time></trkpt><trkpt lat="34.9651419" lon="9.2247607"><ele>408.0</ele><time>2026-05-01T09:36:16.412Z</time></trkpt><trkpt lat="34.9652894" lon="9.224889"><ele>408.0</ele><time>2026-05-01T09:36:17.424Z</time></trkpt><trkpt lat="34.9654347" lon="9.2250174"><ele>407.66666666666663</ele><time>2026-05-01T09:36:18.401Z</time></trkpt><trkpt lat="34.9655734" lon="9.2251415"><ele>407.3333333333333</ele><time>2026-05-01T09:36:19.415Z</time></trkpt><trkpt lat="34.9657105" lon="9.2252642"><ele>407.0</ele><time>2026-05-01T09:36:20.414Z</time></trkpt><trkpt lat="34.9658449" lon="9.2253833"><ele>407.0</ele><time>2026-05-01T09:36:21.418Z</time></trkpt><trkpt lat="34.965977" lon="9.2254996"><ele>407.0</ele><time>2026-05-01T09:36:22.415Z</time></trkpt><trkpt lat="34.9661132" lon="9.2256169"><ele>407.0</ele><time>2026-05-01T09:36:23.419Z</time></trkpt><trkpt lat="34.9662492" lon="9.2257368"><ele>406.66666666666663</ele><time>2026-05-01T09:36:24.42Z</time></trkpt><trkpt lat="34.9663846" lon="9.2258545"><ele>406.33333333333337</ele><time>2026-05-01T09:36:25.42Z</time></trkpt><trkpt lat="34.9665205" lon="9.2259783"><ele>406.0</ele><time>2026-05-01T09:36:26.417Z</time></trkpt><trkpt lat="34.9666551" lon="9.2261014"><ele>406.33333333333337</ele><time>2026-05-01T09:36:27.417Z</time></trkpt><trkpt lat="34.9667844" lon="9.226222"><ele>406.66666666666663</ele><time>2026-05-01T09:36:28.421Z</time></trkpt><trkpt lat="34.9669186" lon="9.2263439"><ele>407.0</ele><time>2026-05-01T09:36:29.408Z</time></trkpt><trkpt lat="34.9670536" lon="9.2264639"><ele>406.66666666666663</ele><time>2026-05-01T09:36:30.444Z</time></trkpt><trkpt lat="34.967186" lon="9.2265809"><ele>406.33333333333337</ele><time>2026-05-01T09:36:31.418Z</time></trkpt><trkpt lat="34.9673224" lon="9.2266976"><ele>406.0</ele><time>2026-05-01T09:36:32.42Z</time></trkpt><trkpt lat="34.9674536" lon="9.2268154"><ele>406.33333333333337</ele><time>2026-05-01T09:36:33.42Z</time></trkpt><trkpt lat="34.9675854" lon="9.2269306"><ele>406.66666666666663</ele><time>2026-05-01T09:36:34.417Z</time></trkpt><trkpt lat="34.9677133" lon="9.2270463"><ele>407.0</ele><time>2026-05-01T09:36:35.415Z</time></trkpt><trkpt lat="34.9678449" lon="9.227166"><ele>407.0</ele><time>2026-05-01T09:36:36.404Z</time></trkpt><trkpt lat="34.967979" lon="9.2272896"><ele>407.0</ele><time>2026-05-01T09:36:37.417Z</time></trkpt><trkpt lat="34.9681128" lon="9.2274163"><ele>407.0</ele><time>2026-05-01T09:36:38.403Z</time></trkpt><trkpt lat="34.9682507" lon="9.2275353"><ele>407.3333333333333</ele><time>2026-05-01T09:36:39.413Z</time></trkpt><trkpt lat="34.968391" lon="9.2276567"><ele>407.66666666666663</ele><time>2026-05-01T09:36:40.412Z</time></trkpt><trkpt lat="34.9685333" lon="9.2277805"><ele>408.0</ele><time>2026-05-01T09:36:41.418Z</time></trkpt><trkpt lat="34.9686735" lon="9.2279067"><ele>408.0</ele><time>2026-05-01T09:36:42.415Z</time></trkpt><trkpt lat="34.9688149" lon="9.2280321"><ele>408.0</ele><time>2026-05-01T09:36:43.414Z</time></trkpt><trkpt lat="34.9689543" lon="9.2281579"><ele>408.0</ele><time>2026-05-01T09:36:44.412Z</time></trkpt><trkpt lat="34.9690913" lon="9.2282774"><ele>408.66666666666663</ele><time>2026-05-01T09:36:45.404Z</time></trkpt><trkpt lat="34.9692263" lon="9.2283953"><ele>409.3333333333333</ele><time>2026-05-01T09:36:46.4Z</time></trkpt><trkpt lat="34.9693576" lon="9.2285175"><ele>410.0</ele><time>2026-05-01T09:36:47.413Z</time></trkpt><trkpt lat="34.9694866" lon="9.2286308"><ele>410.0</ele><time>2026-05-01T09:36:48.415Z</time></trkpt><trkpt lat="34.9696162" lon="9.2287448"><ele>410.0</ele><time>2026-05-01T09:36:49.409Z</time></trkpt><trkpt lat="34.9697411" lon="9.2288569"><ele>410.0</ele><time>2026-05-01T09:36:50.405Z</time></trkpt><trkpt lat="34.9698612" lon="9.228965"><ele>410.0</ele><time>2026-05-01T09:36:51.421Z</time></trkpt><trkpt lat="34.9699752" lon="9.2290708"><ele>410.0</ele><time>2026-05-01T09:36:52.414Z</time></trkpt><trkpt lat="34.9700875" lon="9.2291692"><ele>410.0</ele><time>2026-05-01T09:36:53.407Z</time></trkpt><trkpt lat="34.9701986" lon="9.2292681"><ele>410.0</ele><time>2026-05-01T09:36:54.419Z</time></trkpt><trkpt lat="34.9703048" lon="9.2293592"><ele>410.0</ele><time>2026-05-01T09:36:55.404Z</time></trkpt><trkpt lat="34.9704079" lon="9.2294477"><ele>410.0</ele><time>2026-05-01T09:36:56.425Z</time></trkpt><trkpt lat="34.970509" lon="9.2295355"><ele>410.0</ele><time>2026-05-01T09:36:57.425Z</time></trkpt><trkpt lat="34.9706027" lon="9.2296214"><ele>410.0</ele><time>2026-05-01T09:36:58.417Z</time></trkpt><trkpt lat="34.9707005" lon="9.2297069"><ele>410.0</ele><time>2026-05-01T09:36:59.41Z</time></trkpt><trkpt lat="34.9708005" lon="9.2297905"><ele>410.0</ele><time>2026-05-01T09:37:00.418Z</time></trkpt><trkpt lat="34.9708947" lon="9.2298714"><ele>410.0</ele><time>2026-05-01T09:37:01.413Z</time></trkpt><trkpt lat="34.9709826" lon="9.2299468"><ele>410.0</ele><time>2026-05-01T09:37:02.417Z</time></trkpt><trkpt lat="34.9710622" lon="9.2300166"><ele>410.0</ele><time>2026-05-01T09:37:03.422Z</time></trkpt><trkpt lat="34.9711226" lon="9.2300742"><ele>410.0</ele><time>2026-05-01T09:37:04.415Z</time></trkpt><trkpt lat="34.971181" lon="9.2301309"><ele>410.0</ele><time>2026-05-01T09:37:05.413Z</time></trkpt><trkpt lat="34.9712342" lon="9.2301813"><ele>410.0</ele><time>2026-05-01T09:37:06.409Z</time></trkpt><trkpt lat="34.9712869" lon="9.2302277"><ele>410.0</ele><time>2026-05-01T09:37:07.412Z</time></trkpt><trkpt lat="34.9713391" lon="9.2302757"><ele>410.0</ele><time>2026-05-01T09:37:08.405Z</time></trkpt><trkpt lat="34.971401" lon="9.2303328"><ele>410.0</ele><time>2026-05-01T09:37:09.423Z</time></trkpt><trkpt lat="34.9714704" lon="9.2303892"><ele>410.0</ele><time>2026-05-01T09:37:10.404Z</time></trkpt><trkpt lat="34.9715399" lon="9.2304536"><ele>410.0</ele><time>2026-05-01T09:37:11.417Z</time></trkpt><trkpt lat="34.9716121" lon="9.2305156"><ele>410.0</ele><time>2026-05-01T09:37:12.416Z</time></trkpt><trkpt lat="34.971682" lon="9.2305782"><ele>410.0</ele><time>2026-05-01T09:37:13.416Z</time></trkpt><trkpt lat="34.9717531" lon="9.2306379"><ele>410.0</ele><time>2026-05-01T09:37:14.408Z</time></trkpt><trkpt lat="34.9718286" lon="9.2307048"><ele>410.0</ele><time>2026-05-01T09:37:15.42Z</time></trkpt><trkpt lat="34.9719075" lon="9.2307732"><ele>410.25</ele><time>2026-05-01T09:37:16.415Z</time></trkpt><trkpt lat="34.9719939" lon="9.2308431"><ele>410.5</ele><time>2026-05-01T09:37:17.422Z</time></trkpt><trkpt lat="34.9720894" lon="9.2309211"><ele>410.75</ele><time>2026-05-01T09:37:18.42Z</time></trkpt><trkpt lat="34.9721879" lon="9.2310092"><ele>411.0</ele><time>2026-05-01T09:37:19.415Z</time></trkpt><trkpt lat="34.9722855" lon="9.2311041"><ele>411.0</ele><time>2026-05-01T09:37:20.425Z</time></trkpt><trkpt lat="34.9723849" lon="9.2311968"><ele>411.0</ele><time>2026-05-01T09:37:21.424Z</time></trkpt><trkpt lat="34.9724917" lon="9.2312905"><ele>411.0</ele><time>2026-05-01T09:37:22.409Z</time></trkpt><trkpt lat="34.9725949" lon="9.2313808"><ele>411.0</ele><time>2026-05-01T09:37:23.415Z</time></trkpt><trkpt lat="34.972701" lon="9.2314668"><ele>410.75</ele><time>2026-05-01T09:37:24.417Z</time></trkpt><trkpt lat="34.9727994" lon="9.2315613"><ele>410.5</ele><time>2026-05-01T09:37:25.423Z</time></trkpt><trkpt lat="34.9728952" lon="9.2316439"><ele>410.25</ele><time>2026-05-01T09:37:26.405Z</time></trkpt><trkpt lat="34.9729868" lon="9.2317256"><ele>410.0</ele><time>2026-05-01T09:37:27.412Z</time></trkpt><trkpt lat="34.9730752" lon="9.231809"><ele>410.0</ele><time>2026-05-01T09:37:28.406Z</time></trkpt><trkpt lat="34.9731607" lon="9.2318841"><ele>410.0</ele><time>2026-05-01T09:37:29.412Z</time></trkpt><trkpt lat="34.9732413" lon="9.2319566"><ele>410.0</ele><time>2026-05-01T09:37:30.421Z</time></trkpt><trkpt lat="34.9733157" lon="9.2320215"><ele>410.0</ele><time>2026-05-01T09:37:31.408Z</time></trkpt><trkpt lat="34.9733748" lon="9.2320737"><ele>410.0</ele><time>2026-05-01T09:37:32.419Z</time></trkpt><trkpt lat="34.9734457" lon="9.2321452"><ele>410.2</ele><time>2026-05-01T09:37:34.416Z</time></trkpt><trkpt lat="34.9735383" lon="9.2322233"><ele>410.4</ele><time>2026-05-01T09:37:36.425Z</time></trkpt><trkpt lat="34.9735937" lon="9.2322683"><ele>410.6</ele><time>2026-05-01T09:37:37.416Z</time></trkpt><trkpt lat="34.9736682" lon="9.2323289"><ele>410.8</ele><time>2026-05-01T09:37:38.416Z</time></trkpt><trkpt lat="34.9737674" lon="9.2324154"><ele>411.0</ele><time>2026-05-01T09:37:39.415Z</time></trkpt><trkpt lat="34.9738904" lon="9.2325207"><ele>411.0</ele><time>2026-05-01T09:37:40.42Z</time></trkpt><trkpt lat="34.9740196" lon="9.2326491"><ele>411.0</ele><time>2026-05-01T09:37:41.419Z</time></trkpt><trkpt lat="34.9741559" lon="9.2327836"><ele>411.0</ele><time>2026-05-01T09:37:42.419Z</time></trkpt><trkpt lat="34.9743029" lon="9.2329228"><ele>411.0</ele><time>2026-05-01T09:37:43.418Z</time></trkpt><trkpt lat="34.9744523" lon="9.2330506"><ele>411.0</ele><time>2026-05-01T09:37:44.421Z</time></trkpt><trkpt lat="34.9745999" lon="9.2331755"><ele>411.0</ele><time>2026-05-01T09:37:45.413Z</time></trkpt><trkpt lat="34.9747406" lon="9.2333001"><ele>410.75</ele><time>2026-05-01T09:37:46.409Z</time></trkpt><trkpt lat="34.9748704" lon="9.2334091"><ele>410.5</ele><time>2026-05-01T09:37:47.412Z</time></trkpt><trkpt lat="34.9749851" lon="9.2335078"><ele>410.25</ele><time>2026-05-01T09:37:48.413Z</time></trkpt><trkpt lat="34.9750811" lon="9.2335916"><ele>410.0</ele><time>2026-05-01T09:37:49.407Z</time></trkpt><trkpt lat="34.9751545" lon="9.233659"><ele>410.0</ele><time>2026-05-01T09:37:50.405Z</time></trkpt><trkpt lat="34.9752234" lon="9.2337152"><ele>410.0</ele><time>2026-05-01T09:37:51.415Z</time></trkpt><trkpt lat="34.9752986" lon="9.233779"><ele>410.0</ele><time>2026-05-01T09:37:52.415Z</time></trkpt><trkpt lat="34.9753849" lon="9.2338531"><ele>410.0</ele><time>2026-05-01T09:37:53.424Z</time></trkpt><trkpt lat="34.975482" lon="9.2339405"><ele>410.0</ele><time>2026-05-01T09:37:54.419Z</time></trkpt><trkpt lat="34.9755929" lon="9.2340458"><ele>410.0</ele><time>2026-05-01T09:37:55.407Z</time></trkpt><trkpt lat="34.9757241" lon="9.2341665"><ele>410.0</ele><time>2026-05-01T09:37:56.407Z</time></trkpt><trkpt lat="34.9758581" lon="9.2342927"><ele>410.0</ele><time>2026-05-01T09:37:57.431Z</time></trkpt><trkpt lat="34.9760018" lon="9.2344167"><ele>410.0</ele><time>2026-05-01T09:37:58.426Z</time></trkpt><trkpt lat="34.976145" lon="9.2345418"><ele>410.0</ele><time>2026-05-01T09:37:59.408Z</time></trkpt><trkpt lat="34.9762898" lon="9.2346755"><ele>410.0</ele><time>2026-05-01T09:38:00.4Z</time></trkpt><trkpt lat="34.9764392" lon="9.2348124"><ele>410.0</ele><time>2026-05-01T09:38:01.404Z</time></trkpt><trkpt lat="34.976591" lon="9.2349498"><ele>410.0</ele><time>2026-05-01T09:38:02.418Z</time></trkpt><trkpt lat="34.976744" lon="9.2350885"><ele>410.0</ele><time>2026-05-01T09:38:03.416Z</time></trkpt><trkpt lat="34.9768978" lon="9.2352222"><ele>409.3333333333333</ele><time>2026-05-01T09:38:04.415Z</time></trkpt><trkpt lat="34.9770488" lon="9.235362"><ele>408.66666666666663</ele><time>2026-05-01T09:38:05.42Z</time></trkpt><trkpt lat="34.9771995" lon="9.235503"><ele>408.0</ele><time>2026-05-01T09:38:06.414Z</time></trkpt><trkpt lat="34.9773494" lon="9.2356334"><ele>408.0</ele><time>2026-05-01T09:38:07.418Z</time></trkpt><trkpt lat="34.9774982" lon="9.2357679"><ele>408.0</ele><time>2026-05-01T09:38:08.421Z</time></trkpt><trkpt lat="34.9776467" lon="9.2358962"><ele>408.0</ele><time>2026-05-01T09:38:09.411Z</time></trkpt><trkpt lat="34.9777948" lon="9.2360302"><ele>409.0</ele><time>2026-05-01T09:38:10.41Z</time></trkpt><trkpt lat="34.9779424" lon="9.2361625"><ele>410.0</ele><time>2026-05-01T09:38:11.412Z</time></trkpt><trkpt lat="34.9780931" lon="9.2362934"><ele>411.0</ele><time>2026-05-01T09:38:12.422Z</time></trkpt><trkpt lat="34.9782452" lon="9.2364231"><ele>410.66666666666663</ele><time>2026-05-01T09:38:13.42Z</time></trkpt><trkpt lat="34.9783983" lon="9.2365546"><ele>410.3333333333333</ele><time>2026-05-01T09:38:14.43Z</time></trkpt><trkpt lat="34.9785529" lon="9.2366877"><ele>410.0</ele><time>2026-05-01T09:38:15.417Z</time></trkpt><trkpt lat="34.9787015" lon="9.2368185"><ele>410.0</ele><time>2026-05-01T09:38:16.409Z</time></trkpt><trkpt lat="34.9788476" lon="9.2369511"><ele>410.0</ele><time>2026-05-01T09:38:17.42Z</time></trkpt><trkpt lat="34.9789978" lon="9.2370861"><ele>410.0</ele><time>2026-05-01T09:38:18.419Z</time></trkpt><trkpt lat="34.9791464" lon="9.2372186"><ele>410.0</ele><time>2026-05-01T09:38:19.409Z</time></trkpt><trkpt lat="34.9792944" lon="9.2373527"><ele>410.0</ele><time>2026-05-01T09:38:20.415Z</time></trkpt><trkpt lat="34.9794446" lon="9.2374882"><ele>410.0</ele><time>2026-05-01T09:38:21.413Z</time></trkpt><trkpt lat="34.9795936" lon="9.2376258"><ele>410.0</ele><time>2026-05-01T09:38:22.425Z</time></trkpt><trkpt lat="34.979741" lon="9.2377588"><ele>410.0</ele><time>2026-05-01T09:38:23.411Z</time></trkpt><trkpt lat="34.9798906" lon="9.2378946"><ele>410.0</ele><time>2026-05-01T09:38:24.419Z</time></trkpt><trkpt lat="34.9800437" lon="9.238026"><ele>410.0</ele><time>2026-05-01T09:38:25.431Z</time></trkpt><trkpt lat="34.9801944" lon="9.2381609"><ele>410.0</ele><time>2026-05-01T09:38:26.42Z</time></trkpt><trkpt lat="34.9803472" lon="9.2382921"><ele>410.0</ele><time>2026-05-01T09:38:27.414Z</time></trkpt><trkpt lat="34.9804987" lon="9.2384225"><ele>410.0</ele><time>2026-05-01T09:38:28.418Z</time></trkpt><trkpt lat="34.9806519" lon="9.2385498"><ele>410.0</ele><time>2026-05-01T09:38:29.405Z</time></trkpt><trkpt lat="34.9808022" lon="9.2386814"><ele>410.0</ele><time>2026-05-01T09:38:30.416Z</time></trkpt><trkpt lat="34.9809518" lon="9.2388167"><ele>409.66666666666663</ele><time>2026-05-01T09:38:31.416Z</time></trkpt><trkpt lat="34.9811019" lon="9.238956"><ele>409.33333333333337</ele><time>2026-05-01T09:38:32.407Z</time></trkpt><trkpt lat="34.9812528" lon="9.2390976"><ele>409.0</ele><time>2026-05-01T09:38:33.415Z</time></trkpt><trkpt lat="34.98141" lon="9.2392385"><ele>408.6666666666667</ele><time>2026-05-01T09:38:34.415Z</time></trkpt><trkpt lat="34.9815698" lon="9.2393771"><ele>408.33333333333337</ele><time>2026-05-01T09:38:35.422Z</time></trkpt><trkpt lat="34.9817353" lon="9.2395292"><ele>408.0</ele><time>2026-05-01T09:38:36.409Z</time></trkpt><trkpt lat="34.9819034" lon="9.239684"><ele>408.33333333333337</ele><time>2026-05-01T09:38:37.414Z</time></trkpt><trkpt lat="34.9820796" lon="9.2398379"><ele>408.6666666666667</ele><time>2026-05-01T09:38:38.411Z</time></trkpt><trkpt lat="34.9822594" lon="9.2399968"><ele>409.0</ele><time>2026-05-01T09:38:39.407Z</time></trkpt><trkpt lat="34.9824377" lon="9.2401562"><ele>408.5</ele><time>2026-05-01T09:38:40.415Z</time></trkpt><trkpt lat="34.982621" lon="9.2403168"><ele>408.0</ele><time>2026-05-01T09:38:41.422Z</time></trkpt><trkpt lat="34.9828049" lon="9.2404732"><ele>407.66666666666663</ele><time>2026-05-01T09:38:42.417Z</time></trkpt><trkpt lat="34.9829855" lon="9.2406345"><ele>407.3333333333333</ele><time>2026-05-01T09:38:43.439Z</time></trkpt><trkpt lat="34.983167" lon="9.2407962"><ele>407.0</ele><time>2026-05-01T09:38:44.416Z</time></trkpt><trkpt lat="34.9833455" lon="9.2409552"><ele>407.0</ele><time>2026-05-01T09:38:45.42Z</time></trkpt><trkpt lat="34.983523" lon="9.2411158"><ele>407.0</ele><time>2026-05-01T09:38:46.411Z</time></trkpt><trkpt lat="34.9836999" lon="9.2412717"><ele>407.0</ele><time>2026-05-01T09:38:47.419Z</time></trkpt><trkpt lat="34.9838795" lon="9.2414338"><ele>407.3333333333333</ele><time>2026-05-01T09:38:48.416Z</time></trkpt><trkpt lat="34.9840562" lon="9.2415952"><ele>407.66666666666663</ele><time>2026-05-01T09:38:49.429Z</time></trkpt><trkpt lat="34.9842324" lon="9.2417538"><ele>408.0</ele><time>2026-05-01T09:38:50.417Z</time></trkpt><trkpt lat="34.9844109" lon="9.2419084"><ele>408.0</ele><time>2026-05-01T09:38:51.413Z</time></trkpt><trkpt lat="34.984586" lon="9.2420614"><ele>408.0</ele><time>2026-05-01T09:38:52.419Z</time></trkpt><trkpt lat="34.9847609" lon="9.2422207"><ele>408.0</ele><time>2026-05-01T09:38:53.416Z</time></trkpt><trkpt lat="34.9849357" lon="9.2423785"><ele>407.33333333333337</ele><time>2026-05-01T09:38:54.418Z</time></trkpt><trkpt lat="34.9851124" lon="9.2425368"><ele>406.6666666666667</ele><time>2026-05-01T09:38:55.432Z</time></trkpt><trkpt lat="34.9852864" lon="9.2426938"><ele>406.0</ele><time>2026-05-01T09:38:56.411Z</time></trkpt><trkpt lat="34.9854668" lon="9.2428494"><ele>406.0</ele><time>2026-05-01T09:38:57.423Z</time></trkpt><trkpt lat="34.9856415" lon="9.2430047"><ele>406.0</ele><time>2026-05-01T09:38:58.417Z</time></trkpt><trkpt lat="34.9858201" lon="9.2431586"><ele>406.0</ele><time>2026-05-01T09:38:59.424Z</time></trkpt><trkpt lat="34.9859995" lon="9.243313"><ele>407.0</ele><time>2026-05-01T09:39:00.404Z</time></trkpt><trkpt lat="34.9861739" lon="9.2434715"><ele>408.0</ele><time>2026-05-01T09:39:01.435Z</time></trkpt><trkpt lat="34.9863508" lon="9.2436298"><ele>409.0</ele><time>2026-05-01T09:39:02.459Z</time></trkpt><trkpt lat="34.9865246" lon="9.2437849"><ele>408.6666666666667</ele><time>2026-05-01T09:39:03.46Z</time></trkpt><trkpt lat="34.9867004" lon="9.2439416"><ele>408.33333333333337</ele><time>2026-05-01T09:39:04.406Z</time></trkpt><trkpt lat="34.9868753" lon="9.2440969"><ele>408.0</ele><time>2026-05-01T09:39:05.414Z</time></trkpt><trkpt lat="34.9870501" lon="9.2442568"><ele>408.0</ele><time>2026-05-01T09:39:06.42Z</time></trkpt><trkpt lat="34.987225" lon="9.2444156"><ele>408.0</ele><time>2026-05-01T09:39:07.402Z</time></trkpt><trkpt lat="34.9874018" lon="9.244574"><ele>408.0</ele><time>2026-05-01T09:39:08.411Z</time></trkpt><trkpt lat="34.9875791" lon="9.2447301"><ele>408.33333333333337</ele><time>2026-05-01T09:39:09.409Z</time></trkpt><trkpt lat="34.9877556" lon="9.2448851"><ele>408.6666666666667</ele><time>2026-05-01T09:39:10.42Z</time></trkpt><trkpt lat="34.9879274" lon="9.2450408"><ele>409.0</ele><time>2026-05-01T09:39:11.424Z</time></trkpt><trkpt lat="34.9880983" lon="9.2451916"><ele>409.0</ele><time>2026-05-01T09:39:12.412Z</time></trkpt><trkpt lat="34.9882657" lon="9.2453353"><ele>409.0</ele><time>2026-05-01T09:39:13.417Z</time></trkpt><trkpt lat="34.9884328" lon="9.2454852"><ele>409.0</ele><time>2026-05-01T09:39:14.409Z</time></trkpt><trkpt lat="34.9886002" lon="9.2456317"><ele>408.6666666666667</ele><time>2026-05-01T09:39:15.427Z</time></trkpt><trkpt lat="34.988766" lon="9.2457781"><ele>408.33333333333337</ele><time>2026-05-01T09:39:16.408Z</time></trkpt><trkpt lat="34.9889304" lon="9.2459205"><ele>408.0</ele><time>2026-05-01T09:39:17.411Z</time></trkpt><trkpt lat="34.9890938" lon="9.2460631"><ele>408.33333333333337</ele><time>2026-05-01T09:39:18.41Z</time></trkpt><trkpt lat="34.9892582" lon="9.2462068"><ele>408.6666666666667</ele><time>2026-05-01T09:39:19.415Z</time></trkpt><trkpt lat="34.989422" lon="9.2463498"><ele>409.0</ele><time>2026-05-01T09:39:20.422Z</time></trkpt><trkpt lat="34.9895847" lon="9.2464962"><ele>409.0</ele><time>2026-05-01T09:39:21.412Z</time></trkpt><trkpt lat="34.989748" lon="9.2466386"><ele>409.0</ele><time>2026-05-01T09:39:22.419Z</time></trkpt><trkpt lat="34.9899035" lon="9.2467801"><ele>409.0</ele><time>2026-05-01T09:39:23.411Z</time></trkpt><trkpt lat="34.9900571" lon="9.2469195"><ele>409.0</ele><time>2026-05-01T09:39:24.422Z</time></trkpt><trkpt lat="34.9902003" lon="9.2470487"><ele>409.0</ele><time>2026-05-01T09:39:25.417Z</time></trkpt><trkpt lat="34.990304" lon="9.2471456"><ele>409.0</ele><time>2026-05-01T09:39:26.421Z</time></trkpt><trkpt lat="34.9903886" lon="9.2472253"><ele>409.0</ele><time>2026-05-01T09:39:27.406Z</time></trkpt><trkpt lat="34.9904753" lon="9.2473025"><ele>409.00000000000006</ele><time>2026-05-01T09:39:28.424Z</time></trkpt><trkpt lat="34.9905485" lon="9.2473704"><ele>409.0</ele><time>2026-05-01T09:39:29.417Z</time></trkpt><trkpt lat="34.9906121" lon="9.2474226"><ele>409.0</ele><time>2026-05-01T09:39:30.418Z</time></trkpt><trkpt lat="34.9906722" lon="9.2474738"><ele>409.0</ele><time>2026-05-01T09:39:31.424Z</time></trkpt><trkpt lat="34.9907329" lon="9.247532"><ele>409.00000000000006</ele><time>2026-05-01T09:39:32.41Z</time></trkpt><trkpt lat="34.9907975" lon="9.2475895"><ele>409.0</ele><time>2026-05-01T09:39:33.407Z</time></trkpt><trkpt lat="34.9908742" lon="9.2476513"><ele>409.0</ele><time>2026-05-01T09:39:34.41Z</time></trkpt><trkpt lat="34.990956" lon="9.247726"><ele>409.0</ele><time>2026-05-01T09:39:35.41Z</time></trkpt><trkpt lat="34.9910413" lon="9.2478022"><ele>409.0</ele><time>2026-05-01T09:39:36.426Z</time></trkpt><trkpt lat="34.9911349" lon="9.2478921"><ele>409.0</ele><time>2026-05-01T09:39:37.415Z</time></trkpt><trkpt lat="34.9912351" lon="9.2479824"><ele>409.0</ele><time>2026-05-01T09:39:38.414Z</time></trkpt><trkpt lat="34.9913377" lon="9.248074"><ele>409.0</ele><time>2026-05-01T09:39:39.407Z</time></trkpt><trkpt lat="34.9914405" lon="9.248167"><ele>409.0</ele><time>2026-05-01T09:39:40.409Z</time></trkpt><trkpt lat="34.9915459" lon="9.248258"><ele>409.0</ele><time>2026-05-01T09:39:41.405Z</time></trkpt><trkpt lat="34.9916367" lon="9.2483366"><ele>408.50000000000006</ele><time>2026-05-01T09:39:42.437Z</time></trkpt><trkpt lat="34.9917178" lon="9.2484066"><ele>408.0</ele><time>2026-05-01T09:39:43.412Z</time></trkpt><trkpt lat="34.9917864" lon="9.2484678"><ele>407.5</ele><time>2026-05-01T09:39:44.415Z</time></trkpt><trkpt lat="34.9918474" lon="9.2485209"><ele>407.0</ele><time>2026-05-01T09:39:45.41Z</time></trkpt><trkpt lat="34.9919049" lon="9.2485717"><ele>406.50000000000006</ele><time>2026-05-01T09:39:46.414Z</time></trkpt><trkpt lat="34.9919675" lon="9.248635"><ele>406.0</ele><time>2026-05-01T09:39:47.411Z</time></trkpt><trkpt lat="34.9920409" lon="9.2487083"><ele>406.0</ele><time>2026-05-01T09:39:48.41Z</time></trkpt><trkpt lat="34.9921153" lon="9.248775"><ele>406.0</ele><time>2026-05-01T09:39:49.405Z</time></trkpt><trkpt lat="34.9922054" lon="9.2488503"><ele>406.0</ele><time>2026-05-01T09:39:50.416Z</time></trkpt><trkpt lat="34.9923104" lon="9.2489282"><ele>406.0</ele><time>2026-05-01T09:39:51.412Z</time></trkpt><trkpt lat="34.9924276" lon="9.2490244"><ele>406.0</ele><time>2026-05-01T09:39:52.404Z</time></trkpt><trkpt lat="34.9925561" lon="9.2491292"><ele>406.0</ele><time>2026-05-01T09:39:53.416Z</time></trkpt><trkpt lat="34.9926925" lon="9.249247"><ele>406.0</ele><time>2026-05-01T09:39:54.415Z</time></trkpt><trkpt lat="34.992835" lon="9.2493758"><ele>406.0</ele><time>2026-05-01T09:39:55.417Z</time></trkpt><trkpt lat="34.9929705" lon="9.2495046"><ele>406.0</ele><time>2026-05-01T09:39:56.426Z</time></trkpt><trkpt lat="34.9931067" lon="9.2496276"><ele>406.0</ele><time>2026-05-01T09:39:57.413Z</time></trkpt><trkpt lat="34.993244" lon="9.2497525"><ele>406.33333333333337</ele><time>2026-05-01T09:39:58.414Z</time></trkpt><trkpt lat="34.9933827" lon="9.2498716"><ele>406.66666666666663</ele><time>2026-05-01T09:39:59.417Z</time></trkpt><trkpt lat="34.9935226" lon="9.2499964"><ele>407.0</ele><time>2026-05-01T09:40:00.414Z</time></trkpt><trkpt lat="34.9936666" lon="9.2501258"><ele>407.0</ele><time>2026-05-01T09:40:01.414Z</time></trkpt><trkpt lat="34.9938147" lon="9.2502584"><ele>407.0</ele><time>2026-05-01T09:40:02.436Z</time></trkpt><trkpt lat="34.9939644" lon="9.2503906"><ele>407.0</ele><time>2026-05-01T09:40:03.415Z</time></trkpt><trkpt lat="34.9941119" lon="9.2505278"><ele>407.0</ele><time>2026-05-01T09:40:04.42Z</time></trkpt><trkpt lat="34.9942604" lon="9.2506674"><ele>407.0</ele><time>2026-05-01T09:40:05.419Z</time></trkpt><trkpt lat="34.9944126" lon="9.2508046"><ele>407.0</ele><time>2026-05-01T09:40:06.408Z</time></trkpt><trkpt lat="34.9945697" lon="9.250943"><ele>407.0</ele><time>2026-05-01T09:40:07.413Z</time></trkpt><trkpt lat="34.9947286" lon="9.2510827"><ele>407.0</ele><time>2026-05-01T09:40:08.411Z</time></trkpt><trkpt lat="34.9948818" lon="9.251221"><ele>407.0</ele><time>2026-05-01T09:40:09.408Z</time></trkpt><trkpt lat="34.9950295" lon="9.25136"><ele>406.66666666666663</ele><time>2026-05-01T09:40:10.411Z</time></trkpt><trkpt lat="34.9951785" lon="9.2514986"><ele>406.33333333333337</ele><time>2026-05-01T09:40:11.416Z</time></trkpt><trkpt lat="34.9953325" lon="9.2516408"><ele>406.0</ele><time>2026-05-01T09:40:12.414Z</time></trkpt><trkpt lat="34.9954864" lon="9.2517741"><ele>406.0</ele><time>2026-05-01T09:40:13.419Z</time></trkpt><trkpt lat="34.995638" lon="9.2519088"><ele>406.0</ele><time>2026-05-01T09:40:14.406Z</time></trkpt><trkpt lat="34.995798" lon="9.2520459"><ele>406.0</ele><time>2026-05-01T09:40:15.411Z</time></trkpt><trkpt lat="34.9959514" lon="9.252182"><ele>405.6666666666667</ele><time>2026-05-01T09:40:16.422Z</time></trkpt><trkpt lat="34.9961056" lon="9.2523163"><ele>405.33333333333337</ele><time>2026-05-01T09:40:17.414Z</time></trkpt><trkpt lat="34.9962603" lon="9.2524527"><ele>405.0</ele><time>2026-05-01T09:40:18.411Z</time></trkpt><trkpt lat="34.9964199" lon="9.2525926"><ele>405.0</ele><time>2026-05-01T09:40:19.415Z</time></trkpt><trkpt lat="34.9965713" lon="9.2527313"><ele>405.0</ele><time>2026-05-01T09:40:20.416Z</time></trkpt><trkpt lat="34.9967275" lon="9.2528682"><ele>405.0</ele><time>2026-05-01T09:40:21.419Z</time></trkpt><trkpt lat="34.9968808" lon="9.2530037"><ele>405.33333333333337</ele><time>2026-05-01T09:40:22.418Z</time></trkpt><trkpt lat="34.9970327" lon="9.2531424"><ele>405.6666666666667</ele><time>2026-05-01T09:40:23.419Z</time></trkpt><trkpt lat="34.9971867" lon="9.2532745"><ele>406.0</ele><time>2026-05-01T09:40:24.418Z</time></trkpt><trkpt lat="34.9973396" lon="9.2534071"><ele>406.0</ele><time>2026-05-01T09:40:25.415Z</time></trkpt><trkpt lat="34.9974883" lon="9.2535412"><ele>406.0</ele><time>2026-05-01T09:40:26.408Z</time></trkpt><trkpt lat="34.9976395" lon="9.253683"><ele>406.0</ele><time>2026-05-01T09:40:27.409Z</time></trkpt><trkpt lat="34.9977871" lon="9.2538172"><ele>406.0</ele><time>2026-05-01T09:40:28.404Z</time></trkpt><trkpt lat="34.9979335" lon="9.2539479"><ele>406.0</ele><time>2026-05-01T09:40:29.414Z</time></trkpt><trkpt lat="34.9980796" lon="9.2540749"><ele>406.0</ele><time>2026-05-01T09:40:30.422Z</time></trkpt><trkpt lat="34.9982291" lon="9.2542057"><ele>406.0</ele><time>2026-05-01T09:40:31.401Z</time></trkpt><trkpt lat="34.9983779" lon="9.2543362"><ele>406.0</ele><time>2026-05-01T09:40:32.419Z</time></trkpt><trkpt lat="34.9985299" lon="9.25447"><ele>406.0</ele><time>2026-05-01T09:40:33.42Z</time></trkpt><trkpt lat="34.9986774" lon="9.2545998"><ele>406.0</ele><time>2026-05-01T09:40:34.411Z</time></trkpt><trkpt lat="34.9988282" lon="9.2547357"><ele>406.0</ele><time>2026-05-01T09:40:35.418Z</time></trkpt><trkpt lat="34.9989782" lon="9.2548718"><ele>406.0</ele><time>2026-05-01T09:40:36.422Z</time></trkpt><trkpt lat="34.9991265" lon="9.2550039"><ele>406.0</ele><time>2026-05-01T09:40:37.415Z</time></trkpt><trkpt lat="34.9992731" lon="9.2551367"><ele>406.0</ele><time>2026-05-01T09:40:38.408Z</time></trkpt><trkpt lat="34.9994239" lon="9.2552685"><ele>406.0</ele><time>2026-05-01T09:40:39.417Z</time></trkpt><trkpt lat="34.9995735" lon="9.2554028"><ele>406.0</ele><time>2026-05-01T09:40:40.414Z</time></trkpt><trkpt lat="34.9997234" lon="9.2555369"><ele>406.0</ele><time>2026-05-01T09:40:41.422Z</time></trkpt><trkpt lat="34.9998712" lon="9.2556675"><ele>406.0</ele><time>2026-05-01T09:40:42.418Z</time></trkpt><trkpt lat="35.0000202" lon="9.2557989"><ele>406.0</ele><time>2026-05-01T09:40:43.416Z</time></trkpt><trkpt lat="35.0001704" lon="9.2559286"><ele>406.0</ele><time>2026-05-01T09:40:44.428Z</time></trkpt><trkpt lat="35.0003186" lon="9.2560642"><ele>406.0</ele><time>2026-05-01T09:40:45.417Z</time></trkpt><trkpt lat="35.0004754" lon="9.2561981"><ele>406.0</ele><time>2026-05-01T09:40:46.418Z</time></trkpt><trkpt lat="35.0006271" lon="9.2563322"><ele>406.0</ele><time>2026-05-01T09:40:47.414Z</time></trkpt><trkpt lat="35.0007758" lon="9.2564631"><ele>406.0</ele><time>2026-05-01T09:40:48.411Z</time></trkpt><trkpt lat="35.0009217" lon="9.2565943"><ele>406.0</ele><time>2026-05-01T09:40:49.411Z</time></trkpt><trkpt lat="35.0010709" lon="9.2567282"><ele>406.0</ele><time>2026-05-01T09:40:50.423Z</time></trkpt><trkpt lat="35.0012198" lon="9.256865"><ele>406.0</ele><time>2026-05-01T09:40:51.423Z</time></trkpt><trkpt lat="35.001368" lon="9.2569996"><ele>406.0</ele><time>2026-05-01T09:40:52.409Z</time></trkpt><trkpt lat="35.0015179" lon="9.2571309"><ele>406.0</ele><time>2026-05-01T09:40:53.422Z</time></trkpt><trkpt lat="35.0016665" lon="9.2572588"><ele>406.0</ele><time>2026-05-01T09:40:54.415Z</time></trkpt><trkpt lat="35.0018139" lon="9.2573865"><ele>406.0</ele><time>2026-05-01T09:40:55.418Z</time></trkpt><trkpt lat="35.0019597" lon="9.2575148"><ele>406.0</ele><time>2026-05-01T09:40:56.421Z</time></trkpt><trkpt lat="35.0021043" lon="9.2576429"><ele>406.0</ele><time>2026-05-01T09:40:57.42Z</time></trkpt><trkpt lat="35.0022467" lon="9.2577752"><ele>406.0</ele><time>2026-05-01T09:40:58.422Z</time></trkpt><trkpt lat="35.0023907" lon="9.2579053"><ele>406.0</ele><time>2026-05-01T09:40:59.409Z</time></trkpt><trkpt lat="35.0025314" lon="9.2580331"><ele>406.0</ele><time>2026-05-01T09:41:00.421Z</time></trkpt><trkpt lat="35.0026798" lon="9.2581618"><ele>405.33333333333337</ele><time>2026-05-01T09:41:01.415Z</time></trkpt><trkpt lat="35.0028201" lon="9.2582969"><ele>404.66666666666663</ele><time>2026-05-01T09:41:02.406Z</time></trkpt><trkpt lat="35.002966" lon="9.258425"><ele>404.0</ele><time>2026-05-01T09:41:03.409Z</time></trkpt><trkpt lat="35.003111" lon="9.2585511"><ele>404.0</ele><time>2026-05-01T09:41:04.41Z</time></trkpt><trkpt lat="35.0032555" lon="9.2586771"><ele>404.0</ele><time>2026-05-01T09:41:05.415Z</time></trkpt><trkpt lat="35.0034023" lon="9.2588069"><ele>404.0</ele><time>2026-05-01T09:41:06.414Z</time></trkpt><trkpt lat="35.0035505" lon="9.2589356"><ele>403.66666666666663</ele><time>2026-05-01T09:41:07.411Z</time></trkpt><trkpt lat="35.0036964" lon="9.2590636"><ele>403.33333333333337</ele><time>2026-05-01T09:41:08.412Z</time></trkpt><trkpt lat="35.0038399" lon="9.2591933"><ele>403.0</ele><time>2026-05-01T09:41:09.409Z</time></trkpt><trkpt lat="35.0039876" lon="9.259328"><ele>403.0</ele><time>2026-05-01T09:41:10.411Z</time></trkpt><trkpt lat="35.0041333" lon="9.2594578"><ele>403.0</ele><time>2026-05-01T09:41:11.404Z</time></trkpt><trkpt lat="35.0042792" lon="9.2595839"><ele>403.0</ele><time>2026-05-01T09:41:12.416Z</time></trkpt><trkpt lat="35.004427" lon="9.2597125"><ele>403.6666666666667</ele><time>2026-05-01T09:41:13.417Z</time></trkpt><trkpt lat="35.0045736" lon="9.2598412"><ele>404.33333333333337</ele><time>2026-05-01T09:41:14.418Z</time></trkpt><trkpt lat="35.0047178" lon="9.2599691"><ele>405.0</ele><time>2026-05-01T09:41:15.4Z</time></trkpt><trkpt lat="35.0048517" lon="9.2600873"><ele>405.0</ele><time>2026-05-01T09:41:16.403Z</time></trkpt><trkpt lat="35.0049649" lon="9.2601899"><ele>405.0</ele><time>2026-05-01T09:41:17.418Z</time></trkpt><trkpt lat="35.0050702" lon="9.2602831"><ele>405.0</ele><time>2026-05-01T09:41:18.405Z</time></trkpt><trkpt lat="35.005164" lon="9.2603644"><ele>405.0</ele><time>2026-05-01T09:41:19.412Z</time></trkpt><trkpt lat="35.005243" lon="9.26044"><ele>405.0</ele><time>2026-05-01T09:41:20.415Z</time></trkpt><trkpt lat="35.0053079" lon="9.2605062"><ele>405.0</ele><time>2026-05-01T09:41:21.425Z</time></trkpt><trkpt lat="35.0053799" lon="9.2605658"><ele>405.0</ele><time>2026-05-01T09:41:22.419Z</time></trkpt><trkpt lat="35.0054534" lon="9.260635"><ele>405.0</ele><time>2026-05-01T09:41:23.407Z</time></trkpt><trkpt lat="35.0055368" lon="9.2607058"><ele>405.0</ele><time>2026-05-01T09:41:24.421Z</time></trkpt><trkpt lat="35.0056241" lon="9.2607829"><ele>404.75</ele><time>2026-05-01T09:41:25.414Z</time></trkpt><trkpt lat="35.0057197" lon="9.26087"><ele>404.5</ele><time>2026-05-01T09:41:26.42Z</time></trkpt><trkpt lat="35.0058163" lon="9.2609564"><ele>404.25</ele><time>2026-05-01T09:41:27.408Z</time></trkpt><trkpt lat="35.0059129" lon="9.2610337"><ele>404.0</ele><time>2026-05-01T09:41:28.414Z</time></trkpt><trkpt lat="35.0060132" lon="9.2611159"><ele>403.75</ele><time>2026-05-01T09:41:29.405Z</time></trkpt><trkpt lat="35.0061161" lon="9.2612074"><ele>403.5</ele><time>2026-05-01T09:41:30.412Z</time></trkpt><trkpt lat="35.0062187" lon="9.2613004"><ele>403.25</ele><time>2026-05-01T09:41:31.414Z</time></trkpt><trkpt lat="35.0063156" lon="9.2613893"><ele>403.0</ele><time>2026-05-01T09:41:32.417Z</time></trkpt><trkpt lat="35.0064068" lon="9.2614636"><ele>403.0</ele><time>2026-05-01T09:41:33.414Z</time></trkpt><trkpt lat="35.006491" lon="9.2615373"><ele>403.0</ele><time>2026-05-01T09:41:34.423Z</time></trkpt><trkpt lat="35.0065685" lon="9.2616058"><ele>403.0</ele><time>2026-05-01T09:41:35.427Z</time></trkpt><trkpt lat="35.0066392" lon="9.2616702"><ele>403.0</ele><time>2026-05-01T09:41:36.422Z</time></trkpt><trkpt lat="35.0067029" lon="9.2617367"><ele>403.0</ele><time>2026-05-01T09:41:37.415Z</time></trkpt><trkpt lat="35.0067808" lon="9.2618065"><ele>403.25</ele><time>2026-05-01T09:41:38.409Z</time></trkpt><trkpt lat="35.0068693" lon="9.2618824"><ele>403.5</ele><time>2026-05-01T09:41:39.412Z</time></trkpt><trkpt lat="35.0069704" lon="9.261973"><ele>403.75</ele><time>2026-05-01T09:41:40.406Z</time></trkpt><trkpt lat="35.0070756" lon="9.2620677"><ele>404.0</ele><time>2026-05-01T09:41:41.421Z</time></trkpt><trkpt lat="35.0071877" lon="9.2621715"><ele>404.0</ele><time>2026-05-01T09:41:42.415Z</time></trkpt><trkpt lat="35.0073129" lon="9.2622794"><ele>404.0</ele><time>2026-05-01T09:41:43.407Z</time></trkpt><trkpt lat="35.007445" lon="9.2623879"><ele>404.0</ele><time>2026-05-01T09:41:44.415Z</time></trkpt><trkpt lat="35.0075699" lon="9.2625036"><ele>403.66666666666663</ele><time>2026-05-01T09:41:45.413Z</time></trkpt><trkpt lat="35.0076971" lon="9.2626218"><ele>403.33333333333337</ele><time>2026-05-01T09:41:46.401Z</time></trkpt><trkpt lat="35.0078354" lon="9.2627461"><ele>403.0</ele><time>2026-05-01T09:41:47.403Z</time></trkpt><trkpt lat="35.0079759" lon="9.2628643"><ele>403.0</ele><time>2026-05-01T09:41:48.405Z</time></trkpt><trkpt lat="35.0081143" lon="9.2629926"><ele>403.0</ele><time>2026-05-01T09:41:49.408Z</time></trkpt><trkpt lat="35.008249" lon="9.2631147"><ele>403.0</ele><time>2026-05-01T09:41:50.399Z</time></trkpt><trkpt lat="35.0083745" lon="9.2632354"><ele>402.33333333333337</ele><time>2026-05-01T09:41:51.4Z</time></trkpt><trkpt lat="35.0085134" lon="9.2633594"><ele>401.66666666666663</ele><time>2026-05-01T09:41:52.406Z</time></trkpt><trkpt lat="35.0086559" lon="9.2634904"><ele>401.0</ele><time>2026-05-01T09:41:53.417Z</time></trkpt><trkpt lat="35.0087972" lon="9.2636174"><ele>401.0</ele><time>2026-05-01T09:41:54.412Z</time></trkpt><trkpt lat="35.0089381" lon="9.2637369"><ele>401.0</ele><time>2026-05-01T09:41:55.416Z</time></trkpt><trkpt lat="35.0090785" lon="9.2638572"><ele>401.0</ele><time>2026-05-01T09:41:56.414Z</time></trkpt><trkpt lat="35.0092155" lon="9.2639802"><ele>401.0</ele><time>2026-05-01T09:41:57.405Z</time></trkpt><trkpt lat="35.0093531" lon="9.2640975"><ele>401.0</ele><time>2026-05-01T09:41:58.412Z</time></trkpt><trkpt lat="35.0094898" lon="9.2642117"><ele>401.0</ele><time>2026-05-01T09:41:59.414Z</time></trkpt><trkpt lat="35.0096276" lon="9.2643238"><ele>401.0</ele><time>2026-05-01T09:42:00.401Z</time></trkpt><trkpt lat="35.0097714" lon="9.2644346"><ele>401.0</ele><time>2026-05-01T09:42:01.407Z</time></trkpt><trkpt lat="35.009919" lon="9.2645407"><ele>401.0</ele><time>2026-05-01T09:42:02.412Z</time></trkpt><trkpt lat="35.0100696" lon="9.264635"><ele>401.0</ele><time>2026-05-01T09:42:03.404Z</time></trkpt><trkpt lat="35.0102227" lon="9.2647358"><ele>401.0</ele><time>2026-05-01T09:42:04.41Z</time></trkpt><trkpt lat="35.0103805" lon="9.2648339"><ele>401.0</ele><time>2026-05-01T09:42:05.417Z</time></trkpt><trkpt lat="35.0105373" lon="9.2649338"><ele>401.0</ele><time>2026-05-01T09:42:06.418Z</time></trkpt><trkpt lat="35.0106972" lon="9.2650363"><ele>401.0</ele><time>2026-05-01T09:42:07.417Z</time></trkpt><trkpt lat="35.0108551" lon="9.2651377"><ele>401.0</ele><time>2026-05-01T09:42:08.418Z</time></trkpt><trkpt lat="35.0110155" lon="9.2652384"><ele>401.0</ele><time>2026-05-01T09:42:09.408Z</time></trkpt><trkpt lat="35.011177" lon="9.2653351"><ele>401.0</ele><time>2026-05-01T09:42:10.425Z</time></trkpt><trkpt lat="35.0113372" lon="9.2654263"><ele>401.0</ele><time>2026-05-01T09:42:11.413Z</time></trkpt><trkpt lat="35.011497" lon="9.2655159"><ele>401.0</ele><time>2026-05-01T09:42:12.404Z</time></trkpt><trkpt lat="35.0116565" lon="9.2656045"><ele>401.0</ele><time>2026-05-01T09:42:13.413Z</time></trkpt><trkpt lat="35.0118213" lon="9.2656957"><ele>401.0</ele><time>2026-05-01T09:42:14.406Z</time></trkpt><trkpt lat="35.0119905" lon="9.2657922"><ele>400.3333333333333</ele><time>2026-05-01T09:42:15.425Z</time></trkpt><trkpt lat="35.0121526" lon="9.2658942"><ele>399.66666666666663</ele><time>2026-05-01T09:42:16.42Z</time></trkpt><trkpt lat="35.012308" lon="9.2659992"><ele>399.0</ele><time>2026-05-01T09:42:17.411Z</time></trkpt><trkpt lat="35.0124588" lon="9.2661088"><ele>399.33333333333337</ele><time>2026-05-01T09:42:18.404Z</time></trkpt><trkpt lat="35.0126133" lon="9.2662201"><ele>399.6666666666667</ele><time>2026-05-01T09:42:19.415Z</time></trkpt><trkpt lat="35.0127739" lon="9.2663267"><ele>400.0</ele><time>2026-05-01T09:42:20.408Z</time></trkpt><trkpt lat="35.0129381" lon="9.2664293"><ele>400.0</ele><time>2026-05-01T09:42:21.41Z</time></trkpt><trkpt lat="35.0131016" lon="9.2665268"><ele>400.0</ele><time>2026-05-01T09:42:22.4Z</time></trkpt><trkpt lat="35.0132621" lon="9.2666314"><ele>400.0</ele><time>2026-05-01T09:42:23.405Z</time></trkpt><trkpt lat="35.0134225" lon="9.2667364"><ele>400.0</ele><time>2026-05-01T09:42:24.404Z</time></trkpt><trkpt lat="35.0135809" lon="9.2668443"><ele>400.0</ele><time>2026-05-01T09:42:25.409Z</time></trkpt><trkpt lat="35.0137378" lon="9.2669443"><ele>400.0</ele><time>2026-05-01T09:42:26.413Z</time></trkpt><trkpt lat="35.0138996" lon="9.2670425"><ele>400.0</ele><time>2026-05-01T09:42:27.412Z</time></trkpt><trkpt lat="35.0140591" lon="9.2671478"><ele>400.0</ele><time>2026-05-01T09:42:28.404Z</time></trkpt><trkpt lat="35.0142249" lon="9.2672552"><ele>400.0</ele><time>2026-05-01T09:42:29.414Z</time></trkpt><trkpt lat="35.0143927" lon="9.2673639"><ele>400.33333333333337</ele><time>2026-05-01T09:42:30.417Z</time></trkpt><trkpt lat="35.0145551" lon="9.2674649"><ele>400.66666666666663</ele><time>2026-05-01T09:42:31.411Z</time></trkpt><trkpt lat="35.0147183" lon="9.2675673"><ele>401.0</ele><time>2026-05-01T09:42:32.416Z</time></trkpt><trkpt lat="35.0148826" lon="9.2676657"><ele>400.66666666666663</ele><time>2026-05-01T09:42:33.415Z</time></trkpt><trkpt lat="35.0150437" lon="9.2677635"><ele>400.33333333333337</ele><time>2026-05-01T09:42:34.418Z</time></trkpt><trkpt lat="35.0152096" lon="9.2678653"><ele>400.0</ele><time>2026-05-01T09:42:35.416Z</time></trkpt><trkpt lat="35.015377" lon="9.2679615"><ele>400.0</ele><time>2026-05-01T09:42:36.414Z</time></trkpt><trkpt lat="35.0155454" lon="9.268057"><ele>400.0</ele><time>2026-05-01T09:42:37.407Z</time></trkpt><trkpt lat="35.0157227" lon="9.268142"><ele>400.0</ele><time>2026-05-01T09:42:38.41Z</time></trkpt><trkpt lat="35.0159024" lon="9.2682094"><ele>400.0</ele><time>2026-05-01T09:42:39.395Z</time></trkpt><trkpt lat="35.0160834" lon="9.2682723"><ele>400.0</ele><time>2026-05-01T09:42:40.409Z</time></trkpt><trkpt lat="35.0162669" lon="9.2683253"><ele>400.0</ele><time>2026-05-01T09:42:41.405Z</time></trkpt><trkpt lat="35.016456" lon="9.2683756"><ele>400.0</ele><time>2026-05-01T09:42:42.409Z</time></trkpt><trkpt lat="35.0166397" lon="9.2684337"><ele>400.0</ele><time>2026-05-01T09:42:43.407Z</time></trkpt><trkpt lat="35.016826" lon="9.2684934"><ele>400.0</ele><time>2026-05-01T09:42:44.402Z</time></trkpt><trkpt lat="35.0170175" lon="9.2685535"><ele>400.33333333333337</ele><time>2026-05-01T09:42:45.421Z</time></trkpt><trkpt lat="35.0172047" lon="9.2686096"><ele>400.66666666666663</ele><time>2026-05-01T09:42:46.402Z</time></trkpt><trkpt lat="35.0173967" lon="9.2686651"><ele>401.0</ele><time>2026-05-01T09:42:47.419Z</time></trkpt><trkpt lat="35.0175881" lon="9.268725"><ele>401.0</ele><time>2026-05-01T09:42:48.414Z</time></trkpt><trkpt lat="35.0177802" lon="9.2687854"><ele>401.0</ele><time>2026-05-01T09:42:49.413Z</time></trkpt><trkpt lat="35.0179727" lon="9.2688458"><ele>401.0</ele><time>2026-05-01T09:42:50.414Z</time></trkpt><trkpt lat="35.0181606" lon="9.2689036"><ele>401.0</ele><time>2026-05-01T09:42:51.405Z</time></trkpt><trkpt lat="35.0183532" lon="9.2689639"><ele>401.0</ele><time>2026-05-01T09:42:52.409Z</time></trkpt><trkpt lat="35.0185368" lon="9.2690185"><ele>401.0</ele><time>2026-05-01T09:42:53.409Z</time></trkpt><trkpt lat="35.0187167" lon="9.2690724"><ele>401.0</ele><time>2026-05-01T09:42:54.415Z</time></trkpt><trkpt lat="35.0188946" lon="9.2691306"><ele>401.0</ele><time>2026-05-01T09:42:55.413Z</time></trkpt><trkpt lat="35.0190692" lon="9.2691847"><ele>401.0</ele><time>2026-05-01T09:42:56.414Z</time></trkpt><trkpt lat="35.0192457" lon="9.2692407"><ele>401.0</ele><time>2026-05-01T09:42:57.41Z</time></trkpt><trkpt lat="35.0194207" lon="9.2692917"><ele>401.0</ele><time>2026-05-01T09:42:58.405Z</time></trkpt><trkpt lat="35.0195946" lon="9.2693415"><ele>401.0</ele><time>2026-05-01T09:42:59.417Z</time></trkpt><trkpt lat="35.0197664" lon="9.2693921"><ele>401.0</ele><time>2026-05-01T09:43:00.401Z</time></trkpt><trkpt lat="35.0199411" lon="9.2694485"><ele>401.0</ele><time>2026-05-01T09:43:01.418Z</time></trkpt><trkpt lat="35.0201128" lon="9.2695028"><ele>401.0</ele><time>2026-05-01T09:43:02.415Z</time></trkpt><trkpt lat="35.0202842" lon="9.2695582"><ele>400.3333333333333</ele><time>2026-05-01T09:43:03.421Z</time></trkpt><trkpt lat="35.020461" lon="9.2696117"><ele>399.66666666666663</ele><time>2026-05-01T09:43:04.411Z</time></trkpt><trkpt lat="35.0206362" lon="9.2696678"><ele>399.0</ele><time>2026-05-01T09:43:05.415Z</time></trkpt><trkpt lat="35.0208129" lon="9.2697235"><ele>399.33333333333337</ele><time>2026-05-01T09:43:06.418Z</time></trkpt><trkpt lat="35.0209909" lon="9.2697833"><ele>399.6666666666667</ele><time>2026-05-01T09:43:07.414Z</time></trkpt><trkpt lat="35.0211685" lon="9.2698389"><ele>400.0</ele><time>2026-05-01T09:43:08.414Z</time></trkpt><trkpt lat="35.0213448" lon="9.2698939"><ele>400.0</ele><time>2026-05-01T09:43:09.41Z</time></trkpt><trkpt lat="35.0215262" lon="9.2699517"><ele>400.0</ele><time>2026-05-01T09:43:10.411Z</time></trkpt><trkpt lat="35.0217029" lon="9.2700035"><ele>400.0</ele><time>2026-05-01T09:43:11.411Z</time></trkpt><trkpt lat="35.0218864" lon="9.270062"><ele>400.33333333333337</ele><time>2026-05-01T09:43:12.398Z</time></trkpt><trkpt lat="35.0220675" lon="9.2701193"><ele>400.66666666666663</ele><time>2026-05-01T09:43:13.434Z</time></trkpt><trkpt lat="35.0222455" lon="9.2701721"><ele>401.0</ele><time>2026-05-01T09:43:14.439Z</time></trkpt><trkpt lat="35.0224269" lon="9.2702298"><ele>401.3333333333333</ele><time>2026-05-01T09:43:15.422Z</time></trkpt><trkpt lat="35.0226146" lon="9.2702887"><ele>401.66666666666663</ele><time>2026-05-01T09:43:16.448Z</time></trkpt><trkpt lat="35.0228002" lon="9.2703489"><ele>402.0</ele><time>2026-05-01T09:43:17.453Z</time></trkpt><trkpt lat="35.0229868" lon="9.2704076"><ele>402.0</ele><time>2026-05-01T09:43:18.441Z</time></trkpt><trkpt lat="35.023177" lon="9.2704626"><ele>402.0</ele><time>2026-05-01T09:43:19.428Z</time></trkpt><trkpt lat="35.0233615" lon="9.2705165"><ele>402.0</ele><time>2026-05-01T09:43:20.462Z</time></trkpt><trkpt lat="35.0235519" lon="9.270574"><ele>401.66666666666663</ele><time>2026-05-01T09:43:21.435Z</time></trkpt><trkpt lat="35.0237398" lon="9.2706336"><ele>401.3333333333333</ele><time>2026-05-01T09:43:22.453Z</time></trkpt><trkpt lat="35.023933" lon="9.2706939"><ele>401.0</ele><time>2026-05-01T09:43:23.441Z</time></trkpt><trkpt lat="35.0241311" lon="9.2707556"><ele>401.3333333333333</ele><time>2026-05-01T09:43:24.45Z</time></trkpt><trkpt lat="35.0243385" lon="9.2708185"><ele>401.66666666666663</ele><time>2026-05-01T09:43:25.455Z</time></trkpt><trkpt lat="35.0245441" lon="9.2708843"><ele>402.0</ele><time>2026-05-01T09:43:26.473Z</time></trkpt><trkpt lat="35.0247546" lon="9.2709472"><ele>402.0</ele><time>2026-05-01T09:43:27.436Z</time></trkpt><trkpt lat="35.0249663" lon="9.2710042"><ele>402.0</ele><time>2026-05-01T09:43:28.43Z</time></trkpt><trkpt lat="35.0251737" lon="9.2710674"><ele>402.0</ele><time>2026-05-01T09:43:29.457Z</time></trkpt><trkpt lat="35.0253798" lon="9.2711329"><ele>402.0</ele><time>2026-05-01T09:43:30.46Z</time></trkpt><trkpt lat="35.0255887" lon="9.2711969"><ele>402.0</ele><time>2026-05-01T09:43:31.454Z</time></trkpt><trkpt lat="35.0257962" lon="9.2712564"><ele>402.0</ele><time>2026-05-01T09:43:32.464Z</time></trkpt><trkpt lat="35.026004" lon="9.2713195"><ele>402.0</ele><time>2026-05-01T09:43:33.45Z</time></trkpt><trkpt lat="35.0262125" lon="9.2713834"><ele>402.0</ele><time>2026-05-01T09:43:34.456Z</time></trkpt><trkpt lat="35.0264227" lon="9.2714547"><ele>402.0</ele><time>2026-05-01T09:43:35.452Z</time></trkpt><trkpt lat="35.0266322" lon="9.2715172"><ele>401.33333333333337</ele><time>2026-05-01T09:43:36.452Z</time></trkpt><trkpt lat="35.0268444" lon="9.2715782"><ele>400.6666666666667</ele><time>2026-05-01T09:43:37.426Z</time></trkpt><trkpt lat="35.027056" lon="9.2716354"><ele>400.0</ele><time>2026-05-01T09:43:38.409Z</time></trkpt><trkpt lat="35.0272767" lon="9.2716926"><ele>400.0</ele><time>2026-05-01T09:43:39.457Z</time></trkpt><trkpt lat="35.0274989" lon="9.2717474"><ele>400.0</ele><time>2026-05-01T09:43:40.467Z</time></trkpt><trkpt lat="35.0277221" lon="9.2718085"><ele>400.0</ele><time>2026-05-01T09:43:41.457Z</time></trkpt><trkpt lat="35.0279462" lon="9.2718733"><ele>400.0</ele><time>2026-05-01T09:43:42.426Z</time></trkpt><trkpt lat="35.0281713" lon="9.2719406"><ele>400.5</ele><time>2026-05-01T09:43:43.467Z</time></trkpt><trkpt lat="35.0283948" lon="9.2720073"><ele>401.0</ele><time>2026-05-01T09:43:44.461Z</time></trkpt><trkpt lat="35.0286147" lon="9.2720752"><ele>401.0</ele><time>2026-05-01T09:43:45.463Z</time></trkpt><trkpt lat="35.0288273" lon="9.2721478"><ele>401.0</ele><time>2026-05-01T09:43:46.433Z</time></trkpt><trkpt lat="35.0290389" lon="9.2722191"><ele>401.0</ele><time>2026-05-01T09:43:47.433Z</time></trkpt><trkpt lat="35.0292436" lon="9.2722853"><ele>400.66666666666663</ele><time>2026-05-01T09:43:48.475Z</time></trkpt><trkpt lat="35.0294437" lon="9.2723506"><ele>400.33333333333337</ele><time>2026-05-01T09:43:49.461Z</time></trkpt><trkpt lat="35.0296371" lon="9.2724074"><ele>400.0</ele><time>2026-05-01T09:43:50.463Z</time></trkpt><trkpt lat="35.0298237" lon="9.2724632"><ele>399.6666666666667</ele><time>2026-05-01T09:43:51.445Z</time></trkpt><trkpt lat="35.0300111" lon="9.2725173"><ele>399.33333333333337</ele><time>2026-05-01T09:43:52.46Z</time></trkpt><trkpt lat="35.0301969" lon="9.2725708"><ele>399.0</ele><time>2026-05-01T09:43:53.456Z</time></trkpt><trkpt lat="35.030387" lon="9.2726282"><ele>399.0</ele><time>2026-05-01T09:43:54.471Z</time></trkpt><trkpt lat="35.0305748" lon="9.2726862"><ele>399.0</ele><time>2026-05-01T09:43:55.466Z</time></trkpt><trkpt lat="35.0307639" lon="9.2727436"><ele>399.0</ele><time>2026-05-01T09:43:56.469Z</time></trkpt><trkpt lat="35.0309586" lon="9.2728103"><ele>399.33333333333337</ele><time>2026-05-01T09:43:57.415Z</time></trkpt><trkpt lat="35.0311545" lon="9.272867"><ele>399.6666666666667</ele><time>2026-05-01T09:43:58.447Z</time></trkpt><trkpt lat="35.03135" lon="9.272926"><ele>400.0</ele><time>2026-05-01T09:43:59.449Z</time></trkpt><trkpt lat="35.0315461" lon="9.2729849"><ele>399.6666666666667</ele><time>2026-05-01T09:44:00.453Z</time></trkpt><trkpt lat="35.0317387" lon="9.2730396"><ele>399.33333333333337</ele><time>2026-05-01T09:44:01.472Z</time></trkpt><trkpt lat="35.0319362" lon="9.2730959"><ele>399.0</ele><time>2026-05-01T09:44:02.439Z</time></trkpt><trkpt lat="35.0321338" lon="9.273156"><ele>398.33333333333337</ele><time>2026-05-01T09:44:03.462Z</time></trkpt><trkpt lat="35.0323394" lon="9.2732168"><ele>397.6666666666667</ele><time>2026-05-01T09:44:04.439Z</time></trkpt><trkpt lat="35.0325387" lon="9.2732767"><ele>397.0</ele><time>2026-05-01T09:44:05.447Z</time></trkpt><trkpt lat="35.0327349" lon="9.2733396"><ele>397.0</ele><time>2026-05-01T09:44:06.46Z</time></trkpt><trkpt lat="35.0329286" lon="9.2733995"><ele>397.0</ele><time>2026-05-01T09:44:07.466Z</time></trkpt><trkpt lat="35.0331173" lon="9.2734545"><ele>397.0</ele><time>2026-05-01T09:44:08.457Z</time></trkpt><trkpt lat="35.0333101" lon="9.273509"><ele>397.0</ele><time>2026-05-01T09:44:09.447Z</time></trkpt><trkpt lat="35.0335044" lon="9.2735704"><ele>397.0</ele><time>2026-05-01T09:44:10.452Z</time></trkpt><trkpt lat="35.0337028" lon="9.2736232"><ele>397.0</ele><time>2026-05-01T09:44:11.395Z</time></trkpt><trkpt lat="35.0338944" lon="9.273684"><ele>397.0</ele><time>2026-05-01T09:44:12.453Z</time></trkpt><trkpt lat="35.0340913" lon="9.2737408"><ele>397.0</ele><time>2026-05-01T09:44:13.455Z</time></trkpt><trkpt lat="35.0342854" lon="9.2738007"><ele>397.0</ele><time>2026-05-01T09:44:14.46Z</time></trkpt><trkpt lat="35.0344802" lon="9.273863"><ele>397.33333333333337</ele><time>2026-05-01T09:44:15.459Z</time></trkpt><trkpt lat="35.0346757" lon="9.2739199"><ele>397.66666666666663</ele><time>2026-05-01T09:44:16.458Z</time></trkpt><trkpt lat="35.0348679" lon="9.2739729"><ele>398.0</ele><time>2026-05-01T09:44:17.465Z</time></trkpt><trkpt lat="35.0350598" lon="9.2740309"><ele>398.3333333333333</ele><time>2026-05-01T09:44:18.456Z</time></trkpt><trkpt lat="35.0352515" lon="9.274085"><ele>398.66666666666663</ele><time>2026-05-01T09:44:19.465Z</time></trkpt><trkpt lat="35.0354468" lon="9.2741428"><ele>399.0</ele><time>2026-05-01T09:44:20.47Z</time></trkpt><trkpt lat="35.0356391" lon="9.2741986"><ele>398.33333333333337</ele><time>2026-05-01T09:44:21.468Z</time></trkpt><trkpt lat="35.0358308" lon="9.2742557"><ele>397.6666666666667</ele><time>2026-05-01T09:44:22.457Z</time></trkpt><trkpt lat="35.0360256" lon="9.2743139"><ele>397.0</ele><time>2026-05-01T09:44:23.464Z</time></trkpt><trkpt lat="35.0362179" lon="9.2743701"><ele>397.0</ele><time>2026-05-01T09:44:24.456Z</time></trkpt><trkpt lat="35.0364126" lon="9.2744327"><ele>397.0</ele><time>2026-05-01T09:44:25.447Z</time></trkpt><trkpt lat="35.0366082" lon="9.2744919"><ele>397.0</ele><time>2026-05-01T09:44:26.441Z</time></trkpt><trkpt lat="35.0368029" lon="9.2745524"><ele>396.6666666666667</ele><time>2026-05-01T09:44:27.448Z</time></trkpt><trkpt lat="35.0369956" lon="9.2746099"><ele>396.33333333333337</ele><time>2026-05-01T09:44:28.452Z</time></trkpt><trkpt lat="35.0371879" lon="9.27467"><ele>396.0</ele><time>2026-05-01T09:44:29.456Z</time></trkpt><trkpt lat="35.0373818" lon="9.2747298"><ele>396.33333333333337</ele><time>2026-05-01T09:44:30.453Z</time></trkpt><trkpt lat="35.0375771" lon="9.2747857"><ele>396.6666666666667</ele><time>2026-05-01T09:44:31.455Z</time></trkpt><trkpt lat="35.037769" lon="9.2748468"><ele>397.0</ele><time>2026-05-01T09:44:32.447Z</time></trkpt><trkpt lat="35.0379648" lon="9.2749044"><ele>397.0</ele><time>2026-05-01T09:44:33.451Z</time></trkpt><trkpt lat="35.0381596" lon="9.2749586"><ele>397.0</ele><time>2026-05-01T09:44:34.458Z</time></trkpt><trkpt lat="35.0383551" lon="9.2750127"><ele>397.0</ele><time>2026-05-01T09:44:35.46Z</time></trkpt><trkpt lat="35.0385511" lon="9.2750673"><ele>397.0</ele><time>2026-05-01T09:44:36.457Z</time></trkpt><trkpt lat="35.0387459" lon="9.2751286"><ele>397.0</ele><time>2026-05-01T09:44:37.452Z</time></trkpt><trkpt lat="35.0389376" lon="9.2751846"><ele>397.0</ele><time>2026-05-01T09:44:38.433Z</time></trkpt><trkpt lat="35.0391323" lon="9.2752427"><ele>397.0</ele><time>2026-05-01T09:44:39.476Z</time></trkpt><trkpt lat="35.0393289" lon="9.2753045"><ele>397.0</ele><time>2026-05-01T09:44:40.446Z</time></trkpt><trkpt lat="35.0395228" lon="9.2753603"><ele>397.0</ele><time>2026-05-01T09:44:41.429Z</time></trkpt><trkpt lat="35.0397147" lon="9.2754216"><ele>397.0</ele><time>2026-05-01T09:44:42.437Z</time></trkpt><trkpt lat="35.0399057" lon="9.2754794"><ele>397.0</ele><time>2026-05-01T09:44:43.447Z</time></trkpt><trkpt lat="35.0400929" lon="9.2755336"><ele>397.0</ele><time>2026-05-01T09:44:44.46Z</time></trkpt><trkpt lat="35.0402898" lon="9.2755871"><ele>397.0</ele><time>2026-05-01T09:44:45.454Z</time></trkpt><trkpt lat="35.0404801" lon="9.2756391"><ele>397.0</ele><time>2026-05-01T09:44:46.45Z</time></trkpt><trkpt lat="35.0406746" lon="9.2756943"><ele>397.0</ele><time>2026-05-01T09:44:47.444Z</time></trkpt><trkpt lat="35.0408704" lon="9.2757582"><ele>397.0</ele><time>2026-05-01T09:44:48.464Z</time></trkpt><trkpt lat="35.0410635" lon="9.2758153"><ele>397.0</ele><time>2026-05-01T09:44:49.444Z</time></trkpt><trkpt lat="35.0412617" lon="9.2758755"><ele>397.0</ele><time>2026-05-01T09:44:50.436Z</time></trkpt><trkpt lat="35.0414575" lon="9.2759347"><ele>397.0</ele><time>2026-05-01T09:44:51.45Z</time></trkpt><trkpt lat="35.0416489" lon="9.2759932"><ele>397.0</ele><time>2026-05-01T09:44:52.467Z</time></trkpt><trkpt lat="35.0418463" lon="9.2760486"><ele>397.0</ele><time>2026-05-01T09:44:53.456Z</time></trkpt><trkpt lat="35.0420337" lon="9.2761035"><ele>397.0</ele><time>2026-05-01T09:44:54.468Z</time></trkpt><trkpt lat="35.0422049" lon="9.2761518"><ele>397.0</ele><time>2026-05-01T09:44:55.458Z</time></trkpt><trkpt lat="35.0423712" lon="9.2762027"><ele>397.0</ele><time>2026-05-01T09:44:56.432Z</time></trkpt><trkpt lat="35.0425253" lon="9.2762548"><ele>397.0</ele><time>2026-05-01T09:44:57.462Z</time></trkpt><trkpt lat="35.0426788" lon="9.2763038"><ele>397.0</ele><time>2026-05-01T09:44:58.462Z</time></trkpt><trkpt lat="35.0428198" lon="9.276348"><ele>397.0</ele><time>2026-05-01T09:44:59.46Z</time></trkpt><trkpt lat="35.0429564" lon="9.276389"><ele>397.0</ele><time>2026-05-01T09:45:00.408Z</time></trkpt><trkpt lat="35.043085" lon="9.2764307"><ele>396.5</ele><time>2026-05-01T09:45:01.409Z</time></trkpt><trkpt lat="35.0432103" lon="9.276473"><ele>396.0</ele><time>2026-05-01T09:45:02.458Z</time></trkpt><trkpt lat="35.0433259" lon="9.2765109"><ele>395.5</ele><time>2026-05-01T09:45:03.459Z</time></trkpt><trkpt lat="35.0434378" lon="9.2765402"><ele>395.0</ele><time>2026-05-01T09:45:04.444Z</time></trkpt><trkpt lat="35.0435415" lon="9.2765656"><ele>395.0</ele><time>2026-05-01T09:45:05.46Z</time></trkpt><trkpt lat="35.0436435" lon="9.2765941"><ele>395.0</ele><time>2026-05-01T09:45:06.446Z</time></trkpt><trkpt lat="35.0437396" lon="9.2766201"><ele>395.0</ele><time>2026-05-01T09:45:07.453Z</time></trkpt><trkpt lat="35.0438241" lon="9.2766434"><ele>395.0</ele><time>2026-05-01T09:45:08.433Z</time></trkpt><trkpt lat="35.0439051" lon="9.2766625"><ele>395.0</ele><time>2026-05-01T09:45:09.453Z</time></trkpt><trkpt lat="35.0439999" lon="9.2766904"><ele>395.0</ele><time>2026-05-01T09:45:10.445Z</time></trkpt><trkpt lat="35.0441135" lon="9.2767293"><ele>395.0</ele><time>2026-05-01T09:45:11.452Z</time></trkpt><trkpt lat="35.0442402" lon="9.2767698"><ele>395.0</ele><time>2026-05-01T09:45:12.402Z</time></trkpt><trkpt lat="35.0443666" lon="9.2768158"><ele>395.0</ele><time>2026-05-01T09:45:13.402Z</time></trkpt><trkpt lat="35.0444959" lon="9.2768567"><ele>395.25</ele><time>2026-05-01T09:45:14.451Z</time></trkpt><trkpt lat="35.044637" lon="9.2769003"><ele>395.5</ele><time>2026-05-01T09:45:15.462Z</time></trkpt><trkpt lat="35.0447811" lon="9.2769386"><ele>395.75</ele><time>2026-05-01T09:45:16.455Z</time></trkpt><trkpt lat="35.0449203" lon="9.2769791"><ele>396.0</ele><time>2026-05-01T09:45:17.452Z</time></trkpt><trkpt lat="35.0450612" lon="9.277023"><ele>395.33333333333337</ele><time>2026-05-01T09:45:18.411Z</time></trkpt><trkpt lat="35.0452042" lon="9.2770682"><ele>394.6666666666667</ele><time>2026-05-01T09:45:19.418Z</time></trkpt><trkpt lat="35.0453554" lon="9.2771139"><ele>394.0</ele><time>2026-05-01T09:45:20.443Z</time></trkpt><trkpt lat="35.0455087" lon="9.2771546"><ele>394.0</ele><time>2026-05-01T09:45:21.411Z</time></trkpt><trkpt lat="35.0456608" lon="9.2771936"><ele>394.0</ele><time>2026-05-01T09:45:22.412Z</time></trkpt><trkpt lat="35.0458164" lon="9.2772416"><ele>394.0</ele><time>2026-05-01T09:45:23.407Z</time></trkpt><trkpt lat="35.0459723" lon="9.2772884"><ele>394.33333333333337</ele><time>2026-05-01T09:45:24.409Z</time></trkpt><trkpt lat="35.0461283" lon="9.2773328"><ele>394.66666666666663</ele><time>2026-05-01T09:45:25.412Z</time></trkpt><trkpt lat="35.0462895" lon="9.2773808"><ele>395.0</ele><time>2026-05-01T09:45:26.415Z</time></trkpt><trkpt lat="35.0464554" lon="9.2774316"><ele>395.0</ele><time>2026-05-01T09:45:27.427Z</time></trkpt><trkpt lat="35.0466253" lon="9.2774823"><ele>395.0</ele><time>2026-05-01T09:45:28.405Z</time></trkpt><trkpt lat="35.0467893" lon="9.2775349"><ele>395.0</ele><time>2026-05-01T09:45:29.413Z</time></trkpt><trkpt lat="35.0469524" lon="9.2775861"><ele>394.66666666666663</ele><time>2026-05-01T09:45:30.415Z</time></trkpt><trkpt lat="35.0471146" lon="9.2776301"><ele>394.33333333333337</ele><time>2026-05-01T09:45:31.414Z</time></trkpt><trkpt lat="35.0472767" lon="9.2776785"><ele>394.0</ele><time>2026-05-01T09:45:32.406Z</time></trkpt><trkpt lat="35.04744" lon="9.2777273"><ele>395.0</ele><time>2026-05-01T09:45:33.42Z</time></trkpt><trkpt lat="35.0476038" lon="9.2777725"><ele>396.0</ele><time>2026-05-01T09:45:34.418Z</time></trkpt><trkpt lat="35.0477559" lon="9.2778177"><ele>397.0</ele><time>2026-05-01T09:45:35.416Z</time></trkpt><trkpt lat="35.0479025" lon="9.2778601"><ele>397.0</ele><time>2026-05-01T09:45:36.405Z</time></trkpt><trkpt lat="35.0480494" lon="9.2779"><ele>397.0</ele><time>2026-05-01T09:45:37.413Z</time></trkpt><trkpt lat="35.0481926" lon="9.2779409"><ele>397.0</ele><time>2026-05-01T09:45:38.405Z</time></trkpt><trkpt lat="35.0483363" lon="9.2779826"><ele>397.0</ele><time>2026-05-01T09:45:39.417Z</time></trkpt><trkpt lat="35.0484822" lon="9.2780259"><ele>396.6666666666667</ele><time>2026-05-01T09:45:40.41Z</time></trkpt><trkpt lat="35.0486282" lon="9.2780678"><ele>396.33333333333337</ele><time>2026-05-01T09:45:41.409Z</time></trkpt><trkpt lat="35.0487799" lon="9.2781135"><ele>396.0</ele><time>2026-05-01T09:45:42.406Z</time></trkpt><trkpt lat="35.0489289" lon="9.2781571"><ele>395.75</ele><time>2026-05-01T09:45:43.406Z</time></trkpt><trkpt lat="35.049076" lon="9.2781992"><ele>395.5</ele><time>2026-05-01T09:45:44.423Z</time></trkpt><trkpt lat="35.0492211" lon="9.2782467"><ele>395.25</ele><time>2026-05-01T09:45:45.405Z</time></trkpt><trkpt lat="35.0493617" lon="9.2782919"><ele>395.0</ele><time>2026-05-01T09:45:46.411Z</time></trkpt><trkpt lat="35.0495018" lon="9.2783374"><ele>395.0</ele><time>2026-05-01T09:45:47.412Z</time></trkpt><trkpt lat="35.0496451" lon="9.2783774"><ele>395.0</ele><time>2026-05-01T09:45:48.417Z</time></trkpt><trkpt lat="35.0497852" lon="9.2784174"><ele>395.0</ele><time>2026-05-01T09:45:49.415Z</time></trkpt><trkpt lat="35.0499253" lon="9.2784616"><ele>395.0</ele><time>2026-05-01T09:45:50.415Z</time></trkpt><trkpt lat="35.0500609" lon="9.2785019"><ele>394.5</ele><time>2026-05-01T09:45:51.414Z</time></trkpt><trkpt lat="35.0501975" lon="9.2785383"><ele>394.0</ele><time>2026-05-01T09:45:52.404Z</time></trkpt><trkpt lat="35.0503346" lon="9.2785743"><ele>393.5</ele><time>2026-05-01T09:45:53.432Z</time></trkpt><trkpt lat="35.0504712" lon="9.2786155"><ele>393.0</ele><time>2026-05-01T09:45:54.414Z</time></trkpt><trkpt lat="35.0506068" lon="9.2786526"><ele>393.0</ele><time>2026-05-01T09:45:55.422Z</time></trkpt><trkpt lat="35.0507519" lon="9.2786936"><ele>393.0</ele><time>2026-05-01T09:45:56.411Z</time></trkpt><trkpt lat="35.0509014" lon="9.278737"><ele>393.0</ele><time>2026-05-01T09:45:57.406Z</time></trkpt><trkpt lat="35.0510528" lon="9.2787838"><ele>393.33333333333337</ele><time>2026-05-01T09:45:58.416Z</time></trkpt><trkpt lat="35.0512085" lon="9.2788301"><ele>393.6666666666667</ele><time>2026-05-01T09:45:59.413Z</time></trkpt><trkpt lat="35.0513631" lon="9.2788723"><ele>394.0</ele><time>2026-05-01T09:46:00.405Z</time></trkpt><trkpt lat="35.0515153" lon="9.2789189"><ele>393.33333333333337</ele><time>2026-05-01T09:46:01.399Z</time></trkpt><trkpt lat="35.051666" lon="9.278967"><ele>392.66666666666663</ele><time>2026-05-01T09:46:02.403Z</time></trkpt><trkpt lat="35.0518241" lon="9.2790205"><ele>392.0</ele><time>2026-05-01T09:46:03.407Z</time></trkpt><trkpt lat="35.0519824" lon="9.279068"><ele>392.0</ele><time>2026-05-01T09:46:04.412Z</time></trkpt><trkpt lat="35.0521391" lon="9.2791059"><ele>392.0</ele><time>2026-05-01T09:46:05.413Z</time></trkpt><trkpt lat="35.0522881" lon="9.2791514"><ele>392.0</ele><time>2026-05-01T09:46:06.404Z</time></trkpt><trkpt lat="35.0524378" lon="9.2791973"><ele>392.3333333333333</ele><time>2026-05-01T09:46:07.405Z</time></trkpt><trkpt lat="35.0525908" lon="9.2792451"><ele>392.66666666666663</ele><time>2026-05-01T09:46:08.401Z</time></trkpt><trkpt lat="35.0527493" lon="9.2792903"><ele>393.0</ele><time>2026-05-01T09:46:09.411Z</time></trkpt><trkpt lat="35.0529054" lon="9.2793344"><ele>393.0</ele><time>2026-05-01T09:46:10.409Z</time></trkpt><trkpt lat="35.0530594" lon="9.2793779"><ele>393.0</ele><time>2026-05-01T09:46:11.407Z</time></trkpt><trkpt lat="35.0532123" lon="9.2794208"><ele>393.0</ele><time>2026-05-01T09:46:12.428Z</time></trkpt><trkpt lat="35.0533659" lon="9.2794677"><ele>393.0</ele><time>2026-05-01T09:46:13.408Z</time></trkpt><trkpt lat="35.0535189" lon="9.2795129"><ele>393.0</ele><time>2026-05-01T09:46:14.406Z</time></trkpt><trkpt lat="35.0536773" lon="9.2795626"><ele>393.0</ele><time>2026-05-01T09:46:15.414Z</time></trkpt><trkpt lat="35.0538387" lon="9.2796129"><ele>393.0</ele><time>2026-05-01T09:46:16.417Z</time></trkpt><trkpt lat="35.0540055" lon="9.2796649"><ele>393.0</ele><time>2026-05-01T09:46:17.413Z</time></trkpt><trkpt lat="35.0541742" lon="9.2797121"><ele>393.0</ele><time>2026-05-01T09:46:18.412Z</time></trkpt><trkpt lat="35.054346" lon="9.2797668"><ele>392.66666666666663</ele><time>2026-05-01T09:46:19.414Z</time></trkpt><trkpt lat="35.0545141" lon="9.2798225"><ele>392.3333333333333</ele><time>2026-05-01T09:46:20.408Z</time></trkpt><trkpt lat="35.0546856" lon="9.2798722"><ele>392.0</ele><time>2026-05-01T09:46:21.413Z</time></trkpt><trkpt lat="35.0548521" lon="9.2799171"><ele>392.3333333333333</ele><time>2026-05-01T09:46:22.41Z</time></trkpt><trkpt lat="35.0550199" lon="9.2799655"><ele>392.66666666666663</ele><time>2026-05-01T09:46:23.404Z</time></trkpt><trkpt lat="35.0551886" lon="9.2800143"><ele>393.0</ele><time>2026-05-01T09:46:24.418Z</time></trkpt><trkpt lat="35.0553587" lon="9.280061"><ele>393.0</ele><time>2026-05-01T09:46:25.416Z</time></trkpt><trkpt lat="35.0555249" lon="9.2801044"><ele>393.0</ele><time>2026-05-01T09:46:26.418Z</time></trkpt><trkpt lat="35.0556951" lon="9.2801538"><ele>393.0</ele><time>2026-05-01T09:46:27.411Z</time></trkpt><trkpt lat="35.0558665" lon="9.2802053"><ele>393.0</ele><time>2026-05-01T09:46:28.4Z</time></trkpt><trkpt lat="35.0560356" lon="9.2802558"><ele>393.0</ele><time>2026-05-01T09:46:29.406Z</time></trkpt><trkpt lat="35.0562073" lon="9.2803067"><ele>393.0</ele><time>2026-05-01T09:46:30.412Z</time></trkpt><trkpt lat="35.0563849" lon="9.280358"><ele>393.0</ele><time>2026-05-01T09:46:31.415Z</time></trkpt><trkpt lat="35.0565564" lon="9.2804069"><ele>393.0</ele><time>2026-05-01T09:46:32.431Z</time></trkpt><trkpt lat="35.0567289" lon="9.2804591"><ele>393.0</ele><time>2026-05-01T09:46:33.418Z</time></trkpt><trkpt lat="35.0569017" lon="9.2805118"><ele>393.0</ele><time>2026-05-01T09:46:34.417Z</time></trkpt><trkpt lat="35.0570708" lon="9.2805704"><ele>393.0</ele><time>2026-05-01T09:46:35.415Z</time></trkpt><trkpt lat="35.0572435" lon="9.2806185"><ele>393.0</ele><time>2026-05-01T09:46:36.412Z</time></trkpt><trkpt lat="35.0574235" lon="9.2806753"><ele>392.66666666666663</ele><time>2026-05-01T09:46:37.421Z</time></trkpt><trkpt lat="35.0576042" lon="9.2807299"><ele>392.3333333333333</ele><time>2026-05-01T09:46:38.418Z</time></trkpt><trkpt lat="35.057789" lon="9.280785"><ele>392.0</ele><time>2026-05-01T09:46:39.403Z</time></trkpt><trkpt lat="35.0579763" lon="9.2808388"><ele>392.0</ele><time>2026-05-01T09:46:40.453Z</time></trkpt><trkpt lat="35.0581592" lon="9.2808977"><ele>392.0</ele><time>2026-05-01T09:46:41.453Z</time></trkpt><trkpt lat="35.0583411" lon="9.2809482"><ele>392.0</ele><time>2026-05-01T09:46:42.454Z</time></trkpt><trkpt lat="35.0585263" lon="9.2809971"><ele>392.0</ele><time>2026-05-01T09:46:43.453Z</time></trkpt><trkpt lat="35.0587084" lon="9.2810495"><ele>392.0</ele><time>2026-05-01T09:46:44.454Z</time></trkpt><trkpt lat="35.0588902" lon="9.2810997"><ele>392.0</ele><time>2026-05-01T09:46:45.428Z</time></trkpt><trkpt lat="35.0590705" lon="9.2811492"><ele>392.3333333333333</ele><time>2026-05-01T09:46:46.464Z</time></trkpt><trkpt lat="35.0592527" lon="9.281203"><ele>392.66666666666663</ele><time>2026-05-01T09:46:47.455Z</time></trkpt><trkpt lat="35.0594282" lon="9.2812592"><ele>393.0</ele><time>2026-05-01T09:46:48.406Z</time></trkpt><trkpt lat="35.0596065" lon="9.2813152"><ele>393.0</ele><time>2026-05-01T09:46:49.467Z</time></trkpt><trkpt lat="35.059788" lon="9.2813673"><ele>393.0</ele><time>2026-05-01T09:46:50.445Z</time></trkpt><trkpt lat="35.0599728" lon="9.2814171"><ele>393.0</ele><time>2026-05-01T09:46:51.456Z</time></trkpt><trkpt lat="35.0601575" lon="9.2814697"><ele>393.0</ele><time>2026-05-01T09:46:52.458Z</time></trkpt><trkpt lat="35.0603426" lon="9.2815238"><ele>393.0</ele><time>2026-05-01T09:46:53.426Z</time></trkpt><trkpt lat="35.0605297" lon="9.2815794"><ele>393.0</ele><time>2026-05-01T09:46:54.457Z</time></trkpt><trkpt lat="35.0607193" lon="9.2816373"><ele>393.33333333333337</ele><time>2026-05-01T09:46:55.465Z</time></trkpt><trkpt lat="35.060905" lon="9.2816966"><ele>393.6666666666667</ele><time>2026-05-01T09:46:56.464Z</time></trkpt><trkpt lat="35.061091" lon="9.2817508"><ele>394.0</ele><time>2026-05-01T09:46:57.453Z</time></trkpt><trkpt lat="35.0612737" lon="9.2818048"><ele>394.0</ele><time>2026-05-01T09:46:58.442Z</time></trkpt><trkpt lat="35.0614567" lon="9.2818611"><ele>394.0</ele><time>2026-05-01T09:46:59.437Z</time></trkpt><trkpt lat="35.0616419" lon="9.281913"><ele>394.0</ele><time>2026-05-01T09:47:00.468Z</time></trkpt><trkpt lat="35.0618306" lon="9.2819704"><ele>394.33333333333337</ele><time>2026-05-01T09:47:01.418Z</time></trkpt><trkpt lat="35.062019" lon="9.2820273"><ele>394.66666666666663</ele><time>2026-05-01T09:47:02.449Z</time></trkpt><trkpt lat="35.0622049" lon="9.2820878"><ele>395.0</ele><time>2026-05-01T09:47:03.459Z</time></trkpt><trkpt lat="35.0623858" lon="9.282144"><ele>394.66666666666663</ele><time>2026-05-01T09:47:04.44Z</time></trkpt><trkpt lat="35.0625671" lon="9.2821984"><ele>394.33333333333337</ele><time>2026-05-01T09:47:05.46Z</time></trkpt><trkpt lat="35.0627492" lon="9.2822567"><ele>394.0</ele><time>2026-05-01T09:47:06.456Z</time></trkpt><trkpt lat="35.0629298" lon="9.2823189"><ele>394.0</ele><time>2026-05-01T09:47:07.438Z</time></trkpt><trkpt lat="35.0631125" lon="9.2823834"><ele>394.0</ele><time>2026-05-01T09:47:08.46Z</time></trkpt><trkpt lat="35.0632962" lon="9.282454"><ele>394.0</ele><time>2026-05-01T09:47:09.467Z</time></trkpt><trkpt lat="35.0634778" lon="9.2825245"><ele>394.0</ele><time>2026-05-01T09:47:10.425Z</time></trkpt><trkpt lat="35.0636584" lon="9.2826042"><ele>394.0</ele><time>2026-05-01T09:47:11.437Z</time></trkpt><trkpt lat="35.0638418" lon="9.2826887"><ele>394.0</ele><time>2026-05-01T09:47:12.453Z</time></trkpt><trkpt lat="35.0640214" lon="9.2827743"><ele>394.0</ele><time>2026-05-01T09:47:13.471Z</time></trkpt><trkpt lat="35.064202" lon="9.2828656"><ele>394.0</ele><time>2026-05-01T09:47:14.422Z</time></trkpt><trkpt lat="35.0643884" lon="9.282967"><ele>394.0</ele><time>2026-05-01T09:47:15.445Z</time></trkpt><trkpt lat="35.0645776" lon="9.2830756"><ele>394.0</ele><time>2026-05-01T09:47:16.454Z</time></trkpt><trkpt lat="35.0647714" lon="9.2831968"><ele>394.0</ele><time>2026-05-01T09:47:17.446Z</time></trkpt><trkpt lat="35.0649648" lon="9.2833195"><ele>394.0</ele><time>2026-05-01T09:47:18.465Z</time></trkpt><trkpt lat="35.0651605" lon="9.2834517"><ele>395.0</ele><time>2026-05-01T09:47:19.458Z</time></trkpt><trkpt lat="35.0653542" lon="9.2835919"><ele>396.0</ele><time>2026-05-01T09:47:20.462Z</time></trkpt><trkpt lat="35.0655479" lon="9.2837364"><ele>396.0</ele><time>2026-05-01T09:47:21.467Z</time></trkpt><trkpt lat="35.0657373" lon="9.2838904"><ele>396.0</ele><time>2026-05-01T09:47:22.467Z</time></trkpt><trkpt lat="35.0659221" lon="9.2840459"><ele>396.33333333333337</ele><time>2026-05-01T09:47:23.465Z</time></trkpt><trkpt lat="35.0661017" lon="9.2841969"><ele>396.6666666666667</ele><time>2026-05-01T09:47:24.429Z</time></trkpt><trkpt lat="35.0662649" lon="9.2843411"><ele>397.0</ele><time>2026-05-01T09:47:25.464Z</time></trkpt><trkpt lat="35.0664266" lon="9.2844875"><ele>397.0</ele><time>2026-05-01T09:47:26.455Z</time></trkpt><trkpt lat="35.066592" lon="9.2846284"><ele>397.0</ele><time>2026-05-01T09:47:27.455Z</time></trkpt><trkpt lat="35.0667516" lon="9.2847691"><ele>397.0</ele><time>2026-05-01T09:47:28.45Z</time></trkpt><trkpt lat="35.0669047" lon="9.2849018"><ele>396.0</ele><time>2026-05-01T09:47:29.449Z</time></trkpt><trkpt lat="35.0670556" lon="9.2850262"><ele>395.0</ele><time>2026-05-01T09:47:30.468Z</time></trkpt><trkpt lat="35.0672114" lon="9.2851596"><ele>394.0</ele><time>2026-05-01T09:47:31.457Z</time></trkpt><trkpt lat="35.0673641" lon="9.2852987"><ele>393.6666666666667</ele><time>2026-05-01T09:47:32.445Z</time></trkpt><trkpt lat="35.0675171" lon="9.285435"><ele>393.33333333333337</ele><time>2026-05-01T09:47:33.469Z</time></trkpt><trkpt lat="35.0676757" lon="9.2855754"><ele>393.0</ele><time>2026-05-01T09:47:34.456Z</time></trkpt><trkpt lat="35.0678335" lon="9.285716"><ele>392.66666666666663</ele><time>2026-05-01T09:47:35.466Z</time></trkpt><trkpt lat="35.0679926" lon="9.2858521"><ele>392.3333333333333</ele><time>2026-05-01T09:47:36.464Z</time></trkpt><trkpt lat="35.0681463" lon="9.2859893"><ele>392.0</ele><time>2026-05-01T09:47:37.443Z</time></trkpt><trkpt lat="35.0682995" lon="9.286125"><ele>392.0</ele><time>2026-05-01T09:47:38.439Z</time></trkpt><trkpt lat="35.0684533" lon="9.2862622"><ele>392.0</ele><time>2026-05-01T09:47:39.444Z</time></trkpt><trkpt lat="35.0686111" lon="9.2864013"><ele>392.0</ele><time>2026-05-01T09:47:40.453Z</time></trkpt><trkpt lat="35.0687674" lon="9.2865364"><ele>392.0</ele><time>2026-05-01T09:47:41.461Z</time></trkpt><trkpt lat="35.0689254" lon="9.2866675"><ele>392.0</ele><time>2026-05-01T09:47:42.451Z</time></trkpt><trkpt lat="35.0690826" lon="9.286803"><ele>392.0</ele><time>2026-05-01T09:47:43.463Z</time></trkpt><trkpt lat="35.0692374" lon="9.2869388"><ele>392.0</ele><time>2026-05-01T09:47:44.456Z</time></trkpt><trkpt lat="35.0693927" lon="9.2870756"><ele>392.0</ele><time>2026-05-01T09:47:45.459Z</time></trkpt><trkpt lat="35.069547" lon="9.2872098"><ele>392.0</ele><time>2026-05-01T09:47:46.467Z</time></trkpt><trkpt lat="35.0697031" lon="9.2873466"><ele>391.66666666666663</ele><time>2026-05-01T09:47:47.437Z</time></trkpt><trkpt lat="35.0698625" lon="9.2874821"><ele>391.33333333333337</ele><time>2026-05-01T09:47:48.463Z</time></trkpt><trkpt lat="35.0700205" lon="9.2876215"><ele>391.0</ele><time>2026-05-01T09:47:49.46Z</time></trkpt><trkpt lat="35.0701757" lon="9.2877568"><ele>390.6666666666667</ele><time>2026-05-01T09:47:50.468Z</time></trkpt><trkpt lat="35.0703302" lon="9.2878941"><ele>390.33333333333337</ele><time>2026-05-01T09:47:51.453Z</time></trkpt><trkpt lat="35.070491" lon="9.2880264"><ele>390.0</ele><time>2026-05-01T09:47:52.398Z</time></trkpt><trkpt lat="35.0706451" lon="9.2881602"><ele>390.0</ele><time>2026-05-01T09:47:53.46Z</time></trkpt><trkpt lat="35.0708002" lon="9.2882966"><ele>390.0</ele><time>2026-05-01T09:47:54.433Z</time></trkpt><trkpt lat="35.0709596" lon="9.2884368"><ele>390.0</ele><time>2026-05-01T09:47:55.424Z</time></trkpt><trkpt lat="35.0711141" lon="9.2885725"><ele>390.0</ele><time>2026-05-01T09:47:56.462Z</time></trkpt><trkpt lat="35.0712702" lon="9.2887057"><ele>390.0</ele><time>2026-05-01T09:47:57.445Z</time></trkpt><trkpt lat="35.0714281" lon="9.2888419"><ele>390.0</ele><time>2026-05-01T09:47:58.431Z</time></trkpt><trkpt lat="35.0715863" lon="9.2889824"><ele>390.33333333333337</ele><time>2026-05-01T09:47:59.406Z</time></trkpt><trkpt lat="35.0717427" lon="9.2891258"><ele>390.6666666666667</ele><time>2026-05-01T09:48:00.451Z</time></trkpt><trkpt lat="35.0718983" lon="9.2892585"><ele>391.0</ele><time>2026-05-01T09:48:01.45Z</time></trkpt><trkpt lat="35.0720574" lon="9.2893922"><ele>391.0</ele><time>2026-05-01T09:48:02.436Z</time></trkpt><trkpt lat="35.0722168" lon="9.289527"><ele>391.0</ele><time>2026-05-01T09:48:03.461Z</time></trkpt><trkpt lat="35.0723735" lon="9.2896634"><ele>391.0</ele><time>2026-05-01T09:48:04.447Z</time></trkpt><trkpt lat="35.0725271" lon="9.289795"><ele>391.0</ele><time>2026-05-01T09:48:05.436Z</time></trkpt><trkpt lat="35.0726815" lon="9.2899287"><ele>391.0</ele><time>2026-05-01T09:48:06.449Z</time></trkpt><trkpt lat="35.0728366" lon="9.2900646"><ele>391.0</ele><time>2026-05-01T09:48:07.458Z</time></trkpt><trkpt lat="35.0729925" lon="9.2902017"><ele>391.0</ele><time>2026-05-01T09:48:08.457Z</time></trkpt><trkpt lat="35.0731464" lon="9.2903421"><ele>391.0</ele><time>2026-05-01T09:48:09.433Z</time></trkpt><trkpt lat="35.0733036" lon="9.2904782"><ele>391.0</ele><time>2026-05-01T09:48:10.432Z</time></trkpt><trkpt lat="35.0734583" lon="9.2906169"><ele>392.0</ele><time>2026-05-01T09:48:11.461Z</time></trkpt><trkpt lat="35.0736169" lon="9.2907515"><ele>393.0</ele><time>2026-05-01T09:48:12.46Z</time></trkpt><trkpt lat="35.0737745" lon="9.2908876"><ele>394.0</ele><time>2026-05-01T09:48:13.443Z</time></trkpt><trkpt lat="35.0739323" lon="9.2910256"><ele>394.0</ele><time>2026-05-01T09:48:14.439Z</time></trkpt><trkpt lat="35.0740876" lon="9.2911657"><ele>394.0</ele><time>2026-05-01T09:48:15.419Z</time></trkpt><trkpt lat="35.0742463" lon="9.2913045"><ele>394.0</ele><time>2026-05-01T09:48:16.466Z</time></trkpt><trkpt lat="35.0743997" lon="9.2914432"><ele>394.0</ele><time>2026-05-01T09:48:17.453Z</time></trkpt><trkpt lat="35.0745531" lon="9.2915827"><ele>394.0</ele><time>2026-05-01T09:48:18.404Z</time></trkpt><trkpt lat="35.0747103" lon="9.2917153"><ele>394.0</ele><time>2026-05-01T09:48:19.421Z</time></trkpt><trkpt lat="35.0748703" lon="9.2918495"><ele>394.0</ele><time>2026-05-01T09:48:20.436Z</time></trkpt><trkpt lat="35.0750321" lon="9.2919852"><ele>394.0</ele><time>2026-05-01T09:48:21.434Z</time></trkpt><trkpt lat="35.0751917" lon="9.2921218"><ele>394.0</ele><time>2026-05-01T09:48:22.459Z</time></trkpt><trkpt lat="35.0753466" lon="9.2922618"><ele>393.6666666666667</ele><time>2026-05-01T09:48:23.458Z</time></trkpt><trkpt lat="35.0755008" lon="9.2923964"><ele>393.33333333333337</ele><time>2026-05-01T09:48:24.446Z</time></trkpt><trkpt lat="35.0756552" lon="9.2925338"><ele>393.0</ele><time>2026-05-01T09:48:25.432Z</time></trkpt><trkpt lat="35.0758113" lon="9.2926664"><ele>393.66666666666663</ele><time>2026-05-01T09:48:26.454Z</time></trkpt><trkpt lat="35.0759657" lon="9.2927969"><ele>394.3333333333333</ele><time>2026-05-01T09:48:27.425Z</time></trkpt><trkpt lat="35.0761167" lon="9.2929301"><ele>395.0</ele><time>2026-05-01T09:48:28.464Z</time></trkpt><trkpt lat="35.0762682" lon="9.2930575"><ele>395.0</ele><time>2026-05-01T09:48:29.46Z</time></trkpt><trkpt lat="35.0764196" lon="9.2931942"><ele>395.0</ele><time>2026-05-01T09:48:30.452Z</time></trkpt><trkpt lat="35.0765728" lon="9.2933263"><ele>395.0</ele><time>2026-05-01T09:48:31.449Z</time></trkpt><trkpt lat="35.0767236" lon="9.2934562"><ele>395.0</ele><time>2026-05-01T09:48:32.446Z</time></trkpt><trkpt lat="35.0768824" lon="9.2935871"><ele>395.0</ele><time>2026-05-01T09:48:33.454Z</time></trkpt><trkpt lat="35.0770397" lon="9.2937103"><ele>395.0</ele><time>2026-05-01T09:48:34.455Z</time></trkpt><trkpt lat="35.0772031" lon="9.2938277"><ele>394.66666666666663</ele><time>2026-05-01T09:48:35.461Z</time></trkpt><trkpt lat="35.0773654" lon="9.2939427"><ele>394.33333333333337</ele><time>2026-05-01T09:48:36.461Z</time></trkpt><trkpt lat="35.0775311" lon="9.2940513"><ele>394.0</ele><time>2026-05-01T09:48:37.443Z</time></trkpt><trkpt lat="35.0776979" lon="9.294151"><ele>394.0</ele><time>2026-05-01T09:48:38.429Z</time></trkpt><trkpt lat="35.077866" lon="9.2942471"><ele>394.0</ele><time>2026-05-01T09:48:39.444Z</time></trkpt><trkpt lat="35.0780379" lon="9.2943425"><ele>394.0</ele><time>2026-05-01T09:48:40.456Z</time></trkpt><trkpt lat="35.07821" lon="9.2944397"><ele>394.0</ele><time>2026-05-01T09:48:41.444Z</time></trkpt><trkpt lat="35.0783816" lon="9.29454"><ele>394.0</ele><time>2026-05-01T09:48:42.455Z</time></trkpt><trkpt lat="35.0785551" lon="9.2946374"><ele>394.0</ele><time>2026-05-01T09:48:43.456Z</time></trkpt><trkpt lat="35.0787297" lon="9.2947301"><ele>393.6666666666667</ele><time>2026-05-01T09:48:44.443Z</time></trkpt><trkpt lat="35.0788985" lon="9.2948248"><ele>393.33333333333337</ele><time>2026-05-01T09:48:45.449Z</time></trkpt><trkpt lat="35.0790675" lon="9.2949189"><ele>393.0</ele><time>2026-05-01T09:48:46.461Z</time></trkpt><trkpt lat="35.0792367" lon="9.2950089"><ele>393.0</ele><time>2026-05-01T09:48:47.462Z</time></trkpt><trkpt lat="35.0794092" lon="9.295101"><ele>393.0</ele><time>2026-05-01T09:48:48.451Z</time></trkpt><trkpt lat="35.0795813" lon="9.2951958"><ele>393.0</ele><time>2026-05-01T09:48:49.454Z</time></trkpt><trkpt lat="35.0797498" lon="9.2952898"><ele>393.0</ele><time>2026-05-01T09:48:50.446Z</time></trkpt><trkpt lat="35.0799191" lon="9.2953826"><ele>393.0</ele><time>2026-05-01T09:48:51.467Z</time></trkpt><trkpt lat="35.0800873" lon="9.2954814"><ele>393.0</ele><time>2026-05-01T09:48:52.437Z</time></trkpt><trkpt lat="35.0802596" lon="9.2955776"><ele>393.0</ele><time>2026-05-01T09:48:53.449Z</time></trkpt><trkpt lat="35.0804328" lon="9.295673"><ele>393.0</ele><time>2026-05-01T09:48:54.458Z</time></trkpt><trkpt lat="35.0806066" lon="9.2957659"><ele>393.0</ele><time>2026-05-01T09:48:55.457Z</time></trkpt><trkpt lat="35.0807769" lon="9.2958589"><ele>393.66666666666663</ele><time>2026-05-01T09:48:56.458Z</time></trkpt><trkpt lat="35.0809494" lon="9.2959525"><ele>394.3333333333333</ele><time>2026-05-01T09:48:57.467Z</time></trkpt><trkpt lat="35.0811203" lon="9.2960488"><ele>395.0</ele><time>2026-05-01T09:48:58.435Z</time></trkpt><trkpt lat="35.0812896" lon="9.2961464"><ele>395.0</ele><time>2026-05-01T09:48:59.444Z</time></trkpt><trkpt lat="35.0814622" lon="9.2962394"><ele>395.0</ele><time>2026-05-01T09:49:00.458Z</time></trkpt><trkpt lat="35.0816329" lon="9.2963318"><ele>395.0</ele><time>2026-05-01T09:49:01.448Z</time></trkpt><trkpt lat="35.0818032" lon="9.2964269"><ele>394.66666666666663</ele><time>2026-05-01T09:49:02.437Z</time></trkpt><trkpt lat="35.0819755" lon="9.2965203"><ele>394.33333333333337</ele><time>2026-05-01T09:49:03.439Z</time></trkpt><trkpt lat="35.0821448" lon="9.2966098"><ele>394.0</ele><time>2026-05-01T09:49:04.442Z</time></trkpt><trkpt lat="35.0823135" lon="9.296698"><ele>394.6666666666667</ele><time>2026-05-01T09:49:05.454Z</time></trkpt><trkpt lat="35.0824839" lon="9.2967939"><ele>395.33333333333337</ele><time>2026-05-01T09:49:06.407Z</time></trkpt><trkpt lat="35.0826552" lon="9.2968864"><ele>396.0</ele><time>2026-05-01T09:49:07.446Z</time></trkpt><trkpt lat="35.0828265" lon="9.2969834"><ele>396.0</ele><time>2026-05-01T09:49:08.439Z</time></trkpt><trkpt lat="35.0829979" lon="9.2970832"><ele>396.0</ele><time>2026-05-01T09:49:09.45Z</time></trkpt><trkpt lat="35.0831686" lon="9.2971774"><ele>396.0</ele><time>2026-05-01T09:49:10.458Z</time></trkpt><trkpt lat="35.0833392" lon="9.2972736"><ele>395.66666666666663</ele><time>2026-05-01T09:49:11.447Z</time></trkpt><trkpt lat="35.0835089" lon="9.2973647"><ele>395.3333333333333</ele><time>2026-05-01T09:49:12.464Z</time></trkpt><trkpt lat="35.0836812" lon="9.2974569"><ele>395.0</ele><time>2026-05-01T09:49:13.462Z</time></trkpt><trkpt lat="35.0838504" lon="9.2975482"><ele>395.0</ele><time>2026-05-01T09:49:14.468Z</time></trkpt><trkpt lat="35.084023" lon="9.2976443"><ele>395.0</ele><time>2026-05-01T09:49:15.444Z</time></trkpt><trkpt lat="35.0841931" lon="9.2977397"><ele>395.0</ele><time>2026-05-01T09:49:16.454Z</time></trkpt><trkpt lat="35.0843656" lon="9.2978292"><ele>394.66666666666663</ele><time>2026-05-01T09:49:17.412Z</time></trkpt><trkpt lat="35.0845368" lon="9.2979204"><ele>394.33333333333337</ele><time>2026-05-01T09:49:18.409Z</time></trkpt><trkpt lat="35.0847072" lon="9.2980137"><ele>394.0</ele><time>2026-05-01T09:49:19.441Z</time></trkpt><trkpt lat="35.0848781" lon="9.2981057"><ele>395.0</ele><time>2026-05-01T09:49:20.45Z</time></trkpt><trkpt lat="35.0850528" lon="9.2981997"><ele>396.0</ele><time>2026-05-01T09:49:21.452Z</time></trkpt><trkpt lat="35.0852281" lon="9.2982986"><ele>397.0</ele><time>2026-05-01T09:49:22.434Z</time></trkpt><trkpt lat="35.0854013" lon="9.2983965"><ele>397.0</ele><time>2026-05-01T09:49:23.456Z</time></trkpt><trkpt lat="35.0855756" lon="9.2984904"><ele>397.0</ele><time>2026-05-01T09:49:24.452Z</time></trkpt><trkpt lat="35.0857478" lon="9.2985845"><ele>397.0</ele><time>2026-05-01T09:49:25.462Z</time></trkpt><trkpt lat="35.0859238" lon="9.2986804"><ele>397.0</ele><time>2026-05-01T09:49:26.47Z</time></trkpt><trkpt lat="35.0860966" lon="9.2987716"><ele>397.0</ele><time>2026-05-01T09:49:27.458Z</time></trkpt><trkpt lat="35.08627" lon="9.2988659"><ele>397.0</ele><time>2026-05-01T09:49:28.457Z</time></trkpt><trkpt lat="35.0864432" lon="9.2989617"><ele>397.0</ele><time>2026-05-01T09:49:29.413Z</time></trkpt><trkpt lat="35.0866144" lon="9.2990561"><ele>397.0</ele><time>2026-05-01T09:49:30.454Z</time></trkpt><trkpt lat="35.0867898" lon="9.2991459"><ele>397.0</ele><time>2026-05-01T09:49:31.466Z</time></trkpt><trkpt lat="35.0869647" lon="9.2992311"><ele>397.0</ele><time>2026-05-01T09:49:32.457Z</time></trkpt><trkpt lat="35.087142" lon="9.2993289"><ele>397.0</ele><time>2026-05-01T09:49:33.448Z</time></trkpt><trkpt lat="35.0873157" lon="9.2994253"><ele>397.0</ele><time>2026-05-01T09:49:34.451Z</time></trkpt><trkpt lat="35.0874857" lon="9.2995323"><ele>397.0</ele><time>2026-05-01T09:49:35.452Z</time></trkpt><trkpt lat="35.0876559" lon="9.2996373"><ele>397.0</ele><time>2026-05-01T09:49:36.456Z</time></trkpt><trkpt lat="35.0878309" lon="9.2997367"><ele>397.0</ele><time>2026-05-01T09:49:37.453Z</time></trkpt><trkpt lat="35.088005" lon="9.299835"><ele>397.0</ele><time>2026-05-01T09:49:38.437Z</time></trkpt><trkpt lat="35.0881782" lon="9.2999285"><ele>397.0</ele><time>2026-05-01T09:49:39.415Z</time></trkpt><trkpt lat="35.0883505" lon="9.3000225"><ele>397.0</ele><time>2026-05-01T09:49:40.438Z</time></trkpt><trkpt lat="35.088525" lon="9.3001161"><ele>397.0</ele><time>2026-05-01T09:49:41.468Z</time></trkpt><trkpt lat="35.0886998" lon="9.300209"><ele>397.0</ele><time>2026-05-01T09:49:42.458Z</time></trkpt><trkpt lat="35.0888745" lon="9.3003007"><ele>397.0</ele><time>2026-05-01T09:49:43.453Z</time></trkpt><trkpt lat="35.0890518" lon="9.300392"><ele>397.0</ele><time>2026-05-01T09:49:44.471Z</time></trkpt><trkpt lat="35.0892263" lon="9.3004724"><ele>397.0</ele><time>2026-05-01T09:49:45.46Z</time></trkpt><trkpt lat="35.0894073" lon="9.3005454"><ele>397.0</ele><time>2026-05-01T09:49:46.46Z</time></trkpt><trkpt lat="35.0895877" lon="9.300609"><ele>397.0</ele><time>2026-05-01T09:49:47.417Z</time></trkpt><trkpt lat="35.0897715" lon="9.3006628"><ele>397.0</ele><time>2026-05-01T09:49:48.449Z</time></trkpt><trkpt lat="35.0899595" lon="9.3007087"><ele>397.0</ele><time>2026-05-01T09:49:49.454Z</time></trkpt><trkpt lat="35.0901456" lon="9.3007547"><ele>397.6666666666667</ele><time>2026-05-01T09:49:50.466Z</time></trkpt><trkpt lat="35.0903329" lon="9.3008026"><ele>398.33333333333337</ele><time>2026-05-01T09:49:51.455Z</time></trkpt><trkpt lat="35.0905239" lon="9.3008512"><ele>399.0</ele><time>2026-05-01T09:49:52.446Z</time></trkpt><trkpt lat="35.0907052" lon="9.3009012"><ele>400.0</ele><time>2026-05-01T09:49:53.469Z</time></trkpt><trkpt lat="35.0908836" lon="9.3009621"><ele>401.0</ele><time>2026-05-01T09:49:54.461Z</time></trkpt><trkpt lat="35.0910548" lon="9.3010351"><ele>402.0</ele><time>2026-05-01T09:49:55.468Z</time></trkpt><trkpt lat="35.0912272" lon="9.3011254"><ele>402.0</ele><time>2026-05-01T09:49:56.459Z</time></trkpt><trkpt lat="35.091399" lon="9.3012259"><ele>402.0</ele><time>2026-05-01T09:49:57.428Z</time></trkpt><trkpt lat="35.091566" lon="9.3013446"><ele>402.0</ele><time>2026-05-01T09:49:58.446Z</time></trkpt><trkpt lat="35.0917238" lon="9.3014814"><ele>401.66666666666663</ele><time>2026-05-01T09:49:59.451Z</time></trkpt><trkpt lat="35.0918686" lon="9.3016379"><ele>401.3333333333333</ele><time>2026-05-01T09:50:00.457Z</time></trkpt><trkpt lat="35.0920058" lon="9.3018024"><ele>401.0</ele><time>2026-05-01T09:50:01.447Z</time></trkpt><trkpt lat="35.092139" lon="9.3019834"><ele>401.0</ele><time>2026-05-01T09:50:02.464Z</time></trkpt><trkpt lat="35.0922549" lon="9.3021721"><ele>401.0</ele><time>2026-05-01T09:50:03.463Z</time></trkpt><trkpt lat="35.092359" lon="9.3023615"><ele>401.0</ele><time>2026-05-01T09:50:04.456Z</time></trkpt><trkpt lat="35.0924627" lon="9.3025567"><ele>400.3333333333333</ele><time>2026-05-01T09:50:05.446Z</time></trkpt><trkpt lat="35.0925704" lon="9.3027526"><ele>399.66666666666663</ele><time>2026-05-01T09:50:06.468Z</time></trkpt><trkpt lat="35.0926708" lon="9.3029463"><ele>399.0</ele><time>2026-05-01T09:50:07.457Z</time></trkpt><trkpt lat="35.0927822" lon="9.3031393"><ele>399.0</ele><time>2026-05-01T09:50:08.468Z</time></trkpt><trkpt lat="35.0928868" lon="9.3033324"><ele>399.0</ele><time>2026-05-01T09:50:09.449Z</time></trkpt><trkpt lat="35.0929963" lon="9.3035286"><ele>399.0</ele><time>2026-05-01T09:50:10.455Z</time></trkpt><trkpt lat="35.093103" lon="9.3037231"><ele>398.66666666666663</ele><time>2026-05-01T09:50:11.442Z</time></trkpt><trkpt lat="35.0932087" lon="9.3039222"><ele>398.3333333333333</ele><time>2026-05-01T09:50:12.442Z</time></trkpt><trkpt lat="35.0933115" lon="9.3041167"><ele>398.0</ele><time>2026-05-01T09:50:13.46Z</time></trkpt><trkpt lat="35.0934145" lon="9.3043076"><ele>398.0</ele><time>2026-05-01T09:50:14.449Z</time></trkpt><trkpt lat="35.0935193" lon="9.3044981"><ele>398.0</ele><time>2026-05-01T09:50:15.459Z</time></trkpt><trkpt lat="35.0936212" lon="9.3046872"><ele>398.0</ele><time>2026-05-01T09:50:16.416Z</time></trkpt><trkpt lat="35.0937249" lon="9.3048775"><ele>397.66666666666663</ele><time>2026-05-01T09:50:17.452Z</time></trkpt><trkpt lat="35.0938279" lon="9.3050683"><ele>397.33333333333337</ele><time>2026-05-01T09:50:18.448Z</time></trkpt><trkpt lat="35.0939334" lon="9.3052636"><ele>397.0</ele><time>2026-05-01T09:50:19.409Z</time></trkpt><trkpt lat="35.0940396" lon="9.3054635"><ele>397.6666666666667</ele><time>2026-05-01T09:50:20.403Z</time></trkpt><trkpt lat="35.0941451" lon="9.3056621"><ele>398.33333333333337</ele><time>2026-05-01T09:50:21.447Z</time></trkpt><trkpt lat="35.0942474" lon="9.305855"><ele>399.0</ele><time>2026-05-01T09:50:22.457Z</time></trkpt><trkpt lat="35.0943511" lon="9.3060494"><ele>399.0</ele><time>2026-05-01T09:50:23.422Z</time></trkpt><trkpt lat="35.0944578" lon="9.3062464"><ele>399.0</ele><time>2026-05-01T09:50:24.46Z</time></trkpt><trkpt lat="35.0945694" lon="9.3064446"><ele>399.0</ele><time>2026-05-01T09:50:25.432Z</time></trkpt><trkpt lat="35.0946875" lon="9.3066606"><ele>398.66666666666663</ele><time>2026-05-01T09:50:26.462Z</time></trkpt><trkpt lat="35.0948101" lon="9.3068778"><ele>398.3333333333333</ele><time>2026-05-01T09:50:27.439Z</time></trkpt><trkpt lat="35.0949303" lon="9.3071018"><ele>398.0</ele><time>2026-05-01T09:50:28.464Z</time></trkpt><trkpt lat="35.0950464" lon="9.3073261"><ele>397.3333333333333</ele><time>2026-05-01T09:50:29.451Z</time></trkpt><trkpt lat="35.0951604" lon="9.3075476"><ele>396.66666666666663</ele><time>2026-05-01T09:50:30.455Z</time></trkpt><trkpt lat="35.0952685" lon="9.3077649"><ele>396.0</ele><time>2026-05-01T09:50:31.45Z</time></trkpt><trkpt lat="35.095367" lon="9.3079784"><ele>395.66666666666663</ele><time>2026-05-01T09:50:32.454Z</time></trkpt><trkpt lat="35.0954719" lon="9.3081939"><ele>395.3333333333333</ele><time>2026-05-01T09:50:33.452Z</time></trkpt><trkpt lat="35.0955776" lon="9.3084113"><ele>395.0</ele><time>2026-05-01T09:50:34.453Z</time></trkpt><trkpt lat="35.0956827" lon="9.3086301"><ele>395.66666666666663</ele><time>2026-05-01T09:50:35.459Z</time></trkpt><trkpt lat="35.0957816" lon="9.3088459"><ele>396.33333333333337</ele><time>2026-05-01T09:50:36.449Z</time></trkpt><trkpt lat="35.0958811" lon="9.309058"><ele>397.0</ele><time>2026-05-01T09:50:37.458Z</time></trkpt><trkpt lat="35.0959811" lon="9.3092614"><ele>397.0</ele><time>2026-05-01T09:50:38.429Z</time></trkpt><trkpt lat="35.096076" lon="9.3094561"><ele>397.0</ele><time>2026-05-01T09:50:39.446Z</time></trkpt><trkpt lat="35.0961699" lon="9.3096503"><ele>397.0</ele><time>2026-05-01T09:50:40.435Z</time></trkpt><trkpt lat="35.0962663" lon="9.3098506"><ele>396.6666666666667</ele><time>2026-05-01T09:50:41.446Z</time></trkpt><trkpt lat="35.0963648" lon="9.3100519"><ele>396.33333333333337</ele><time>2026-05-01T09:50:42.461Z</time></trkpt><trkpt lat="35.0964615" lon="9.3102494"><ele>396.0</ele><time>2026-05-01T09:50:43.465Z</time></trkpt><trkpt lat="35.0965523" lon="9.310447"><ele>396.33333333333337</ele><time>2026-05-01T09:50:44.445Z</time></trkpt><trkpt lat="35.0966486" lon="9.3106509"><ele>396.6666666666667</ele><time>2026-05-01T09:50:45.424Z</time></trkpt><trkpt lat="35.0967427" lon="9.3108516"><ele>397.0</ele><time>2026-05-01T09:50:46.458Z</time></trkpt><trkpt lat="35.0968348" lon="9.3110503"><ele>397.0</ele><time>2026-05-01T09:50:47.393Z</time></trkpt><trkpt lat="35.0969256" lon="9.3112534"><ele>397.0</ele><time>2026-05-01T09:50:48.402Z</time></trkpt><trkpt lat="35.0970222" lon="9.3114585"><ele>397.0</ele><time>2026-05-01T09:50:49.393Z</time></trkpt><trkpt lat="35.09712" lon="9.3116516"><ele>397.0</ele><time>2026-05-01T09:50:50.42Z</time></trkpt><trkpt lat="35.0972272" lon="9.3118395"><ele>397.0</ele><time>2026-05-01T09:50:51.445Z</time></trkpt><trkpt lat="35.0973432" lon="9.3120236"><ele>397.0</ele><time>2026-05-01T09:50:52.441Z</time></trkpt><trkpt lat="35.0974669" lon="9.3122068"><ele>397.0</ele><time>2026-05-01T09:50:53.427Z</time></trkpt><trkpt lat="35.097596" lon="9.3123725"><ele>397.0</ele><time>2026-05-01T09:50:54.437Z</time></trkpt><trkpt lat="35.0977308" lon="9.3125374"><ele>397.0</ele><time>2026-05-01T09:50:55.43Z</time></trkpt><trkpt lat="35.0978697" lon="9.3126958"><ele>397.0</ele><time>2026-05-01T09:50:56.46Z</time></trkpt><trkpt lat="35.098011" lon="9.3128461"><ele>397.0</ele><time>2026-05-01T09:50:57.456Z</time></trkpt><trkpt lat="35.0981611" lon="9.3129863"><ele>397.0</ele><time>2026-05-01T09:50:58.465Z</time></trkpt><trkpt lat="35.098311" lon="9.313123"><ele>396.33333333333337</ele><time>2026-05-01T09:50:59.412Z</time></trkpt><trkpt lat="35.0984596" lon="9.3132609"><ele>395.66666666666663</ele><time>2026-05-01T09:51:00.435Z</time></trkpt><trkpt lat="35.0986098" lon="9.3133976"><ele>395.0</ele><time>2026-05-01T09:51:01.465Z</time></trkpt><trkpt lat="35.0987598" lon="9.3135369"><ele>395.0</ele><time>2026-05-01T09:51:02.47Z</time></trkpt><trkpt lat="35.0989094" lon="9.3136766"><ele>395.0</ele><time>2026-05-01T09:51:03.459Z</time></trkpt><trkpt lat="35.099062" lon="9.3138154"><ele>395.0</ele><time>2026-05-01T09:51:04.424Z</time></trkpt><trkpt lat="35.099216" lon="9.3139488"><ele>395.0</ele><time>2026-05-01T09:51:05.459Z</time></trkpt><trkpt lat="35.0993679" lon="9.3140874"><ele>395.0</ele><time>2026-05-01T09:51:06.445Z</time></trkpt><trkpt lat="35.0995179" lon="9.3142333"><ele>395.0</ele><time>2026-05-01T09:51:07.434Z</time></trkpt><trkpt lat="35.0996602" lon="9.3143858"><ele>395.0</ele><time>2026-05-01T09:51:08.472Z</time></trkpt><trkpt lat="35.0997961" lon="9.3145515"><ele>395.0</ele><time>2026-05-01T09:51:09.471Z</time></trkpt><trkpt lat="35.0999262" lon="9.3147152"><ele>395.0</ele><time>2026-05-01T09:51:10.458Z</time></trkpt><trkpt lat="35.1000439" lon="9.3148938"><ele>394.66666666666663</ele><time>2026-05-01T09:51:11.454Z</time></trkpt><trkpt lat="35.1001633" lon="9.3150726"><ele>394.33333333333337</ele><time>2026-05-01T09:51:12.467Z</time></trkpt><trkpt lat="35.1002757" lon="9.315258"><ele>394.0</ele><time>2026-05-01T09:51:13.464Z</time></trkpt><trkpt lat="35.1003813" lon="9.3154547"><ele>393.5</ele><time>2026-05-01T09:51:14.464Z</time></trkpt><trkpt lat="35.1005734" lon="9.3158708"><ele>393.0</ele><time>2026-05-01T09:51:16.448Z</time></trkpt><trkpt lat="35.1006489" lon="9.316086"><ele>393.0</ele><time>2026-05-01T09:51:17.418Z</time></trkpt><trkpt lat="35.1007188" lon="9.3163035"><ele>393.0</ele><time>2026-05-01T09:51:18.446Z</time></trkpt><trkpt lat="35.1007865" lon="9.3165242"><ele>393.0</ele><time>2026-05-01T09:51:19.452Z</time></trkpt><trkpt lat="35.1008508" lon="9.3167476"><ele>393.33333333333337</ele><time>2026-05-01T09:51:20.451Z</time></trkpt><trkpt lat="35.1009193" lon="9.3169636"><ele>393.6666666666667</ele><time>2026-05-01T09:51:21.44Z</time></trkpt><trkpt lat="35.1009926" lon="9.31718"><ele>394.0</ele><time>2026-05-01T09:51:22.462Z</time></trkpt><trkpt lat="35.1010605" lon="9.3173979"><ele>393.33333333333337</ele><time>2026-05-01T09:51:23.406Z</time></trkpt><trkpt lat="35.1011317" lon="9.3176128"><ele>392.66666666666663</ele><time>2026-05-01T09:51:24.447Z</time></trkpt><trkpt lat="35.1012001" lon="9.3178256"><ele>392.0</ele><time>2026-05-01T09:51:25.47Z</time></trkpt><trkpt lat="35.1012658" lon="9.3180423"><ele>392.3333333333333</ele><time>2026-05-01T09:51:26.455Z</time></trkpt><trkpt lat="35.1013364" lon="9.3182606"><ele>392.66666666666663</ele><time>2026-05-01T09:51:27.454Z</time></trkpt><trkpt lat="35.1014071" lon="9.3184762"><ele>393.0</ele><time>2026-05-01T09:51:28.452Z</time></trkpt><trkpt lat="35.1014825" lon="9.3186882"><ele>393.0</ele><time>2026-05-01T09:51:29.455Z</time></trkpt><trkpt lat="35.1015622" lon="9.318894"><ele>393.0</ele><time>2026-05-01T09:51:30.403Z</time></trkpt><trkpt lat="35.1016508" lon="9.3190974"><ele>393.0</ele><time>2026-05-01T09:51:31.45Z</time></trkpt><trkpt lat="35.1017478" lon="9.3192952"><ele>392.66666666666663</ele><time>2026-05-01T09:51:32.442Z</time></trkpt><trkpt lat="35.1018561" lon="9.3194837"><ele>392.3333333333333</ele><time>2026-05-01T09:51:33.455Z</time></trkpt><trkpt lat="35.1019677" lon="9.319663"><ele>392.0</ele><time>2026-05-01T09:51:34.46Z</time></trkpt><trkpt lat="35.1020909" lon="9.3198386"><ele>391.3333333333333</ele><time>2026-05-01T09:51:35.457Z</time></trkpt><trkpt lat="35.1022125" lon="9.3200129"><ele>390.66666666666663</ele><time>2026-05-01T09:51:36.427Z</time></trkpt><trkpt lat="35.102337" lon="9.3201812"><ele>390.0</ele><time>2026-05-01T09:51:37.417Z</time></trkpt><trkpt lat="35.1024655" lon="9.3203602"><ele>390.0</ele><time>2026-05-01T09:51:38.435Z</time></trkpt><trkpt lat="35.1025957" lon="9.3205318"><ele>390.0</ele><time>2026-05-01T09:51:39.457Z</time></trkpt><trkpt lat="35.1027217" lon="9.3207026"><ele>390.0</ele><time>2026-05-01T09:51:40.468Z</time></trkpt><trkpt lat="35.1028483" lon="9.3208746"><ele>389.33333333333337</ele><time>2026-05-01T09:51:41.458Z</time></trkpt><trkpt lat="35.1029724" lon="9.3210411"><ele>388.6666666666667</ele><time>2026-05-01T09:51:42.453Z</time></trkpt><trkpt lat="35.1031015" lon="9.321214"><ele>388.0</ele><time>2026-05-01T09:51:43.45Z</time></trkpt><trkpt lat="35.1032278" lon="9.3213857"><ele>388.0</ele><time>2026-05-01T09:51:44.463Z</time></trkpt><trkpt lat="35.1033537" lon="9.3215627"><ele>388.0</ele><time>2026-05-01T09:51:45.426Z</time></trkpt><trkpt lat="35.1034822" lon="9.3217406"><ele>388.0</ele><time>2026-05-01T09:51:46.428Z</time></trkpt><trkpt lat="35.1036103" lon="9.321915"><ele>388.0</ele><time>2026-05-01T09:51:47.447Z</time></trkpt><trkpt lat="35.1037359" lon="9.3220885"><ele>388.0</ele><time>2026-05-01T09:51:48.45Z</time></trkpt><trkpt lat="35.1038588" lon="9.322261"><ele>388.0</ele><time>2026-05-01T09:51:49.47Z</time></trkpt><trkpt lat="35.1039828" lon="9.3224386"><ele>388.6666666666667</ele><time>2026-05-01T09:51:50.438Z</time></trkpt><trkpt lat="35.1041086" lon="9.3226162"><ele>389.33333333333337</ele><time>2026-05-01T09:51:51.452Z</time></trkpt><trkpt lat="35.1042339" lon="9.3227916"><ele>390.0</ele><time>2026-05-01T09:51:52.432Z</time></trkpt><trkpt lat="35.1043517" lon="9.3229588"><ele>389.33333333333337</ele><time>2026-05-01T09:51:53.462Z</time></trkpt><trkpt lat="35.1044638" lon="9.3231121"><ele>388.6666666666667</ele><time>2026-05-01T09:51:54.462Z</time></trkpt><trkpt lat="35.1045664" lon="9.3232468"><ele>388.0</ele><time>2026-05-01T09:51:55.452Z</time></trkpt><trkpt lat="35.1046527" lon="9.3233677"><ele>388.0</ele><time>2026-05-01T09:51:56.468Z</time></trkpt><trkpt lat="35.1047378" lon="9.3234883"><ele>388.0</ele><time>2026-05-01T09:51:57.46Z</time></trkpt><trkpt lat="35.1048283" lon="9.3236117"><ele>388.0</ele><time>2026-05-01T09:51:58.453Z</time></trkpt><trkpt lat="35.1049171" lon="9.3237281"><ele>388.0</ele><time>2026-05-01T09:51:59.451Z</time></trkpt><trkpt lat="35.1050003" lon="9.3238428"><ele>388.25</ele><time>2026-05-01T09:52:00.423Z</time></trkpt><trkpt lat="35.1050797" lon="9.3239587"><ele>388.5</ele><time>2026-05-01T09:52:01.453Z</time></trkpt><trkpt lat="35.1051612" lon="9.3240721"><ele>388.75</ele><time>2026-05-01T09:52:02.45Z</time></trkpt><trkpt lat="35.1052461" lon="9.3241896"><ele>389.0</ele><time>2026-05-01T09:52:03.451Z</time></trkpt><trkpt lat="35.1053316" lon="9.3243066"><ele>389.0</ele><time>2026-05-01T09:52:04.463Z</time></trkpt><trkpt lat="35.1054138" lon="9.3244195"><ele>389.0</ele><time>2026-05-01T09:52:05.465Z</time></trkpt><trkpt lat="35.1054965" lon="9.3245275"><ele>389.0</ele><time>2026-05-01T09:52:06.46Z</time></trkpt><trkpt lat="35.1055766" lon="9.3246291"><ele>389.0</ele><time>2026-05-01T09:52:07.446Z</time></trkpt><trkpt lat="35.1056432" lon="9.3247198"><ele>389.0</ele><time>2026-05-01T09:52:08.451Z</time></trkpt><trkpt lat="35.1057062" lon="9.3247948"><ele>389.0</ele><time>2026-05-01T09:52:09.472Z</time></trkpt><trkpt lat="35.1057677" lon="9.3248805"><ele>389.0</ele><time>2026-05-01T09:52:10.424Z</time></trkpt><trkpt lat="35.1058355" lon="9.3249656"><ele>389.0</ele><time>2026-05-01T09:52:11.455Z</time></trkpt><trkpt lat="35.1059033" lon="9.3250525"><ele>389.0</ele><time>2026-05-01T09:52:12.456Z</time></trkpt><trkpt lat="35.1059784" lon="9.3251611"><ele>389.0</ele><time>2026-05-01T09:52:13.454Z</time></trkpt><trkpt lat="35.1060556" lon="9.3252735"><ele>389.0</ele><time>2026-05-01T09:52:14.454Z</time></trkpt><trkpt lat="35.1061364" lon="9.3253856"><ele>389.0</ele><time>2026-05-01T09:52:15.446Z</time></trkpt><trkpt lat="35.1062244" lon="9.3254998"><ele>389.0</ele><time>2026-05-01T09:52:16.454Z</time></trkpt><trkpt lat="35.1063126" lon="9.3256171"><ele>389.0</ele><time>2026-05-01T09:52:17.461Z</time></trkpt><trkpt lat="35.106403" lon="9.3257308"><ele>389.0</ele><time>2026-05-01T09:52:18.45Z</time></trkpt><trkpt lat="35.1064799" lon="9.3258355"><ele>389.0</ele><time>2026-05-01T09:52:19.457Z</time></trkpt><trkpt lat="35.1065555" lon="9.3259314"><ele>389.0</ele><time>2026-05-01T09:52:20.447Z</time></trkpt><trkpt lat="35.1066248" lon="9.3260157"><ele>389.0</ele><time>2026-05-01T09:52:21.431Z</time></trkpt><trkpt lat="35.1066912" lon="9.3260941"><ele>389.0</ele><time>2026-05-01T09:52:22.453Z</time></trkpt><trkpt lat="35.1067455" lon="9.3261729"><ele>389.0</ele><time>2026-05-01T09:52:23.453Z</time></trkpt><trkpt lat="35.1068034" lon="9.3262539"><ele>389.0</ele><time>2026-05-01T09:52:24.461Z</time></trkpt><trkpt lat="35.1068737" lon="9.3263451"><ele>389.0</ele><time>2026-05-01T09:52:25.463Z</time></trkpt><trkpt lat="35.1069507" lon="9.3264431"><ele>389.0</ele><time>2026-05-01T09:52:26.448Z</time></trkpt><trkpt lat="35.1070383" lon="9.3265552"><ele>389.0</ele><time>2026-05-01T09:52:27.462Z</time></trkpt><trkpt lat="35.1071344" lon="9.3266804"><ele>389.0</ele><time>2026-05-01T09:52:28.446Z</time></trkpt><trkpt lat="35.1072409" lon="9.326816"><ele>389.0</ele><time>2026-05-01T09:52:29.466Z</time></trkpt><trkpt lat="35.1073742" lon="9.3269723"><ele>388.5</ele><time>2026-05-01T09:52:30.458Z</time></trkpt><trkpt lat="35.107537" lon="9.327151"><ele>388.0</ele><time>2026-05-01T09:52:31.455Z</time></trkpt><trkpt lat="35.1077183" lon="9.327346"><ele>388.0</ele><time>2026-05-01T09:52:32.461Z</time></trkpt><trkpt lat="35.1079102" lon="9.3275429"><ele>388.0</ele><time>2026-05-01T09:52:33.434Z</time></trkpt><trkpt lat="35.1080973" lon="9.3277404"><ele>388.0</ele><time>2026-05-01T09:52:34.444Z</time></trkpt><trkpt lat="35.1082786" lon="9.3279306"><ele>388.0</ele><time>2026-05-01T09:52:35.457Z</time></trkpt><trkpt lat="35.1084517" lon="9.3281144"><ele>388.0</ele><time>2026-05-01T09:52:36.458Z</time></trkpt><trkpt lat="35.10863" lon="9.3282991"><ele>388.0</ele><time>2026-05-01T09:52:37.456Z</time></trkpt><trkpt lat="35.108814" lon="9.328475"><ele>388.0</ele><time>2026-05-01T09:52:38.45Z</time></trkpt><trkpt lat="35.1090069" lon="9.3286441"><ele>388.0</ele><time>2026-05-01T09:52:39.454Z</time></trkpt><trkpt lat="35.1091967" lon="9.3288106"><ele>387.5</ele><time>2026-05-01T09:52:40.432Z</time></trkpt><trkpt lat="35.1093876" lon="9.32899"><ele>387.0</ele><time>2026-05-01T09:52:41.436Z</time></trkpt><trkpt lat="35.1095757" lon="9.3291668"><ele>387.0</ele><time>2026-05-01T09:52:42.435Z</time></trkpt><trkpt lat="35.1097642" lon="9.3293403"><ele>387.0</ele><time>2026-05-01T09:52:43.458Z</time></trkpt><trkpt lat="35.1099498" lon="9.329508"><ele>387.0</ele><time>2026-05-01T09:52:44.448Z</time></trkpt><trkpt lat="35.1101375" lon="9.3296803"><ele>387.0</ele><time>2026-05-01T09:52:45.456Z</time></trkpt><trkpt lat="35.1103174" lon="9.3298455"><ele>387.0</ele><time>2026-05-01T09:52:46.452Z</time></trkpt><trkpt lat="35.110493" lon="9.3300038"><ele>387.0</ele><time>2026-05-01T09:52:47.43Z</time></trkpt><trkpt lat="35.110663" lon="9.3301641"><ele>387.0</ele><time>2026-05-01T09:52:48.448Z</time></trkpt><trkpt lat="35.1108278" lon="9.3303254"><ele>387.33333333333337</ele><time>2026-05-01T09:52:49.455Z</time></trkpt><trkpt lat="35.1109961" lon="9.3304847"><ele>387.6666666666667</ele><time>2026-05-01T09:52:50.465Z</time></trkpt><trkpt lat="35.1111627" lon="9.3306382"><ele>388.0</ele><time>2026-05-01T09:52:51.461Z</time></trkpt><trkpt lat="35.1113313" lon="9.3307937"><ele>387.6666666666667</ele><time>2026-05-01T09:52:52.442Z</time></trkpt><trkpt lat="35.1115007" lon="9.3309557"><ele>387.33333333333337</ele><time>2026-05-01T09:52:53.436Z</time></trkpt><trkpt lat="35.1116665" lon="9.331115"><ele>387.0</ele><time>2026-05-01T09:52:54.41Z</time></trkpt><trkpt lat="35.1118343" lon="9.3312824"><ele>386.66666666666663</ele><time>2026-05-01T09:52:55.436Z</time></trkpt><trkpt lat="35.1119926" lon="9.3314575"><ele>386.3333333333333</ele><time>2026-05-01T09:52:56.434Z</time></trkpt><trkpt lat="35.112142" lon="9.3316304"><ele>386.0</ele><time>2026-05-01T09:52:57.439Z</time></trkpt><trkpt lat="35.1122893" lon="9.3318155"><ele>386.0</ele><time>2026-05-01T09:52:58.462Z</time></trkpt><trkpt lat="35.1124293" lon="9.3320066"><ele>386.0</ele><time>2026-05-01T09:52:59.45Z</time></trkpt><trkpt lat="35.112573" lon="9.3321957"><ele>386.0</ele><time>2026-05-01T09:53:00.424Z</time></trkpt><trkpt lat="35.1127124" lon="9.3323922"><ele>385.66666666666663</ele><time>2026-05-01T09:53:01.46Z</time></trkpt><trkpt lat="35.1128507" lon="9.332583"><ele>385.33333333333337</ele><time>2026-05-01T09:53:02.426Z</time></trkpt><trkpt lat="35.1129936" lon="9.3327768"><ele>385.0</ele><time>2026-05-01T09:53:03.421Z</time></trkpt><trkpt lat="35.1131332" lon="9.332971"><ele>384.6666666666667</ele><time>2026-05-01T09:53:04.459Z</time></trkpt><trkpt lat="35.1132754" lon="9.3331622"><ele>384.33333333333337</ele><time>2026-05-01T09:53:05.454Z</time></trkpt><trkpt lat="35.1134167" lon="9.3333516"><ele>384.0</ele><time>2026-05-01T09:53:06.444Z</time></trkpt><trkpt lat="35.1135574" lon="9.3335415"><ele>384.0</ele><time>2026-05-01T09:53:07.445Z</time></trkpt><trkpt lat="35.1136991" lon="9.3337321"><ele>384.0</ele><time>2026-05-01T09:53:08.458Z</time></trkpt><trkpt lat="35.1138417" lon="9.3339274"><ele>384.0</ele><time>2026-05-01T09:53:09.448Z</time></trkpt><trkpt lat="35.1139847" lon="9.3341227"><ele>384.0</ele><time>2026-05-01T09:53:10.454Z</time></trkpt><trkpt lat="35.1141259" lon="9.3343144"><ele>384.0</ele><time>2026-05-01T09:53:11.418Z</time></trkpt><trkpt lat="35.1142671" lon="9.3345059"><ele>384.0</ele><time>2026-05-01T09:53:12.436Z</time></trkpt><trkpt lat="35.1144061" lon="9.3346918"><ele>383.3333333333333</ele><time>2026-05-01T09:53:13.446Z</time></trkpt><trkpt lat="35.1145492" lon="9.3348775"><ele>382.66666666666663</ele><time>2026-05-01T09:53:14.455Z</time></trkpt><trkpt lat="35.1146856" lon="9.3350586"><ele>382.0</ele><time>2026-05-01T09:53:15.435Z</time></trkpt><trkpt lat="35.1148154" lon="9.3352252"><ele>382.0</ele><time>2026-05-01T09:53:16.436Z</time></trkpt><trkpt lat="35.1149448" lon="9.335395"><ele>382.0</ele><time>2026-05-01T09:53:17.455Z</time></trkpt><trkpt lat="35.1150749" lon="9.3355651"><ele>382.0</ele><time>2026-05-01T09:53:18.421Z</time></trkpt><trkpt lat="35.1152112" lon="9.3357322"><ele>382.0</ele><time>2026-05-01T09:53:19.447Z</time></trkpt><trkpt lat="35.1153442" lon="9.335903"><ele>382.0</ele><time>2026-05-01T09:53:20.45Z</time></trkpt><trkpt lat="35.1154769" lon="9.33607"><ele>382.0</ele><time>2026-05-01T09:53:21.455Z</time></trkpt><trkpt lat="35.1156108" lon="9.3362437"><ele>382.0</ele><time>2026-05-01T09:53:22.453Z</time></trkpt><trkpt lat="35.115743" lon="9.3364126"><ele>382.0</ele><time>2026-05-01T09:53:23.449Z</time></trkpt><trkpt lat="35.1158798" lon="9.336581"><ele>382.0</ele><time>2026-05-01T09:53:24.455Z</time></trkpt><trkpt lat="35.1160169" lon="9.3367476"><ele>382.0</ele><time>2026-05-01T09:53:25.452Z</time></trkpt><trkpt lat="35.1161499" lon="9.3369148"><ele>382.0</ele><time>2026-05-01T09:53:26.433Z</time></trkpt><trkpt lat="35.116279" lon="9.337079"><ele>382.0</ele><time>2026-05-01T09:53:27.448Z</time></trkpt><trkpt lat="35.1164098" lon="9.3372434"><ele>382.0</ele><time>2026-05-01T09:53:28.466Z</time></trkpt><trkpt lat="35.1165435" lon="9.3374075"><ele>382.0</ele><time>2026-05-01T09:53:29.446Z</time></trkpt><trkpt lat="35.1166736" lon="9.337569"><ele>382.0</ele><time>2026-05-01T09:53:30.467Z</time></trkpt><trkpt lat="35.1168017" lon="9.3377326"><ele>382.0</ele><time>2026-05-01T09:53:31.436Z</time></trkpt><trkpt lat="35.1169316" lon="9.3378905"><ele>382.0</ele><time>2026-05-01T09:53:32.468Z</time></trkpt><trkpt lat="35.1170599" lon="9.3380533"><ele>382.0</ele><time>2026-05-01T09:53:33.451Z</time></trkpt><trkpt lat="35.1171872" lon="9.338216"><ele>381.3333333333333</ele><time>2026-05-01T09:53:34.416Z</time></trkpt><trkpt lat="35.1173182" lon="9.3383776"><ele>380.6666666666667</ele><time>2026-05-01T09:53:35.452Z</time></trkpt><trkpt lat="35.1174466" lon="9.3385408"><ele>380.0</ele><time>2026-05-01T09:53:36.427Z</time></trkpt><trkpt lat="35.117577" lon="9.338703"><ele>380.0</ele><time>2026-05-01T09:53:37.447Z</time></trkpt><trkpt lat="35.1177062" lon="9.3388599"><ele>380.0</ele><time>2026-05-01T09:53:38.431Z</time></trkpt><trkpt lat="35.1178397" lon="9.3390282"><ele>380.0</ele><time>2026-05-01T09:53:39.456Z</time></trkpt><trkpt lat="35.117973" lon="9.3392064"><ele>380.0</ele><time>2026-05-01T09:53:40.456Z</time></trkpt><trkpt lat="35.1181028" lon="9.3393862"><ele>380.0</ele><time>2026-05-01T09:53:41.454Z</time></trkpt><trkpt lat="35.1182269" lon="9.3395689"><ele>380.0</ele><time>2026-05-01T09:53:42.455Z</time></trkpt><trkpt lat="35.1183518" lon="9.3397556"><ele>380.0</ele><time>2026-05-01T09:53:43.453Z</time></trkpt><trkpt lat="35.1184756" lon="9.3399417"><ele>380.0</ele><time>2026-05-01T09:53:44.462Z</time></trkpt><trkpt lat="35.1186" lon="9.3401293"><ele>380.0</ele><time>2026-05-01T09:53:45.457Z</time></trkpt><trkpt lat="35.118726" lon="9.3403145"><ele>380.0</ele><time>2026-05-01T09:53:46.456Z</time></trkpt><trkpt lat="35.1188492" lon="9.3405029"><ele>380.0</ele><time>2026-05-01T09:53:47.457Z</time></trkpt><trkpt lat="35.1189745" lon="9.3406881"><ele>380.0</ele><time>2026-05-01T09:53:48.454Z</time></trkpt><trkpt lat="35.1190983" lon="9.3408743"><ele>379.33333333333337</ele><time>2026-05-01T09:53:49.434Z</time></trkpt><trkpt lat="35.119221" lon="9.3410617"><ele>378.6666666666667</ele><time>2026-05-01T09:53:50.418Z</time></trkpt><trkpt lat="35.1193471" lon="9.3412454"><ele>378.0</ele><time>2026-05-01T09:53:51.433Z</time></trkpt><trkpt lat="35.1194741" lon="9.3414321"><ele>378.0</ele><time>2026-05-01T09:53:52.417Z</time></trkpt><trkpt lat="35.1196018" lon="9.3416194"><ele>378.0</ele><time>2026-05-01T09:53:53.435Z</time></trkpt><trkpt lat="35.1197243" lon="9.3418062"><ele>378.0</ele><time>2026-05-01T09:53:54.446Z</time></trkpt><trkpt lat="35.1198444" lon="9.341994"><ele>377.6666666666667</ele><time>2026-05-01T09:53:55.417Z</time></trkpt><trkpt lat="35.119968" lon="9.3421813"><ele>377.33333333333337</ele><time>2026-05-01T09:53:56.407Z</time></trkpt><trkpt lat="35.1200951" lon="9.3423571"><ele>377.0</ele><time>2026-05-01T09:53:57.439Z</time></trkpt><trkpt lat="35.1202183" lon="9.3425334"><ele>376.33333333333337</ele><time>2026-05-01T09:53:58.462Z</time></trkpt><trkpt lat="35.1203395" lon="9.3427152"><ele>375.6666666666667</ele><time>2026-05-01T09:53:59.431Z</time></trkpt><trkpt lat="35.1204646" lon="9.3428943"><ele>375.0</ele><time>2026-05-01T09:54:00.438Z</time></trkpt><trkpt lat="35.120585" lon="9.3430752"><ele>375.0</ele><time>2026-05-01T09:54:01.431Z</time></trkpt><trkpt lat="35.1207055" lon="9.3432558"><ele>375.0</ele><time>2026-05-01T09:54:02.448Z</time></trkpt><trkpt lat="35.1208287" lon="9.3434463"><ele>375.0</ele><time>2026-05-01T09:54:03.44Z</time></trkpt><trkpt lat="35.1209525" lon="9.3436349"><ele>374.3333333333333</ele><time>2026-05-01T09:54:04.454Z</time></trkpt><trkpt lat="35.1210815" lon="9.3438271"><ele>373.66666666666663</ele><time>2026-05-01T09:54:05.465Z</time></trkpt><trkpt lat="35.1212115" lon="9.3440203"><ele>373.0</ele><time>2026-05-01T09:54:06.462Z</time></trkpt><trkpt lat="35.1213473" lon="9.3442074"><ele>372.3333333333333</ele><time>2026-05-01T09:54:07.462Z</time></trkpt><trkpt lat="35.1214915" lon="9.3443913"><ele>371.6666666666667</ele><time>2026-05-01T09:54:08.447Z</time></trkpt><trkpt lat="35.1216438" lon="9.3445613"><ele>371.0</ele><time>2026-05-01T09:54:09.455Z</time></trkpt><trkpt lat="35.1217982" lon="9.3447212"><ele>370.33333333333337</ele><time>2026-05-01T09:54:10.46Z</time></trkpt><trkpt lat="35.1219503" lon="9.3448791"><ele>369.6666666666667</ele><time>2026-05-01T09:54:11.457Z</time></trkpt><trkpt lat="35.1221026" lon="9.34504"><ele>369.0</ele><time>2026-05-01T09:54:12.458Z</time></trkpt><trkpt lat="35.1222499" lon="9.3451984"><ele>369.0</ele><time>2026-05-01T09:54:13.461Z</time></trkpt><trkpt lat="35.1223957" lon="9.3453521"><ele>369.0</ele><time>2026-05-01T09:54:14.452Z</time></trkpt><trkpt lat="35.1225442" lon="9.3455063"><ele>369.0</ele><time>2026-05-01T09:54:15.457Z</time></trkpt><trkpt lat="35.1226931" lon="9.3456606"><ele>369.0</ele><time>2026-05-01T09:54:16.438Z</time></trkpt><trkpt lat="35.1228389" lon="9.3458124"><ele>369.0</ele><time>2026-05-01T09:54:17.444Z</time></trkpt><trkpt lat="35.1229871" lon="9.3459654"><ele>369.0</ele><time>2026-05-01T09:54:18.448Z</time></trkpt><trkpt lat="35.1231295" lon="9.3461164"><ele>369.0</ele><time>2026-05-01T09:54:19.419Z</time></trkpt><trkpt lat="35.1232727" lon="9.3462668"><ele>369.0</ele><time>2026-05-01T09:54:20.398Z</time></trkpt><trkpt lat="35.1234143" lon="9.3464214"><ele>369.0</ele><time>2026-05-01T09:54:21.412Z</time></trkpt><trkpt lat="35.1235581" lon="9.3465686"><ele>368.3333333333333</ele><time>2026-05-01T09:54:22.444Z</time></trkpt><trkpt lat="35.1237021" lon="9.3467194"><ele>367.66666666666663</ele><time>2026-05-01T09:54:23.449Z</time></trkpt><trkpt lat="35.1238479" lon="9.3468724"><ele>367.0</ele><time>2026-05-01T09:54:24.465Z</time></trkpt><trkpt lat="35.1239893" lon="9.3470248"><ele>367.0</ele><time>2026-05-01T09:54:25.449Z</time></trkpt><trkpt lat="35.1241298" lon="9.3471819"><ele>367.0</ele><time>2026-05-01T09:54:26.464Z</time></trkpt><trkpt lat="35.1242704" lon="9.3473367"><ele>367.0</ele><time>2026-05-01T09:54:27.462Z</time></trkpt><trkpt lat="35.1244151" lon="9.3474914"><ele>366.66666666666663</ele><time>2026-05-01T09:54:28.458Z</time></trkpt><trkpt lat="35.1245644" lon="9.3476476"><ele>366.3333333333333</ele><time>2026-05-01T09:54:29.433Z</time></trkpt><trkpt lat="35.1247129" lon="9.3477998"><ele>366.0</ele><time>2026-05-01T09:54:30.458Z</time></trkpt><trkpt lat="35.1248646" lon="9.3479559"><ele>365.0</ele><time>2026-05-01T09:54:31.433Z</time></trkpt><trkpt lat="35.1250136" lon="9.3481156"><ele>364.0</ele><time>2026-05-01T09:54:32.435Z</time></trkpt><trkpt lat="35.1251582" lon="9.348273"><ele>363.0</ele><time>2026-05-01T09:54:33.454Z</time></trkpt><trkpt lat="35.1253012" lon="9.3484343"><ele>363.0</ele><time>2026-05-01T09:54:34.433Z</time></trkpt><trkpt lat="35.1254493" lon="9.3485918"><ele>363.0</ele><time>2026-05-01T09:54:35.453Z</time></trkpt><trkpt lat="35.1255977" lon="9.3487499"><ele>363.0</ele><time>2026-05-01T09:54:36.436Z</time></trkpt><trkpt lat="35.1257444" lon="9.3489095"><ele>363.3333333333333</ele><time>2026-05-01T09:54:37.458Z</time></trkpt><trkpt lat="35.1258929" lon="9.3490712"><ele>363.66666666666663</ele><time>2026-05-01T09:54:38.427Z</time></trkpt><trkpt lat="35.126047" lon="9.3492356"><ele>364.0</ele><time>2026-05-01T09:54:39.447Z</time></trkpt><trkpt lat="35.1262027" lon="9.3494015"><ele>364.0</ele><time>2026-05-01T09:54:40.452Z</time></trkpt><trkpt lat="35.1263655" lon="9.3495653"><ele>364.0</ele><time>2026-05-01T09:54:41.44Z</time></trkpt><trkpt lat="35.1265274" lon="9.3497331"><ele>364.0</ele><time>2026-05-01T09:54:42.449Z</time></trkpt><trkpt lat="35.1266885" lon="9.3499003"><ele>362.66666666666663</ele><time>2026-05-01T09:54:43.47Z</time></trkpt><trkpt lat="35.1268512" lon="9.3500704"><ele>361.3333333333333</ele><time>2026-05-01T09:54:44.469Z</time></trkpt><trkpt lat="35.1270146" lon="9.3502384"><ele>360.0</ele><time>2026-05-01T09:54:45.463Z</time></trkpt><trkpt lat="35.1271777" lon="9.3504089"><ele>360.0</ele><time>2026-05-01T09:54:46.464Z</time></trkpt><trkpt lat="35.1273365" lon="9.3505799"><ele>360.0</ele><time>2026-05-01T09:54:47.444Z</time></trkpt><trkpt lat="35.1274942" lon="9.3507504"><ele>360.0</ele><time>2026-05-01T09:54:48.454Z</time></trkpt><trkpt lat="35.1276495" lon="9.3509255"><ele>360.0</ele><time>2026-05-01T09:54:49.45Z</time></trkpt><trkpt lat="35.1278048" lon="9.3510955"><ele>360.0</ele><time>2026-05-01T09:54:50.466Z</time></trkpt><trkpt lat="35.1279612" lon="9.3512618"><ele>360.0</ele><time>2026-05-01T09:54:51.415Z</time></trkpt><trkpt lat="35.1281171" lon="9.3514229"><ele>360.0</ele><time>2026-05-01T09:54:52.467Z</time></trkpt><trkpt lat="35.1282623" lon="9.3515762"><ele>360.0</ele><time>2026-05-01T09:54:53.458Z</time></trkpt><trkpt lat="35.1284041" lon="9.3517377"><ele>360.0</ele><time>2026-05-01T09:54:54.459Z</time></trkpt><trkpt lat="35.128545" lon="9.3518887"><ele>360.0</ele><time>2026-05-01T09:54:55.435Z</time></trkpt><trkpt lat="35.1286859" lon="9.3520399"><ele>360.0</ele><time>2026-05-01T09:54:56.468Z</time></trkpt><trkpt lat="35.128829" lon="9.3521938"><ele>360.0</ele><time>2026-05-01T09:54:57.458Z</time></trkpt><trkpt lat="35.1289693" lon="9.352351"><ele>359.3333333333333</ele><time>2026-05-01T09:54:58.425Z</time></trkpt><trkpt lat="35.129112" lon="9.3525026"><ele>358.66666666666663</ele><time>2026-05-01T09:54:59.431Z</time></trkpt><trkpt lat="35.1292597" lon="9.3526633"><ele>358.0</ele><time>2026-05-01T09:55:00.439Z</time></trkpt><trkpt lat="35.1294072" lon="9.3528189"><ele>358.0</ele><time>2026-05-01T09:55:01.481Z</time></trkpt><trkpt lat="35.1295554" lon="9.3529732"><ele>358.0</ele><time>2026-05-01T09:55:02.446Z</time></trkpt><trkpt lat="35.1297073" lon="9.3531352"><ele>358.0</ele><time>2026-05-01T09:55:03.468Z</time></trkpt><trkpt lat="35.1298584" lon="9.3532989"><ele>357.3333333333333</ele><time>2026-05-01T09:55:04.455Z</time></trkpt><trkpt lat="35.1300072" lon="9.3534574"><ele>356.6666666666667</ele><time>2026-05-01T09:55:05.451Z</time></trkpt><trkpt lat="35.1301556" lon="9.3536191"><ele>356.0</ele><time>2026-05-01T09:55:06.459Z</time></trkpt><trkpt lat="35.1302979" lon="9.3537807"><ele>355.6666666666667</ele><time>2026-05-01T09:55:07.457Z</time></trkpt><trkpt lat="35.1304452" lon="9.3539438"><ele>355.3333333333333</ele><time>2026-05-01T09:55:08.453Z</time></trkpt><trkpt lat="35.1305927" lon="9.3541"><ele>355.0</ele><time>2026-05-01T09:55:09.453Z</time></trkpt><trkpt lat="35.1307402" lon="9.3542571"><ele>355.0</ele><time>2026-05-01T09:55:10.45Z</time></trkpt><trkpt lat="35.1308907" lon="9.3544108"><ele>355.0</ele><time>2026-05-01T09:55:11.425Z</time></trkpt><trkpt lat="35.1310395" lon="9.3545653"><ele>355.0</ele><time>2026-05-01T09:55:12.427Z</time></trkpt><trkpt lat="35.1311889" lon="9.3547252"><ele>354.66666666666663</ele><time>2026-05-01T09:55:13.476Z</time></trkpt><trkpt lat="35.1313389" lon="9.3548838"><ele>354.3333333333333</ele><time>2026-05-01T09:55:14.451Z</time></trkpt><trkpt lat="35.1314902" lon="9.3550377"><ele>354.0</ele><time>2026-05-01T09:55:15.415Z</time></trkpt><trkpt lat="35.1316382" lon="9.3551938"><ele>354.0</ele><time>2026-05-01T09:55:16.447Z</time></trkpt><trkpt lat="35.1317881" lon="9.3553547"><ele>354.0</ele><time>2026-05-01T09:55:17.468Z</time></trkpt><trkpt lat="35.1319359" lon="9.3555165"><ele>354.0</ele><time>2026-05-01T09:55:18.461Z</time></trkpt><trkpt lat="35.1320847" lon="9.3556781"><ele>353.6666666666667</ele><time>2026-05-01T09:55:19.449Z</time></trkpt><trkpt lat="35.1322351" lon="9.3558381"><ele>353.33333333333337</ele><time>2026-05-01T09:55:20.423Z</time></trkpt><trkpt lat="35.1323903" lon="9.3560057"><ele>353.0</ele><time>2026-05-01T09:55:21.453Z</time></trkpt><trkpt lat="35.1325443" lon="9.3561747"><ele>352.6666666666667</ele><time>2026-05-01T09:55:22.425Z</time></trkpt><trkpt lat="35.1326973" lon="9.3563457"><ele>352.3333333333333</ele><time>2026-05-01T09:55:23.462Z</time></trkpt><trkpt lat="35.1328569" lon="9.3565127"><ele>352.0</ele><time>2026-05-01T09:55:24.457Z</time></trkpt><trkpt lat="35.1330078" lon="9.3566741"><ele>352.0</ele><time>2026-05-01T09:55:25.461Z</time></trkpt><trkpt lat="35.1331586" lon="9.3568347"><ele>352.0</ele><time>2026-05-01T09:55:26.449Z</time></trkpt><trkpt lat="35.1333108" lon="9.3569923"><ele>352.0</ele><time>2026-05-01T09:55:27.459Z</time></trkpt><trkpt lat="35.1334611" lon="9.357157"><ele>352.0</ele><time>2026-05-01T09:55:28.445Z</time></trkpt><trkpt lat="35.1336084" lon="9.3573161"><ele>352.0</ele><time>2026-05-01T09:55:29.441Z</time></trkpt><trkpt lat="35.1337603" lon="9.3574777"><ele>352.0</ele><time>2026-05-01T09:55:30.444Z</time></trkpt><trkpt lat="35.1339109" lon="9.357638"><ele>353.0</ele><time>2026-05-01T09:55:31.432Z</time></trkpt><trkpt lat="35.1340654" lon="9.3578012"><ele>354.0</ele><time>2026-05-01T09:55:32.463Z</time></trkpt><trkpt lat="35.1342226" lon="9.3579643"><ele>355.0</ele><time>2026-05-01T09:55:33.449Z</time></trkpt><trkpt lat="35.1343731" lon="9.3581266"><ele>355.0</ele><time>2026-05-01T09:55:34.457Z</time></trkpt><trkpt lat="35.134522" lon="9.3582914"><ele>355.0</ele><time>2026-05-01T09:55:35.469Z</time></trkpt><trkpt lat="35.1346735" lon="9.3584496"><ele>355.0</ele><time>2026-05-01T09:55:36.453Z</time></trkpt><trkpt lat="35.1348231" lon="9.3586152"><ele>355.0</ele><time>2026-05-01T09:55:37.462Z</time></trkpt><trkpt lat="35.1349772" lon="9.3587756"><ele>355.0</ele><time>2026-05-01T09:55:38.438Z</time></trkpt><trkpt lat="35.1351279" lon="9.3589332"><ele>355.0</ele><time>2026-05-01T09:55:39.47Z</time></trkpt><trkpt lat="35.135276" lon="9.3590921"><ele>355.0</ele><time>2026-05-01T09:55:40.423Z</time></trkpt><trkpt lat="35.1354242" lon="9.359249"><ele>355.0</ele><time>2026-05-01T09:55:41.448Z</time></trkpt><trkpt lat="35.1355722" lon="9.3594078"><ele>355.0</ele><time>2026-05-01T09:55:42.456Z</time></trkpt><trkpt lat="35.1357187" lon="9.3595641"><ele>355.3333333333333</ele><time>2026-05-01T09:55:43.46Z</time></trkpt><trkpt lat="35.1358687" lon="9.3597098"><ele>355.6666666666667</ele><time>2026-05-01T09:55:44.462Z</time></trkpt><trkpt lat="35.1360169" lon="9.3598621"><ele>356.0</ele><time>2026-05-01T09:55:45.466Z</time></trkpt><trkpt lat="35.1361759" lon="9.3600033"><ele>356.0</ele><time>2026-05-01T09:55:46.458Z</time></trkpt><trkpt lat="35.1363465" lon="9.360131"><ele>356.0</ele><time>2026-05-01T09:55:47.445Z</time></trkpt><trkpt lat="35.1365226" lon="9.3602418"><ele>356.0</ele><time>2026-05-01T09:55:48.449Z</time></trkpt><trkpt lat="35.1366916" lon="9.3603377"><ele>356.6666666666667</ele><time>2026-05-01T09:55:49.411Z</time></trkpt><trkpt lat="35.1368623" lon="9.3604296"><ele>357.3333333333333</ele><time>2026-05-01T09:55:50.417Z</time></trkpt><trkpt lat="35.1370299" lon="9.3605086"><ele>358.0</ele><time>2026-05-01T09:55:51.455Z</time></trkpt><trkpt lat="35.1372029" lon="9.3605758"><ele>358.0</ele><time>2026-05-01T09:55:52.443Z</time></trkpt><trkpt lat="35.1373737" lon="9.3606414"><ele>358.0</ele><time>2026-05-01T09:55:53.445Z</time></trkpt><trkpt lat="35.1375403" lon="9.3606898"><ele>358.0</ele><time>2026-05-01T09:55:54.409Z</time></trkpt><trkpt lat="35.1377099" lon="9.3607385"><ele>357.66666666666663</ele><time>2026-05-01T09:55:55.468Z</time></trkpt><trkpt lat="35.1378755" lon="9.3607823"><ele>357.3333333333333</ele><time>2026-05-01T09:55:56.465Z</time></trkpt><trkpt lat="35.1380359" lon="9.3608249"><ele>357.0</ele><time>2026-05-01T09:55:57.458Z</time></trkpt><trkpt lat="35.1381878" lon="9.3608629"><ele>357.0</ele><time>2026-05-01T09:55:58.444Z</time></trkpt><trkpt lat="35.1383234" lon="9.3608921"><ele>357.0</ele><time>2026-05-01T09:55:59.452Z</time></trkpt><trkpt lat="35.1384295" lon="9.3609227"><ele>357.0</ele><time>2026-05-01T09:56:00.421Z</time></trkpt><trkpt lat="35.138525" lon="9.3609522"><ele>357.0</ele><time>2026-05-01T09:56:01.423Z</time></trkpt><trkpt lat="35.1386195" lon="9.3609786"><ele>357.0</ele><time>2026-05-01T09:56:02.414Z</time></trkpt><trkpt lat="35.138704" lon="9.3609985"><ele>357.0</ele><time>2026-05-01T09:56:03.47Z</time></trkpt><trkpt lat="35.1387818" lon="9.361019"><ele>357.0</ele><time>2026-05-01T09:56:04.453Z</time></trkpt><trkpt lat="35.1388576" lon="9.361047"><ele>357.0</ele><time>2026-05-01T09:56:05.456Z</time></trkpt><trkpt lat="35.1389218" lon="9.3610864"><ele>357.0</ele><time>2026-05-01T09:56:06.464Z</time></trkpt><trkpt lat="35.1389883" lon="9.3611368"><ele>357.0</ele><time>2026-05-01T09:56:07.439Z</time></trkpt><trkpt lat="35.1390569" lon="9.3611934"><ele>357.0</ele><time>2026-05-01T09:56:08.456Z</time></trkpt><trkpt lat="35.1391299" lon="9.3612403"><ele>357.40000000000003</ele><time>2026-05-01T09:56:09.457Z</time></trkpt><trkpt lat="35.139208" lon="9.3612519"><ele>357.8</ele><time>2026-05-01T09:56:10.467Z</time></trkpt><trkpt lat="35.1393138" lon="9.3612327"><ele>358.2</ele><time>2026-05-01T09:56:11.443Z</time></trkpt><trkpt lat="35.1394168" lon="9.361203"><ele>358.6</ele><time>2026-05-01T09:56:12.436Z</time></trkpt><trkpt lat="35.1395291" lon="9.3611861"><ele>359.0</ele><time>2026-05-01T09:56:13.467Z</time></trkpt><trkpt lat="35.1396447" lon="9.3612062"><ele>359.0</ele><time>2026-05-01T09:56:14.44Z</time></trkpt><trkpt lat="35.13976" lon="9.3612472"><ele>359.0</ele><time>2026-05-01T09:56:15.457Z</time></trkpt><trkpt lat="35.139881" lon="9.3612843"><ele>359.0</ele><time>2026-05-01T09:56:16.456Z</time></trkpt><trkpt lat="35.1400123" lon="9.36132"><ele>359.0</ele><time>2026-05-01T09:56:17.448Z</time></trkpt><trkpt lat="35.140144" lon="9.3613566"><ele>358.5</ele><time>2026-05-01T09:56:18.46Z</time></trkpt><trkpt lat="35.1402751" lon="9.3613912"><ele>358.0</ele><time>2026-05-01T09:56:19.425Z</time></trkpt><trkpt lat="35.1404085" lon="9.361426"><ele>357.5</ele><time>2026-05-01T09:56:20.429Z</time></trkpt><trkpt lat="35.1405416" lon="9.3614586"><ele>357.0</ele><time>2026-05-01T09:56:21.449Z</time></trkpt><trkpt lat="35.1406789" lon="9.3614942"><ele>356.6666666666667</ele><time>2026-05-01T09:56:22.458Z</time></trkpt><trkpt lat="35.1408227" lon="9.3615317"><ele>356.33333333333337</ele><time>2026-05-01T09:56:23.452Z</time></trkpt><trkpt lat="35.1409725" lon="9.3615656"><ele>356.0</ele><time>2026-05-01T09:56:24.455Z</time></trkpt><trkpt lat="35.1411246" lon="9.3616052"><ele>356.0</ele><time>2026-05-01T09:56:25.461Z</time></trkpt><trkpt lat="35.1412818" lon="9.3616522"><ele>356.0</ele><time>2026-05-01T09:56:26.458Z</time></trkpt><trkpt lat="35.141444" lon="9.361696"><ele>356.0</ele><time>2026-05-01T09:56:27.46Z</time></trkpt><trkpt lat="35.1416141" lon="9.3617398"><ele>355.0</ele><time>2026-05-01T09:56:28.464Z</time></trkpt><trkpt lat="35.1417808" lon="9.3617792"><ele>354.0</ele><time>2026-05-01T09:56:29.463Z</time></trkpt><trkpt lat="35.1419558" lon="9.3618167"><ele>353.0</ele><time>2026-05-01T09:56:30.451Z</time></trkpt><trkpt lat="35.1421323" lon="9.3618602"><ele>353.0</ele><time>2026-05-01T09:56:31.442Z</time></trkpt><trkpt lat="35.1423061" lon="9.3619077"><ele>353.0</ele><time>2026-05-01T09:56:32.456Z</time></trkpt><trkpt lat="35.1424837" lon="9.3619521"><ele>353.0</ele><time>2026-05-01T09:56:33.464Z</time></trkpt><trkpt lat="35.1426658" lon="9.3620036"><ele>352.33333333333337</ele><time>2026-05-01T09:56:34.454Z</time></trkpt><trkpt lat="35.1428439" lon="9.362053"><ele>351.6666666666667</ele><time>2026-05-01T09:56:35.457Z</time></trkpt><trkpt lat="35.1430206" lon="9.3621025"><ele>351.0</ele><time>2026-05-01T09:56:36.434Z</time></trkpt><trkpt lat="35.1431981" lon="9.3621496"><ele>351.0</ele><time>2026-05-01T09:56:37.451Z</time></trkpt><trkpt lat="35.1433785" lon="9.3621926"><ele>351.0</ele><time>2026-05-01T09:56:38.431Z</time></trkpt><trkpt lat="35.1435557" lon="9.3622396"><ele>351.0</ele><time>2026-05-01T09:56:39.428Z</time></trkpt><trkpt lat="35.1437356" lon="9.3622873"><ele>350.6666666666667</ele><time>2026-05-01T09:56:40.456Z</time></trkpt><trkpt lat="35.1439141" lon="9.3623367"><ele>350.33333333333337</ele><time>2026-05-01T09:56:41.446Z</time></trkpt><trkpt lat="35.1440843" lon="9.3623879"><ele>350.0</ele><time>2026-05-01T09:56:42.453Z</time></trkpt><trkpt lat="35.1442576" lon="9.3624386"><ele>350.0</ele><time>2026-05-01T09:56:43.433Z</time></trkpt><trkpt lat="35.1444228" lon="9.3624819"><ele>350.0</ele><time>2026-05-01T09:56:44.465Z</time></trkpt><trkpt lat="35.1445856" lon="9.3625258"><ele>350.0</ele><time>2026-05-01T09:56:45.461Z</time></trkpt><trkpt lat="35.1447484" lon="9.3625666"><ele>351.0</ele><time>2026-05-01T09:56:46.441Z</time></trkpt><trkpt lat="35.1449029" lon="9.3626089"><ele>352.0</ele><time>2026-05-01T09:56:47.442Z</time></trkpt><trkpt lat="35.1450515" lon="9.3626473"><ele>353.0</ele><time>2026-05-01T09:56:48.468Z</time></trkpt><trkpt lat="35.1451934" lon="9.3626884"><ele>353.0</ele><time>2026-05-01T09:56:49.451Z</time></trkpt><trkpt lat="35.1453341" lon="9.3627239"><ele>353.0</ele><time>2026-05-01T09:56:50.47Z</time></trkpt><trkpt lat="35.1454675" lon="9.3627626"><ele>353.0</ele><time>2026-05-01T09:56:51.465Z</time></trkpt><trkpt lat="35.1456091" lon="9.3628001"><ele>353.0</ele><time>2026-05-01T09:56:52.419Z</time></trkpt><trkpt lat="35.145754" lon="9.3628407"><ele>353.0</ele><time>2026-05-01T09:56:53.467Z</time></trkpt><trkpt lat="35.1458912" lon="9.3628809"><ele>353.0</ele><time>2026-05-01T09:56:54.452Z</time></trkpt><trkpt lat="35.1460273" lon="9.3629164"><ele>353.0</ele><time>2026-05-01T09:56:55.452Z</time></trkpt><trkpt lat="35.1461596" lon="9.3629505"><ele>353.0</ele><time>2026-05-01T09:56:56.435Z</time></trkpt><trkpt lat="35.1462905" lon="9.3629847"><ele>353.0</ele><time>2026-05-01T09:56:57.449Z</time></trkpt><trkpt lat="35.1464169" lon="9.3630148"><ele>353.0</ele><time>2026-05-01T09:56:58.446Z</time></trkpt><trkpt lat="35.1465339" lon="9.3630504"><ele>353.0</ele><time>2026-05-01T09:56:59.468Z</time></trkpt><trkpt lat="35.1466378" lon="9.363078"><ele>353.0</ele><time>2026-05-01T09:57:00.415Z</time></trkpt><trkpt lat="35.1467093" lon="9.3630987"><ele>353.0</ele><time>2026-05-01T09:57:01.468Z</time></trkpt><trkpt lat="35.1467947" lon="9.3631353"><ele>352.59999999999997</ele><time>2026-05-01T09:57:03.46Z</time></trkpt><trkpt lat="35.1468553" lon="9.3631679"><ele>352.2</ele><time>2026-05-01T09:57:07.455Z</time></trkpt><trkpt lat="35.1469375" lon="9.3632409"><ele>351.8</ele><time>2026-05-01T09:57:11.454Z</time></trkpt><trkpt lat="35.1470146" lon="9.3633247"><ele>351.4</ele><time>2026-05-01T09:57:13.437Z</time></trkpt><trkpt lat="35.1471143" lon="9.3633552"><ele>351.0</ele><time>2026-05-01T09:57:15.454Z</time></trkpt><trkpt lat="35.1472245" lon="9.3633007"><ele>351.0</ele><time>2026-05-01T09:57:17.439Z</time></trkpt><trkpt lat="35.1472914" lon="9.3631688"><ele>351.0</ele><time>2026-05-01T09:57:19.477Z</time></trkpt><trkpt lat="35.1473015" lon="9.3630774"><ele>351.0</ele><time>2026-05-01T09:57:20.457Z</time></trkpt><trkpt lat="35.1473002" lon="9.3629845"><ele>351.0</ele><time>2026-05-01T09:57:21.415Z</time></trkpt><trkpt lat="35.1472933" lon="9.3628943"><ele>351.0</ele><time>2026-05-01T09:57:22.439Z</time></trkpt><trkpt lat="35.1473003" lon="9.362789"><ele>351.0</ele><time>2026-05-01T09:57:23.444Z</time></trkpt><trkpt lat="35.1473277" lon="9.3626635"><ele>351.0</ele><time>2026-05-01T09:57:24.453Z</time></trkpt><trkpt lat="35.1473619" lon="9.362528"><ele>351.0</ele><time>2026-05-01T09:57:25.46Z</time></trkpt><trkpt lat="35.1474104" lon="9.3623746"><ele>351.0</ele><time>2026-05-01T09:57:26.461Z</time></trkpt><trkpt lat="35.1474661" lon="9.3622151"><ele>351.0</ele><time>2026-05-01T09:57:27.468Z</time></trkpt><trkpt lat="35.1475281" lon="9.3620352"><ele>351.0</ele><time>2026-05-01T09:57:28.436Z</time></trkpt><trkpt lat="35.1475879" lon="9.3618601"><ele>351.0</ele><time>2026-05-01T09:57:29.459Z</time></trkpt><trkpt lat="35.1476469" lon="9.3616829"><ele>351.0</ele><time>2026-05-01T09:57:30.451Z</time></trkpt><trkpt lat="35.147707" lon="9.3615036"><ele>351.3333333333333</ele><time>2026-05-01T09:57:31.457Z</time></trkpt><trkpt lat="35.1477686" lon="9.3613258"><ele>351.66666666666663</ele><time>2026-05-01T09:57:32.446Z</time></trkpt><trkpt lat="35.1478251" lon="9.3611473"><ele>352.0</ele><time>2026-05-01T09:57:33.463Z</time></trkpt><trkpt lat="35.1478853" lon="9.3609716"><ele>352.0</ele><time>2026-05-01T09:57:34.454Z</time></trkpt><trkpt lat="35.1479449" lon="9.3607966"><ele>352.0</ele><time>2026-05-01T09:57:35.447Z</time></trkpt><trkpt lat="35.1480023" lon="9.3606188"><ele>352.0</ele><time>2026-05-01T09:57:36.446Z</time></trkpt><trkpt lat="35.1480603" lon="9.3604408"><ele>351.66666666666663</ele><time>2026-05-01T09:57:37.454Z</time></trkpt><trkpt lat="35.1481183" lon="9.3602668"><ele>351.3333333333333</ele><time>2026-05-01T09:57:38.432Z</time></trkpt><trkpt lat="35.1481788" lon="9.3600926"><ele>351.0</ele><time>2026-05-01T09:57:39.446Z</time></trkpt><trkpt lat="35.148241" lon="9.3599131"><ele>351.6666666666667</ele><time>2026-05-01T09:57:40.454Z</time></trkpt><trkpt lat="35.1483064" lon="9.3597308"><ele>352.33333333333337</ele><time>2026-05-01T09:57:41.453Z</time></trkpt><trkpt lat="35.148369" lon="9.3595443"><ele>353.0</ele><time>2026-05-01T09:57:42.438Z</time></trkpt><trkpt lat="35.148433" lon="9.3593575"><ele>353.0</ele><time>2026-05-01T09:57:43.462Z</time></trkpt><trkpt lat="35.148499" lon="9.3591651"><ele>353.0</ele><time>2026-05-01T09:57:44.457Z</time></trkpt><trkpt lat="35.1485726" lon="9.3589747"><ele>353.0</ele><time>2026-05-01T09:57:45.442Z</time></trkpt><trkpt lat="35.1486433" lon="9.358779"><ele>353.33333333333337</ele><time>2026-05-01T09:57:46.468Z</time></trkpt><trkpt lat="35.1487137" lon="9.3585768"><ele>353.6666666666667</ele><time>2026-05-01T09:57:47.466Z</time></trkpt><trkpt lat="35.1487857" lon="9.3583766"><ele>354.0</ele><time>2026-05-01T09:57:48.464Z</time></trkpt><trkpt lat="35.1488532" lon="9.3581718"><ele>353.6666666666667</ele><time>2026-05-01T09:57:49.446Z</time></trkpt><trkpt lat="35.1489248" lon="9.3579625"><ele>353.33333333333337</ele><time>2026-05-01T09:57:50.407Z</time></trkpt><trkpt lat="35.1489958" lon="9.3577594"><ele>353.0</ele><time>2026-05-01T09:57:51.445Z</time></trkpt><trkpt lat="35.1490699" lon="9.357561"><ele>353.0</ele><time>2026-05-01T09:57:52.451Z</time></trkpt><trkpt lat="35.1491389" lon="9.357356"><ele>353.0</ele><time>2026-05-01T09:57:53.455Z</time></trkpt><trkpt lat="35.1492078" lon="9.3571491"><ele>353.0</ele><time>2026-05-01T09:57:54.448Z</time></trkpt><trkpt lat="35.1492828" lon="9.3569357"><ele>353.0</ele><time>2026-05-01T09:57:55.46Z</time></trkpt><trkpt lat="35.1493549" lon="9.3567256"><ele>353.0</ele><time>2026-05-01T09:57:56.466Z</time></trkpt><trkpt lat="35.1494243" lon="9.3565174"><ele>353.0</ele><time>2026-05-01T09:57:57.45Z</time></trkpt><trkpt lat="35.1494967" lon="9.3563083"><ele>353.33333333333337</ele><time>2026-05-01T09:57:58.462Z</time></trkpt><trkpt lat="35.1495707" lon="9.356093"><ele>353.6666666666667</ele><time>2026-05-01T09:57:59.409Z</time></trkpt><trkpt lat="35.1496466" lon="9.3558779"><ele>354.0</ele><time>2026-05-01T09:58:00.398Z</time></trkpt><trkpt lat="35.1497224" lon="9.35566"><ele>354.3333333333333</ele><time>2026-05-01T09:58:01.399Z</time></trkpt><trkpt lat="35.1497993" lon="9.3554427"><ele>354.66666666666663</ele><time>2026-05-01T09:58:02.398Z</time></trkpt><trkpt lat="35.1498716" lon="9.3552227"><ele>355.0</ele><time>2026-05-01T09:58:03.433Z</time></trkpt><trkpt lat="35.1499409" lon="9.355006"><ele>355.0</ele><time>2026-05-01T09:58:04.437Z</time></trkpt><trkpt lat="35.1500151" lon="9.3547927"><ele>355.0</ele><time>2026-05-01T09:58:05.456Z</time></trkpt><trkpt lat="35.1500873" lon="9.3545831"><ele>355.0</ele><time>2026-05-01T09:58:06.426Z</time></trkpt><trkpt lat="35.1501657" lon="9.3543675"><ele>355.0</ele><time>2026-05-01T09:58:07.419Z</time></trkpt><trkpt lat="35.150237" lon="9.3541585"><ele>355.0</ele><time>2026-05-01T09:58:08.463Z</time></trkpt><trkpt lat="35.1503111" lon="9.3539372"><ele>355.0</ele><time>2026-05-01T09:58:09.441Z</time></trkpt><trkpt lat="35.1503862" lon="9.3537236"><ele>355.0</ele><time>2026-05-01T09:58:10.458Z</time></trkpt><trkpt lat="35.1504622" lon="9.3535116"><ele>355.0</ele><time>2026-05-01T09:58:11.445Z</time></trkpt><trkpt lat="35.1505364" lon="9.3532964"><ele>355.0</ele><time>2026-05-01T09:58:12.452Z</time></trkpt><trkpt lat="35.1506062" lon="9.3530802"><ele>355.3333333333333</ele><time>2026-05-01T09:58:13.458Z</time></trkpt><trkpt lat="35.1506757" lon="9.3528674"><ele>355.6666666666667</ele><time>2026-05-01T09:58:14.451Z</time></trkpt><trkpt lat="35.1507459" lon="9.3526525"><ele>356.0</ele><time>2026-05-01T09:58:15.433Z</time></trkpt><trkpt lat="35.1508178" lon="9.3524408"><ele>356.33333333333337</ele><time>2026-05-01T09:58:16.462Z</time></trkpt><trkpt lat="35.1508907" lon="9.3522256"><ele>356.6666666666667</ele><time>2026-05-01T09:58:17.465Z</time></trkpt><trkpt lat="35.1509606" lon="9.3520187"><ele>357.0</ele><time>2026-05-01T09:58:18.446Z</time></trkpt><trkpt lat="35.1510306" lon="9.351812"><ele>357.0</ele><time>2026-05-01T09:58:19.46Z</time></trkpt><trkpt lat="35.1511042" lon="9.3516055"><ele>357.0</ele><time>2026-05-01T09:58:20.467Z</time></trkpt><trkpt lat="35.1511737" lon="9.3514023"><ele>357.0</ele><time>2026-05-01T09:58:21.437Z</time></trkpt><trkpt lat="35.1512482" lon="9.3511885"><ele>357.0</ele><time>2026-05-01T09:58:22.462Z</time></trkpt><trkpt lat="35.1513229" lon="9.350981"><ele>357.0</ele><time>2026-05-01T09:58:23.459Z</time></trkpt><trkpt lat="35.1513937" lon="9.3507736"><ele>357.0</ele><time>2026-05-01T09:58:24.459Z</time></trkpt><trkpt lat="35.1514673" lon="9.3505628"><ele>357.0</ele><time>2026-05-01T09:58:25.4Z</time></trkpt><trkpt lat="35.1515382" lon="9.3503548"><ele>357.0</ele><time>2026-05-01T09:58:26.422Z</time></trkpt><trkpt lat="35.151606" lon="9.3501514"><ele>357.0</ele><time>2026-05-01T09:58:27.408Z</time></trkpt><trkpt lat="35.1516761" lon="9.3499483"><ele>357.3333333333333</ele><time>2026-05-01T09:58:28.462Z</time></trkpt><trkpt lat="35.151744" lon="9.3497479"><ele>357.66666666666663</ele><time>2026-05-01T09:58:29.435Z</time></trkpt><trkpt lat="35.1518094" lon="9.3495467"><ele>358.0</ele><time>2026-05-01T09:58:30.427Z</time></trkpt><trkpt lat="35.1518763" lon="9.3493479"><ele>358.0</ele><time>2026-05-01T09:58:31.461Z</time></trkpt><trkpt lat="35.1519422" lon="9.3491522"><ele>358.0</ele><time>2026-05-01T09:58:32.439Z</time></trkpt><trkpt lat="35.1520078" lon="9.3489684"><ele>358.0</ele><time>2026-05-01T09:58:33.444Z</time></trkpt><trkpt lat="35.1520761" lon="9.3487881"><ele>358.0</ele><time>2026-05-01T09:58:34.444Z</time></trkpt><trkpt lat="35.1521417" lon="9.3486037"><ele>358.0</ele><time>2026-05-01T09:58:35.434Z</time></trkpt><trkpt lat="35.1522045" lon="9.348428"><ele>358.0</ele><time>2026-05-01T09:58:36.423Z</time></trkpt><trkpt lat="35.1522674" lon="9.3482532"><ele>358.0</ele><time>2026-05-01T09:58:37.44Z</time></trkpt><trkpt lat="35.1523269" lon="9.348081"><ele>358.0</ele><time>2026-05-01T09:58:38.436Z</time></trkpt><trkpt lat="35.1523855" lon="9.3479067"><ele>358.0</ele><time>2026-05-01T09:58:39.463Z</time></trkpt><trkpt lat="35.1524461" lon="9.3477354"><ele>358.25</ele><time>2026-05-01T09:58:40.463Z</time></trkpt><trkpt lat="35.1525004" lon="9.3475652"><ele>358.5</ele><time>2026-05-01T09:58:41.446Z</time></trkpt><trkpt lat="35.1525571" lon="9.3474028"><ele>358.75</ele><time>2026-05-01T09:58:42.459Z</time></trkpt><trkpt lat="35.1526133" lon="9.3472429"><ele>359.0</ele><time>2026-05-01T09:58:43.46Z</time></trkpt><trkpt lat="35.1526697" lon="9.3470831"><ele>359.25</ele><time>2026-05-01T09:58:44.462Z</time></trkpt><trkpt lat="35.1527223" lon="9.3469315"><ele>359.5</ele><time>2026-05-01T09:58:45.401Z</time></trkpt><trkpt lat="35.1527742" lon="9.3467812"><ele>359.75</ele><time>2026-05-01T09:58:46.43Z</time></trkpt><trkpt lat="35.1528237" lon="9.3466422"><ele>360.0</ele><time>2026-05-01T09:58:47.404Z</time></trkpt><trkpt lat="35.152877" lon="9.3465019"><ele>360.0</ele><time>2026-05-01T09:58:48.406Z</time></trkpt><trkpt lat="35.152922" lon="9.3463815"><ele>360.0</ele><time>2026-05-01T09:58:49.422Z</time></trkpt><trkpt lat="35.1529588" lon="9.3462642"><ele>360.0</ele><time>2026-05-01T09:58:50.396Z</time></trkpt><trkpt lat="35.1529969" lon="9.3461501"><ele>360.0</ele><time>2026-05-01T09:58:51.403Z</time></trkpt><trkpt lat="35.1530329" lon="9.3460437"><ele>360.0</ele><time>2026-05-01T09:58:52.402Z</time></trkpt><trkpt lat="35.153069" lon="9.3459375"><ele>359.8333333333333</ele><time>2026-05-01T09:58:53.406Z</time></trkpt><trkpt lat="35.1531045" lon="9.3458396"><ele>359.6666666666667</ele><time>2026-05-01T09:58:54.402Z</time></trkpt><trkpt lat="35.1531333" lon="9.3457639"><ele>359.5</ele><time>2026-05-01T09:58:55.398Z</time></trkpt><trkpt lat="35.1531715" lon="9.3456616"><ele>359.33333333333337</ele><time>2026-05-01T09:58:57.416Z</time></trkpt><trkpt lat="35.1532129" lon="9.3455982"><ele>359.1666666666667</ele><time>2026-05-01T09:59:02.406Z</time></trkpt><trkpt lat="35.1532528" lon="9.3455121"><ele>359.0</ele><time>2026-05-01T09:59:28.399Z</time></trkpt><trkpt lat="35.1532901" lon="9.3454273"><ele>359.0</ele><time>2026-05-01T09:59:30.407Z</time></trkpt><trkpt lat="35.1533333" lon="9.3453593"><ele>359.0</ele><time>2026-05-01T09:59:32.403Z</time></trkpt><trkpt lat="35.1533888" lon="9.3452796"><ele>359.0</ele><time>2026-05-01T09:59:35.409Z</time></trkpt><trkpt lat="35.1534404" lon="9.3452101"><ele>359.0</ele><time>2026-05-01T09:59:38.404Z</time></trkpt><trkpt lat="35.1534182" lon="9.3451374"><ele>359.0</ele><time>2026-05-01T10:18:53.405Z</time></trkpt><trkpt lat="35.1533996" lon="9.3450334"><ele>359.0</ele><time>2026-05-01T10:18:56.446Z</time></trkpt><trkpt lat="35.1534291" lon="9.3449069"><ele>359.0</ele><time>2026-05-01T10:18:58.433Z</time></trkpt><trkpt lat="35.1534666" lon="9.344775"><ele>359.0</ele><time>2026-05-01T10:18:59.425Z</time></trkpt><trkpt lat="35.1535317" lon="9.3446026"><ele>359.0</ele><time>2026-05-01T10:19:00.437Z</time></trkpt><trkpt lat="35.1535907" lon="9.3444308"><ele>359.0</ele><time>2026-05-01T10:19:01.401Z</time></trkpt><trkpt lat="35.1536396" lon="9.3442692"><ele>359.0</ele><time>2026-05-01T10:19:02.42Z</time></trkpt><trkpt lat="35.1536834" lon="9.3441164"><ele>359.0</ele><time>2026-05-01T10:19:03.417Z</time></trkpt><trkpt lat="35.1537338" lon="9.3439648"><ele>359.0</ele><time>2026-05-01T10:19:04.422Z</time></trkpt><trkpt lat="35.1539025" lon="9.3435012"><ele>359.0</ele><time>2026-05-01T10:19:07.427Z</time></trkpt><trkpt lat="35.1539564" lon="9.343355"><ele>359.0</ele><time>2026-05-01T10:19:08.415Z</time></trkpt><trkpt lat="35.1540123" lon="9.3432087"><ele>359.0</ele><time>2026-05-01T10:19:09.41Z</time></trkpt><trkpt lat="35.1540682" lon="9.3430579"><ele>359.0</ele><time>2026-05-01T10:19:10.421Z</time></trkpt><trkpt lat="35.154124" lon="9.342901"><ele>359.25</ele><time>2026-05-01T10:19:11.412Z</time></trkpt><trkpt lat="35.1541832" lon="9.3427449"><ele>359.5</ele><time>2026-05-01T10:19:12.415Z</time></trkpt><trkpt lat="35.1542437" lon="9.3425765"><ele>359.75</ele><time>2026-05-01T10:19:13.41Z</time></trkpt><trkpt lat="35.1542977" lon="9.3424061"><ele>360.0</ele><time>2026-05-01T10:19:14.426Z</time></trkpt><trkpt lat="35.154358" lon="9.3422378"><ele>360.6666666666667</ele><time>2026-05-01T10:19:15.409Z</time></trkpt><trkpt lat="35.1544207" lon="9.3420602"><ele>361.33333333333337</ele><time>2026-05-01T10:19:16.399Z</time></trkpt><trkpt lat="35.1544814" lon="9.3418874"><ele>362.0</ele><time>2026-05-01T10:19:17.401Z</time></trkpt><trkpt lat="35.1545396" lon="9.3417082"><ele>362.0</ele><time>2026-05-01T10:19:18.4Z</time></trkpt><trkpt lat="35.1546004" lon="9.3415188"><ele>362.0</ele><time>2026-05-01T10:19:19.409Z</time></trkpt><trkpt lat="35.1546616" lon="9.3413293"><ele>362.0</ele><time>2026-05-01T10:19:20.395Z</time></trkpt><trkpt lat="35.1547229" lon="9.3411442"><ele>362.0</ele><time>2026-05-01T10:19:21.405Z</time></trkpt><trkpt lat="35.154784" lon="9.3409604"><ele>362.0</ele><time>2026-05-01T10:19:22.414Z</time></trkpt><trkpt lat="35.1548468" lon="9.3407772"><ele>362.0</ele><time>2026-05-01T10:19:23.43Z</time></trkpt><trkpt lat="35.1549102" lon="9.3405963"><ele>362.33333333333337</ele><time>2026-05-01T10:19:24.419Z</time></trkpt><trkpt lat="35.1549726" lon="9.340417"><ele>362.6666666666667</ele><time>2026-05-01T10:19:25.425Z</time></trkpt><trkpt lat="35.1550316" lon="9.3402346"><ele>363.0</ele><time>2026-05-01T10:19:26.433Z</time></trkpt><trkpt lat="35.1550933" lon="9.3400513"><ele>363.0</ele><time>2026-05-01T10:19:27.433Z</time></trkpt><trkpt lat="35.1551543" lon="9.3398782"><ele>363.0</ele><time>2026-05-01T10:19:28.413Z</time></trkpt><trkpt lat="35.155214" lon="9.3397102"><ele>363.0</ele><time>2026-05-01T10:19:29.411Z</time></trkpt><trkpt lat="35.1552708" lon="9.3395497"><ele>363.0</ele><time>2026-05-01T10:19:30.43Z</time></trkpt><trkpt lat="35.1553245" lon="9.3393924"><ele>363.0</ele><time>2026-05-01T10:19:31.441Z</time></trkpt><trkpt lat="35.1553789" lon="9.339235"><ele>363.0</ele><time>2026-05-01T10:19:32.418Z</time></trkpt><trkpt lat="35.1554316" lon="9.3390804"><ele>363.0</ele><time>2026-05-01T10:19:33.432Z</time></trkpt><trkpt lat="35.1554863" lon="9.3389287"><ele>363.0</ele><time>2026-05-01T10:19:34.419Z</time></trkpt><trkpt lat="35.1555416" lon="9.338769"><ele>363.0</ele><time>2026-05-01T10:19:35.424Z</time></trkpt><trkpt lat="35.1555954" lon="9.3386074"><ele>363.0</ele><time>2026-05-01T10:19:36.424Z</time></trkpt><trkpt lat="35.1556503" lon="9.3384462"><ele>363.0</ele><time>2026-05-01T10:19:37.42Z</time></trkpt><trkpt lat="35.1557018" lon="9.3382854"><ele>363.0</ele><time>2026-05-01T10:19:38.467Z</time></trkpt><trkpt lat="35.1557598" lon="9.338122"><ele>363.75</ele><time>2026-05-01T10:19:39.4Z</time></trkpt><trkpt lat="35.155819" lon="9.3379596"><ele>364.5</ele><time>2026-05-01T10:19:40.415Z</time></trkpt><trkpt lat="35.1558776" lon="9.3377964"><ele>365.25</ele><time>2026-05-01T10:19:41.401Z</time></trkpt><trkpt lat="35.1559356" lon="9.337633"><ele>366.0</ele><time>2026-05-01T10:19:42.404Z</time></trkpt><trkpt lat="35.1559943" lon="9.3374619"><ele>366.0</ele><time>2026-05-01T10:19:43.425Z</time></trkpt><trkpt lat="35.1560551" lon="9.3372924"><ele>366.0</ele><time>2026-05-01T10:19:44.4Z</time></trkpt><trkpt lat="35.1561179" lon="9.3371174"><ele>366.0</ele><time>2026-05-01T10:19:45.426Z</time></trkpt><trkpt lat="35.1561804" lon="9.3369419"><ele>366.3333333333333</ele><time>2026-05-01T10:19:46.441Z</time></trkpt><trkpt lat="35.1562445" lon="9.3367635"><ele>366.66666666666663</ele><time>2026-05-01T10:19:47.468Z</time></trkpt><trkpt lat="35.1563087" lon="9.3365791"><ele>367.0</ele><time>2026-05-01T10:19:48.408Z</time></trkpt><trkpt lat="35.1563716" lon="9.3363976"><ele>367.0</ele><time>2026-05-01T10:19:49.398Z</time></trkpt><trkpt lat="35.156437" lon="9.3362159"><ele>367.0</ele><time>2026-05-01T10:19:50.423Z</time></trkpt><trkpt lat="35.1565002" lon="9.3360341"><ele>367.0</ele><time>2026-05-01T10:19:51.415Z</time></trkpt><trkpt lat="35.15656" lon="9.3358498"><ele>367.0</ele><time>2026-05-01T10:19:52.4Z</time></trkpt><trkpt lat="35.1566236" lon="9.3356678"><ele>367.0</ele><time>2026-05-01T10:19:53.397Z</time></trkpt><trkpt lat="35.1566867" lon="9.3354827"><ele>367.0</ele><time>2026-05-01T10:19:54.397Z</time></trkpt><trkpt lat="35.1567499" lon="9.3352979"><ele>367.0</ele><time>2026-05-01T10:19:55.409Z</time></trkpt><trkpt lat="35.1568119" lon="9.3351112"><ele>367.0</ele><time>2026-05-01T10:19:56.41Z</time></trkpt><trkpt lat="35.1568774" lon="9.3349264"><ele>367.0</ele><time>2026-05-01T10:19:57.412Z</time></trkpt><trkpt lat="35.1569459" lon="9.3347363"><ele>367.0</ele><time>2026-05-01T10:19:58.403Z</time></trkpt><trkpt lat="35.1570136" lon="9.3345463"><ele>367.0</ele><time>2026-05-01T10:19:59.395Z</time></trkpt><trkpt lat="35.1570862" lon="9.3343553"><ele>367.0</ele><time>2026-05-01T10:20:00.422Z</time></trkpt><trkpt lat="35.1571566" lon="9.3341574"><ele>367.0</ele><time>2026-05-01T10:20:01.434Z</time></trkpt><trkpt lat="35.1572261" lon="9.3339607"><ele>367.0</ele><time>2026-05-01T10:20:02.413Z</time></trkpt><trkpt lat="35.1572963" lon="9.3337665"><ele>367.0</ele><time>2026-05-01T10:20:03.406Z</time></trkpt><trkpt lat="35.1573624" lon="9.3335741"><ele>367.0</ele><time>2026-05-01T10:20:04.416Z</time></trkpt><trkpt lat="35.1574265" lon="9.3333875"><ele>367.0</ele><time>2026-05-01T10:20:05.398Z</time></trkpt><trkpt lat="35.1574906" lon="9.3332004"><ele>367.0</ele><time>2026-05-01T10:20:06.407Z</time></trkpt><trkpt lat="35.157555" lon="9.3330171"><ele>367.5</ele><time>2026-05-01T10:20:07.413Z</time></trkpt><trkpt lat="35.1576897" lon="9.3326446"><ele>368.0</ele><time>2026-05-01T10:20:09.412Z</time></trkpt><trkpt lat="35.1577603" lon="9.3324537"><ele>368.0</ele><time>2026-05-01T10:20:10.412Z</time></trkpt><trkpt lat="35.1578263" lon="9.3322581"><ele>368.0</ele><time>2026-05-01T10:20:11.42Z</time></trkpt><trkpt lat="35.1578947" lon="9.3320601"><ele>368.0</ele><time>2026-05-01T10:20:12.414Z</time></trkpt><trkpt lat="35.1579614" lon="9.3318663"><ele>368.0</ele><time>2026-05-01T10:20:13.411Z</time></trkpt><trkpt lat="35.1580312" lon="9.331675"><ele>368.0</ele><time>2026-05-01T10:20:14.41Z</time></trkpt><trkpt lat="35.1580985" lon="9.3314819"><ele>368.0</ele><time>2026-05-01T10:20:15.415Z</time></trkpt><trkpt lat="35.1581661" lon="9.33129"><ele>368.33333333333337</ele><time>2026-05-01T10:20:16.408Z</time></trkpt><trkpt lat="35.1582317" lon="9.3310973"><ele>368.6666666666667</ele><time>2026-05-01T10:20:17.413Z</time></trkpt><trkpt lat="35.1583006" lon="9.3309095"><ele>369.0</ele><time>2026-05-01T10:20:18.418Z</time></trkpt><trkpt lat="35.1583691" lon="9.3307311"><ele>369.3333333333333</ele><time>2026-05-01T10:20:19.428Z</time></trkpt><trkpt lat="35.1584312" lon="9.3305527"><ele>369.66666666666663</ele><time>2026-05-01T10:20:20.422Z</time></trkpt><trkpt lat="35.1584923" lon="9.330381"><ele>370.0</ele><time>2026-05-01T10:20:21.415Z</time></trkpt><trkpt lat="35.1585554" lon="9.3302095"><ele>370.0</ele><time>2026-05-01T10:20:22.408Z</time></trkpt><trkpt lat="35.1586197" lon="9.3300389"><ele>370.0</ele><time>2026-05-01T10:20:23.406Z</time></trkpt><trkpt lat="35.1586761" lon="9.3298792"><ele>370.0</ele><time>2026-05-01T10:20:24.399Z</time></trkpt><trkpt lat="35.158728" lon="9.3297267"><ele>370.0</ele><time>2026-05-01T10:20:25.399Z</time></trkpt><trkpt lat="35.1587768" lon="9.3295917"><ele>370.16666666666663</ele><time>2026-05-01T10:20:26.441Z</time></trkpt><trkpt lat="35.1588201" lon="9.3294713"><ele>370.3333333333333</ele><time>2026-05-01T10:20:27.403Z</time></trkpt><trkpt lat="35.1588579" lon="9.3293617"><ele>370.5</ele><time>2026-05-01T10:20:28.41Z</time></trkpt><trkpt lat="35.1588893" lon="9.3292752"><ele>370.6666666666667</ele><time>2026-05-01T10:20:29.412Z</time></trkpt><trkpt lat="35.1589173" lon="9.3291952"><ele>370.83333333333337</ele><time>2026-05-01T10:20:30.416Z</time></trkpt><trkpt lat="35.1589424" lon="9.3291217"><ele>371.0</ele><time>2026-05-01T10:20:31.415Z</time></trkpt><trkpt lat="35.1589895" lon="9.3289758"><ele>370.83333333333337</ele><time>2026-05-01T10:20:33.411Z</time></trkpt><trkpt lat="35.159016" lon="9.3288867"><ele>370.6666666666667</ele><time>2026-05-01T10:20:34.402Z</time></trkpt><trkpt lat="35.1590514" lon="9.3287949"><ele>370.5</ele><time>2026-05-01T10:20:35.407Z</time></trkpt><trkpt lat="35.1590842" lon="9.3286945"><ele>370.3333333333333</ele><time>2026-05-01T10:20:36.437Z</time></trkpt><trkpt lat="35.1591255" lon="9.3285986"><ele>370.16666666666663</ele><time>2026-05-01T10:20:37.416Z</time></trkpt><trkpt lat="35.159167" lon="9.3284949"><ele>370.0</ele><time>2026-05-01T10:20:38.407Z</time></trkpt><trkpt lat="35.1592064" lon="9.3283771"><ele>370.0</ele><time>2026-05-01T10:20:39.411Z</time></trkpt><trkpt lat="35.1592473" lon="9.3282567"><ele>370.0</ele><time>2026-05-01T10:20:40.402Z</time></trkpt><trkpt lat="35.1592914" lon="9.3281327"><ele>370.0</ele><time>2026-05-01T10:20:41.408Z</time></trkpt><trkpt lat="35.1593342" lon="9.3280105"><ele>370.0</ele><time>2026-05-01T10:20:42.413Z</time></trkpt><trkpt lat="35.1593826" lon="9.3278947"><ele>370.0</ele><time>2026-05-01T10:20:43.411Z</time></trkpt><trkpt lat="35.1594246" lon="9.3277821"><ele>370.2</ele><time>2026-05-01T10:20:44.414Z</time></trkpt><trkpt lat="35.1594624" lon="9.3276756"><ele>370.4</ele><time>2026-05-01T10:20:45.412Z</time></trkpt><trkpt lat="35.1595308" lon="9.3274769"><ele>370.6</ele><time>2026-05-01T10:20:47.413Z</time></trkpt><trkpt lat="35.1595654" lon="9.3274017"><ele>370.8</ele><time>2026-05-01T10:20:48.412Z</time></trkpt><trkpt lat="35.1595917" lon="9.3273282"><ele>371.0</ele><time>2026-05-01T10:20:49.408Z</time></trkpt><trkpt lat="35.1596203" lon="9.3272524"><ele>371.0</ele><time>2026-05-01T10:20:50.407Z</time></trkpt><trkpt lat="35.1596573" lon="9.3271614"><ele>371.0</ele><time>2026-05-01T10:20:51.433Z</time></trkpt><trkpt lat="35.1596991" lon="9.3270579"><ele>371.0</ele><time>2026-05-01T10:20:52.407Z</time></trkpt><trkpt lat="35.1597479" lon="9.3269424"><ele>371.0</ele><time>2026-05-01T10:20:53.417Z</time></trkpt><trkpt lat="35.1597961" lon="9.3268125"><ele>371.0</ele><time>2026-05-01T10:20:54.406Z</time></trkpt><trkpt lat="35.1598437" lon="9.3266789"><ele>371.25</ele><time>2026-05-01T10:20:55.462Z</time></trkpt><trkpt lat="35.1598981" lon="9.3265283"><ele>371.5</ele><time>2026-05-01T10:20:56.409Z</time></trkpt><trkpt lat="35.159951" lon="9.3263819"><ele>371.75</ele><time>2026-05-01T10:20:57.411Z</time></trkpt><trkpt lat="35.1600001" lon="9.3262448"><ele>372.0</ele><time>2026-05-01T10:20:58.407Z</time></trkpt><trkpt lat="35.1600449" lon="9.3261165"><ele>372.0</ele><time>2026-05-01T10:20:59.414Z</time></trkpt><trkpt lat="35.1600868" lon="9.326011"><ele>372.0</ele><time>2026-05-01T10:21:00.412Z</time></trkpt><trkpt lat="35.1601212" lon="9.3259145"><ele>372.0</ele><time>2026-05-01T10:21:01.412Z</time></trkpt><trkpt lat="35.1601546" lon="9.3258288"><ele>372.0</ele><time>2026-05-01T10:21:02.408Z</time></trkpt><trkpt lat="35.1601944" lon="9.3257454"><ele>372.0</ele><time>2026-05-01T10:21:03.414Z</time></trkpt><trkpt lat="35.1602385" lon="9.3256441"><ele>372.0</ele><time>2026-05-01T10:21:04.414Z</time></trkpt><trkpt lat="35.1602826" lon="9.3255206"><ele>371.6666666666667</ele><time>2026-05-01T10:21:05.413Z</time></trkpt><trkpt lat="35.1603395" lon="9.325374"><ele>371.33333333333337</ele><time>2026-05-01T10:21:06.405Z</time></trkpt><trkpt lat="35.1603974" lon="9.3251984"><ele>371.0</ele><time>2026-05-01T10:21:07.403Z</time></trkpt><trkpt lat="35.1604636" lon="9.3250026"><ele>371.0</ele><time>2026-05-01T10:21:08.406Z</time></trkpt><trkpt lat="35.1605396" lon="9.3247991"><ele>371.0</ele><time>2026-05-01T10:21:09.4Z</time></trkpt><trkpt lat="35.1606282" lon="9.3246032"><ele>371.0</ele><time>2026-05-01T10:21:10.408Z</time></trkpt><trkpt lat="35.1607054" lon="9.3244226"><ele>371.33333333333337</ele><time>2026-05-01T10:21:11.398Z</time></trkpt><trkpt lat="35.1607685" lon="9.3242458"><ele>371.6666666666667</ele><time>2026-05-01T10:21:12.41Z</time></trkpt><trkpt lat="35.160835" lon="9.3240797"><ele>372.0</ele><time>2026-05-01T10:21:13.41Z</time></trkpt><trkpt lat="35.1608998" lon="9.3239115"><ele>372.0</ele><time>2026-05-01T10:21:14.393Z</time></trkpt><trkpt lat="35.1609684" lon="9.3237381"><ele>372.0</ele><time>2026-05-01T10:21:15.408Z</time></trkpt><trkpt lat="35.1610349" lon="9.3235697"><ele>372.0</ele><time>2026-05-01T10:21:16.417Z</time></trkpt><trkpt lat="35.1610991" lon="9.3233976"><ele>372.0</ele><time>2026-05-01T10:21:17.403Z</time></trkpt><trkpt lat="35.1611608" lon="9.3232242"><ele>372.0</ele><time>2026-05-01T10:21:18.408Z</time></trkpt><trkpt lat="35.161221" lon="9.3230549"><ele>372.0</ele><time>2026-05-01T10:21:19.411Z</time></trkpt><trkpt lat="35.1612856" lon="9.3228817"><ele>372.3333333333333</ele><time>2026-05-01T10:21:20.412Z</time></trkpt><trkpt lat="35.1613528" lon="9.3227047"><ele>372.66666666666663</ele><time>2026-05-01T10:21:21.407Z</time></trkpt><trkpt lat="35.16142" lon="9.3225291"><ele>373.0</ele><time>2026-05-01T10:21:22.414Z</time></trkpt><trkpt lat="35.1614868" lon="9.3223587"><ele>373.3333333333333</ele><time>2026-05-01T10:21:23.427Z</time></trkpt><trkpt lat="35.1615555" lon="9.3221781"><ele>373.6666666666667</ele><time>2026-05-01T10:21:24.42Z</time></trkpt><trkpt lat="35.1616181" lon="9.3219961"><ele>374.0</ele><time>2026-05-01T10:21:25.408Z</time></trkpt><trkpt lat="35.1616807" lon="9.3218188"><ele>374.0</ele><time>2026-05-01T10:21:26.4Z</time></trkpt><trkpt lat="35.1617511" lon="9.3216356"><ele>374.0</ele><time>2026-05-01T10:21:27.395Z</time></trkpt><trkpt lat="35.1618211" lon="9.3214523"><ele>374.0</ele><time>2026-05-01T10:21:28.41Z</time></trkpt><trkpt lat="35.1618932" lon="9.3212601"><ele>374.33333333333337</ele><time>2026-05-01T10:21:29.427Z</time></trkpt><trkpt lat="35.1619631" lon="9.3210746"><ele>374.6666666666667</ele><time>2026-05-01T10:21:30.412Z</time></trkpt><trkpt lat="35.1620364" lon="9.3208837"><ele>375.0</ele><time>2026-05-01T10:21:31.404Z</time></trkpt><trkpt lat="35.162109" lon="9.3206883"><ele>375.0</ele><time>2026-05-01T10:21:32.414Z</time></trkpt><trkpt lat="35.1621853" lon="9.3204944"><ele>375.0</ele><time>2026-05-01T10:21:33.411Z</time></trkpt><trkpt lat="35.1622586" lon="9.3202989"><ele>375.0</ele><time>2026-05-01T10:21:34.403Z</time></trkpt><trkpt lat="35.1623372" lon="9.3200998"><ele>375.3333333333333</ele><time>2026-05-01T10:21:35.412Z</time></trkpt><trkpt lat="35.1624166" lon="9.3198984"><ele>375.66666666666663</ele><time>2026-05-01T10:21:36.41Z</time></trkpt><trkpt lat="35.1624972" lon="9.3197009"><ele>376.0</ele><time>2026-05-01T10:21:37.405Z</time></trkpt><trkpt lat="35.1625729" lon="9.3195021"><ele>376.0</ele><time>2026-05-01T10:21:38.41Z</time></trkpt><trkpt lat="35.1626466" lon="9.3192973"><ele>376.0</ele><time>2026-05-01T10:21:39.407Z</time></trkpt><trkpt lat="35.1627233" lon="9.319083"><ele>376.0</ele><time>2026-05-01T10:21:40.424Z</time></trkpt><trkpt lat="35.1628015" lon="9.3188736"><ele>376.0</ele><time>2026-05-01T10:21:41.427Z</time></trkpt><trkpt lat="35.1628808" lon="9.3186543"><ele>376.0</ele><time>2026-05-01T10:21:42.408Z</time></trkpt><trkpt lat="35.1629658" lon="9.3184455"><ele>376.0</ele><time>2026-05-01T10:21:43.411Z</time></trkpt><trkpt lat="35.1630536" lon="9.3182348"><ele>376.0</ele><time>2026-05-01T10:21:44.493Z</time></trkpt><trkpt lat="35.1631424" lon="9.3180247"><ele>376.0</ele><time>2026-05-01T10:21:45.474Z</time></trkpt><trkpt lat="35.1632327" lon="9.3178127"><ele>376.0</ele><time>2026-05-01T10:21:46.461Z</time></trkpt><trkpt lat="35.1633127" lon="9.3175982"><ele>376.0</ele><time>2026-05-01T10:21:47.471Z</time></trkpt><trkpt lat="35.1633895" lon="9.3173849"><ele>376.0</ele><time>2026-05-01T10:21:48.46Z</time></trkpt><trkpt lat="35.1634678" lon="9.3171667"><ele>376.0</ele><time>2026-05-01T10:21:49.461Z</time></trkpt><trkpt lat="35.1635501" lon="9.3169507"><ele>376.66666666666663</ele><time>2026-05-01T10:21:50.47Z</time></trkpt><trkpt lat="35.1636303" lon="9.3167335"><ele>377.3333333333333</ele><time>2026-05-01T10:21:51.478Z</time></trkpt><trkpt lat="35.1637141" lon="9.3165156"><ele>378.0</ele><time>2026-05-01T10:21:52.479Z</time></trkpt><trkpt lat="35.1637951" lon="9.3162997"><ele>378.0</ele><time>2026-05-01T10:21:53.474Z</time></trkpt><trkpt lat="35.1638748" lon="9.3160806"><ele>378.0</ele><time>2026-05-01T10:21:54.487Z</time></trkpt><trkpt lat="35.1639577" lon="9.3158599"><ele>378.0</ele><time>2026-05-01T10:21:55.462Z</time></trkpt><trkpt lat="35.164043" lon="9.3156313"><ele>378.3333333333333</ele><time>2026-05-01T10:21:56.478Z</time></trkpt><trkpt lat="35.1641289" lon="9.315406"><ele>378.66666666666663</ele><time>2026-05-01T10:21:57.479Z</time></trkpt><trkpt lat="35.1642136" lon="9.3151839"><ele>379.0</ele><time>2026-05-01T10:21:58.469Z</time></trkpt><trkpt lat="35.1642975" lon="9.3149636"><ele>379.0</ele><time>2026-05-01T10:21:59.466Z</time></trkpt><trkpt lat="35.1643787" lon="9.3147437"><ele>379.0</ele><time>2026-05-01T10:22:00.46Z</time></trkpt><trkpt lat="35.1644549" lon="9.3145223"><ele>379.0</ele><time>2026-05-01T10:22:01.468Z</time></trkpt><trkpt lat="35.1645338" lon="9.3143031"><ele>379.0</ele><time>2026-05-01T10:22:02.468Z</time></trkpt><trkpt lat="35.1646163" lon="9.3140843"><ele>379.0</ele><time>2026-05-01T10:22:03.466Z</time></trkpt><trkpt lat="35.1646996" lon="9.3138721"><ele>379.0</ele><time>2026-05-01T10:22:04.464Z</time></trkpt><trkpt lat="35.1647843" lon="9.3136468"><ele>379.0</ele><time>2026-05-01T10:22:05.473Z</time></trkpt><trkpt lat="35.164867" lon="9.3134261"><ele>379.0</ele><time>2026-05-01T10:22:06.472Z</time></trkpt><trkpt lat="35.1649487" lon="9.3131995"><ele>379.0</ele><time>2026-05-01T10:22:07.477Z</time></trkpt><trkpt lat="35.165037" lon="9.3129753"><ele>379.0</ele><time>2026-05-01T10:22:08.469Z</time></trkpt><trkpt lat="35.1651243" lon="9.3127532"><ele>379.0</ele><time>2026-05-01T10:22:09.468Z</time></trkpt><trkpt lat="35.1652087" lon="9.3125333"><ele>379.0</ele><time>2026-05-01T10:22:10.479Z</time></trkpt><trkpt lat="35.1652945" lon="9.312312"><ele>379.66666666666663</ele><time>2026-05-01T10:22:11.479Z</time></trkpt><trkpt lat="35.1653766" lon="9.3120932"><ele>380.3333333333333</ele><time>2026-05-01T10:22:12.486Z</time></trkpt><trkpt lat="35.1654574" lon="9.3118734"><ele>381.0</ele><time>2026-05-01T10:22:13.47Z</time></trkpt><trkpt lat="35.165539" lon="9.3116534"><ele>381.0</ele><time>2026-05-01T10:22:14.476Z</time></trkpt><trkpt lat="35.1656227" lon="9.3114305"><ele>381.0</ele><time>2026-05-01T10:22:15.477Z</time></trkpt><trkpt lat="35.165706" lon="9.3112093"><ele>381.0</ele><time>2026-05-01T10:22:16.465Z</time></trkpt><trkpt lat="35.1657892" lon="9.3109869"><ele>381.0</ele><time>2026-05-01T10:22:17.469Z</time></trkpt><trkpt lat="35.165873" lon="9.31077"><ele>381.0</ele><time>2026-05-01T10:22:18.481Z</time></trkpt><trkpt lat="35.1659547" lon="9.3105443"><ele>381.0</ele><time>2026-05-01T10:22:19.466Z</time></trkpt><trkpt lat="35.1660405" lon="9.3103233"><ele>381.0</ele><time>2026-05-01T10:22:20.461Z</time></trkpt><trkpt lat="35.1661228" lon="9.3101047"><ele>381.0</ele><time>2026-05-01T10:22:21.472Z</time></trkpt><trkpt lat="35.1662099" lon="9.3098871"><ele>381.0</ele><time>2026-05-01T10:22:22.463Z</time></trkpt><trkpt lat="35.1662921" lon="9.3096666"><ele>381.3333333333333</ele><time>2026-05-01T10:22:23.467Z</time></trkpt><trkpt lat="35.1663787" lon="9.3094462"><ele>381.66666666666663</ele><time>2026-05-01T10:22:24.466Z</time></trkpt><trkpt lat="35.1664676" lon="9.3092259"><ele>382.0</ele><time>2026-05-01T10:22:25.477Z</time></trkpt><trkpt lat="35.1665527" lon="9.3090054"><ele>383.0</ele><time>2026-05-01T10:22:26.475Z</time></trkpt><trkpt lat="35.1666377" lon="9.3087865"><ele>384.0</ele><time>2026-05-01T10:22:27.473Z</time></trkpt><trkpt lat="35.1667187" lon="9.3085694"><ele>385.0</ele><time>2026-05-01T10:22:28.477Z</time></trkpt><trkpt lat="35.1667999" lon="9.3083495"><ele>385.0</ele><time>2026-05-01T10:22:29.474Z</time></trkpt><trkpt lat="35.1668811" lon="9.3081265"><ele>385.0</ele><time>2026-05-01T10:22:30.471Z</time></trkpt><trkpt lat="35.1669626" lon="9.3079071"><ele>385.0</ele><time>2026-05-01T10:22:31.477Z</time></trkpt><trkpt lat="35.1670461" lon="9.3076845"><ele>384.6666666666667</ele><time>2026-05-01T10:22:32.485Z</time></trkpt><trkpt lat="35.1671289" lon="9.3074621"><ele>384.33333333333337</ele><time>2026-05-01T10:22:33.473Z</time></trkpt><trkpt lat="35.1672145" lon="9.3072371"><ele>384.0</ele><time>2026-05-01T10:22:34.472Z</time></trkpt><trkpt lat="35.1672993" lon="9.3070167"><ele>384.66666666666663</ele><time>2026-05-01T10:22:35.46Z</time></trkpt><trkpt lat="35.16738" lon="9.3067952"><ele>385.3333333333333</ele><time>2026-05-01T10:22:36.47Z</time></trkpt><trkpt lat="35.1674613" lon="9.3065746"><ele>386.0</ele><time>2026-05-01T10:22:37.464Z</time></trkpt><trkpt lat="35.1675408" lon="9.3063518"><ele>386.0</ele><time>2026-05-01T10:22:38.478Z</time></trkpt><trkpt lat="35.1676208" lon="9.306134"><ele>386.0</ele><time>2026-05-01T10:22:39.468Z</time></trkpt><trkpt lat="35.1677028" lon="9.3059145"><ele>386.0</ele><time>2026-05-01T10:22:40.475Z</time></trkpt><trkpt lat="35.1677869" lon="9.3056926"><ele>385.66666666666663</ele><time>2026-05-01T10:22:41.466Z</time></trkpt><trkpt lat="35.1678749" lon="9.3054703"><ele>385.33333333333337</ele><time>2026-05-01T10:22:42.461Z</time></trkpt><trkpt lat="35.1679626" lon="9.3052477"><ele>385.0</ele><time>2026-05-01T10:22:43.461Z</time></trkpt><trkpt lat="35.1680508" lon="9.3050264"><ele>385.0</ele><time>2026-05-01T10:22:44.468Z</time></trkpt><trkpt lat="35.1681349" lon="9.3048046"><ele>385.0</ele><time>2026-05-01T10:22:45.478Z</time></trkpt><trkpt lat="35.1682204" lon="9.3045857"><ele>385.0</ele><time>2026-05-01T10:22:46.469Z</time></trkpt><trkpt lat="35.1683059" lon="9.3043665"><ele>385.0</ele><time>2026-05-01T10:22:47.47Z</time></trkpt><trkpt lat="35.168389" lon="9.3041444"><ele>385.0</ele><time>2026-05-01T10:22:48.472Z</time></trkpt><trkpt lat="35.1684711" lon="9.303924"><ele>385.0</ele><time>2026-05-01T10:22:49.456Z</time></trkpt><trkpt lat="35.1685518" lon="9.3037052"><ele>385.0</ele><time>2026-05-01T10:22:50.471Z</time></trkpt><trkpt lat="35.1686339" lon="9.3034847"><ele>385.0</ele><time>2026-05-01T10:22:51.477Z</time></trkpt><trkpt lat="35.1687177" lon="9.3032652"><ele>385.0</ele><time>2026-05-01T10:22:52.464Z</time></trkpt><trkpt lat="35.1687992" lon="9.3030473"><ele>384.6666666666667</ele><time>2026-05-01T10:22:53.474Z</time></trkpt><trkpt lat="35.1688831" lon="9.3028266"><ele>384.33333333333337</ele><time>2026-05-01T10:22:54.459Z</time></trkpt><trkpt lat="35.1689698" lon="9.3026065"><ele>384.0</ele><time>2026-05-01T10:22:55.47Z</time></trkpt><trkpt lat="35.1690548" lon="9.3023848"><ele>384.66666666666663</ele><time>2026-05-01T10:22:56.477Z</time></trkpt><trkpt lat="35.1691389" lon="9.3021619"><ele>385.3333333333333</ele><time>2026-05-01T10:22:57.489Z</time></trkpt><trkpt lat="35.1692269" lon="9.3019392"><ele>386.0</ele><time>2026-05-01T10:22:58.473Z</time></trkpt><trkpt lat="35.169309" lon="9.3017196"><ele>386.0</ele><time>2026-05-01T10:22:59.472Z</time></trkpt><trkpt lat="35.1693939" lon="9.3014923"><ele>386.0</ele><time>2026-05-01T10:23:00.466Z</time></trkpt><trkpt lat="35.1694775" lon="9.3012638"><ele>386.0</ele><time>2026-05-01T10:23:01.477Z</time></trkpt><trkpt lat="35.1695626" lon="9.3010307"><ele>386.0</ele><time>2026-05-01T10:23:02.479Z</time></trkpt><trkpt lat="35.1696512" lon="9.3007904"><ele>386.0</ele><time>2026-05-01T10:23:03.479Z</time></trkpt><trkpt lat="35.1697405" lon="9.3005535"><ele>386.0</ele><time>2026-05-01T10:23:04.475Z</time></trkpt><trkpt lat="35.1698319" lon="9.3003189"><ele>386.66666666666663</ele><time>2026-05-01T10:23:05.478Z</time></trkpt><trkpt lat="35.1699218" lon="9.3000795"><ele>387.33333333333337</ele><time>2026-05-01T10:23:06.486Z</time></trkpt><trkpt lat="35.1700114" lon="9.2998416"><ele>388.0</ele><time>2026-05-01T10:23:07.472Z</time></trkpt><trkpt lat="35.1700999" lon="9.2996124"><ele>388.0</ele><time>2026-05-01T10:23:08.476Z</time></trkpt><trkpt lat="35.1701895" lon="9.299381"><ele>388.0</ele><time>2026-05-01T10:23:09.495Z</time></trkpt><trkpt lat="35.1702765" lon="9.2991521"><ele>388.0</ele><time>2026-05-01T10:23:10.539Z</time></trkpt><trkpt lat="35.1703643" lon="9.2989168"><ele>388.6666666666667</ele><time>2026-05-01T10:23:11.528Z</time></trkpt><trkpt lat="35.1704537" lon="9.2986833"><ele>389.33333333333337</ele><time>2026-05-01T10:23:12.533Z</time></trkpt><trkpt lat="35.1705454" lon="9.2984458"><ele>390.0</ele><time>2026-05-01T10:23:13.528Z</time></trkpt><trkpt lat="35.170632" lon="9.2982075"><ele>390.0</ele><time>2026-05-01T10:23:14.537Z</time></trkpt><trkpt lat="35.170724" lon="9.2979733"><ele>390.0</ele><time>2026-05-01T10:23:15.523Z</time></trkpt><trkpt lat="35.1708104" lon="9.2977392"><ele>390.0</ele><time>2026-05-01T10:23:16.514Z</time></trkpt><trkpt lat="35.1708986" lon="9.2975061"><ele>390.0</ele><time>2026-05-01T10:23:17.532Z</time></trkpt><trkpt lat="35.1709859" lon="9.2972725"><ele>390.0</ele><time>2026-05-01T10:23:18.521Z</time></trkpt><trkpt lat="35.1710709" lon="9.2970378"><ele>390.0</ele><time>2026-05-01T10:23:19.512Z</time></trkpt><trkpt lat="35.1711572" lon="9.2968073"><ele>390.0</ele><time>2026-05-01T10:23:20.52Z</time></trkpt><trkpt lat="35.1712463" lon="9.2965753"><ele>390.0</ele><time>2026-05-01T10:23:21.525Z</time></trkpt><trkpt lat="35.1713381" lon="9.2963406"><ele>390.0</ele><time>2026-05-01T10:23:22.533Z</time></trkpt><trkpt lat="35.1714275" lon="9.2961018"><ele>390.0</ele><time>2026-05-01T10:23:23.529Z</time></trkpt><trkpt lat="35.1715176" lon="9.2958661"><ele>390.0</ele><time>2026-05-01T10:23:24.492Z</time></trkpt><trkpt lat="35.1716037" lon="9.2956339"><ele>390.0</ele><time>2026-05-01T10:23:25.481Z</time></trkpt><trkpt lat="35.1716898" lon="9.2953984"><ele>390.0</ele><time>2026-05-01T10:23:26.521Z</time></trkpt><trkpt lat="35.1717809" lon="9.2951699"><ele>390.0</ele><time>2026-05-01T10:23:27.5Z</time></trkpt><trkpt lat="35.1718649" lon="9.29494"><ele>390.0</ele><time>2026-05-01T10:23:28.46Z</time></trkpt><trkpt lat="35.1719477" lon="9.2947234"><ele>390.33333333333337</ele><time>2026-05-01T10:23:29.52Z</time></trkpt><trkpt lat="35.172025" lon="9.2945236"><ele>390.6666666666667</ele><time>2026-05-01T10:23:30.517Z</time></trkpt><trkpt lat="35.172104" lon="9.2943294"><ele>391.0</ele><time>2026-05-01T10:23:31.508Z</time></trkpt><trkpt lat="35.1721782" lon="9.2941391"><ele>391.0</ele><time>2026-05-01T10:23:32.502Z</time></trkpt><trkpt lat="35.172249" lon="9.2939449"><ele>391.0</ele><time>2026-05-01T10:23:33.507Z</time></trkpt><trkpt lat="35.1723234" lon="9.2937558"><ele>391.0</ele><time>2026-05-01T10:23:34.513Z</time></trkpt><trkpt lat="35.1723951" lon="9.2935611"><ele>391.0</ele><time>2026-05-01T10:23:35.472Z</time></trkpt><trkpt lat="35.1724653" lon="9.293363"><ele>391.0</ele><time>2026-05-01T10:23:36.508Z</time></trkpt><trkpt lat="35.172539" lon="9.2931687"><ele>391.0</ele><time>2026-05-01T10:23:37.496Z</time></trkpt><trkpt lat="35.1726192" lon="9.2929723"><ele>391.0</ele><time>2026-05-01T10:23:38.517Z</time></trkpt><trkpt lat="35.1726969" lon="9.2927693"><ele>391.0</ele><time>2026-05-01T10:23:39.49Z</time></trkpt><trkpt lat="35.1727756" lon="9.2925723"><ele>391.0</ele><time>2026-05-01T10:23:40.512Z</time></trkpt><trkpt lat="35.1728538" lon="9.2923675"><ele>390.6666666666667</ele><time>2026-05-01T10:23:41.514Z</time></trkpt><trkpt lat="35.1729312" lon="9.2921613"><ele>390.33333333333337</ele><time>2026-05-01T10:23:42.508Z</time></trkpt><trkpt lat="35.173005" lon="9.2919526"><ele>390.0</ele><time>2026-05-01T10:23:43.493Z</time></trkpt><trkpt lat="35.1730735" lon="9.2917482"><ele>390.0</ele><time>2026-05-01T10:23:44.516Z</time></trkpt><trkpt lat="35.1731498" lon="9.2915412"><ele>390.0</ele><time>2026-05-01T10:23:45.514Z</time></trkpt><trkpt lat="35.1732266" lon="9.291338"><ele>390.0</ele><time>2026-05-01T10:23:46.492Z</time></trkpt><trkpt lat="35.1733007" lon="9.2911383"><ele>390.33333333333337</ele><time>2026-05-01T10:23:47.505Z</time></trkpt><trkpt lat="35.1733728" lon="9.2909439"><ele>390.6666666666667</ele><time>2026-05-01T10:23:48.473Z</time></trkpt><trkpt lat="35.173443" lon="9.2907556"><ele>391.0</ele><time>2026-05-01T10:23:49.48Z</time></trkpt><trkpt lat="35.1735114" lon="9.2905715"><ele>391.33333333333337</ele><time>2026-05-01T10:23:50.502Z</time></trkpt><trkpt lat="35.1735785" lon="9.2903878"><ele>391.66666666666663</ele><time>2026-05-01T10:23:51.498Z</time></trkpt><trkpt lat="35.1736452" lon="9.2902063"><ele>392.0</ele><time>2026-05-01T10:23:52.521Z</time></trkpt><trkpt lat="35.173714" lon="9.2900279"><ele>392.0</ele><time>2026-05-01T10:23:53.51Z</time></trkpt><trkpt lat="35.1737812" lon="9.289853"><ele>392.0</ele><time>2026-05-01T10:23:54.506Z</time></trkpt><trkpt lat="35.1738471" lon="9.2896797"><ele>392.0</ele><time>2026-05-01T10:23:55.506Z</time></trkpt><trkpt lat="35.1739087" lon="9.2895143"><ele>392.0</ele><time>2026-05-01T10:23:56.496Z</time></trkpt><trkpt lat="35.173967" lon="9.2893589"><ele>392.0</ele><time>2026-05-01T10:23:57.498Z</time></trkpt><trkpt lat="35.1740225" lon="9.2892087"><ele>392.0</ele><time>2026-05-01T10:23:58.511Z</time></trkpt><trkpt lat="35.174076" lon="9.2890673"><ele>392.0</ele><time>2026-05-01T10:23:59.487Z</time></trkpt><trkpt lat="35.1741789" lon="9.2887963"><ele>392.20000000000005</ele><time>2026-05-01T10:24:01.482Z</time></trkpt><trkpt lat="35.1742271" lon="9.2886706"><ele>392.4</ele><time>2026-05-01T10:24:02.479Z</time></trkpt><trkpt lat="35.1742714" lon="9.2885611"><ele>392.6</ele><time>2026-05-01T10:24:03.515Z</time></trkpt><trkpt lat="35.1743087" lon="9.2884557"><ele>392.79999999999995</ele><time>2026-05-01T10:24:04.518Z</time></trkpt><trkpt lat="35.1743498" lon="9.2883563"><ele>393.0</ele><time>2026-05-01T10:24:05.495Z</time></trkpt><trkpt lat="35.1743818" lon="9.2882674"><ele>393.0</ele><time>2026-05-01T10:24:06.512Z</time></trkpt><trkpt lat="35.1744113" lon="9.2881959"><ele>393.0</ele><time>2026-05-01T10:24:07.529Z</time></trkpt><trkpt lat="35.1744554" lon="9.2880882"><ele>393.0</ele><time>2026-05-01T10:24:09.532Z</time></trkpt><trkpt lat="35.1744882" lon="9.2880141"><ele>393.0</ele><time>2026-05-01T10:24:11.488Z</time></trkpt><trkpt lat="35.1745214" lon="9.2879192"><ele>393.0</ele><time>2026-05-01T10:24:13.487Z</time></trkpt><trkpt lat="35.1745689" lon="9.2877603"><ele>393.0</ele><time>2026-05-01T10:24:15.502Z</time></trkpt><trkpt lat="35.1746059" lon="9.2876694"><ele>393.0</ele><time>2026-05-01T10:24:16.488Z</time></trkpt><trkpt lat="35.1746469" lon="9.2875684"><ele>393.0</ele><time>2026-05-01T10:24:17.526Z</time></trkpt><trkpt lat="35.1746833" lon="9.287471"><ele>393.0</ele><time>2026-05-01T10:24:18.52Z</time></trkpt><trkpt lat="35.1747215" lon="9.2873652"><ele>393.0</ele><time>2026-05-01T10:24:19.524Z</time></trkpt><trkpt lat="35.174762" lon="9.2872542"><ele>393.0</ele><time>2026-05-01T10:24:20.511Z</time></trkpt><trkpt lat="35.1748059" lon="9.2871372"><ele>393.0</ele><time>2026-05-01T10:24:21.484Z</time></trkpt><trkpt lat="35.1748495" lon="9.2870206"><ele>393.0</ele><time>2026-05-01T10:24:22.524Z</time></trkpt><trkpt lat="35.1748917" lon="9.2869094"><ele>393.0</ele><time>2026-05-01T10:24:23.509Z</time></trkpt><trkpt lat="35.1749328" lon="9.286802"><ele>393.0</ele><time>2026-05-01T10:24:24.491Z</time></trkpt><trkpt lat="35.1749761" lon="9.2866858"><ele>393.2</ele><time>2026-05-01T10:24:25.511Z</time></trkpt><trkpt lat="35.1750192" lon="9.2865687"><ele>393.4</ele><time>2026-05-01T10:24:26.492Z</time></trkpt><trkpt lat="35.1750628" lon="9.2864468"><ele>393.59999999999997</ele><time>2026-05-01T10:24:27.476Z</time></trkpt><trkpt lat="35.1751061" lon="9.2863231"><ele>393.79999999999995</ele><time>2026-05-01T10:24:28.523Z</time></trkpt><trkpt lat="35.175149" lon="9.2862004"><ele>394.0</ele><time>2026-05-01T10:24:29.492Z</time></trkpt><trkpt lat="35.1751957" lon="9.2860729"><ele>394.0</ele><time>2026-05-01T10:24:30.491Z</time></trkpt><trkpt lat="35.1752415" lon="9.2859518"><ele>394.0</ele><time>2026-05-01T10:24:31.48Z</time></trkpt><trkpt lat="35.1752884" lon="9.2858282"><ele>394.0</ele><time>2026-05-01T10:24:32.51Z</time></trkpt><trkpt lat="35.1753304" lon="9.2857217"><ele>394.0</ele><time>2026-05-01T10:24:33.515Z</time></trkpt><trkpt lat="35.1753695" lon="9.2856116"><ele>394.0</ele><time>2026-05-01T10:24:34.512Z</time></trkpt><trkpt lat="35.1754035" lon="9.2855261"><ele>394.1666666666667</ele><time>2026-05-01T10:24:35.517Z</time></trkpt><trkpt lat="35.1754345" lon="9.2854532"><ele>394.33333333333337</ele><time>2026-05-01T10:24:36.522Z</time></trkpt><trkpt lat="35.1754785" lon="9.2853498"><ele>394.5</ele><time>2026-05-01T10:24:38.454Z</time></trkpt><trkpt lat="35.1755303" lon="9.2852296"><ele>394.66666666666663</ele><time>2026-05-01T10:24:40.458Z</time></trkpt><trkpt lat="35.1755565" lon="9.2851576"><ele>394.8333333333333</ele><time>2026-05-01T10:24:41.46Z</time></trkpt><trkpt lat="35.1755847" lon="9.2850706"><ele>395.0</ele><time>2026-05-01T10:24:42.466Z</time></trkpt><trkpt lat="35.1756305" lon="9.284969"><ele>395.0</ele><time>2026-05-01T10:24:43.456Z</time></trkpt><trkpt lat="35.1756734" lon="9.2848614"><ele>395.0</ele><time>2026-05-01T10:24:44.484Z</time></trkpt><trkpt lat="35.1757164" lon="9.2847549"><ele>395.0</ele><time>2026-05-01T10:24:45.461Z</time></trkpt><trkpt lat="35.1757617" lon="9.2846448"><ele>395.0</ele><time>2026-05-01T10:24:46.485Z</time></trkpt><trkpt lat="35.1758051" lon="9.2845353"><ele>395.0</ele><time>2026-05-01T10:24:47.482Z</time></trkpt><trkpt lat="35.1758479" lon="9.2844314"><ele>395.2</ele><time>2026-05-01T10:24:48.483Z</time></trkpt><trkpt lat="35.1758838" lon="9.2843296"><ele>395.4</ele><time>2026-05-01T10:24:49.491Z</time></trkpt><trkpt lat="35.1759176" lon="9.2842275"><ele>395.6</ele><time>2026-05-01T10:24:50.483Z</time></trkpt><trkpt lat="35.1759559" lon="9.2841197"><ele>395.8</ele><time>2026-05-01T10:24:51.492Z</time></trkpt><trkpt lat="35.1759985" lon="9.2840046"><ele>396.0</ele><time>2026-05-01T10:24:52.485Z</time></trkpt><trkpt lat="35.1760446" lon="9.2838857"><ele>396.5</ele><time>2026-05-01T10:24:53.483Z</time></trkpt><trkpt lat="35.176096" lon="9.2837504"><ele>397.0</ele><time>2026-05-01T10:24:54.491Z</time></trkpt><trkpt lat="35.1761494" lon="9.283606"><ele>397.5</ele><time>2026-05-01T10:24:55.478Z</time></trkpt><trkpt lat="35.1762012" lon="9.2834634"><ele>398.0</ele><time>2026-05-01T10:24:56.497Z</time></trkpt><trkpt lat="35.1762568" lon="9.2833152"><ele>398.0</ele><time>2026-05-01T10:24:57.482Z</time></trkpt><trkpt lat="35.1763114" lon="9.283171"><ele>398.0</ele><time>2026-05-01T10:24:58.448Z</time></trkpt><trkpt lat="35.1763661" lon="9.2830335"><ele>398.0</ele><time>2026-05-01T10:24:59.488Z</time></trkpt><trkpt lat="35.1764192" lon="9.2829032"><ele>398.0</ele><time>2026-05-01T10:25:00.483Z</time></trkpt><trkpt lat="35.176472" lon="9.2827732"><ele>397.99999999999994</ele><time>2026-05-01T10:25:01.467Z</time></trkpt><trkpt lat="35.1765248" lon="9.2826499"><ele>398.0</ele><time>2026-05-01T10:25:02.487Z</time></trkpt><trkpt lat="35.1765672" lon="9.2825428"><ele>398.0</ele><time>2026-05-01T10:25:03.475Z</time></trkpt><trkpt lat="35.1766029" lon="9.2824446"><ele>398.0</ele><time>2026-05-01T10:25:04.472Z</time></trkpt><trkpt lat="35.1766395" lon="9.2823602"><ele>397.99999999999994</ele><time>2026-05-01T10:25:05.479Z</time></trkpt><trkpt lat="35.1766712" lon="9.2822826"><ele>398.0</ele><time>2026-05-01T10:25:06.482Z</time></trkpt><trkpt lat="35.1767038" lon="9.2822046"><ele>397.99999999999994</ele><time>2026-05-01T10:25:07.48Z</time></trkpt><trkpt lat="35.1767327" lon="9.2821295"><ele>398.0</ele><time>2026-05-01T10:25:08.488Z</time></trkpt><trkpt lat="35.1767873" lon="9.2819929"><ele>398.0</ele><time>2026-05-01T10:25:10.456Z</time></trkpt><trkpt lat="35.1768177" lon="9.2819244"><ele>398.0</ele><time>2026-05-01T10:25:11.48Z</time></trkpt><trkpt lat="35.1768631" lon="9.2818074"><ele>397.99999999999994</ele><time>2026-05-01T10:25:13.482Z</time></trkpt><trkpt lat="35.176896" lon="9.2817221"><ele>398.0</ele><time>2026-05-01T10:25:15.474Z</time></trkpt><trkpt lat="35.1769267" lon="9.2816473"><ele>398.0</ele><time>2026-05-01T10:25:17.493Z</time></trkpt><trkpt lat="35.1769687" lon="9.2815509"><ele>398.0</ele><time>2026-05-01T10:25:20.467Z</time></trkpt><trkpt lat="35.1770139" lon="9.2814508"><ele>398.0</ele><time>2026-05-01T10:25:22.471Z</time></trkpt><trkpt lat="35.1770683" lon="9.2813339"><ele>398.0</ele><time>2026-05-01T10:25:24.48Z</time></trkpt><trkpt lat="35.1771196" lon="9.2812017"><ele>398.0</ele><time>2026-05-01T10:25:26.466Z</time></trkpt><trkpt lat="35.1771698" lon="9.2810778"><ele>398.2</ele><time>2026-05-01T10:25:28.479Z</time></trkpt><trkpt lat="35.1772113" lon="9.2809681"><ele>398.4</ele><time>2026-05-01T10:25:30.475Z</time></trkpt><trkpt lat="35.1772527" lon="9.2808502"><ele>398.59999999999997</ele><time>2026-05-01T10:25:32.487Z</time></trkpt><trkpt lat="35.177296" lon="9.2807513"><ele>398.79999999999995</ele><time>2026-05-01T10:25:34.49Z</time></trkpt><trkpt lat="35.1773403" lon="9.2806544"><ele>399.0</ele><time>2026-05-01T10:25:36.485Z</time></trkpt><trkpt lat="35.177371" lon="9.2805633"><ele>399.1666666666667</ele><time>2026-05-01T10:25:38.479Z</time></trkpt><trkpt lat="35.1774003" lon="9.2804845"><ele>399.33333333333337</ele><time>2026-05-01T10:25:41.489Z</time></trkpt><trkpt lat="35.1774335" lon="9.2804167"><ele>399.5</ele><time>2026-05-01T10:25:45.476Z</time></trkpt><trkpt lat="35.1774716" lon="9.2803367"><ele>399.6666666666667</ele><time>2026-05-01T10:25:49.496Z</time></trkpt><trkpt lat="35.1775184" lon="9.280247"><ele>399.83333333333337</ele><time>2026-05-01T10:25:53.492Z</time></trkpt><trkpt lat="35.177552" lon="9.2801632"><ele>400.0</ele><time>2026-05-01T10:25:56.482Z</time></trkpt><trkpt lat="35.1775813" lon="9.2800762"><ele>400.00000000000006</ele><time>2026-05-01T10:25:59.498Z</time></trkpt><trkpt lat="35.1776274" lon="9.2800003"><ele>400.0</ele><time>2026-05-01T10:26:01.494Z</time></trkpt><trkpt lat="35.1776683" lon="9.2799165"><ele>400.0</ele><time>2026-05-01T10:26:03.492Z</time></trkpt><trkpt lat="35.1777077" lon="9.2798265"><ele>400.0</ele><time>2026-05-01T10:26:05.462Z</time></trkpt><trkpt lat="35.1777531" lon="9.279708"><ele>400.00000000000006</ele><time>2026-05-01T10:26:07.496Z</time></trkpt><trkpt lat="35.1777746" lon="9.2796301"><ele>400.0</ele><time>2026-05-01T10:26:08.518Z</time></trkpt><trkpt lat="35.1778052" lon="9.2795463"><ele>400.00000000000006</ele><time>2026-05-01T10:26:09.505Z</time></trkpt><trkpt lat="35.1778358" lon="9.2794577"><ele>400.0</ele><time>2026-05-01T10:26:10.522Z</time></trkpt><trkpt lat="35.1778661" lon="9.2793706"><ele>400.0</ele><time>2026-05-01T10:26:11.494Z</time></trkpt><trkpt lat="35.1779051" lon="9.2792843"><ele>400.0</ele><time>2026-05-01T10:26:12.528Z</time></trkpt><trkpt lat="35.177948" lon="9.2792045"><ele>400.00000000000006</ele><time>2026-05-01T10:26:13.516Z</time></trkpt><trkpt lat="35.1779835" lon="9.2791225"><ele>400.0</ele><time>2026-05-01T10:26:14.468Z</time></trkpt><trkpt lat="35.1780187" lon="9.279044"><ele>400.00000000000006</ele><time>2026-05-01T10:26:15.483Z</time></trkpt><trkpt lat="35.1780551" lon="9.2789619"><ele>400.0</ele><time>2026-05-01T10:26:16.522Z</time></trkpt><trkpt lat="35.178088" lon="9.2788849"><ele>400.0</ele><time>2026-05-01T10:26:17.509Z</time></trkpt><trkpt lat="35.1781394" lon="9.2787647"><ele>400.0</ele><time>2026-05-01T10:26:19.517Z</time></trkpt><trkpt lat="35.1781745" lon="9.278671"><ele>400.00000000000006</ele><time>2026-05-01T10:26:21.489Z</time></trkpt><trkpt lat="35.1782073" lon="9.2785942"><ele>400.0</ele><time>2026-05-01T10:26:23.512Z</time></trkpt><trkpt lat="35.178232" lon="9.2785231"><ele>400.1666666666667</ele><time>2026-05-01T10:26:25.516Z</time></trkpt><trkpt lat="35.1782631" lon="9.2784524"><ele>400.33333333333337</ele><time>2026-05-01T10:26:27.534Z</time></trkpt><trkpt lat="35.1782869" lon="9.2783361"><ele>400.5</ele><time>2026-05-01T10:26:29.51Z</time></trkpt><trkpt lat="35.1783348" lon="9.2781977"><ele>400.66666666666663</ele><time>2026-05-01T10:26:31.498Z</time></trkpt><trkpt lat="35.1783632" lon="9.2781236"><ele>400.8333333333333</ele><time>2026-05-01T10:26:32.528Z</time></trkpt><trkpt lat="35.1783954" lon="9.278045"><ele>401.0</ele><time>2026-05-01T10:26:33.489Z</time></trkpt><trkpt lat="35.1784643" lon="9.2778887"><ele>401.3333333333333</ele><time>2026-05-01T10:26:35.449Z</time></trkpt><trkpt lat="35.1785042" lon="9.2778125"><ele>401.66666666666663</ele><time>2026-05-01T10:26:36.478Z</time></trkpt><trkpt lat="35.1785879" lon="9.2776524"><ele>402.0</ele><time>2026-05-01T10:26:38.49Z</time></trkpt><trkpt lat="35.17871" lon="9.2774068"><ele>402.33333333333337</ele><time>2026-05-01T10:26:41.449Z</time></trkpt><trkpt lat="35.178849" lon="9.2771488"><ele>402.6666666666667</ele><time>2026-05-01T10:26:44.465Z</time></trkpt><trkpt lat="35.1788961" lon="9.2770629"><ele>403.0</ele><time>2026-05-01T10:26:45.49Z</time></trkpt><trkpt lat="35.1790018" lon="9.2768981"><ele>403.00000000000006</ele><time>2026-05-01T10:26:47.448Z</time></trkpt><trkpt lat="35.1790549" lon="9.276824"><ele>403.0</ele><time>2026-05-01T10:26:48.491Z</time></trkpt><trkpt lat="35.1791113" lon="9.2767464"><ele>403.0</ele><time>2026-05-01T10:26:49.458Z</time></trkpt><trkpt lat="35.1791691" lon="9.2766684"><ele>403.0</ele><time>2026-05-01T10:26:50.478Z</time></trkpt><trkpt lat="35.1792237" lon="9.2765989"><ele>403.00000000000006</ele><time>2026-05-01T10:26:51.444Z</time></trkpt><trkpt lat="35.1792798" lon="9.2765264"><ele>403.0</ele><time>2026-05-01T10:26:52.565Z</time></trkpt><trkpt lat="35.1793351" lon="9.2764526"><ele>403.0</ele><time>2026-05-01T10:26:53.521Z</time></trkpt><trkpt lat="35.179388" lon="9.2763822"><ele>403.0</ele><time>2026-05-01T10:26:54.499Z</time></trkpt><trkpt lat="35.179435" lon="9.2763163"><ele>403.0</ele><time>2026-05-01T10:26:55.47Z</time></trkpt><trkpt lat="35.1794845" lon="9.2762449"><ele>403.0</ele><time>2026-05-01T10:26:56.458Z</time></trkpt><trkpt lat="35.1795316" lon="9.2761756"><ele>403.0</ele><time>2026-05-01T10:26:57.456Z</time></trkpt><trkpt lat="35.1795794" lon="9.2761011"><ele>403.0</ele><time>2026-05-01T10:26:58.453Z</time></trkpt><trkpt lat="35.1796326" lon="9.2760428"><ele>403.0</ele><time>2026-05-01T10:26:59.477Z</time></trkpt><trkpt lat="35.179676" lon="9.2759868"><ele>403.00000000000006</ele><time>2026-05-01T10:27:00.462Z</time></trkpt><trkpt lat="35.1797205" lon="9.2759282"><ele>403.0</ele><time>2026-05-01T10:27:01.446Z</time></trkpt><trkpt lat="35.1797622" lon="9.2758661"><ele>403.0</ele><time>2026-05-01T10:27:02.451Z</time></trkpt><trkpt lat="35.1798075" lon="9.2758111"><ele>403.0</ele><time>2026-05-01T10:27:03.456Z</time></trkpt><trkpt lat="35.1798761" lon="9.2757062"><ele>403.00000000000006</ele><time>2026-05-01T10:27:05.446Z</time></trkpt><trkpt lat="35.1799587" lon="9.2755989"><ele>403.0</ele><time>2026-05-01T10:27:07.446Z</time></trkpt><trkpt lat="35.180008" lon="9.2755422"><ele>403.2857142857143</ele><time>2026-05-01T10:27:08.445Z</time></trkpt><trkpt lat="35.1800554" lon="9.275481"><ele>403.57142857142856</ele><time>2026-05-01T10:27:09.504Z</time></trkpt><trkpt lat="35.1801052" lon="9.2754185"><ele>403.85714285714283</ele><time>2026-05-01T10:27:10.458Z</time></trkpt><trkpt lat="35.1801465" lon="9.2753515"><ele>404.1428571428571</ele><time>2026-05-01T10:27:11.447Z</time></trkpt><trkpt lat="35.1801928" lon="9.2752871"><ele>404.42857142857144</ele><time>2026-05-01T10:27:12.46Z</time></trkpt><trkpt lat="35.1802413" lon="9.275224"><ele>404.71428571428567</ele><time>2026-05-01T10:27:13.457Z</time></trkpt><trkpt lat="35.1802841" lon="9.2751625"><ele>405.0</ele><time>2026-05-01T10:27:14.455Z</time></trkpt><trkpt lat="35.1803289" lon="9.2751069"><ele>405.0</ele><time>2026-05-01T10:27:15.472Z</time></trkpt><trkpt lat="35.1803733" lon="9.2750512"><ele>405.0</ele><time>2026-05-01T10:27:16.443Z</time></trkpt><trkpt lat="35.1804488" lon="9.2749542"><ele>405.0</ele><time>2026-05-01T10:27:18.455Z</time></trkpt><trkpt lat="35.1805231" lon="9.2748633"><ele>405.0</ele><time>2026-05-01T10:27:20.463Z</time></trkpt><trkpt lat="35.1805633" lon="9.274796"><ele>405.0</ele><time>2026-05-01T10:27:21.452Z</time></trkpt><trkpt lat="35.1806097" lon="9.2747254"><ele>405.0</ele><time>2026-05-01T10:27:22.47Z</time></trkpt><trkpt lat="35.180664" lon="9.2746491"><ele>404.99999999999994</ele><time>2026-05-01T10:27:23.467Z</time></trkpt><trkpt lat="35.180712" lon="9.2745741"><ele>405.0</ele><time>2026-05-01T10:27:24.467Z</time></trkpt><trkpt lat="35.1807563" lon="9.2745039"><ele>405.0</ele><time>2026-05-01T10:27:25.448Z</time></trkpt><trkpt lat="35.1807935" lon="9.2744351"><ele>405.0</ele><time>2026-05-01T10:27:26.451Z</time></trkpt><trkpt lat="35.1808283" lon="9.2743693"><ele>405.0</ele><time>2026-05-01T10:27:27.457Z</time></trkpt><trkpt lat="35.1808648" lon="9.2742938"><ele>404.99999999999994</ele><time>2026-05-01T10:27:28.444Z</time></trkpt><trkpt lat="35.1809047" lon="9.2742134"><ele>405.0</ele><time>2026-05-01T10:27:29.45Z</time></trkpt><trkpt lat="35.180949" lon="9.2741263"><ele>405.0</ele><time>2026-05-01T10:27:30.462Z</time></trkpt><trkpt lat="35.1809872" lon="9.2740279"><ele>405.0</ele><time>2026-05-01T10:27:31.457Z</time></trkpt><trkpt lat="35.1810428" lon="9.2739206"><ele>405.0</ele><time>2026-05-01T10:27:32.456Z</time></trkpt><trkpt lat="35.1811002" lon="9.2738082"><ele>405.0</ele><time>2026-05-01T10:27:33.459Z</time></trkpt><trkpt lat="35.1811574" lon="9.2736979"><ele>405.0</ele><time>2026-05-01T10:27:34.463Z</time></trkpt><trkpt lat="35.1812139" lon="9.2735938"><ele>405.0</ele><time>2026-05-01T10:27:35.449Z</time></trkpt><trkpt lat="35.181267" lon="9.2734901"><ele>405.0</ele><time>2026-05-01T10:27:36.446Z</time></trkpt><trkpt lat="35.1813187" lon="9.2733811"><ele>405.0</ele><time>2026-05-01T10:27:37.47Z</time></trkpt><trkpt lat="35.181374" lon="9.2732648"><ele>405.0</ele><time>2026-05-01T10:27:38.462Z</time></trkpt><trkpt lat="35.1814314" lon="9.2731426"><ele>405.0</ele><time>2026-05-01T10:27:39.452Z</time></trkpt><trkpt lat="35.1814877" lon="9.2730234"><ele>405.25</ele><time>2026-05-01T10:27:40.442Z</time></trkpt><trkpt lat="35.1815444" lon="9.2729043"><ele>405.5</ele><time>2026-05-01T10:27:41.452Z</time></trkpt><trkpt lat="35.1816042" lon="9.2727828"><ele>405.75</ele><time>2026-05-01T10:27:42.453Z</time></trkpt><trkpt lat="35.1816649" lon="9.2726599"><ele>406.0</ele><time>2026-05-01T10:27:43.467Z</time></trkpt><trkpt lat="35.1817287" lon="9.2725298"><ele>406.0</ele><time>2026-05-01T10:27:44.443Z</time></trkpt><trkpt lat="35.1817968" lon="9.2723962"><ele>406.0</ele><time>2026-05-01T10:27:45.452Z</time></trkpt><trkpt lat="35.1818656" lon="9.2722577"><ele>406.0</ele><time>2026-05-01T10:27:46.455Z</time></trkpt><trkpt lat="35.1819345" lon="9.2721187"><ele>406.0</ele><time>2026-05-01T10:27:47.444Z</time></trkpt><trkpt lat="35.1820074" lon="9.2719739"><ele>405.5</ele><time>2026-05-01T10:27:48.453Z</time></trkpt><trkpt lat="35.1820818" lon="9.27183"><ele>405.0</ele><time>2026-05-01T10:27:49.455Z</time></trkpt><trkpt lat="35.1821552" lon="9.2716898"><ele>404.5</ele><time>2026-05-01T10:27:50.487Z</time></trkpt><trkpt lat="35.1822273" lon="9.2715469"><ele>404.0</ele><time>2026-05-01T10:27:51.458Z</time></trkpt><trkpt lat="35.1823002" lon="9.2713989"><ele>404.25</ele><time>2026-05-01T10:27:52.458Z</time></trkpt><trkpt lat="35.1823734" lon="9.2712545"><ele>404.5</ele><time>2026-05-01T10:27:53.447Z</time></trkpt><trkpt lat="35.1824454" lon="9.2711135"><ele>404.75</ele><time>2026-05-01T10:27:54.462Z</time></trkpt><trkpt lat="35.1825115" lon="9.2709817"><ele>405.0</ele><time>2026-05-01T10:27:55.466Z</time></trkpt><trkpt lat="35.1825769" lon="9.2708533"><ele>405.0</ele><time>2026-05-01T10:27:56.459Z</time></trkpt><trkpt lat="35.1826423" lon="9.2707229"><ele>405.0</ele><time>2026-05-01T10:27:57.476Z</time></trkpt><trkpt lat="35.1827036" lon="9.2705995"><ele>405.0</ele><time>2026-05-01T10:27:58.457Z</time></trkpt><trkpt lat="35.1827587" lon="9.2704847"><ele>405.0</ele><time>2026-05-01T10:27:59.484Z</time></trkpt><trkpt lat="35.1828082" lon="9.2703817"><ele>405.4</ele><time>2026-05-01T10:28:00.474Z</time></trkpt><trkpt lat="35.182863" lon="9.2702842"><ele>405.8</ele><time>2026-05-01T10:28:01.468Z</time></trkpt><trkpt lat="35.1829008" lon="9.2701916"><ele>406.20000000000005</ele><time>2026-05-01T10:28:02.468Z</time></trkpt><trkpt lat="35.1829355" lon="9.2701076"><ele>406.6</ele><time>2026-05-01T10:28:03.46Z</time></trkpt><trkpt lat="35.1829696" lon="9.2700319"><ele>407.0</ele><time>2026-05-01T10:28:04.451Z</time></trkpt><trkpt lat="35.1830226" lon="9.2698959"><ele>407.0</ele><time>2026-05-01T10:28:06.461Z</time></trkpt><trkpt lat="35.1830597" lon="9.2698094"><ele>407.0</ele><time>2026-05-01T10:28:07.462Z</time></trkpt><trkpt lat="35.1831049" lon="9.2697214"><ele>407.0</ele><time>2026-05-01T10:28:08.475Z</time></trkpt><trkpt lat="35.1831518" lon="9.2696174"><ele>407.0</ele><time>2026-05-01T10:28:09.46Z</time></trkpt><trkpt lat="35.1832049" lon="9.269512"><ele>407.0</ele><time>2026-05-01T10:28:10.451Z</time></trkpt><trkpt lat="35.1832608" lon="9.2694042"><ele>407.0</ele><time>2026-05-01T10:28:11.484Z</time></trkpt><trkpt lat="35.1833188" lon="9.2692905"><ele>407.0</ele><time>2026-05-01T10:28:12.463Z</time></trkpt><trkpt lat="35.1833792" lon="9.2691754"><ele>407.0</ele><time>2026-05-01T10:28:13.45Z</time></trkpt><trkpt lat="35.1834424" lon="9.2690544"><ele>407.0</ele><time>2026-05-01T10:28:14.459Z</time></trkpt><trkpt lat="35.1835087" lon="9.2689221"><ele>407.25</ele><time>2026-05-01T10:28:15.445Z</time></trkpt><trkpt lat="35.1835733" lon="9.2687918"><ele>407.5</ele><time>2026-05-01T10:28:16.454Z</time></trkpt><trkpt lat="35.1836385" lon="9.2686592"><ele>407.75</ele><time>2026-05-01T10:28:17.451Z</time></trkpt><trkpt lat="35.1837085" lon="9.2685196"><ele>408.0</ele><time>2026-05-01T10:28:18.457Z</time></trkpt><trkpt lat="35.1837782" lon="9.2683809"><ele>408.0</ele><time>2026-05-01T10:28:19.459Z</time></trkpt><trkpt lat="35.1838498" lon="9.2682387"><ele>408.0</ele><time>2026-05-01T10:28:20.452Z</time></trkpt><trkpt lat="35.1839234" lon="9.2680944"><ele>408.0</ele><time>2026-05-01T10:28:21.499Z</time></trkpt><trkpt lat="35.1839957" lon="9.2679494"><ele>408.0</ele><time>2026-05-01T10:28:22.45Z</time></trkpt><trkpt lat="35.1840692" lon="9.2678014"><ele>407.75</ele><time>2026-05-01T10:28:23.462Z</time></trkpt><trkpt lat="35.1841442" lon="9.2676506"><ele>407.5</ele><time>2026-05-01T10:28:24.448Z</time></trkpt><trkpt lat="35.1842187" lon="9.2675016"><ele>407.25</ele><time>2026-05-01T10:28:25.472Z</time></trkpt><trkpt lat="35.1842946" lon="9.2673498"><ele>407.0</ele><time>2026-05-01T10:28:26.446Z</time></trkpt><trkpt lat="35.1843753" lon="9.2671846"><ele>407.66666666666663</ele><time>2026-05-01T10:28:27.447Z</time></trkpt><trkpt lat="35.184459" lon="9.2670112"><ele>408.33333333333337</ele><time>2026-05-01T10:28:28.448Z</time></trkpt><trkpt lat="35.1845467" lon="9.2668183"><ele>409.0</ele><time>2026-05-01T10:28:29.464Z</time></trkpt><trkpt lat="35.1846506" lon="9.2666007"><ele>409.0</ele><time>2026-05-01T10:28:30.468Z</time></trkpt><trkpt lat="35.1847631" lon="9.2663739"><ele>409.0</ele><time>2026-05-01T10:28:31.474Z</time></trkpt><trkpt lat="35.1848703" lon="9.2661642"><ele>409.0</ele><time>2026-05-01T10:28:32.473Z</time></trkpt><trkpt lat="35.1849711" lon="9.2659695"><ele>409.0</ele><time>2026-05-01T10:28:33.465Z</time></trkpt><trkpt lat="35.1850634" lon="9.2657905"><ele>409.0</ele><time>2026-05-01T10:28:34.453Z</time></trkpt><trkpt lat="35.1851511" lon="9.2656212"><ele>409.0</ele><time>2026-05-01T10:28:35.458Z</time></trkpt><trkpt lat="35.1852338" lon="9.2654641"><ele>409.0</ele><time>2026-05-01T10:28:36.459Z</time></trkpt><trkpt lat="35.1853116" lon="9.2653145"><ele>409.0</ele><time>2026-05-01T10:28:37.465Z</time></trkpt><trkpt lat="35.185387" lon="9.2651664"><ele>409.0</ele><time>2026-05-01T10:28:38.47Z</time></trkpt><trkpt lat="35.1854623" lon="9.265017"><ele>409.0</ele><time>2026-05-01T10:28:39.453Z</time></trkpt><trkpt lat="35.1855407" lon="9.2648617"><ele>409.6666666666667</ele><time>2026-05-01T10:28:40.455Z</time></trkpt><trkpt lat="35.1856165" lon="9.264707"><ele>410.33333333333337</ele><time>2026-05-01T10:28:41.467Z</time></trkpt><trkpt lat="35.1856947" lon="9.2645483"><ele>411.0</ele><time>2026-05-01T10:28:42.463Z</time></trkpt><trkpt lat="35.1857732" lon="9.2643902"><ele>411.0</ele><time>2026-05-01T10:28:43.462Z</time></trkpt><trkpt lat="35.1858527" lon="9.2642287"><ele>411.0</ele><time>2026-05-01T10:28:44.452Z</time></trkpt><trkpt lat="35.185932" lon="9.2640455"><ele>411.0</ele><time>2026-05-01T10:28:45.469Z</time></trkpt><trkpt lat="35.186028" lon="9.2638279"><ele>411.0</ele><time>2026-05-01T10:28:46.446Z</time></trkpt><trkpt lat="35.1861511" lon="9.2635837"><ele>411.0</ele><time>2026-05-01T10:28:47.463Z</time></trkpt><trkpt lat="35.1862874" lon="9.2633044"><ele>411.5</ele><time>2026-05-01T10:28:48.47Z</time></trkpt><trkpt lat="35.1864363" lon="9.263008"><ele>412.0</ele><time>2026-05-01T10:28:49.466Z</time></trkpt><trkpt lat="35.186592" lon="9.2627284"><ele>412.0</ele><time>2026-05-01T10:28:50.462Z</time></trkpt><trkpt lat="35.1867326" lon="9.2624585"><ele>412.0</ele><time>2026-05-01T10:28:51.41Z</time></trkpt><trkpt lat="35.1868711" lon="9.2622132"><ele>412.0</ele><time>2026-05-01T10:28:52.434Z</time></trkpt><trkpt lat="35.1869956" lon="9.2619725"><ele>412.0</ele><time>2026-05-01T10:28:53.42Z</time></trkpt><trkpt lat="35.1871193" lon="9.2617381"><ele>412.0</ele><time>2026-05-01T10:28:54.408Z</time></trkpt><trkpt lat="35.1872433" lon="9.2614964"><ele>412.0</ele><time>2026-05-01T10:28:55.458Z</time></trkpt><trkpt lat="35.1873612" lon="9.2612563"><ele>412.0</ele><time>2026-05-01T10:28:56.467Z</time></trkpt><trkpt lat="35.1874776" lon="9.2610228"><ele>412.0</ele><time>2026-05-01T10:28:57.47Z</time></trkpt><trkpt lat="35.1875914" lon="9.2607867"><ele>412.0</ele><time>2026-05-01T10:28:58.469Z</time></trkpt><trkpt lat="35.1877076" lon="9.2605523"><ele>412.0</ele><time>2026-05-01T10:28:59.467Z</time></trkpt><trkpt lat="35.1878242" lon="9.2603144"><ele>412.0</ele><time>2026-05-01T10:29:00.462Z</time></trkpt><trkpt lat="35.1879433" lon="9.2600797"><ele>412.0</ele><time>2026-05-01T10:29:01.468Z</time></trkpt><trkpt lat="35.1880623" lon="9.25985"><ele>412.0</ele><time>2026-05-01T10:29:02.471Z</time></trkpt><trkpt lat="35.1881812" lon="9.2596087"><ele>412.5</ele><time>2026-05-01T10:29:03.464Z</time></trkpt><trkpt lat="35.1883069" lon="9.2593568"><ele>413.0</ele><time>2026-05-01T10:29:04.467Z</time></trkpt><trkpt lat="35.1884299" lon="9.2591125"><ele>414.5</ele><time>2026-05-01T10:29:05.477Z</time></trkpt><trkpt lat="35.1885511" lon="9.2588711"><ele>416.0</ele><time>2026-05-01T10:29:06.46Z</time></trkpt><trkpt lat="35.1886746" lon="9.2586261"><ele>416.0</ele><time>2026-05-01T10:29:07.462Z</time></trkpt><trkpt lat="35.1888001" lon="9.2583752"><ele>416.0</ele><time>2026-05-01T10:29:08.468Z</time></trkpt><trkpt lat="35.1889229" lon="9.2581191"><ele>416.0</ele><time>2026-05-01T10:29:09.462Z</time></trkpt><trkpt lat="35.1890459" lon="9.2578639"><ele>416.0</ele><time>2026-05-01T10:29:10.452Z</time></trkpt><trkpt lat="35.1891703" lon="9.2576151"><ele>416.0</ele><time>2026-05-01T10:29:11.473Z</time></trkpt><trkpt lat="35.1892913" lon="9.2573732"><ele>416.0</ele><time>2026-05-01T10:29:12.47Z</time></trkpt><trkpt lat="35.1894114" lon="9.2571387"><ele>416.0</ele><time>2026-05-01T10:29:13.468Z</time></trkpt><trkpt lat="35.1895278" lon="9.2569201"><ele>416.0</ele><time>2026-05-01T10:29:14.464Z</time></trkpt><trkpt lat="35.1896361" lon="9.2567101"><ele>416.0</ele><time>2026-05-01T10:29:15.456Z</time></trkpt><trkpt lat="35.1897443" lon="9.2565066"><ele>417.0</ele><time>2026-05-01T10:29:16.474Z</time></trkpt><trkpt lat="35.1898468" lon="9.2563077"><ele>418.0</ele><time>2026-05-01T10:29:17.467Z</time></trkpt><trkpt lat="35.1899516" lon="9.2561064"><ele>419.0</ele><time>2026-05-01T10:29:18.463Z</time></trkpt><trkpt lat="35.1900579" lon="9.2558962"><ele>419.0</ele><time>2026-05-01T10:29:19.468Z</time></trkpt><trkpt lat="35.1901644" lon="9.2556917"><ele>419.0</ele><time>2026-05-01T10:29:20.47Z</time></trkpt><trkpt lat="35.1902678" lon="9.2554891"><ele>419.0</ele><time>2026-05-01T10:29:21.449Z</time></trkpt><trkpt lat="35.1903694" lon="9.2552792"><ele>419.66666666666663</ele><time>2026-05-01T10:29:22.462Z</time></trkpt><trkpt lat="35.1904695" lon="9.2550765"><ele>420.33333333333337</ele><time>2026-05-01T10:29:23.466Z</time></trkpt><trkpt lat="35.1905724" lon="9.2548714"><ele>421.0</ele><time>2026-05-01T10:29:24.454Z</time></trkpt><trkpt lat="35.1906688" lon="9.2546649"><ele>421.0</ele><time>2026-05-01T10:29:25.456Z</time></trkpt><trkpt lat="35.1907686" lon="9.2544583"><ele>421.0</ele><time>2026-05-01T10:29:26.463Z</time></trkpt><trkpt lat="35.1908677" lon="9.2542506"><ele>421.0</ele><time>2026-05-01T10:29:27.454Z</time></trkpt><trkpt lat="35.1909712" lon="9.254046"><ele>421.6666666666667</ele><time>2026-05-01T10:29:28.463Z</time></trkpt><trkpt lat="35.1910726" lon="9.2538435"><ele>422.33333333333337</ele><time>2026-05-01T10:29:29.47Z</time></trkpt><trkpt lat="35.1911749" lon="9.2536385"><ele>423.0</ele><time>2026-05-01T10:29:30.457Z</time></trkpt><trkpt lat="35.1912743" lon="9.2534364"><ele>423.0</ele><time>2026-05-01T10:29:31.461Z</time></trkpt><trkpt lat="35.191377" lon="9.253233"><ele>423.0</ele><time>2026-05-01T10:29:32.459Z</time></trkpt><trkpt lat="35.1914817" lon="9.2530272"><ele>423.0</ele><time>2026-05-01T10:29:33.453Z</time></trkpt><trkpt lat="35.1915838" lon="9.2528222"><ele>423.0</ele><time>2026-05-01T10:29:34.457Z</time></trkpt><trkpt lat="35.1916858" lon="9.2526175"><ele>423.0</ele><time>2026-05-01T10:29:35.465Z</time></trkpt><trkpt lat="35.1917881" lon="9.2524095"><ele>423.0</ele><time>2026-05-01T10:29:36.473Z</time></trkpt><trkpt lat="35.191893" lon="9.2522047"><ele>423.33333333333337</ele><time>2026-05-01T10:29:37.491Z</time></trkpt><trkpt lat="35.1919993" lon="9.2519964"><ele>423.6666666666667</ele><time>2026-05-01T10:29:38.468Z</time></trkpt><trkpt lat="35.1921027" lon="9.2517958"><ele>424.0</ele><time>2026-05-01T10:29:39.468Z</time></trkpt><trkpt lat="35.1922055" lon="9.2515892"><ele>424.33333333333337</ele><time>2026-05-01T10:29:40.458Z</time></trkpt><trkpt lat="35.1923001" lon="9.2513934"><ele>424.66666666666663</ele><time>2026-05-01T10:29:41.464Z</time></trkpt><trkpt lat="35.1923926" lon="9.251202"><ele>425.0</ele><time>2026-05-01T10:29:42.458Z</time></trkpt><trkpt lat="35.1924885" lon="9.2510168"><ele>424.0</ele><time>2026-05-01T10:29:43.463Z</time></trkpt><trkpt lat="35.1925814" lon="9.2508257"><ele>423.0</ele><time>2026-05-01T10:29:44.464Z</time></trkpt><trkpt lat="35.1926785" lon="9.2506332"><ele>422.0</ele><time>2026-05-01T10:29:45.462Z</time></trkpt><trkpt lat="35.1927792" lon="9.2504336"><ele>422.0</ele><time>2026-05-01T10:29:46.449Z</time></trkpt><trkpt lat="35.1928758" lon="9.2502305"><ele>422.0</ele><time>2026-05-01T10:29:47.46Z</time></trkpt><trkpt lat="35.192977" lon="9.2500295"><ele>422.0</ele><time>2026-05-01T10:29:48.465Z</time></trkpt><trkpt lat="35.1930747" lon="9.249828"><ele>421.66666666666663</ele><time>2026-05-01T10:29:49.46Z</time></trkpt><trkpt lat="35.1931742" lon="9.2496287"><ele>421.33333333333337</ele><time>2026-05-01T10:29:50.47Z</time></trkpt><trkpt lat="35.1932777" lon="9.249421"><ele>421.0</ele><time>2026-05-01T10:29:51.469Z</time></trkpt><trkpt lat="35.1933849" lon="9.2492062"><ele>421.0</ele><time>2026-05-01T10:29:52.468Z</time></trkpt><trkpt lat="35.1934924" lon="9.2489968"><ele>421.0</ele><time>2026-05-01T10:29:53.461Z</time></trkpt><trkpt lat="35.1935974" lon="9.2487871"><ele>421.0</ele><time>2026-05-01T10:29:54.465Z</time></trkpt><trkpt lat="35.193701" lon="9.248585"><ele>421.6666666666667</ele><time>2026-05-01T10:29:55.457Z</time></trkpt><trkpt lat="35.1938053" lon="9.2483754"><ele>422.33333333333337</ele><time>2026-05-01T10:29:56.465Z</time></trkpt><trkpt lat="35.1939093" lon="9.2481604"><ele>423.0</ele><time>2026-05-01T10:29:57.461Z</time></trkpt><trkpt lat="35.1940152" lon="9.2479494"><ele>423.0</ele><time>2026-05-01T10:29:58.467Z</time></trkpt><trkpt lat="35.1941181" lon="9.2477399"><ele>423.0</ele><time>2026-05-01T10:29:59.467Z</time></trkpt><trkpt lat="35.1942197" lon="9.2475339"><ele>423.0</ele><time>2026-05-01T10:30:00.461Z</time></trkpt><trkpt lat="35.1943241" lon="9.2473289"><ele>424.0</ele><time>2026-05-01T10:30:01.477Z</time></trkpt><trkpt lat="35.1944215" lon="9.2471282"><ele>425.0</ele><time>2026-05-01T10:30:02.496Z</time></trkpt><trkpt lat="35.194519" lon="9.2469287"><ele>426.0</ele><time>2026-05-01T10:30:03.45Z</time></trkpt><trkpt lat="35.1946209" lon="9.2467272"><ele>426.0</ele><time>2026-05-01T10:30:04.475Z</time></trkpt><trkpt lat="35.1947251" lon="9.2465239"><ele>426.0</ele><time>2026-05-01T10:30:05.468Z</time></trkpt><trkpt lat="35.1948263" lon="9.2463226"><ele>426.0</ele><time>2026-05-01T10:30:06.461Z</time></trkpt><trkpt lat="35.1949285" lon="9.2461206"><ele>425.66666666666663</ele><time>2026-05-01T10:30:07.467Z</time></trkpt><trkpt lat="35.1950323" lon="9.2459159"><ele>425.3333333333333</ele><time>2026-05-01T10:30:08.467Z</time></trkpt><trkpt lat="35.1951365" lon="9.2457163"><ele>425.0</ele><time>2026-05-01T10:30:09.477Z</time></trkpt><trkpt lat="35.1952378" lon="9.2455166"><ele>425.0</ele><time>2026-05-01T10:30:10.476Z</time></trkpt><trkpt lat="35.1953409" lon="9.2453203"><ele>425.0</ele><time>2026-05-01T10:30:11.468Z</time></trkpt><trkpt lat="35.1954417" lon="9.2451162"><ele>425.0</ele><time>2026-05-01T10:30:12.469Z</time></trkpt><trkpt lat="35.1955408" lon="9.2449111"><ele>425.3333333333333</ele><time>2026-05-01T10:30:13.468Z</time></trkpt><trkpt lat="35.1956426" lon="9.2447041"><ele>425.66666666666663</ele><time>2026-05-01T10:30:14.485Z</time></trkpt><trkpt lat="35.1957477" lon="9.2444979"><ele>426.0</ele><time>2026-05-01T10:30:15.457Z</time></trkpt><trkpt lat="35.1958444" lon="9.2442915"><ele>426.0</ele><time>2026-05-01T10:30:16.45Z</time></trkpt><trkpt lat="35.195945" lon="9.2440876"><ele>426.0</ele><time>2026-05-01T10:30:17.452Z</time></trkpt><trkpt lat="35.1960475" lon="9.2438879"><ele>426.0</ele><time>2026-05-01T10:30:18.444Z</time></trkpt><trkpt lat="35.1961493" lon="9.2436807"><ele>427.0</ele><time>2026-05-01T10:30:19.452Z</time></trkpt><trkpt lat="35.1962516" lon="9.2434793"><ele>428.0</ele><time>2026-05-01T10:30:20.449Z</time></trkpt><trkpt lat="35.1963527" lon="9.2432697"><ele>429.0</ele><time>2026-05-01T10:30:21.466Z</time></trkpt><trkpt lat="35.1964592" lon="9.243055"><ele>429.0</ele><time>2026-05-01T10:30:22.481Z</time></trkpt><trkpt lat="35.1965629" lon="9.2428362"><ele>429.0</ele><time>2026-05-01T10:30:23.468Z</time></trkpt><trkpt lat="35.1966617" lon="9.2426166"><ele>429.0</ele><time>2026-05-01T10:30:24.46Z</time></trkpt><trkpt lat="35.196761" lon="9.2423902"><ele>429.66666666666663</ele><time>2026-05-01T10:30:25.46Z</time></trkpt><trkpt lat="35.1968483" lon="9.2421591"><ele>430.3333333333333</ele><time>2026-05-01T10:30:26.471Z</time></trkpt><trkpt lat="35.1969332" lon="9.2419226"><ele>431.0</ele><time>2026-05-01T10:30:27.465Z</time></trkpt><trkpt lat="35.1970116" lon="9.2416864"><ele>431.66666666666663</ele><time>2026-05-01T10:30:28.453Z</time></trkpt><trkpt lat="35.1970861" lon="9.2414534"><ele>432.33333333333337</ele><time>2026-05-01T10:30:29.461Z</time></trkpt><trkpt lat="35.1971648" lon="9.2412202"><ele>433.0</ele><time>2026-05-01T10:30:30.464Z</time></trkpt><trkpt lat="35.1972411" lon="9.2409825"><ele>433.0</ele><time>2026-05-01T10:30:31.472Z</time></trkpt><trkpt lat="35.1973171" lon="9.2407395"><ele>433.0</ele><time>2026-05-01T10:30:32.473Z</time></trkpt><trkpt lat="35.1973919" lon="9.2404959"><ele>433.0</ele><time>2026-05-01T10:30:33.463Z</time></trkpt><trkpt lat="35.1974682" lon="9.2402562"><ele>433.0</ele><time>2026-05-01T10:30:34.497Z</time></trkpt><trkpt lat="35.197548" lon="9.2400102"><ele>433.0</ele><time>2026-05-01T10:30:35.472Z</time></trkpt><trkpt lat="35.1976241" lon="9.2397773"><ele>433.0</ele><time>2026-05-01T10:30:36.466Z</time></trkpt><trkpt lat="35.1977006" lon="9.2395374"><ele>433.0</ele><time>2026-05-01T10:30:37.47Z</time></trkpt><trkpt lat="35.1977705" lon="9.2392997"><ele>433.0</ele><time>2026-05-01T10:30:38.466Z</time></trkpt><trkpt lat="35.1978418" lon="9.2390692"><ele>433.0</ele><time>2026-05-01T10:30:39.467Z</time></trkpt><trkpt lat="35.1979225" lon="9.2388358"><ele>433.33333333333337</ele><time>2026-05-01T10:30:40.477Z</time></trkpt><trkpt lat="35.1979985" lon="9.238598"><ele>433.66666666666663</ele><time>2026-05-01T10:30:41.472Z</time></trkpt><trkpt lat="35.198073" lon="9.2383609"><ele>434.0</ele><time>2026-05-01T10:30:42.468Z</time></trkpt><trkpt lat="35.1981475" lon="9.238126"><ele>433.0</ele><time>2026-05-01T10:30:43.465Z</time></trkpt><trkpt lat="35.1982215" lon="9.237891"><ele>432.0</ele><time>2026-05-01T10:30:44.458Z</time></trkpt><trkpt lat="35.1983002" lon="9.2376515"><ele>431.0</ele><time>2026-05-01T10:30:45.468Z</time></trkpt><trkpt lat="35.1983813" lon="9.2374175"><ele>431.3333333333333</ele><time>2026-05-01T10:30:46.466Z</time></trkpt><trkpt lat="35.1984523" lon="9.2371889"><ele>431.66666666666663</ele><time>2026-05-01T10:30:47.456Z</time></trkpt><trkpt lat="35.1985205" lon="9.2369675"><ele>432.0</ele><time>2026-05-01T10:30:48.475Z</time></trkpt><trkpt lat="35.1985952" lon="9.2367472"><ele>432.0</ele><time>2026-05-01T10:30:49.457Z</time></trkpt><trkpt lat="35.1986642" lon="9.2365319"><ele>432.0</ele><time>2026-05-01T10:30:50.454Z</time></trkpt><trkpt lat="35.1987329" lon="9.2363196"><ele>432.0</ele><time>2026-05-01T10:30:51.454Z</time></trkpt><trkpt lat="35.1988" lon="9.236102"><ele>432.66666666666663</ele><time>2026-05-01T10:30:52.462Z</time></trkpt><trkpt lat="35.1988723" lon="9.2358863"><ele>433.3333333333333</ele><time>2026-05-01T10:30:53.466Z</time></trkpt><trkpt lat="35.1989424" lon="9.2356651"><ele>434.0</ele><time>2026-05-01T10:30:54.462Z</time></trkpt><trkpt lat="35.1990075" lon="9.2354537"><ele>434.0</ele><time>2026-05-01T10:30:55.462Z</time></trkpt><trkpt lat="35.199078" lon="9.2352366"><ele>434.0</ele><time>2026-05-01T10:30:56.475Z</time></trkpt><trkpt lat="35.199148" lon="9.2350208"><ele>434.0</ele><time>2026-05-01T10:30:57.465Z</time></trkpt><trkpt lat="35.1992177" lon="9.2348098"><ele>434.3333333333333</ele><time>2026-05-01T10:30:58.465Z</time></trkpt><trkpt lat="35.1992856" lon="9.2346015"><ele>434.66666666666663</ele><time>2026-05-01T10:30:59.476Z</time></trkpt><trkpt lat="35.1993529" lon="9.2343946"><ele>435.0</ele><time>2026-05-01T10:31:00.471Z</time></trkpt><trkpt lat="35.1994167" lon="9.2341905"><ele>435.0</ele><time>2026-05-01T10:31:01.467Z</time></trkpt><trkpt lat="35.1994808" lon="9.2339859"><ele>435.0</ele><time>2026-05-01T10:31:02.466Z</time></trkpt><trkpt lat="35.1995466" lon="9.2337822"><ele>435.0</ele><time>2026-05-01T10:31:03.47Z</time></trkpt><trkpt lat="35.1996155" lon="9.2335734"><ele>435.0</ele><time>2026-05-01T10:31:04.462Z</time></trkpt><trkpt lat="35.1996846" lon="9.2333667"><ele>435.0</ele><time>2026-05-01T10:31:05.466Z</time></trkpt><trkpt lat="35.1997664" lon="9.2331597"><ele>435.0</ele><time>2026-05-01T10:31:06.473Z</time></trkpt><trkpt lat="35.1998601" lon="9.23296"><ele>435.33333333333337</ele><time>2026-05-01T10:31:07.46Z</time></trkpt><trkpt lat="35.1999659" lon="9.2327689"><ele>435.6666666666667</ele><time>2026-05-01T10:31:08.457Z</time></trkpt><trkpt lat="35.2000819" lon="9.2325793"><ele>436.0</ele><time>2026-05-01T10:31:09.465Z</time></trkpt><trkpt lat="35.2002041" lon="9.232394"><ele>436.0</ele><time>2026-05-01T10:31:10.471Z</time></trkpt><trkpt lat="35.2003326" lon="9.2322078"><ele>436.0</ele><time>2026-05-01T10:31:11.518Z</time></trkpt><trkpt lat="35.2004699" lon="9.2320184"><ele>436.0</ele><time>2026-05-01T10:31:12.467Z</time></trkpt><trkpt lat="35.200617" lon="9.2318359"><ele>435.6666666666667</ele><time>2026-05-01T10:31:13.465Z</time></trkpt><trkpt lat="35.200772" lon="9.2316581"><ele>435.33333333333337</ele><time>2026-05-01T10:31:14.459Z</time></trkpt><trkpt lat="35.2009357" lon="9.231488"><ele>435.0</ele><time>2026-05-01T10:31:15.465Z</time></trkpt><trkpt lat="35.2011055" lon="9.2313241"><ele>435.66666666666663</ele><time>2026-05-01T10:31:16.456Z</time></trkpt><trkpt lat="35.2012819" lon="9.2311728"><ele>436.3333333333333</ele><time>2026-05-01T10:31:17.454Z</time></trkpt><trkpt lat="35.2014659" lon="9.2310334"><ele>437.0</ele><time>2026-05-01T10:31:18.457Z</time></trkpt><trkpt lat="35.2016541" lon="9.2309076"><ele>437.0</ele><time>2026-05-01T10:31:19.473Z</time></trkpt><trkpt lat="35.2018471" lon="9.2307957"><ele>437.0</ele><time>2026-05-01T10:31:20.458Z</time></trkpt><trkpt lat="35.2020434" lon="9.2306993"><ele>437.0</ele><time>2026-05-01T10:31:21.461Z</time></trkpt><trkpt lat="35.2022449" lon="9.2306086"><ele>436.0</ele><time>2026-05-01T10:31:22.458Z</time></trkpt><trkpt lat="35.2024503" lon="9.2305267"><ele>435.0</ele><time>2026-05-01T10:31:23.469Z</time></trkpt><trkpt lat="35.2026563" lon="9.2304513"><ele>434.0</ele><time>2026-05-01T10:31:24.476Z</time></trkpt><trkpt lat="35.2028624" lon="9.2303773"><ele>434.0</ele><time>2026-05-01T10:31:25.466Z</time></trkpt><trkpt lat="35.2030576" lon="9.2303107"><ele>434.0</ele><time>2026-05-01T10:31:26.467Z</time></trkpt><trkpt lat="35.2032423" lon="9.2302438"><ele>434.0</ele><time>2026-05-01T10:31:27.467Z</time></trkpt><trkpt lat="35.2034244" lon="9.2301812"><ele>432.3333333333333</ele><time>2026-05-01T10:31:28.471Z</time></trkpt><trkpt lat="35.2036043" lon="9.2301172"><ele>430.66666666666663</ele><time>2026-05-01T10:31:29.459Z</time></trkpt><trkpt lat="35.2037791" lon="9.230054"><ele>429.0</ele><time>2026-05-01T10:31:30.467Z</time></trkpt><trkpt lat="35.2039545" lon="9.2299897"><ele>428.66666666666663</ele><time>2026-05-01T10:31:31.481Z</time></trkpt><trkpt lat="35.2041322" lon="9.2299271"><ele>428.3333333333333</ele><time>2026-05-01T10:31:32.466Z</time></trkpt><trkpt lat="35.204313" lon="9.2298661"><ele>428.0</ele><time>2026-05-01T10:31:33.461Z</time></trkpt><trkpt lat="35.204498" lon="9.2298049"><ele>429.0</ele><time>2026-05-01T10:31:34.501Z</time></trkpt><trkpt lat="35.2046873" lon="9.2297347"><ele>430.0</ele><time>2026-05-01T10:31:35.452Z</time></trkpt><trkpt lat="35.2048789" lon="9.2296573"><ele>431.0</ele><time>2026-05-01T10:31:36.454Z</time></trkpt><trkpt lat="35.2050717" lon="9.2295712"><ele>431.66666666666663</ele><time>2026-05-01T10:31:37.458Z</time></trkpt><trkpt lat="35.2052645" lon="9.2294728"><ele>432.33333333333337</ele><time>2026-05-01T10:31:38.464Z</time></trkpt><trkpt lat="35.2054576" lon="9.2293599"><ele>433.0</ele><time>2026-05-01T10:31:39.455Z</time></trkpt><trkpt lat="35.2056474" lon="9.2292345"><ele>433.0</ele><time>2026-05-01T10:31:40.463Z</time></trkpt><trkpt lat="35.2058318" lon="9.2290998"><ele>433.0</ele><time>2026-05-01T10:31:41.459Z</time></trkpt><trkpt lat="35.2060104" lon="9.228954"><ele>433.0</ele><time>2026-05-01T10:31:42.462Z</time></trkpt><trkpt lat="35.2061846" lon="9.2287984"><ele>433.0</ele><time>2026-05-01T10:31:43.463Z</time></trkpt><trkpt lat="35.2063522" lon="9.2286315"><ele>433.0</ele><time>2026-05-01T10:31:44.457Z</time></trkpt><trkpt lat="35.2065141" lon="9.2284535"><ele>433.0</ele><time>2026-05-01T10:31:45.466Z</time></trkpt><trkpt lat="35.2066698" lon="9.2282668"><ele>433.0</ele><time>2026-05-01T10:31:46.489Z</time></trkpt><trkpt lat="35.2068162" lon="9.2280709"><ele>433.0</ele><time>2026-05-01T10:31:47.454Z</time></trkpt><trkpt lat="35.206947" lon="9.2278737"><ele>433.0</ele><time>2026-05-01T10:31:48.451Z</time></trkpt><trkpt lat="35.2070598" lon="9.2276842"><ele>433.0</ele><time>2026-05-01T10:31:49.463Z</time></trkpt><trkpt lat="35.2071568" lon="9.2275111"><ele>433.0</ele><time>2026-05-01T10:31:50.451Z</time></trkpt><trkpt lat="35.207239" lon="9.2273534"><ele>433.0</ele><time>2026-05-01T10:31:51.452Z</time></trkpt><trkpt lat="35.2073094" lon="9.2272063"><ele>433.4</ele><time>2026-05-01T10:31:52.46Z</time></trkpt><trkpt lat="35.2073691" lon="9.2270679"><ele>433.79999999999995</ele><time>2026-05-01T10:31:53.465Z</time></trkpt><trkpt lat="35.2074209" lon="9.2269449"><ele>434.2</ele><time>2026-05-01T10:31:54.463Z</time></trkpt><trkpt lat="35.2074631" lon="9.2268354"><ele>434.6</ele><time>2026-05-01T10:31:55.47Z</time></trkpt><trkpt lat="35.2074985" lon="9.2267472"><ele>435.0</ele><time>2026-05-01T10:31:56.48Z</time></trkpt><trkpt lat="35.2075314" lon="9.226658"><ele>435.0</ele><time>2026-05-01T10:31:57.448Z</time></trkpt><trkpt lat="35.207557" lon="9.2265794"><ele>435.0</ele><time>2026-05-01T10:31:58.469Z</time></trkpt><trkpt lat="35.2075847" lon="9.2265029"><ele>435.0</ele><time>2026-05-01T10:31:59.469Z</time></trkpt><trkpt lat="35.2076218" lon="9.2264174"><ele>435.0</ele><time>2026-05-01T10:32:00.465Z</time></trkpt><trkpt lat="35.20766" lon="9.2263039"><ele>435.0</ele><time>2026-05-01T10:32:01.468Z</time></trkpt><trkpt lat="35.2077019" lon="9.2261909"><ele>435.0</ele><time>2026-05-01T10:32:02.454Z</time></trkpt><trkpt lat="35.2077463" lon="9.2260639"><ele>434.75</ele><time>2026-05-01T10:32:03.466Z</time></trkpt><trkpt lat="35.2077902" lon="9.2259301"><ele>434.5</ele><time>2026-05-01T10:32:04.457Z</time></trkpt><trkpt lat="35.2078327" lon="9.2257986"><ele>434.25</ele><time>2026-05-01T10:32:05.471Z</time></trkpt><trkpt lat="35.2078754" lon="9.2256533"><ele>434.0</ele><time>2026-05-01T10:32:06.457Z</time></trkpt><trkpt lat="35.207919" lon="9.2255007"><ele>434.66666666666663</ele><time>2026-05-01T10:32:07.463Z</time></trkpt><trkpt lat="35.2079665" lon="9.2253328"><ele>435.33333333333337</ele><time>2026-05-01T10:32:08.468Z</time></trkpt><trkpt lat="35.208013" lon="9.2251557"><ele>436.0</ele><time>2026-05-01T10:32:09.478Z</time></trkpt><trkpt lat="35.208057" lon="9.224973"><ele>436.33333333333337</ele><time>2026-05-01T10:32:10.451Z</time></trkpt><trkpt lat="35.208097" lon="9.2247906"><ele>436.66666666666663</ele><time>2026-05-01T10:32:11.466Z</time></trkpt><trkpt lat="35.2081264" lon="9.224609"><ele>437.0</ele><time>2026-05-01T10:32:12.478Z</time></trkpt><trkpt lat="35.2081503" lon="9.2244218"><ele>437.0</ele><time>2026-05-01T10:32:13.462Z</time></trkpt><trkpt lat="35.208165" lon="9.2242366"><ele>437.0</ele><time>2026-05-01T10:32:14.456Z</time></trkpt><trkpt lat="35.2081705" lon="9.2240579"><ele>437.0</ele><time>2026-05-01T10:32:15.47Z</time></trkpt><trkpt lat="35.2081712" lon="9.2238878"><ele>437.0</ele><time>2026-05-01T10:32:16.455Z</time></trkpt><trkpt lat="35.2081675" lon="9.2237312"><ele>437.0</ele><time>2026-05-01T10:32:17.453Z</time></trkpt><trkpt lat="35.2081605" lon="9.2235888"><ele>437.00000000000006</ele><time>2026-05-01T10:32:18.462Z</time></trkpt><trkpt lat="35.20815" lon="9.2234651"><ele>437.00000000000006</ele><time>2026-05-01T10:32:19.495Z</time></trkpt><trkpt lat="35.2081418" lon="9.2233516"><ele>437.0</ele><time>2026-05-01T10:32:20.464Z</time></trkpt><trkpt lat="35.2081275" lon="9.2232628"><ele>437.0</ele><time>2026-05-01T10:32:21.456Z</time></trkpt><trkpt lat="35.2081162" lon="9.2231743"><ele>437.40000000000003</ele><time>2026-05-01T10:32:22.46Z</time></trkpt><trkpt lat="35.2081064" lon="9.2230819"><ele>437.80000000000007</ele><time>2026-05-01T10:32:23.466Z</time></trkpt><trkpt lat="35.2080851" lon="9.222973"><ele>438.2</ele><time>2026-05-01T10:32:24.446Z</time></trkpt><trkpt lat="35.2080559" lon="9.2228532"><ele>438.6</ele><time>2026-05-01T10:32:25.454Z</time></trkpt><trkpt lat="35.2080241" lon="9.2227238"><ele>439.0</ele><time>2026-05-01T10:32:26.467Z</time></trkpt><trkpt lat="35.2079871" lon="9.2225956"><ele>439.0</ele><time>2026-05-01T10:32:27.465Z</time></trkpt><trkpt lat="35.2079473" lon="9.2224783"><ele>439.0</ele><time>2026-05-01T10:32:28.444Z</time></trkpt><trkpt lat="35.2079048" lon="9.2223677"><ele>439.0</ele><time>2026-05-01T10:32:29.48Z</time></trkpt><trkpt lat="35.207861" lon="9.2222539"><ele>439.0</ele><time>2026-05-01T10:32:30.456Z</time></trkpt><trkpt lat="35.2078147" lon="9.2221476"><ele>439.0</ele><time>2026-05-01T10:32:31.463Z</time></trkpt><trkpt lat="35.207768" lon="9.2220379"><ele>439.0</ele><time>2026-05-01T10:32:32.454Z</time></trkpt><trkpt lat="35.2077272" lon="9.2219289"><ele>439.0</ele><time>2026-05-01T10:32:33.471Z</time></trkpt><trkpt lat="35.2076832" lon="9.2218175"><ele>439.0</ele><time>2026-05-01T10:32:34.457Z</time></trkpt><trkpt lat="35.2076352" lon="9.2216979"><ele>439.0</ele><time>2026-05-01T10:32:35.463Z</time></trkpt><trkpt lat="35.207586" lon="9.2215787"><ele>439.0</ele><time>2026-05-01T10:32:36.45Z</time></trkpt><trkpt lat="35.2075402" lon="9.2214667"><ele>439.00000000000006</ele><time>2026-05-01T10:32:37.455Z</time></trkpt><trkpt lat="35.2075088" lon="9.2213813"><ele>439.0</ele><time>2026-05-01T10:32:38.458Z</time></trkpt><trkpt lat="35.2074703" lon="9.2213059"><ele>439.0</ele><time>2026-05-01T10:32:39.442Z</time></trkpt><trkpt lat="35.2074339" lon="9.2212304"><ele>439.0</ele><time>2026-05-01T10:32:40.459Z</time></trkpt><trkpt lat="35.2073994" lon="9.221153"><ele>439.00000000000006</ele><time>2026-05-01T10:32:41.459Z</time></trkpt><trkpt lat="35.2073496" lon="9.2210429"><ele>439.0</ele><time>2026-05-01T10:32:42.465Z</time></trkpt><trkpt lat="35.2073002" lon="9.22093"><ele>439.0</ele><time>2026-05-01T10:32:43.457Z</time></trkpt><trkpt lat="35.2072365" lon="9.2207982"><ele>439.0</ele><time>2026-05-01T10:32:44.47Z</time></trkpt><trkpt lat="35.2071606" lon="9.2206368"><ele>439.0</ele><time>2026-05-01T10:32:45.457Z</time></trkpt><trkpt lat="35.207079" lon="9.2204512"><ele>439.0</ele><time>2026-05-01T10:32:46.461Z</time></trkpt><trkpt lat="35.2070023" lon="9.2202528"><ele>439.0</ele><time>2026-05-01T10:32:47.46Z</time></trkpt><trkpt lat="35.2069246" lon="9.2200502"><ele>439.0</ele><time>2026-05-01T10:32:48.463Z</time></trkpt><trkpt lat="35.2068434" lon="9.2198471"><ele>439.0</ele><time>2026-05-01T10:32:49.46Z</time></trkpt><trkpt lat="35.2067588" lon="9.2196404"><ele>439.0</ele><time>2026-05-01T10:32:50.472Z</time></trkpt><trkpt lat="35.2066758" lon="9.2194311"><ele>439.0</ele><time>2026-05-01T10:32:51.46Z</time></trkpt><trkpt lat="35.2066007" lon="9.2192175"><ele>439.0</ele><time>2026-05-01T10:32:52.492Z</time></trkpt><trkpt lat="35.2065302" lon="9.2190017"><ele>439.0</ele><time>2026-05-01T10:32:53.45Z</time></trkpt><trkpt lat="35.206468" lon="9.2187857"><ele>439.0</ele><time>2026-05-01T10:32:54.46Z</time></trkpt><trkpt lat="35.2064176" lon="9.2185652"><ele>439.0</ele><time>2026-05-01T10:32:55.468Z</time></trkpt><trkpt lat="35.20638" lon="9.2183414"><ele>439.6666666666667</ele><time>2026-05-01T10:32:56.447Z</time></trkpt><trkpt lat="35.2063542" lon="9.2181164"><ele>440.33333333333337</ele><time>2026-05-01T10:32:57.459Z</time></trkpt><trkpt lat="35.2063379" lon="9.2178888"><ele>441.0</ele><time>2026-05-01T10:32:58.459Z</time></trkpt><trkpt lat="35.2063329" lon="9.2176632"><ele>441.0</ele><time>2026-05-01T10:32:59.465Z</time></trkpt><trkpt lat="35.2063373" lon="9.2174393"><ele>441.0</ele><time>2026-05-01T10:33:00.461Z</time></trkpt><trkpt lat="35.206351" lon="9.2172165"><ele>441.0</ele><time>2026-05-01T10:33:01.449Z</time></trkpt><trkpt lat="35.206371" lon="9.2169949"><ele>441.66666666666663</ele><time>2026-05-01T10:33:02.46Z</time></trkpt><trkpt lat="35.2063959" lon="9.216772"><ele>442.3333333333333</ele><time>2026-05-01T10:33:03.462Z</time></trkpt><trkpt lat="35.2064227" lon="9.2165469"><ele>443.0</ele><time>2026-05-01T10:33:04.463Z</time></trkpt><trkpt lat="35.2064498" lon="9.2163217"><ele>443.0</ele><time>2026-05-01T10:33:05.462Z</time></trkpt><trkpt lat="35.2064786" lon="9.2160934"><ele>443.0</ele><time>2026-05-01T10:33:06.461Z</time></trkpt><trkpt lat="35.2065073" lon="9.2158711"><ele>443.0</ele><time>2026-05-01T10:33:07.446Z</time></trkpt><trkpt lat="35.2065348" lon="9.2156495"><ele>442.66666666666663</ele><time>2026-05-01T10:33:08.454Z</time></trkpt><trkpt lat="35.206562" lon="9.2154269"><ele>442.33333333333337</ele><time>2026-05-01T10:33:09.47Z</time></trkpt><trkpt lat="35.2065898" lon="9.2152053"><ele>442.0</ele><time>2026-05-01T10:33:10.462Z</time></trkpt><trkpt lat="35.2066195" lon="9.214983"><ele>442.33333333333337</ele><time>2026-05-01T10:33:11.454Z</time></trkpt><trkpt lat="35.206648" lon="9.2147613"><ele>442.66666666666663</ele><time>2026-05-01T10:33:12.463Z</time></trkpt><trkpt lat="35.2066791" lon="9.2145369"><ele>443.0</ele><time>2026-05-01T10:33:13.458Z</time></trkpt><trkpt lat="35.2067128" lon="9.2143158"><ele>443.0</ele><time>2026-05-01T10:33:14.498Z</time></trkpt><trkpt lat="35.2067521" lon="9.214095"><ele>443.0</ele><time>2026-05-01T10:33:15.458Z</time></trkpt><trkpt lat="35.2067974" lon="9.2138776"><ele>443.0</ele><time>2026-05-01T10:33:16.454Z</time></trkpt><trkpt lat="35.2068497" lon="9.2136585"><ele>443.0</ele><time>2026-05-01T10:33:17.458Z</time></trkpt><trkpt lat="35.2069078" lon="9.213443"><ele>443.0</ele><time>2026-05-01T10:33:18.46Z</time></trkpt><trkpt lat="35.206969" lon="9.2132279"><ele>443.0</ele><time>2026-05-01T10:33:19.449Z</time></trkpt><trkpt lat="35.2070298" lon="9.2130177"><ele>443.3333333333333</ele><time>2026-05-01T10:33:20.452Z</time></trkpt><trkpt lat="35.2070896" lon="9.2128052"><ele>443.66666666666663</ele><time>2026-05-01T10:33:21.457Z</time></trkpt><trkpt lat="35.2071491" lon="9.2125912"><ele>444.0</ele><time>2026-05-01T10:33:22.455Z</time></trkpt><trkpt lat="35.2072084" lon="9.2123742"><ele>444.0</ele><time>2026-05-01T10:33:23.459Z</time></trkpt><trkpt lat="35.207271" lon="9.2121557"><ele>444.0</ele><time>2026-05-01T10:33:24.449Z</time></trkpt><trkpt lat="35.2073326" lon="9.2119376"><ele>444.0</ele><time>2026-05-01T10:33:25.463Z</time></trkpt><trkpt lat="35.2073949" lon="9.2117164"><ele>444.0</ele><time>2026-05-01T10:33:26.463Z</time></trkpt><trkpt lat="35.2074565" lon="9.2114981"><ele>444.0</ele><time>2026-05-01T10:33:27.466Z</time></trkpt><trkpt lat="35.2075167" lon="9.2112792"><ele>444.0</ele><time>2026-05-01T10:33:28.463Z</time></trkpt><trkpt lat="35.2075737" lon="9.2110632"><ele>443.66666666666663</ele><time>2026-05-01T10:33:29.47Z</time></trkpt><trkpt lat="35.2076317" lon="9.2108457"><ele>443.3333333333333</ele><time>2026-05-01T10:33:30.476Z</time></trkpt><trkpt lat="35.2076897" lon="9.2106312"><ele>443.0</ele><time>2026-05-01T10:33:31.455Z</time></trkpt><trkpt lat="35.2077482" lon="9.210418"><ele>443.0</ele><time>2026-05-01T10:33:32.46Z</time></trkpt><trkpt lat="35.2078103" lon="9.2102036"><ele>443.0</ele><time>2026-05-01T10:33:33.469Z</time></trkpt><trkpt lat="35.2078728" lon="9.2099865"><ele>443.0</ele><time>2026-05-01T10:33:34.481Z</time></trkpt><trkpt lat="35.2079329" lon="9.2097673"><ele>443.3333333333333</ele><time>2026-05-01T10:33:35.476Z</time></trkpt><trkpt lat="35.207993" lon="9.2095467"><ele>443.66666666666663</ele><time>2026-05-01T10:33:36.447Z</time></trkpt><trkpt lat="35.2080521" lon="9.2093294"><ele>444.0</ele><time>2026-05-01T10:33:37.464Z</time></trkpt><trkpt lat="35.2081106" lon="9.2091166"><ele>444.66666666666663</ele><time>2026-05-01T10:33:38.454Z</time></trkpt><trkpt lat="35.2081731" lon="9.2089001"><ele>445.3333333333333</ele><time>2026-05-01T10:33:39.456Z</time></trkpt><trkpt lat="35.2082341" lon="9.208685"><ele>446.0</ele><time>2026-05-01T10:33:40.449Z</time></trkpt><trkpt lat="35.208295" lon="9.2084729"><ele>446.0</ele><time>2026-05-01T10:33:41.464Z</time></trkpt><trkpt lat="35.2083557" lon="9.2082721"><ele>446.0</ele><time>2026-05-01T10:33:42.458Z</time></trkpt><trkpt lat="35.2084161" lon="9.2080736"><ele>446.0</ele><time>2026-05-01T10:33:43.461Z</time></trkpt><trkpt lat="35.2084733" lon="9.2078779"><ele>446.3333333333333</ele><time>2026-05-01T10:33:44.462Z</time></trkpt><trkpt lat="35.2085284" lon="9.2076809"><ele>446.66666666666663</ele><time>2026-05-01T10:33:45.454Z</time></trkpt><trkpt lat="35.2085843" lon="9.2074811"><ele>447.0</ele><time>2026-05-01T10:33:46.471Z</time></trkpt><trkpt lat="35.2086382" lon="9.207283"><ele>447.0</ele><time>2026-05-01T10:33:47.457Z</time></trkpt><trkpt lat="35.2086936" lon="9.2070807"><ele>447.0</ele><time>2026-05-01T10:33:48.454Z</time></trkpt><trkpt lat="35.2087523" lon="9.206871"><ele>447.0</ele><time>2026-05-01T10:33:49.469Z</time></trkpt><trkpt lat="35.2088128" lon="9.2066597"><ele>447.33333333333337</ele><time>2026-05-01T10:33:50.464Z</time></trkpt><trkpt lat="35.2088722" lon="9.2064457"><ele>447.6666666666667</ele><time>2026-05-01T10:33:51.487Z</time></trkpt><trkpt lat="35.2089324" lon="9.20623"><ele>448.0</ele><time>2026-05-01T10:33:52.451Z</time></trkpt><trkpt lat="35.208994" lon="9.2060109"><ele>448.0</ele><time>2026-05-01T10:33:53.488Z</time></trkpt><trkpt lat="35.209057" lon="9.2057884"><ele>448.0</ele><time>2026-05-01T10:33:54.454Z</time></trkpt><trkpt lat="35.2091225" lon="9.2055672"><ele>448.0</ele><time>2026-05-01T10:33:55.463Z</time></trkpt><trkpt lat="35.2091852" lon="9.2053434"><ele>448.0</ele><time>2026-05-01T10:33:56.459Z</time></trkpt><trkpt lat="35.2092487" lon="9.2051181"><ele>448.0</ele><time>2026-05-01T10:33:57.455Z</time></trkpt><trkpt lat="35.2093131" lon="9.2048956"><ele>448.0</ele><time>2026-05-01T10:33:58.464Z</time></trkpt><trkpt lat="35.2093764" lon="9.2046747"><ele>448.33333333333337</ele><time>2026-05-01T10:33:59.458Z</time></trkpt><trkpt lat="35.2094387" lon="9.204453"><ele>448.66666666666663</ele><time>2026-05-01T10:34:00.481Z</time></trkpt><trkpt lat="35.2094993" lon="9.2042358"><ele>449.0</ele><time>2026-05-01T10:34:01.46Z</time></trkpt><trkpt lat="35.2095608" lon="9.2040167"><ele>449.3333333333333</ele><time>2026-05-01T10:34:02.467Z</time></trkpt><trkpt lat="35.2096232" lon="9.2037958"><ele>449.66666666666663</ele><time>2026-05-01T10:34:03.462Z</time></trkpt><trkpt lat="35.2096873" lon="9.2035723"><ele>450.0</ele><time>2026-05-01T10:34:04.469Z</time></trkpt><trkpt lat="35.2097523" lon="9.2033474"><ele>450.0</ele><time>2026-05-01T10:34:05.458Z</time></trkpt><trkpt lat="35.2098185" lon="9.203118"><ele>450.0</ele><time>2026-05-01T10:34:06.451Z</time></trkpt><trkpt lat="35.2098824" lon="9.2028877"><ele>450.0</ele><time>2026-05-01T10:34:07.457Z</time></trkpt><trkpt lat="35.209948" lon="9.2026571"><ele>450.33333333333337</ele><time>2026-05-01T10:34:08.455Z</time></trkpt><trkpt lat="35.2100132" lon="9.2024289"><ele>450.6666666666667</ele><time>2026-05-01T10:34:09.465Z</time></trkpt><trkpt lat="35.2100791" lon="9.2022016"><ele>451.0</ele><time>2026-05-01T10:34:10.471Z</time></trkpt><trkpt lat="35.2101437" lon="9.2019725"><ele>451.0</ele><time>2026-05-01T10:34:11.469Z</time></trkpt><trkpt lat="35.2102088" lon="9.2017462"><ele>451.0</ele><time>2026-05-01T10:34:12.46Z</time></trkpt><trkpt lat="35.2102742" lon="9.201518"><ele>451.0</ele><time>2026-05-01T10:34:13.465Z</time></trkpt><trkpt lat="35.2103382" lon="9.2012916"><ele>451.0</ele><time>2026-05-01T10:34:14.461Z</time></trkpt><trkpt lat="35.2104007" lon="9.2010682"><ele>451.0</ele><time>2026-05-01T10:34:15.466Z</time></trkpt><trkpt lat="35.2104604" lon="9.2008481"><ele>451.0</ele><time>2026-05-01T10:34:16.465Z</time></trkpt><trkpt lat="35.2105198" lon="9.2006263"><ele>451.33333333333337</ele><time>2026-05-01T10:34:17.46Z</time></trkpt><trkpt lat="35.2105828" lon="9.2004041"><ele>451.66666666666663</ele><time>2026-05-01T10:34:18.454Z</time></trkpt><trkpt lat="35.2106441" lon="9.2001848"><ele>452.0</ele><time>2026-05-01T10:34:19.446Z</time></trkpt><trkpt lat="35.2107069" lon="9.1999677"><ele>452.66666666666663</ele><time>2026-05-01T10:34:20.453Z</time></trkpt><trkpt lat="35.2107687" lon="9.1997486"><ele>453.33333333333337</ele><time>2026-05-01T10:34:21.448Z</time></trkpt><trkpt lat="35.2108291" lon="9.1995312"><ele>454.0</ele><time>2026-05-01T10:34:22.463Z</time></trkpt><trkpt lat="35.2108882" lon="9.199316"><ele>454.0</ele><time>2026-05-01T10:34:23.461Z</time></trkpt><trkpt lat="35.2109481" lon="9.1991002"><ele>454.0</ele><time>2026-05-01T10:34:24.467Z</time></trkpt><trkpt lat="35.2110071" lon="9.1988858"><ele>454.0</ele><time>2026-05-01T10:34:25.463Z</time></trkpt><trkpt lat="35.2110656" lon="9.1986735"><ele>454.0</ele><time>2026-05-01T10:34:26.463Z</time></trkpt><trkpt lat="35.211125" lon="9.1984637"><ele>454.0</ele><time>2026-05-01T10:34:27.459Z</time></trkpt><trkpt lat="35.2111878" lon="9.1982565"><ele>454.0</ele><time>2026-05-01T10:34:28.46Z</time></trkpt><trkpt lat="35.2112484" lon="9.1980467"><ele>454.33333333333337</ele><time>2026-05-01T10:34:29.464Z</time></trkpt><trkpt lat="35.2113074" lon="9.1978353"><ele>454.66666666666663</ele><time>2026-05-01T10:34:30.471Z</time></trkpt><trkpt lat="35.2113684" lon="9.1976219"><ele>455.0</ele><time>2026-05-01T10:34:31.476Z</time></trkpt><trkpt lat="35.2114299" lon="9.1974092"><ele>455.66666666666663</ele><time>2026-05-01T10:34:32.462Z</time></trkpt><trkpt lat="35.2114893" lon="9.197195"><ele>456.33333333333337</ele><time>2026-05-01T10:34:33.451Z</time></trkpt><trkpt lat="35.2115498" lon="9.1969818"><ele>457.0</ele><time>2026-05-01T10:34:34.459Z</time></trkpt><trkpt lat="35.2116093" lon="9.1967706"><ele>457.33333333333337</ele><time>2026-05-01T10:34:35.468Z</time></trkpt><trkpt lat="35.2116691" lon="9.1965629"><ele>457.66666666666663</ele><time>2026-05-01T10:34:36.45Z</time></trkpt><trkpt lat="35.2117284" lon="9.196354"><ele>458.0</ele><time>2026-05-01T10:34:37.458Z</time></trkpt><trkpt lat="35.2117864" lon="9.1961457"><ele>458.3333333333333</ele><time>2026-05-01T10:34:38.464Z</time></trkpt><trkpt lat="35.2118449" lon="9.1959396"><ele>458.66666666666663</ele><time>2026-05-01T10:34:39.476Z</time></trkpt><trkpt lat="35.2119011" lon="9.1957349"><ele>459.0</ele><time>2026-05-01T10:34:40.465Z</time></trkpt><trkpt lat="35.211958" lon="9.1955317"><ele>459.33333333333337</ele><time>2026-05-01T10:34:41.468Z</time></trkpt><trkpt lat="35.2120146" lon="9.1953333"><ele>459.6666666666667</ele><time>2026-05-01T10:34:42.457Z</time></trkpt><trkpt lat="35.2120702" lon="9.1951336"><ele>460.0</ele><time>2026-05-01T10:34:43.459Z</time></trkpt><trkpt lat="35.2121265" lon="9.1949325"><ele>460.0</ele><time>2026-05-01T10:34:44.465Z</time></trkpt><trkpt lat="35.2121819" lon="9.1947315"><ele>460.0</ele><time>2026-05-01T10:34:45.465Z</time></trkpt><trkpt lat="35.2122371" lon="9.1945297"><ele>460.0</ele><time>2026-05-01T10:34:46.447Z</time></trkpt><trkpt lat="35.2122927" lon="9.1943283"><ele>460.0</ele><time>2026-05-01T10:34:47.447Z</time></trkpt><trkpt lat="35.2123484" lon="9.1941263"><ele>460.0</ele><time>2026-05-01T10:34:48.48Z</time></trkpt><trkpt lat="35.2124028" lon="9.1939275"><ele>460.0</ele><time>2026-05-01T10:34:49.451Z</time></trkpt><trkpt lat="35.2124569" lon="9.1937297"><ele>460.33333333333337</ele><time>2026-05-01T10:34:50.451Z</time></trkpt><trkpt lat="35.2125128" lon="9.1935342"><ele>460.66666666666663</ele><time>2026-05-01T10:34:51.464Z</time></trkpt><trkpt lat="35.2125701" lon="9.193341"><ele>461.0</ele><time>2026-05-01T10:34:52.448Z</time></trkpt><trkpt lat="35.2126295" lon="9.1931476"><ele>461.0</ele><time>2026-05-01T10:34:53.453Z</time></trkpt><trkpt lat="35.2126841" lon="9.1929505"><ele>461.0</ele><time>2026-05-01T10:34:54.476Z</time></trkpt><trkpt lat="35.2127398" lon="9.1927484"><ele>461.0</ele><time>2026-05-01T10:34:55.459Z</time></trkpt><trkpt lat="35.2127985" lon="9.1925397"><ele>460.66666666666663</ele><time>2026-05-01T10:34:56.467Z</time></trkpt><trkpt lat="35.2128601" lon="9.1923246"><ele>460.33333333333337</ele><time>2026-05-01T10:34:57.458Z</time></trkpt><trkpt lat="35.2129229" lon="9.1921076"><ele>460.0</ele><time>2026-05-01T10:34:58.472Z</time></trkpt><trkpt lat="35.2129861" lon="9.191887"><ele>460.0</ele><time>2026-05-01T10:34:59.454Z</time></trkpt><trkpt lat="35.2130495" lon="9.1916666"><ele>460.0</ele><time>2026-05-01T10:35:00.486Z</time></trkpt><trkpt lat="35.2131115" lon="9.1914438"><ele>460.0</ele><time>2026-05-01T10:35:01.464Z</time></trkpt><trkpt lat="35.2131746" lon="9.1912208"><ele>460.6666666666667</ele><time>2026-05-01T10:35:02.46Z</time></trkpt><trkpt lat="35.2132369" lon="9.1910007"><ele>461.33333333333337</ele><time>2026-05-01T10:35:03.461Z</time></trkpt><trkpt lat="35.2132995" lon="9.1907786"><ele>462.0</ele><time>2026-05-01T10:35:04.465Z</time></trkpt><trkpt lat="35.2133633" lon="9.1905535"><ele>462.0</ele><time>2026-05-01T10:35:05.459Z</time></trkpt><trkpt lat="35.2134253" lon="9.1903298"><ele>462.0</ele><time>2026-05-01T10:35:06.462Z</time></trkpt><trkpt lat="35.213488" lon="9.1901051"><ele>462.0</ele><time>2026-05-01T10:35:07.456Z</time></trkpt><trkpt lat="35.2135523" lon="9.18988"><ele>462.0</ele><time>2026-05-01T10:35:08.455Z</time></trkpt><trkpt lat="35.213616" lon="9.1896524"><ele>462.0</ele><time>2026-05-01T10:35:09.467Z</time></trkpt><trkpt lat="35.2136846" lon="9.1894258"><ele>462.0</ele><time>2026-05-01T10:35:10.462Z</time></trkpt><trkpt lat="35.2137478" lon="9.189194"><ele>462.33333333333337</ele><time>2026-05-01T10:35:11.45Z</time></trkpt><trkpt lat="35.2138144" lon="9.1889649"><ele>462.6666666666667</ele><time>2026-05-01T10:35:12.463Z</time></trkpt><trkpt lat="35.2138824" lon="9.188734"><ele>463.0</ele><time>2026-05-01T10:35:13.461Z</time></trkpt><trkpt lat="35.2139485" lon="9.188502"><ele>463.0</ele><time>2026-05-01T10:35:14.46Z</time></trkpt><trkpt lat="35.2140153" lon="9.188274"><ele>463.0</ele><time>2026-05-01T10:35:15.464Z</time></trkpt><trkpt lat="35.2140822" lon="9.1880442"><ele>463.0</ele><time>2026-05-01T10:35:16.468Z</time></trkpt><trkpt lat="35.2141503" lon="9.1878144"><ele>463.0</ele><time>2026-05-01T10:35:17.452Z</time></trkpt><trkpt lat="35.2142152" lon="9.1875834"><ele>463.0</ele><time>2026-05-01T10:35:18.476Z</time></trkpt><trkpt lat="35.2142814" lon="9.1873527"><ele>463.0</ele><time>2026-05-01T10:35:19.457Z</time></trkpt><trkpt lat="35.214347" lon="9.1871224"><ele>464.33333333333337</ele><time>2026-05-01T10:35:20.463Z</time></trkpt><trkpt lat="35.2144106" lon="9.1868933"><ele>465.66666666666663</ele><time>2026-05-01T10:35:21.452Z</time></trkpt><trkpt lat="35.2144754" lon="9.1866629"><ele>467.0</ele><time>2026-05-01T10:35:22.455Z</time></trkpt><trkpt lat="35.2145412" lon="9.1864345"><ele>467.3333333333333</ele><time>2026-05-01T10:35:23.47Z</time></trkpt><trkpt lat="35.2146053" lon="9.1862034"><ele>467.66666666666663</ele><time>2026-05-01T10:35:24.462Z</time></trkpt><trkpt lat="35.2146691" lon="9.1859737"><ele>468.0</ele><time>2026-05-01T10:35:25.473Z</time></trkpt><trkpt lat="35.2147341" lon="9.1857432"><ele>468.0</ele><time>2026-05-01T10:35:26.517Z</time></trkpt><trkpt lat="35.2148009" lon="9.1855155"><ele>468.0</ele><time>2026-05-01T10:35:27.444Z</time></trkpt><trkpt lat="35.2148671" lon="9.1852864"><ele>468.0</ele><time>2026-05-01T10:35:28.466Z</time></trkpt><trkpt lat="35.214932" lon="9.1850576"><ele>468.0</ele><time>2026-05-01T10:35:29.463Z</time></trkpt><trkpt lat="35.2149989" lon="9.1848281"><ele>468.0</ele><time>2026-05-01T10:35:30.467Z</time></trkpt><trkpt lat="35.2150642" lon="9.1846001"><ele>468.0</ele><time>2026-05-01T10:35:31.464Z</time></trkpt><trkpt lat="35.2151309" lon="9.1843713"><ele>468.0</ele><time>2026-05-01T10:35:32.457Z</time></trkpt><trkpt lat="35.2151956" lon="9.1841415"><ele>468.0</ele><time>2026-05-01T10:35:33.469Z</time></trkpt><trkpt lat="35.2152575" lon="9.1839128"><ele>468.0</ele><time>2026-05-01T10:35:34.469Z</time></trkpt><trkpt lat="35.2153207" lon="9.1836838"><ele>468.66666666666663</ele><time>2026-05-01T10:35:35.468Z</time></trkpt><trkpt lat="35.2153842" lon="9.183453"><ele>469.3333333333333</ele><time>2026-05-01T10:35:36.464Z</time></trkpt><trkpt lat="35.2154499" lon="9.1832223"><ele>470.0</ele><time>2026-05-01T10:35:37.46Z</time></trkpt><trkpt lat="35.2155145" lon="9.1829903"><ele>470.3333333333333</ele><time>2026-05-01T10:35:38.46Z</time></trkpt><trkpt lat="35.2155802" lon="9.1827576"><ele>470.66666666666663</ele><time>2026-05-01T10:35:39.456Z</time></trkpt><trkpt lat="35.2156462" lon="9.1825268"><ele>471.0</ele><time>2026-05-01T10:35:40.481Z</time></trkpt><trkpt lat="35.2157133" lon="9.1822977"><ele>471.33333333333337</ele><time>2026-05-01T10:35:41.461Z</time></trkpt><trkpt lat="35.2157779" lon="9.182067"><ele>471.6666666666667</ele><time>2026-05-01T10:35:42.456Z</time></trkpt><trkpt lat="35.2158437" lon="9.1818371"><ele>472.0</ele><time>2026-05-01T10:35:43.452Z</time></trkpt><trkpt lat="35.2159082" lon="9.1816084"><ele>472.0</ele><time>2026-05-01T10:35:44.468Z</time></trkpt><trkpt lat="35.2159727" lon="9.1813817"><ele>472.0</ele><time>2026-05-01T10:35:45.464Z</time></trkpt><trkpt lat="35.2160366" lon="9.1811518"><ele>472.0</ele><time>2026-05-01T10:35:46.467Z</time></trkpt><trkpt lat="35.2161009" lon="9.1809214"><ele>472.0</ele><time>2026-05-01T10:35:47.46Z</time></trkpt><trkpt lat="35.2161666" lon="9.1806921"><ele>472.0</ele><time>2026-05-01T10:35:48.458Z</time></trkpt><trkpt lat="35.2162345" lon="9.1804633"><ele>472.0</ele><time>2026-05-01T10:35:49.458Z</time></trkpt><trkpt lat="35.2163018" lon="9.1802317"><ele>472.33333333333337</ele><time>2026-05-01T10:35:50.455Z</time></trkpt><trkpt lat="35.2163676" lon="9.1800018"><ele>472.66666666666663</ele><time>2026-05-01T10:35:51.452Z</time></trkpt><trkpt lat="35.2164326" lon="9.1797727"><ele>473.0</ele><time>2026-05-01T10:35:52.454Z</time></trkpt><trkpt lat="35.2164982" lon="9.1795445"><ele>474.0</ele><time>2026-05-01T10:35:53.46Z</time></trkpt><trkpt lat="35.216564" lon="9.1793154"><ele>475.0</ele><time>2026-05-01T10:35:54.468Z</time></trkpt><trkpt lat="35.2166291" lon="9.179085"><ele>476.0</ele><time>2026-05-01T10:35:55.463Z</time></trkpt><trkpt lat="35.2166949" lon="9.1788541"><ele>476.0</ele><time>2026-05-01T10:35:56.461Z</time></trkpt><trkpt lat="35.2167604" lon="9.178623"><ele>476.0</ele><time>2026-05-01T10:35:57.479Z</time></trkpt><trkpt lat="35.2168242" lon="9.1783913"><ele>476.0</ele><time>2026-05-01T10:35:58.466Z</time></trkpt><trkpt lat="35.2168871" lon="9.1781587"><ele>476.0</ele><time>2026-05-01T10:35:59.462Z</time></trkpt><trkpt lat="35.2169492" lon="9.1779284"><ele>476.0</ele><time>2026-05-01T10:36:00.464Z</time></trkpt><trkpt lat="35.2170129" lon="9.1776985"><ele>476.0</ele><time>2026-05-01T10:36:01.462Z</time></trkpt><trkpt lat="35.2170794" lon="9.1774704"><ele>476.0</ele><time>2026-05-01T10:36:02.461Z</time></trkpt><trkpt lat="35.2171464" lon="9.1772401"><ele>476.0</ele><time>2026-05-01T10:36:03.461Z</time></trkpt><trkpt lat="35.217212" lon="9.1770078"><ele>476.0</ele><time>2026-05-01T10:36:04.468Z</time></trkpt><trkpt lat="35.2172779" lon="9.1767774"><ele>476.0</ele><time>2026-05-01T10:36:05.462Z</time></trkpt><trkpt lat="35.2173454" lon="9.1765464"><ele>476.0</ele><time>2026-05-01T10:36:06.459Z</time></trkpt><trkpt lat="35.2174104" lon="9.1763112"><ele>476.0</ele><time>2026-05-01T10:36:07.444Z</time></trkpt><trkpt lat="35.2174776" lon="9.1760729"><ele>476.3333333333333</ele><time>2026-05-01T10:36:08.442Z</time></trkpt><trkpt lat="35.2175456" lon="9.1758323"><ele>476.66666666666663</ele><time>2026-05-01T10:36:09.446Z</time></trkpt><trkpt lat="35.2176124" lon="9.175591"><ele>477.0</ele><time>2026-05-01T10:36:10.44Z</time></trkpt><trkpt lat="35.2176793" lon="9.1753537"><ele>477.33333333333337</ele><time>2026-05-01T10:36:11.451Z</time></trkpt><trkpt lat="35.2177436" lon="9.1751224"><ele>477.6666666666667</ele><time>2026-05-01T10:36:12.525Z</time></trkpt><trkpt lat="35.2178051" lon="9.1748993"><ele>478.0</ele><time>2026-05-01T10:36:13.486Z</time></trkpt><trkpt lat="35.2178657" lon="9.1746794"><ele>478.0</ele><time>2026-05-01T10:36:14.463Z</time></trkpt><trkpt lat="35.2179227" lon="9.1744653"><ele>478.0</ele><time>2026-05-01T10:36:15.453Z</time></trkpt><trkpt lat="35.2179746" lon="9.1742587"><ele>478.0</ele><time>2026-05-01T10:36:16.466Z</time></trkpt><trkpt lat="35.2180291" lon="9.1740433"><ele>478.6666666666667</ele><time>2026-05-01T10:36:17.458Z</time></trkpt><trkpt lat="35.218088" lon="9.1738151"><ele>479.33333333333337</ele><time>2026-05-01T10:36:18.457Z</time></trkpt><trkpt lat="35.2181476" lon="9.173591"><ele>480.0</ele><time>2026-05-01T10:36:19.455Z</time></trkpt><trkpt lat="35.2182091" lon="9.1733606"><ele>481.0</ele><time>2026-05-01T10:36:20.457Z</time></trkpt><trkpt lat="35.218295" lon="9.1730801"><ele>482.0</ele><time>2026-05-01T10:36:21.452Z</time></trkpt><trkpt lat="35.2183927" lon="9.1727752"><ele>482.0</ele><time>2026-05-01T10:36:22.454Z</time></trkpt><trkpt lat="35.2184637" lon="9.1725275"><ele>482.0</ele><time>2026-05-01T10:36:23.474Z</time></trkpt><trkpt lat="35.2185341" lon="9.1722805"><ele>482.0</ele><time>2026-05-01T10:36:24.46Z</time></trkpt><trkpt lat="35.2186062" lon="9.1720308"><ele>482.0</ele><time>2026-05-01T10:36:25.465Z</time></trkpt><trkpt lat="35.2186779" lon="9.1717864"><ele>482.0</ele><time>2026-05-01T10:36:26.463Z</time></trkpt><trkpt lat="35.2187465" lon="9.1715459"><ele>482.0</ele><time>2026-05-01T10:36:27.46Z</time></trkpt><trkpt lat="35.2188165" lon="9.1713023"><ele>482.3333333333333</ele><time>2026-05-01T10:36:28.458Z</time></trkpt><trkpt lat="35.2188875" lon="9.171061"><ele>482.66666666666663</ele><time>2026-05-01T10:36:29.472Z</time></trkpt><trkpt lat="35.218958" lon="9.1708138"><ele>483.0</ele><time>2026-05-01T10:36:30.469Z</time></trkpt><trkpt lat="35.2190297" lon="9.170566"><ele>483.66666666666663</ele><time>2026-05-01T10:36:31.467Z</time></trkpt><trkpt lat="35.2190996" lon="9.1703154"><ele>484.3333333333333</ele><time>2026-05-01T10:36:32.466Z</time></trkpt><trkpt lat="35.2191704" lon="9.1700615"><ele>485.0</ele><time>2026-05-01T10:36:33.461Z</time></trkpt><trkpt lat="35.2192421" lon="9.1698062"><ele>485.0</ele><time>2026-05-01T10:36:34.465Z</time></trkpt><trkpt lat="35.2193133" lon="9.1695504"><ele>485.0</ele><time>2026-05-01T10:36:35.46Z</time></trkpt><trkpt lat="35.219389" lon="9.1692915"><ele>485.0</ele><time>2026-05-01T10:36:36.461Z</time></trkpt><trkpt lat="35.2194648" lon="9.1690304"><ele>484.5</ele><time>2026-05-01T10:36:37.444Z</time></trkpt><trkpt lat="35.2195408" lon="9.1687708"><ele>484.0</ele><time>2026-05-01T10:36:38.46Z</time></trkpt><trkpt lat="35.2196169" lon="9.1685115"><ele>484.0</ele><time>2026-05-01T10:36:39.448Z</time></trkpt><trkpt lat="35.21969" lon="9.1682529"><ele>484.0</ele><time>2026-05-01T10:36:40.442Z</time></trkpt><trkpt lat="35.2197631" lon="9.1679956"><ele>484.0</ele><time>2026-05-01T10:36:41.459Z</time></trkpt><trkpt lat="35.2198349" lon="9.1677371"><ele>484.6666666666667</ele><time>2026-05-01T10:36:42.455Z</time></trkpt><trkpt lat="35.2199082" lon="9.1674805"><ele>485.33333333333337</ele><time>2026-05-01T10:36:43.461Z</time></trkpt><trkpt lat="35.219981" lon="9.1672259"><ele>486.0</ele><time>2026-05-01T10:36:44.465Z</time></trkpt><trkpt lat="35.2200543" lon="9.1669728"><ele>486.66666666666663</ele><time>2026-05-01T10:36:45.452Z</time></trkpt><trkpt lat="35.2201295" lon="9.1667208"><ele>487.3333333333333</ele><time>2026-05-01T10:36:46.46Z</time></trkpt><trkpt lat="35.2202049" lon="9.1664701"><ele>488.0</ele><time>2026-05-01T10:36:47.46Z</time></trkpt><trkpt lat="35.2202792" lon="9.1662202"><ele>488.0</ele><time>2026-05-01T10:36:48.449Z</time></trkpt><trkpt lat="35.2203509" lon="9.1659669"><ele>488.0</ele><time>2026-05-01T10:36:49.464Z</time></trkpt><trkpt lat="35.2204229" lon="9.1657127"><ele>488.0</ele><time>2026-05-01T10:36:50.461Z</time></trkpt><trkpt lat="35.2204915" lon="9.1654591"><ele>487.66666666666663</ele><time>2026-05-01T10:36:51.456Z</time></trkpt><trkpt lat="35.2205635" lon="9.1652044"><ele>487.33333333333337</ele><time>2026-05-01T10:36:52.451Z</time></trkpt><trkpt lat="35.2206362" lon="9.1649456"><ele>487.0</ele><time>2026-05-01T10:36:53.473Z</time></trkpt><trkpt lat="35.2207094" lon="9.1646869"><ele>488.0</ele><time>2026-05-01T10:36:54.453Z</time></trkpt><trkpt lat="35.2207844" lon="9.1644243"><ele>489.0</ele><time>2026-05-01T10:36:55.465Z</time></trkpt><trkpt lat="35.2208582" lon="9.1641626"><ele>489.0</ele><time>2026-05-01T10:36:56.463Z</time></trkpt><trkpt lat="35.2209336" lon="9.1638997"><ele>489.0</ele><time>2026-05-01T10:36:57.455Z</time></trkpt><trkpt lat="35.2210083" lon="9.1636389"><ele>489.0</ele><time>2026-05-01T10:36:58.462Z</time></trkpt><trkpt lat="35.2210828" lon="9.163378"><ele>489.0</ele><time>2026-05-01T10:36:59.451Z</time></trkpt><trkpt lat="35.2211557" lon="9.1631183"><ele>489.33333333333337</ele><time>2026-05-01T10:37:00.46Z</time></trkpt><trkpt lat="35.2212283" lon="9.1628596"><ele>489.6666666666667</ele><time>2026-05-01T10:37:01.455Z</time></trkpt><trkpt lat="35.2213013" lon="9.1625993"><ele>490.0</ele><time>2026-05-01T10:37:02.464Z</time></trkpt><trkpt lat="35.2213747" lon="9.1623381"><ele>490.0</ele><time>2026-05-01T10:37:03.462Z</time></trkpt><trkpt lat="35.2214496" lon="9.1620797"><ele>490.0</ele><time>2026-05-01T10:37:04.446Z</time></trkpt><trkpt lat="35.2215246" lon="9.1618182"><ele>490.0</ele><time>2026-05-01T10:37:05.463Z</time></trkpt><trkpt lat="35.2215991" lon="9.1615575"><ele>490.0</ele><time>2026-05-01T10:37:06.455Z</time></trkpt><trkpt lat="35.221673" lon="9.1612992"><ele>490.0</ele><time>2026-05-01T10:37:07.455Z</time></trkpt><trkpt lat="35.2217473" lon="9.1610411"><ele>490.0</ele><time>2026-05-01T10:37:08.452Z</time></trkpt><trkpt lat="35.2218194" lon="9.160781"><ele>490.0</ele><time>2026-05-01T10:37:09.45Z</time></trkpt><trkpt lat="35.221892" lon="9.1605187"><ele>490.0</ele><time>2026-05-01T10:37:10.447Z</time></trkpt><trkpt lat="35.2219645" lon="9.1602589"><ele>490.0</ele><time>2026-05-01T10:37:11.453Z</time></trkpt><trkpt lat="35.2220382" lon="9.1599988"><ele>490.0</ele><time>2026-05-01T10:37:12.457Z</time></trkpt><trkpt lat="35.2221119" lon="9.1597418"><ele>490.6666666666667</ele><time>2026-05-01T10:37:13.464Z</time></trkpt><trkpt lat="35.2221862" lon="9.1594824"><ele>491.33333333333337</ele><time>2026-05-01T10:37:14.466Z</time></trkpt><trkpt lat="35.2222599" lon="9.1592229"><ele>492.0</ele><time>2026-05-01T10:37:15.461Z</time></trkpt><trkpt lat="35.2223328" lon="9.1589639"><ele>492.33333333333337</ele><time>2026-05-01T10:37:16.453Z</time></trkpt><trkpt lat="35.2224052" lon="9.1587051"><ele>492.6666666666667</ele><time>2026-05-01T10:37:17.46Z</time></trkpt><trkpt lat="35.2224791" lon="9.1584455"><ele>493.0</ele><time>2026-05-01T10:37:18.455Z</time></trkpt><trkpt lat="35.2225536" lon="9.1581829"><ele>493.0</ele><time>2026-05-01T10:37:19.447Z</time></trkpt><trkpt lat="35.2226261" lon="9.1579216"><ele>493.0</ele><time>2026-05-01T10:37:20.455Z</time></trkpt><trkpt lat="35.2226997" lon="9.1576605"><ele>493.0</ele><time>2026-05-01T10:37:21.462Z</time></trkpt><trkpt lat="35.2227722" lon="9.1574004"><ele>493.0</ele><time>2026-05-01T10:37:22.456Z</time></trkpt><trkpt lat="35.2228454" lon="9.1571405"><ele>493.0</ele><time>2026-05-01T10:37:23.461Z</time></trkpt><trkpt lat="35.222922" lon="9.1568799"><ele>493.33333333333337</ele><time>2026-05-01T10:37:24.474Z</time></trkpt><trkpt lat="35.2229976" lon="9.1566199"><ele>493.66666666666663</ele><time>2026-05-01T10:37:25.454Z</time></trkpt><trkpt lat="35.2230725" lon="9.1563617"><ele>494.0</ele><time>2026-05-01T10:37:26.46Z</time></trkpt><trkpt lat="35.2231451" lon="9.1561009"><ele>495.0</ele><time>2026-05-01T10:37:27.469Z</time></trkpt><trkpt lat="35.2232189" lon="9.155842"><ele>496.0</ele><time>2026-05-01T10:37:28.467Z</time></trkpt><trkpt lat="35.2232941" lon="9.1555797"><ele>496.5</ele><time>2026-05-01T10:37:29.46Z</time></trkpt><trkpt lat="35.2233669" lon="9.1553215"><ele>497.0</ele><time>2026-05-01T10:37:30.455Z</time></trkpt><trkpt lat="35.2234428" lon="9.1550579"><ele>497.5</ele><time>2026-05-01T10:37:31.458Z</time></trkpt><trkpt lat="35.2235149" lon="9.1547974"><ele>498.0</ele><time>2026-05-01T10:37:32.462Z</time></trkpt><trkpt lat="35.2235858" lon="9.1545352"><ele>498.0</ele><time>2026-05-01T10:37:33.455Z</time></trkpt><trkpt lat="35.2236573" lon="9.1542745"><ele>498.0</ele><time>2026-05-01T10:37:34.448Z</time></trkpt><trkpt lat="35.2237306" lon="9.1540134"><ele>498.0</ele><time>2026-05-01T10:37:35.444Z</time></trkpt><trkpt lat="35.2238065" lon="9.1537505"><ele>498.0</ele><time>2026-05-01T10:37:36.464Z</time></trkpt><trkpt lat="35.2238824" lon="9.1534902"><ele>498.0</ele><time>2026-05-01T10:37:37.458Z</time></trkpt><trkpt lat="35.2239569" lon="9.1532314"><ele>498.0</ele><time>2026-05-01T10:37:38.452Z</time></trkpt><trkpt lat="35.2240308" lon="9.1529714"><ele>498.0</ele><time>2026-05-01T10:37:39.451Z</time></trkpt><trkpt lat="35.224105" lon="9.152711"><ele>498.0</ele><time>2026-05-01T10:37:40.465Z</time></trkpt><trkpt lat="35.2241798" lon="9.1524501"><ele>498.0</ele><time>2026-05-01T10:37:41.449Z</time></trkpt><trkpt lat="35.2242539" lon="9.1521877"><ele>498.5</ele><time>2026-05-01T10:37:42.45Z</time></trkpt><trkpt lat="35.2243278" lon="9.1519259"><ele>499.0</ele><time>2026-05-01T10:37:43.462Z</time></trkpt><trkpt lat="35.2244004" lon="9.1516656"><ele>500.0</ele><time>2026-05-01T10:37:44.46Z</time></trkpt><trkpt lat="35.2244758" lon="9.1514046"><ele>501.0</ele><time>2026-05-01T10:37:45.451Z</time></trkpt><trkpt lat="35.2245498" lon="9.151146"><ele>501.0</ele><time>2026-05-01T10:37:46.457Z</time></trkpt><trkpt lat="35.2246274" lon="9.1508864"><ele>501.0</ele><time>2026-05-01T10:37:47.451Z</time></trkpt><trkpt lat="35.2247054" lon="9.1506297"><ele>501.33333333333337</ele><time>2026-05-01T10:37:48.459Z</time></trkpt><trkpt lat="35.2247876" lon="9.1503759"><ele>501.6666666666667</ele><time>2026-05-01T10:37:49.452Z</time></trkpt><trkpt lat="35.2248778" lon="9.1501235"><ele>502.0</ele><time>2026-05-01T10:37:50.462Z</time></trkpt><trkpt lat="35.2249739" lon="9.1498747"><ele>502.0</ele><time>2026-05-01T10:37:51.455Z</time></trkpt><trkpt lat="35.2250767" lon="9.149627"><ele>502.0</ele><time>2026-05-01T10:37:52.464Z</time></trkpt><trkpt lat="35.2251789" lon="9.1493824"><ele>502.0</ele><time>2026-05-01T10:37:53.462Z</time></trkpt><trkpt lat="35.2252809" lon="9.1491376"><ele>502.0</ele><time>2026-05-01T10:37:54.451Z</time></trkpt><trkpt lat="35.2253806" lon="9.1489001"><ele>502.0</ele><time>2026-05-01T10:37:55.47Z</time></trkpt><trkpt lat="35.2254798" lon="9.1486664"><ele>502.33333333333337</ele><time>2026-05-01T10:37:56.459Z</time></trkpt><trkpt lat="35.2255792" lon="9.1484293"><ele>502.66666666666663</ele><time>2026-05-01T10:37:57.451Z</time></trkpt><trkpt lat="35.2256794" lon="9.1481904"><ele>503.0</ele><time>2026-05-01T10:37:58.443Z</time></trkpt><trkpt lat="35.225777" lon="9.1479526"><ele>503.66666666666663</ele><time>2026-05-01T10:37:59.442Z</time></trkpt><trkpt lat="35.2258755" lon="9.1477118"><ele>504.33333333333337</ele><time>2026-05-01T10:38:00.441Z</time></trkpt><trkpt lat="35.2259739" lon="9.1474714"><ele>505.0</ele><time>2026-05-01T10:38:01.453Z</time></trkpt><trkpt lat="35.2260745" lon="9.1472305"><ele>505.0</ele><time>2026-05-01T10:38:02.462Z</time></trkpt><trkpt lat="35.2261745" lon="9.1469893"><ele>505.0</ele><time>2026-05-01T10:38:03.455Z</time></trkpt><trkpt lat="35.2262756" lon="9.1467492"><ele>505.0</ele><time>2026-05-01T10:38:04.459Z</time></trkpt><trkpt lat="35.2263757" lon="9.1465106"><ele>505.6666666666667</ele><time>2026-05-01T10:38:05.464Z</time></trkpt><trkpt lat="35.2264778" lon="9.1462708"><ele>506.33333333333337</ele><time>2026-05-01T10:38:06.476Z</time></trkpt><trkpt lat="35.2265782" lon="9.1460317"><ele>507.0</ele><time>2026-05-01T10:38:07.47Z</time></trkpt><trkpt lat="35.226681" lon="9.1457909"><ele>507.33333333333337</ele><time>2026-05-01T10:38:08.488Z</time></trkpt><trkpt lat="35.2267815" lon="9.1455513"><ele>507.6666666666667</ele><time>2026-05-01T10:38:09.464Z</time></trkpt><trkpt lat="35.2268823" lon="9.1453133"><ele>508.0</ele><time>2026-05-01T10:38:10.463Z</time></trkpt><trkpt lat="35.2269823" lon="9.1450755"><ele>508.0</ele><time>2026-05-01T10:38:11.462Z</time></trkpt><trkpt lat="35.2270822" lon="9.144838"><ele>508.0</ele><time>2026-05-01T10:38:12.458Z</time></trkpt><trkpt lat="35.2271807" lon="9.1445979"><ele>508.0</ele><time>2026-05-01T10:38:13.466Z</time></trkpt><trkpt lat="35.2272808" lon="9.1443554"><ele>508.0</ele><time>2026-05-01T10:38:14.466Z</time></trkpt><trkpt lat="35.2273816" lon="9.1441132"><ele>508.0</ele><time>2026-05-01T10:38:15.454Z</time></trkpt><trkpt lat="35.2274834" lon="9.1438721"><ele>508.0</ele><time>2026-05-01T10:38:16.46Z</time></trkpt><trkpt lat="35.2275833" lon="9.1436319"><ele>508.33333333333337</ele><time>2026-05-01T10:38:17.463Z</time></trkpt><trkpt lat="35.2276836" lon="9.1433928"><ele>508.66666666666663</ele><time>2026-05-01T10:38:18.465Z</time></trkpt><trkpt lat="35.2277821" lon="9.1431531"><ele>509.0</ele><time>2026-05-01T10:38:19.457Z</time></trkpt><trkpt lat="35.2278801" lon="9.1429131"><ele>509.3333333333333</ele><time>2026-05-01T10:38:20.46Z</time></trkpt><trkpt lat="35.2279785" lon="9.1426711"><ele>509.66666666666663</ele><time>2026-05-01T10:38:21.443Z</time></trkpt><trkpt lat="35.2280793" lon="9.1424281"><ele>510.0</ele><time>2026-05-01T10:38:22.465Z</time></trkpt><trkpt lat="35.2281776" lon="9.1421873"><ele>510.33333333333337</ele><time>2026-05-01T10:38:23.458Z</time></trkpt><trkpt lat="35.2282777" lon="9.1419477"><ele>510.6666666666667</ele><time>2026-05-01T10:38:24.463Z</time></trkpt><trkpt lat="35.2283718" lon="9.1417264"><ele>511.0</ele><time>2026-05-01T10:38:25.459Z</time></trkpt><trkpt lat="35.2284567" lon="9.1415306"><ele>511.0</ele><time>2026-05-01T10:38:26.463Z</time></trkpt><trkpt lat="35.2285395" lon="9.1413474"><ele>511.0</ele><time>2026-05-01T10:38:27.464Z</time></trkpt><trkpt lat="35.2286289" lon="9.1411679"><ele>511.0</ele><time>2026-05-01T10:38:28.458Z</time></trkpt><trkpt lat="35.2287286" lon="9.1409983"><ele>511.0</ele><time>2026-05-01T10:38:29.46Z</time></trkpt><trkpt lat="35.228843" lon="9.1408433"><ele>511.0</ele><time>2026-05-01T10:38:30.459Z</time></trkpt><trkpt lat="35.2289752" lon="9.140704"><ele>511.0</ele><time>2026-05-01T10:38:31.452Z</time></trkpt><trkpt lat="35.2291221" lon="9.1405802"><ele>512.0</ele><time>2026-05-01T10:38:32.449Z</time></trkpt><trkpt lat="35.2292773" lon="9.1404725"><ele>513.0</ele><time>2026-05-01T10:38:33.452Z</time></trkpt><trkpt lat="35.2294409" lon="9.140372"><ele>514.0</ele><time>2026-05-01T10:38:34.461Z</time></trkpt><trkpt lat="35.229606" lon="9.1402784"><ele>514.0</ele><time>2026-05-01T10:38:35.462Z</time></trkpt><trkpt lat="35.229773" lon="9.1401865"><ele>514.0</ele><time>2026-05-01T10:38:36.473Z</time></trkpt><trkpt lat="35.2299406" lon="9.1400934"><ele>514.0</ele><time>2026-05-01T10:38:37.469Z</time></trkpt><trkpt lat="35.2301094" lon="9.1399998"><ele>514.3333333333334</ele><time>2026-05-01T10:38:38.454Z</time></trkpt><trkpt lat="35.2302784" lon="9.139907"><ele>514.6666666666666</ele><time>2026-05-01T10:38:39.46Z</time></trkpt><trkpt lat="35.2304462" lon="9.1398146"><ele>515.0</ele><time>2026-05-01T10:38:40.463Z</time></trkpt><trkpt lat="35.2306113" lon="9.1397246"><ele>515.6666666666666</ele><time>2026-05-01T10:38:41.461Z</time></trkpt><trkpt lat="35.2307789" lon="9.1396353"><ele>516.3333333333334</ele><time>2026-05-01T10:38:42.456Z</time></trkpt><trkpt lat="35.2309426" lon="9.1395471"><ele>517.0</ele><time>2026-05-01T10:38:43.467Z</time></trkpt><trkpt lat="35.2311027" lon="9.1394639"><ele>517.0</ele><time>2026-05-01T10:38:44.456Z</time></trkpt><trkpt lat="35.2312637" lon="9.1393788"><ele>517.0</ele><time>2026-05-01T10:38:45.46Z</time></trkpt><trkpt lat="35.2314227" lon="9.1392952"><ele>517.0</ele><time>2026-05-01T10:38:46.464Z</time></trkpt><trkpt lat="35.2315798" lon="9.1392122"><ele>517.3333333333334</ele><time>2026-05-01T10:38:47.47Z</time></trkpt><trkpt lat="35.231733" lon="9.1391289"><ele>517.6666666666666</ele><time>2026-05-01T10:38:48.456Z</time></trkpt><trkpt lat="35.2318852" lon="9.1390456"><ele>518.0</ele><time>2026-05-01T10:38:49.456Z</time></trkpt><trkpt lat="35.2320361" lon="9.1389571"><ele>518.0</ele><time>2026-05-01T10:38:50.464Z</time></trkpt><trkpt lat="35.2321826" lon="9.1388628"><ele>518.0</ele><time>2026-05-01T10:38:51.45Z</time></trkpt><trkpt lat="35.23232" lon="9.1387563"><ele>518.0</ele><time>2026-05-01T10:38:52.445Z</time></trkpt><trkpt lat="35.2324488" lon="9.1386378"><ele>518.3333333333333</ele><time>2026-05-01T10:38:53.464Z</time></trkpt><trkpt lat="35.2325683" lon="9.1385027"><ele>518.6666666666666</ele><time>2026-05-01T10:38:54.449Z</time></trkpt><trkpt lat="35.2326772" lon="9.138357"><ele>519.0</ele><time>2026-05-01T10:38:55.457Z</time></trkpt><trkpt lat="35.2327778" lon="9.1381994"><ele>519.0</ele><time>2026-05-01T10:38:56.461Z</time></trkpt><trkpt lat="35.232867" lon="9.1380326"><ele>519.0</ele><time>2026-05-01T10:38:57.467Z</time></trkpt><trkpt lat="35.2329435" lon="9.1378604"><ele>519.0</ele><time>2026-05-01T10:38:58.461Z</time></trkpt><trkpt lat="35.2330053" lon="9.1376821"><ele>519.0</ele><time>2026-05-01T10:38:59.45Z</time></trkpt><trkpt lat="35.2330537" lon="9.1375063"><ele>519.0</ele><time>2026-05-01T10:39:00.454Z</time></trkpt><trkpt lat="35.2330874" lon="9.1373468"><ele>519.0</ele><time>2026-05-01T10:39:01.448Z</time></trkpt><trkpt lat="35.2331074" lon="9.1372169"><ele>519.0</ele><time>2026-05-01T10:39:02.46Z</time></trkpt><trkpt lat="35.2331184" lon="9.1371079"><ele>519.0</ele><time>2026-05-01T10:39:03.455Z</time></trkpt><trkpt lat="35.2331254" lon="9.1370148"><ele>519.0</ele><time>2026-05-01T10:39:04.461Z</time></trkpt><trkpt lat="35.2331299" lon="9.1369288"><ele>519.0</ele><time>2026-05-01T10:39:05.462Z</time></trkpt><trkpt lat="35.2331443" lon="9.1368529"><ele>519.0</ele><time>2026-05-01T10:39:06.465Z</time></trkpt><trkpt lat="35.233184" lon="9.1367116"><ele>519.0</ele><time>2026-05-01T10:39:08.47Z</time></trkpt><trkpt lat="35.2332506" lon="9.1365791"><ele>520.1666666666666</ele><time>2026-05-01T10:39:10.466Z</time></trkpt><trkpt lat="35.2332953" lon="9.1365114"><ele>521.3333333333334</ele><time>2026-05-01T10:39:11.467Z</time></trkpt><trkpt lat="35.2333289" lon="9.1364386"><ele>522.5</ele><time>2026-05-01T10:39:12.465Z</time></trkpt><trkpt lat="35.2333477" lon="9.1363615"><ele>523.6666666666667</ele><time>2026-05-01T10:39:13.491Z</time></trkpt><trkpt lat="35.2333252" lon="9.1362165"><ele>524.8333333333334</ele><time>2026-05-01T10:39:15.453Z</time></trkpt><trkpt lat="35.2332847" lon="9.1361521"><ele>526.0</ele><time>2026-05-01T10:39:16.458Z</time></trkpt><trkpt lat="35.2332222" lon="9.1361098"><ele>526.0</ele><time>2026-05-01T10:39:17.459Z</time></trkpt><trkpt lat="35.2331499" lon="9.1360741"><ele>526.0</ele><time>2026-05-01T10:39:18.456Z</time></trkpt><trkpt lat="35.2330782" lon="9.1360236"><ele>526.0</ele><time>2026-05-01T10:39:19.451Z</time></trkpt><trkpt lat="35.233012" lon="9.135961"><ele>526.0</ele><time>2026-05-01T10:39:20.449Z</time></trkpt><trkpt lat="35.2329485" lon="9.1358743"><ele>526.0</ele><time>2026-05-01T10:39:21.458Z</time></trkpt><trkpt lat="35.2328893" lon="9.1357839"><ele>526.0</ele><time>2026-05-01T10:39:22.451Z</time></trkpt><trkpt lat="35.2328339" lon="9.1356697"><ele>525.0</ele><time>2026-05-01T10:39:23.453Z</time></trkpt><trkpt lat="35.2327679" lon="9.1355504"><ele>524.0</ele><time>2026-05-01T10:39:24.458Z</time></trkpt><trkpt lat="35.2326989" lon="9.1354317"><ele>523.0</ele><time>2026-05-01T10:39:25.461Z</time></trkpt><trkpt lat="35.2326284" lon="9.135309"><ele>522.0</ele><time>2026-05-01T10:39:26.47Z</time></trkpt><trkpt lat="35.2325533" lon="9.1351761"><ele>522.0</ele><time>2026-05-01T10:39:27.459Z</time></trkpt><trkpt lat="35.2324757" lon="9.1350411"><ele>522.0</ele><time>2026-05-01T10:39:28.452Z</time></trkpt><trkpt lat="35.2323964" lon="9.1349003"><ele>522.0</ele><time>2026-05-01T10:39:29.46Z</time></trkpt><trkpt lat="35.232314" lon="9.1347556"><ele>522.0</ele><time>2026-05-01T10:39:30.451Z</time></trkpt><trkpt lat="35.2322325" lon="9.1346102"><ele>520.3333333333334</ele><time>2026-05-01T10:39:31.446Z</time></trkpt><trkpt lat="35.232143" lon="9.1344558"><ele>518.6666666666667</ele><time>2026-05-01T10:39:32.453Z</time></trkpt><trkpt lat="35.2320487" lon="9.1342937"><ele>517.0</ele><time>2026-05-01T10:39:33.454Z</time></trkpt><trkpt lat="35.2319546" lon="9.1341273"><ele>516.3333333333334</ele><time>2026-05-01T10:39:34.453Z</time></trkpt><trkpt lat="35.2318583" lon="9.1339615"><ele>515.6666666666666</ele><time>2026-05-01T10:39:35.504Z</time></trkpt><trkpt lat="35.2317626" lon="9.1337991"><ele>515.0</ele><time>2026-05-01T10:39:36.483Z</time></trkpt><trkpt lat="35.2316717" lon="9.1336462"><ele>515.0</ele><time>2026-05-01T10:39:37.492Z</time></trkpt><trkpt lat="35.2315773" lon="9.1334912"><ele>515.0</ele><time>2026-05-01T10:39:38.495Z</time></trkpt><trkpt lat="35.2314839" lon="9.1333354"><ele>515.0</ele><time>2026-05-01T10:39:39.487Z</time></trkpt><trkpt lat="35.2313922" lon="9.1331804"><ele>514.6666666666666</ele><time>2026-05-01T10:39:40.51Z</time></trkpt><trkpt lat="35.2313024" lon="9.1330286"><ele>514.3333333333334</ele><time>2026-05-01T10:39:41.521Z</time></trkpt><trkpt lat="35.2312142" lon="9.1328793"><ele>514.0</ele><time>2026-05-01T10:39:42.509Z</time></trkpt><trkpt lat="35.2311273" lon="9.1327351"><ele>514.0</ele><time>2026-05-01T10:39:43.489Z</time></trkpt><trkpt lat="35.2310421" lon="9.1325935"><ele>514.0</ele><time>2026-05-01T10:39:44.517Z</time></trkpt><trkpt lat="35.2309585" lon="9.1324552"><ele>514.0</ele><time>2026-05-01T10:39:45.527Z</time></trkpt><trkpt lat="35.2308768" lon="9.1323208"><ele>514.0</ele><time>2026-05-01T10:39:46.485Z</time></trkpt><trkpt lat="35.2307997" lon="9.1321916"><ele>515.0</ele><time>2026-05-01T10:39:47.509Z</time></trkpt><trkpt lat="35.2307273" lon="9.1320652"><ele>516.0</ele><time>2026-05-01T10:39:48.453Z</time></trkpt><trkpt lat="35.2306653" lon="9.1319409"><ele>517.0</ele><time>2026-05-01T10:39:49.495Z</time></trkpt><trkpt lat="35.2306109" lon="9.1318139"><ele>518.0</ele><time>2026-05-01T10:39:50.475Z</time></trkpt><trkpt lat="35.2305667" lon="9.1316913"><ele>518.0</ele><time>2026-05-01T10:39:51.471Z</time></trkpt><trkpt lat="35.2305362" lon="9.1315758"><ele>518.0</ele><time>2026-05-01T10:39:52.492Z</time></trkpt><trkpt lat="35.230513" lon="9.1314612"><ele>518.0</ele><time>2026-05-01T10:39:53.472Z</time></trkpt><trkpt lat="35.230505" lon="9.1313493"><ele>518.0</ele><time>2026-05-01T10:39:54.514Z</time></trkpt><trkpt lat="35.2305103" lon="9.1312447"><ele>518.0</ele><time>2026-05-01T10:39:55.503Z</time></trkpt><trkpt lat="35.2305336" lon="9.1311423"><ele>518.1999999999999</ele><time>2026-05-01T10:39:56.509Z</time></trkpt><trkpt lat="35.2305772" lon="9.131042"><ele>518.4</ele><time>2026-05-01T10:39:57.483Z</time></trkpt><trkpt lat="35.2306343" lon="9.1309435"><ele>518.5999999999999</ele><time>2026-05-01T10:39:58.471Z</time></trkpt><trkpt lat="35.2306953" lon="9.1308535"><ele>518.8</ele><time>2026-05-01T10:39:59.509Z</time></trkpt><trkpt lat="35.230767" lon="9.1307726"><ele>519.0</ele><time>2026-05-01T10:40:00.517Z</time></trkpt><trkpt lat="35.2308439" lon="9.1306831"><ele>520.0</ele><time>2026-05-01T10:40:01.513Z</time></trkpt><trkpt lat="35.2309266" lon="9.1305964"><ele>521.0</ele><time>2026-05-01T10:40:02.524Z</time></trkpt><trkpt lat="35.2310152" lon="9.1305075"><ele>522.0</ele><time>2026-05-01T10:40:03.511Z</time></trkpt><trkpt lat="35.2311085" lon="9.1304178"><ele>523.0</ele><time>2026-05-01T10:40:04.491Z</time></trkpt><trkpt lat="35.2312063" lon="9.1303209"><ele>523.0</ele><time>2026-05-01T10:40:05.503Z</time></trkpt><trkpt lat="35.2313063" lon="9.1302239"><ele>523.0</ele><time>2026-05-01T10:40:06.495Z</time></trkpt><trkpt lat="35.2314086" lon="9.1301266"><ele>523.0</ele><time>2026-05-01T10:40:07.509Z</time></trkpt><trkpt lat="35.2315105" lon="9.1300292"><ele>523.0</ele><time>2026-05-01T10:40:08.514Z</time></trkpt><trkpt lat="35.231614" lon="9.1299275"><ele>523.5</ele><time>2026-05-01T10:40:09.511Z</time></trkpt><trkpt lat="35.2317174" lon="9.1298273"><ele>524.0</ele><time>2026-05-01T10:40:10.511Z</time></trkpt><trkpt lat="35.2318206" lon="9.12973"><ele>524.5</ele><time>2026-05-01T10:40:11.506Z</time></trkpt><trkpt lat="35.2319228" lon="9.1296336"><ele>525.0</ele><time>2026-05-01T10:40:12.51Z</time></trkpt><trkpt lat="35.2320203" lon="9.1295398"><ele>525.0</ele><time>2026-05-01T10:40:13.508Z</time></trkpt><trkpt lat="35.2321132" lon="9.1294471"><ele>525.0</ele><time>2026-05-01T10:40:14.52Z</time></trkpt><trkpt lat="35.2321969" lon="9.1293527"><ele>525.0</ele><time>2026-05-01T10:40:15.503Z</time></trkpt><trkpt lat="35.23227" lon="9.1292536"><ele>525.0</ele><time>2026-05-01T10:40:16.507Z</time></trkpt><trkpt lat="35.2323293" lon="9.1291499"><ele>525.0</ele><time>2026-05-01T10:40:17.516Z</time></trkpt><trkpt lat="35.2323801" lon="9.1290615"><ele>524.8571428571429</ele><time>2026-05-01T10:40:18.495Z</time></trkpt><trkpt lat="35.2324358" lon="9.1289826"><ele>524.7142857142858</ele><time>2026-05-01T10:40:19.484Z</time></trkpt><trkpt lat="35.2324986" lon="9.1289215"><ele>524.5714285714286</ele><time>2026-05-01T10:40:20.509Z</time></trkpt><trkpt lat="35.2325626" lon="9.128874"><ele>524.4285714285714</ele><time>2026-05-01T10:40:21.478Z</time></trkpt><trkpt lat="35.2326127" lon="9.1288183"><ele>524.2857142857143</ele><time>2026-05-01T10:40:22.512Z</time></trkpt><trkpt lat="35.2326459" lon="9.1287494"><ele>524.1428571428571</ele><time>2026-05-01T10:40:23.515Z</time></trkpt><trkpt lat="35.2326555" lon="9.1286676"><ele>524.0</ele><time>2026-05-01T10:40:24.477Z</time></trkpt><trkpt lat="35.2326458" lon="9.1285783"><ele>524.0</ele><time>2026-05-01T10:40:25.517Z</time></trkpt><trkpt lat="35.2326203" lon="9.1284862"><ele>524.0</ele><time>2026-05-01T10:40:26.505Z</time></trkpt><trkpt lat="35.2326003" lon="9.1283801"><ele>524.0</ele><time>2026-05-01T10:40:27.502Z</time></trkpt><trkpt lat="35.2325915" lon="9.1282628"><ele>524.0</ele><time>2026-05-01T10:40:28.497Z</time></trkpt><trkpt lat="35.2325939" lon="9.1281384"><ele>524.0</ele><time>2026-05-01T10:40:29.47Z</time></trkpt><trkpt lat="35.2326023" lon="9.1280133"><ele>524.2</ele><time>2026-05-01T10:40:30.502Z</time></trkpt><trkpt lat="35.2326145" lon="9.1278793"><ele>524.4</ele><time>2026-05-01T10:40:31.517Z</time></trkpt><trkpt lat="35.2326291" lon="9.1277499"><ele>524.6</ele><time>2026-05-01T10:40:32.51Z</time></trkpt><trkpt lat="35.2326445" lon="9.127625"><ele>524.8</ele><time>2026-05-01T10:40:33.514Z</time></trkpt><trkpt lat="35.2326542" lon="9.1275047"><ele>525.0</ele><time>2026-05-01T10:40:34.494Z</time></trkpt><trkpt lat="35.2326667" lon="9.127387"><ele>525.6</ele><time>2026-05-01T10:40:35.498Z</time></trkpt><trkpt lat="35.2326816" lon="9.1272688"><ele>526.2</ele><time>2026-05-01T10:40:36.514Z</time></trkpt><trkpt lat="35.2326927" lon="9.1271507"><ele>526.8</ele><time>2026-05-01T10:40:37.485Z</time></trkpt><trkpt lat="35.2327044" lon="9.1270315"><ele>527.4</ele><time>2026-05-01T10:40:38.45Z</time></trkpt><trkpt lat="35.2327184" lon="9.1269181"><ele>528.0</ele><time>2026-05-01T10:40:39.478Z</time></trkpt><trkpt lat="35.2327394" lon="9.1268187"><ele>528.0</ele><time>2026-05-01T10:40:40.483Z</time></trkpt><trkpt lat="35.232761" lon="9.1267219"><ele>528.0</ele><time>2026-05-01T10:40:41.506Z</time></trkpt><trkpt lat="35.2327899" lon="9.1266263"><ele>528.0</ele><time>2026-05-01T10:40:42.511Z</time></trkpt><trkpt lat="35.2328253" lon="9.1265284"><ele>528.0</ele><time>2026-05-01T10:40:43.512Z</time></trkpt><trkpt lat="35.2328714" lon="9.1264329"><ele>528.0</ele><time>2026-05-01T10:40:44.505Z</time></trkpt><trkpt lat="35.2329263" lon="9.1263507"><ele>528.0</ele><time>2026-05-01T10:40:45.513Z</time></trkpt><trkpt lat="35.2329862" lon="9.1262694"><ele>527.8</ele><time>2026-05-01T10:40:46.498Z</time></trkpt><trkpt lat="35.2330519" lon="9.1261824"><ele>527.5999999999999</ele><time>2026-05-01T10:40:47.489Z</time></trkpt><trkpt lat="35.2331207" lon="9.1260962"><ele>527.4000000000001</ele><time>2026-05-01T10:40:48.502Z</time></trkpt><trkpt lat="35.233193" lon="9.1260095"><ele>527.2</ele><time>2026-05-01T10:40:49.505Z</time></trkpt><trkpt lat="35.233269" lon="9.1259226"><ele>527.0</ele><time>2026-05-01T10:40:50.478Z</time></trkpt><trkpt lat="35.233347" lon="9.125833"><ele>527.0</ele><time>2026-05-01T10:40:51.503Z</time></trkpt><trkpt lat="35.2334257" lon="9.1257383"><ele>527.0</ele><time>2026-05-01T10:40:52.485Z</time></trkpt><trkpt lat="35.2335081" lon="9.1256471"><ele>527.0</ele><time>2026-05-01T10:40:53.522Z</time></trkpt><trkpt lat="35.2335943" lon="9.1255556"><ele>527.0</ele><time>2026-05-01T10:40:54.499Z</time></trkpt><trkpt lat="35.2336812" lon="9.1254583"><ele>528.0</ele><time>2026-05-01T10:40:55.512Z</time></trkpt><trkpt lat="35.2337666" lon="9.1253619"><ele>529.0</ele><time>2026-05-01T10:40:56.513Z</time></trkpt><trkpt lat="35.233851" lon="9.125267"><ele>530.0</ele><time>2026-05-01T10:40:57.521Z</time></trkpt><trkpt lat="35.2339338" lon="9.1251727"><ele>531.0</ele><time>2026-05-01T10:40:58.512Z</time></trkpt><trkpt lat="35.234018" lon="9.1250776"><ele>531.0</ele><time>2026-05-01T10:40:59.513Z</time></trkpt><trkpt lat="35.2340995" lon="9.1249854"><ele>531.0</ele><time>2026-05-01T10:41:00.508Z</time></trkpt><trkpt lat="35.2341735" lon="9.1249011"><ele>531.0</ele><time>2026-05-01T10:41:01.522Z</time></trkpt><trkpt lat="35.2342387" lon="9.124826"><ele>531.0</ele><time>2026-05-01T10:41:02.522Z</time></trkpt><trkpt lat="35.2342952" lon="9.1247628"><ele>531.0</ele><time>2026-05-01T10:41:03.519Z</time></trkpt><trkpt lat="35.2343458" lon="9.1247027"><ele>531.0</ele><time>2026-05-01T10:41:04.512Z</time></trkpt><trkpt lat="35.2344395" lon="9.1246042"><ele>531.2</ele><time>2026-05-01T10:41:06.511Z</time></trkpt><trkpt lat="35.2345242" lon="9.124524"><ele>531.4000000000001</ele><time>2026-05-01T10:41:08.501Z</time></trkpt><trkpt lat="35.2346153" lon="9.1244324"><ele>531.6</ele><time>2026-05-01T10:41:10.489Z</time></trkpt><trkpt lat="35.2346747" lon="9.1243719"><ele>531.8000000000001</ele><time>2026-05-01T10:41:11.513Z</time></trkpt><trkpt lat="35.234734" lon="9.1242997"><ele>532.0</ele><time>2026-05-01T10:41:12.517Z</time></trkpt><trkpt lat="35.2347943" lon="9.1242165"><ele>532.0</ele><time>2026-05-01T10:41:13.52Z</time></trkpt><trkpt lat="35.2348619" lon="9.1241272"><ele>532.0</ele><time>2026-05-01T10:41:14.521Z</time></trkpt><trkpt lat="35.2349355" lon="9.1240453"><ele>532.0</ele><time>2026-05-01T10:41:15.503Z</time></trkpt><trkpt lat="35.235005" lon="9.1239688"><ele>532.0</ele><time>2026-05-01T10:41:16.507Z</time></trkpt><trkpt lat="35.2350651" lon="9.1239044"><ele>532.0</ele><time>2026-05-01T10:41:17.517Z</time></trkpt><trkpt lat="35.2351155" lon="9.1238459"><ele>532.0</ele><time>2026-05-01T10:41:18.526Z</time></trkpt><trkpt lat="35.2351914" lon="9.1237591"><ele>532.0</ele><time>2026-05-01T10:41:20.501Z</time></trkpt><trkpt lat="35.2352488" lon="9.1236984"><ele>532.0</ele><time>2026-05-01T10:41:22.518Z</time></trkpt><trkpt lat="35.2352943" lon="9.1236443"><ele>532.0</ele><time>2026-05-01T10:41:24.492Z</time></trkpt><trkpt lat="35.2353403" lon="9.1235868"><ele>532.0</ele><time>2026-05-01T10:41:28.508Z</time></trkpt><trkpt lat="35.2353922" lon="9.1235225"><ele>532.0</ele><time>2026-05-01T10:41:46.461Z</time></trkpt><trkpt lat="35.2354669" lon="9.1234703"><ele>532.0</ele><time>2026-05-01T10:52:32.473Z</time></trkpt><trkpt lat="35.2354908" lon="9.1233986"><ele>532.0</ele><time>2026-05-01T10:52:39.487Z</time></trkpt><trkpt lat="35.2355219" lon="9.1233168"><ele>532.0</ele><time>2026-05-01T10:52:56.469Z</time></trkpt><trkpt lat="35.2356019" lon="9.1232187"><ele>532.0</ele><time>2026-05-01T10:52:58.481Z</time></trkpt><trkpt lat="35.2356764" lon="9.1231051"><ele>532.0</ele><time>2026-05-01T10:53:00.458Z</time></trkpt><trkpt lat="35.2357673" lon="9.1229955"><ele>532.0</ele><time>2026-05-01T10:53:02.461Z</time></trkpt><trkpt lat="35.2358192" lon="9.1229271"><ele>532.0</ele><time>2026-05-01T10:53:03.461Z</time></trkpt><trkpt lat="35.2358711" lon="9.1228509"><ele>532.5</ele><time>2026-05-01T10:53:04.477Z</time></trkpt><trkpt lat="35.2359265" lon="9.1227767"><ele>533.0</ele><time>2026-05-01T10:53:05.463Z</time></trkpt><trkpt lat="35.235982" lon="9.1227006"><ele>533.5</ele><time>2026-05-01T10:53:06.462Z</time></trkpt><trkpt lat="35.2360317" lon="9.1226187"><ele>534.0</ele><time>2026-05-01T10:53:07.472Z</time></trkpt><trkpt lat="35.2360937" lon="9.1225475"><ele>534.5</ele><time>2026-05-01T10:53:08.459Z</time></trkpt><trkpt lat="35.2361543" lon="9.1224739"><ele>535.0</ele><time>2026-05-01T10:53:09.466Z</time></trkpt><trkpt lat="35.2362134" lon="9.1224004"><ele>535.0</ele><time>2026-05-01T10:53:10.467Z</time></trkpt><trkpt lat="35.2362738" lon="9.1223207"><ele>535.0</ele><time>2026-05-01T10:53:11.486Z</time></trkpt><trkpt lat="35.2363349" lon="9.1222438"><ele>535.0</ele><time>2026-05-01T10:53:12.471Z</time></trkpt><trkpt lat="35.236401" lon="9.1221644"><ele>535.0</ele><time>2026-05-01T10:53:13.47Z</time></trkpt><trkpt lat="35.236468" lon="9.1220819"><ele>535.0</ele><time>2026-05-01T10:53:14.477Z</time></trkpt><trkpt lat="35.2365356" lon="9.1219955"><ele>535.0</ele><time>2026-05-01T10:53:15.456Z</time></trkpt><trkpt lat="35.2366052" lon="9.1219057"><ele>535.0</ele><time>2026-05-01T10:53:16.476Z</time></trkpt><trkpt lat="35.2366683" lon="9.1218235"><ele>535.0</ele><time>2026-05-01T10:53:17.486Z</time></trkpt><trkpt lat="35.2367339" lon="9.121736"><ele>535.0</ele><time>2026-05-01T10:53:18.472Z</time></trkpt><trkpt lat="35.2367981" lon="9.1216522"><ele>535.0</ele><time>2026-05-01T10:53:19.476Z</time></trkpt><trkpt lat="35.2368618" lon="9.1215678"><ele>535.1666666666667</ele><time>2026-05-01T10:53:20.479Z</time></trkpt><trkpt lat="35.2369282" lon="9.1214803"><ele>535.3333333333334</ele><time>2026-05-01T10:53:21.462Z</time></trkpt><trkpt lat="35.2369922" lon="9.1213999"><ele>535.5</ele><time>2026-05-01T10:53:22.494Z</time></trkpt><trkpt lat="35.237054" lon="9.1213207"><ele>535.6666666666666</ele><time>2026-05-01T10:53:23.475Z</time></trkpt><trkpt lat="35.2371123" lon="9.1212415"><ele>535.8333333333333</ele><time>2026-05-01T10:53:24.474Z</time></trkpt><trkpt lat="35.2371692" lon="9.1211664"><ele>536.0</ele><time>2026-05-01T10:53:25.471Z</time></trkpt><trkpt lat="35.2372253" lon="9.1210964"><ele>536.0</ele><time>2026-05-01T10:53:26.465Z</time></trkpt><trkpt lat="35.2372818" lon="9.1210231"><ele>536.0</ele><time>2026-05-01T10:53:27.491Z</time></trkpt><trkpt lat="35.2373403" lon="9.1209497"><ele>536.0</ele><time>2026-05-01T10:53:28.486Z</time></trkpt><trkpt lat="35.2373953" lon="9.1208792"><ele>536.0</ele><time>2026-05-01T10:53:29.493Z</time></trkpt><trkpt lat="35.2374457" lon="9.1208127"><ele>536.0</ele><time>2026-05-01T10:53:30.471Z</time></trkpt><trkpt lat="35.2374923" lon="9.1207508"><ele>536.0</ele><time>2026-05-01T10:53:31.468Z</time></trkpt><trkpt lat="35.2375398" lon="9.1206876"><ele>536.4285714285714</ele><time>2026-05-01T10:53:32.472Z</time></trkpt><trkpt lat="35.2375906" lon="9.1206245"><ele>536.8571428571429</ele><time>2026-05-01T10:53:33.455Z</time></trkpt><trkpt lat="35.2376434" lon="9.1205605"><ele>537.2857142857142</ele><time>2026-05-01T10:53:34.469Z</time></trkpt><trkpt lat="35.2376973" lon="9.1205004"><ele>537.7142857142858</ele><time>2026-05-01T10:53:35.471Z</time></trkpt><trkpt lat="35.2377458" lon="9.1204339"><ele>538.1428571428571</ele><time>2026-05-01T10:53:36.465Z</time></trkpt><trkpt lat="35.2377934" lon="9.1203666"><ele>538.5714285714286</ele><time>2026-05-01T10:53:37.484Z</time></trkpt><trkpt lat="35.2378463" lon="9.1202966"><ele>539.0</ele><time>2026-05-01T10:53:38.472Z</time></trkpt><trkpt lat="35.2378995" lon="9.1202249"><ele>539.0</ele><time>2026-05-01T10:53:39.477Z</time></trkpt><trkpt lat="35.2379536" lon="9.1201531"><ele>539.0</ele><time>2026-05-01T10:53:40.475Z</time></trkpt><trkpt lat="35.2380089" lon="9.1200818"><ele>539.0</ele><time>2026-05-01T10:53:41.478Z</time></trkpt><trkpt lat="35.2380659" lon="9.1200108"><ele>539.0</ele><time>2026-05-01T10:53:42.476Z</time></trkpt><trkpt lat="35.2381264" lon="9.1199346"><ele>539.0</ele><time>2026-05-01T10:53:43.474Z</time></trkpt><trkpt lat="35.2381843" lon="9.1198596"><ele>539.0</ele><time>2026-05-01T10:53:44.486Z</time></trkpt><trkpt lat="35.2382414" lon="9.1197817"><ele>539.1666666666666</ele><time>2026-05-01T10:53:45.517Z</time></trkpt><trkpt lat="35.2383017" lon="9.1197052"><ele>539.3333333333333</ele><time>2026-05-01T10:53:46.477Z</time></trkpt><trkpt lat="35.2383577" lon="9.1196326"><ele>539.5</ele><time>2026-05-01T10:53:47.462Z</time></trkpt><trkpt lat="35.2384139" lon="9.1195587"><ele>539.6666666666666</ele><time>2026-05-01T10:53:48.48Z</time></trkpt><trkpt lat="35.238471" lon="9.1194897"><ele>539.8333333333334</ele><time>2026-05-01T10:53:49.475Z</time></trkpt><trkpt lat="35.2385284" lon="9.1194205"><ele>540.0</ele><time>2026-05-01T10:53:50.482Z</time></trkpt><trkpt lat="35.2385854" lon="9.1193537"><ele>540.0</ele><time>2026-05-01T10:53:51.46Z</time></trkpt><trkpt lat="35.2386393" lon="9.1192888"><ele>540.0</ele><time>2026-05-01T10:53:52.472Z</time></trkpt><trkpt lat="35.2386899" lon="9.1192224"><ele>540.0</ele><time>2026-05-01T10:53:53.463Z</time></trkpt><trkpt lat="35.2387404" lon="9.1191565"><ele>540.0</ele><time>2026-05-01T10:53:54.481Z</time></trkpt><trkpt lat="35.2387889" lon="9.1190895"><ele>540.0</ele><time>2026-05-01T10:53:55.454Z</time></trkpt><trkpt lat="35.2388401" lon="9.1190203"><ele>540.0</ele><time>2026-05-01T10:53:56.486Z</time></trkpt><trkpt lat="35.2388938" lon="9.1189512"><ele>540.1666666666666</ele><time>2026-05-01T10:53:57.504Z</time></trkpt><trkpt lat="35.2389474" lon="9.1188806"><ele>540.3333333333334</ele><time>2026-05-01T10:53:58.474Z</time></trkpt><trkpt lat="35.2389987" lon="9.1188102"><ele>540.5</ele><time>2026-05-01T10:53:59.489Z</time></trkpt><trkpt lat="35.239051" lon="9.1187385"><ele>540.6666666666667</ele><time>2026-05-01T10:54:00.465Z</time></trkpt><trkpt lat="35.2391016" lon="9.1186643"><ele>540.8333333333334</ele><time>2026-05-01T10:54:01.482Z</time></trkpt><trkpt lat="35.2391553" lon="9.1185934"><ele>541.0</ele><time>2026-05-01T10:54:02.48Z</time></trkpt><trkpt lat="35.2392096" lon="9.1185204"><ele>541.1666666666667</ele><time>2026-05-01T10:54:03.481Z</time></trkpt><trkpt lat="35.2392679" lon="9.118443"><ele>541.3333333333334</ele><time>2026-05-01T10:54:04.472Z</time></trkpt><trkpt lat="35.2393273" lon="9.1183633"><ele>541.5</ele><time>2026-05-01T10:54:05.476Z</time></trkpt><trkpt lat="35.2393875" lon="9.1182819"><ele>541.6666666666666</ele><time>2026-05-01T10:54:06.486Z</time></trkpt><trkpt lat="35.2394456" lon="9.1182019"><ele>541.8333333333333</ele><time>2026-05-01T10:54:07.475Z</time></trkpt><trkpt lat="35.2395073" lon="9.1181193"><ele>542.0</ele><time>2026-05-01T10:54:08.469Z</time></trkpt><trkpt lat="35.2395719" lon="9.1180379"><ele>542.0</ele><time>2026-05-01T10:54:09.494Z</time></trkpt><trkpt lat="35.2396328" lon="9.1179587"><ele>542.0</ele><time>2026-05-01T10:54:10.475Z</time></trkpt><trkpt lat="35.2396929" lon="9.1178825"><ele>542.0</ele><time>2026-05-01T10:54:11.474Z</time></trkpt><trkpt lat="35.2397532" lon="9.1178046"><ele>542.0</ele><time>2026-05-01T10:54:12.474Z</time></trkpt><trkpt lat="35.2398135" lon="9.1177266"><ele>542.0</ele><time>2026-05-01T10:54:13.479Z</time></trkpt><trkpt lat="35.2398716" lon="9.1176515"><ele>542.0</ele><time>2026-05-01T10:54:14.471Z</time></trkpt><trkpt lat="35.2399318" lon="9.1175784"><ele>542.1666666666666</ele><time>2026-05-01T10:54:15.481Z</time></trkpt><trkpt lat="35.2399964" lon="9.117506"><ele>542.3333333333333</ele><time>2026-05-01T10:54:16.484Z</time></trkpt><trkpt lat="35.2400576" lon="9.1174356"><ele>542.5</ele><time>2026-05-01T10:54:17.457Z</time></trkpt><trkpt lat="35.2401199" lon="9.117365"><ele>542.6666666666666</ele><time>2026-05-01T10:54:18.461Z</time></trkpt><trkpt lat="35.240176" lon="9.1172925"><ele>542.8333333333334</ele><time>2026-05-01T10:54:19.461Z</time></trkpt><trkpt lat="35.2402246" lon="9.1172259"><ele>543.0</ele><time>2026-05-01T10:54:20.475Z</time></trkpt><trkpt lat="35.2402733" lon="9.1171618"><ele>543.0</ele><time>2026-05-01T10:54:21.469Z</time></trkpt><trkpt lat="35.2403235" lon="9.1170977"><ele>543.0</ele><time>2026-05-01T10:54:22.462Z</time></trkpt><trkpt lat="35.2403746" lon="9.1170309"><ele>543.0</ele><time>2026-05-01T10:54:23.467Z</time></trkpt><trkpt lat="35.2404284" lon="9.1169601"><ele>543.0</ele><time>2026-05-01T10:54:24.458Z</time></trkpt><trkpt lat="35.2404839" lon="9.1168881"><ele>543.0</ele><time>2026-05-01T10:54:25.462Z</time></trkpt><trkpt lat="35.2405381" lon="9.1168154"><ele>543.0</ele><time>2026-05-01T10:54:26.463Z</time></trkpt><trkpt lat="35.2405929" lon="9.1167435"><ele>543.5</ele><time>2026-05-01T10:54:27.472Z</time></trkpt><trkpt lat="35.2406467" lon="9.1166682"><ele>544.0</ele><time>2026-05-01T10:54:28.479Z</time></trkpt><trkpt lat="35.2407022" lon="9.1165871"><ele>544.5</ele><time>2026-05-01T10:54:29.466Z</time></trkpt><trkpt lat="35.2407552" lon="9.1165067"><ele>545.0</ele><time>2026-05-01T10:54:30.472Z</time></trkpt><trkpt lat="35.2408118" lon="9.1164315"><ele>545.5</ele><time>2026-05-01T10:54:31.47Z</time></trkpt><trkpt lat="35.2408707" lon="9.1163603"><ele>546.0</ele><time>2026-05-01T10:54:32.482Z</time></trkpt><trkpt lat="35.2409313" lon="9.1162885"><ele>546.0</ele><time>2026-05-01T10:54:33.465Z</time></trkpt><trkpt lat="35.2409901" lon="9.116216"><ele>546.0</ele><time>2026-05-01T10:54:34.47Z</time></trkpt><trkpt lat="35.2410452" lon="9.1161464"><ele>546.0</ele><time>2026-05-01T10:54:35.486Z</time></trkpt><trkpt lat="35.2410963" lon="9.1160801"><ele>546.0</ele><time>2026-05-01T10:54:36.475Z</time></trkpt><trkpt lat="35.2411473" lon="9.1160165"><ele>546.0</ele><time>2026-05-01T10:54:37.476Z</time></trkpt><trkpt lat="35.2411986" lon="9.115953"><ele>546.0</ele><time>2026-05-01T10:54:38.468Z</time></trkpt><trkpt lat="35.24125" lon="9.1158856"><ele>546.0</ele><time>2026-05-01T10:54:39.482Z</time></trkpt><trkpt lat="35.2413049" lon="9.1158167"><ele>546.0</ele><time>2026-05-01T10:54:40.489Z</time></trkpt><trkpt lat="35.2413589" lon="9.1157465"><ele>546.0</ele><time>2026-05-01T10:54:41.486Z</time></trkpt><trkpt lat="35.2414046" lon="9.1156891"><ele>546.0</ele><time>2026-05-01T10:54:42.502Z</time></trkpt><trkpt lat="35.2414725" lon="9.1156104"><ele>546.0</ele><time>2026-05-01T10:54:44.481Z</time></trkpt><trkpt lat="35.2415283" lon="9.1155605"><ele>546.0</ele><time>2026-05-01T10:56:49.414Z</time></trkpt><trkpt lat="35.2415999" lon="9.1154574"><ele>546.6666666666666</ele><time>2026-05-01T10:56:51.41Z</time></trkpt><trkpt lat="35.2416524" lon="9.1153984"><ele>547.3333333333334</ele><time>2026-05-01T10:56:52.412Z</time></trkpt><trkpt lat="35.2417108" lon="9.11532"><ele>548.0</ele><time>2026-05-01T10:56:53.427Z</time></trkpt><trkpt lat="35.241764" lon="9.115249"><ele>548.6666666666667</ele><time>2026-05-01T10:56:54.422Z</time></trkpt><trkpt lat="35.2418115" lon="9.1151838"><ele>549.3333333333334</ele><time>2026-05-01T10:56:55.425Z</time></trkpt><trkpt lat="35.2418661" lon="9.1151088"><ele>550.0</ele><time>2026-05-01T10:56:56.414Z</time></trkpt><trkpt lat="35.2419219" lon="9.1150358"><ele>550.0</ele><time>2026-05-01T10:56:57.432Z</time></trkpt><trkpt lat="35.2419809" lon="9.1149573"><ele>550.0</ele><time>2026-05-01T10:56:58.409Z</time></trkpt><trkpt lat="35.2420424" lon="9.1148838"><ele>550.0</ele><time>2026-05-01T10:56:59.413Z</time></trkpt><trkpt lat="35.2421012" lon="9.1148102"><ele>550.0</ele><time>2026-05-01T10:57:00.448Z</time></trkpt><trkpt lat="35.2421547" lon="9.1147336"><ele>550.0</ele><time>2026-05-01T10:57:01.417Z</time></trkpt><trkpt lat="35.2422103" lon="9.1146623"><ele>550.0</ele><time>2026-05-01T10:57:02.416Z</time></trkpt><trkpt lat="35.2422647" lon="9.1145958"><ele>550.6666666666667</ele><time>2026-05-01T10:57:03.42Z</time></trkpt><trkpt lat="35.2423142" lon="9.1145298"><ele>551.3333333333334</ele><time>2026-05-01T10:57:04.422Z</time></trkpt><trkpt lat="35.2423633" lon="9.1144683"><ele>552.0</ele><time>2026-05-01T10:57:05.43Z</time></trkpt><trkpt lat="35.2424132" lon="9.1144124"><ele>552.6666666666666</ele><time>2026-05-01T10:57:06.422Z</time></trkpt><trkpt lat="35.2424612" lon="9.1143548"><ele>553.3333333333333</ele><time>2026-05-01T10:57:07.397Z</time></trkpt><trkpt lat="35.2425513" lon="9.1142622"><ele>554.0</ele><time>2026-05-01T10:57:09.421Z</time></trkpt><trkpt lat="35.2426553" lon="9.1141949"><ele>554.0</ele><time>2026-05-01T10:57:11.424Z</time></trkpt><trkpt lat="35.2427128" lon="9.1141623"><ele>554.0</ele><time>2026-05-01T10:57:12.428Z</time></trkpt><trkpt lat="35.2427662" lon="9.1141156"><ele>554.0</ele><time>2026-05-01T10:57:13.452Z</time></trkpt><trkpt lat="35.2428172" lon="9.1140611"><ele>554.0</ele><time>2026-05-01T10:57:14.425Z</time></trkpt><trkpt lat="35.242862" lon="9.1139906"><ele>554.0</ele><time>2026-05-01T10:57:15.416Z</time></trkpt><trkpt lat="35.2429025" lon="9.1138973"><ele>554.0</ele><time>2026-05-01T10:57:16.428Z</time></trkpt><trkpt lat="35.24294" lon="9.113806"><ele>554.0</ele><time>2026-05-01T10:57:17.433Z</time></trkpt><trkpt lat="35.2429879" lon="9.1137074"><ele>553.8333333333333</ele><time>2026-05-01T10:57:18.413Z</time></trkpt><trkpt lat="35.2430391" lon="9.1136189"><ele>553.6666666666666</ele><time>2026-05-01T10:57:19.437Z</time></trkpt><trkpt lat="35.2430989" lon="9.1135334"><ele>553.5</ele><time>2026-05-01T10:57:20.423Z</time></trkpt><trkpt lat="35.2431591" lon="9.1134559"><ele>553.3333333333334</ele><time>2026-05-01T10:57:21.445Z</time></trkpt><trkpt lat="35.2432191" lon="9.1133827"><ele>553.1666666666667</ele><time>2026-05-01T10:57:22.406Z</time></trkpt><trkpt lat="35.2432803" lon="9.113306"><ele>553.0</ele><time>2026-05-01T10:57:23.417Z</time></trkpt><trkpt lat="35.2433446" lon="9.1132131"><ele>554.5</ele><time>2026-05-01T10:57:24.413Z</time></trkpt><trkpt lat="35.2434163" lon="9.1131065"><ele>556.0</ele><time>2026-05-01T10:57:25.415Z</time></trkpt><trkpt lat="35.2434896" lon="9.1130035"><ele>557.5</ele><time>2026-05-01T10:57:26.418Z</time></trkpt><trkpt lat="35.2435649" lon="9.1128957"><ele>559.0</ele><time>2026-05-01T10:57:27.409Z</time></trkpt><trkpt lat="35.2436461" lon="9.1127864"><ele>559.0</ele><time>2026-05-01T10:57:28.416Z</time></trkpt><trkpt lat="35.2437342" lon="9.1126737"><ele>559.0</ele><time>2026-05-01T10:57:29.427Z</time></trkpt><trkpt lat="35.2438243" lon="9.1125539"><ele>559.0</ele><time>2026-05-01T10:57:30.416Z</time></trkpt><trkpt lat="35.2439156" lon="9.112438"><ele>559.0</ele><time>2026-05-01T10:57:31.433Z</time></trkpt><trkpt lat="35.2440069" lon="9.1123151"><ele>560.3333333333334</ele><time>2026-05-01T10:57:32.43Z</time></trkpt><trkpt lat="35.244105" lon="9.1121789"><ele>561.6666666666666</ele><time>2026-05-01T10:57:33.423Z</time></trkpt><trkpt lat="35.2442041" lon="9.1120373"><ele>563.0</ele><time>2026-05-01T10:57:34.418Z</time></trkpt><trkpt lat="35.2443215" lon="9.111881"><ele>563.0</ele><time>2026-05-01T10:57:35.423Z</time></trkpt><trkpt lat="35.2444464" lon="9.1117095"><ele>563.0</ele><time>2026-05-01T10:57:36.407Z</time></trkpt><trkpt lat="35.2445724" lon="9.1115414"><ele>563.0</ele><time>2026-05-01T10:57:37.421Z</time></trkpt><trkpt lat="35.2446987" lon="9.1113752"><ele>564.0</ele><time>2026-05-01T10:57:38.437Z</time></trkpt><trkpt lat="35.2448164" lon="9.1112189"><ele>565.0</ele><time>2026-05-01T10:57:39.415Z</time></trkpt><trkpt lat="35.2449317" lon="9.1110588"><ele>566.0</ele><time>2026-05-01T10:57:40.406Z</time></trkpt><trkpt lat="35.2450495" lon="9.1109023"><ele>566.0</ele><time>2026-05-01T10:57:41.415Z</time></trkpt><trkpt lat="35.2451632" lon="9.1107455"><ele>566.0</ele><time>2026-05-01T10:57:42.421Z</time></trkpt><trkpt lat="35.2452776" lon="9.1105853"><ele>566.0</ele><time>2026-05-01T10:57:43.407Z</time></trkpt><trkpt lat="35.2453914" lon="9.1104346"><ele>566.3333333333333</ele><time>2026-05-01T10:57:44.414Z</time></trkpt><trkpt lat="35.2455003" lon="9.1102901"><ele>566.6666666666666</ele><time>2026-05-01T10:57:45.426Z</time></trkpt><trkpt lat="35.2456061" lon="9.1101452"><ele>567.0</ele><time>2026-05-01T10:57:46.405Z</time></trkpt><trkpt lat="35.2457076" lon="9.1100089"><ele>568.25</ele><time>2026-05-01T10:57:47.414Z</time></trkpt><trkpt lat="35.2458018" lon="9.1098759"><ele>569.5</ele><time>2026-05-01T10:57:48.414Z</time></trkpt><trkpt lat="35.2458906" lon="9.1097518"><ele>570.75</ele><time>2026-05-01T10:57:49.422Z</time></trkpt><trkpt lat="35.2459764" lon="9.1096355"><ele>572.0</ele><time>2026-05-01T10:57:50.415Z</time></trkpt><trkpt lat="35.2460544" lon="9.1095249"><ele>572.0</ele><time>2026-05-01T10:57:51.437Z</time></trkpt><trkpt lat="35.2461277" lon="9.1094276"><ele>572.0</ele><time>2026-05-01T10:57:52.422Z</time></trkpt><trkpt lat="35.2461963" lon="9.1093372"><ele>572.0</ele><time>2026-05-01T10:57:53.405Z</time></trkpt><trkpt lat="35.2462685" lon="9.109261"><ele>572.0</ele><time>2026-05-01T10:57:54.402Z</time></trkpt><trkpt lat="35.2463448" lon="9.1091993"><ele>572.0</ele><time>2026-05-01T10:57:55.442Z</time></trkpt><trkpt lat="35.2464263" lon="9.1091457"><ele>572.8000000000001</ele><time>2026-05-01T10:57:56.423Z</time></trkpt><trkpt lat="35.2465035" lon="9.1090702"><ele>573.6</ele><time>2026-05-01T10:57:57.424Z</time></trkpt><trkpt lat="35.2465577" lon="9.1089729"><ele>574.4000000000001</ele><time>2026-05-01T10:57:58.425Z</time></trkpt><trkpt lat="35.2466124" lon="9.1088609"><ele>575.2</ele><time>2026-05-01T10:57:59.415Z</time></trkpt><trkpt lat="35.2466714" lon="9.1087458"><ele>576.0</ele><time>2026-05-01T10:58:00.413Z</time></trkpt><trkpt lat="35.2467486" lon="9.1086257"><ele>576.0</ele><time>2026-05-01T10:58:01.424Z</time></trkpt><trkpt lat="35.2468323" lon="9.1085085"><ele>576.0</ele><time>2026-05-01T10:58:02.426Z</time></trkpt><trkpt lat="35.2469229" lon="9.1083903"><ele>576.0</ele><time>2026-05-01T10:58:03.427Z</time></trkpt><trkpt lat="35.2470181" lon="9.108266"><ele>576.0</ele><time>2026-05-01T10:58:04.421Z</time></trkpt><trkpt lat="35.2471144" lon="9.1081392"><ele>576.0</ele><time>2026-05-01T10:58:05.417Z</time></trkpt><trkpt lat="35.2472082" lon="9.1080134"><ele>576.0</ele><time>2026-05-01T10:58:06.409Z</time></trkpt><trkpt lat="35.247306" lon="9.1078886"><ele>576.0</ele><time>2026-05-01T10:58:07.413Z</time></trkpt><trkpt lat="35.2474003" lon="9.1077624"><ele>576.0</ele><time>2026-05-01T10:58:08.425Z</time></trkpt><trkpt lat="35.2474964" lon="9.1076347"><ele>576.6666666666666</ele><time>2026-05-01T10:58:09.418Z</time></trkpt><trkpt lat="35.2475958" lon="9.1075019"><ele>577.3333333333333</ele><time>2026-05-01T10:58:10.42Z</time></trkpt><trkpt lat="35.2477015" lon="9.1073577"><ele>578.0</ele><time>2026-05-01T10:58:11.42Z</time></trkpt><trkpt lat="35.24781" lon="9.1072064"><ele>578.0</ele><time>2026-05-01T10:58:12.41Z</time></trkpt><trkpt lat="35.2479247" lon="9.1070411"><ele>578.0</ele><time>2026-05-01T10:58:13.404Z</time></trkpt><trkpt lat="35.2480368" lon="9.1068826"><ele>578.0</ele><time>2026-05-01T10:58:14.439Z</time></trkpt><trkpt lat="35.248155" lon="9.1067168"><ele>579.0</ele><time>2026-05-01T10:58:15.417Z</time></trkpt><trkpt lat="35.2482781" lon="9.1065491"><ele>580.0</ele><time>2026-05-01T10:58:16.42Z</time></trkpt><trkpt lat="35.2484062" lon="9.1063815"><ele>581.0</ele><time>2026-05-01T10:58:17.414Z</time></trkpt><trkpt lat="35.2485341" lon="9.1062017"><ele>581.0</ele><time>2026-05-01T10:58:18.409Z</time></trkpt><trkpt lat="35.2486628" lon="9.1060248"><ele>581.0</ele><time>2026-05-01T10:58:19.419Z</time></trkpt><trkpt lat="35.2487893" lon="9.1058498"><ele>581.0</ele><time>2026-05-01T10:58:20.42Z</time></trkpt><trkpt lat="35.2489141" lon="9.105678"><ele>581.6666666666666</ele><time>2026-05-01T10:58:21.417Z</time></trkpt><trkpt lat="35.2490419" lon="9.1054973"><ele>582.3333333333334</ele><time>2026-05-01T10:58:22.401Z</time></trkpt><trkpt lat="35.2491683" lon="9.105313"><ele>583.0</ele><time>2026-05-01T10:58:23.409Z</time></trkpt><trkpt lat="35.2493053" lon="9.1051276"><ele>583.0</ele><time>2026-05-01T10:58:24.423Z</time></trkpt><trkpt lat="35.2494436" lon="9.104942"><ele>583.0</ele><time>2026-05-01T10:58:25.424Z</time></trkpt><trkpt lat="35.2495779" lon="9.1047558"><ele>583.0</ele><time>2026-05-01T10:58:26.399Z</time></trkpt><trkpt lat="35.2497153" lon="9.104564"><ele>583.6666666666667</ele><time>2026-05-01T10:58:27.418Z</time></trkpt><trkpt lat="35.2498527" lon="9.1043761"><ele>584.3333333333334</ele><time>2026-05-01T10:58:28.412Z</time></trkpt><trkpt lat="35.2499896" lon="9.1041803"><ele>585.0</ele><time>2026-05-01T10:58:29.425Z</time></trkpt><trkpt lat="35.2501304" lon="9.1039865"><ele>585.3333333333334</ele><time>2026-05-01T10:58:30.427Z</time></trkpt><trkpt lat="35.2502711" lon="9.1037906"><ele>585.6666666666667</ele><time>2026-05-01T10:58:31.42Z</time></trkpt><trkpt lat="35.2504149" lon="9.1036036"><ele>586.0</ele><time>2026-05-01T10:58:32.416Z</time></trkpt><trkpt lat="35.2505539" lon="9.1034161"><ele>586.3333333333334</ele><time>2026-05-01T10:58:33.409Z</time></trkpt><trkpt lat="35.2506877" lon="9.1032312"><ele>586.6666666666666</ele><time>2026-05-01T10:58:34.427Z</time></trkpt><trkpt lat="35.250827" lon="9.1030457"><ele>587.0</ele><time>2026-05-01T10:58:35.426Z</time></trkpt><trkpt lat="35.2509655" lon="9.1028581"><ele>587.0</ele><time>2026-05-01T10:58:36.43Z</time></trkpt><trkpt lat="35.2511052" lon="9.1026754"><ele>587.0</ele><time>2026-05-01T10:58:37.417Z</time></trkpt><trkpt lat="35.2512448" lon="9.1024909"><ele>587.0</ele><time>2026-05-01T10:58:38.427Z</time></trkpt><trkpt lat="35.2513846" lon="9.1023079"><ele>588.3333333333333</ele><time>2026-05-01T10:58:39.432Z</time></trkpt><trkpt lat="35.2515268" lon="9.1021313"><ele>589.6666666666666</ele><time>2026-05-01T10:58:40.434Z</time></trkpt><trkpt lat="35.2516702" lon="9.1019585"><ele>591.0</ele><time>2026-05-01T10:58:41.409Z</time></trkpt><trkpt lat="35.2518091" lon="9.1017756"><ele>591.0</ele><time>2026-05-01T10:58:42.421Z</time></trkpt><trkpt lat="35.251941" lon="9.1015916"><ele>591.0</ele><time>2026-05-01T10:58:43.42Z</time></trkpt><trkpt lat="35.2520741" lon="9.1014061"><ele>591.0</ele><time>2026-05-01T10:58:44.421Z</time></trkpt><trkpt lat="35.2522083" lon="9.1012186"><ele>591.3333333333334</ele><time>2026-05-01T10:58:45.415Z</time></trkpt><trkpt lat="35.2523401" lon="9.1010405"><ele>591.6666666666667</ele><time>2026-05-01T10:58:46.425Z</time></trkpt><trkpt lat="35.2524729" lon="9.1008602"><ele>592.0</ele><time>2026-05-01T10:58:47.426Z</time></trkpt><trkpt lat="35.2526022" lon="9.1006821"><ele>592.0</ele><time>2026-05-01T10:58:48.436Z</time></trkpt><trkpt lat="35.2527327" lon="9.1005072"><ele>592.0</ele><time>2026-05-01T10:58:49.416Z</time></trkpt><trkpt lat="35.2528573" lon="9.1003313"><ele>592.0</ele><time>2026-05-01T10:58:50.413Z</time></trkpt><trkpt lat="35.2529821" lon="9.1001617"><ele>592.0</ele><time>2026-05-01T10:58:51.429Z</time></trkpt><trkpt lat="35.2531051" lon="9.0999878"><ele>592.0</ele><time>2026-05-01T10:58:52.416Z</time></trkpt><trkpt lat="35.2532264" lon="9.0998184"><ele>592.0</ele><time>2026-05-01T10:58:53.4Z</time></trkpt><trkpt lat="35.2533463" lon="9.0996551"><ele>592.3333333333334</ele><time>2026-05-01T10:58:54.41Z</time></trkpt><trkpt lat="35.2534694" lon="9.0994947"><ele>592.6666666666666</ele><time>2026-05-01T10:58:55.412Z</time></trkpt><trkpt lat="35.2535943" lon="9.0993297"><ele>593.0</ele><time>2026-05-01T10:58:56.417Z</time></trkpt><trkpt lat="35.2537161" lon="9.0991653"><ele>592.6666666666666</ele><time>2026-05-01T10:58:57.406Z</time></trkpt><trkpt lat="35.2538403" lon="9.0989972"><ele>592.3333333333334</ele><time>2026-05-01T10:58:58.42Z</time></trkpt><trkpt lat="35.253966" lon="9.098825"><ele>592.0</ele><time>2026-05-01T10:58:59.421Z</time></trkpt><trkpt lat="35.2540886" lon="9.0986602"><ele>592.6666666666667</ele><time>2026-05-01T10:59:00.453Z</time></trkpt><trkpt lat="35.2542112" lon="9.0984927"><ele>593.3333333333334</ele><time>2026-05-01T10:59:01.43Z</time></trkpt><trkpt lat="35.2543393" lon="9.0983271"><ele>594.0</ele><time>2026-05-01T10:59:02.419Z</time></trkpt><trkpt lat="35.2544614" lon="9.0981583"><ele>594.0</ele><time>2026-05-01T10:59:03.417Z</time></trkpt><trkpt lat="35.2545841" lon="9.0979875"><ele>594.0</ele><time>2026-05-01T10:59:04.414Z</time></trkpt><trkpt lat="35.2547084" lon="9.0978137"><ele>594.0</ele><time>2026-05-01T10:59:05.415Z</time></trkpt><trkpt lat="35.254835" lon="9.0976399"><ele>594.3333333333334</ele><time>2026-05-01T10:59:06.412Z</time></trkpt><trkpt lat="35.2549597" lon="9.0974658"><ele>594.6666666666667</ele><time>2026-05-01T10:59:07.44Z</time></trkpt><trkpt lat="35.2550921" lon="9.0972984"><ele>595.0</ele><time>2026-05-01T10:59:08.431Z</time></trkpt><trkpt lat="35.2552203" lon="9.0971321"><ele>595.0</ele><time>2026-05-01T10:59:09.428Z</time></trkpt><trkpt lat="35.2553464" lon="9.0969594"><ele>595.0</ele><time>2026-05-01T10:59:10.417Z</time></trkpt><trkpt lat="35.2554683" lon="9.0967881"><ele>595.0</ele><time>2026-05-01T10:59:11.422Z</time></trkpt><trkpt lat="35.2555924" lon="9.0966158"><ele>594.6666666666667</ele><time>2026-05-01T10:59:12.411Z</time></trkpt><trkpt lat="35.2557124" lon="9.0964503"><ele>594.3333333333334</ele><time>2026-05-01T10:59:13.425Z</time></trkpt><trkpt lat="35.2558352" lon="9.0962869"><ele>594.0</ele><time>2026-05-01T10:59:14.424Z</time></trkpt><trkpt lat="35.2559595" lon="9.0961209"><ele>594.0</ele><time>2026-05-01T10:59:15.43Z</time></trkpt><trkpt lat="35.2560816" lon="9.0959569"><ele>594.0</ele><time>2026-05-01T10:59:16.445Z</time></trkpt><trkpt lat="35.2562037" lon="9.0957901"><ele>594.0</ele><time>2026-05-01T10:59:17.419Z</time></trkpt><trkpt lat="35.2563262" lon="9.0956183"><ele>593.6666666666666</ele><time>2026-05-01T10:59:18.422Z</time></trkpt><trkpt lat="35.2564519" lon="9.095437"><ele>593.3333333333333</ele><time>2026-05-01T10:59:19.412Z</time></trkpt><trkpt lat="35.2565842" lon="9.0952535"><ele>593.0</ele><time>2026-05-01T10:59:20.423Z</time></trkpt><trkpt lat="35.256715" lon="9.0950699"><ele>593.6666666666666</ele><time>2026-05-01T10:59:21.428Z</time></trkpt><trkpt lat="35.2568468" lon="9.0948829"><ele>594.3333333333334</ele><time>2026-05-01T10:59:22.434Z</time></trkpt><trkpt lat="35.256982" lon="9.0947029"><ele>595.0</ele><time>2026-05-01T10:59:23.427Z</time></trkpt><trkpt lat="35.2571147" lon="9.0945283"><ele>595.0</ele><time>2026-05-01T10:59:24.4Z</time></trkpt><trkpt lat="35.2572442" lon="9.0943581"><ele>595.0</ele><time>2026-05-01T10:59:25.405Z</time></trkpt><trkpt lat="35.2573711" lon="9.0941826"><ele>595.0</ele><time>2026-05-01T10:59:26.419Z</time></trkpt><trkpt lat="35.2575002" lon="9.0940121"><ele>595.6666666666667</ele><time>2026-05-01T10:59:27.412Z</time></trkpt><trkpt lat="35.2576199" lon="9.0938453"><ele>596.3333333333334</ele><time>2026-05-01T10:59:28.423Z</time></trkpt><trkpt lat="35.2577346" lon="9.0936946"><ele>597.0</ele><time>2026-05-01T10:59:29.453Z</time></trkpt><trkpt lat="35.2578404" lon="9.0935571"><ele>597.0</ele><time>2026-05-01T10:59:30.407Z</time></trkpt><trkpt lat="35.2579442" lon="9.0934128"><ele>597.0</ele><time>2026-05-01T10:59:31.407Z</time></trkpt><trkpt lat="35.258054" lon="9.0932683"><ele>597.0</ele><time>2026-05-01T10:59:32.424Z</time></trkpt><trkpt lat="35.2581599" lon="9.093128"><ele>597.0</ele><time>2026-05-01T10:59:33.416Z</time></trkpt><trkpt lat="35.2582619" lon="9.0930005"><ele>597.0</ele><time>2026-05-01T10:59:34.399Z</time></trkpt><trkpt lat="35.2583603" lon="9.0928869"><ele>597.0</ele><time>2026-05-01T10:59:35.422Z</time></trkpt><trkpt lat="35.2584484" lon="9.0927866"><ele>597.0</ele><time>2026-05-01T10:59:36.42Z</time></trkpt><trkpt lat="35.258543" lon="9.0927063"><ele>597.0</ele><time>2026-05-01T10:59:37.406Z</time></trkpt><trkpt lat="35.258642" lon="9.092644"><ele>597.0</ele><time>2026-05-01T10:59:38.419Z</time></trkpt><trkpt lat="35.2587411" lon="9.0925989"><ele>597.0</ele><time>2026-05-01T10:59:39.413Z</time></trkpt><trkpt lat="35.2588456" lon="9.092566"><ele>597.0</ele><time>2026-05-01T10:59:40.407Z</time></trkpt><trkpt lat="35.258963" lon="9.0925515"><ele>597.0</ele><time>2026-05-01T10:59:41.444Z</time></trkpt><trkpt lat="35.2590885" lon="9.0925427"><ele>597.5</ele><time>2026-05-01T10:59:42.409Z</time></trkpt><trkpt lat="35.2592099" lon="9.0925408"><ele>598.0</ele><time>2026-05-01T10:59:43.429Z</time></trkpt><trkpt lat="35.2593411" lon="9.0925473"><ele>598.5</ele><time>2026-05-01T10:59:44.407Z</time></trkpt><trkpt lat="35.2594663" lon="9.0925567"><ele>599.0</ele><time>2026-05-01T10:59:45.424Z</time></trkpt><trkpt lat="35.2595951" lon="9.0925632"><ele>599.0</ele><time>2026-05-01T10:59:46.428Z</time></trkpt><trkpt lat="35.2597229" lon="9.0925743"><ele>599.0</ele><time>2026-05-01T10:59:47.396Z</time></trkpt><trkpt lat="35.2598585" lon="9.0925834"><ele>599.0</ele><time>2026-05-01T10:59:48.413Z</time></trkpt><trkpt lat="35.2600013" lon="9.0925954"><ele>599.0</ele><time>2026-05-01T10:59:49.421Z</time></trkpt><trkpt lat="35.2601457" lon="9.0925964"><ele>599.3333333333333</ele><time>2026-05-01T10:59:50.44Z</time></trkpt><trkpt lat="35.2602998" lon="9.0926049"><ele>599.6666666666666</ele><time>2026-05-01T10:59:51.399Z</time></trkpt><trkpt lat="35.2604461" lon="9.0926128"><ele>600.0</ele><time>2026-05-01T10:59:52.529Z</time></trkpt><trkpt lat="35.2605974" lon="9.0926245"><ele>599.6666666666666</ele><time>2026-05-01T10:59:53.466Z</time></trkpt><trkpt lat="35.2607537" lon="9.0926291"><ele>599.3333333333333</ele><time>2026-05-01T10:59:54.461Z</time></trkpt><trkpt lat="35.2609146" lon="9.0926342"><ele>599.0</ele><time>2026-05-01T10:59:55.482Z</time></trkpt><trkpt lat="35.2610792" lon="9.0926447"><ele>599.0</ele><time>2026-05-01T10:59:56.473Z</time></trkpt><trkpt lat="35.261247" lon="9.0926498"><ele>599.0</ele><time>2026-05-01T10:59:57.475Z</time></trkpt><trkpt lat="35.2614188" lon="9.0926593"><ele>599.0</ele><time>2026-05-01T10:59:58.482Z</time></trkpt><trkpt lat="35.2615882" lon="9.092673"><ele>599.0</ele><time>2026-05-01T10:59:59.491Z</time></trkpt><trkpt lat="35.2617566" lon="9.0926871"><ele>599.0</ele><time>2026-05-01T11:00:00.474Z</time></trkpt><trkpt lat="35.2619261" lon="9.0927088"><ele>599.0</ele><time>2026-05-01T11:00:01.48Z</time></trkpt><trkpt lat="35.2620848" lon="9.092725"><ele>599.0</ele><time>2026-05-01T11:00:02.498Z</time></trkpt><trkpt lat="35.2622319" lon="9.0927362"><ele>599.0</ele><time>2026-05-01T11:00:03.486Z</time></trkpt><trkpt lat="35.2623718" lon="9.0927503"><ele>599.0</ele><time>2026-05-01T11:00:04.471Z</time></trkpt><trkpt lat="35.2624984" lon="9.0927553"><ele>599.0</ele><time>2026-05-01T11:00:05.479Z</time></trkpt><trkpt lat="35.2626052" lon="9.0927627"><ele>598.8</ele><time>2026-05-01T11:00:06.476Z</time></trkpt><trkpt lat="35.2626999" lon="9.0927717"><ele>598.5999999999999</ele><time>2026-05-01T11:00:07.473Z</time></trkpt><trkpt lat="35.2627818" lon="9.0927784"><ele>598.4</ele><time>2026-05-01T11:00:08.479Z</time></trkpt><trkpt lat="35.2628495" lon="9.0927853"><ele>598.1999999999999</ele><time>2026-05-01T11:00:09.483Z</time></trkpt><trkpt lat="35.2629134" lon="9.0927785"><ele>598.0</ele><time>2026-05-01T11:00:10.487Z</time></trkpt><trkpt lat="35.2630616" lon="9.0927787"><ele>598.0</ele><time>2026-05-01T11:00:12.484Z</time></trkpt><trkpt lat="35.2631598" lon="9.0927767"><ele>598.0</ele><time>2026-05-01T11:00:13.476Z</time></trkpt><trkpt lat="35.2632657" lon="9.0927891"><ele>598.0</ele><time>2026-05-01T11:00:14.478Z</time></trkpt><trkpt lat="35.2633879" lon="9.0928094"><ele>598.0</ele><time>2026-05-01T11:00:15.483Z</time></trkpt><trkpt lat="35.2635136" lon="9.0928244"><ele>598.0</ele><time>2026-05-01T11:00:16.485Z</time></trkpt><trkpt lat="35.2636464" lon="9.0928342"><ele>598.0</ele><time>2026-05-01T11:00:17.48Z</time></trkpt><trkpt lat="35.2637897" lon="9.0928442"><ele>598.0</ele><time>2026-05-01T11:00:18.473Z</time></trkpt><trkpt lat="35.2639331" lon="9.0928482"><ele>598.0</ele><time>2026-05-01T11:00:19.455Z</time></trkpt><trkpt lat="35.2640823" lon="9.0928612"><ele>598.6666666666667</ele><time>2026-05-01T11:00:20.48Z</time></trkpt><trkpt lat="35.2642321" lon="9.0928724"><ele>599.3333333333334</ele><time>2026-05-01T11:00:21.464Z</time></trkpt><trkpt lat="35.2643859" lon="9.0928803"><ele>600.0</ele><time>2026-05-01T11:00:22.467Z</time></trkpt><trkpt lat="35.2645416" lon="9.0928928"><ele>600.0</ele><time>2026-05-01T11:00:23.462Z</time></trkpt><trkpt lat="35.2647011" lon="9.0929005"><ele>600.0</ele><time>2026-05-01T11:00:24.477Z</time></trkpt><trkpt lat="35.264864" lon="9.0929098"><ele>600.0</ele><time>2026-05-01T11:00:25.466Z</time></trkpt><trkpt lat="35.2650274" lon="9.0929206"><ele>600.6666666666666</ele><time>2026-05-01T11:00:26.449Z</time></trkpt><trkpt lat="35.2651939" lon="9.092931"><ele>601.3333333333333</ele><time>2026-05-01T11:00:27.464Z</time></trkpt><trkpt lat="35.2653628" lon="9.0929442"><ele>602.0</ele><time>2026-05-01T11:00:28.467Z</time></trkpt><trkpt lat="35.265532" lon="9.0929574"><ele>602.0</ele><time>2026-05-01T11:00:29.482Z</time></trkpt><trkpt lat="35.2657081" lon="9.09297"><ele>602.0</ele><time>2026-05-01T11:00:30.482Z</time></trkpt><trkpt lat="35.2658868" lon="9.0929779"><ele>602.0</ele><time>2026-05-01T11:00:31.474Z</time></trkpt><trkpt lat="35.2660706" lon="9.0929882"><ele>602.0</ele><time>2026-05-01T11:00:32.456Z</time></trkpt><trkpt lat="35.2662545" lon="9.0930011"><ele>602.0</ele><time>2026-05-01T11:00:33.468Z</time></trkpt><trkpt lat="35.2664461" lon="9.0930131"><ele>602.0</ele><time>2026-05-01T11:00:34.483Z</time></trkpt><trkpt lat="35.2666465" lon="9.0930257"><ele>602.5</ele><time>2026-05-01T11:00:35.484Z</time></trkpt><trkpt lat="35.2668626" lon="9.0930364"><ele>603.0</ele><time>2026-05-01T11:00:36.482Z</time></trkpt><trkpt lat="35.2671021" lon="9.0930385"><ele>603.5</ele><time>2026-05-01T11:00:37.478Z</time></trkpt><trkpt lat="35.267348" lon="9.0930492"><ele>604.0</ele><time>2026-05-01T11:00:38.488Z</time></trkpt><trkpt lat="35.2675711" lon="9.0930581"><ele>604.0</ele><time>2026-05-01T11:00:39.481Z</time></trkpt><trkpt lat="35.2677744" lon="9.0930841"><ele>604.0</ele><time>2026-05-01T11:00:40.495Z</time></trkpt><trkpt lat="35.2679673" lon="9.0931022"><ele>604.0</ele><time>2026-05-01T11:00:41.477Z</time></trkpt><trkpt lat="35.268142" lon="9.0931162"><ele>604.0</ele><time>2026-05-01T11:00:42.487Z</time></trkpt><trkpt lat="35.268301" lon="9.0931318"><ele>604.0</ele><time>2026-05-01T11:00:43.475Z</time></trkpt><trkpt lat="35.2684381" lon="9.0931352"><ele>604.0</ele><time>2026-05-01T11:00:44.467Z</time></trkpt><trkpt lat="35.2685714" lon="9.0931486"><ele>604.0</ele><time>2026-05-01T11:00:45.485Z</time></trkpt><trkpt lat="35.2686818" lon="9.0931621"><ele>604.0</ele><time>2026-05-01T11:00:46.473Z</time></trkpt><trkpt lat="35.2687877" lon="9.0931731"><ele>604.0</ele><time>2026-05-01T11:00:47.479Z</time></trkpt><trkpt lat="35.2688837" lon="9.0931793"><ele>604.0</ele><time>2026-05-01T11:00:48.474Z</time></trkpt><trkpt lat="35.2689683" lon="9.0931849"><ele>604.0</ele><time>2026-05-01T11:00:49.48Z</time></trkpt><trkpt lat="35.2690472" lon="9.093188"><ele>604.0</ele><time>2026-05-01T11:00:50.464Z</time></trkpt><trkpt lat="35.2691295" lon="9.0931959"><ele>604.0</ele><time>2026-05-01T11:00:51.472Z</time></trkpt><trkpt lat="35.2692251" lon="9.0932032"><ele>604.25</ele><time>2026-05-01T11:00:52.46Z</time></trkpt><trkpt lat="35.2693347" lon="9.0932056"><ele>604.5</ele><time>2026-05-01T11:00:53.454Z</time></trkpt><trkpt lat="35.2694597" lon="9.0932134"><ele>604.75</ele><time>2026-05-01T11:00:54.462Z</time></trkpt><trkpt lat="35.2695953" lon="9.0932263"><ele>605.0</ele><time>2026-05-01T11:00:55.465Z</time></trkpt><trkpt lat="35.2697412" lon="9.0932426"><ele>605.0</ele><time>2026-05-01T11:00:56.456Z</time></trkpt><trkpt lat="35.2698914" lon="9.0932534"><ele>605.0</ele><time>2026-05-01T11:00:57.495Z</time></trkpt><trkpt lat="35.2700464" lon="9.0932638"><ele>605.0</ele><time>2026-05-01T11:00:58.453Z</time></trkpt><trkpt lat="35.2702109" lon="9.0932718"><ele>605.0</ele><time>2026-05-01T11:00:59.485Z</time></trkpt><trkpt lat="35.2703827" lon="9.0932817"><ele>605.0</ele><time>2026-05-01T11:01:00.478Z</time></trkpt><trkpt lat="35.2705577" lon="9.0932996"><ele>605.0</ele><time>2026-05-01T11:01:01.47Z</time></trkpt><trkpt lat="35.2707377" lon="9.0933154"><ele>604.6666666666666</ele><time>2026-05-01T11:01:02.464Z</time></trkpt><trkpt lat="35.270925" lon="9.0933302"><ele>604.3333333333334</ele><time>2026-05-01T11:01:03.478Z</time></trkpt><trkpt lat="35.2711185" lon="9.0933479"><ele>604.0</ele><time>2026-05-01T11:01:04.463Z</time></trkpt><trkpt lat="35.2713095" lon="9.0933577"><ele>604.3333333333334</ele><time>2026-05-01T11:01:05.468Z</time></trkpt><trkpt lat="35.2715041" lon="9.0933719"><ele>604.6666666666666</ele><time>2026-05-01T11:01:06.466Z</time></trkpt><trkpt lat="35.2716934" lon="9.0933804"><ele>605.0</ele><time>2026-05-01T11:01:07.483Z</time></trkpt><trkpt lat="35.2718796" lon="9.0933863"><ele>605.0</ele><time>2026-05-01T11:01:08.479Z</time></trkpt><trkpt lat="35.2720672" lon="9.0933981"><ele>605.0</ele><time>2026-05-01T11:01:09.476Z</time></trkpt><trkpt lat="35.2722518" lon="9.0934101"><ele>605.0</ele><time>2026-05-01T11:01:10.481Z</time></trkpt><trkpt lat="35.2724308" lon="9.093422"><ele>605.6666666666666</ele><time>2026-05-01T11:01:11.48Z</time></trkpt><trkpt lat="35.272614" lon="9.0934331"><ele>606.3333333333334</ele><time>2026-05-01T11:01:12.475Z</time></trkpt><trkpt lat="35.27279" lon="9.093444"><ele>607.0</ele><time>2026-05-01T11:01:13.474Z</time></trkpt><trkpt lat="35.2729636" lon="9.0934583"><ele>608.0</ele><time>2026-05-01T11:01:14.485Z</time></trkpt><trkpt lat="35.2731382" lon="9.0934694"><ele>609.0</ele><time>2026-05-01T11:01:15.481Z</time></trkpt><trkpt lat="35.2733074" lon="9.0934801"><ele>610.0</ele><time>2026-05-01T11:01:16.461Z</time></trkpt><trkpt lat="35.2734775" lon="9.0934918"><ele>610.0</ele><time>2026-05-01T11:01:17.47Z</time></trkpt><trkpt lat="35.2736466" lon="9.0935045"><ele>610.0</ele><time>2026-05-01T11:01:18.477Z</time></trkpt><trkpt lat="35.273815" lon="9.0935146"><ele>610.0</ele><time>2026-05-01T11:01:19.476Z</time></trkpt><trkpt lat="35.2739919" lon="9.0935221"><ele>609.6666666666667</ele><time>2026-05-01T11:01:20.488Z</time></trkpt><trkpt lat="35.2741731" lon="9.0935314"><ele>609.3333333333334</ele><time>2026-05-01T11:01:21.474Z</time></trkpt><trkpt lat="35.2743554" lon="9.0935437"><ele>609.0</ele><time>2026-05-01T11:01:22.496Z</time></trkpt><trkpt lat="35.2745371" lon="9.093555"><ele>609.0</ele><time>2026-05-01T11:01:23.459Z</time></trkpt><trkpt lat="35.2747186" lon="9.0935657"><ele>609.0</ele><time>2026-05-01T11:01:24.452Z</time></trkpt><trkpt lat="35.2748981" lon="9.0935842"><ele>609.0</ele><time>2026-05-01T11:01:25.481Z</time></trkpt><trkpt lat="35.2750782" lon="9.0935969"><ele>609.0</ele><time>2026-05-01T11:01:26.468Z</time></trkpt><trkpt lat="35.2752581" lon="9.0936127"><ele>609.0</ele><time>2026-05-01T11:01:27.478Z</time></trkpt><trkpt lat="35.2754425" lon="9.0936304"><ele>609.0</ele><time>2026-05-01T11:01:28.454Z</time></trkpt><trkpt lat="35.2756275" lon="9.0936401"><ele>609.0</ele><time>2026-05-01T11:01:29.479Z</time></trkpt><trkpt lat="35.2758097" lon="9.0936544"><ele>609.0</ele><time>2026-05-01T11:01:30.487Z</time></trkpt><trkpt lat="35.2759896" lon="9.0936582"><ele>609.0</ele><time>2026-05-01T11:01:31.494Z</time></trkpt><trkpt lat="35.276174" lon="9.0936706"><ele>609.0</ele><time>2026-05-01T11:01:32.5Z</time></trkpt><trkpt lat="35.2763584" lon="9.0936827"><ele>609.0</ele><time>2026-05-01T11:01:33.466Z</time></trkpt><trkpt lat="35.2765396" lon="9.0936967"><ele>609.0</ele><time>2026-05-01T11:01:34.459Z</time></trkpt><trkpt lat="35.276726" lon="9.093709"><ele>609.3333333333334</ele><time>2026-05-01T11:01:35.471Z</time></trkpt><trkpt lat="35.2769117" lon="9.0937196"><ele>609.6666666666667</ele><time>2026-05-01T11:01:36.479Z</time></trkpt><trkpt lat="35.2770941" lon="9.093728"><ele>610.0</ele><time>2026-05-01T11:01:37.461Z</time></trkpt><trkpt lat="35.277277" lon="9.0937433"><ele>609.3333333333334</ele><time>2026-05-01T11:01:38.48Z</time></trkpt><trkpt lat="35.2774551" lon="9.0937588"><ele>608.6666666666666</ele><time>2026-05-01T11:01:39.481Z</time></trkpt><trkpt lat="35.2776329" lon="9.0937745"><ele>608.0</ele><time>2026-05-01T11:01:40.482Z</time></trkpt><trkpt lat="35.277814" lon="9.0937831"><ele>608.0</ele><time>2026-05-01T11:01:41.474Z</time></trkpt><trkpt lat="35.2780005" lon="9.0937929"><ele>608.0</ele><time>2026-05-01T11:01:42.478Z</time></trkpt><trkpt lat="35.2781882" lon="9.0938062"><ele>608.0</ele><time>2026-05-01T11:01:43.491Z</time></trkpt><trkpt lat="35.2783703" lon="9.093821"><ele>607.6666666666666</ele><time>2026-05-01T11:01:44.476Z</time></trkpt><trkpt lat="35.2785579" lon="9.0938359"><ele>607.3333333333334</ele><time>2026-05-01T11:01:45.465Z</time></trkpt><trkpt lat="35.2787462" lon="9.0938489"><ele>607.0</ele><time>2026-05-01T11:01:46.486Z</time></trkpt><trkpt lat="35.2789373" lon="9.0938619"><ele>607.0</ele><time>2026-05-01T11:01:47.463Z</time></trkpt><trkpt lat="35.2791268" lon="9.0938745"><ele>607.0</ele><time>2026-05-01T11:01:48.467Z</time></trkpt><trkpt lat="35.2793194" lon="9.0938891"><ele>607.0</ele><time>2026-05-01T11:01:49.478Z</time></trkpt><trkpt lat="35.2795106" lon="9.0939056"><ele>607.0</ele><time>2026-05-01T11:01:50.482Z</time></trkpt><trkpt lat="35.2796951" lon="9.0939197"><ele>607.0</ele><time>2026-05-01T11:01:51.467Z</time></trkpt><trkpt lat="35.2798741" lon="9.0939225"><ele>607.0</ele><time>2026-05-01T11:01:52.474Z</time></trkpt><trkpt lat="35.2800616" lon="9.0939349"><ele>608.3333333333334</ele><time>2026-05-01T11:01:53.457Z</time></trkpt><trkpt lat="35.2802507" lon="9.0939491"><ele>609.6666666666666</ele><time>2026-05-01T11:01:54.485Z</time></trkpt><trkpt lat="35.2804416" lon="9.0939642"><ele>611.0</ele><time>2026-05-01T11:01:55.472Z</time></trkpt><trkpt lat="35.2806305" lon="9.0939779"><ele>611.6666666666666</ele><time>2026-05-01T11:01:56.478Z</time></trkpt><trkpt lat="35.2808139" lon="9.093988"><ele>612.3333333333334</ele><time>2026-05-01T11:01:57.477Z</time></trkpt><trkpt lat="35.2809943" lon="9.0939987"><ele>613.0</ele><time>2026-05-01T11:01:58.503Z</time></trkpt><trkpt lat="35.2811682" lon="9.0940097"><ele>613.0</ele><time>2026-05-01T11:01:59.485Z</time></trkpt><trkpt lat="35.2813439" lon="9.0940201"><ele>613.0</ele><time>2026-05-01T11:02:00.485Z</time></trkpt><trkpt lat="35.2815231" lon="9.0940313"><ele>613.0</ele><time>2026-05-01T11:02:01.477Z</time></trkpt><trkpt lat="35.2817013" lon="9.0940355"><ele>614.3333333333334</ele><time>2026-05-01T11:02:02.476Z</time></trkpt><trkpt lat="35.2818758" lon="9.09403"><ele>615.6666666666666</ele><time>2026-05-01T11:02:03.476Z</time></trkpt><trkpt lat="35.2820502" lon="9.094018"><ele>617.0</ele><time>2026-05-01T11:02:04.475Z</time></trkpt><trkpt lat="35.2822224" lon="9.0939977"><ele>617.6666666666666</ele><time>2026-05-01T11:02:05.499Z</time></trkpt><trkpt lat="35.282394" lon="9.0939713"><ele>618.3333333333334</ele><time>2026-05-01T11:02:06.482Z</time></trkpt><trkpt lat="35.2825665" lon="9.0939386"><ele>619.0</ele><time>2026-05-01T11:02:07.511Z</time></trkpt><trkpt lat="35.282741" lon="9.0938994"><ele>619.0</ele><time>2026-05-01T11:02:08.469Z</time></trkpt><trkpt lat="35.2829131" lon="9.0938526"><ele>619.0</ele><time>2026-05-01T11:02:09.484Z</time></trkpt><trkpt lat="35.2830853" lon="9.0938018"><ele>619.0</ele><time>2026-05-01T11:02:10.49Z</time></trkpt><trkpt lat="35.2832587" lon="9.0937491"><ele>619.6666666666667</ele><time>2026-05-01T11:02:11.478Z</time></trkpt><trkpt lat="35.2834318" lon="9.0936953"><ele>620.3333333333334</ele><time>2026-05-01T11:02:12.479Z</time></trkpt><trkpt lat="35.2836066" lon="9.0936427"><ele>621.0</ele><time>2026-05-01T11:02:13.475Z</time></trkpt><trkpt lat="35.283783" lon="9.0935864"><ele>621.0</ele><time>2026-05-01T11:02:14.458Z</time></trkpt><trkpt lat="35.2839599" lon="9.0935304"><ele>621.0</ele><time>2026-05-01T11:02:15.459Z</time></trkpt><trkpt lat="35.284137" lon="9.0934759"><ele>621.0</ele><time>2026-05-01T11:02:16.465Z</time></trkpt><trkpt lat="35.2843142" lon="9.0934227"><ele>621.0</ele><time>2026-05-01T11:02:17.466Z</time></trkpt><trkpt lat="35.2844916" lon="9.0933682"><ele>621.0</ele><time>2026-05-01T11:02:18.466Z</time></trkpt><trkpt lat="35.284669" lon="9.0933121"><ele>621.0</ele><time>2026-05-01T11:02:19.484Z</time></trkpt><trkpt lat="35.2848419" lon="9.0932559"><ele>620.6666666666666</ele><time>2026-05-01T11:02:20.477Z</time></trkpt><trkpt lat="35.285013" lon="9.0932018"><ele>620.3333333333333</ele><time>2026-05-01T11:02:21.473Z</time></trkpt><trkpt lat="35.2851811" lon="9.0931517"><ele>620.0</ele><time>2026-05-01T11:02:22.484Z</time></trkpt><trkpt lat="35.2853459" lon="9.0930989"><ele>620.0</ele><time>2026-05-01T11:02:23.481Z</time></trkpt><trkpt lat="35.2855072" lon="9.0930502"><ele>620.0</ele><time>2026-05-01T11:02:24.463Z</time></trkpt><trkpt lat="35.285667" lon="9.0930027"><ele>620.0</ele><time>2026-05-01T11:02:25.483Z</time></trkpt><trkpt lat="35.285825" lon="9.0929572"><ele>620.3333333333333</ele><time>2026-05-01T11:02:26.475Z</time></trkpt><trkpt lat="35.2859833" lon="9.09291"><ele>620.6666666666666</ele><time>2026-05-01T11:02:27.463Z</time></trkpt><trkpt lat="35.2861392" lon="9.0928624"><ele>621.0</ele><time>2026-05-01T11:02:28.472Z</time></trkpt><trkpt lat="35.2862894" lon="9.0928145"><ele>621.5</ele><time>2026-05-01T11:02:29.445Z</time></trkpt><trkpt lat="35.2864343" lon="9.092771"><ele>622.0</ele><time>2026-05-01T11:02:30.474Z</time></trkpt><trkpt lat="35.2865737" lon="9.0927324"><ele>622.5</ele><time>2026-05-01T11:02:31.468Z</time></trkpt><trkpt lat="35.2867083" lon="9.0926947"><ele>623.0</ele><time>2026-05-01T11:02:32.472Z</time></trkpt><trkpt lat="35.2868441" lon="9.0926553"><ele>623.0</ele><time>2026-05-01T11:02:33.483Z</time></trkpt><trkpt lat="35.2869857" lon="9.0926133"><ele>623.0</ele><time>2026-05-01T11:02:34.466Z</time></trkpt><trkpt lat="35.2871356" lon="9.0925658"><ele>623.0</ele><time>2026-05-01T11:02:35.474Z</time></trkpt><trkpt lat="35.2872953" lon="9.0925129"><ele>623.6666666666666</ele><time>2026-05-01T11:02:36.471Z</time></trkpt><trkpt lat="35.2874633" lon="9.0924586"><ele>624.3333333333334</ele><time>2026-05-01T11:02:37.465Z</time></trkpt><trkpt lat="35.2876435" lon="9.0924042"><ele>625.0</ele><time>2026-05-01T11:02:38.471Z</time></trkpt><trkpt lat="35.2878283" lon="9.0923478"><ele>624.6666666666667</ele><time>2026-05-01T11:02:39.482Z</time></trkpt><trkpt lat="35.2880184" lon="9.0922904"><ele>624.3333333333334</ele><time>2026-05-01T11:02:40.477Z</time></trkpt><trkpt lat="35.2882115" lon="9.0922297"><ele>624.0</ele><time>2026-05-01T11:02:41.474Z</time></trkpt><trkpt lat="35.28841" lon="9.0921684"><ele>624.0</ele><time>2026-05-01T11:02:42.487Z</time></trkpt><trkpt lat="35.2886098" lon="9.0921063"><ele>624.0</ele><time>2026-05-01T11:02:43.462Z</time></trkpt><trkpt lat="35.2888111" lon="9.0920448"><ele>624.0</ele><time>2026-05-01T11:02:44.451Z</time></trkpt><trkpt lat="35.2890089" lon="9.0919832"><ele>623.6666666666666</ele><time>2026-05-01T11:02:45.462Z</time></trkpt><trkpt lat="35.2892079" lon="9.0919205"><ele>623.3333333333333</ele><time>2026-05-01T11:02:46.476Z</time></trkpt><trkpt lat="35.2894092" lon="9.0918596"><ele>623.0</ele><time>2026-05-01T11:02:47.466Z</time></trkpt><trkpt lat="35.2896068" lon="9.0918044"><ele>623.6666666666666</ele><time>2026-05-01T11:02:48.467Z</time></trkpt><trkpt lat="35.289802" lon="9.0917476"><ele>624.3333333333334</ele><time>2026-05-01T11:02:49.469Z</time></trkpt><trkpt lat="35.2900027" lon="9.0916887"><ele>625.0</ele><time>2026-05-01T11:02:50.477Z</time></trkpt><trkpt lat="35.2902076" lon="9.0916263"><ele>625.0</ele><time>2026-05-01T11:02:51.471Z</time></trkpt><trkpt lat="35.2904145" lon="9.0915628"><ele>625.0</ele><time>2026-05-01T11:02:52.45Z</time></trkpt><trkpt lat="35.2906195" lon="9.0914966"><ele>625.0</ele><time>2026-05-01T11:02:53.463Z</time></trkpt><trkpt lat="35.2908308" lon="9.0914329"><ele>625.0</ele><time>2026-05-01T11:02:54.463Z</time></trkpt><trkpt lat="35.2910313" lon="9.0913705"><ele>625.0</ele><time>2026-05-01T11:02:55.468Z</time></trkpt><trkpt lat="35.2912351" lon="9.0913112"><ele>625.0</ele><time>2026-05-01T11:02:56.474Z</time></trkpt><trkpt lat="35.291437" lon="9.0912473"><ele>625.3333333333334</ele><time>2026-05-01T11:02:57.47Z</time></trkpt><trkpt lat="35.2916378" lon="9.0911857"><ele>625.6666666666666</ele><time>2026-05-01T11:02:58.468Z</time></trkpt><trkpt lat="35.2918422" lon="9.0911263"><ele>626.0</ele><time>2026-05-01T11:02:59.461Z</time></trkpt><trkpt lat="35.2920394" lon="9.091068"><ele>626.0</ele><time>2026-05-01T11:03:00.492Z</time></trkpt><trkpt lat="35.2922332" lon="9.0910109"><ele>626.0</ele><time>2026-05-01T11:03:01.478Z</time></trkpt><trkpt lat="35.2924204" lon="9.0909517"><ele>626.0</ele><time>2026-05-01T11:03:02.473Z</time></trkpt><trkpt lat="35.2926027" lon="9.0908965"><ele>626.3333333333333</ele><time>2026-05-01T11:03:03.472Z</time></trkpt><trkpt lat="35.2927855" lon="9.0908414"><ele>626.6666666666666</ele><time>2026-05-01T11:03:04.474Z</time></trkpt><trkpt lat="35.2929681" lon="9.0907834"><ele>627.0</ele><time>2026-05-01T11:03:05.475Z</time></trkpt><trkpt lat="35.2931524" lon="9.090728"><ele>626.3333333333334</ele><time>2026-05-01T11:03:06.484Z</time></trkpt><trkpt lat="35.2933352" lon="9.0906725"><ele>625.6666666666667</ele><time>2026-05-01T11:03:07.474Z</time></trkpt><trkpt lat="35.293519" lon="9.0906153"><ele>625.0</ele><time>2026-05-01T11:03:08.482Z</time></trkpt><trkpt lat="35.2937056" lon="9.0905565"><ele>625.0</ele><time>2026-05-01T11:03:09.469Z</time></trkpt><trkpt lat="35.2938906" lon="9.0904981"><ele>625.0</ele><time>2026-05-01T11:03:10.461Z</time></trkpt><trkpt lat="35.2940738" lon="9.090443"><ele>625.0</ele><time>2026-05-01T11:03:11.451Z</time></trkpt><trkpt lat="35.2942555" lon="9.0903861"><ele>625.6666666666667</ele><time>2026-05-01T11:03:12.478Z</time></trkpt><trkpt lat="35.2944387" lon="9.0903299"><ele>626.3333333333334</ele><time>2026-05-01T11:03:13.474Z</time></trkpt><trkpt lat="35.2946217" lon="9.0902741"><ele>627.0</ele><time>2026-05-01T11:03:14.458Z</time></trkpt><trkpt lat="35.294811" lon="9.09022"><ele>627.6666666666666</ele><time>2026-05-01T11:03:15.451Z</time></trkpt><trkpt lat="35.2949973" lon="9.0901639"><ele>628.3333333333333</ele><time>2026-05-01T11:03:16.475Z</time></trkpt><trkpt lat="35.2951828" lon="9.0901072"><ele>629.0</ele><time>2026-05-01T11:03:17.468Z</time></trkpt><trkpt lat="35.2953686" lon="9.0900494"><ele>629.0</ele><time>2026-05-01T11:03:18.474Z</time></trkpt><trkpt lat="35.2955529" lon="9.0899913"><ele>629.0</ele><time>2026-05-01T11:03:19.486Z</time></trkpt><trkpt lat="35.2957382" lon="9.0899341"><ele>629.0</ele><time>2026-05-01T11:03:20.468Z</time></trkpt><trkpt lat="35.2959224" lon="9.0898775"><ele>628.6666666666666</ele><time>2026-05-01T11:03:21.461Z</time></trkpt><trkpt lat="35.2961062" lon="9.0898212"><ele>628.3333333333334</ele><time>2026-05-01T11:03:22.471Z</time></trkpt><trkpt lat="35.2962917" lon="9.0897643"><ele>628.0</ele><time>2026-05-01T11:03:23.462Z</time></trkpt><trkpt lat="35.2964764" lon="9.089708"><ele>628.0</ele><time>2026-05-01T11:03:24.468Z</time></trkpt><trkpt lat="35.2966616" lon="9.0896532"><ele>628.0</ele><time>2026-05-01T11:03:25.469Z</time></trkpt><trkpt lat="35.2968445" lon="9.0895974"><ele>628.0</ele><time>2026-05-01T11:03:26.466Z</time></trkpt><trkpt lat="35.2970316" lon="9.089542"><ele>628.0</ele><time>2026-05-01T11:03:27.465Z</time></trkpt><trkpt lat="35.2972183" lon="9.0894855"><ele>628.0</ele><time>2026-05-01T11:03:28.462Z</time></trkpt><trkpt lat="35.2974043" lon="9.0894301"><ele>628.0</ele><time>2026-05-01T11:03:29.488Z</time></trkpt><trkpt lat="35.297588" lon="9.0893723"><ele>629.0</ele><time>2026-05-01T11:03:30.471Z</time></trkpt><trkpt lat="35.2977724" lon="9.0893148"><ele>630.0</ele><time>2026-05-01T11:03:31.474Z</time></trkpt><trkpt lat="35.2979547" lon="9.0892572"><ele>631.0</ele><time>2026-05-01T11:03:32.494Z</time></trkpt><trkpt lat="35.2981374" lon="9.0892044"><ele>631.3333333333334</ele><time>2026-05-01T11:03:33.471Z</time></trkpt><trkpt lat="35.2983219" lon="9.0891562"><ele>631.6666666666666</ele><time>2026-05-01T11:03:34.472Z</time></trkpt><trkpt lat="35.2985074" lon="9.0891044"><ele>632.0</ele><time>2026-05-01T11:03:35.457Z</time></trkpt><trkpt lat="35.2986925" lon="9.0890485"><ele>631.6666666666666</ele><time>2026-05-01T11:03:36.475Z</time></trkpt><trkpt lat="35.2988784" lon="9.0889913"><ele>631.3333333333334</ele><time>2026-05-01T11:03:37.486Z</time></trkpt><trkpt lat="35.2990649" lon="9.0889331"><ele>631.0</ele><time>2026-05-01T11:03:38.471Z</time></trkpt><trkpt lat="35.2992503" lon="9.0888754"><ele>631.0</ele><time>2026-05-01T11:03:39.46Z</time></trkpt><trkpt lat="35.2994341" lon="9.0888188"><ele>631.0</ele><time>2026-05-01T11:03:40.479Z</time></trkpt><trkpt lat="35.2996179" lon="9.0887641"><ele>631.0</ele><time>2026-05-01T11:03:41.471Z</time></trkpt><trkpt lat="35.299803" lon="9.0887092"><ele>631.0</ele><time>2026-05-01T11:03:42.474Z</time></trkpt><trkpt lat="35.2999868" lon="9.0886515"><ele>631.0</ele><time>2026-05-01T11:03:43.47Z</time></trkpt><trkpt lat="35.3001736" lon="9.0885938"><ele>631.0</ele><time>2026-05-01T11:03:44.466Z</time></trkpt><trkpt lat="35.3003615" lon="9.0885362"><ele>631.0</ele><time>2026-05-01T11:03:45.482Z</time></trkpt><trkpt lat="35.3005492" lon="9.0884787"><ele>631.0</ele><time>2026-05-01T11:03:46.471Z</time></trkpt><trkpt lat="35.3007396" lon="9.0884234"><ele>631.0</ele><time>2026-05-01T11:03:47.473Z</time></trkpt><trkpt lat="35.3009278" lon="9.0883677"><ele>630.6666666666667</ele><time>2026-05-01T11:03:48.475Z</time></trkpt><trkpt lat="35.3011154" lon="9.0883115"><ele>630.3333333333334</ele><time>2026-05-01T11:03:49.461Z</time></trkpt><trkpt lat="35.3013006" lon="9.0882544"><ele>630.0</ele><time>2026-05-01T11:03:50.48Z</time></trkpt><trkpt lat="35.3014868" lon="9.0881972"><ele>630.6666666666666</ele><time>2026-05-01T11:03:51.469Z</time></trkpt><trkpt lat="35.3016722" lon="9.0881379"><ele>631.3333333333333</ele><time>2026-05-01T11:03:52.471Z</time></trkpt><trkpt lat="35.3018607" lon="9.0880807"><ele>632.0</ele><time>2026-05-01T11:03:53.481Z</time></trkpt><trkpt lat="35.3020495" lon="9.0880221"><ele>632.0</ele><time>2026-05-01T11:03:54.459Z</time></trkpt><trkpt lat="35.3022356" lon="9.0879639"><ele>632.0</ele><time>2026-05-01T11:03:55.463Z</time></trkpt><trkpt lat="35.3024228" lon="9.0879061"><ele>632.0</ele><time>2026-05-01T11:03:56.473Z</time></trkpt><trkpt lat="35.3026095" lon="9.0878494"><ele>632.0</ele><time>2026-05-01T11:03:57.456Z</time></trkpt><trkpt lat="35.302795" lon="9.0877909"><ele>632.0</ele><time>2026-05-01T11:03:58.461Z</time></trkpt><trkpt lat="35.3029797" lon="9.0877322"><ele>632.0</ele><time>2026-05-01T11:03:59.467Z</time></trkpt><trkpt lat="35.3031668" lon="9.0876753"><ele>632.3333333333333</ele><time>2026-05-01T11:04:00.482Z</time></trkpt><trkpt lat="35.3033534" lon="9.0876176"><ele>632.6666666666666</ele><time>2026-05-01T11:04:01.474Z</time></trkpt><trkpt lat="35.3035413" lon="9.0875621"><ele>633.0</ele><time>2026-05-01T11:04:02.472Z</time></trkpt><trkpt lat="35.3037308" lon="9.0875062"><ele>633.0</ele><time>2026-05-01T11:04:03.502Z</time></trkpt><trkpt lat="35.3039195" lon="9.087447"><ele>633.0</ele><time>2026-05-01T11:04:04.467Z</time></trkpt><trkpt lat="35.3041048" lon="9.0873873"><ele>633.0</ele><time>2026-05-01T11:04:05.465Z</time></trkpt><trkpt lat="35.3042916" lon="9.0873272"><ele>632.6666666666666</ele><time>2026-05-01T11:04:06.479Z</time></trkpt><trkpt lat="35.3044802" lon="9.0872676"><ele>632.3333333333333</ele><time>2026-05-01T11:04:07.474Z</time></trkpt><trkpt lat="35.3046706" lon="9.0872081"><ele>632.0</ele><time>2026-05-01T11:04:08.474Z</time></trkpt><trkpt lat="35.3048634" lon="9.0871484"><ele>631.6666666666666</ele><time>2026-05-01T11:04:09.522Z</time></trkpt><trkpt lat="35.3050563" lon="9.0870891"><ele>631.3333333333334</ele><time>2026-05-01T11:04:10.477Z</time></trkpt><trkpt lat="35.3052508" lon="9.0870295"><ele>631.0</ele><time>2026-05-01T11:04:11.467Z</time></trkpt><trkpt lat="35.305441" lon="9.0869696"><ele>630.6666666666667</ele><time>2026-05-01T11:04:12.482Z</time></trkpt><trkpt lat="35.3056298" lon="9.0869081"><ele>630.3333333333334</ele><time>2026-05-01T11:04:13.456Z</time></trkpt><trkpt lat="35.3058195" lon="9.0868486"><ele>630.0</ele><time>2026-05-01T11:04:14.466Z</time></trkpt><trkpt lat="35.3060099" lon="9.0867885"><ele>630.0</ele><time>2026-05-01T11:04:15.469Z</time></trkpt><trkpt lat="35.3062" lon="9.086728"><ele>630.0</ele><time>2026-05-01T11:04:16.491Z</time></trkpt><trkpt lat="35.3063894" lon="9.0866664"><ele>630.0</ele><time>2026-05-01T11:04:17.459Z</time></trkpt><trkpt lat="35.3065816" lon="9.0866051"><ele>630.3333333333334</ele><time>2026-05-01T11:04:18.456Z</time></trkpt><trkpt lat="35.3067662" lon="9.0865498"><ele>630.6666666666667</ele><time>2026-05-01T11:04:19.47Z</time></trkpt><trkpt lat="35.306943" lon="9.0864945"><ele>631.0</ele><time>2026-05-01T11:04:20.469Z</time></trkpt><trkpt lat="35.3071192" lon="9.0864423"><ele>631.3333333333334</ele><time>2026-05-01T11:04:21.478Z</time></trkpt><trkpt lat="35.3072914" lon="9.0863916"><ele>631.6666666666666</ele><time>2026-05-01T11:04:22.462Z</time></trkpt><trkpt lat="35.3074605" lon="9.0863426"><ele>632.0</ele><time>2026-05-01T11:04:23.467Z</time></trkpt><trkpt lat="35.3076172" lon="9.0862974"><ele>632.0</ele><time>2026-05-01T11:04:24.456Z</time></trkpt><trkpt lat="35.3077694" lon="9.0862519"><ele>632.0</ele><time>2026-05-01T11:04:25.442Z</time></trkpt><trkpt lat="35.3079113" lon="9.0862105"><ele>632.0</ele><time>2026-05-01T11:04:26.459Z</time></trkpt><trkpt lat="35.308036" lon="9.0861722"><ele>632.0</ele><time>2026-05-01T11:04:27.462Z</time></trkpt><trkpt lat="35.3081451" lon="9.08614"><ele>632.2</ele><time>2026-05-01T11:04:28.461Z</time></trkpt><trkpt lat="35.3082427" lon="9.0861097"><ele>632.4000000000001</ele><time>2026-05-01T11:04:29.457Z</time></trkpt><trkpt lat="35.3083431" lon="9.0860799"><ele>632.5999999999999</ele><time>2026-05-01T11:04:30.482Z</time></trkpt><trkpt lat="35.308405" lon="9.0860401"><ele>632.8</ele><time>2026-05-01T11:04:31.479Z</time></trkpt><trkpt lat="35.3084548" lon="9.0859918"><ele>633.0</ele><time>2026-05-01T11:04:32.474Z</time></trkpt><trkpt lat="35.3085129" lon="9.085861"><ele>633.0</ele><time>2026-05-01T11:04:34.474Z</time></trkpt><trkpt lat="35.3085199" lon="9.0857811"><ele>633.0</ele><time>2026-05-01T11:04:35.47Z</time></trkpt><trkpt lat="35.3085278" lon="9.0856938"><ele>633.0</ele><time>2026-05-01T11:04:36.461Z</time></trkpt><trkpt lat="35.3085328" lon="9.0855857"><ele>633.0</ele><time>2026-05-01T11:04:37.471Z</time></trkpt><trkpt lat="35.3085364" lon="9.0854692"><ele>633.0</ele><time>2026-05-01T11:04:38.469Z</time></trkpt><trkpt lat="35.3085446" lon="9.0853428"><ele>633.0</ele><time>2026-05-01T11:04:39.486Z</time></trkpt><trkpt lat="35.3085537" lon="9.0852025"><ele>633.25</ele><time>2026-05-01T11:04:40.488Z</time></trkpt><trkpt lat="35.3085646" lon="9.0850389"><ele>633.5</ele><time>2026-05-01T11:04:41.479Z</time></trkpt><trkpt lat="35.3085755" lon="9.0848616"><ele>633.75</ele><time>2026-05-01T11:04:42.484Z</time></trkpt><trkpt lat="35.308589" lon="9.084673"><ele>634.0</ele><time>2026-05-01T11:04:43.485Z</time></trkpt><trkpt lat="35.3085995" lon="9.0844747"><ele>634.0</ele><time>2026-05-01T11:04:44.486Z</time></trkpt><trkpt lat="35.3086129" lon="9.0842709"><ele>634.0</ele><time>2026-05-01T11:04:45.465Z</time></trkpt><trkpt lat="35.3086242" lon="9.0840623"><ele>634.0</ele><time>2026-05-01T11:04:46.484Z</time></trkpt><trkpt lat="35.3086358" lon="9.0838471"><ele>634.0</ele><time>2026-05-01T11:04:47.455Z</time></trkpt><trkpt lat="35.3086488" lon="9.0836237"><ele>634.0</ele><time>2026-05-01T11:04:48.463Z</time></trkpt><trkpt lat="35.308661" lon="9.0833957"><ele>634.0</ele><time>2026-05-01T11:04:49.458Z</time></trkpt><trkpt lat="35.308674" lon="9.0831628"><ele>634.3333333333334</ele><time>2026-05-01T11:04:50.477Z</time></trkpt><trkpt lat="35.3086871" lon="9.0829255"><ele>634.6666666666666</ele><time>2026-05-01T11:04:51.466Z</time></trkpt><trkpt lat="35.3087005" lon="9.0826817"><ele>635.0</ele><time>2026-05-01T11:04:52.478Z</time></trkpt><trkpt lat="35.3087164" lon="9.0824317"><ele>635.6666666666666</ele><time>2026-05-01T11:04:53.478Z</time></trkpt><trkpt lat="35.3087324" lon="9.082174"><ele>636.3333333333334</ele><time>2026-05-01T11:04:54.474Z</time></trkpt><trkpt lat="35.3087487" lon="9.0819162"><ele>637.0</ele><time>2026-05-01T11:04:55.468Z</time></trkpt><trkpt lat="35.308763" lon="9.0816542"><ele>636.3333333333334</ele><time>2026-05-01T11:04:56.478Z</time></trkpt><trkpt lat="35.3087771" lon="9.0813939"><ele>635.6666666666666</ele><time>2026-05-01T11:04:57.48Z</time></trkpt><trkpt lat="35.3087928" lon="9.0811306"><ele>635.0</ele><time>2026-05-01T11:04:58.464Z</time></trkpt><trkpt lat="35.3088077" lon="9.0808715"><ele>634.6666666666666</ele><time>2026-05-01T11:04:59.469Z</time></trkpt><trkpt lat="35.3088225" lon="9.0806113"><ele>634.3333333333334</ele><time>2026-05-01T11:05:00.506Z</time></trkpt><trkpt lat="35.3088371" lon="9.0803527"><ele>634.0</ele><time>2026-05-01T11:05:01.471Z</time></trkpt><trkpt lat="35.3088504" lon="9.0800926"><ele>634.6666666666667</ele><time>2026-05-01T11:05:02.467Z</time></trkpt><trkpt lat="35.3088654" lon="9.0798339"><ele>635.3333333333334</ele><time>2026-05-01T11:05:03.471Z</time></trkpt><trkpt lat="35.3088838" lon="9.0795751"><ele>636.0</ele><time>2026-05-01T11:05:04.467Z</time></trkpt><trkpt lat="35.3089004" lon="9.0793135"><ele>638.0</ele><time>2026-05-01T11:05:05.465Z</time></trkpt><trkpt lat="35.3089166" lon="9.079052"><ele>640.0</ele><time>2026-05-01T11:05:06.46Z</time></trkpt><trkpt lat="35.308932" lon="9.0787936"><ele>642.0</ele><time>2026-05-01T11:05:07.469Z</time></trkpt><trkpt lat="35.3089459" lon="9.078535"><ele>642.0</ele><time>2026-05-01T11:05:08.46Z</time></trkpt><trkpt lat="35.3089619" lon="9.0782742"><ele>642.0</ele><time>2026-05-01T11:05:09.463Z</time></trkpt><trkpt lat="35.308977" lon="9.078015"><ele>642.0</ele><time>2026-05-01T11:05:10.487Z</time></trkpt><trkpt lat="35.3089906" lon="9.0777671"><ele>641.3333333333334</ele><time>2026-05-01T11:05:11.473Z</time></trkpt><trkpt lat="35.3090044" lon="9.0775285"><ele>640.6666666666667</ele><time>2026-05-01T11:05:12.47Z</time></trkpt><trkpt lat="35.3090168" lon="9.077294"><ele>640.0</ele><time>2026-05-01T11:05:13.481Z</time></trkpt><trkpt lat="35.3090279" lon="9.0770645"><ele>640.0</ele><time>2026-05-01T11:05:14.459Z</time></trkpt><trkpt lat="35.3090391" lon="9.0768345"><ele>640.0</ele><time>2026-05-01T11:05:15.493Z</time></trkpt><trkpt lat="35.3090468" lon="9.0766065"><ele>640.0</ele><time>2026-05-01T11:05:16.466Z</time></trkpt><trkpt lat="35.3090565" lon="9.0763796"><ele>640.3333333333334</ele><time>2026-05-01T11:05:17.464Z</time></trkpt><trkpt lat="35.3090705" lon="9.0761536"><ele>640.6666666666666</ele><time>2026-05-01T11:05:18.475Z</time></trkpt><trkpt lat="35.3090892" lon="9.0759255"><ele>641.0</ele><time>2026-05-01T11:05:19.462Z</time></trkpt><trkpt lat="35.3091117" lon="9.0756997"><ele>640.3333333333333</ele><time>2026-05-01T11:05:20.463Z</time></trkpt><trkpt lat="35.3091437" lon="9.0754762"><ele>639.6666666666666</ele><time>2026-05-01T11:05:21.463Z</time></trkpt><trkpt lat="35.3091838" lon="9.0752535"><ele>639.0</ele><time>2026-05-01T11:05:22.472Z</time></trkpt><trkpt lat="35.3092313" lon="9.0750356"><ele>638.6666666666666</ele><time>2026-05-01T11:05:23.446Z</time></trkpt><trkpt lat="35.3092888" lon="9.0748232"><ele>638.3333333333333</ele><time>2026-05-01T11:05:24.44Z</time></trkpt><trkpt lat="35.3093556" lon="9.0746097"><ele>638.0</ele><time>2026-05-01T11:05:25.434Z</time></trkpt><trkpt lat="35.3094304" lon="9.0744024"><ele>638.0</ele><time>2026-05-01T11:05:26.443Z</time></trkpt><trkpt lat="35.3095137" lon="9.0741975"><ele>638.0</ele><time>2026-05-01T11:05:27.451Z</time></trkpt><trkpt lat="35.3096077" lon="9.0739979"><ele>638.0</ele><time>2026-05-01T11:05:28.472Z</time></trkpt><trkpt lat="35.3097099" lon="9.0738044"><ele>637.6666666666666</ele><time>2026-05-01T11:05:29.456Z</time></trkpt><trkpt lat="35.3098184" lon="9.0736156"><ele>637.3333333333334</ele><time>2026-05-01T11:05:30.454Z</time></trkpt><trkpt lat="35.3099358" lon="9.0734353"><ele>637.0</ele><time>2026-05-01T11:05:31.447Z</time></trkpt><trkpt lat="35.310063" lon="9.0732588"><ele>637.0</ele><time>2026-05-01T11:05:32.475Z</time></trkpt><trkpt lat="35.3101981" lon="9.0730906"><ele>637.0</ele><time>2026-05-01T11:05:33.457Z</time></trkpt><trkpt lat="35.3103478" lon="9.0729255"><ele>637.0</ele><time>2026-05-01T11:05:34.471Z</time></trkpt><trkpt lat="35.3105054" lon="9.0727679"><ele>637.6666666666667</ele><time>2026-05-01T11:05:35.455Z</time></trkpt><trkpt lat="35.3106738" lon="9.0726147"><ele>638.3333333333334</ele><time>2026-05-01T11:05:36.481Z</time></trkpt><trkpt lat="35.3108489" lon="9.0724728"><ele>639.0</ele><time>2026-05-01T11:05:37.464Z</time></trkpt><trkpt lat="35.3110292" lon="9.0723479"><ele>639.0</ele><time>2026-05-01T11:05:38.454Z</time></trkpt><trkpt lat="35.3112132" lon="9.0722287"><ele>639.0</ele><time>2026-05-01T11:05:39.464Z</time></trkpt><trkpt lat="35.3113978" lon="9.0721239"><ele>639.0</ele><time>2026-05-01T11:05:40.463Z</time></trkpt><trkpt lat="35.3115817" lon="9.0720205"><ele>639.3333333333334</ele><time>2026-05-01T11:05:41.471Z</time></trkpt><trkpt lat="35.3117637" lon="9.0719208"><ele>639.6666666666667</ele><time>2026-05-01T11:05:42.471Z</time></trkpt><trkpt lat="35.3119448" lon="9.0718235"><ele>640.0</ele><time>2026-05-01T11:05:43.463Z</time></trkpt><trkpt lat="35.3121189" lon="9.0717326"><ele>640.6666666666667</ele><time>2026-05-01T11:05:44.48Z</time></trkpt><trkpt lat="35.3122933" lon="9.0716419"><ele>641.3333333333334</ele><time>2026-05-01T11:05:45.466Z</time></trkpt><trkpt lat="35.3124699" lon="9.0715497"><ele>642.0</ele><time>2026-05-01T11:05:46.466Z</time></trkpt><trkpt lat="35.3126512" lon="9.0714564"><ele>642.3333333333334</ele><time>2026-05-01T11:05:47.457Z</time></trkpt><trkpt lat="35.3128246" lon="9.0713685"><ele>642.6666666666667</ele><time>2026-05-01T11:05:48.477Z</time></trkpt><trkpt lat="35.3129909" lon="9.0712828"><ele>643.0</ele><time>2026-05-01T11:05:49.474Z</time></trkpt><trkpt lat="35.313158" lon="9.0712037"><ele>643.0</ele><time>2026-05-01T11:05:50.479Z</time></trkpt><trkpt lat="35.313325" lon="9.0711256"><ele>643.0</ele><time>2026-05-01T11:05:51.47Z</time></trkpt><trkpt lat="35.3134916" lon="9.0710511"><ele>643.0</ele><time>2026-05-01T11:05:52.503Z</time></trkpt><trkpt lat="35.3136613" lon="9.0709746"><ele>643.0</ele><time>2026-05-01T11:05:53.47Z</time></trkpt><trkpt lat="35.3138334" lon="9.070896"><ele>643.0</ele><time>2026-05-01T11:05:54.475Z</time></trkpt><trkpt lat="35.3140063" lon="9.0708187"><ele>643.0</ele><time>2026-05-01T11:05:55.478Z</time></trkpt><trkpt lat="35.314179" lon="9.0707379"><ele>642.6666666666667</ele><time>2026-05-01T11:05:56.48Z</time></trkpt><trkpt lat="35.3143504" lon="9.0706579"><ele>642.3333333333334</ele><time>2026-05-01T11:05:57.462Z</time></trkpt><trkpt lat="35.3145241" lon="9.0705761"><ele>642.0</ele><time>2026-05-01T11:05:58.461Z</time></trkpt><trkpt lat="35.3146991" lon="9.0704914"><ele>642.6666666666666</ele><time>2026-05-01T11:05:59.46Z</time></trkpt><trkpt lat="35.3148764" lon="9.0704084"><ele>643.3333333333333</ele><time>2026-05-01T11:06:00.457Z</time></trkpt><trkpt lat="35.3150557" lon="9.0703235"><ele>644.0</ele><time>2026-05-01T11:06:01.472Z</time></trkpt><trkpt lat="35.3152324" lon="9.0702389"><ele>644.0</ele><time>2026-05-01T11:06:02.475Z</time></trkpt><trkpt lat="35.3154095" lon="9.0701545"><ele>644.0</ele><time>2026-05-01T11:06:03.464Z</time></trkpt><trkpt lat="35.3155887" lon="9.0700682"><ele>644.0</ele><time>2026-05-01T11:06:04.477Z</time></trkpt><trkpt lat="35.315768" lon="9.0699811"><ele>645.0</ele><time>2026-05-01T11:06:05.473Z</time></trkpt><trkpt lat="35.3159452" lon="9.0698919"><ele>646.0</ele><time>2026-05-01T11:06:06.47Z</time></trkpt><trkpt lat="35.3161225" lon="9.0697995"><ele>647.0</ele><time>2026-05-01T11:06:07.465Z</time></trkpt><trkpt lat="35.3163036" lon="9.0697037"><ele>647.3333333333333</ele><time>2026-05-01T11:06:08.467Z</time></trkpt><trkpt lat="35.3164851" lon="9.0696058"><ele>647.6666666666666</ele><time>2026-05-01T11:06:09.469Z</time></trkpt><trkpt lat="35.3166666" lon="9.0695056"><ele>648.0</ele><time>2026-05-01T11:06:10.47Z</time></trkpt><trkpt lat="35.3168466" lon="9.0694048"><ele>648.0</ele><time>2026-05-01T11:06:11.468Z</time></trkpt><trkpt lat="35.3170262" lon="9.0693001"><ele>648.0</ele><time>2026-05-01T11:06:12.468Z</time></trkpt><trkpt lat="35.3172073" lon="9.0691953"><ele>648.0</ele><time>2026-05-01T11:06:13.477Z</time></trkpt><trkpt lat="35.3173884" lon="9.0690944"><ele>648.3333333333334</ele><time>2026-05-01T11:06:14.462Z</time></trkpt><trkpt lat="35.3175692" lon="9.0689912"><ele>648.6666666666667</ele><time>2026-05-01T11:06:15.466Z</time></trkpt><trkpt lat="35.3177484" lon="9.0688898"><ele>649.0</ele><time>2026-05-01T11:06:16.48Z</time></trkpt><trkpt lat="35.3179283" lon="9.068784"><ele>648.3333333333334</ele><time>2026-05-01T11:06:17.47Z</time></trkpt><trkpt lat="35.3181087" lon="9.0686794"><ele>647.6666666666666</ele><time>2026-05-01T11:06:18.472Z</time></trkpt><trkpt lat="35.3182867" lon="9.068575"><ele>647.0</ele><time>2026-05-01T11:06:19.481Z</time></trkpt><trkpt lat="35.3184653" lon="9.0684727"><ele>647.0</ele><time>2026-05-01T11:06:20.488Z</time></trkpt><trkpt lat="35.3186436" lon="9.0683674"><ele>647.0</ele><time>2026-05-01T11:06:21.464Z</time></trkpt><trkpt lat="35.3188215" lon="9.0682616"><ele>647.0</ele><time>2026-05-01T11:06:22.465Z</time></trkpt><trkpt lat="35.318998" lon="9.0681585"><ele>648.0</ele><time>2026-05-01T11:06:23.465Z</time></trkpt><trkpt lat="35.3191763" lon="9.0680574"><ele>649.0</ele><time>2026-05-01T11:06:24.457Z</time></trkpt><trkpt lat="35.3193546" lon="9.0679561"><ele>650.0</ele><time>2026-05-01T11:06:25.45Z</time></trkpt><trkpt lat="35.3195345" lon="9.0678512"><ele>650.0</ele><time>2026-05-01T11:06:26.466Z</time></trkpt><trkpt lat="35.3197125" lon="9.0677491"><ele>650.0</ele><time>2026-05-01T11:06:27.467Z</time></trkpt><trkpt lat="35.319891" lon="9.0676459"><ele>650.0</ele><time>2026-05-01T11:06:28.474Z</time></trkpt><trkpt lat="35.3200684" lon="9.0675423"><ele>650.0</ele><time>2026-05-01T11:06:29.47Z</time></trkpt><trkpt lat="35.3202459" lon="9.0674399"><ele>650.0</ele><time>2026-05-01T11:06:30.464Z</time></trkpt><trkpt lat="35.3204245" lon="9.0673363"><ele>650.0</ele><time>2026-05-01T11:06:31.471Z</time></trkpt><trkpt lat="35.3206027" lon="9.0672332"><ele>649.6666666666666</ele><time>2026-05-01T11:06:32.466Z</time></trkpt><trkpt lat="35.3207806" lon="9.0671274"><ele>649.3333333333334</ele><time>2026-05-01T11:06:33.456Z</time></trkpt><trkpt lat="35.3209593" lon="9.0670189"><ele>649.0</ele><time>2026-05-01T11:06:34.475Z</time></trkpt><trkpt lat="35.3211383" lon="9.0669093"><ele>649.0</ele><time>2026-05-01T11:06:35.465Z</time></trkpt><trkpt lat="35.3213177" lon="9.0667959"><ele>649.0</ele><time>2026-05-01T11:06:36.473Z</time></trkpt><trkpt lat="35.3214985" lon="9.066688"><ele>649.0</ele><time>2026-05-01T11:06:37.465Z</time></trkpt><trkpt lat="35.3216776" lon="9.066578"><ele>649.6666666666667</ele><time>2026-05-01T11:06:38.475Z</time></trkpt><trkpt lat="35.3218596" lon="9.0664684"><ele>650.3333333333334</ele><time>2026-05-01T11:06:39.47Z</time></trkpt><trkpt lat="35.3220445" lon="9.0663561"><ele>651.0</ele><time>2026-05-01T11:06:40.46Z</time></trkpt><trkpt lat="35.322234" lon="9.0662447"><ele>651.6666666666666</ele><time>2026-05-01T11:06:41.458Z</time></trkpt><trkpt lat="35.3224242" lon="9.066134"><ele>652.3333333333333</ele><time>2026-05-01T11:06:42.48Z</time></trkpt><trkpt lat="35.3226158" lon="9.0660233"><ele>653.0</ele><time>2026-05-01T11:06:43.472Z</time></trkpt><trkpt lat="35.3228059" lon="9.0659114"><ele>653.0</ele><time>2026-05-01T11:06:44.474Z</time></trkpt><trkpt lat="35.3229941" lon="9.0658006"><ele>653.0</ele><time>2026-05-01T11:06:45.471Z</time></trkpt><trkpt lat="35.3231829" lon="9.0656895"><ele>653.0</ele><time>2026-05-01T11:06:46.457Z</time></trkpt><trkpt lat="35.3233714" lon="9.0655788"><ele>653.3333333333333</ele><time>2026-05-01T11:06:47.481Z</time></trkpt><trkpt lat="35.3235575" lon="9.0654704"><ele>653.6666666666666</ele><time>2026-05-01T11:06:48.473Z</time></trkpt><trkpt lat="35.3237467" lon="9.0653636"><ele>654.0</ele><time>2026-05-01T11:06:49.466Z</time></trkpt><trkpt lat="35.3239352" lon="9.0652567"><ele>653.3333333333334</ele><time>2026-05-01T11:06:50.481Z</time></trkpt><trkpt lat="35.3241251" lon="9.0651512"><ele>652.6666666666667</ele><time>2026-05-01T11:06:51.479Z</time></trkpt><trkpt lat="35.3243173" lon="9.0650481"><ele>652.0</ele><time>2026-05-01T11:06:52.483Z</time></trkpt><trkpt lat="35.32451" lon="9.0649507"><ele>652.6666666666667</ele><time>2026-05-01T11:06:53.468Z</time></trkpt><trkpt lat="35.3247032" lon="9.0648556"><ele>653.3333333333334</ele><time>2026-05-01T11:06:54.481Z</time></trkpt><trkpt lat="35.3248961" lon="9.0647633"><ele>654.0</ele><time>2026-05-01T11:06:55.453Z</time></trkpt><trkpt lat="35.3250884" lon="9.064674"><ele>654.6666666666666</ele><time>2026-05-01T11:06:56.473Z</time></trkpt><trkpt lat="35.3252807" lon="9.0645852"><ele>655.3333333333333</ele><time>2026-05-01T11:06:57.466Z</time></trkpt><trkpt lat="35.3254732" lon="9.0644988"><ele>656.0</ele><time>2026-05-01T11:06:58.461Z</time></trkpt><trkpt lat="35.3256647" lon="9.0644083"><ele>656.0</ele><time>2026-05-01T11:06:59.46Z</time></trkpt><trkpt lat="35.3258569" lon="9.064319"><ele>656.0</ele><time>2026-05-01T11:07:00.482Z</time></trkpt><trkpt lat="35.3260461" lon="9.0642312"><ele>656.0</ele><time>2026-05-01T11:07:01.471Z</time></trkpt><trkpt lat="35.3262368" lon="9.0641449"><ele>657.0</ele><time>2026-05-01T11:07:02.47Z</time></trkpt><trkpt lat="35.3264246" lon="9.0640573"><ele>658.0</ele><time>2026-05-01T11:07:03.468Z</time></trkpt><trkpt lat="35.3266117" lon="9.0639706"><ele>659.0</ele><time>2026-05-01T11:07:04.466Z</time></trkpt><trkpt lat="35.3267981" lon="9.0638797"><ele>659.0</ele><time>2026-05-01T11:07:05.467Z</time></trkpt><trkpt lat="35.3269854" lon="9.0637895"><ele>659.0</ele><time>2026-05-01T11:07:06.466Z</time></trkpt><trkpt lat="35.3271716" lon="9.0636999"><ele>659.0</ele><time>2026-05-01T11:07:07.493Z</time></trkpt><trkpt lat="35.3273594" lon="9.0636103"><ele>658.6666666666666</ele><time>2026-05-01T11:07:08.471Z</time></trkpt><trkpt lat="35.3275453" lon="9.0635191"><ele>658.3333333333334</ele><time>2026-05-01T11:07:09.469Z</time></trkpt><trkpt lat="35.3277336" lon="9.0634304"><ele>658.0</ele><time>2026-05-01T11:07:10.464Z</time></trkpt><trkpt lat="35.3279177" lon="9.0633404"><ele>658.3333333333334</ele><time>2026-05-01T11:07:11.47Z</time></trkpt><trkpt lat="35.3281027" lon="9.0632487"><ele>658.6666666666666</ele><time>2026-05-01T11:07:12.465Z</time></trkpt><trkpt lat="35.3282864" lon="9.0631563"><ele>659.0</ele><time>2026-05-01T11:07:13.471Z</time></trkpt><trkpt lat="35.3284692" lon="9.0630636"><ele>659.0</ele><time>2026-05-01T11:07:14.466Z</time></trkpt><trkpt lat="35.3286521" lon="9.0629723"><ele>659.0</ele><time>2026-05-01T11:07:15.468Z</time></trkpt><trkpt lat="35.3288363" lon="9.0628789"><ele>659.0</ele><time>2026-05-01T11:07:16.476Z</time></trkpt><trkpt lat="35.329018" lon="9.062787"><ele>659.6666666666666</ele><time>2026-05-01T11:07:17.47Z</time></trkpt><trkpt lat="35.3291983" lon="9.0626948"><ele>660.3333333333334</ele><time>2026-05-01T11:07:18.475Z</time></trkpt><trkpt lat="35.3293796" lon="9.0626021"><ele>661.0</ele><time>2026-05-01T11:07:19.483Z</time></trkpt><trkpt lat="35.3295605" lon="9.0625121"><ele>661.0</ele><time>2026-05-01T11:07:20.478Z</time></trkpt><trkpt lat="35.3297395" lon="9.0624206"><ele>661.0</ele><time>2026-05-01T11:07:21.47Z</time></trkpt><trkpt lat="35.3299201" lon="9.062328"><ele>661.0</ele><time>2026-05-01T11:07:22.464Z</time></trkpt><trkpt lat="35.3301019" lon="9.0622381"><ele>661.0</ele><time>2026-05-01T11:07:23.474Z</time></trkpt><trkpt lat="35.3302833" lon="9.0621447"><ele>661.0</ele><time>2026-05-01T11:07:24.473Z</time></trkpt><trkpt lat="35.3304672" lon="9.0620517"><ele>661.0</ele><time>2026-05-01T11:07:25.48Z</time></trkpt><trkpt lat="35.3306526" lon="9.0619575"><ele>661.0</ele><time>2026-05-01T11:07:26.457Z</time></trkpt><trkpt lat="35.3308396" lon="9.0618652"><ele>661.0</ele><time>2026-05-01T11:07:27.456Z</time></trkpt><trkpt lat="35.3310259" lon="9.0617717"><ele>661.0</ele><time>2026-05-01T11:07:28.453Z</time></trkpt><trkpt lat="35.3312113" lon="9.0616781"><ele>661.0</ele><time>2026-05-01T11:07:29.478Z</time></trkpt><trkpt lat="35.3313963" lon="9.0615836"><ele>661.0</ele><time>2026-05-01T11:07:30.463Z</time></trkpt><trkpt lat="35.3315784" lon="9.0614873"><ele>661.0</ele><time>2026-05-01T11:07:31.47Z</time></trkpt><trkpt lat="35.3317604" lon="9.061392"><ele>661.0</ele><time>2026-05-01T11:07:32.481Z</time></trkpt><trkpt lat="35.3319431" lon="9.0613022"><ele>661.0</ele><time>2026-05-01T11:07:33.466Z</time></trkpt><trkpt lat="35.3321254" lon="9.0612098"><ele>661.0</ele><time>2026-05-01T11:07:34.444Z</time></trkpt><trkpt lat="35.3323097" lon="9.0611192"><ele>661.3333333333334</ele><time>2026-05-01T11:07:35.476Z</time></trkpt><trkpt lat="35.3324941" lon="9.0610256"><ele>661.6666666666666</ele><time>2026-05-01T11:07:36.472Z</time></trkpt><trkpt lat="35.3326782" lon="9.0609302"><ele>662.0</ele><time>2026-05-01T11:07:37.474Z</time></trkpt><trkpt lat="35.3328647" lon="9.0608395"><ele>662.3333333333333</ele><time>2026-05-01T11:07:38.465Z</time></trkpt><trkpt lat="35.3330506" lon="9.0607478"><ele>662.6666666666666</ele><time>2026-05-01T11:07:39.476Z</time></trkpt><trkpt lat="35.3332334" lon="9.0606544"><ele>663.0</ele><time>2026-05-01T11:07:40.476Z</time></trkpt><trkpt lat="35.3334151" lon="9.0605605"><ele>663.6666666666666</ele><time>2026-05-01T11:07:41.469Z</time></trkpt><trkpt lat="35.3335959" lon="9.0604689"><ele>664.3333333333333</ele><time>2026-05-01T11:07:42.474Z</time></trkpt><trkpt lat="35.3337738" lon="9.0603772"><ele>665.0</ele><time>2026-05-01T11:07:43.459Z</time></trkpt><trkpt lat="35.3339497" lon="9.0602894"><ele>665.0</ele><time>2026-05-01T11:07:44.484Z</time></trkpt><trkpt lat="35.3341255" lon="9.0602023"><ele>665.0</ele><time>2026-05-01T11:07:45.474Z</time></trkpt><trkpt lat="35.334298" lon="9.0601144"><ele>665.0</ele><time>2026-05-01T11:07:46.469Z</time></trkpt><trkpt lat="35.3344716" lon="9.0600271"><ele>665.0</ele><time>2026-05-01T11:07:47.469Z</time></trkpt><trkpt lat="35.3346469" lon="9.0599417"><ele>665.0</ele><time>2026-05-01T11:07:48.457Z</time></trkpt><trkpt lat="35.3348209" lon="9.0598546"><ele>665.0</ele><time>2026-05-01T11:07:49.465Z</time></trkpt><trkpt lat="35.3349956" lon="9.0597674"><ele>665.6666666666666</ele><time>2026-05-01T11:07:50.471Z</time></trkpt><trkpt lat="35.3351701" lon="9.0596805"><ele>666.3333333333334</ele><time>2026-05-01T11:07:51.467Z</time></trkpt><trkpt lat="35.3353443" lon="9.0595927"><ele>667.0</ele><time>2026-05-01T11:07:52.461Z</time></trkpt><trkpt lat="35.3355169" lon="9.0595042"><ele>667.3333333333334</ele><time>2026-05-01T11:07:53.459Z</time></trkpt><trkpt lat="35.3356937" lon="9.0594166"><ele>667.6666666666666</ele><time>2026-05-01T11:07:54.472Z</time></trkpt><trkpt lat="35.3358718" lon="9.0593276"><ele>668.0</ele><time>2026-05-01T11:07:55.473Z</time></trkpt><trkpt lat="35.3360495" lon="9.0592397"><ele>668.0</ele><time>2026-05-01T11:07:56.457Z</time></trkpt><trkpt lat="35.3362271" lon="9.0591516"><ele>668.0</ele><time>2026-05-01T11:07:57.457Z</time></trkpt><trkpt lat="35.336403" lon="9.0590611"><ele>668.0</ele><time>2026-05-01T11:07:58.455Z</time></trkpt><trkpt lat="35.3365776" lon="9.0589706"><ele>667.6666666666666</ele><time>2026-05-01T11:07:59.461Z</time></trkpt><trkpt lat="35.3367516" lon="9.0588796"><ele>667.3333333333334</ele><time>2026-05-01T11:08:00.463Z</time></trkpt><trkpt lat="35.3369278" lon="9.0587914"><ele>667.0</ele><time>2026-05-01T11:08:01.458Z</time></trkpt><trkpt lat="35.337104" lon="9.0587041"><ele>667.6666666666667</ele><time>2026-05-01T11:08:02.475Z</time></trkpt><trkpt lat="35.3372805" lon="9.058617"><ele>668.3333333333334</ele><time>2026-05-01T11:08:03.469Z</time></trkpt><trkpt lat="35.3374597" lon="9.0585315"><ele>669.0</ele><time>2026-05-01T11:08:04.476Z</time></trkpt><trkpt lat="35.3376378" lon="9.0584439"><ele>669.0</ele><time>2026-05-01T11:08:05.472Z</time></trkpt><trkpt lat="35.3378161" lon="9.0583543"><ele>669.0</ele><time>2026-05-01T11:08:06.465Z</time></trkpt><trkpt lat="35.3379972" lon="9.0582653"><ele>669.0</ele><time>2026-05-01T11:08:07.466Z</time></trkpt><trkpt lat="35.3381773" lon="9.0581741"><ele>669.6666666666666</ele><time>2026-05-01T11:08:08.48Z</time></trkpt><trkpt lat="35.3383606" lon="9.0580832"><ele>670.3333333333333</ele><time>2026-05-01T11:08:09.474Z</time></trkpt><trkpt lat="35.3385476" lon="9.0579892"><ele>671.0</ele><time>2026-05-01T11:08:10.481Z</time></trkpt><trkpt lat="35.3387359" lon="9.057895"><ele>671.0</ele><time>2026-05-01T11:08:11.477Z</time></trkpt><trkpt lat="35.3389267" lon="9.0578027"><ele>671.0</ele><time>2026-05-01T11:08:12.468Z</time></trkpt><trkpt lat="35.3391169" lon="9.0577084"><ele>671.0</ele><time>2026-05-01T11:08:13.486Z</time></trkpt><trkpt lat="35.3393078" lon="9.0576126"><ele>671.0</ele><time>2026-05-01T11:08:14.466Z</time></trkpt><trkpt lat="35.3395045" lon="9.0575148"><ele>671.0</ele><time>2026-05-01T11:08:15.469Z</time></trkpt><trkpt lat="35.339709" lon="9.0574163"><ele>671.0</ele><time>2026-05-01T11:08:16.472Z</time></trkpt><trkpt lat="35.339905" lon="9.057317"><ele>671.5</ele><time>2026-05-01T11:08:17.468Z</time></trkpt><trkpt lat="35.340119" lon="9.0572179"><ele>672.0</ele><time>2026-05-01T11:08:18.452Z</time></trkpt><trkpt lat="35.3403436" lon="9.0571153"><ele>672.0</ele><time>2026-05-01T11:08:19.478Z</time></trkpt><trkpt lat="35.3405756" lon="9.0570213"><ele>672.0</ele><time>2026-05-01T11:08:20.456Z</time></trkpt><trkpt lat="35.3408023" lon="9.0569264"><ele>672.0</ele><time>2026-05-01T11:08:21.459Z</time></trkpt><trkpt lat="35.3410225" lon="9.0568421"><ele>672.0</ele><time>2026-05-01T11:08:22.474Z</time></trkpt><trkpt lat="35.3412317" lon="9.0567572"><ele>672.3333333333334</ele><time>2026-05-01T11:08:23.464Z</time></trkpt><trkpt lat="35.3414333" lon="9.0566719"><ele>672.6666666666667</ele><time>2026-05-01T11:08:24.454Z</time></trkpt><trkpt lat="35.3415952" lon="9.0566026"><ele>673.0</ele><time>2026-05-01T11:08:25.47Z</time></trkpt><trkpt lat="35.3417922" lon="9.056519"><ele>673.0</ele><time>2026-05-01T11:08:26.456Z</time></trkpt><trkpt lat="35.3419856" lon="9.0564259"><ele>673.0</ele><time>2026-05-01T11:08:27.452Z</time></trkpt><trkpt lat="35.3421778" lon="9.0563331"><ele>673.0</ele><time>2026-05-01T11:08:28.471Z</time></trkpt><trkpt lat="35.3423614" lon="9.0562382"><ele>673.0</ele><time>2026-05-01T11:08:29.459Z</time></trkpt><trkpt lat="35.3425481" lon="9.0561415"><ele>673.0</ele><time>2026-05-01T11:08:30.459Z</time></trkpt><trkpt lat="35.3427295" lon="9.0560435"><ele>673.0</ele><time>2026-05-01T11:08:31.471Z</time></trkpt><trkpt lat="35.3429123" lon="9.0559454"><ele>673.3333333333334</ele><time>2026-05-01T11:08:32.469Z</time></trkpt><trkpt lat="35.3430895" lon="9.0558462"><ele>673.6666666666666</ele><time>2026-05-01T11:08:33.464Z</time></trkpt><trkpt lat="35.3432675" lon="9.055747"><ele>674.0</ele><time>2026-05-01T11:08:34.472Z</time></trkpt><trkpt lat="35.3434573" lon="9.0556521"><ele>674.3333333333333</ele><time>2026-05-01T11:08:35.47Z</time></trkpt><trkpt lat="35.3436421" lon="9.0555543"><ele>674.6666666666666</ele><time>2026-05-01T11:08:36.469Z</time></trkpt><trkpt lat="35.3438224" lon="9.0554562"><ele>675.0</ele><time>2026-05-01T11:08:37.469Z</time></trkpt><trkpt lat="35.344011" lon="9.0553572"><ele>675.0</ele><time>2026-05-01T11:08:38.465Z</time></trkpt><trkpt lat="35.3441978" lon="9.0552623"><ele>675.0</ele><time>2026-05-01T11:08:39.465Z</time></trkpt><trkpt lat="35.3443891" lon="9.0551658"><ele>675.0</ele><time>2026-05-01T11:08:40.467Z</time></trkpt><trkpt lat="35.3445761" lon="9.0550666"><ele>675.3333333333334</ele><time>2026-05-01T11:08:41.487Z</time></trkpt><trkpt lat="35.3447686" lon="9.0549649"><ele>675.6666666666667</ele><time>2026-05-01T11:08:42.488Z</time></trkpt><trkpt lat="35.3449622" lon="9.0548604"><ele>676.0</ele><time>2026-05-01T11:08:43.477Z</time></trkpt><trkpt lat="35.3451602" lon="9.0547577"><ele>676.0</ele><time>2026-05-01T11:08:44.465Z</time></trkpt><trkpt lat="35.3453565" lon="9.0546572"><ele>676.0</ele><time>2026-05-01T11:08:45.485Z</time></trkpt><trkpt lat="35.3455455" lon="9.0545632"><ele>676.0</ele><time>2026-05-01T11:08:46.457Z</time></trkpt><trkpt lat="35.3457277" lon="9.0544778"><ele>677.0</ele><time>2026-05-01T11:08:47.462Z</time></trkpt><trkpt lat="35.34592" lon="9.0543818"><ele>678.0</ele><time>2026-05-01T11:08:48.473Z</time></trkpt><trkpt lat="35.3461072" lon="9.0542865"><ele>679.0</ele><time>2026-05-01T11:08:49.475Z</time></trkpt><trkpt lat="35.3462949" lon="9.0541904"><ele>679.3333333333334</ele><time>2026-05-01T11:08:50.477Z</time></trkpt><trkpt lat="35.3464545" lon="9.0541005"><ele>679.6666666666666</ele><time>2026-05-01T11:08:51.475Z</time></trkpt><trkpt lat="35.3465936" lon="9.0540147"><ele>680.0</ele><time>2026-05-01T11:08:52.469Z</time></trkpt><trkpt lat="35.3467316" lon="9.0539347"><ele>680.0</ele><time>2026-05-01T11:08:53.471Z</time></trkpt><trkpt lat="35.3468739" lon="9.0538538"><ele>680.0</ele><time>2026-05-01T11:08:54.496Z</time></trkpt><trkpt lat="35.3470162" lon="9.0537725"><ele>680.0</ele><time>2026-05-01T11:08:55.473Z</time></trkpt><trkpt lat="35.3471644" lon="9.0536855"><ele>680.0</ele><time>2026-05-01T11:08:56.457Z</time></trkpt><trkpt lat="35.3473246" lon="9.0535942"><ele>680.0</ele><time>2026-05-01T11:08:57.461Z</time></trkpt><trkpt lat="35.3475026" lon="9.0535099"><ele>680.0</ele><time>2026-05-01T11:08:58.462Z</time></trkpt><trkpt lat="35.3476749" lon="9.0534301"><ele>680.0</ele><time>2026-05-01T11:08:59.455Z</time></trkpt><trkpt lat="35.3478582" lon="9.0533486"><ele>680.0</ele><time>2026-05-01T11:09:00.462Z</time></trkpt><trkpt lat="35.3480333" lon="9.0532655"><ele>680.0</ele><time>2026-05-01T11:09:01.455Z</time></trkpt><trkpt lat="35.3482063" lon="9.0531774"><ele>680.3333333333333</ele><time>2026-05-01T11:09:02.467Z</time></trkpt><trkpt lat="35.3483733" lon="9.0530861"><ele>680.6666666666666</ele><time>2026-05-01T11:09:03.468Z</time></trkpt><trkpt lat="35.3485412" lon="9.0529923"><ele>681.0</ele><time>2026-05-01T11:09:04.456Z</time></trkpt><trkpt lat="35.3487037" lon="9.0528975"><ele>681.0</ele><time>2026-05-01T11:09:05.458Z</time></trkpt><trkpt lat="35.3488693" lon="9.0528055"><ele>681.0</ele><time>2026-05-01T11:09:06.461Z</time></trkpt><trkpt lat="35.3490348" lon="9.0527128"><ele>681.0</ele><time>2026-05-01T11:09:07.467Z</time></trkpt><trkpt lat="35.3492013" lon="9.0526219"><ele>681.3333333333334</ele><time>2026-05-01T11:09:08.466Z</time></trkpt><trkpt lat="35.3493678" lon="9.0525263"><ele>681.6666666666667</ele><time>2026-05-01T11:09:09.476Z</time></trkpt><trkpt lat="35.3495396" lon="9.0524308"><ele>682.0</ele><time>2026-05-01T11:09:10.465Z</time></trkpt><trkpt lat="35.349713" lon="9.0523354"><ele>682.0</ele><time>2026-05-01T11:09:11.472Z</time></trkpt><trkpt lat="35.349888" lon="9.052244"><ele>682.0</ele><time>2026-05-01T11:09:12.463Z</time></trkpt><trkpt lat="35.3500626" lon="9.0521515"><ele>682.0</ele><time>2026-05-01T11:09:13.459Z</time></trkpt><trkpt lat="35.3502368" lon="9.0520584"><ele>682.0</ele><time>2026-05-01T11:09:14.474Z</time></trkpt><trkpt lat="35.350411" lon="9.0519617"><ele>682.0</ele><time>2026-05-01T11:09:15.479Z</time></trkpt><trkpt lat="35.3505806" lon="9.0518632"><ele>682.0</ele><time>2026-05-01T11:09:16.478Z</time></trkpt><trkpt lat="35.3507538" lon="9.0517679"><ele>682.3333333333334</ele><time>2026-05-01T11:09:17.47Z</time></trkpt><trkpt lat="35.3509272" lon="9.0516736"><ele>682.6666666666666</ele><time>2026-05-01T11:09:18.478Z</time></trkpt><trkpt lat="35.351099" lon="9.0515783"><ele>683.0</ele><time>2026-05-01T11:09:19.468Z</time></trkpt><trkpt lat="35.3512708" lon="9.0514824"><ele>683.6666666666666</ele><time>2026-05-01T11:09:20.492Z</time></trkpt><trkpt lat="35.3514404" lon="9.0513849"><ele>684.3333333333334</ele><time>2026-05-01T11:09:21.503Z</time></trkpt><trkpt lat="35.3516097" lon="9.0512898"><ele>685.0</ele><time>2026-05-01T11:09:22.475Z</time></trkpt><trkpt lat="35.3517853" lon="9.0511972"><ele>685.0</ele><time>2026-05-01T11:09:23.471Z</time></trkpt><trkpt lat="35.3519611" lon="9.0511037"><ele>685.0</ele><time>2026-05-01T11:09:24.454Z</time></trkpt><trkpt lat="35.3521369" lon="9.0510049"><ele>685.0</ele><time>2026-05-01T11:09:25.474Z</time></trkpt><trkpt lat="35.3523095" lon="9.0509043"><ele>685.3333333333334</ele><time>2026-05-01T11:09:26.453Z</time></trkpt><trkpt lat="35.3524846" lon="9.050805"><ele>685.6666666666666</ele><time>2026-05-01T11:09:27.48Z</time></trkpt><trkpt lat="35.3526578" lon="9.0507063"><ele>686.0</ele><time>2026-05-01T11:09:28.486Z</time></trkpt><trkpt lat="35.3528421" lon="9.0506076"><ele>686.0</ele><time>2026-05-01T11:09:29.465Z</time></trkpt><trkpt lat="35.3530287" lon="9.0505089"><ele>686.0</ele><time>2026-05-01T11:09:30.451Z</time></trkpt><trkpt lat="35.3532184" lon="9.050406"><ele>686.0</ele><time>2026-05-01T11:09:31.452Z</time></trkpt><trkpt lat="35.3534045" lon="9.0503003"><ele>686.0</ele><time>2026-05-01T11:09:32.458Z</time></trkpt><trkpt lat="35.3535903" lon="9.0501912"><ele>686.0</ele><time>2026-05-01T11:09:33.471Z</time></trkpt><trkpt lat="35.3537747" lon="9.0500778"><ele>686.0</ele><time>2026-05-01T11:09:34.48Z</time></trkpt><trkpt lat="35.3539573" lon="9.0499591"><ele>686.6666666666666</ele><time>2026-05-01T11:09:35.45Z</time></trkpt><trkpt lat="35.3541391" lon="9.0498378"><ele>687.3333333333334</ele><time>2026-05-01T11:09:36.467Z</time></trkpt><trkpt lat="35.3543142" lon="9.0497185"><ele>688.0</ele><time>2026-05-01T11:09:37.462Z</time></trkpt><trkpt lat="35.3544805" lon="9.0496062"><ele>688.0</ele><time>2026-05-01T11:09:38.487Z</time></trkpt><trkpt lat="35.3546392" lon="9.049493"><ele>688.0</ele><time>2026-05-01T11:09:39.473Z</time></trkpt><trkpt lat="35.3547965" lon="9.0493801"><ele>688.0</ele><time>2026-05-01T11:09:40.463Z</time></trkpt><trkpt lat="35.3549538" lon="9.0492693"><ele>687.6666666666667</ele><time>2026-05-01T11:09:41.462Z</time></trkpt><trkpt lat="35.3551096" lon="9.0491597"><ele>687.3333333333334</ele><time>2026-05-01T11:09:42.491Z</time></trkpt><trkpt lat="35.3552668" lon="9.0490511"><ele>687.0</ele><time>2026-05-01T11:09:43.488Z</time></trkpt><trkpt lat="35.3554235" lon="9.0489406"><ele>687.6666666666666</ele><time>2026-05-01T11:09:44.465Z</time></trkpt><trkpt lat="35.3555786" lon="9.0488277"><ele>688.3333333333333</ele><time>2026-05-01T11:09:45.463Z</time></trkpt><trkpt lat="35.3557334" lon="9.0487135"><ele>689.0</ele><time>2026-05-01T11:09:46.47Z</time></trkpt><trkpt lat="35.3558869" lon="9.0485982"><ele>689.0</ele><time>2026-05-01T11:09:47.464Z</time></trkpt><trkpt lat="35.35604" lon="9.0484813"><ele>689.0</ele><time>2026-05-01T11:09:48.463Z</time></trkpt><trkpt lat="35.3561929" lon="9.0483615"><ele>689.0</ele><time>2026-05-01T11:09:49.473Z</time></trkpt><trkpt lat="35.3563518" lon="9.0482394"><ele>689.3333333333333</ele><time>2026-05-01T11:09:50.469Z</time></trkpt><trkpt lat="35.3565127" lon="9.0481143"><ele>689.6666666666666</ele><time>2026-05-01T11:09:51.462Z</time></trkpt><trkpt lat="35.3566756" lon="9.0479833"><ele>690.0</ele><time>2026-05-01T11:09:52.451Z</time></trkpt><trkpt lat="35.3568386" lon="9.04785"><ele>690.0</ele><time>2026-05-01T11:09:53.501Z</time></trkpt><trkpt lat="35.3570037" lon="9.0477158"><ele>690.0</ele><time>2026-05-01T11:09:54.465Z</time></trkpt><trkpt lat="35.3571712" lon="9.0475801"><ele>690.0</ele><time>2026-05-01T11:09:55.453Z</time></trkpt><trkpt lat="35.3573394" lon="9.0474458"><ele>690.0</ele><time>2026-05-01T11:09:56.465Z</time></trkpt><trkpt lat="35.3575053" lon="9.0473094"><ele>690.0</ele><time>2026-05-01T11:09:57.465Z</time></trkpt><trkpt lat="35.3576709" lon="9.0471726"><ele>690.0</ele><time>2026-05-01T11:09:58.469Z</time></trkpt><trkpt lat="35.3578346" lon="9.0470348"><ele>690.0</ele><time>2026-05-01T11:09:59.466Z</time></trkpt><trkpt lat="35.3579998" lon="9.0468996"><ele>690.0</ele><time>2026-05-01T11:10:00.463Z</time></trkpt><trkpt lat="35.3581658" lon="9.046765"><ele>690.0</ele><time>2026-05-01T11:10:01.448Z</time></trkpt><trkpt lat="35.3583351" lon="9.046626"><ele>691.0</ele><time>2026-05-01T11:10:02.477Z</time></trkpt><trkpt lat="35.3585056" lon="9.0464865"><ele>692.0</ele><time>2026-05-01T11:10:03.463Z</time></trkpt><trkpt lat="35.3586789" lon="9.046346"><ele>693.0</ele><time>2026-05-01T11:10:04.466Z</time></trkpt><trkpt lat="35.3588534" lon="9.0462044"><ele>693.0</ele><time>2026-05-01T11:10:05.461Z</time></trkpt><trkpt lat="35.3590282" lon="9.0460651"><ele>693.0</ele><time>2026-05-01T11:10:06.47Z</time></trkpt><trkpt lat="35.3592032" lon="9.0459252"><ele>693.0</ele><time>2026-05-01T11:10:07.459Z</time></trkpt><trkpt lat="35.3593779" lon="9.0457874"><ele>692.6666666666666</ele><time>2026-05-01T11:10:08.471Z</time></trkpt><trkpt lat="35.3595512" lon="9.0456477"><ele>692.3333333333333</ele><time>2026-05-01T11:10:09.464Z</time></trkpt><trkpt lat="35.3597256" lon="9.0455124"><ele>692.0</ele><time>2026-05-01T11:10:10.452Z</time></trkpt><trkpt lat="35.359901" lon="9.0453745"><ele>692.3333333333333</ele><time>2026-05-01T11:10:11.454Z</time></trkpt><trkpt lat="35.3600755" lon="9.0452356"><ele>692.6666666666666</ele><time>2026-05-01T11:10:12.469Z</time></trkpt><trkpt lat="35.3602488" lon="9.0450964"><ele>693.0</ele><time>2026-05-01T11:10:13.456Z</time></trkpt><trkpt lat="35.3604216" lon="9.0449539"><ele>693.6666666666666</ele><time>2026-05-01T11:10:14.477Z</time></trkpt><trkpt lat="35.3605947" lon="9.044812"><ele>694.3333333333333</ele><time>2026-05-01T11:10:15.462Z</time></trkpt><trkpt lat="35.3607675" lon="9.0446721"><ele>695.0</ele><time>2026-05-01T11:10:16.464Z</time></trkpt><trkpt lat="35.3609362" lon="9.0445333"><ele>695.0</ele><time>2026-05-01T11:10:17.473Z</time></trkpt><trkpt lat="35.3611077" lon="9.0443974"><ele>695.0</ele><time>2026-05-01T11:10:18.463Z</time></trkpt><trkpt lat="35.3612778" lon="9.0442635"><ele>695.0</ele><time>2026-05-01T11:10:19.477Z</time></trkpt><trkpt lat="35.3614478" lon="9.0441312"><ele>695.0</ele><time>2026-05-01T11:10:20.47Z</time></trkpt><trkpt lat="35.3616191" lon="9.0439947"><ele>695.0</ele><time>2026-05-01T11:10:21.462Z</time></trkpt><trkpt lat="35.3617944" lon="9.0438554"><ele>695.0</ele><time>2026-05-01T11:10:22.473Z</time></trkpt><trkpt lat="35.3619761" lon="9.0437139"><ele>695.0</ele><time>2026-05-01T11:10:23.477Z</time></trkpt><trkpt lat="35.3621623" lon="9.0435666"><ele>695.0</ele><time>2026-05-01T11:10:24.469Z</time></trkpt><trkpt lat="35.3623532" lon="9.0434145"><ele>695.0</ele><time>2026-05-01T11:10:25.461Z</time></trkpt><trkpt lat="35.3625349" lon="9.0432767"><ele>695.3333333333333</ele><time>2026-05-01T11:10:26.496Z</time></trkpt><trkpt lat="35.3627195" lon="9.0431347"><ele>695.6666666666666</ele><time>2026-05-01T11:10:27.468Z</time></trkpt><trkpt lat="35.3629016" lon="9.0429975"><ele>696.0</ele><time>2026-05-01T11:10:28.459Z</time></trkpt><trkpt lat="35.3630791" lon="9.0428648"><ele>696.3333333333334</ele><time>2026-05-01T11:10:29.455Z</time></trkpt><trkpt lat="35.363243" lon="9.0427411"><ele>696.6666666666667</ele><time>2026-05-01T11:10:30.462Z</time></trkpt><trkpt lat="35.3634043" lon="9.0426163"><ele>697.0</ele><time>2026-05-01T11:10:31.463Z</time></trkpt><trkpt lat="35.3635755" lon="9.0424824"><ele>697.0</ele><time>2026-05-01T11:10:32.477Z</time></trkpt><trkpt lat="35.3637489" lon="9.0423476"><ele>697.0</ele><time>2026-05-01T11:10:33.464Z</time></trkpt><trkpt lat="35.363921" lon="9.0422147"><ele>697.0</ele><time>2026-05-01T11:10:34.47Z</time></trkpt><trkpt lat="35.3640924" lon="9.0420845"><ele>697.0</ele><time>2026-05-01T11:10:35.471Z</time></trkpt><trkpt lat="35.3642621" lon="9.0419552"><ele>697.0</ele><time>2026-05-01T11:10:36.467Z</time></trkpt><trkpt lat="35.3644318" lon="9.041825"><ele>697.0</ele><time>2026-05-01T11:10:37.473Z</time></trkpt><trkpt lat="35.3646033" lon="9.0416941"><ele>697.6666666666667</ele><time>2026-05-01T11:10:38.475Z</time></trkpt><trkpt lat="35.364775" lon="9.041563"><ele>698.3333333333334</ele><time>2026-05-01T11:10:39.464Z</time></trkpt><trkpt lat="35.3649523" lon="9.0414291"><ele>699.0</ele><time>2026-05-01T11:10:40.47Z</time></trkpt><trkpt lat="35.3651261" lon="9.0412982"><ele>699.0</ele><time>2026-05-01T11:10:41.468Z</time></trkpt><trkpt lat="35.3652998" lon="9.041163"><ele>699.0</ele><time>2026-05-01T11:10:42.466Z</time></trkpt><trkpt lat="35.3654782" lon="9.0410289"><ele>699.0</ele><time>2026-05-01T11:10:43.469Z</time></trkpt><trkpt lat="35.365655" lon="9.0408927"><ele>699.6666666666666</ele><time>2026-05-01T11:10:44.463Z</time></trkpt><trkpt lat="35.3658294" lon="9.0407582"><ele>700.3333333333333</ele><time>2026-05-01T11:10:45.46Z</time></trkpt><trkpt lat="35.3660049" lon="9.0406233"><ele>701.0</ele><time>2026-05-01T11:10:46.47Z</time></trkpt><trkpt lat="35.3661791" lon="9.0404876"><ele>701.0</ele><time>2026-05-01T11:10:47.461Z</time></trkpt><trkpt lat="35.3663523" lon="9.0403541"><ele>701.0</ele><time>2026-05-01T11:10:48.465Z</time></trkpt><trkpt lat="35.3665255" lon="9.0402204"><ele>701.0</ele><time>2026-05-01T11:10:49.481Z</time></trkpt><trkpt lat="35.3666992" lon="9.0400871"><ele>701.0</ele><time>2026-05-01T11:10:50.471Z</time></trkpt><trkpt lat="35.3668698" lon="9.0399516"><ele>701.0</ele><time>2026-05-01T11:10:51.46Z</time></trkpt><trkpt lat="35.3670459" lon="9.0398176"><ele>701.0</ele><time>2026-05-01T11:10:52.463Z</time></trkpt><trkpt lat="35.3672251" lon="9.0396807"><ele>701.0</ele><time>2026-05-01T11:10:53.459Z</time></trkpt><trkpt lat="35.3674018" lon="9.0395444"><ele>701.0</ele><time>2026-05-01T11:10:54.465Z</time></trkpt><trkpt lat="35.3675771" lon="9.0394108"><ele>701.0</ele><time>2026-05-01T11:10:55.462Z</time></trkpt><trkpt lat="35.3677492" lon="9.0392781"><ele>701.0</ele><time>2026-05-01T11:10:56.481Z</time></trkpt><trkpt lat="35.3679217" lon="9.0391487"><ele>701.0</ele><time>2026-05-01T11:10:57.462Z</time></trkpt><trkpt lat="35.3680894" lon="9.0390227"><ele>701.0</ele><time>2026-05-01T11:10:58.461Z</time></trkpt><trkpt lat="35.3682567" lon="9.0388953"><ele>701.6666666666666</ele><time>2026-05-01T11:10:59.467Z</time></trkpt><trkpt lat="35.3684292" lon="9.0387716"><ele>702.3333333333334</ele><time>2026-05-01T11:11:00.465Z</time></trkpt><trkpt lat="35.3686012" lon="9.038645"><ele>703.0</ele><time>2026-05-01T11:11:01.448Z</time></trkpt><trkpt lat="35.3687732" lon="9.0385155"><ele>703.0</ele><time>2026-05-01T11:11:02.462Z</time></trkpt><trkpt lat="35.3689529" lon="9.0383745"><ele>703.0</ele><time>2026-05-01T11:11:03.457Z</time></trkpt><trkpt lat="35.3691332" lon="9.0382395"><ele>703.0</ele><time>2026-05-01T11:11:04.463Z</time></trkpt><trkpt lat="35.3693094" lon="9.038108"><ele>703.3333333333334</ele><time>2026-05-01T11:11:05.467Z</time></trkpt><trkpt lat="35.3694867" lon="9.0379742"><ele>703.6666666666666</ele><time>2026-05-01T11:11:06.459Z</time></trkpt><trkpt lat="35.3696639" lon="9.0378423"><ele>704.0</ele><time>2026-05-01T11:11:07.462Z</time></trkpt><trkpt lat="35.3698422" lon="9.0377073"><ele>704.6666666666666</ele><time>2026-05-01T11:11:08.469Z</time></trkpt><trkpt lat="35.3700207" lon="9.0375718"><ele>705.3333333333334</ele><time>2026-05-01T11:11:09.468Z</time></trkpt><trkpt lat="35.3701987" lon="9.0374356"><ele>706.0</ele><time>2026-05-01T11:11:10.468Z</time></trkpt><trkpt lat="35.370377" lon="9.0373009"><ele>706.6666666666667</ele><time>2026-05-01T11:11:11.457Z</time></trkpt><trkpt lat="35.3705546" lon="9.0371688"><ele>707.3333333333334</ele><time>2026-05-01T11:11:12.464Z</time></trkpt><trkpt lat="35.370732" lon="9.0370341"><ele>708.0</ele><time>2026-05-01T11:11:13.474Z</time></trkpt><trkpt lat="35.3709137" lon="9.0368996"><ele>708.0</ele><time>2026-05-01T11:11:14.472Z</time></trkpt><trkpt lat="35.3710935" lon="9.0367638"><ele>708.0</ele><time>2026-05-01T11:11:15.461Z</time></trkpt><trkpt lat="35.3712751" lon="9.0366265"><ele>708.0</ele><time>2026-05-01T11:11:16.479Z</time></trkpt><trkpt lat="35.3714558" lon="9.0364876"><ele>708.0</ele><time>2026-05-01T11:11:17.47Z</time></trkpt><trkpt lat="35.3716399" lon="9.0363463"><ele>708.0</ele><time>2026-05-01T11:11:18.484Z</time></trkpt><trkpt lat="35.3718258" lon="9.0362055"><ele>708.0</ele><time>2026-05-01T11:11:19.468Z</time></trkpt><trkpt lat="35.3720107" lon="9.036067"><ele>708.6666666666666</ele><time>2026-05-01T11:11:20.462Z</time></trkpt><trkpt lat="35.3721946" lon="9.0359307"><ele>709.3333333333333</ele><time>2026-05-01T11:11:21.467Z</time></trkpt><trkpt lat="35.3723797" lon="9.0357957"><ele>710.0</ele><time>2026-05-01T11:11:22.474Z</time></trkpt><trkpt lat="35.3725609" lon="9.0356592"><ele>710.0</ele><time>2026-05-01T11:11:23.459Z</time></trkpt><trkpt lat="35.372744" lon="9.0355214"><ele>710.0</ele><time>2026-05-01T11:11:24.461Z</time></trkpt><trkpt lat="35.3729282" lon="9.0353824"><ele>710.0</ele><time>2026-05-01T11:11:25.505Z</time></trkpt><trkpt lat="35.3731103" lon="9.0352461"><ele>710.0</ele><time>2026-05-01T11:11:26.466Z</time></trkpt><trkpt lat="35.3732926" lon="9.0351134"><ele>710.0</ele><time>2026-05-01T11:11:27.446Z</time></trkpt><trkpt lat="35.3734693" lon="9.0349802"><ele>710.0</ele><time>2026-05-01T11:11:28.455Z</time></trkpt><trkpt lat="35.3736467" lon="9.0348443"><ele>710.0</ele><time>2026-05-01T11:11:29.454Z</time></trkpt><trkpt lat="35.3738274" lon="9.0347121"><ele>710.0</ele><time>2026-05-01T11:11:30.458Z</time></trkpt><trkpt lat="35.3740038" lon="9.0345803"><ele>710.0</ele><time>2026-05-01T11:11:31.46Z</time></trkpt><trkpt lat="35.3741823" lon="9.0344476"><ele>710.6666666666666</ele><time>2026-05-01T11:11:32.446Z</time></trkpt><trkpt lat="35.3743606" lon="9.0343121"><ele>711.3333333333334</ele><time>2026-05-01T11:11:33.465Z</time></trkpt><trkpt lat="35.3745373" lon="9.0341763"><ele>712.0</ele><time>2026-05-01T11:11:34.463Z</time></trkpt><trkpt lat="35.3747174" lon="9.0340407"><ele>712.0</ele><time>2026-05-01T11:11:35.499Z</time></trkpt><trkpt lat="35.3748946" lon="9.0339096"><ele>712.0</ele><time>2026-05-01T11:11:36.466Z</time></trkpt><trkpt lat="35.3750732" lon="9.0337779"><ele>712.0</ele><time>2026-05-01T11:11:37.464Z</time></trkpt><trkpt lat="35.3752488" lon="9.0336447"><ele>712.0</ele><time>2026-05-01T11:11:38.46Z</time></trkpt><trkpt lat="35.3754258" lon="9.0335096"><ele>712.0</ele><time>2026-05-01T11:11:39.454Z</time></trkpt><trkpt lat="35.3756013" lon="9.0333747"><ele>712.0</ele><time>2026-05-01T11:11:40.464Z</time></trkpt><trkpt lat="35.3757777" lon="9.0332408"><ele>713.0</ele><time>2026-05-01T11:11:41.471Z</time></trkpt><trkpt lat="35.3759536" lon="9.0331061"><ele>714.0</ele><time>2026-05-01T11:11:42.482Z</time></trkpt><trkpt lat="35.3761302" lon="9.032968"><ele>715.0</ele><time>2026-05-01T11:11:43.457Z</time></trkpt><trkpt lat="35.3763066" lon="9.032834"><ele>714.6666666666667</ele><time>2026-05-01T11:11:44.472Z</time></trkpt><trkpt lat="35.3764831" lon="9.0326983"><ele>714.3333333333334</ele><time>2026-05-01T11:11:45.468Z</time></trkpt><trkpt lat="35.376659" lon="9.0325625"><ele>714.0</ele><time>2026-05-01T11:11:46.459Z</time></trkpt><trkpt lat="35.3768354" lon="9.0324254"><ele>714.6666666666666</ele><time>2026-05-01T11:11:47.475Z</time></trkpt><trkpt lat="35.3770121" lon="9.0322912"><ele>715.3333333333333</ele><time>2026-05-01T11:11:48.457Z</time></trkpt><trkpt lat="35.3771915" lon="9.0321612"><ele>716.0</ele><time>2026-05-01T11:11:49.466Z</time></trkpt><trkpt lat="35.3773715" lon="9.0320296"><ele>716.3333333333333</ele><time>2026-05-01T11:11:50.471Z</time></trkpt><trkpt lat="35.3775527" lon="9.031903"><ele>716.6666666666666</ele><time>2026-05-01T11:11:51.454Z</time></trkpt><trkpt lat="35.3777341" lon="9.0317777"><ele>717.0</ele><time>2026-05-01T11:11:52.473Z</time></trkpt><trkpt lat="35.3779163" lon="9.031651"><ele>717.3333333333334</ele><time>2026-05-01T11:11:53.47Z</time></trkpt><trkpt lat="35.3780981" lon="9.0315271"><ele>717.6666666666667</ele><time>2026-05-01T11:11:54.463Z</time></trkpt><trkpt lat="35.37828" lon="9.0314008"><ele>718.0</ele><time>2026-05-01T11:11:55.458Z</time></trkpt><trkpt lat="35.3784631" lon="9.0312762"><ele>718.0</ele><time>2026-05-01T11:11:56.471Z</time></trkpt><trkpt lat="35.378647" lon="9.0311509"><ele>718.0</ele><time>2026-05-01T11:11:57.456Z</time></trkpt><trkpt lat="35.3788299" lon="9.0310294"><ele>718.0</ele><time>2026-05-01T11:11:58.462Z</time></trkpt><trkpt lat="35.3790142" lon="9.0309035"><ele>719.0</ele><time>2026-05-01T11:11:59.473Z</time></trkpt><trkpt lat="35.3791981" lon="9.0307805"><ele>720.0</ele><time>2026-05-01T11:12:00.455Z</time></trkpt><trkpt lat="35.3793816" lon="9.0306582"><ele>721.0</ele><time>2026-05-01T11:12:01.455Z</time></trkpt><trkpt lat="35.3795666" lon="9.0305372"><ele>721.0</ele><time>2026-05-01T11:12:02.454Z</time></trkpt><trkpt lat="35.3797508" lon="9.0304141"><ele>721.0</ele><time>2026-05-01T11:12:03.475Z</time></trkpt><trkpt lat="35.3799321" lon="9.0302936"><ele>721.0</ele><time>2026-05-01T11:12:04.461Z</time></trkpt><trkpt lat="35.3801008" lon="9.0301783"><ele>721.0</ele><time>2026-05-01T11:12:05.475Z</time></trkpt><trkpt lat="35.3802616" lon="9.0300688"><ele>721.0</ele><time>2026-05-01T11:12:06.465Z</time></trkpt><trkpt lat="35.3804187" lon="9.0299633"><ele>721.0</ele><time>2026-05-01T11:12:07.449Z</time></trkpt><trkpt lat="35.380576" lon="9.0298622"><ele>722.0</ele><time>2026-05-01T11:12:08.462Z</time></trkpt><trkpt lat="35.3807293" lon="9.0297587"><ele>723.0</ele><time>2026-05-01T11:12:09.475Z</time></trkpt><trkpt lat="35.3808813" lon="9.0296577"><ele>724.0</ele><time>2026-05-01T11:12:10.467Z</time></trkpt><trkpt lat="35.3810319" lon="9.029556"><ele>724.0</ele><time>2026-05-01T11:12:11.457Z</time></trkpt><trkpt lat="35.3811805" lon="9.0294542"><ele>724.0</ele><time>2026-05-01T11:12:12.474Z</time></trkpt><trkpt lat="35.3813295" lon="9.0293551"><ele>724.0</ele><time>2026-05-01T11:12:13.456Z</time></trkpt><trkpt lat="35.381478" lon="9.0292567"><ele>723.6666666666667</ele><time>2026-05-01T11:12:14.471Z</time></trkpt><trkpt lat="35.381627" lon="9.0291586"><ele>723.3333333333334</ele><time>2026-05-01T11:12:15.46Z</time></trkpt><trkpt lat="35.3817745" lon="9.0290598"><ele>723.0</ele><time>2026-05-01T11:12:16.475Z</time></trkpt><trkpt lat="35.381917" lon="9.0289662"><ele>723.5</ele><time>2026-05-01T11:12:17.465Z</time></trkpt><trkpt lat="35.382051" lon="9.0288782"><ele>724.0</ele><time>2026-05-01T11:12:18.457Z</time></trkpt><trkpt lat="35.3821788" lon="9.0287961"><ele>724.5</ele><time>2026-05-01T11:12:19.47Z</time></trkpt><trkpt lat="35.3822941" lon="9.0287179"><ele>725.0</ele><time>2026-05-01T11:12:20.454Z</time></trkpt><trkpt lat="35.382403" lon="9.0286425"><ele>725.0</ele><time>2026-05-01T11:12:21.455Z</time></trkpt><trkpt lat="35.3825049" lon="9.0285737"><ele>725.0</ele><time>2026-05-01T11:12:22.466Z</time></trkpt><trkpt lat="35.3825963" lon="9.0285066"><ele>725.0</ele><time>2026-05-01T11:12:23.475Z</time></trkpt><trkpt lat="35.3826825" lon="9.028444"><ele>725.0</ele><time>2026-05-01T11:12:24.479Z</time></trkpt><trkpt lat="35.3827649" lon="9.0283706"><ele>725.0</ele><time>2026-05-01T11:12:25.437Z</time></trkpt><trkpt lat="35.3828476" lon="9.0282936"><ele>725.25</ele><time>2026-05-01T11:12:26.44Z</time></trkpt><trkpt lat="35.3829285" lon="9.0282117"><ele>725.5</ele><time>2026-05-01T11:12:27.454Z</time></trkpt><trkpt lat="35.3830153" lon="9.028122"><ele>725.75</ele><time>2026-05-01T11:12:28.47Z</time></trkpt><trkpt lat="35.3831008" lon="9.0280221"><ele>726.0</ele><time>2026-05-01T11:12:29.449Z</time></trkpt><trkpt lat="35.3831845" lon="9.0279155"><ele>726.0</ele><time>2026-05-01T11:12:30.447Z</time></trkpt><trkpt lat="35.3832655" lon="9.0277994"><ele>726.0</ele><time>2026-05-01T11:12:31.453Z</time></trkpt><trkpt lat="35.3833442" lon="9.0276706"><ele>726.0</ele><time>2026-05-01T11:12:32.461Z</time></trkpt><trkpt lat="35.3834246" lon="9.0275329"><ele>726.0</ele><time>2026-05-01T11:12:33.455Z</time></trkpt><trkpt lat="35.3835059" lon="9.0273901"><ele>726.0</ele><time>2026-05-01T11:12:34.471Z</time></trkpt><trkpt lat="35.3835933" lon="9.0272494"><ele>726.0</ele><time>2026-05-01T11:12:35.462Z</time></trkpt><trkpt lat="35.38368" lon="9.0271122"><ele>726.0</ele><time>2026-05-01T11:12:36.454Z</time></trkpt><trkpt lat="35.3837766" lon="9.026977"><ele>726.0</ele><time>2026-05-01T11:12:37.454Z</time></trkpt><trkpt lat="35.3838831" lon="9.0268483"><ele>726.0</ele><time>2026-05-01T11:12:38.457Z</time></trkpt><trkpt lat="35.3839982" lon="9.0267293"><ele>726.0</ele><time>2026-05-01T11:12:39.468Z</time></trkpt><trkpt lat="35.3841226" lon="9.026617"><ele>726.0</ele><time>2026-05-01T11:12:40.466Z</time></trkpt><trkpt lat="35.3842528" lon="9.0265087"><ele>727.0</ele><time>2026-05-01T11:12:41.467Z</time></trkpt><trkpt lat="35.3843868" lon="9.0263959"><ele>728.0</ele><time>2026-05-01T11:12:42.461Z</time></trkpt><trkpt lat="35.3845227" lon="9.0262829"><ele>729.0</ele><time>2026-05-01T11:12:43.474Z</time></trkpt><trkpt lat="35.3846626" lon="9.0261678"><ele>728.3333333333334</ele><time>2026-05-01T11:12:44.46Z</time></trkpt><trkpt lat="35.3848025" lon="9.0260519"><ele>727.6666666666667</ele><time>2026-05-01T11:12:45.463Z</time></trkpt><trkpt lat="35.3849388" lon="9.0259407"><ele>727.0</ele><time>2026-05-01T11:12:46.461Z</time></trkpt><trkpt lat="35.3850754" lon="9.0258286"><ele>728.6666666666667</ele><time>2026-05-01T11:12:47.453Z</time></trkpt><trkpt lat="35.385214" lon="9.0257156"><ele>730.3333333333334</ele><time>2026-05-01T11:12:48.47Z</time></trkpt><trkpt lat="35.3853577" lon="9.0256027"><ele>732.0</ele><time>2026-05-01T11:12:49.464Z</time></trkpt><trkpt lat="35.3855051" lon="9.0254923"><ele>730.6666666666666</ele><time>2026-05-01T11:12:50.443Z</time></trkpt><trkpt lat="35.3856529" lon="9.0253807"><ele>729.3333333333333</ele><time>2026-05-01T11:12:51.469Z</time></trkpt><trkpt lat="35.3857958" lon="9.0252664"><ele>728.0</ele><time>2026-05-01T11:12:52.438Z</time></trkpt><trkpt lat="35.3859391" lon="9.0251426"><ele>728.0</ele><time>2026-05-01T11:12:53.455Z</time></trkpt><trkpt lat="35.3860792" lon="9.025015"><ele>728.0</ele><time>2026-05-01T11:12:54.451Z</time></trkpt><trkpt lat="35.3862209" lon="9.0248833"><ele>728.0</ele><time>2026-05-01T11:12:55.47Z</time></trkpt><trkpt lat="35.3863622" lon="9.024749"><ele>728.0</ele><time>2026-05-01T11:12:56.457Z</time></trkpt><trkpt lat="35.3865024" lon="9.0246125"><ele>728.0</ele><time>2026-05-01T11:12:57.466Z</time></trkpt><trkpt lat="35.3866416" lon="9.0244724"><ele>728.0</ele><time>2026-05-01T11:12:58.47Z</time></trkpt><trkpt lat="35.3867772" lon="9.0243288"><ele>728.0</ele><time>2026-05-01T11:12:59.469Z</time></trkpt><trkpt lat="35.3869048" lon="9.0241797"><ele>728.0</ele><time>2026-05-01T11:13:00.456Z</time></trkpt><trkpt lat="35.3870314" lon="9.0240233"><ele>728.0</ele><time>2026-05-01T11:13:01.487Z</time></trkpt><trkpt lat="35.3871561" lon="9.0238618"><ele>728.0</ele><time>2026-05-01T11:13:02.466Z</time></trkpt><trkpt lat="35.3872794" lon="9.0236975"><ele>728.0</ele><time>2026-05-01T11:13:03.448Z</time></trkpt><trkpt lat="35.3874095" lon="9.023531"><ele>728.0</ele><time>2026-05-01T11:13:04.459Z</time></trkpt><trkpt lat="35.3875454" lon="9.0233622"><ele>729.0</ele><time>2026-05-01T11:13:05.47Z</time></trkpt><trkpt lat="35.3876827" lon="9.0232032"><ele>730.0</ele><time>2026-05-01T11:13:06.458Z</time></trkpt><trkpt lat="35.3878246" lon="9.0230481"><ele>731.0</ele><time>2026-05-01T11:13:07.469Z</time></trkpt><trkpt lat="35.3879699" lon="9.0228982"><ele>729.3333333333333</ele><time>2026-05-01T11:13:08.461Z</time></trkpt><trkpt lat="35.3881179" lon="9.022751"><ele>727.6666666666666</ele><time>2026-05-01T11:13:09.459Z</time></trkpt><trkpt lat="35.3882695" lon="9.0226037"><ele>726.0</ele><time>2026-05-01T11:13:10.469Z</time></trkpt><trkpt lat="35.3884247" lon="9.0224567"><ele>726.0</ele><time>2026-05-01T11:13:11.457Z</time></trkpt><trkpt lat="35.3885798" lon="9.0223086"><ele>726.0</ele><time>2026-05-01T11:13:12.461Z</time></trkpt><trkpt lat="35.3887358" lon="9.0221642"><ele>726.0</ele><time>2026-05-01T11:13:13.468Z</time></trkpt><trkpt lat="35.3888928" lon="9.0220219"><ele>725.3333333333334</ele><time>2026-05-01T11:13:14.47Z</time></trkpt><trkpt lat="35.3890518" lon="9.0218812"><ele>724.6666666666667</ele><time>2026-05-01T11:13:15.463Z</time></trkpt><trkpt lat="35.3892139" lon="9.021743"><ele>724.0</ele><time>2026-05-01T11:13:16.468Z</time></trkpt><trkpt lat="35.3893747" lon="9.02161"><ele>724.0</ele><time>2026-05-01T11:13:17.462Z</time></trkpt><trkpt lat="35.3895363" lon="9.0214826"><ele>724.0</ele><time>2026-05-01T11:13:18.473Z</time></trkpt><trkpt lat="35.3897" lon="9.0213586"><ele>724.0</ele><time>2026-05-01T11:13:19.473Z</time></trkpt><trkpt lat="35.389869" lon="9.0212424"><ele>725.3333333333334</ele><time>2026-05-01T11:13:20.457Z</time></trkpt><trkpt lat="35.390038" lon="9.0211333"><ele>726.6666666666666</ele><time>2026-05-01T11:13:21.464Z</time></trkpt><trkpt lat="35.3902125" lon="9.021029"><ele>728.0</ele><time>2026-05-01T11:13:22.462Z</time></trkpt><trkpt lat="35.3903865" lon="9.020932"><ele>729.6666666666666</ele><time>2026-05-01T11:13:23.473Z</time></trkpt><trkpt lat="35.3905635" lon="9.0208334"><ele>731.3333333333334</ele><time>2026-05-01T11:13:24.467Z</time></trkpt><trkpt lat="35.3907417" lon="9.0207301"><ele>733.0</ele><time>2026-05-01T11:13:25.46Z</time></trkpt><trkpt lat="35.3909163" lon="9.02062"><ele>733.3333333333334</ele><time>2026-05-01T11:13:26.465Z</time></trkpt><trkpt lat="35.3910858" lon="9.0204991"><ele>733.6666666666666</ele><time>2026-05-01T11:13:27.451Z</time></trkpt><trkpt lat="35.3912475" lon="9.0203659"><ele>734.0</ele><time>2026-05-01T11:13:28.455Z</time></trkpt><trkpt lat="35.3913998" lon="9.0202201"><ele>734.6666666666666</ele><time>2026-05-01T11:13:29.461Z</time></trkpt><trkpt lat="35.3915443" lon="9.0200612"><ele>735.3333333333334</ele><time>2026-05-01T11:13:30.459Z</time></trkpt><trkpt lat="35.3916815" lon="9.0198896"><ele>736.0</ele><time>2026-05-01T11:13:31.458Z</time></trkpt><trkpt lat="35.3918108" lon="9.0197067"><ele>736.6666666666667</ele><time>2026-05-01T11:13:32.475Z</time></trkpt><trkpt lat="35.391928" lon="9.019515"><ele>737.3333333333334</ele><time>2026-05-01T11:13:33.467Z</time></trkpt><trkpt lat="35.3920359" lon="9.0193146"><ele>738.0</ele><time>2026-05-01T11:13:34.462Z</time></trkpt><trkpt lat="35.39213" lon="9.0191047"><ele>738.6666666666666</ele><time>2026-05-01T11:13:35.46Z</time></trkpt><trkpt lat="35.3922131" lon="9.0188908"><ele>739.3333333333333</ele><time>2026-05-01T11:13:36.472Z</time></trkpt><trkpt lat="35.3922844" lon="9.0186689"><ele>740.0</ele><time>2026-05-01T11:13:37.443Z</time></trkpt><trkpt lat="35.3923475" lon="9.0184461"><ele>740.3333333333333</ele><time>2026-05-01T11:13:38.473Z</time></trkpt><trkpt lat="35.3924105" lon="9.0182178"><ele>740.6666666666666</ele><time>2026-05-01T11:13:39.451Z</time></trkpt><trkpt lat="35.3924795" lon="9.0179933"><ele>741.0</ele><time>2026-05-01T11:13:40.453Z</time></trkpt><trkpt lat="35.3925597" lon="9.0177748"><ele>741.0</ele><time>2026-05-01T11:13:41.457Z</time></trkpt><trkpt lat="35.3926509" lon="9.0175621"><ele>741.0</ele><time>2026-05-01T11:13:42.465Z</time></trkpt><trkpt lat="35.3927532" lon="9.0173613"><ele>741.0</ele><time>2026-05-01T11:13:43.472Z</time></trkpt><trkpt lat="35.3928665" lon="9.01717"><ele>741.6666666666666</ele><time>2026-05-01T11:13:44.474Z</time></trkpt><trkpt lat="35.3929884" lon="9.0169877"><ele>742.3333333333333</ele><time>2026-05-01T11:13:45.465Z</time></trkpt><trkpt lat="35.3931165" lon="9.0168095"><ele>743.0</ele><time>2026-05-01T11:13:46.455Z</time></trkpt><trkpt lat="35.3932479" lon="9.0166334"><ele>743.6666666666666</ele><time>2026-05-01T11:13:47.466Z</time></trkpt><trkpt lat="35.393381" lon="9.0164546"><ele>744.3333333333334</ele><time>2026-05-01T11:13:48.45Z</time></trkpt><trkpt lat="35.3935126" lon="9.0162796"><ele>745.0</ele><time>2026-05-01T11:13:49.494Z</time></trkpt><trkpt lat="35.3936453" lon="9.016106"><ele>745.0</ele><time>2026-05-01T11:13:50.454Z</time></trkpt><trkpt lat="35.3937796" lon="9.0159323"><ele>745.0</ele><time>2026-05-01T11:13:51.479Z</time></trkpt><trkpt lat="35.3939146" lon="9.0157601"><ele>745.0</ele><time>2026-05-01T11:13:52.458Z</time></trkpt><trkpt lat="35.3940503" lon="9.0155875"><ele>746.6666666666667</ele><time>2026-05-01T11:13:53.472Z</time></trkpt><trkpt lat="35.3941846" lon="9.0154146"><ele>748.3333333333334</ele><time>2026-05-01T11:13:54.485Z</time></trkpt><trkpt lat="35.3943189" lon="9.0152437"><ele>750.0</ele><time>2026-05-01T11:13:55.476Z</time></trkpt><trkpt lat="35.3944495" lon="9.0150747"><ele>750.3333333333334</ele><time>2026-05-01T11:13:56.468Z</time></trkpt><trkpt lat="35.3945823" lon="9.0149051"><ele>750.6666666666667</ele><time>2026-05-01T11:13:57.478Z</time></trkpt><trkpt lat="35.394712" lon="9.0147304"><ele>751.0</ele><time>2026-05-01T11:13:58.474Z</time></trkpt><trkpt lat="35.3948403" lon="9.014551"><ele>751.3333333333334</ele><time>2026-05-01T11:13:59.464Z</time></trkpt><trkpt lat="35.3949664" lon="9.0143665"><ele>751.6666666666666</ele><time>2026-05-01T11:14:00.478Z</time></trkpt><trkpt lat="35.395088" lon="9.0141801"><ele>752.0</ele><time>2026-05-01T11:14:01.465Z</time></trkpt><trkpt lat="35.3951976" lon="9.0140037"><ele>752.0</ele><time>2026-05-01T11:14:02.46Z</time></trkpt><trkpt lat="35.3953011" lon="9.0138325"><ele>752.0</ele><time>2026-05-01T11:14:03.513Z</time></trkpt><trkpt lat="35.3954023" lon="9.01367"><ele>752.0</ele><time>2026-05-01T11:14:04.467Z</time></trkpt><trkpt lat="35.3955011" lon="9.0135191"><ele>752.0</ele><time>2026-05-01T11:14:05.474Z</time></trkpt><trkpt lat="35.3955994" lon="9.0133756"><ele>752.0</ele><time>2026-05-01T11:14:06.466Z</time></trkpt><trkpt lat="35.395698" lon="9.0132419"><ele>752.0</ele><time>2026-05-01T11:14:07.466Z</time></trkpt><trkpt lat="35.3957998" lon="9.0131161"><ele>752.0</ele><time>2026-05-01T11:14:08.455Z</time></trkpt><trkpt lat="35.3959071" lon="9.0129994"><ele>752.0</ele><time>2026-05-01T11:14:09.46Z</time></trkpt><trkpt lat="35.3960198" lon="9.01289"><ele>752.0</ele><time>2026-05-01T11:14:10.462Z</time></trkpt><trkpt lat="35.3961389" lon="9.0127835"><ele>752.0</ele><time>2026-05-01T11:14:11.46Z</time></trkpt><trkpt lat="35.396261" lon="9.0126772"><ele>752.0</ele><time>2026-05-01T11:14:12.451Z</time></trkpt><trkpt lat="35.396385" lon="9.0125701"><ele>751.6666666666666</ele><time>2026-05-01T11:14:13.463Z</time></trkpt><trkpt lat="35.3965111" lon="9.0124639"><ele>751.3333333333334</ele><time>2026-05-01T11:14:14.456Z</time></trkpt><trkpt lat="35.3966379" lon="9.012359"><ele>751.0</ele><time>2026-05-01T11:14:15.454Z</time></trkpt><trkpt lat="35.3967645" lon="9.0122528"><ele>751.0</ele><time>2026-05-01T11:14:16.456Z</time></trkpt><trkpt lat="35.3968925" lon="9.0121494"><ele>751.0</ele><time>2026-05-01T11:14:17.468Z</time></trkpt><trkpt lat="35.3970156" lon="9.012045"><ele>751.0</ele><time>2026-05-01T11:14:18.449Z</time></trkpt><trkpt lat="35.3971411" lon="9.0119387"><ele>751.25</ele><time>2026-05-01T11:14:19.461Z</time></trkpt><trkpt lat="35.3972598" lon="9.0118361"><ele>751.5</ele><time>2026-05-01T11:14:20.462Z</time></trkpt><trkpt lat="35.3973725" lon="9.0117381"><ele>751.75</ele><time>2026-05-01T11:14:21.465Z</time></trkpt><trkpt lat="35.3974715" lon="9.011647"><ele>752.0</ele><time>2026-05-01T11:14:22.47Z</time></trkpt><trkpt lat="35.3975603" lon="9.011562"><ele>752.0</ele><time>2026-05-01T11:14:23.471Z</time></trkpt><trkpt lat="35.3976442" lon="9.0114769"><ele>752.0</ele><time>2026-05-01T11:14:24.483Z</time></trkpt><trkpt lat="35.397722" lon="9.0113903"><ele>752.0</ele><time>2026-05-01T11:14:25.47Z</time></trkpt><trkpt lat="35.3977934" lon="9.0113117"><ele>752.0</ele><time>2026-05-01T11:14:26.476Z</time></trkpt><trkpt lat="35.3978626" lon="9.0112274"><ele>752.0</ele><time>2026-05-01T11:14:27.467Z</time></trkpt><trkpt lat="35.3979242" lon="9.0111412"><ele>752.0</ele><time>2026-05-01T11:14:28.467Z</time></trkpt><trkpt lat="35.3979873" lon="9.0110508"><ele>752.0</ele><time>2026-05-01T11:14:29.471Z</time></trkpt><trkpt lat="35.3980496" lon="9.0109541"><ele>752.0</ele><time>2026-05-01T11:14:30.471Z</time></trkpt><trkpt lat="35.398109" lon="9.0108518"><ele>752.0</ele><time>2026-05-01T11:14:31.477Z</time></trkpt><trkpt lat="35.3981599" lon="9.0107457"><ele>752.0</ele><time>2026-05-01T11:14:32.472Z</time></trkpt><trkpt lat="35.3982025" lon="9.010632"><ele>752.8</ele><time>2026-05-01T11:14:33.474Z</time></trkpt><trkpt lat="35.3982378" lon="9.0105134"><ele>753.6</ele><time>2026-05-01T11:14:34.49Z</time></trkpt><trkpt lat="35.3982681" lon="9.0103862"><ele>754.4</ele><time>2026-05-01T11:14:35.48Z</time></trkpt><trkpt lat="35.398298" lon="9.0102534"><ele>755.1999999999999</ele><time>2026-05-01T11:14:36.472Z</time></trkpt><trkpt lat="35.3983272" lon="9.0101214"><ele>756.0</ele><time>2026-05-01T11:14:37.461Z</time></trkpt><trkpt lat="35.398358" lon="9.0099911"><ele>756.8</ele><time>2026-05-01T11:14:38.452Z</time></trkpt><trkpt lat="35.3983909" lon="9.0098601"><ele>757.5999999999999</ele><time>2026-05-01T11:14:39.457Z</time></trkpt><trkpt lat="35.3984225" lon="9.0097323"><ele>758.4</ele><time>2026-05-01T11:14:40.451Z</time></trkpt><trkpt lat="35.3984539" lon="9.0096026"><ele>759.2</ele><time>2026-05-01T11:14:41.449Z</time></trkpt><trkpt lat="35.398489" lon="9.0094724"><ele>760.0</ele><time>2026-05-01T11:14:42.449Z</time></trkpt><trkpt lat="35.3985247" lon="9.0093407"><ele>760.0</ele><time>2026-05-01T11:14:43.454Z</time></trkpt><trkpt lat="35.3985631" lon="9.009202"><ele>760.0</ele><time>2026-05-01T11:14:44.474Z</time></trkpt><trkpt lat="35.3986048" lon="9.0090549"><ele>760.0</ele><time>2026-05-01T11:14:45.47Z</time></trkpt><trkpt lat="35.3986485" lon="9.0089003"><ele>760.0</ele><time>2026-05-01T11:14:46.46Z</time></trkpt><trkpt lat="35.3986912" lon="9.00874"><ele>760.0</ele><time>2026-05-01T11:14:47.46Z</time></trkpt><trkpt lat="35.3987395" lon="9.0085772"><ele>760.0</ele><time>2026-05-01T11:14:48.466Z</time></trkpt><trkpt lat="35.3987939" lon="9.0084091"><ele>760.0</ele><time>2026-05-01T11:14:49.466Z</time></trkpt><trkpt lat="35.3988496" lon="9.0082414"><ele>760.0</ele><time>2026-05-01T11:14:50.468Z</time></trkpt><trkpt lat="35.3989075" lon="9.0080718"><ele>760.0</ele><time>2026-05-01T11:14:51.462Z</time></trkpt><trkpt lat="35.3989694" lon="9.0079006"><ele>760.0</ele><time>2026-05-01T11:14:52.466Z</time></trkpt><trkpt lat="35.3990356" lon="9.0077256"><ele>760.0</ele><time>2026-05-01T11:14:53.456Z</time></trkpt><trkpt lat="35.3991053" lon="9.0075526"><ele>759.6666666666667</ele><time>2026-05-01T11:14:54.451Z</time></trkpt><trkpt lat="35.3991785" lon="9.0073812"><ele>759.3333333333334</ele><time>2026-05-01T11:14:55.466Z</time></trkpt><trkpt lat="35.3992562" lon="9.0072114"><ele>759.0</ele><time>2026-05-01T11:14:56.456Z</time></trkpt><trkpt lat="35.3993384" lon="9.0070441"><ele>759.0</ele><time>2026-05-01T11:14:57.466Z</time></trkpt><trkpt lat="35.3994229" lon="9.0068765"><ele>759.0</ele><time>2026-05-01T11:14:58.497Z</time></trkpt><trkpt lat="35.3995085" lon="9.0067121"><ele>759.0</ele><time>2026-05-01T11:14:59.445Z</time></trkpt><trkpt lat="35.399593" lon="9.006552"><ele>759.6666666666666</ele><time>2026-05-01T11:15:00.467Z</time></trkpt><trkpt lat="35.3996748" lon="9.0063934"><ele>760.3333333333333</ele><time>2026-05-01T11:15:01.431Z</time></trkpt><trkpt lat="35.399756" lon="9.0062362"><ele>761.0</ele><time>2026-05-01T11:15:02.493Z</time></trkpt><trkpt lat="35.3998382" lon="9.0060781"><ele>761.0</ele><time>2026-05-01T11:15:03.506Z</time></trkpt><trkpt lat="35.3999189" lon="9.0059193"><ele>761.0</ele><time>2026-05-01T11:15:04.494Z</time></trkpt><trkpt lat="35.3999965" lon="9.0057601"><ele>761.0</ele><time>2026-05-01T11:15:05.456Z</time></trkpt><trkpt lat="35.4000726" lon="9.0056036"><ele>761.0</ele><time>2026-05-01T11:15:06.453Z</time></trkpt><trkpt lat="35.4001434" lon="9.0054499"><ele>761.0</ele><time>2026-05-01T11:15:07.48Z</time></trkpt><trkpt lat="35.4002131" lon="9.0052961"><ele>761.0</ele><time>2026-05-01T11:15:08.485Z</time></trkpt><trkpt lat="35.4002783" lon="9.0051418"><ele>761.0</ele><time>2026-05-01T11:15:09.501Z</time></trkpt><trkpt lat="35.4003419" lon="9.0049853"><ele>761.0</ele><time>2026-05-01T11:15:10.508Z</time></trkpt><trkpt lat="35.4004058" lon="9.0048308"><ele>761.0</ele><time>2026-05-01T11:15:11.472Z</time></trkpt><trkpt lat="35.4004707" lon="9.0046736"><ele>761.0</ele><time>2026-05-01T11:15:12.507Z</time></trkpt><trkpt lat="35.4005347" lon="9.0045156"><ele>761.0</ele><time>2026-05-01T11:15:13.489Z</time></trkpt><trkpt lat="35.4005986" lon="9.0043614"><ele>761.25</ele><time>2026-05-01T11:15:14.479Z</time></trkpt><trkpt lat="35.4006642" lon="9.0042115"><ele>761.5</ele><time>2026-05-01T11:15:15.5Z</time></trkpt><trkpt lat="35.4007253" lon="9.0040678"><ele>761.75</ele><time>2026-05-01T11:15:16.474Z</time></trkpt><trkpt lat="35.4007849" lon="9.0039268"><ele>762.0</ele><time>2026-05-01T11:15:17.504Z</time></trkpt><trkpt lat="35.4008443" lon="9.0037867"><ele>762.25</ele><time>2026-05-01T11:15:18.455Z</time></trkpt><trkpt lat="35.4009002" lon="9.0036503"><ele>762.5</ele><time>2026-05-01T11:15:19.502Z</time></trkpt><trkpt lat="35.4009527" lon="9.0035153"><ele>762.75</ele><time>2026-05-01T11:15:20.5Z</time></trkpt><trkpt lat="35.4010067" lon="9.0033814"><ele>763.0</ele><time>2026-05-01T11:15:21.496Z</time></trkpt><trkpt lat="35.4010622" lon="9.0032503"><ele>763.5999999999999</ele><time>2026-05-01T11:15:22.504Z</time></trkpt><trkpt lat="35.401115" lon="9.0031248"><ele>764.1999999999999</ele><time>2026-05-01T11:15:23.507Z</time></trkpt><trkpt lat="35.4011633" lon="9.0030076"><ele>764.8</ele><time>2026-05-01T11:15:24.495Z</time></trkpt><trkpt lat="35.40121" lon="9.0028936"><ele>765.4</ele><time>2026-05-01T11:15:25.501Z</time></trkpt><trkpt lat="35.401263" lon="9.0027673"><ele>766.0</ele><time>2026-05-01T11:15:26.505Z</time></trkpt><trkpt lat="35.4013167" lon="9.0026367"><ele>766.25</ele><time>2026-05-01T11:15:27.48Z</time></trkpt><trkpt lat="35.4013727" lon="9.0025034"><ele>766.5</ele><time>2026-05-01T11:15:28.45Z</time></trkpt><trkpt lat="35.4014258" lon="9.0023717"><ele>766.75</ele><time>2026-05-01T11:15:29.504Z</time></trkpt><trkpt lat="35.401479" lon="9.002242"><ele>767.0</ele><time>2026-05-01T11:15:30.501Z</time></trkpt><trkpt lat="35.401532" lon="9.0021161"><ele>767.5</ele><time>2026-05-01T11:15:31.51Z</time></trkpt><trkpt lat="35.4015878" lon="9.0019887"><ele>768.0</ele><time>2026-05-01T11:15:32.5Z</time></trkpt><trkpt lat="35.4016435" lon="9.0018602"><ele>768.5</ele><time>2026-05-01T11:15:33.503Z</time></trkpt><trkpt lat="35.4016982" lon="9.0017295"><ele>769.0</ele><time>2026-05-01T11:15:34.504Z</time></trkpt><trkpt lat="35.4017536" lon="9.0015977"><ele>769.0</ele><time>2026-05-01T11:15:35.515Z</time></trkpt><trkpt lat="35.4018085" lon="9.0014672"><ele>769.0</ele><time>2026-05-01T11:15:36.497Z</time></trkpt><trkpt lat="35.401864" lon="9.0013364"><ele>769.0</ele><time>2026-05-01T11:15:37.469Z</time></trkpt><trkpt lat="35.4019198" lon="9.0012088"><ele>769.0</ele><time>2026-05-01T11:15:38.448Z</time></trkpt><trkpt lat="35.4019765" lon="9.0010791"><ele>769.0</ele><time>2026-05-01T11:15:39.461Z</time></trkpt><trkpt lat="35.4020344" lon="9.0009467"><ele>769.0</ele><time>2026-05-01T11:15:40.523Z</time></trkpt><trkpt lat="35.4020904" lon="9.0008118"><ele>769.0</ele><time>2026-05-01T11:15:41.503Z</time></trkpt><trkpt lat="35.4021451" lon="9.0006789"><ele>769.0</ele><time>2026-05-01T11:15:42.457Z</time></trkpt><trkpt lat="35.402205" lon="9.000546"><ele>770.25</ele><time>2026-05-01T11:15:43.5Z</time></trkpt><trkpt lat="35.402264" lon="9.0004105"><ele>771.5</ele><time>2026-05-01T11:15:44.463Z</time></trkpt><trkpt lat="35.4023206" lon="9.0002734"><ele>772.75</ele><time>2026-05-01T11:15:45.468Z</time></trkpt><trkpt lat="35.4023778" lon="9.0001322"><ele>774.0</ele><time>2026-05-01T11:15:46.479Z</time></trkpt><trkpt lat="35.402433" lon="8.9999908"><ele>774.0</ele><time>2026-05-01T11:15:47.48Z</time></trkpt><trkpt lat="35.4024844" lon="8.9998478"><ele>774.0</ele><time>2026-05-01T11:15:48.481Z</time></trkpt><trkpt lat="35.4025303" lon="8.9997058"><ele>774.0</ele><time>2026-05-01T11:15:49.506Z</time></trkpt><trkpt lat="35.4025669" lon="8.9995645"><ele>774.0</ele><time>2026-05-01T11:15:50.485Z</time></trkpt><trkpt lat="35.4025933" lon="8.9994269"><ele>774.0</ele><time>2026-05-01T11:15:51.489Z</time></trkpt><trkpt lat="35.40261" lon="8.9992904"><ele>774.0</ele><time>2026-05-01T11:15:52.46Z</time></trkpt><trkpt lat="35.4026188" lon="8.9991544"><ele>774.0</ele><time>2026-05-01T11:15:53.489Z</time></trkpt><trkpt lat="35.4026231" lon="8.9990148"><ele>774.0</ele><time>2026-05-01T11:15:54.502Z</time></trkpt><trkpt lat="35.4026267" lon="8.9988734"><ele>774.4000000000001</ele><time>2026-05-01T11:15:55.506Z</time></trkpt><trkpt lat="35.4026315" lon="8.9987378"><ele>774.8</ele><time>2026-05-01T11:15:56.502Z</time></trkpt><trkpt lat="35.4026408" lon="8.9986025"><ele>775.2</ele><time>2026-05-01T11:15:57.47Z</time></trkpt><trkpt lat="35.4026513" lon="8.9984722"><ele>775.5999999999999</ele><time>2026-05-01T11:15:58.484Z</time></trkpt><trkpt lat="35.4026626" lon="8.9983417"><ele>776.0</ele><time>2026-05-01T11:15:59.504Z</time></trkpt><trkpt lat="35.402674" lon="8.9982141"><ele>776.1999999999999</ele><time>2026-05-01T11:16:00.499Z</time></trkpt><trkpt lat="35.4026894" lon="8.9980881"><ele>776.4</ele><time>2026-05-01T11:16:01.498Z</time></trkpt><trkpt lat="35.4027102" lon="8.9979622"><ele>776.6</ele><time>2026-05-01T11:16:02.492Z</time></trkpt><trkpt lat="35.4027352" lon="8.9978362"><ele>776.8</ele><time>2026-05-01T11:16:03.509Z</time></trkpt><trkpt lat="35.4027673" lon="8.997712"><ele>777.0</ele><time>2026-05-01T11:16:04.507Z</time></trkpt><trkpt lat="35.4028105" lon="8.9975877"><ele>777.25</ele><time>2026-05-01T11:16:05.493Z</time></trkpt><trkpt lat="35.4028639" lon="8.997468"><ele>777.5</ele><time>2026-05-01T11:16:06.505Z</time></trkpt><trkpt lat="35.4029235" lon="8.9973515"><ele>777.75</ele><time>2026-05-01T11:16:07.499Z</time></trkpt><trkpt lat="35.4029866" lon="8.9972354"><ele>778.0</ele><time>2026-05-01T11:16:08.514Z</time></trkpt><trkpt lat="35.4030535" lon="8.997121"><ele>778.0</ele><time>2026-05-01T11:16:09.504Z</time></trkpt><trkpt lat="35.4031245" lon="8.9970059"><ele>778.0</ele><time>2026-05-01T11:16:10.507Z</time></trkpt><trkpt lat="35.4031986" lon="8.9968923"><ele>778.0</ele><time>2026-05-01T11:16:11.506Z</time></trkpt><trkpt lat="35.4032808" lon="8.9967739"><ele>778.0</ele><time>2026-05-01T11:16:12.477Z</time></trkpt><trkpt lat="35.4033664" lon="8.9966541"><ele>778.5</ele><time>2026-05-01T11:16:13.515Z</time></trkpt><trkpt lat="35.4034553" lon="8.9965351"><ele>779.0</ele><time>2026-05-01T11:16:14.505Z</time></trkpt><trkpt lat="35.4035467" lon="8.9964161"><ele>779.5</ele><time>2026-05-01T11:16:15.443Z</time></trkpt><trkpt lat="35.4036376" lon="8.996293"><ele>780.0</ele><time>2026-05-01T11:16:16.503Z</time></trkpt><trkpt lat="35.4037298" lon="8.9961675"><ele>780.0</ele><time>2026-05-01T11:16:17.505Z</time></trkpt><trkpt lat="35.4038254" lon="8.9960438"><ele>780.0</ele><time>2026-05-01T11:16:18.486Z</time></trkpt><trkpt lat="35.4039173" lon="8.9959215"><ele>780.0</ele><time>2026-05-01T11:16:19.509Z</time></trkpt><trkpt lat="35.4040086" lon="8.9957971"><ele>780.0</ele><time>2026-05-01T11:16:20.499Z</time></trkpt><trkpt lat="35.4040943" lon="8.9956709"><ele>781.25</ele><time>2026-05-01T11:16:21.506Z</time></trkpt><trkpt lat="35.4041769" lon="8.9955402"><ele>782.5</ele><time>2026-05-01T11:16:22.504Z</time></trkpt><trkpt lat="35.4042535" lon="8.9954109"><ele>783.75</ele><time>2026-05-01T11:16:23.463Z</time></trkpt><trkpt lat="35.4043236" lon="8.9952799"><ele>785.0</ele><time>2026-05-01T11:16:24.508Z</time></trkpt><trkpt lat="35.4043882" lon="8.9951479"><ele>785.0</ele><time>2026-05-01T11:16:25.503Z</time></trkpt><trkpt lat="35.404446" lon="8.9950127"><ele>785.0</ele><time>2026-05-01T11:16:26.497Z</time></trkpt><trkpt lat="35.4044985" lon="8.9948754"><ele>785.0</ele><time>2026-05-01T11:16:27.5Z</time></trkpt><trkpt lat="35.4045501" lon="8.9947333"><ele>785.0</ele><time>2026-05-01T11:16:28.497Z</time></trkpt><trkpt lat="35.4045959" lon="8.9945856"><ele>785.75</ele><time>2026-05-01T11:16:29.496Z</time></trkpt><trkpt lat="35.404641" lon="8.9944331"><ele>786.5</ele><time>2026-05-01T11:16:30.482Z</time></trkpt><trkpt lat="35.4046853" lon="8.9942755"><ele>787.25</ele><time>2026-05-01T11:16:31.478Z</time></trkpt><trkpt lat="35.4047319" lon="8.994113"><ele>788.0</ele><time>2026-05-01T11:16:32.497Z</time></trkpt><trkpt lat="35.4047795" lon="8.9939482"><ele>788.5</ele><time>2026-05-01T11:16:33.512Z</time></trkpt><trkpt lat="35.4048257" lon="8.9937823"><ele>789.0</ele><time>2026-05-01T11:16:34.494Z</time></trkpt><trkpt lat="35.4048743" lon="8.9936163"><ele>789.5</ele><time>2026-05-01T11:16:35.5Z</time></trkpt><trkpt lat="35.4049204" lon="8.9934524"><ele>790.0</ele><time>2026-05-01T11:16:36.493Z</time></trkpt><trkpt lat="35.4049634" lon="8.9932898"><ele>790.75</ele><time>2026-05-01T11:16:37.464Z</time></trkpt><trkpt lat="35.4050048" lon="8.9931277"><ele>791.5</ele><time>2026-05-01T11:16:38.5Z</time></trkpt><trkpt lat="35.4050444" lon="8.992968"><ele>792.25</ele><time>2026-05-01T11:16:39.457Z</time></trkpt><trkpt lat="35.4050826" lon="8.9928067"><ele>793.0</ele><time>2026-05-01T11:16:40.488Z</time></trkpt><trkpt lat="35.405117" lon="8.992647"><ele>794.0</ele><time>2026-05-01T11:16:41.446Z</time></trkpt><trkpt lat="35.4051522" lon="8.9924857"><ele>795.0</ele><time>2026-05-01T11:16:42.51Z</time></trkpt><trkpt lat="35.4051829" lon="8.992323"><ele>796.0</ele><time>2026-05-01T11:16:43.514Z</time></trkpt><trkpt lat="35.4052132" lon="8.99216"><ele>797.0</ele><time>2026-05-01T11:16:44.489Z</time></trkpt><trkpt lat="35.4052409" lon="8.9919958"><ele>797.0</ele><time>2026-05-01T11:16:45.524Z</time></trkpt><trkpt lat="35.4052662" lon="8.9918338"><ele>797.0</ele><time>2026-05-01T11:16:46.468Z</time></trkpt><trkpt lat="35.4052874" lon="8.9916731"><ele>797.0</ele><time>2026-05-01T11:16:47.52Z</time></trkpt><trkpt lat="35.4053111" lon="8.9915156"><ele>797.0</ele><time>2026-05-01T11:16:48.509Z</time></trkpt><trkpt lat="35.4053371" lon="8.9913571"><ele>797.75</ele><time>2026-05-01T11:16:49.49Z</time></trkpt><trkpt lat="35.4053637" lon="8.991198"><ele>798.5</ele><time>2026-05-01T11:16:50.509Z</time></trkpt><trkpt lat="35.4053848" lon="8.991055"><ele>799.25</ele><time>2026-05-01T11:16:51.46Z</time></trkpt><trkpt lat="35.4054079" lon="8.9909132"><ele>800.0</ele><time>2026-05-01T11:16:52.479Z</time></trkpt><trkpt lat="35.4054327" lon="8.9907724"><ele>800.5</ele><time>2026-05-01T11:16:53.474Z</time></trkpt><trkpt lat="35.4054563" lon="8.9906323"><ele>801.0</ele><time>2026-05-01T11:16:54.505Z</time></trkpt><trkpt lat="35.4054789" lon="8.9904923"><ele>801.5</ele><time>2026-05-01T11:16:55.514Z</time></trkpt><trkpt lat="35.4055009" lon="8.9903519"><ele>802.0</ele><time>2026-05-01T11:16:56.5Z</time></trkpt><trkpt lat="35.4055239" lon="8.9902117"><ele>802.0</ele><time>2026-05-01T11:16:57.502Z</time></trkpt><trkpt lat="35.4055475" lon="8.9900744"><ele>802.0</ele><time>2026-05-01T11:16:58.505Z</time></trkpt><trkpt lat="35.4055686" lon="8.9899342"><ele>802.0</ele><time>2026-05-01T11:16:59.469Z</time></trkpt><trkpt lat="35.4055905" lon="8.989791"><ele>802.0</ele><time>2026-05-01T11:17:00.513Z</time></trkpt><trkpt lat="35.4056106" lon="8.989649"><ele>803.0</ele><time>2026-05-01T11:17:01.471Z</time></trkpt><trkpt lat="35.4056323" lon="8.9895078"><ele>804.0</ele><time>2026-05-01T11:17:02.504Z</time></trkpt><trkpt lat="35.4056583" lon="8.9893704"><ele>805.0</ele><time>2026-05-01T11:17:03.514Z</time></trkpt><trkpt lat="35.4056869" lon="8.9892322"><ele>806.0</ele><time>2026-05-01T11:17:04.457Z</time></trkpt><trkpt lat="35.4057214" lon="8.9890955"><ele>806.5</ele><time>2026-05-01T11:17:05.486Z</time></trkpt><trkpt lat="35.4057562" lon="8.9889646"><ele>807.0</ele><time>2026-05-01T11:17:06.497Z</time></trkpt><trkpt lat="35.4057942" lon="8.9888332"><ele>807.5</ele><time>2026-05-01T11:17:07.504Z</time></trkpt><trkpt lat="35.4058363" lon="8.9887028"><ele>808.0</ele><time>2026-05-01T11:17:08.51Z</time></trkpt><trkpt lat="35.4058827" lon="8.9885753"><ele>808.0</ele><time>2026-05-01T11:17:09.491Z</time></trkpt><trkpt lat="35.4059375" lon="8.9884509"><ele>808.0</ele><time>2026-05-01T11:17:10.499Z</time></trkpt><trkpt lat="35.405996" lon="8.9883349"><ele>808.0</ele><time>2026-05-01T11:17:11.505Z</time></trkpt><trkpt lat="35.4060558" lon="8.988227"><ele>808.0</ele><time>2026-05-01T11:17:12.508Z</time></trkpt><trkpt lat="35.4061171" lon="8.9881242"><ele>808.0</ele><time>2026-05-01T11:17:13.489Z</time></trkpt><trkpt lat="35.4061826" lon="8.9880297"><ele>807.8</ele><time>2026-05-01T11:17:14.505Z</time></trkpt><trkpt lat="35.4062494" lon="8.9879351"><ele>807.5999999999999</ele><time>2026-05-01T11:17:15.507Z</time></trkpt><trkpt lat="35.4063162" lon="8.9878402"><ele>807.4000000000001</ele><time>2026-05-01T11:17:16.502Z</time></trkpt><trkpt lat="35.4063833" lon="8.9877476"><ele>807.2</ele><time>2026-05-01T11:17:17.5Z</time></trkpt><trkpt lat="35.4064514" lon="8.9876604"><ele>807.0</ele><time>2026-05-01T11:17:18.491Z</time></trkpt><trkpt lat="35.4065211" lon="8.9875713"><ele>807.6</ele><time>2026-05-01T11:17:19.49Z</time></trkpt><trkpt lat="35.4065916" lon="8.9874807"><ele>808.2</ele><time>2026-05-01T11:17:20.516Z</time></trkpt><trkpt lat="35.4066615" lon="8.987387"><ele>808.8</ele><time>2026-05-01T11:17:21.502Z</time></trkpt><trkpt lat="35.4067327" lon="8.9872898"><ele>809.4</ele><time>2026-05-01T11:17:22.506Z</time></trkpt><trkpt lat="35.4068047" lon="8.9871943"><ele>810.0</ele><time>2026-05-01T11:17:23.5Z</time></trkpt><trkpt lat="35.4068763" lon="8.9870957"><ele>810.0</ele><time>2026-05-01T11:17:24.506Z</time></trkpt><trkpt lat="35.4069463" lon="8.9869946"><ele>810.0</ele><time>2026-05-01T11:17:25.504Z</time></trkpt><trkpt lat="35.4070122" lon="8.986888"><ele>810.0</ele><time>2026-05-01T11:17:26.513Z</time></trkpt><trkpt lat="35.4070709" lon="8.9867789"><ele>810.0</ele><time>2026-05-01T11:17:27.502Z</time></trkpt><trkpt lat="35.4071247" lon="8.9866688"><ele>810.0</ele><time>2026-05-01T11:17:28.502Z</time></trkpt><trkpt lat="35.4071741" lon="8.9865558"><ele>810.6</ele><time>2026-05-01T11:17:29.513Z</time></trkpt><trkpt lat="35.4072183" lon="8.9864411"><ele>811.2</ele><time>2026-05-01T11:17:30.511Z</time></trkpt><trkpt lat="35.4072578" lon="8.9863306"><ele>811.8</ele><time>2026-05-01T11:17:31.501Z</time></trkpt><trkpt lat="35.4072872" lon="8.9862293"><ele>812.4</ele><time>2026-05-01T11:17:32.507Z</time></trkpt><trkpt lat="35.4073204" lon="8.9861275"><ele>813.0</ele><time>2026-05-01T11:17:33.508Z</time></trkpt><trkpt lat="35.4073518" lon="8.9860278"><ele>813.0</ele><time>2026-05-01T11:17:34.505Z</time></trkpt><trkpt lat="35.4073812" lon="8.9859283"><ele>813.0</ele><time>2026-05-01T11:17:35.498Z</time></trkpt><trkpt lat="35.4074103" lon="8.985827"><ele>813.0</ele><time>2026-05-01T11:17:36.506Z</time></trkpt><trkpt lat="35.4074359" lon="8.9857239"><ele>813.0</ele><time>2026-05-01T11:17:37.507Z</time></trkpt><trkpt lat="35.4074603" lon="8.9856144"><ele>813.0</ele><time>2026-05-01T11:17:38.495Z</time></trkpt><trkpt lat="35.4074779" lon="8.9855017"><ele>813.0</ele><time>2026-05-01T11:17:39.484Z</time></trkpt><trkpt lat="35.407497" lon="8.9853882"><ele>813.2</ele><time>2026-05-01T11:17:40.516Z</time></trkpt><trkpt lat="35.4075183" lon="8.985268"><ele>813.4</ele><time>2026-05-01T11:17:41.47Z</time></trkpt><trkpt lat="35.4075379" lon="8.98515"><ele>813.6</ele><time>2026-05-01T11:17:42.486Z</time></trkpt><trkpt lat="35.4075573" lon="8.9850363"><ele>813.8000000000001</ele><time>2026-05-01T11:17:43.505Z</time></trkpt><trkpt lat="35.4075751" lon="8.984921"><ele>814.0</ele><time>2026-05-01T11:17:44.511Z</time></trkpt><trkpt lat="35.4075954" lon="8.9848056"><ele>814.2</ele><time>2026-05-01T11:17:45.488Z</time></trkpt><trkpt lat="35.4076158" lon="8.9846896"><ele>814.4000000000001</ele><time>2026-05-01T11:17:46.516Z</time></trkpt><trkpt lat="35.407637" lon="8.9845724"><ele>814.6</ele><time>2026-05-01T11:17:47.509Z</time></trkpt><trkpt lat="35.4076564" lon="8.9844542"><ele>814.8</ele><time>2026-05-01T11:17:48.5Z</time></trkpt><trkpt lat="35.4076742" lon="8.9843375"><ele>815.0</ele><time>2026-05-01T11:17:49.504Z</time></trkpt><trkpt lat="35.4077" lon="8.9842074"><ele>816.3333333333334</ele><time>2026-05-01T11:17:50.484Z</time></trkpt><trkpt lat="35.4077334" lon="8.9840365"><ele>817.6666666666667</ele><time>2026-05-01T11:17:51.503Z</time></trkpt><trkpt lat="35.4077727" lon="8.9838282"><ele>819.0</ele><time>2026-05-01T11:17:52.5Z</time></trkpt><trkpt lat="35.4078122" lon="8.9836292"><ele>819.0</ele><time>2026-05-01T11:17:53.493Z</time></trkpt><trkpt lat="35.4078428" lon="8.9834567"><ele>819.0</ele><time>2026-05-01T11:17:54.489Z</time></trkpt><trkpt lat="35.4078688" lon="8.9833073"><ele>819.0</ele><time>2026-05-01T11:17:55.493Z</time></trkpt><trkpt lat="35.4078942" lon="8.9831721"><ele>819.0</ele><time>2026-05-01T11:17:56.492Z</time></trkpt><trkpt lat="35.4079173" lon="8.9830525"><ele>819.8000000000001</ele><time>2026-05-01T11:17:57.485Z</time></trkpt><trkpt lat="35.4079452" lon="8.9829335"><ele>820.6</ele><time>2026-05-01T11:17:58.503Z</time></trkpt><trkpt lat="35.4079744" lon="8.9828197"><ele>821.4</ele><time>2026-05-01T11:17:59.468Z</time></trkpt><trkpt lat="35.4080068" lon="8.9827075"><ele>822.2</ele><time>2026-05-01T11:18:00.503Z</time></trkpt><trkpt lat="35.4080438" lon="8.9825919"><ele>823.0</ele><time>2026-05-01T11:18:01.491Z</time></trkpt><trkpt lat="35.4080867" lon="8.9824786"><ele>823.5999999999999</ele><time>2026-05-01T11:18:02.511Z</time></trkpt><trkpt lat="35.4081355" lon="8.9823701"><ele>824.1999999999999</ele><time>2026-05-01T11:18:03.495Z</time></trkpt><trkpt lat="35.4081855" lon="8.9822625"><ele>824.8</ele><time>2026-05-01T11:18:04.501Z</time></trkpt><trkpt lat="35.4082416" lon="8.982149"><ele>825.4</ele><time>2026-05-01T11:18:05.497Z</time></trkpt><trkpt lat="35.4082945" lon="8.9820367"><ele>826.0</ele><time>2026-05-01T11:18:06.502Z</time></trkpt><trkpt lat="35.4083454" lon="8.9819195"><ele>826.0</ele><time>2026-05-01T11:18:07.508Z</time></trkpt><trkpt lat="35.4084028" lon="8.981803"><ele>826.0</ele><time>2026-05-01T11:18:08.508Z</time></trkpt><trkpt lat="35.4084586" lon="8.9816835"><ele>826.0</ele><time>2026-05-01T11:18:09.468Z</time></trkpt><trkpt lat="35.4085144" lon="8.981563"><ele>826.0</ele><time>2026-05-01T11:18:10.503Z</time></trkpt><trkpt lat="35.408568" lon="8.9814439"><ele>826.0</ele><time>2026-05-01T11:18:11.465Z</time></trkpt><trkpt lat="35.408618" lon="8.9813282"><ele>826.4</ele><time>2026-05-01T11:18:12.449Z</time></trkpt><trkpt lat="35.4086642" lon="8.9812215"><ele>826.8</ele><time>2026-05-01T11:18:13.488Z</time></trkpt><trkpt lat="35.408713" lon="8.9811099"><ele>827.1999999999999</ele><time>2026-05-01T11:18:14.497Z</time></trkpt><trkpt lat="35.4087612" lon="8.9809934"><ele>827.5999999999999</ele><time>2026-05-01T11:18:15.454Z</time></trkpt><trkpt lat="35.4088184" lon="8.9808663"><ele>828.0</ele><time>2026-05-01T11:18:16.507Z</time></trkpt><trkpt lat="35.4088729" lon="8.9807503"><ele>828.8</ele><time>2026-05-01T11:18:17.432Z</time></trkpt><trkpt lat="35.408929" lon="8.9806332"><ele>829.5999999999999</ele><time>2026-05-01T11:18:18.44Z</time></trkpt><trkpt lat="35.4089871" lon="8.9805103"><ele>830.4000000000001</ele><time>2026-05-01T11:18:19.466Z</time></trkpt><trkpt lat="35.4090425" lon="8.9803967"><ele>831.2</ele><time>2026-05-01T11:18:20.5Z</time></trkpt><trkpt lat="35.4090967" lon="8.980282"><ele>832.0</ele><time>2026-05-01T11:18:21.463Z</time></trkpt><trkpt lat="35.4091469" lon="8.9801669"><ele>832.0</ele><time>2026-05-01T11:18:22.481Z</time></trkpt><trkpt lat="35.4091994" lon="8.9800501"><ele>832.0</ele><time>2026-05-01T11:18:23.491Z</time></trkpt><trkpt lat="35.40925" lon="8.9799352"><ele>832.0</ele><time>2026-05-01T11:18:24.495Z</time></trkpt><trkpt lat="35.4093024" lon="8.9798148"><ele>832.0</ele><time>2026-05-01T11:18:25.451Z</time></trkpt><trkpt lat="35.4093574" lon="8.9796978"><ele>832.0</ele><time>2026-05-01T11:18:26.485Z</time></trkpt><trkpt lat="35.4094109" lon="8.9795828"><ele>832.2</ele><time>2026-05-01T11:18:27.497Z</time></trkpt><trkpt lat="35.4094652" lon="8.9794695"><ele>832.4000000000001</ele><time>2026-05-01T11:18:28.505Z</time></trkpt><trkpt lat="35.4095189" lon="8.9793564"><ele>832.5999999999999</ele><time>2026-05-01T11:18:29.48Z</time></trkpt><trkpt lat="35.4095715" lon="8.9792388"><ele>832.8</ele><time>2026-05-01T11:18:30.48Z</time></trkpt><trkpt lat="35.409619" lon="8.9791236"><ele>833.0</ele><time>2026-05-01T11:18:31.47Z</time></trkpt><trkpt lat="35.4096662" lon="8.9790066"><ele>834.0</ele><time>2026-05-01T11:18:32.447Z</time></trkpt><trkpt lat="35.4097122" lon="8.9788892"><ele>835.0</ele><time>2026-05-01T11:18:33.499Z</time></trkpt><trkpt lat="35.4097589" lon="8.9787679"><ele>836.0</ele><time>2026-05-01T11:18:34.507Z</time></trkpt><trkpt lat="35.4098026" lon="8.9786499"><ele>837.0</ele><time>2026-05-01T11:18:35.505Z</time></trkpt><trkpt lat="35.4098446" lon="8.9785311"><ele>838.0</ele><time>2026-05-01T11:18:36.443Z</time></trkpt><trkpt lat="35.4098841" lon="8.9784075"><ele>838.5999999999999</ele><time>2026-05-01T11:18:37.482Z</time></trkpt><trkpt lat="35.4099194" lon="8.978283"><ele>839.1999999999999</ele><time>2026-05-01T11:18:38.511Z</time></trkpt><trkpt lat="35.4099504" lon="8.9781608"><ele>839.8</ele><time>2026-05-01T11:18:39.484Z</time></trkpt><trkpt lat="35.4099792" lon="8.9780383"><ele>840.4</ele><time>2026-05-01T11:18:40.486Z</time></trkpt><trkpt lat="35.4100078" lon="8.9779086"><ele>841.0</ele><time>2026-05-01T11:18:41.466Z</time></trkpt><trkpt lat="35.4100337" lon="8.9777805"><ele>841.0</ele><time>2026-05-01T11:18:42.441Z</time></trkpt><trkpt lat="35.4100531" lon="8.9776551"><ele>841.0</ele><time>2026-05-01T11:18:43.465Z</time></trkpt><trkpt lat="35.4100723" lon="8.9775238"><ele>841.0</ele><time>2026-05-01T11:18:44.507Z</time></trkpt><trkpt lat="35.4100845" lon="8.9773929"><ele>841.0</ele><time>2026-05-01T11:18:45.495Z</time></trkpt><trkpt lat="35.4100949" lon="8.9772597"><ele>841.0</ele><time>2026-05-01T11:18:46.482Z</time></trkpt><trkpt lat="35.4101" lon="8.9771271"><ele>841.8</ele><time>2026-05-01T11:18:47.465Z</time></trkpt><trkpt lat="35.4101031" lon="8.9769955"><ele>842.5999999999999</ele><time>2026-05-01T11:18:48.48Z</time></trkpt><trkpt lat="35.4101031" lon="8.9768649"><ele>843.4</ele><time>2026-05-01T11:18:49.498Z</time></trkpt><trkpt lat="35.4101022" lon="8.9767383"><ele>844.2</ele><time>2026-05-01T11:18:50.455Z</time></trkpt><trkpt lat="35.4100983" lon="8.9766207"><ele>845.0</ele><time>2026-05-01T11:18:51.49Z</time></trkpt><trkpt lat="35.410092" lon="8.9765155"><ele>845.1666666666667</ele><time>2026-05-01T11:18:52.456Z</time></trkpt><trkpt lat="35.4100839" lon="8.9764111"><ele>845.3333333333334</ele><time>2026-05-01T11:18:53.506Z</time></trkpt><trkpt lat="35.4100747" lon="8.9763092"><ele>845.5</ele><time>2026-05-01T11:18:54.509Z</time></trkpt><trkpt lat="35.4100632" lon="8.9762161"><ele>845.6666666666667</ele><time>2026-05-01T11:18:55.506Z</time></trkpt><trkpt lat="35.410052" lon="8.9761251"><ele>845.8333333333334</ele><time>2026-05-01T11:18:56.5Z</time></trkpt><trkpt lat="35.4100391" lon="8.9760369"><ele>846.0</ele><time>2026-05-01T11:18:57.475Z</time></trkpt><trkpt lat="35.4100274" lon="8.9759406"><ele>846.3333333333334</ele><time>2026-05-01T11:18:58.493Z</time></trkpt><trkpt lat="35.4100122" lon="8.9758393"><ele>846.6666666666667</ele><time>2026-05-01T11:18:59.5Z</time></trkpt><trkpt lat="35.4099966" lon="8.9757483"><ele>847.0</ele><time>2026-05-01T11:19:00.504Z</time></trkpt><trkpt lat="35.4099801" lon="8.9756647"><ele>847.3333333333334</ele><time>2026-05-01T11:19:01.497Z</time></trkpt><trkpt lat="35.4099679" lon="8.975582"><ele>847.6666666666667</ele><time>2026-05-01T11:19:02.493Z</time></trkpt><trkpt lat="35.4099564" lon="8.9754347"><ele>848.0</ele><time>2026-05-01T11:19:04.441Z</time></trkpt><trkpt lat="35.4099495" lon="8.9753223"><ele>848.0000000000001</ele><time>2026-05-01T11:19:06.432Z</time></trkpt><trkpt lat="35.4099419" lon="8.9752278"><ele>848.0</ele><time>2026-05-01T11:19:08.442Z</time></trkpt><trkpt lat="35.4099278" lon="8.975147"><ele>848.0</ele><time>2026-05-01T11:19:10.439Z</time></trkpt><trkpt lat="35.4099154" lon="8.9750682"><ele>848.0</ele><time>2026-05-01T11:19:13.441Z</time></trkpt><trkpt lat="35.4099789" lon="8.9750682"><ele>848.0000000000001</ele><time>2026-05-01T11:23:45.528Z</time></trkpt><trkpt lat="35.4099596" lon="8.9749615"><ele>848.0</ele><time>2026-05-01T11:25:35.44Z</time></trkpt><trkpt lat="35.4099224" lon="8.9748351"><ele>848.4</ele><time>2026-05-01T11:25:37.426Z</time></trkpt><trkpt lat="35.4098725" lon="8.9747196"><ele>848.8</ele><time>2026-05-01T11:25:39.46Z</time></trkpt><trkpt lat="35.4098356" lon="8.9745922"><ele>849.2</ele><time>2026-05-01T11:25:41.463Z</time></trkpt><trkpt lat="35.4098143" lon="8.9744749"><ele>849.6</ele><time>2026-05-01T11:25:43.457Z</time></trkpt><trkpt lat="35.4097862" lon="8.9743167"><ele>850.0</ele><time>2026-05-01T11:25:45.463Z</time></trkpt><trkpt lat="35.4097791" lon="8.9742248"><ele>850.2</ele><time>2026-05-01T11:25:46.466Z</time></trkpt><trkpt lat="35.4097725" lon="8.9741286"><ele>850.4</ele><time>2026-05-01T11:25:47.47Z</time></trkpt><trkpt lat="35.4097643" lon="8.9740356"><ele>850.5999999999999</ele><time>2026-05-01T11:25:48.434Z</time></trkpt><trkpt lat="35.4097598" lon="8.973939"><ele>850.8</ele><time>2026-05-01T11:25:49.443Z</time></trkpt><trkpt lat="35.4097607" lon="8.9738425"><ele>851.0</ele><time>2026-05-01T11:25:50.505Z</time></trkpt><trkpt lat="35.4097666" lon="8.973565"><ele>851.0000000000001</ele><time>2026-05-01T11:25:53.499Z</time></trkpt><trkpt lat="35.4097758" lon="8.97348"><ele>851.0</ele><time>2026-05-01T11:25:54.469Z</time></trkpt><trkpt lat="35.409791" lon="8.973387"><ele>851.0</ele><time>2026-05-01T11:25:55.456Z</time></trkpt><trkpt lat="35.4098122" lon="8.9732967"><ele>851.0</ele><time>2026-05-01T11:25:56.464Z</time></trkpt><trkpt lat="35.4098357" lon="8.9732003"><ele>851.0000000000001</ele><time>2026-05-01T11:25:57.452Z</time></trkpt><trkpt lat="35.409863" lon="8.9731026"><ele>851.0</ele><time>2026-05-01T11:25:58.444Z</time></trkpt><trkpt lat="35.409889" lon="8.9730084"><ele>851.0</ele><time>2026-05-01T11:25:59.447Z</time></trkpt><trkpt lat="35.4099134" lon="8.9729179"><ele>851.0</ele><time>2026-05-01T11:26:00.445Z</time></trkpt><trkpt lat="35.4099402" lon="8.9728263"><ele>851.0</ele><time>2026-05-01T11:26:01.467Z</time></trkpt><trkpt lat="35.409977" lon="8.9727211"><ele>851.0</ele><time>2026-05-01T11:26:02.45Z</time></trkpt><trkpt lat="35.4100161" lon="8.972607"><ele>851.0</ele><time>2026-05-01T11:26:03.462Z</time></trkpt><trkpt lat="35.4100563" lon="8.9724855"><ele>851.4</ele><time>2026-05-01T11:26:04.436Z</time></trkpt><trkpt lat="35.4100945" lon="8.9723631"><ele>851.8</ele><time>2026-05-01T11:26:05.444Z</time></trkpt><trkpt lat="35.4101319" lon="8.9722384"><ele>852.1999999999999</ele><time>2026-05-01T11:26:06.449Z</time></trkpt><trkpt lat="35.410168" lon="8.9721143"><ele>852.5999999999999</ele><time>2026-05-01T11:26:07.455Z</time></trkpt><trkpt lat="35.4102026" lon="8.9719942"><ele>853.0</ele><time>2026-05-01T11:26:08.451Z</time></trkpt><trkpt lat="35.4102384" lon="8.9718763"><ele>853.0</ele><time>2026-05-01T11:26:09.444Z</time></trkpt><trkpt lat="35.4102689" lon="8.9717591"><ele>853.0</ele><time>2026-05-01T11:26:10.464Z</time></trkpt><trkpt lat="35.410303" lon="8.97164"><ele>853.0</ele><time>2026-05-01T11:26:11.473Z</time></trkpt><trkpt lat="35.4103398" lon="8.9715228"><ele>853.0</ele><time>2026-05-01T11:26:12.442Z</time></trkpt><trkpt lat="35.4103768" lon="8.9714097"><ele>853.0</ele><time>2026-05-01T11:26:13.458Z</time></trkpt><trkpt lat="35.410417" lon="8.9712971"><ele>853.5</ele><time>2026-05-01T11:26:14.464Z</time></trkpt><trkpt lat="35.4104652" lon="8.971168"><ele>854.0</ele><time>2026-05-01T11:26:15.468Z</time></trkpt><trkpt lat="35.4105215" lon="8.9710158"><ele>854.5</ele><time>2026-05-01T11:26:16.454Z</time></trkpt><trkpt lat="35.4105859" lon="8.9708387"><ele>855.0</ele><time>2026-05-01T11:26:17.457Z</time></trkpt><trkpt lat="35.4106493" lon="8.9706676"><ele>857.0</ele><time>2026-05-01T11:26:18.453Z</time></trkpt><trkpt lat="35.4107033" lon="8.9705087"><ele>859.0</ele><time>2026-05-01T11:26:19.464Z</time></trkpt><trkpt lat="35.4107508" lon="8.9703636"><ele>861.0</ele><time>2026-05-01T11:26:20.473Z</time></trkpt><trkpt lat="35.4107992" lon="8.9702242"><ele>863.0</ele><time>2026-05-01T11:26:21.458Z</time></trkpt><trkpt lat="35.4108432" lon="8.9700913"><ele>863.0</ele><time>2026-05-01T11:26:22.446Z</time></trkpt><trkpt lat="35.4108886" lon="8.9699596"><ele>863.0</ele><time>2026-05-01T11:26:23.469Z</time></trkpt><trkpt lat="35.4109317" lon="8.9698358"><ele>863.0</ele><time>2026-05-01T11:26:24.459Z</time></trkpt><trkpt lat="35.4109753" lon="8.9697137"><ele>863.0</ele><time>2026-05-01T11:26:25.465Z</time></trkpt><trkpt lat="35.4110167" lon="8.9695922"><ele>863.0</ele><time>2026-05-01T11:26:26.46Z</time></trkpt><trkpt lat="35.4110561" lon="8.9694717"><ele>863.0</ele><time>2026-05-01T11:26:27.477Z</time></trkpt><trkpt lat="35.4110959" lon="8.9693501"><ele>863.0</ele><time>2026-05-01T11:26:28.467Z</time></trkpt><trkpt lat="35.4111395" lon="8.9692283"><ele>863.0</ele><time>2026-05-01T11:26:29.456Z</time></trkpt><trkpt lat="35.4111827" lon="8.9691058"><ele>863.0</ele><time>2026-05-01T11:26:30.456Z</time></trkpt><trkpt lat="35.4112254" lon="8.9689805"><ele>863.0</ele><time>2026-05-01T11:26:31.474Z</time></trkpt><trkpt lat="35.4112629" lon="8.9688522"><ele>864.0</ele><time>2026-05-01T11:26:32.459Z</time></trkpt><trkpt lat="35.4112975" lon="8.9687221"><ele>865.0</ele><time>2026-05-01T11:26:33.451Z</time></trkpt><trkpt lat="35.4113334" lon="8.9685875"><ele>866.0</ele><time>2026-05-01T11:26:34.455Z</time></trkpt><trkpt lat="35.4113646" lon="8.9684505"><ele>867.0</ele><time>2026-05-01T11:26:35.457Z</time></trkpt><trkpt lat="35.411393" lon="8.9683128"><ele>867.75</ele><time>2026-05-01T11:26:36.46Z</time></trkpt><trkpt lat="35.4114196" lon="8.9681764"><ele>868.5</ele><time>2026-05-01T11:26:37.458Z</time></trkpt><trkpt lat="35.4114454" lon="8.9680362"><ele>869.25</ele><time>2026-05-01T11:26:38.458Z</time></trkpt><trkpt lat="35.4114685" lon="8.9678988"><ele>870.0</ele><time>2026-05-01T11:26:39.458Z</time></trkpt><trkpt lat="35.4114886" lon="8.9677607"><ele>870.0</ele><time>2026-05-01T11:26:40.474Z</time></trkpt><trkpt lat="35.4115083" lon="8.9676195"><ele>870.0</ele><time>2026-05-01T11:26:41.451Z</time></trkpt><trkpt lat="35.4115256" lon="8.9674821"><ele>870.0</ele><time>2026-05-01T11:26:42.449Z</time></trkpt><trkpt lat="35.4115417" lon="8.9673434"><ele>870.0</ele><time>2026-05-01T11:26:43.459Z</time></trkpt><trkpt lat="35.4115495" lon="8.9672065"><ele>870.6</ele><time>2026-05-01T11:26:44.47Z</time></trkpt><trkpt lat="35.4115526" lon="8.9670722"><ele>871.2</ele><time>2026-05-01T11:26:45.459Z</time></trkpt><trkpt lat="35.4115521" lon="8.9669376"><ele>871.8</ele><time>2026-05-01T11:26:46.465Z</time></trkpt><trkpt lat="35.4115472" lon="8.9668062"><ele>872.4</ele><time>2026-05-01T11:26:47.46Z</time></trkpt><trkpt lat="35.4115349" lon="8.966671"><ele>873.0</ele><time>2026-05-01T11:26:48.463Z</time></trkpt><trkpt lat="35.4115135" lon="8.9665408"><ele>873.5</ele><time>2026-05-01T11:26:49.486Z</time></trkpt><trkpt lat="35.4114885" lon="8.966403"><ele>874.0</ele><time>2026-05-01T11:26:50.467Z</time></trkpt><trkpt lat="35.4114545" lon="8.9662721"><ele>874.5</ele><time>2026-05-01T11:26:51.442Z</time></trkpt><trkpt lat="35.4114112" lon="8.9661438"><ele>875.0</ele><time>2026-05-01T11:26:52.452Z</time></trkpt><trkpt lat="35.4113617" lon="8.9660191"><ele>876.75</ele><time>2026-05-01T11:26:53.468Z</time></trkpt><trkpt lat="35.4113083" lon="8.9658949"><ele>878.5</ele><time>2026-05-01T11:26:54.448Z</time></trkpt><trkpt lat="35.4112523" lon="8.9657702"><ele>880.25</ele><time>2026-05-01T11:26:55.469Z</time></trkpt><trkpt lat="35.4111915" lon="8.9656439"><ele>882.0</ele><time>2026-05-01T11:26:56.451Z</time></trkpt><trkpt lat="35.4111262" lon="8.965519"><ele>882.6</ele><time>2026-05-01T11:26:57.453Z</time></trkpt><trkpt lat="35.4110552" lon="8.9653926"><ele>883.2</ele><time>2026-05-01T11:26:58.459Z</time></trkpt><trkpt lat="35.4109862" lon="8.9652729"><ele>883.8</ele><time>2026-05-01T11:26:59.461Z</time></trkpt><trkpt lat="35.4109221" lon="8.9651589"><ele>884.4</ele><time>2026-05-01T11:27:00.452Z</time></trkpt><trkpt lat="35.4108836" lon="8.9650758"><ele>885.0</ele><time>2026-05-01T11:27:01.453Z</time></trkpt><trkpt lat="35.4108366" lon="8.9649683"><ele>885.0</ele><time>2026-05-01T11:27:02.447Z</time></trkpt><trkpt lat="35.4107944" lon="8.9648484"><ele>885.0</ele><time>2026-05-01T11:27:03.442Z</time></trkpt><trkpt lat="35.4107569" lon="8.9647172"><ele>885.0</ele><time>2026-05-01T11:27:04.459Z</time></trkpt><trkpt lat="35.410715" lon="8.9645759"><ele>885.0</ele><time>2026-05-01T11:27:05.461Z</time></trkpt><trkpt lat="35.4106771" lon="8.9644404"><ele>885.0</ele><time>2026-05-01T11:27:06.439Z</time></trkpt><trkpt lat="35.4106406" lon="8.9642971"><ele>885.0</ele><time>2026-05-01T11:27:07.444Z</time></trkpt><trkpt lat="35.4106064" lon="8.9641591"><ele>885.0</ele><time>2026-05-01T11:27:08.454Z</time></trkpt><trkpt lat="35.4105757" lon="8.9640173"><ele>885.0</ele><time>2026-05-01T11:27:09.45Z</time></trkpt><trkpt lat="35.4105533" lon="8.9638761"><ele>885.0</ele><time>2026-05-01T11:27:10.473Z</time></trkpt><trkpt lat="35.4105388" lon="8.9637332"><ele>885.0</ele><time>2026-05-01T11:27:11.475Z</time></trkpt><trkpt lat="35.410528" lon="8.9635902"><ele>885.0</ele><time>2026-05-01T11:27:12.454Z</time></trkpt><trkpt lat="35.4105236" lon="8.9634515"><ele>885.0</ele><time>2026-05-01T11:27:13.467Z</time></trkpt><trkpt lat="35.4105224" lon="8.963309"><ele>884.75</ele><time>2026-05-01T11:27:14.45Z</time></trkpt><trkpt lat="35.4105233" lon="8.9631665"><ele>884.5</ele><time>2026-05-01T11:27:15.453Z</time></trkpt><trkpt lat="35.4105272" lon="8.9630179"><ele>884.25</ele><time>2026-05-01T11:27:16.454Z</time></trkpt><trkpt lat="35.4105331" lon="8.9628691"><ele>884.0</ele><time>2026-05-01T11:27:17.449Z</time></trkpt><trkpt lat="35.4105402" lon="8.9627168"><ele>884.0</ele><time>2026-05-01T11:27:18.46Z</time></trkpt><trkpt lat="35.4105514" lon="8.96257"><ele>884.0</ele><time>2026-05-01T11:27:19.458Z</time></trkpt><trkpt lat="35.4105633" lon="8.9624197"><ele>884.0</ele><time>2026-05-01T11:27:20.474Z</time></trkpt><trkpt lat="35.4105785" lon="8.9622708"><ele>884.0</ele><time>2026-05-01T11:27:21.468Z</time></trkpt><trkpt lat="35.4105938" lon="8.9621238"><ele>882.75</ele><time>2026-05-01T11:27:22.473Z</time></trkpt><trkpt lat="35.4106118" lon="8.961975"><ele>881.5</ele><time>2026-05-01T11:27:23.465Z</time></trkpt><trkpt lat="35.4106308" lon="8.9618293"><ele>880.25</ele><time>2026-05-01T11:27:24.455Z</time></trkpt><trkpt lat="35.4106496" lon="8.9616854"><ele>879.0</ele><time>2026-05-01T11:27:25.449Z</time></trkpt><trkpt lat="35.4106692" lon="8.9615425"><ele>877.5</ele><time>2026-05-01T11:27:26.465Z</time></trkpt><trkpt lat="35.4106926" lon="8.9613985"><ele>876.0</ele><time>2026-05-01T11:27:27.441Z</time></trkpt><trkpt lat="35.4107157" lon="8.9612589"><ele>874.5</ele><time>2026-05-01T11:27:28.458Z</time></trkpt><trkpt lat="35.41074" lon="8.9611219"><ele>873.0</ele><time>2026-05-01T11:27:29.463Z</time></trkpt><trkpt lat="35.4107641" lon="8.9609863"><ele>872.0</ele><time>2026-05-01T11:27:30.475Z</time></trkpt><trkpt lat="35.4107893" lon="8.9608562"><ele>871.0</ele><time>2026-05-01T11:27:31.467Z</time></trkpt><trkpt lat="35.4108194" lon="8.9607245"><ele>870.0</ele><time>2026-05-01T11:27:32.45Z</time></trkpt><trkpt lat="35.4108504" lon="8.9605945"><ele>869.0</ele><time>2026-05-01T11:27:33.462Z</time></trkpt><trkpt lat="35.410882" lon="8.960466"><ele>868.0</ele><time>2026-05-01T11:27:34.48Z</time></trkpt><trkpt lat="35.4109172" lon="8.960337"><ele>868.0</ele><time>2026-05-01T11:27:35.47Z</time></trkpt><trkpt lat="35.4109508" lon="8.9602148"><ele>868.0</ele><time>2026-05-01T11:27:36.459Z</time></trkpt><trkpt lat="35.4109826" lon="8.9600969"><ele>868.0</ele><time>2026-05-01T11:27:37.463Z</time></trkpt><trkpt lat="35.4110137" lon="8.9599819"><ele>868.0</ele><time>2026-05-01T11:27:38.468Z</time></trkpt><trkpt lat="35.4110397" lon="8.9598799"><ele>868.0</ele><time>2026-05-01T11:27:39.456Z</time></trkpt><trkpt lat="35.4110609" lon="8.9597852"><ele>867.2857142857143</ele><time>2026-05-01T11:27:40.45Z</time></trkpt><trkpt lat="35.4110809" lon="8.9596932"><ele>866.5714285714286</ele><time>2026-05-01T11:27:41.457Z</time></trkpt><trkpt lat="35.4110993" lon="8.9596061"><ele>865.8571428571429</ele><time>2026-05-01T11:27:42.454Z</time></trkpt><trkpt lat="35.4111159" lon="8.9595257"><ele>865.1428571428571</ele><time>2026-05-01T11:27:43.478Z</time></trkpt><trkpt lat="35.411133" lon="8.9594446"><ele>864.4285714285714</ele><time>2026-05-01T11:27:44.454Z</time></trkpt><trkpt lat="35.4111511" lon="8.9593591"><ele>863.7142857142858</ele><time>2026-05-01T11:27:45.461Z</time></trkpt><trkpt lat="35.411169" lon="8.9592758"><ele>863.0</ele><time>2026-05-01T11:27:46.472Z</time></trkpt><trkpt lat="35.4111922" lon="8.9591893"><ele>863.1666666666667</ele><time>2026-05-01T11:27:47.467Z</time></trkpt><trkpt lat="35.4112158" lon="8.9590997"><ele>863.3333333333334</ele><time>2026-05-01T11:27:48.462Z</time></trkpt><trkpt lat="35.4112386" lon="8.9590078"><ele>863.5</ele><time>2026-05-01T11:27:49.464Z</time></trkpt><trkpt lat="35.4112604" lon="8.9589091"><ele>863.6666666666667</ele><time>2026-05-01T11:27:50.461Z</time></trkpt><trkpt lat="35.4112847" lon="8.9588048"><ele>863.8333333333334</ele><time>2026-05-01T11:27:51.458Z</time></trkpt><trkpt lat="35.4113123" lon="8.9587002"><ele>864.0</ele><time>2026-05-01T11:27:52.464Z</time></trkpt><trkpt lat="35.4113445" lon="8.9585945"><ele>864.0</ele><time>2026-05-01T11:27:53.471Z</time></trkpt><trkpt lat="35.4113799" lon="8.9584843"><ele>864.0000000000001</ele><time>2026-05-01T11:27:54.463Z</time></trkpt><trkpt lat="35.4114172" lon="8.9583703"><ele>864.0000000000001</ele><time>2026-05-01T11:27:55.463Z</time></trkpt><trkpt lat="35.4114538" lon="8.9582515"><ele>864.0</ele><time>2026-05-01T11:27:56.517Z</time></trkpt><trkpt lat="35.4114837" lon="8.9581298"><ele>864.0</ele><time>2026-05-01T11:27:57.502Z</time></trkpt><trkpt lat="35.4115082" lon="8.9580079"><ele>864.2</ele><time>2026-05-01T11:27:58.501Z</time></trkpt><trkpt lat="35.4115165" lon="8.9578855"><ele>864.4000000000001</ele><time>2026-05-01T11:27:59.482Z</time></trkpt><trkpt lat="35.4115087" lon="8.9577661"><ele>864.6</ele><time>2026-05-01T11:28:00.461Z</time></trkpt><trkpt lat="35.4114891" lon="8.9576487"><ele>864.8</ele><time>2026-05-01T11:28:01.5Z</time></trkpt><trkpt lat="35.411463" lon="8.957535"><ele>865.0</ele><time>2026-05-01T11:28:02.469Z</time></trkpt><trkpt lat="35.4114328" lon="8.9574256"><ele>864.6</ele><time>2026-05-01T11:28:03.507Z</time></trkpt><trkpt lat="35.4114029" lon="8.9573237"><ele>864.2</ele><time>2026-05-01T11:28:04.469Z</time></trkpt><trkpt lat="35.4113735" lon="8.9572218"><ele>863.8</ele><time>2026-05-01T11:28:05.478Z</time></trkpt><trkpt lat="35.411346" lon="8.9571138"><ele>863.4</ele><time>2026-05-01T11:28:06.513Z</time></trkpt><trkpt lat="35.411318" lon="8.9570059"><ele>863.0</ele><time>2026-05-01T11:28:07.514Z</time></trkpt><trkpt lat="35.4112883" lon="8.9568865"><ele>862.4</ele><time>2026-05-01T11:28:08.518Z</time></trkpt><trkpt lat="35.411256" lon="8.9567645"><ele>861.8</ele><time>2026-05-01T11:28:09.52Z</time></trkpt><trkpt lat="35.4112213" lon="8.9566364"><ele>861.2</ele><time>2026-05-01T11:28:10.482Z</time></trkpt><trkpt lat="35.411188" lon="8.9565119"><ele>860.6</ele><time>2026-05-01T11:28:11.479Z</time></trkpt><trkpt lat="35.4111549" lon="8.9563875"><ele>860.0</ele><time>2026-05-01T11:28:12.464Z</time></trkpt><trkpt lat="35.4111246" lon="8.9562679"><ele>859.6</ele><time>2026-05-01T11:28:13.513Z</time></trkpt><trkpt lat="35.4110924" lon="8.9561521"><ele>859.2</ele><time>2026-05-01T11:28:14.49Z</time></trkpt><trkpt lat="35.4110612" lon="8.9560374"><ele>858.8</ele><time>2026-05-01T11:28:15.516Z</time></trkpt><trkpt lat="35.4110282" lon="8.955909"><ele>858.4</ele><time>2026-05-01T11:28:16.443Z</time></trkpt><trkpt lat="35.4109933" lon="8.955784"><ele>858.0</ele><time>2026-05-01T11:28:17.495Z</time></trkpt><trkpt lat="35.4109588" lon="8.9556572"><ele>857.5999999999999</ele><time>2026-05-01T11:28:18.503Z</time></trkpt><trkpt lat="35.4109221" lon="8.9555373"><ele>857.1999999999999</ele><time>2026-05-01T11:28:19.513Z</time></trkpt><trkpt lat="35.4108844" lon="8.9554151"><ele>856.8</ele><time>2026-05-01T11:28:20.47Z</time></trkpt><trkpt lat="35.4108465" lon="8.9552958"><ele>856.4</ele><time>2026-05-01T11:28:21.501Z</time></trkpt><trkpt lat="35.4108117" lon="8.9551764"><ele>856.0</ele><time>2026-05-01T11:28:22.491Z</time></trkpt><trkpt lat="35.410777" lon="8.955045"><ele>855.5999999999999</ele><time>2026-05-01T11:28:23.509Z</time></trkpt><trkpt lat="35.4107423" lon="8.9549208"><ele>855.1999999999999</ele><time>2026-05-01T11:28:24.514Z</time></trkpt><trkpt lat="35.4107087" lon="8.9547971"><ele>854.8000000000001</ele><time>2026-05-01T11:28:25.443Z</time></trkpt><trkpt lat="35.4106768" lon="8.9546792"><ele>854.4000000000001</ele><time>2026-05-01T11:28:26.516Z</time></trkpt><trkpt lat="35.4106451" lon="8.9545732"><ele>854.0</ele><time>2026-05-01T11:28:27.508Z</time></trkpt><trkpt lat="35.4106184" lon="8.9544644"><ele>854.0</ele><time>2026-05-01T11:28:28.502Z</time></trkpt><trkpt lat="35.4105936" lon="8.9543601"><ele>854.0000000000001</ele><time>2026-05-01T11:28:29.505Z</time></trkpt><trkpt lat="35.4105675" lon="8.9542579"><ele>854.0000000000001</ele><time>2026-05-01T11:28:30.483Z</time></trkpt><trkpt lat="35.4105384" lon="8.9541478"><ele>854.0</ele><time>2026-05-01T11:28:31.506Z</time></trkpt><trkpt lat="35.4105064" lon="8.9540351"><ele>854.0</ele><time>2026-05-01T11:28:32.487Z</time></trkpt><trkpt lat="35.4104651" lon="8.9539189"><ele>853.0</ele><time>2026-05-01T11:28:33.529Z</time></trkpt><trkpt lat="35.4104192" lon="8.9537955"><ele>852.0</ele><time>2026-05-01T11:28:34.481Z</time></trkpt><trkpt lat="35.4103764" lon="8.9536636"><ele>851.0</ele><time>2026-05-01T11:28:35.518Z</time></trkpt><trkpt lat="35.4103355" lon="8.9535294"><ele>850.0</ele><time>2026-05-01T11:28:36.467Z</time></trkpt><trkpt lat="35.4102986" lon="8.953393"><ele>849.75</ele><time>2026-05-01T11:28:37.493Z</time></trkpt><trkpt lat="35.410264" lon="8.9532576"><ele>849.5</ele><time>2026-05-01T11:28:38.529Z</time></trkpt><trkpt lat="35.4102347" lon="8.9531208"><ele>849.25</ele><time>2026-05-01T11:28:39.499Z</time></trkpt><trkpt lat="35.4102108" lon="8.9529858"><ele>849.0</ele><time>2026-05-01T11:28:40.506Z</time></trkpt><trkpt lat="35.4101961" lon="8.9528536"><ele>849.0</ele><time>2026-05-01T11:28:41.45Z</time></trkpt><trkpt lat="35.4101917" lon="8.9527267"><ele>849.0</ele><time>2026-05-01T11:28:42.512Z</time></trkpt><trkpt lat="35.4101983" lon="8.9526063"><ele>849.0</ele><time>2026-05-01T11:28:43.511Z</time></trkpt><trkpt lat="35.4102062" lon="8.9524815"><ele>849.0</ele><time>2026-05-01T11:28:44.509Z</time></trkpt><trkpt lat="35.4102093" lon="8.9523654"><ele>849.0</ele><time>2026-05-01T11:28:45.52Z</time></trkpt><trkpt lat="35.4102021" lon="8.9522469"><ele>849.0</ele><time>2026-05-01T11:28:46.48Z</time></trkpt><trkpt lat="35.4101776" lon="8.9521229"><ele>849.0</ele><time>2026-05-01T11:28:47.481Z</time></trkpt><trkpt lat="35.4101363" lon="8.9519898"><ele>849.0</ele><time>2026-05-01T11:28:48.517Z</time></trkpt><trkpt lat="35.4100753" lon="8.9518734"><ele>849.0</ele><time>2026-05-01T11:28:49.499Z</time></trkpt><trkpt lat="35.409999" lon="8.9517665"><ele>849.0</ele><time>2026-05-01T11:28:50.508Z</time></trkpt><trkpt lat="35.4099047" lon="8.9516704"><ele>847.75</ele><time>2026-05-01T11:28:51.471Z</time></trkpt><trkpt lat="35.4098027" lon="8.951576"><ele>846.5</ele><time>2026-05-01T11:28:52.489Z</time></trkpt><trkpt lat="35.4097038" lon="8.9514912"><ele>845.25</ele><time>2026-05-01T11:28:53.51Z</time></trkpt><trkpt lat="35.4096043" lon="8.951413"><ele>844.0</ele><time>2026-05-01T11:28:54.442Z</time></trkpt><trkpt lat="35.4095059" lon="8.9513289"><ele>843.6</ele><time>2026-05-01T11:28:55.484Z</time></trkpt><trkpt lat="35.4094026" lon="8.9512425"><ele>843.2</ele><time>2026-05-01T11:28:56.455Z</time></trkpt><trkpt lat="35.4093085" lon="8.9511561"><ele>842.8000000000001</ele><time>2026-05-01T11:28:57.508Z</time></trkpt><trkpt lat="35.409224" lon="8.9510802"><ele>842.4000000000001</ele><time>2026-05-01T11:28:58.479Z</time></trkpt><trkpt lat="35.4091501" lon="8.9510033"><ele>842.0</ele><time>2026-05-01T11:28:59.5Z</time></trkpt><trkpt lat="35.40908" lon="8.9509268"><ele>842.0</ele><time>2026-05-01T11:29:00.456Z</time></trkpt><trkpt lat="35.4090142" lon="8.9508468"><ele>842.0</ele><time>2026-05-01T11:29:01.498Z</time></trkpt><trkpt lat="35.4089388" lon="8.9507618"><ele>842.0</ele><time>2026-05-01T11:29:02.494Z</time></trkpt><trkpt lat="35.4088678" lon="8.9506654"><ele>842.0</ele><time>2026-05-01T11:29:03.493Z</time></trkpt><trkpt lat="35.4088195" lon="8.950566"><ele>842.0</ele><time>2026-05-01T11:29:04.482Z</time></trkpt><trkpt lat="35.4087798" lon="8.950454"><ele>841.0</ele><time>2026-05-01T11:29:05.494Z</time></trkpt><trkpt lat="35.4087723" lon="8.9503238"><ele>840.0</ele><time>2026-05-01T11:29:06.431Z</time></trkpt><trkpt lat="35.4087944" lon="8.9501773"><ele>839.0</ele><time>2026-05-01T11:29:07.518Z</time></trkpt><trkpt lat="35.4088375" lon="8.9499918"><ele>838.0</ele><time>2026-05-01T11:29:08.501Z</time></trkpt><trkpt lat="35.4089104" lon="8.9497758"><ele>841.0</ele><time>2026-05-01T11:29:09.445Z</time></trkpt><trkpt lat="35.4089475" lon="8.9495653"><ele>844.0</ele><time>2026-05-01T11:29:10.401Z</time></trkpt><trkpt lat="35.4089837" lon="8.9493788"><ele>847.0</ele><time>2026-05-01T11:29:11.428Z</time></trkpt><trkpt lat="35.4090147" lon="8.9492159"><ele>847.25</ele><time>2026-05-01T11:29:12.428Z</time></trkpt><trkpt lat="35.4090525" lon="8.9490618"><ele>847.5</ele><time>2026-05-01T11:29:13.416Z</time></trkpt><trkpt lat="35.409096" lon="8.9489262"><ele>847.75</ele><time>2026-05-01T11:29:14.425Z</time></trkpt><trkpt lat="35.4091443" lon="8.9487887"><ele>848.0</ele><time>2026-05-01T11:29:15.44Z</time></trkpt><trkpt lat="35.4091933" lon="8.9486574"><ele>848.0</ele><time>2026-05-01T11:29:16.418Z</time></trkpt><trkpt lat="35.4092453" lon="8.9485333"><ele>848.0</ele><time>2026-05-01T11:29:17.378Z</time></trkpt><trkpt lat="35.4092966" lon="8.9484064"><ele>848.0</ele><time>2026-05-01T11:29:18.379Z</time></trkpt><trkpt lat="35.4093404" lon="8.9482909"><ele>848.0</ele><time>2026-05-01T11:29:19.441Z</time></trkpt><trkpt lat="35.4093854" lon="8.9481803"><ele>848.0</ele><time>2026-05-01T11:29:20.414Z</time></trkpt><trkpt lat="35.4094276" lon="8.9480761"><ele>847.6666666666667</ele><time>2026-05-01T11:29:21.378Z</time></trkpt><trkpt lat="35.4094756" lon="8.9479835"><ele>847.3333333333334</ele><time>2026-05-01T11:29:22.428Z</time></trkpt><trkpt lat="35.4095232" lon="8.9479046"><ele>847.0</ele><time>2026-05-01T11:29:23.418Z</time></trkpt><trkpt lat="35.4095747" lon="8.9478535"><ele>846.6666666666667</ele><time>2026-05-01T11:29:24.407Z</time></trkpt><trkpt lat="35.4096701" lon="8.94776"><ele>846.3333333333334</ele><time>2026-05-01T11:29:26.419Z</time></trkpt><trkpt lat="35.4097287" lon="8.9477147"><ele>846.0</ele><time>2026-05-01T11:29:27.441Z</time></trkpt><trkpt lat="35.4097919" lon="8.9476709"><ele>846.8333333333334</ele><time>2026-05-01T11:29:28.417Z</time></trkpt><trkpt lat="35.409848" lon="8.947615"><ele>847.6666666666667</ele><time>2026-05-01T11:29:29.414Z</time></trkpt><trkpt lat="35.4098912" lon="8.9475558"><ele>848.5</ele><time>2026-05-01T11:29:30.454Z</time></trkpt><trkpt lat="35.4099224" lon="8.9474847"><ele>849.3333333333334</ele><time>2026-05-01T11:29:31.411Z</time></trkpt><trkpt lat="35.4099581" lon="8.9473976"><ele>850.1666666666667</ele><time>2026-05-01T11:29:32.4Z</time></trkpt><trkpt lat="35.4099949" lon="8.9473007"><ele>851.0</ele><time>2026-05-01T11:29:33.415Z</time></trkpt><trkpt lat="35.4100285" lon="8.9472049"><ele>851.1999999999999</ele><time>2026-05-01T11:29:34.396Z</time></trkpt><trkpt lat="35.4100676" lon="8.9471009"><ele>851.4</ele><time>2026-05-01T11:29:35.433Z</time></trkpt><trkpt lat="35.4101022" lon="8.9469962"><ele>851.6</ele><time>2026-05-01T11:29:36.452Z</time></trkpt><trkpt lat="35.4101372" lon="8.9468921"><ele>851.8</ele><time>2026-05-01T11:29:37.425Z</time></trkpt><trkpt lat="35.4101757" lon="8.9467905"><ele>852.0</ele><time>2026-05-01T11:29:38.424Z</time></trkpt><trkpt lat="35.410216" lon="8.9466931"><ele>851.4000000000001</ele><time>2026-05-01T11:29:39.423Z</time></trkpt><trkpt lat="35.4102578" lon="8.9465902"><ele>850.8000000000001</ele><time>2026-05-01T11:29:40.442Z</time></trkpt><trkpt lat="35.4102956" lon="8.9464927"><ele>850.2</ele><time>2026-05-01T11:29:41.434Z</time></trkpt><trkpt lat="35.410341" lon="8.946392"><ele>849.6</ele><time>2026-05-01T11:29:42.379Z</time></trkpt><trkpt lat="35.4103925" lon="8.9462936"><ele>849.0</ele><time>2026-05-01T11:29:43.398Z</time></trkpt><trkpt lat="35.4104452" lon="8.9461986"><ele>849.4000000000001</ele><time>2026-05-01T11:29:44.42Z</time></trkpt><trkpt lat="35.4104973" lon="8.9461001"><ele>849.8</ele><time>2026-05-01T11:29:45.442Z</time></trkpt><trkpt lat="35.4105476" lon="8.9460016"><ele>850.2</ele><time>2026-05-01T11:29:46.44Z</time></trkpt><trkpt lat="35.4105994" lon="8.9458987"><ele>850.5999999999999</ele><time>2026-05-01T11:29:47.407Z</time></trkpt><trkpt lat="35.4106508" lon="8.9457995"><ele>851.0</ele><time>2026-05-01T11:29:48.439Z</time></trkpt><trkpt lat="35.4107057" lon="8.9456937"><ele>851.0</ele><time>2026-05-01T11:29:49.431Z</time></trkpt><trkpt lat="35.4107625" lon="8.9455925"><ele>851.0</ele><time>2026-05-01T11:29:50.438Z</time></trkpt><trkpt lat="35.4108177" lon="8.9454867"><ele>851.0</ele><time>2026-05-01T11:29:51.4Z</time></trkpt><trkpt lat="35.4108766" lon="8.9453852"><ele>851.0</ele><time>2026-05-01T11:29:52.408Z</time></trkpt><trkpt lat="35.4109414" lon="8.9452833"><ele>851.0</ele><time>2026-05-01T11:29:53.433Z</time></trkpt><trkpt lat="35.4110032" lon="8.9451811"><ele>851.0</ele><time>2026-05-01T11:29:54.446Z</time></trkpt><trkpt lat="35.4110626" lon="8.9450819"><ele>851.0</ele><time>2026-05-01T11:29:55.42Z</time></trkpt><trkpt lat="35.4111255" lon="8.9449921"><ele>851.0</ele><time>2026-05-01T11:29:56.433Z</time></trkpt><trkpt lat="35.4111938" lon="8.9448987"><ele>851.0</ele><time>2026-05-01T11:29:57.431Z</time></trkpt><trkpt lat="35.4112632" lon="8.9448106"><ele>851.0</ele><time>2026-05-01T11:29:58.435Z</time></trkpt><trkpt lat="35.4113337" lon="8.9447185"><ele>851.4</ele><time>2026-05-01T11:29:59.427Z</time></trkpt><trkpt lat="35.4114073" lon="8.9446313"><ele>851.8</ele><time>2026-05-01T11:30:00.4Z</time></trkpt><trkpt lat="35.4114839" lon="8.9445425"><ele>852.1999999999999</ele><time>2026-05-01T11:30:01.434Z</time></trkpt><trkpt lat="35.4115566" lon="8.9444588"><ele>852.5999999999999</ele><time>2026-05-01T11:30:02.432Z</time></trkpt><trkpt lat="35.4116278" lon="8.9443744"><ele>853.0</ele><time>2026-05-01T11:30:03.442Z</time></trkpt><trkpt lat="35.4116994" lon="8.9442967"><ele>853.0</ele><time>2026-05-01T11:30:04.413Z</time></trkpt><trkpt lat="35.411773" lon="8.9442154"><ele>853.0</ele><time>2026-05-01T11:30:05.441Z</time></trkpt><trkpt lat="35.4118447" lon="8.9441335"><ele>853.0</ele><time>2026-05-01T11:30:06.452Z</time></trkpt><trkpt lat="35.4119207" lon="8.9440508"><ele>853.0</ele><time>2026-05-01T11:30:07.438Z</time></trkpt><trkpt lat="35.4119956" lon="8.9439715"><ele>853.0</ele><time>2026-05-01T11:30:08.437Z</time></trkpt><trkpt lat="35.4120637" lon="8.9438934"><ele>853.1666666666666</ele><time>2026-05-01T11:30:09.439Z</time></trkpt><trkpt lat="35.4121214" lon="8.9438252"><ele>853.3333333333333</ele><time>2026-05-01T11:30:10.415Z</time></trkpt><trkpt lat="35.4121819" lon="8.9437436"><ele>853.5</ele><time>2026-05-01T11:30:11.412Z</time></trkpt><trkpt lat="35.4122441" lon="8.9436743"><ele>853.6666666666667</ele><time>2026-05-01T11:30:12.415Z</time></trkpt><trkpt lat="35.412307" lon="8.9436064"><ele>853.8333333333334</ele><time>2026-05-01T11:30:13.422Z</time></trkpt><trkpt lat="35.4123731" lon="8.943538"><ele>854.0</ele><time>2026-05-01T11:30:14.402Z</time></trkpt><trkpt lat="35.4124425" lon="8.9434629"><ele>854.6</ele><time>2026-05-01T11:30:15.451Z</time></trkpt><trkpt lat="35.412514" lon="8.9433777"><ele>855.2</ele><time>2026-05-01T11:30:16.446Z</time></trkpt><trkpt lat="35.4125904" lon="8.9432901"><ele>855.8000000000001</ele><time>2026-05-01T11:30:17.425Z</time></trkpt><trkpt lat="35.4126706" lon="8.9431945"><ele>856.4000000000001</ele><time>2026-05-01T11:30:18.407Z</time></trkpt><trkpt lat="35.4127494" lon="8.9430951"><ele>857.0</ele><time>2026-05-01T11:30:19.443Z</time></trkpt><trkpt lat="35.4128271" lon="8.9429905"><ele>857.0</ele><time>2026-05-01T11:30:20.444Z</time></trkpt><trkpt lat="35.4128914" lon="8.9428771"><ele>857.0</ele><time>2026-05-01T11:30:21.425Z</time></trkpt><trkpt lat="35.4129373" lon="8.9427634"><ele>857.0</ele><time>2026-05-01T11:30:22.386Z</time></trkpt><trkpt lat="35.4129625" lon="8.9426395"><ele>857.0</ele><time>2026-05-01T11:30:23.441Z</time></trkpt><trkpt lat="35.4129542" lon="8.9425144"><ele>857.0</ele><time>2026-05-01T11:30:24.442Z</time></trkpt><trkpt lat="35.412928" lon="8.9424103"><ele>857.2</ele><time>2026-05-01T11:30:25.44Z</time></trkpt><trkpt lat="35.4128969" lon="8.9423063"><ele>857.4000000000001</ele><time>2026-05-01T11:30:26.393Z</time></trkpt><trkpt lat="35.4128734" lon="8.9421995"><ele>857.5999999999999</ele><time>2026-05-01T11:30:27.437Z</time></trkpt><trkpt lat="35.4128556" lon="8.9420958"><ele>857.8</ele><time>2026-05-01T11:30:28.421Z</time></trkpt><trkpt lat="35.4128379" lon="8.941983"><ele>858.0</ele><time>2026-05-01T11:30:29.435Z</time></trkpt><trkpt lat="35.4128204" lon="8.9418728"><ele>858.0</ele><time>2026-05-01T11:30:30.428Z</time></trkpt><trkpt lat="35.4127944" lon="8.9417634"><ele>858.0</ele><time>2026-05-01T11:30:31.399Z</time></trkpt><trkpt lat="35.4127711" lon="8.9416556"><ele>858.0</ele><time>2026-05-01T11:30:32.408Z</time></trkpt><trkpt lat="35.4127489" lon="8.9415551"><ele>858.0</ele><time>2026-05-01T11:30:33.437Z</time></trkpt><trkpt lat="35.4127337" lon="8.9414511"><ele>858.0</ele><time>2026-05-01T11:30:34.403Z</time></trkpt><trkpt lat="35.4127152" lon="8.9413515"><ele>858.0</ele><time>2026-05-01T11:30:35.411Z</time></trkpt><trkpt lat="35.4126917" lon="8.9412496"><ele>858.5999999999999</ele><time>2026-05-01T11:30:36.384Z</time></trkpt><trkpt lat="35.4126572" lon="8.9411443"><ele>859.1999999999999</ele><time>2026-05-01T11:30:37.386Z</time></trkpt><trkpt lat="35.4126257" lon="8.9410371"><ele>859.8</ele><time>2026-05-01T11:30:38.383Z</time></trkpt><trkpt lat="35.4125945" lon="8.9409298"><ele>860.4</ele><time>2026-05-01T11:30:39.387Z</time></trkpt><trkpt lat="35.4125655" lon="8.9408257"><ele>861.0</ele><time>2026-05-01T11:30:40.379Z</time></trkpt><trkpt lat="35.4125388" lon="8.9407143"><ele>861.8</ele><time>2026-05-01T11:30:41.385Z</time></trkpt><trkpt lat="35.4125167" lon="8.9405968"><ele>862.5999999999999</ele><time>2026-05-01T11:30:42.418Z</time></trkpt><trkpt lat="35.4124946" lon="8.9404824"><ele>863.4</ele><time>2026-05-01T11:30:43.395Z</time></trkpt><trkpt lat="35.4124741" lon="8.940366"><ele>864.2</ele><time>2026-05-01T11:30:44.383Z</time></trkpt><trkpt lat="35.4124549" lon="8.9402505"><ele>865.0</ele><time>2026-05-01T11:30:45.397Z</time></trkpt><trkpt lat="35.4124376" lon="8.9401326"><ele>865.8</ele><time>2026-05-01T11:30:46.375Z</time></trkpt><trkpt lat="35.4124197" lon="8.940009"><ele>866.6</ele><time>2026-05-01T11:30:47.384Z</time></trkpt><trkpt lat="35.4123999" lon="8.9398845"><ele>867.4000000000001</ele><time>2026-05-01T11:30:48.386Z</time></trkpt><trkpt lat="35.4123847" lon="8.9397579"><ele>868.2</ele><time>2026-05-01T11:30:49.386Z</time></trkpt><trkpt lat="35.4123699" lon="8.9396369"><ele>869.0</ele><time>2026-05-01T11:30:50.379Z</time></trkpt><trkpt lat="35.4123582" lon="8.9395133"><ele>869.0</ele><time>2026-05-01T11:30:51.386Z</time></trkpt><trkpt lat="35.412353" lon="8.9393836"><ele>869.0000000000001</ele><time>2026-05-01T11:30:52.38Z</time></trkpt><trkpt lat="35.4123531" lon="8.9392587"><ele>869.0000000000001</ele><time>2026-05-01T11:30:53.387Z</time></trkpt><trkpt lat="35.41235" lon="8.9391339"><ele>869.0</ele><time>2026-05-01T11:30:54.387Z</time></trkpt><trkpt lat="35.4123527" lon="8.9389991"><ele>869.0</ele><time>2026-05-01T11:30:55.408Z</time></trkpt><trkpt lat="35.4123667" lon="8.9388517"><ele>870.5</ele><time>2026-05-01T11:30:56.383Z</time></trkpt><trkpt lat="35.4123845" lon="8.9386999"><ele>872.0</ele><time>2026-05-01T11:30:57.381Z</time></trkpt><trkpt lat="35.4124077" lon="8.9385474"><ele>873.5</ele><time>2026-05-01T11:30:58.372Z</time></trkpt><trkpt lat="35.412436" lon="8.9383977"><ele>875.0</ele><time>2026-05-01T11:30:59.387Z</time></trkpt><trkpt lat="35.4124663" lon="8.9382548"><ele>875.2</ele><time>2026-05-01T11:31:00.381Z</time></trkpt><trkpt lat="35.4124974" lon="8.9381219"><ele>875.4</ele><time>2026-05-01T11:31:01.391Z</time></trkpt><trkpt lat="35.4125351" lon="8.9379964"><ele>875.5999999999999</ele><time>2026-05-01T11:31:02.387Z</time></trkpt><trkpt lat="35.4125764" lon="8.9378749"><ele>875.8</ele><time>2026-05-01T11:31:03.386Z</time></trkpt><trkpt lat="35.4126204" lon="8.9377575"><ele>876.0</ele><time>2026-05-01T11:31:04.385Z</time></trkpt><trkpt lat="35.4126669" lon="8.9376502"><ele>875.75</ele><time>2026-05-01T11:31:05.439Z</time></trkpt><trkpt lat="35.4127331" lon="8.9375372"><ele>875.5</ele><time>2026-05-01T11:31:06.386Z</time></trkpt><trkpt lat="35.4128101" lon="8.9374216"><ele>875.25</ele><time>2026-05-01T11:31:07.38Z</time></trkpt><trkpt lat="35.4128853" lon="8.9373008"><ele>875.0</ele><time>2026-05-01T11:31:08.403Z</time></trkpt><trkpt lat="35.4129649" lon="8.9371704"><ele>875.75</ele><time>2026-05-01T11:31:09.432Z</time></trkpt><trkpt lat="35.413043" lon="8.9370315"><ele>876.5</ele><time>2026-05-01T11:31:10.424Z</time></trkpt><trkpt lat="35.4131077" lon="8.9368956"><ele>877.25</ele><time>2026-05-01T11:31:11.409Z</time></trkpt><trkpt lat="35.4131665" lon="8.9367599"><ele>878.0</ele><time>2026-05-01T11:31:12.454Z</time></trkpt><trkpt lat="35.413221" lon="8.9366225"><ele>878.25</ele><time>2026-05-01T11:31:13.429Z</time></trkpt><trkpt lat="35.4132584" lon="8.9364759"><ele>878.5</ele><time>2026-05-01T11:31:14.44Z</time></trkpt><trkpt lat="35.4132769" lon="8.9363226"><ele>878.75</ele><time>2026-05-01T11:31:15.421Z</time></trkpt><trkpt lat="35.413287" lon="8.9361424"><ele>879.0</ele><time>2026-05-01T11:31:16.438Z</time></trkpt><trkpt lat="35.4132759" lon="8.9359243"><ele>879.3333333333333</ele><time>2026-05-01T11:31:17.414Z</time></trkpt><trkpt lat="35.4132487" lon="8.9356939"><ele>879.6666666666666</ele><time>2026-05-01T11:31:18.383Z</time></trkpt><trkpt lat="35.413224" lon="8.9354708"><ele>880.0</ele><time>2026-05-01T11:31:19.442Z</time></trkpt><trkpt lat="35.4132013" lon="8.9352597"><ele>880.0</ele><time>2026-05-01T11:31:20.446Z</time></trkpt><trkpt lat="35.4131794" lon="8.9350679"><ele>880.0</ele><time>2026-05-01T11:31:21.448Z</time></trkpt><trkpt lat="35.4131606" lon="8.9348802"><ele>880.0</ele><time>2026-05-01T11:31:22.435Z</time></trkpt><trkpt lat="35.4131463" lon="8.9346899"><ele>880.25</ele><time>2026-05-01T11:31:23.418Z</time></trkpt><trkpt lat="35.4131287" lon="8.9345146"><ele>880.5</ele><time>2026-05-01T11:31:24.413Z</time></trkpt><trkpt lat="35.4131164" lon="8.9343355"><ele>880.75</ele><time>2026-05-01T11:31:25.439Z</time></trkpt><trkpt lat="35.4131162" lon="8.9341541"><ele>881.0</ele><time>2026-05-01T11:31:26.434Z</time></trkpt><trkpt lat="35.4131263" lon="8.9339754"><ele>882.0</ele><time>2026-05-01T11:31:27.427Z</time></trkpt><trkpt lat="35.4131539" lon="8.9337983"><ele>883.0</ele><time>2026-05-01T11:31:28.414Z</time></trkpt><trkpt lat="35.4131891" lon="8.9336156"><ele>884.0</ele><time>2026-05-01T11:31:29.431Z</time></trkpt><trkpt lat="35.4132275" lon="8.9334293"><ele>884.3333333333334</ele><time>2026-05-01T11:31:30.408Z</time></trkpt><trkpt lat="35.4132663" lon="8.933242"><ele>884.6666666666667</ele><time>2026-05-01T11:31:31.429Z</time></trkpt><trkpt lat="35.4133061" lon="8.9330539"><ele>885.0</ele><time>2026-05-01T11:31:32.433Z</time></trkpt><trkpt lat="35.4133472" lon="8.9328632"><ele>885.0</ele><time>2026-05-01T11:31:33.429Z</time></trkpt><trkpt lat="35.4133977" lon="8.9326708"><ele>885.0</ele><time>2026-05-01T11:31:34.418Z</time></trkpt><trkpt lat="35.4134476" lon="8.9324826"><ele>885.0</ele><time>2026-05-01T11:31:35.402Z</time></trkpt><trkpt lat="35.4134943" lon="8.9322921"><ele>885.3333333333333</ele><time>2026-05-01T11:31:36.425Z</time></trkpt><trkpt lat="35.4135388" lon="8.9321014"><ele>885.6666666666666</ele><time>2026-05-01T11:31:37.379Z</time></trkpt><trkpt lat="35.413584" lon="8.9319181"><ele>886.0</ele><time>2026-05-01T11:31:38.399Z</time></trkpt><trkpt lat="35.4136278" lon="8.9317399"><ele>886.5</ele><time>2026-05-01T11:31:39.415Z</time></trkpt><trkpt lat="35.4136733" lon="8.9315687"><ele>887.0</ele><time>2026-05-01T11:31:40.387Z</time></trkpt><trkpt lat="35.4137081" lon="8.9314055"><ele>887.5</ele><time>2026-05-01T11:31:41.43Z</time></trkpt><trkpt lat="35.4137439" lon="8.9312425"><ele>888.0</ele><time>2026-05-01T11:31:42.418Z</time></trkpt><trkpt lat="35.4137705" lon="8.9310805"><ele>888.0</ele><time>2026-05-01T11:31:43.394Z</time></trkpt><trkpt lat="35.4137893" lon="8.9309052"><ele>888.0</ele><time>2026-05-01T11:31:44.415Z</time></trkpt><trkpt lat="35.4138033" lon="8.9307323"><ele>888.0</ele><time>2026-05-01T11:31:45.419Z</time></trkpt><trkpt lat="35.4138092" lon="8.9305611"><ele>888.0</ele><time>2026-05-01T11:31:46.425Z</time></trkpt><trkpt lat="35.4138123" lon="8.9303935"><ele>888.0</ele><time>2026-05-01T11:31:47.403Z</time></trkpt><trkpt lat="35.4138161" lon="8.9302183"><ele>888.0</ele><time>2026-05-01T11:31:48.432Z</time></trkpt><trkpt lat="35.413819" lon="8.9300491"><ele>888.0</ele><time>2026-05-01T11:31:49.426Z</time></trkpt><trkpt lat="35.4138205" lon="8.9298716"><ele>888.0</ele><time>2026-05-01T11:31:50.415Z</time></trkpt><trkpt lat="35.4138224" lon="8.9296939"><ele>887.5</ele><time>2026-05-01T11:31:51.446Z</time></trkpt><trkpt lat="35.413823" lon="8.9295181"><ele>887.0</ele><time>2026-05-01T11:31:52.429Z</time></trkpt><trkpt lat="35.4138235" lon="8.9293433"><ele>886.5</ele><time>2026-05-01T11:31:53.423Z</time></trkpt><trkpt lat="35.4138239" lon="8.929167"><ele>886.0</ele><time>2026-05-01T11:31:54.423Z</time></trkpt><trkpt lat="35.4138263" lon="8.9289893"><ele>885.75</ele><time>2026-05-01T11:31:55.456Z</time></trkpt><trkpt lat="35.413831" lon="8.9288198"><ele>885.5</ele><time>2026-05-01T11:31:56.446Z</time></trkpt><trkpt lat="35.4138356" lon="8.9286509"><ele>885.25</ele><time>2026-05-01T11:31:57.425Z</time></trkpt><trkpt lat="35.4138424" lon="8.9284908"><ele>885.0</ele><time>2026-05-01T11:31:58.427Z</time></trkpt><trkpt lat="35.4138446" lon="8.928337"><ele>884.5</ele><time>2026-05-01T11:31:59.416Z</time></trkpt><trkpt lat="35.413852" lon="8.9281933"><ele>884.0</ele><time>2026-05-01T11:32:00.396Z</time></trkpt><trkpt lat="35.4138652" lon="8.928043"><ele>883.5</ele><time>2026-05-01T11:32:01.425Z</time></trkpt><trkpt lat="35.4138802" lon="8.9278993"><ele>883.0</ele><time>2026-05-01T11:32:02.409Z</time></trkpt><trkpt lat="35.4138995" lon="8.9277765"><ele>883.0</ele><time>2026-05-01T11:32:03.415Z</time></trkpt><trkpt lat="35.4139303" lon="8.9276561"><ele>883.0</ele><time>2026-05-01T11:32:04.427Z</time></trkpt><trkpt lat="35.413983" lon="8.927544"><ele>883.0</ele><time>2026-05-01T11:32:05.401Z</time></trkpt><trkpt lat="35.4140513" lon="8.9274449"><ele>883.0</ele><time>2026-05-01T11:32:06.416Z</time></trkpt><trkpt lat="35.414142" lon="8.9273473"><ele>883.0</ele><time>2026-05-01T11:32:07.426Z</time></trkpt><trkpt lat="35.4142454" lon="8.9272632"><ele>883.0</ele><time>2026-05-01T11:32:08.419Z</time></trkpt><trkpt lat="35.4143443" lon="8.927188"><ele>883.0</ele><time>2026-05-01T11:32:09.425Z</time></trkpt><trkpt lat="35.4144518" lon="8.9271103"><ele>883.0</ele><time>2026-05-01T11:32:10.417Z</time></trkpt><trkpt lat="35.4145573" lon="8.9270266"><ele>883.0</ele><time>2026-05-01T11:32:11.4Z</time></trkpt><trkpt lat="35.4146636" lon="8.9269447"><ele>883.0</ele><time>2026-05-01T11:32:12.439Z</time></trkpt><trkpt lat="35.4147697" lon="8.9268668"><ele>883.0</ele><time>2026-05-01T11:32:13.399Z</time></trkpt><trkpt lat="35.4148812" lon="8.926791"><ele>883.0</ele><time>2026-05-01T11:32:14.438Z</time></trkpt><trkpt lat="35.4149879" lon="8.9267151"><ele>883.0</ele><time>2026-05-01T11:32:15.426Z</time></trkpt><trkpt lat="35.4150951" lon="8.9266297"><ele>883.0</ele><time>2026-05-01T11:32:16.44Z</time></trkpt><trkpt lat="35.4152038" lon="8.9265467"><ele>883.0</ele><time>2026-05-01T11:32:17.406Z</time></trkpt><trkpt lat="35.4153097" lon="8.926467"><ele>883.0</ele><time>2026-05-01T11:32:18.438Z</time></trkpt><trkpt lat="35.4154102" lon="8.9263839"><ele>883.0</ele><time>2026-05-01T11:32:19.397Z</time></trkpt><trkpt lat="35.415514" lon="8.9263065"><ele>884.75</ele><time>2026-05-01T11:32:20.433Z</time></trkpt><trkpt lat="35.4156146" lon="8.9262256"><ele>886.5</ele><time>2026-05-01T11:32:21.42Z</time></trkpt><trkpt lat="35.4157157" lon="8.9261368"><ele>888.25</ele><time>2026-05-01T11:32:22.442Z</time></trkpt><trkpt lat="35.4158173" lon="8.9260399"><ele>890.0</ele><time>2026-05-01T11:32:23.436Z</time></trkpt><trkpt lat="35.4159134" lon="8.9259558"><ele>889.6</ele><time>2026-05-01T11:32:24.393Z</time></trkpt><trkpt lat="35.4159991" lon="8.9258841"><ele>889.2</ele><time>2026-05-01T11:32:25.413Z</time></trkpt><trkpt lat="35.4160788" lon="8.9258159"><ele>888.8</ele><time>2026-05-01T11:32:26.408Z</time></trkpt><trkpt lat="35.416161" lon="8.9257521"><ele>888.4</ele><time>2026-05-01T11:32:27.412Z</time></trkpt><trkpt lat="35.4162739" lon="8.9256884"><ele>888.0</ele><time>2026-05-01T11:32:28.397Z</time></trkpt><trkpt lat="35.4163938" lon="8.9256151"><ele>889.6666666666667</ele><time>2026-05-01T11:32:29.423Z</time></trkpt><trkpt lat="35.4165374" lon="8.9255593"><ele>891.3333333333334</ele><time>2026-05-01T11:32:30.416Z</time></trkpt><trkpt lat="35.4166964" lon="8.9255102"><ele>893.0</ele><time>2026-05-01T11:32:31.397Z</time></trkpt><trkpt lat="35.4168737" lon="8.9254651"><ele>893.0</ele><time>2026-05-01T11:32:32.408Z</time></trkpt><trkpt lat="35.4170685" lon="8.9254165"><ele>893.0</ele><time>2026-05-01T11:32:33.397Z</time></trkpt><trkpt lat="35.4172535" lon="8.9253705"><ele>893.0</ele><time>2026-05-01T11:32:34.432Z</time></trkpt><trkpt lat="35.4174358" lon="8.9253232"><ele>895.0</ele><time>2026-05-01T11:32:35.428Z</time></trkpt><trkpt lat="35.4176108" lon="8.9252673"><ele>897.0</ele><time>2026-05-01T11:32:36.446Z</time></trkpt><trkpt lat="35.417773" lon="8.9252067"><ele>899.0</ele><time>2026-05-01T11:32:37.431Z</time></trkpt><trkpt lat="35.4179174" lon="8.9251441"><ele>899.3333333333334</ele><time>2026-05-01T11:32:38.419Z</time></trkpt><trkpt lat="35.4180615" lon="8.925079"><ele>899.6666666666667</ele><time>2026-05-01T11:32:39.385Z</time></trkpt><trkpt lat="35.418213" lon="8.9250127"><ele>900.0</ele><time>2026-05-01T11:32:40.394Z</time></trkpt><trkpt lat="35.4183729" lon="8.9249391"><ele>900.0</ele><time>2026-05-01T11:32:41.418Z</time></trkpt><trkpt lat="35.4185372" lon="8.9248661"><ele>900.0</ele><time>2026-05-01T11:32:42.432Z</time></trkpt><trkpt lat="35.4187029" lon="8.9247995"><ele>900.0</ele><time>2026-05-01T11:32:43.411Z</time></trkpt><trkpt lat="35.4188673" lon="8.9247401"><ele>902.0</ele><time>2026-05-01T11:32:44.422Z</time></trkpt><trkpt lat="35.4190284" lon="8.9246884"><ele>904.0</ele><time>2026-05-01T11:32:45.419Z</time></trkpt><trkpt lat="35.4191912" lon="8.9246345"><ele>906.0</ele><time>2026-05-01T11:32:46.423Z</time></trkpt><trkpt lat="35.4193498" lon="8.9245788"><ele>906.0</ele><time>2026-05-01T11:32:47.394Z</time></trkpt><trkpt lat="35.4195052" lon="8.9245112"><ele>906.0</ele><time>2026-05-01T11:32:48.417Z</time></trkpt><trkpt lat="35.4196542" lon="8.9244437"><ele>906.0</ele><time>2026-05-01T11:32:49.413Z</time></trkpt><trkpt lat="35.4198034" lon="8.924379"><ele>906.6666666666667</ele><time>2026-05-01T11:32:50.405Z</time></trkpt><trkpt lat="35.4199534" lon="8.9243227"><ele>907.3333333333334</ele><time>2026-05-01T11:32:51.404Z</time></trkpt><trkpt lat="35.4201082" lon="8.9242676"><ele>908.0</ele><time>2026-05-01T11:32:52.411Z</time></trkpt><trkpt lat="35.4202625" lon="8.9242182"><ele>908.0</ele><time>2026-05-01T11:32:53.406Z</time></trkpt><trkpt lat="35.4204182" lon="8.9241833"><ele>908.0</ele><time>2026-05-01T11:32:54.413Z</time></trkpt><trkpt lat="35.4205743" lon="8.9241647"><ele>908.0</ele><time>2026-05-01T11:32:55.393Z</time></trkpt><trkpt lat="35.4207332" lon="8.9241556"><ele>908.6666666666667</ele><time>2026-05-01T11:32:56.409Z</time></trkpt><trkpt lat="35.420889" lon="8.9241521"><ele>909.3333333333333</ele><time>2026-05-01T11:32:57.404Z</time></trkpt><trkpt lat="35.4210508" lon="8.9241623"><ele>910.0</ele><time>2026-05-01T11:32:58.401Z</time></trkpt><trkpt lat="35.4211999" lon="8.924162"><ele>912.0</ele><time>2026-05-01T11:32:59.408Z</time></trkpt><trkpt lat="35.4213496" lon="8.9241259"><ele>914.0</ele><time>2026-05-01T11:33:00.398Z</time></trkpt><trkpt lat="35.4214903" lon="8.9240719"><ele>916.0</ele><time>2026-05-01T11:33:01.405Z</time></trkpt><trkpt lat="35.4216242" lon="8.923997"><ele>918.0</ele><time>2026-05-01T11:33:02.418Z</time></trkpt><trkpt lat="35.4217585" lon="8.9239005"><ele>918.0</ele><time>2026-05-01T11:33:03.411Z</time></trkpt><trkpt lat="35.4218854" lon="8.9237931"><ele>918.0</ele><time>2026-05-01T11:33:04.416Z</time></trkpt><trkpt lat="35.4220085" lon="8.9236733"><ele>918.0</ele><time>2026-05-01T11:33:05.425Z</time></trkpt><trkpt lat="35.4221276" lon="8.9235529"><ele>918.3333333333333</ele><time>2026-05-01T11:33:06.411Z</time></trkpt><trkpt lat="35.4222507" lon="8.9234268"><ele>918.6666666666666</ele><time>2026-05-01T11:33:07.406Z</time></trkpt><trkpt lat="35.4223711" lon="8.9233016"><ele>919.0</ele><time>2026-05-01T11:33:08.408Z</time></trkpt><trkpt lat="35.4224889" lon="8.9231772"><ele>919.0</ele><time>2026-05-01T11:33:09.399Z</time></trkpt><trkpt lat="35.4226204" lon="8.9230625"><ele>919.0</ele><time>2026-05-01T11:33:10.408Z</time></trkpt><trkpt lat="35.4228891" lon="8.9228672"><ele>920.5</ele><time>2026-05-01T11:33:12.419Z</time></trkpt><trkpt lat="35.423012" lon="8.9227637"><ele>922.0</ele><time>2026-05-01T11:33:13.414Z</time></trkpt><trkpt lat="35.4231298" lon="8.9226649"><ele>923.5</ele><time>2026-05-01T11:33:14.392Z</time></trkpt><trkpt lat="35.4232567" lon="8.9225644"><ele>925.0</ele><time>2026-05-01T11:33:15.417Z</time></trkpt><trkpt lat="35.42339" lon="8.9224686"><ele>925.0</ele><time>2026-05-01T11:33:16.417Z</time></trkpt><trkpt lat="35.4235227" lon="8.9223661"><ele>925.0</ele><time>2026-05-01T11:33:17.422Z</time></trkpt><trkpt lat="35.4236488" lon="8.9222627"><ele>925.0</ele><time>2026-05-01T11:33:18.425Z</time></trkpt><trkpt lat="35.4237881" lon="8.9221619"><ele>927.0</ele><time>2026-05-01T11:33:19.407Z</time></trkpt><trkpt lat="35.4239249" lon="8.9220701"><ele>929.0</ele><time>2026-05-01T11:33:20.411Z</time></trkpt><trkpt lat="35.4240655" lon="8.9219869"><ele>931.0</ele><time>2026-05-01T11:33:21.41Z</time></trkpt><trkpt lat="35.4242025" lon="8.9219086"><ele>931.0</ele><time>2026-05-01T11:33:22.406Z</time></trkpt><trkpt lat="35.4243411" lon="8.9218344"><ele>931.0</ele><time>2026-05-01T11:33:23.425Z</time></trkpt><trkpt lat="35.4244826" lon="8.921749"><ele>931.0</ele><time>2026-05-01T11:33:24.415Z</time></trkpt><trkpt lat="35.424619" lon="8.9216673"><ele>931.0</ele><time>2026-05-01T11:33:25.411Z</time></trkpt><trkpt lat="35.4247577" lon="8.9215779"><ele>931.0</ele><time>2026-05-01T11:33:26.418Z</time></trkpt><trkpt lat="35.4248949" lon="8.9214894"><ele>931.0</ele><time>2026-05-01T11:33:27.409Z</time></trkpt><trkpt lat="35.4250328" lon="8.9213899"><ele>931.0</ele><time>2026-05-01T11:33:28.406Z</time></trkpt><trkpt lat="35.4251731" lon="8.9212891"><ele>931.0</ele><time>2026-05-01T11:33:29.418Z</time></trkpt><trkpt lat="35.4253133" lon="8.9211784"><ele>931.0</ele><time>2026-05-01T11:33:30.424Z</time></trkpt><trkpt lat="35.4254564" lon="8.9210631"><ele>930.3333333333333</ele><time>2026-05-01T11:33:31.42Z</time></trkpt><trkpt lat="35.4256077" lon="8.9209382"><ele>929.6666666666667</ele><time>2026-05-01T11:33:32.392Z</time></trkpt><trkpt lat="35.4257605" lon="8.9208172"><ele>929.0</ele><time>2026-05-01T11:33:33.421Z</time></trkpt><trkpt lat="35.4259098" lon="8.9206973"><ele>928.0</ele><time>2026-05-01T11:33:34.412Z</time></trkpt><trkpt lat="35.4260508" lon="8.9205829"><ele>927.0</ele><time>2026-05-01T11:33:35.423Z</time></trkpt><trkpt lat="35.4261928" lon="8.9204642"><ele>926.0</ele><time>2026-05-01T11:33:36.401Z</time></trkpt><trkpt lat="35.4263324" lon="8.9203502"><ele>925.3333333333334</ele><time>2026-05-01T11:33:37.407Z</time></trkpt><trkpt lat="35.4264693" lon="8.9202369"><ele>924.6666666666667</ele><time>2026-05-01T11:33:38.431Z</time></trkpt><trkpt lat="35.4266126" lon="8.920132"><ele>924.0</ele><time>2026-05-01T11:33:39.402Z</time></trkpt><trkpt lat="35.4267576" lon="8.9200424"><ele>923.6666666666667</ele><time>2026-05-01T11:33:40.41Z</time></trkpt><trkpt lat="35.4269073" lon="8.9199756"><ele>923.3333333333334</ele><time>2026-05-01T11:33:41.395Z</time></trkpt><trkpt lat="35.4270637" lon="8.9199115"><ele>923.0</ele><time>2026-05-01T11:33:42.4Z</time></trkpt><trkpt lat="35.4272164" lon="8.9198496"><ele>922.0</ele><time>2026-05-01T11:33:43.383Z</time></trkpt><trkpt lat="35.4273727" lon="8.9197919"><ele>921.0</ele><time>2026-05-01T11:33:44.389Z</time></trkpt><trkpt lat="35.427535" lon="8.9197384"><ele>920.0</ele><time>2026-05-01T11:33:45.425Z</time></trkpt><trkpt lat="35.4276943" lon="8.9196855"><ele>920.0</ele><time>2026-05-01T11:33:46.4Z</time></trkpt><trkpt lat="35.4278602" lon="8.9196345"><ele>920.0</ele><time>2026-05-01T11:33:47.419Z</time></trkpt><trkpt lat="35.4280212" lon="8.91958"><ele>920.0</ele><time>2026-05-01T11:33:48.413Z</time></trkpt><trkpt lat="35.42818" lon="8.9195262"><ele>918.6666666666667</ele><time>2026-05-01T11:33:49.421Z</time></trkpt><trkpt lat="35.4283346" lon="8.9194734"><ele>917.3333333333333</ele><time>2026-05-01T11:33:50.416Z</time></trkpt><trkpt lat="35.4284953" lon="8.9194209"><ele>916.0</ele><time>2026-05-01T11:33:51.422Z</time></trkpt><trkpt lat="35.428653" lon="8.9193663"><ele>916.0</ele><time>2026-05-01T11:33:52.398Z</time></trkpt><trkpt lat="35.4288077" lon="8.9193134"><ele>916.0</ele><time>2026-05-01T11:33:53.405Z</time></trkpt><trkpt lat="35.4289609" lon="8.9192734"><ele>916.0</ele><time>2026-05-01T11:33:54.412Z</time></trkpt><trkpt lat="35.4291188" lon="8.9192439"><ele>915.3333333333333</ele><time>2026-05-01T11:33:55.388Z</time></trkpt><trkpt lat="35.4292784" lon="8.9192138"><ele>914.6666666666667</ele><time>2026-05-01T11:33:56.405Z</time></trkpt><trkpt lat="35.4294356" lon="8.9191929"><ele>914.0</ele><time>2026-05-01T11:33:57.42Z</time></trkpt><trkpt lat="35.4295926" lon="8.9191625"><ele>913.6666666666667</ele><time>2026-05-01T11:33:58.417Z</time></trkpt><trkpt lat="35.4297453" lon="8.9191371"><ele>913.3333333333333</ele><time>2026-05-01T11:33:59.4Z</time></trkpt><trkpt lat="35.4298899" lon="8.919101"><ele>913.0</ele><time>2026-05-01T11:34:00.408Z</time></trkpt><trkpt lat="35.4300377" lon="8.9190481"><ele>913.0</ele><time>2026-05-01T11:34:01.407Z</time></trkpt><trkpt lat="35.4301829" lon="8.9189888"><ele>913.0</ele><time>2026-05-01T11:34:02.41Z</time></trkpt><trkpt lat="35.4303348" lon="8.9189202"><ele>913.0</ele><time>2026-05-01T11:34:03.406Z</time></trkpt><trkpt lat="35.4304809" lon="8.9188458"><ele>911.3333333333333</ele><time>2026-05-01T11:34:04.385Z</time></trkpt><trkpt lat="35.4306321" lon="8.9187789"><ele>909.6666666666667</ele><time>2026-05-01T11:34:05.392Z</time></trkpt><trkpt lat="35.430785" lon="8.918702"><ele>908.0</ele><time>2026-05-01T11:34:06.416Z</time></trkpt><trkpt lat="35.4309358" lon="8.9186193"><ele>908.0</ele><time>2026-05-01T11:34:07.413Z</time></trkpt><trkpt lat="35.4310876" lon="8.9185278"><ele>908.0</ele><time>2026-05-01T11:34:08.39Z</time></trkpt><trkpt lat="35.4312402" lon="8.9184305"><ele>908.0</ele><time>2026-05-01T11:34:09.418Z</time></trkpt><trkpt lat="35.4313931" lon="8.9183435"><ele>906.6666666666667</ele><time>2026-05-01T11:34:10.415Z</time></trkpt><trkpt lat="35.4315513" lon="8.9182722"><ele>905.3333333333333</ele><time>2026-05-01T11:34:11.422Z</time></trkpt><trkpt lat="35.431713" lon="8.9182114"><ele>904.0</ele><time>2026-05-01T11:34:12.432Z</time></trkpt><trkpt lat="35.4318755" lon="8.9181616"><ele>904.0</ele><time>2026-05-01T11:34:13.399Z</time></trkpt><trkpt lat="35.4320437" lon="8.9181198"><ele>904.0</ele><time>2026-05-01T11:34:14.426Z</time></trkpt><trkpt lat="35.4322089" lon="8.9180768"><ele>904.0</ele><time>2026-05-01T11:34:15.417Z</time></trkpt><trkpt lat="35.4323795" lon="8.9180203"><ele>902.3333333333333</ele><time>2026-05-01T11:34:16.41Z</time></trkpt><trkpt lat="35.4325364" lon="8.9179555"><ele>900.6666666666667</ele><time>2026-05-01T11:34:17.412Z</time></trkpt><trkpt lat="35.4327014" lon="8.9178755"><ele>899.0</ele><time>2026-05-01T11:34:18.396Z</time></trkpt><trkpt lat="35.4328715" lon="8.9177831"><ele>898.0</ele><time>2026-05-01T11:34:19.424Z</time></trkpt><trkpt lat="35.4330444" lon="8.9176814"><ele>897.0</ele><time>2026-05-01T11:34:20.397Z</time></trkpt><trkpt lat="35.4332198" lon="8.9175836"><ele>896.0</ele><time>2026-05-01T11:34:21.422Z</time></trkpt><trkpt lat="35.4333876" lon="8.9174811"><ele>896.0</ele><time>2026-05-01T11:34:22.407Z</time></trkpt><trkpt lat="35.4335573" lon="8.9173791"><ele>896.0</ele><time>2026-05-01T11:34:23.38Z</time></trkpt><trkpt lat="35.4337226" lon="8.9172846"><ele>896.0</ele><time>2026-05-01T11:34:24.387Z</time></trkpt><trkpt lat="35.4338838" lon="8.9171829"><ele>895.5</ele><time>2026-05-01T11:34:25.373Z</time></trkpt><trkpt lat="35.4341956" lon="8.9169677"><ele>895.0</ele><time>2026-05-01T11:34:27.431Z</time></trkpt><trkpt lat="35.4344873" lon="8.9167451"><ele>891.0</ele><time>2026-05-01T11:34:29.391Z</time></trkpt><trkpt lat="35.4351864" lon="8.9161598"><ele>891.0</ele><time>2026-05-01T11:34:34.407Z</time></trkpt><trkpt lat="35.4353258" lon="8.9160509"><ele>891.0</ele><time>2026-05-01T11:34:35.418Z</time></trkpt><trkpt lat="35.4354646" lon="8.9159509"><ele>891.0</ele><time>2026-05-01T11:34:36.385Z</time></trkpt><trkpt lat="35.4356107" lon="8.915859"><ele>890.0</ele><time>2026-05-01T11:34:37.388Z</time></trkpt><trkpt lat="35.4357575" lon="8.9157714"><ele>889.0</ele><time>2026-05-01T11:34:38.387Z</time></trkpt><trkpt lat="35.4359076" lon="8.91568"><ele>888.0</ele><time>2026-05-01T11:34:39.389Z</time></trkpt><trkpt lat="35.4360596" lon="8.9155918"><ele>888.0</ele><time>2026-05-01T11:34:40.375Z</time></trkpt><trkpt lat="35.4362072" lon="8.9155008"><ele>888.0</ele><time>2026-05-01T11:34:41.415Z</time></trkpt><trkpt lat="35.4363598" lon="8.9154116"><ele>888.0</ele><time>2026-05-01T11:34:42.4Z</time></trkpt><trkpt lat="35.4365075" lon="8.9153223"><ele>887.3333333333333</ele><time>2026-05-01T11:34:43.372Z</time></trkpt><trkpt lat="35.4366554" lon="8.9152396"><ele>886.6666666666666</ele><time>2026-05-01T11:34:44.398Z</time></trkpt><trkpt lat="35.4368044" lon="8.915151"><ele>886.0</ele><time>2026-05-01T11:34:45.388Z</time></trkpt><trkpt lat="35.4369488" lon="8.9150644"><ele>886.0</ele><time>2026-05-01T11:34:46.389Z</time></trkpt><trkpt lat="35.4370946" lon="8.9149801"><ele>886.0</ele><time>2026-05-01T11:34:47.374Z</time></trkpt><trkpt lat="35.4372393" lon="8.9148955"><ele>886.0</ele><time>2026-05-01T11:34:48.386Z</time></trkpt><trkpt lat="35.4373864" lon="8.914815"><ele>885.3333333333333</ele><time>2026-05-01T11:34:49.383Z</time></trkpt><trkpt lat="35.4375286" lon="8.914733"><ele>884.6666666666667</ele><time>2026-05-01T11:34:50.387Z</time></trkpt><trkpt lat="35.4376687" lon="8.9146471"><ele>884.0</ele><time>2026-05-01T11:34:51.382Z</time></trkpt><trkpt lat="35.4378065" lon="8.9145617"><ele>884.0</ele><time>2026-05-01T11:34:52.381Z</time></trkpt><trkpt lat="35.437938" lon="8.9144793"><ele>884.0</ele><time>2026-05-01T11:34:53.376Z</time></trkpt><trkpt lat="35.4380705" lon="8.9144011"><ele>884.0</ele><time>2026-05-01T11:34:54.381Z</time></trkpt><trkpt lat="35.4382036" lon="8.9143174"><ele>884.0</ele><time>2026-05-01T11:34:55.388Z</time></trkpt><trkpt lat="35.4383397" lon="8.9142386"><ele>883.6666666666667</ele><time>2026-05-01T11:34:56.399Z</time></trkpt><trkpt lat="35.4384741" lon="8.914161"><ele>883.3333333333333</ele><time>2026-05-01T11:34:57.383Z</time></trkpt><trkpt lat="35.438608" lon="8.9140793"><ele>883.0</ele><time>2026-05-01T11:34:58.386Z</time></trkpt><trkpt lat="35.4387463" lon="8.9139993"><ele>882.0</ele><time>2026-05-01T11:34:59.392Z</time></trkpt><trkpt lat="35.4388856" lon="8.9139192"><ele>881.0</ele><time>2026-05-01T11:35:00.379Z</time></trkpt><trkpt lat="35.4390236" lon="8.9138388"><ele>880.0</ele><time>2026-05-01T11:35:01.376Z</time></trkpt><trkpt lat="35.4391565" lon="8.9137595"><ele>880.0</ele><time>2026-05-01T11:35:02.38Z</time></trkpt><trkpt lat="35.4392847" lon="8.9136833"><ele>880.0</ele><time>2026-05-01T11:35:03.374Z</time></trkpt><trkpt lat="35.4393896" lon="8.9136166"><ele>880.0</ele><time>2026-05-01T11:35:04.381Z</time></trkpt><trkpt lat="35.4394677" lon="8.9135619"><ele>880.0</ele><time>2026-05-01T11:35:05.381Z</time></trkpt><trkpt lat="35.4395272" lon="8.9135209"><ele>880.0</ele><time>2026-05-01T11:35:06.378Z</time></trkpt><trkpt lat="35.4395883" lon="8.9134931"><ele>879.4</ele><time>2026-05-01T11:35:07.382Z</time></trkpt><trkpt lat="35.4396549" lon="8.9134464"><ele>878.8</ele><time>2026-05-01T11:35:08.436Z</time></trkpt><trkpt lat="35.4397471" lon="8.9133901"><ele>878.2</ele><time>2026-05-01T11:35:09.382Z</time></trkpt><trkpt lat="35.4398552" lon="8.9133311"><ele>877.6</ele><time>2026-05-01T11:35:10.381Z</time></trkpt><trkpt lat="35.4399648" lon="8.913265"><ele>877.0</ele><time>2026-05-01T11:35:11.376Z</time></trkpt><trkpt lat="35.4400801" lon="8.9131953"><ele>877.0</ele><time>2026-05-01T11:35:12.387Z</time></trkpt><trkpt lat="35.4401967" lon="8.9131218"><ele>877.0</ele><time>2026-05-01T11:35:13.379Z</time></trkpt><trkpt lat="35.440315" lon="8.9130493"><ele>877.0</ele><time>2026-05-01T11:35:14.383Z</time></trkpt><trkpt lat="35.440426" lon="8.9129688"><ele>877.0</ele><time>2026-05-01T11:35:15.385Z</time></trkpt><trkpt lat="35.440532" lon="8.9128926"><ele>876.75</ele><time>2026-05-01T11:35:16.386Z</time></trkpt><trkpt lat="35.4406538" lon="8.9128199"><ele>876.5</ele><time>2026-05-01T11:35:17.384Z</time></trkpt><trkpt lat="35.4407872" lon="8.9127435"><ele>876.25</ele><time>2026-05-01T11:35:18.378Z</time></trkpt><trkpt lat="35.4409306" lon="8.9126648"><ele>876.0</ele><time>2026-05-01T11:35:19.377Z</time></trkpt><trkpt lat="35.441072" lon="8.9125753"><ele>875.6666666666667</ele><time>2026-05-01T11:35:20.379Z</time></trkpt><trkpt lat="35.4412114" lon="8.9124844"><ele>875.3333333333334</ele><time>2026-05-01T11:35:21.407Z</time></trkpt><trkpt lat="35.4413467" lon="8.912389"><ele>875.0</ele><time>2026-05-01T11:35:22.425Z</time></trkpt><trkpt lat="35.4414803" lon="8.9122923"><ele>874.75</ele><time>2026-05-01T11:35:23.37Z</time></trkpt><trkpt lat="35.4416112" lon="8.9121992"><ele>874.5</ele><time>2026-05-01T11:35:24.381Z</time></trkpt><trkpt lat="35.441738" lon="8.9121143"><ele>874.25</ele><time>2026-05-01T11:35:25.377Z</time></trkpt><trkpt lat="35.4418656" lon="8.9120222"><ele>874.0</ele><time>2026-05-01T11:35:26.383Z</time></trkpt><trkpt lat="35.4419937" lon="8.9119352"><ele>874.0</ele><time>2026-05-01T11:35:27.373Z</time></trkpt><trkpt lat="35.4421181" lon="8.9118434"><ele>874.0</ele><time>2026-05-01T11:35:28.369Z</time></trkpt><trkpt lat="35.4422418" lon="8.9117454"><ele>874.0</ele><time>2026-05-01T11:35:29.395Z</time></trkpt><trkpt lat="35.4423704" lon="8.9116534"><ele>874.0</ele><time>2026-05-01T11:35:30.379Z</time></trkpt><trkpt lat="35.4424989" lon="8.9115732"><ele>873.5</ele><time>2026-05-01T11:35:31.378Z</time></trkpt><trkpt lat="35.4426192" lon="8.9114923"><ele>873.0</ele><time>2026-05-01T11:35:32.376Z</time></trkpt><trkpt lat="35.4427384" lon="8.9114146"><ele>872.5</ele><time>2026-05-01T11:35:33.383Z</time></trkpt><trkpt lat="35.4428529" lon="8.9113359"><ele>872.0</ele><time>2026-05-01T11:35:34.379Z</time></trkpt><trkpt lat="35.4429672" lon="8.9112512"><ele>871.5</ele><time>2026-05-01T11:35:35.385Z</time></trkpt><trkpt lat="35.4430742" lon="8.9111841"><ele>871.0</ele><time>2026-05-01T11:35:36.374Z</time></trkpt><trkpt lat="35.4431777" lon="8.9111122"><ele>870.5</ele><time>2026-05-01T11:35:37.389Z</time></trkpt><trkpt lat="35.4432849" lon="8.9110361"><ele>870.0</ele><time>2026-05-01T11:35:38.382Z</time></trkpt><trkpt lat="35.4433969" lon="8.9109529"><ele>869.5</ele><time>2026-05-01T11:35:39.38Z</time></trkpt><trkpt lat="35.4435119" lon="8.9108753"><ele>869.0</ele><time>2026-05-01T11:35:40.382Z</time></trkpt><trkpt lat="35.4436257" lon="8.9107968"><ele>868.5</ele><time>2026-05-01T11:35:41.396Z</time></trkpt><trkpt lat="35.4437352" lon="8.9107282"><ele>868.0</ele><time>2026-05-01T11:35:42.386Z</time></trkpt><trkpt lat="35.4438456" lon="8.9106538"><ele>867.4</ele><time>2026-05-01T11:35:43.389Z</time></trkpt><trkpt lat="35.443949" lon="8.9105824"><ele>866.8</ele><time>2026-05-01T11:35:44.379Z</time></trkpt><trkpt lat="35.444053" lon="8.9105155"><ele>866.2</ele><time>2026-05-01T11:35:45.38Z</time></trkpt><trkpt lat="35.4441447" lon="8.9104461"><ele>865.6</ele><time>2026-05-01T11:35:46.381Z</time></trkpt><trkpt lat="35.4442269" lon="8.9103823"><ele>865.0</ele><time>2026-05-01T11:35:47.382Z</time></trkpt><trkpt lat="35.4442928" lon="8.9103218"><ele>865.0</ele><time>2026-05-01T11:35:48.38Z</time></trkpt><trkpt lat="35.4443476" lon="8.9102618"><ele>865.0</ele><time>2026-05-01T11:35:49.38Z</time></trkpt><trkpt lat="35.4443897" lon="8.9101951"><ele>865.0</ele><time>2026-05-01T11:35:50.38Z</time></trkpt><trkpt lat="35.4444279" lon="8.910122"><ele>865.0</ele><time>2026-05-01T11:35:51.381Z</time></trkpt><trkpt lat="35.4444585" lon="8.9100438"><ele>865.0</ele><time>2026-05-01T11:35:52.385Z</time></trkpt><trkpt lat="35.4445" lon="8.9099718"><ele>865.0</ele><time>2026-05-01T11:35:53.387Z</time></trkpt><trkpt lat="35.4445501" lon="8.9099047"><ele>865.0</ele><time>2026-05-01T11:35:54.377Z</time></trkpt><trkpt lat="35.4446098" lon="8.9098597"><ele>865.0</ele><time>2026-05-01T11:35:55.387Z</time></trkpt><trkpt lat="35.4447347" lon="8.9098093"><ele>865.0</ele><time>2026-05-01T11:35:57.4Z</time></trkpt><trkpt lat="35.444809" lon="8.9097974"><ele>865.0</ele><time>2026-05-01T11:35:58.381Z</time></trkpt><trkpt lat="35.4448811" lon="8.9097845"><ele>865.0</ele><time>2026-05-01T11:35:59.401Z</time></trkpt><trkpt lat="35.4449562" lon="8.9097565"><ele>865.0</ele><time>2026-05-01T11:36:00.405Z</time></trkpt><trkpt lat="35.4450566" lon="8.9096912"><ele>865.0</ele><time>2026-05-01T11:36:01.376Z</time></trkpt><trkpt lat="35.445186" lon="8.9096051"><ele>865.0</ele><time>2026-05-01T11:36:02.384Z</time></trkpt><trkpt lat="35.4453242" lon="8.909519"><ele>865.0</ele><time>2026-05-01T11:36:03.391Z</time></trkpt><trkpt lat="35.4454607" lon="8.9094366"><ele>865.25</ele><time>2026-05-01T11:36:04.38Z</time></trkpt><trkpt lat="35.4455896" lon="8.9093602"><ele>865.5</ele><time>2026-05-01T11:36:05.375Z</time></trkpt><trkpt lat="35.4457139" lon="8.9092877"><ele>865.75</ele><time>2026-05-01T11:36:06.383Z</time></trkpt><trkpt lat="35.4458417" lon="8.9092073"><ele>866.0</ele><time>2026-05-01T11:36:07.396Z</time></trkpt><trkpt lat="35.4459648" lon="8.9091386"><ele>866.25</ele><time>2026-05-01T11:36:08.375Z</time></trkpt><trkpt lat="35.446086" lon="8.9090688"><ele>866.5</ele><time>2026-05-01T11:36:09.38Z</time></trkpt><trkpt lat="35.4462022" lon="8.9089992"><ele>866.75</ele><time>2026-05-01T11:36:10.374Z</time></trkpt><trkpt lat="35.4463192" lon="8.9089276"><ele>867.0</ele><time>2026-05-01T11:36:11.374Z</time></trkpt><trkpt lat="35.4464362" lon="8.9088495"><ele>866.5</ele><time>2026-05-01T11:36:12.374Z</time></trkpt><trkpt lat="35.4465516" lon="8.9087763"><ele>866.0</ele><time>2026-05-01T11:36:13.381Z</time></trkpt><trkpt lat="35.4466705" lon="8.9087018"><ele>865.5</ele><time>2026-05-01T11:36:14.383Z</time></trkpt><trkpt lat="35.4467907" lon="8.9086346"><ele>865.0</ele><time>2026-05-01T11:36:15.386Z</time></trkpt><trkpt lat="35.446916" lon="8.9085684"><ele>865.0</ele><time>2026-05-01T11:36:16.401Z</time></trkpt><trkpt lat="35.4470419" lon="8.9085013"><ele>865.0</ele><time>2026-05-01T11:36:17.387Z</time></trkpt><trkpt lat="35.4471685" lon="8.9084345"><ele>865.0</ele><time>2026-05-01T11:36:18.384Z</time></trkpt><trkpt lat="35.4472841" lon="8.9083679"><ele>865.0</ele><time>2026-05-01T11:36:19.382Z</time></trkpt><trkpt lat="35.4473912" lon="8.9083012"><ele>864.9999999999999</ele><time>2026-05-01T11:36:20.379Z</time></trkpt><trkpt lat="35.4474823" lon="8.9082468"><ele>865.0</ele><time>2026-05-01T11:36:21.374Z</time></trkpt><trkpt lat="35.4475682" lon="8.9082063"><ele>865.0</ele><time>2026-05-01T11:36:22.381Z</time></trkpt><trkpt lat="35.4476366" lon="8.9081672"><ele>865.0</ele><time>2026-05-01T11:36:23.387Z</time></trkpt><trkpt lat="35.4477062" lon="8.9081286"><ele>864.9999999999999</ele><time>2026-05-01T11:36:24.385Z</time></trkpt><trkpt lat="35.4477801" lon="8.9080903"><ele>865.0</ele><time>2026-05-01T11:36:25.39Z</time></trkpt><trkpt lat="35.4478652" lon="8.9080522"><ele>864.25</ele><time>2026-05-01T11:36:26.384Z</time></trkpt><trkpt lat="35.4479614" lon="8.9079973"><ele>863.5</ele><time>2026-05-01T11:36:27.372Z</time></trkpt><trkpt lat="35.4480691" lon="8.9079372"><ele>862.75</ele><time>2026-05-01T11:36:28.37Z</time></trkpt><trkpt lat="35.4481867" lon="8.9078787"><ele>862.0</ele><time>2026-05-01T11:36:29.377Z</time></trkpt><trkpt lat="35.4483126" lon="8.907815"><ele>862.0</ele><time>2026-05-01T11:36:30.399Z</time></trkpt><trkpt lat="35.4484439" lon="8.9077513"><ele>862.0</ele><time>2026-05-01T11:36:31.383Z</time></trkpt><trkpt lat="35.4485643" lon="8.9076896"><ele>862.0</ele><time>2026-05-01T11:36:32.376Z</time></trkpt><trkpt lat="35.4486749" lon="8.9076265"><ele>862.0</ele><time>2026-05-01T11:36:33.382Z</time></trkpt><trkpt lat="35.448783" lon="8.9075671"><ele>862.8</ele><time>2026-05-01T11:36:34.384Z</time></trkpt><trkpt lat="35.4488873" lon="8.9075102"><ele>863.6</ele><time>2026-05-01T11:36:35.387Z</time></trkpt><trkpt lat="35.4489936" lon="8.9074535"><ele>864.3999999999999</ele><time>2026-05-01T11:36:36.39Z</time></trkpt><trkpt lat="35.4490961" lon="8.9074007"><ele>865.1999999999999</ele><time>2026-05-01T11:36:37.383Z</time></trkpt><trkpt lat="35.4491924" lon="8.9073533"><ele>866.0</ele><time>2026-05-01T11:36:38.386Z</time></trkpt><trkpt lat="35.4492852" lon="8.90731"><ele>866.0</ele><time>2026-05-01T11:36:39.392Z</time></trkpt><trkpt lat="35.4493849" lon="8.9072663"><ele>865.9999999999999</ele><time>2026-05-01T11:36:40.383Z</time></trkpt><trkpt lat="35.4494917" lon="8.9072275"><ele>865.9999999999999</ele><time>2026-05-01T11:36:41.376Z</time></trkpt><trkpt lat="35.449595" lon="8.9071973"><ele>866.0</ele><time>2026-05-01T11:36:42.376Z</time></trkpt><trkpt lat="35.449698" lon="8.9071774"><ele>866.0</ele><time>2026-05-01T11:36:43.372Z</time></trkpt><trkpt lat="35.4497949" lon="8.9071707"><ele>865.0</ele><time>2026-05-01T11:36:44.472Z</time></trkpt><trkpt lat="35.4499615" lon="8.9071675"><ele>864.0</ele><time>2026-05-01T11:36:46.397Z</time></trkpt><trkpt lat="35.450233" lon="8.907264"><ele>863.0</ele><time>2026-05-01T11:36:50.384Z</time></trkpt><trkpt lat="35.4502912" lon="8.9073091"><ele>863.0</ele><time>2026-05-01T11:36:51.393Z</time></trkpt><trkpt lat="35.4503503" lon="8.9073524"><ele>863.0</ele><time>2026-05-01T11:36:52.38Z</time></trkpt><trkpt lat="35.4504431" lon="8.9074189"><ele>863.0</ele><time>2026-05-01T11:36:54.378Z</time></trkpt><trkpt lat="35.4505455" lon="8.9074804"><ele>863.0</ele><time>2026-05-01T11:36:56.422Z</time></trkpt><trkpt lat="35.450641" lon="8.9075373"><ele>863.0</ele><time>2026-05-01T11:36:58.39Z</time></trkpt><trkpt lat="35.4507327" lon="8.9076015"><ele>862.3333333333334</ele><time>2026-05-01T11:37:00.375Z</time></trkpt><trkpt lat="35.4508361" lon="8.9076717"><ele>861.6666666666667</ele><time>2026-05-01T11:37:02.374Z</time></trkpt><trkpt lat="35.4509007" lon="8.9077102"><ele>861.0</ele><time>2026-05-01T11:37:03.374Z</time></trkpt><trkpt lat="35.450978" lon="8.9077353"><ele>860.3333333333333</ele><time>2026-05-01T11:37:04.374Z</time></trkpt><trkpt lat="35.4510668" lon="8.9077424"><ele>859.6666666666666</ele><time>2026-05-01T11:37:05.384Z</time></trkpt><trkpt lat="35.4511518" lon="8.9077228"><ele>859.0</ele><time>2026-05-01T11:37:06.376Z</time></trkpt><trkpt lat="35.4512299" lon="8.9076886"><ele>859.75</ele><time>2026-05-01T11:37:07.375Z</time></trkpt><trkpt lat="35.4513214" lon="8.9076523"><ele>860.5</ele><time>2026-05-01T11:37:08.383Z</time></trkpt><trkpt lat="35.4514219" lon="8.9075834"><ele>861.25</ele><time>2026-05-01T11:37:09.371Z</time></trkpt><trkpt lat="35.4515376" lon="8.9074997"><ele>862.0</ele><time>2026-05-01T11:37:10.377Z</time></trkpt><trkpt lat="35.4516891" lon="8.9074104"><ele>862.0</ele><time>2026-05-01T11:37:11.403Z</time></trkpt><trkpt lat="35.4518459" lon="8.9073111"><ele>862.0</ele><time>2026-05-01T11:37:12.403Z</time></trkpt><trkpt lat="35.4519915" lon="8.9072159"><ele>862.0</ele><time>2026-05-01T11:37:13.395Z</time></trkpt><trkpt lat="35.4521319" lon="8.9071323"><ele>863.25</ele><time>2026-05-01T11:37:14.398Z</time></trkpt><trkpt lat="35.4522645" lon="8.9070579"><ele>864.5</ele><time>2026-05-01T11:37:15.394Z</time></trkpt><trkpt lat="35.4523953" lon="8.9069863"><ele>865.75</ele><time>2026-05-01T11:37:16.391Z</time></trkpt><trkpt lat="35.4525347" lon="8.9069173"><ele>867.0</ele><time>2026-05-01T11:37:17.399Z</time></trkpt><trkpt lat="35.4534257" lon="8.9065848"><ele>867.3333333333333</ele><time>2026-05-01T11:37:22.395Z</time></trkpt><trkpt lat="35.4536104" lon="8.9065174"><ele>867.6666666666666</ele><time>2026-05-01T11:37:23.389Z</time></trkpt><trkpt lat="35.4537827" lon="8.9064499"><ele>868.0</ele><time>2026-05-01T11:37:24.383Z</time></trkpt><trkpt lat="35.4539444" lon="8.9063818"><ele>868.25</ele><time>2026-05-01T11:37:25.379Z</time></trkpt><trkpt lat="35.454099" lon="8.9063209"><ele>868.5</ele><time>2026-05-01T11:37:26.388Z</time></trkpt><trkpt lat="35.4542328" lon="8.9062596"><ele>868.75</ele><time>2026-05-01T11:37:27.403Z</time></trkpt><trkpt lat="35.4543508" lon="8.9062107"><ele>869.0</ele><time>2026-05-01T11:37:28.456Z</time></trkpt><trkpt lat="35.4544459" lon="8.9061645"><ele>869.0</ele><time>2026-05-01T11:37:29.396Z</time></trkpt><trkpt lat="35.4545278" lon="8.9061341"><ele>869.0000000000001</ele><time>2026-05-01T11:37:30.38Z</time></trkpt><trkpt lat="35.4546063" lon="8.9060854"><ele>869.0000000000001</ele><time>2026-05-01T11:37:31.381Z</time></trkpt><trkpt lat="35.4546818" lon="8.9060167"><ele>869.0</ele><time>2026-05-01T11:37:32.383Z</time></trkpt><trkpt lat="35.4547566" lon="8.905926"><ele>869.0</ele><time>2026-05-01T11:37:33.382Z</time></trkpt><trkpt lat="35.454827" lon="8.9058216"><ele>869.5</ele><time>2026-05-01T11:37:34.376Z</time></trkpt><trkpt lat="35.4549041" lon="8.9057017"><ele>870.0</ele><time>2026-05-01T11:37:35.372Z</time></trkpt><trkpt lat="35.4549755" lon="8.9055733"><ele>870.5</ele><time>2026-05-01T11:37:36.409Z</time></trkpt><trkpt lat="35.4550467" lon="8.9054397"><ele>871.0</ele><time>2026-05-01T11:37:37.381Z</time></trkpt><trkpt lat="35.4551191" lon="8.9053134"><ele>871.0</ele><time>2026-05-01T11:37:38.38Z</time></trkpt><trkpt lat="35.4551883" lon="8.9051756"><ele>871.0</ele><time>2026-05-01T11:37:39.384Z</time></trkpt><trkpt lat="35.4552609" lon="8.9050426"><ele>871.0</ele><time>2026-05-01T11:37:40.391Z</time></trkpt><trkpt lat="35.4553405" lon="8.9048952"><ele>871.0</ele><time>2026-05-01T11:37:41.38Z</time></trkpt><trkpt lat="35.4554194" lon="8.9047525"><ele>871.0</ele><time>2026-05-01T11:37:42.374Z</time></trkpt><trkpt lat="35.4554942" lon="8.9046071"><ele>871.0</ele><time>2026-05-01T11:37:43.386Z</time></trkpt><trkpt lat="35.4555649" lon="8.9044675"><ele>871.0</ele><time>2026-05-01T11:37:44.38Z</time></trkpt><trkpt lat="35.4556385" lon="8.9043236"><ele>871.0</ele><time>2026-05-01T11:37:45.383Z</time></trkpt><trkpt lat="35.4557209" lon="8.90418"><ele>871.5</ele><time>2026-05-01T11:37:46.386Z</time></trkpt><trkpt lat="35.455802" lon="8.9040362"><ele>872.0</ele><time>2026-05-01T11:37:47.384Z</time></trkpt><trkpt lat="35.4558828" lon="8.9038843"><ele>872.5</ele><time>2026-05-01T11:37:48.389Z</time></trkpt><trkpt lat="35.455965" lon="8.9037278"><ele>873.0</ele><time>2026-05-01T11:37:49.402Z</time></trkpt><trkpt lat="35.4560485" lon="8.9035653"><ele>873.3333333333333</ele><time>2026-05-01T11:37:50.377Z</time></trkpt><trkpt lat="35.4561322" lon="8.9034058"><ele>873.6666666666666</ele><time>2026-05-01T11:37:51.377Z</time></trkpt><trkpt lat="35.4562154" lon="8.9032534"><ele>874.0</ele><time>2026-05-01T11:37:52.382Z</time></trkpt><trkpt lat="35.4563032" lon="8.9031021"><ele>874.0</ele><time>2026-05-01T11:37:53.382Z</time></trkpt><trkpt lat="35.4563981" lon="8.9029718"><ele>874.0</ele><time>2026-05-01T11:37:54.375Z</time></trkpt><trkpt lat="35.4565098" lon="8.9028543"><ele>874.0</ele><time>2026-05-01T11:37:55.385Z</time></trkpt><trkpt lat="35.4566267" lon="8.9027509"><ele>874.0</ele><time>2026-05-01T11:37:56.389Z</time></trkpt><trkpt lat="35.4567429" lon="8.9026596"><ele>874.5</ele><time>2026-05-01T11:37:57.38Z</time></trkpt><trkpt lat="35.4568596" lon="8.9025682"><ele>875.0</ele><time>2026-05-01T11:37:58.385Z</time></trkpt><trkpt lat="35.4569727" lon="8.9024737"><ele>875.5</ele><time>2026-05-01T11:37:59.376Z</time></trkpt><trkpt lat="35.4570736" lon="8.9023852"><ele>876.0</ele><time>2026-05-01T11:38:00.379Z</time></trkpt><trkpt lat="35.4571701" lon="8.9022981"><ele>876.0</ele><time>2026-05-01T11:38:01.38Z</time></trkpt><trkpt lat="35.457257" lon="8.9022189"><ele>876.0</ele><time>2026-05-01T11:38:02.381Z</time></trkpt><trkpt lat="35.4573287" lon="8.9021499"><ele>876.0</ele><time>2026-05-01T11:38:03.38Z</time></trkpt><trkpt lat="35.4573972" lon="8.9020831"><ele>876.0</ele><time>2026-05-01T11:38:04.39Z</time></trkpt><trkpt lat="35.4574525" lon="8.9020328"><ele>876.0</ele><time>2026-05-01T11:38:05.389Z</time></trkpt><trkpt lat="35.4575333" lon="8.9019804"><ele>876.0</ele><time>2026-05-01T11:38:07.372Z</time></trkpt><trkpt lat="35.4576128" lon="8.9019173"><ele>876.0</ele><time>2026-05-01T11:38:10.381Z</time></trkpt><trkpt lat="35.4576887" lon="8.9018501"><ele>875.9999999999999</ele><time>2026-05-01T11:38:12.377Z</time></trkpt><trkpt lat="35.4577507" lon="8.9017988"><ele>875.9999999999999</ele><time>2026-05-01T11:38:13.367Z</time></trkpt><trkpt lat="35.4578271" lon="8.9017233"><ele>876.0</ele><time>2026-05-01T11:38:14.38Z</time></trkpt><trkpt lat="35.4579308" lon="8.9016465"><ele>876.0</ele><time>2026-05-01T11:38:15.377Z</time></trkpt><trkpt lat="35.4580398" lon="8.9015626"><ele>876.25</ele><time>2026-05-01T11:38:16.37Z</time></trkpt><trkpt lat="35.4581587" lon="8.9014828"><ele>876.5</ele><time>2026-05-01T11:38:17.383Z</time></trkpt><trkpt lat="35.458275" lon="8.9014111"><ele>876.75</ele><time>2026-05-01T11:38:18.383Z</time></trkpt><trkpt lat="35.4583898" lon="8.9013347"><ele>877.0</ele><time>2026-05-01T11:38:19.416Z</time></trkpt><trkpt lat="35.4584925" lon="8.9012651"><ele>877.0</ele><time>2026-05-01T11:38:20.388Z</time></trkpt><trkpt lat="35.4585763" lon="8.901212"><ele>877.0</ele><time>2026-05-01T11:38:21.378Z</time></trkpt><trkpt lat="35.4586476" lon="8.901166"><ele>877.0</ele><time>2026-05-01T11:38:22.38Z</time></trkpt><trkpt lat="35.4587339" lon="8.9011088"><ele>877.0</ele><time>2026-05-01T11:38:23.38Z</time></trkpt><trkpt lat="35.4588404" lon="8.9010408"><ele>877.0</ele><time>2026-05-01T11:38:24.383Z</time></trkpt><trkpt lat="35.4589524" lon="8.9009653"><ele>877.75</ele><time>2026-05-01T11:38:25.379Z</time></trkpt><trkpt lat="35.4590709" lon="8.9008824"><ele>878.5</ele><time>2026-05-01T11:38:26.386Z</time></trkpt><trkpt lat="35.4591856" lon="8.9008056"><ele>879.25</ele><time>2026-05-01T11:38:27.398Z</time></trkpt><trkpt lat="35.4592922" lon="8.900737"><ele>880.0</ele><time>2026-05-01T11:38:28.377Z</time></trkpt><trkpt lat="35.4593867" lon="8.9006809"><ele>880.0</ele><time>2026-05-01T11:38:29.382Z</time></trkpt><trkpt lat="35.459463" lon="8.9006274"><ele>880.0</ele><time>2026-05-01T11:38:30.381Z</time></trkpt><trkpt lat="35.4595389" lon="8.9005725"><ele>880.0</ele><time>2026-05-01T11:38:31.382Z</time></trkpt><trkpt lat="35.4596147" lon="8.9005252"><ele>880.0</ele><time>2026-05-01T11:38:32.373Z</time></trkpt><trkpt lat="35.4597064" lon="8.9004696"><ele>880.0</ele><time>2026-05-01T11:38:33.383Z</time></trkpt><trkpt lat="35.4598143" lon="8.9004007"><ele>880.25</ele><time>2026-05-01T11:38:34.376Z</time></trkpt><trkpt lat="35.4599229" lon="8.9003249"><ele>880.5</ele><time>2026-05-01T11:38:35.381Z</time></trkpt><trkpt lat="35.4600293" lon="8.9002559"><ele>880.75</ele><time>2026-05-01T11:38:36.412Z</time></trkpt><trkpt lat="35.4601272" lon="8.9001831"><ele>881.0</ele><time>2026-05-01T11:38:37.425Z</time></trkpt><trkpt lat="35.4602156" lon="8.9001184"><ele>881.25</ele><time>2026-05-01T11:38:38.415Z</time></trkpt><trkpt lat="35.4603008" lon="8.900056"><ele>881.5</ele><time>2026-05-01T11:38:39.419Z</time></trkpt><trkpt lat="35.4603941" lon="8.8999847"><ele>881.75</ele><time>2026-05-01T11:38:40.398Z</time></trkpt><trkpt lat="35.4604963" lon="8.8999124"><ele>882.0</ele><time>2026-05-01T11:38:41.391Z</time></trkpt><trkpt lat="35.4606052" lon="8.8998413"><ele>882.0</ele><time>2026-05-01T11:38:42.387Z</time></trkpt><trkpt lat="35.4607195" lon="8.8997659"><ele>882.0</ele><time>2026-05-01T11:38:43.381Z</time></trkpt><trkpt lat="35.4608395" lon="8.8996891"><ele>882.0</ele><time>2026-05-01T11:38:44.375Z</time></trkpt><trkpt lat="35.4609585" lon="8.8996148"><ele>882.0</ele><time>2026-05-01T11:38:45.38Z</time></trkpt><trkpt lat="35.4610758" lon="8.8995328"><ele>882.0</ele><time>2026-05-01T11:38:46.373Z</time></trkpt><trkpt lat="35.4611955" lon="8.8994512"><ele>882.0</ele><time>2026-05-01T11:38:47.37Z</time></trkpt><trkpt lat="35.4613139" lon="8.8993703"><ele>882.0</ele><time>2026-05-01T11:38:48.383Z</time></trkpt><trkpt lat="35.4614421" lon="8.8992921"><ele>882.0</ele><time>2026-05-01T11:38:49.387Z</time></trkpt><trkpt lat="35.4615675" lon="8.8992125"><ele>882.75</ele><time>2026-05-01T11:38:50.376Z</time></trkpt><trkpt lat="35.4616901" lon="8.8991374"><ele>883.5</ele><time>2026-05-01T11:38:51.375Z</time></trkpt><trkpt lat="35.4618026" lon="8.8990727"><ele>884.25</ele><time>2026-05-01T11:38:52.382Z</time></trkpt><trkpt lat="35.4619134" lon="8.8990233"><ele>885.0</ele><time>2026-05-01T11:38:53.383Z</time></trkpt><trkpt lat="35.4620155" lon="8.8989801"><ele>885.0</ele><time>2026-05-01T11:38:54.385Z</time></trkpt><trkpt lat="35.4620968" lon="8.8989554"><ele>885.0</ele><time>2026-05-01T11:38:55.375Z</time></trkpt><trkpt lat="35.4621972" lon="8.8989218"><ele>885.0</ele><time>2026-05-01T11:38:57.377Z</time></trkpt><trkpt lat="35.4623273" lon="8.8988766"><ele>885.0</ele><time>2026-05-01T11:38:59.374Z</time></trkpt><trkpt lat="35.4624409" lon="8.8988543"><ele>885.0</ele><time>2026-05-01T11:39:00.378Z</time></trkpt><trkpt lat="35.4625589" lon="8.8988198"><ele>885.0</ele><time>2026-05-01T11:39:01.382Z</time></trkpt><trkpt lat="35.4626776" lon="8.8987851"><ele>885.0</ele><time>2026-05-01T11:39:02.399Z</time></trkpt><trkpt lat="35.4627985" lon="8.8987597"><ele>885.0</ele><time>2026-05-01T11:39:03.372Z</time></trkpt><trkpt lat="35.4629179" lon="8.8987354"><ele>885.0</ele><time>2026-05-01T11:39:04.384Z</time></trkpt><trkpt lat="35.4630256" lon="8.8987091"><ele>885.0</ele><time>2026-05-01T11:39:05.376Z</time></trkpt><trkpt lat="35.4631264" lon="8.8986776"><ele>885.0</ele><time>2026-05-01T11:39:06.38Z</time></trkpt><trkpt lat="35.4632261" lon="8.8986524"><ele>885.0</ele><time>2026-05-01T11:39:07.385Z</time></trkpt><trkpt lat="35.4633253" lon="8.8986131"><ele>885.0</ele><time>2026-05-01T11:39:08.367Z</time></trkpt><trkpt lat="35.4634182" lon="8.8985701"><ele>885.0</ele><time>2026-05-01T11:39:09.387Z</time></trkpt><trkpt lat="35.4635174" lon="8.8985275"><ele>885.0</ele><time>2026-05-01T11:39:10.371Z</time></trkpt><trkpt lat="35.4636143" lon="8.8984774"><ele>885.0</ele><time>2026-05-01T11:39:11.382Z</time></trkpt><trkpt lat="35.4637017" lon="8.8984334"><ele>885.0</ele><time>2026-05-01T11:39:12.377Z</time></trkpt><trkpt lat="35.4637868" lon="8.8983905"><ele>885.0</ele><time>2026-05-01T11:39:13.381Z</time></trkpt><trkpt lat="35.4638666" lon="8.8983578"><ele>885.0</ele><time>2026-05-01T11:39:14.384Z</time></trkpt><trkpt lat="35.4639422" lon="8.8983287"><ele>885.5714285714286</ele><time>2026-05-01T11:39:15.383Z</time></trkpt><trkpt lat="35.4640098" lon="8.8982937"><ele>886.1428571428571</ele><time>2026-05-01T11:39:16.39Z</time></trkpt><trkpt lat="35.4640794" lon="8.8982598"><ele>886.7142857142858</ele><time>2026-05-01T11:39:17.382Z</time></trkpt><trkpt lat="35.4641494" lon="8.8982223"><ele>887.2857142857142</ele><time>2026-05-01T11:39:18.379Z</time></trkpt><trkpt lat="35.4642187" lon="8.8981872"><ele>887.8571428571429</ele><time>2026-05-01T11:39:19.384Z</time></trkpt><trkpt lat="35.464293" lon="8.8981602"><ele>888.4285714285714</ele><time>2026-05-01T11:39:20.386Z</time></trkpt><trkpt lat="35.46436" lon="8.8981349"><ele>889.0</ele><time>2026-05-01T11:39:21.379Z</time></trkpt><trkpt lat="35.4644196" lon="8.8981033"><ele>888.9999999999999</ele><time>2026-05-01T11:39:22.39Z</time></trkpt><trkpt lat="35.464481" lon="8.8980806"><ele>889.0</ele><time>2026-05-01T11:39:23.378Z</time></trkpt><trkpt lat="35.4646117" lon="8.8980534"><ele>889.0</ele><time>2026-05-01T11:39:25.373Z</time></trkpt><trkpt lat="35.4646798" lon="8.8980381"><ele>889.0</ele><time>2026-05-01T11:39:26.384Z</time></trkpt><trkpt lat="35.4647524" lon="8.8980096"><ele>888.9999999999999</ele><time>2026-05-01T11:39:27.381Z</time></trkpt><trkpt lat="35.46483" lon="8.8979773"><ele>889.0</ele><time>2026-05-01T11:39:28.375Z</time></trkpt><trkpt lat="35.4649082" lon="8.8979455"><ele>889.0</ele><time>2026-05-01T11:39:29.368Z</time></trkpt><trkpt lat="35.4649935" lon="8.897914"><ele>889.0000000000001</ele><time>2026-05-01T11:39:30.376Z</time></trkpt><trkpt lat="35.4650824" lon="8.8978808"><ele>889.0000000000001</ele><time>2026-05-01T11:39:31.382Z</time></trkpt><trkpt lat="35.4651743" lon="8.8978506"><ele>889.0</ele><time>2026-05-01T11:39:32.376Z</time></trkpt><trkpt lat="35.4652689" lon="8.8978221"><ele>889.0</ele><time>2026-05-01T11:39:33.369Z</time></trkpt><trkpt lat="35.4653563" lon="8.8977809"><ele>888.8000000000001</ele><time>2026-05-01T11:39:34.369Z</time></trkpt><trkpt lat="35.4654498" lon="8.897728"><ele>888.6000000000001</ele><time>2026-05-01T11:39:35.402Z</time></trkpt><trkpt lat="35.465544" lon="8.8976745"><ele>888.4</ele><time>2026-05-01T11:39:36.369Z</time></trkpt><trkpt lat="35.4656341" lon="8.8976085"><ele>888.2</ele><time>2026-05-01T11:39:37.369Z</time></trkpt><trkpt lat="35.465719" lon="8.8975423"><ele>888.0</ele><time>2026-05-01T11:39:38.388Z</time></trkpt><trkpt lat="35.4657986" lon="8.8974652"><ele>888.4</ele><time>2026-05-01T11:39:39.375Z</time></trkpt><trkpt lat="35.4658712" lon="8.8973807"><ele>888.8</ele><time>2026-05-01T11:39:40.382Z</time></trkpt><trkpt lat="35.4659384" lon="8.8972943"><ele>889.2</ele><time>2026-05-01T11:39:41.381Z</time></trkpt><trkpt lat="35.4660012" lon="8.8972107"><ele>889.6</ele><time>2026-05-01T11:39:42.364Z</time></trkpt><trkpt lat="35.4660611" lon="8.8971312"><ele>890.0</ele><time>2026-05-01T11:39:43.387Z</time></trkpt><trkpt lat="35.4661166" lon="8.8970601"><ele>890.0</ele><time>2026-05-01T11:39:44.38Z</time></trkpt><trkpt lat="35.4661684" lon="8.8969934"><ele>890.0</ele><time>2026-05-01T11:39:45.377Z</time></trkpt><trkpt lat="35.46623" lon="8.8969236"><ele>890.0</ele><time>2026-05-01T11:39:46.389Z</time></trkpt><trkpt lat="35.4663117" lon="8.8968187"><ele>890.0</ele><time>2026-05-01T11:39:47.378Z</time></trkpt><trkpt lat="35.4664016" lon="8.8967011"><ele>890.0</ele><time>2026-05-01T11:39:48.374Z</time></trkpt><trkpt lat="35.4664942" lon="8.8965788"><ele>890.6</ele><time>2026-05-01T11:39:49.368Z</time></trkpt><trkpt lat="35.4665744" lon="8.8964601"><ele>891.2</ele><time>2026-05-01T11:39:50.388Z</time></trkpt><trkpt lat="35.466649" lon="8.8963602"><ele>891.8</ele><time>2026-05-01T11:39:51.387Z</time></trkpt><trkpt lat="35.466717" lon="8.8962787"><ele>892.4</ele><time>2026-05-01T11:39:52.39Z</time></trkpt><trkpt lat="35.4667764" lon="8.8962076"><ele>893.0</ele><time>2026-05-01T11:39:53.418Z</time></trkpt><trkpt lat="35.4668314" lon="8.8961282"><ele>893.0</ele><time>2026-05-01T11:39:54.365Z</time></trkpt><trkpt lat="35.4669017" lon="8.8960188"><ele>893.0</ele><time>2026-05-01T11:39:55.375Z</time></trkpt><trkpt lat="35.4669992" lon="8.8958917"><ele>893.0</ele><time>2026-05-01T11:39:56.372Z</time></trkpt><trkpt lat="35.4670988" lon="8.8957571"><ele>893.0</ele><time>2026-05-01T11:39:57.408Z</time></trkpt><trkpt lat="35.4673006" lon="8.8954993"><ele>893.5</ele><time>2026-05-01T11:39:59.384Z</time></trkpt><trkpt lat="35.4674942" lon="8.8952584"><ele>894.0</ele><time>2026-05-01T11:40:01.378Z</time></trkpt><trkpt lat="35.467681" lon="8.89501"><ele>894.25</ele><time>2026-05-01T11:40:03.372Z</time></trkpt><trkpt lat="35.4677753" lon="8.8948844"><ele>894.5</ele><time>2026-05-01T11:40:04.38Z</time></trkpt><trkpt lat="35.4678668" lon="8.8947524"><ele>894.75</ele><time>2026-05-01T11:40:05.407Z</time></trkpt><trkpt lat="35.4679569" lon="8.8946295"><ele>895.0</ele><time>2026-05-01T11:40:06.37Z</time></trkpt><trkpt lat="35.4680492" lon="8.8944946"><ele>895.25</ele><time>2026-05-01T11:40:07.402Z</time></trkpt><trkpt lat="35.4681423" lon="8.8943535"><ele>895.5</ele><time>2026-05-01T11:40:08.376Z</time></trkpt><trkpt lat="35.4682265" lon="8.8942154"><ele>895.75</ele><time>2026-05-01T11:40:09.404Z</time></trkpt><trkpt lat="35.4683045" lon="8.8940843"><ele>896.0</ele><time>2026-05-01T11:40:10.402Z</time></trkpt><trkpt lat="35.4683786" lon="8.8939545"><ele>896.0</ele><time>2026-05-01T11:40:11.367Z</time></trkpt><trkpt lat="35.4684408" lon="8.8938385"><ele>895.9999999999999</ele><time>2026-05-01T11:40:12.394Z</time></trkpt><trkpt lat="35.4684955" lon="8.8937186"><ele>895.9999999999999</ele><time>2026-05-01T11:40:13.388Z</time></trkpt><trkpt lat="35.4685518" lon="8.8936044"><ele>896.0</ele><time>2026-05-01T11:40:14.385Z</time></trkpt><trkpt lat="35.4686087" lon="8.8934889"><ele>896.0</ele><time>2026-05-01T11:40:15.379Z</time></trkpt><trkpt lat="35.4686659" lon="8.8933759"><ele>896.5</ele><time>2026-05-01T11:40:16.382Z</time></trkpt><trkpt lat="35.4687195" lon="8.8932486"><ele>897.0</ele><time>2026-05-01T11:40:17.381Z</time></trkpt><trkpt lat="35.4687804" lon="8.8930978"><ele>897.5</ele><time>2026-05-01T11:40:18.382Z</time></trkpt><trkpt lat="35.4688434" lon="8.8929284"><ele>898.0</ele><time>2026-05-01T11:40:19.381Z</time></trkpt><trkpt lat="35.4689156" lon="8.8927497"><ele>898.6666666666666</ele><time>2026-05-01T11:40:20.379Z</time></trkpt><trkpt lat="35.469004" lon="8.8925607"><ele>899.3333333333333</ele><time>2026-05-01T11:40:21.382Z</time></trkpt><trkpt lat="35.4690915" lon="8.8923715"><ele>900.0</ele><time>2026-05-01T11:40:22.384Z</time></trkpt><trkpt lat="35.4691718" lon="8.892185"><ele>900.0</ele><time>2026-05-01T11:40:23.388Z</time></trkpt><trkpt lat="35.4692553" lon="8.8920016"><ele>900.0</ele><time>2026-05-01T11:40:24.377Z</time></trkpt><trkpt lat="35.4693346" lon="8.8918189"><ele>900.0</ele><time>2026-05-01T11:40:25.39Z</time></trkpt><trkpt lat="35.4694157" lon="8.8916317"><ele>900.6666666666667</ele><time>2026-05-01T11:40:26.405Z</time></trkpt><trkpt lat="35.4694976" lon="8.8914407"><ele>901.3333333333334</ele><time>2026-05-01T11:40:27.368Z</time></trkpt><trkpt lat="35.4695777" lon="8.8912382"><ele>902.0</ele><time>2026-05-01T11:40:28.373Z</time></trkpt><trkpt lat="35.4696659" lon="8.8910175"><ele>902.6666666666667</ele><time>2026-05-01T11:40:29.381Z</time></trkpt><trkpt lat="35.4697662" lon="8.8907808"><ele>903.3333333333333</ele><time>2026-05-01T11:40:30.382Z</time></trkpt><trkpt lat="35.4698819" lon="8.8905448"><ele>904.0</ele><time>2026-05-01T11:40:31.375Z</time></trkpt><trkpt lat="35.4699956" lon="8.890323"><ele>904.0</ele><time>2026-05-01T11:40:32.377Z</time></trkpt><trkpt lat="35.4701073" lon="8.8900991"><ele>904.0</ele><time>2026-05-01T11:40:33.378Z</time></trkpt><trkpt lat="35.4702296" lon="8.8898686"><ele>904.0</ele><time>2026-05-01T11:40:34.377Z</time></trkpt><trkpt lat="35.4703628" lon="8.8896322"><ele>904.0</ele><time>2026-05-01T11:40:35.379Z</time></trkpt><trkpt lat="35.4704943" lon="8.8894059"><ele>904.0</ele><time>2026-05-01T11:40:36.374Z</time></trkpt><trkpt lat="35.4706195" lon="8.8891954"><ele>904.0</ele><time>2026-05-01T11:40:37.383Z</time></trkpt><trkpt lat="35.4707346" lon="8.8889998"><ele>905.6666666666666</ele><time>2026-05-01T11:40:38.393Z</time></trkpt><trkpt lat="35.4708444" lon="8.8888178"><ele>907.3333333333333</ele><time>2026-05-01T11:40:39.383Z</time></trkpt><trkpt lat="35.4709502" lon="8.8886383"><ele>909.0</ele><time>2026-05-01T11:40:40.379Z</time></trkpt><trkpt lat="35.471053" lon="8.8884556"><ele>909.6666666666667</ele><time>2026-05-01T11:40:41.382Z</time></trkpt><trkpt lat="35.4711556" lon="8.8882774"><ele>910.3333333333334</ele><time>2026-05-01T11:40:42.389Z</time></trkpt><trkpt lat="35.4712543" lon="8.8881114"><ele>911.0</ele><time>2026-05-01T11:40:43.381Z</time></trkpt><trkpt lat="35.4713441" lon="8.8879452"><ele>911.75</ele><time>2026-05-01T11:40:44.373Z</time></trkpt><trkpt lat="35.4714224" lon="8.8877846"><ele>912.5</ele><time>2026-05-01T11:40:45.371Z</time></trkpt><trkpt lat="35.4715003" lon="8.8876333"><ele>913.25</ele><time>2026-05-01T11:40:46.387Z</time></trkpt><trkpt lat="35.4715765" lon="8.8874928"><ele>914.0</ele><time>2026-05-01T11:40:47.386Z</time></trkpt><trkpt lat="35.4716476" lon="8.8873572"><ele>914.4000000000001</ele><time>2026-05-01T11:40:48.371Z</time></trkpt><trkpt lat="35.4717178" lon="8.8872387"><ele>914.8000000000001</ele><time>2026-05-01T11:40:49.376Z</time></trkpt><trkpt lat="35.4717955" lon="8.8871386"><ele>915.1999999999999</ele><time>2026-05-01T11:40:50.373Z</time></trkpt><trkpt lat="35.4718787" lon="8.8870521"><ele>915.5999999999999</ele><time>2026-05-01T11:40:51.418Z</time></trkpt><trkpt lat="35.4719704" lon="8.8869862"><ele>916.0</ele><time>2026-05-01T11:40:52.374Z</time></trkpt><trkpt lat="35.4720708" lon="8.8869319"><ele>915.9999999999999</ele><time>2026-05-01T11:40:53.377Z</time></trkpt><trkpt lat="35.4721667" lon="8.8868846"><ele>916.0</ele><time>2026-05-01T11:40:54.38Z</time></trkpt><trkpt lat="35.4722576" lon="8.8868392"><ele>916.0</ele><time>2026-05-01T11:40:55.376Z</time></trkpt><trkpt lat="35.4723391" lon="8.8868023"><ele>916.0</ele><time>2026-05-01T11:40:56.376Z</time></trkpt><trkpt lat="35.4724134" lon="8.8867696"><ele>915.9999999999999</ele><time>2026-05-01T11:40:57.374Z</time></trkpt><trkpt lat="35.4724791" lon="8.8867423"><ele>916.0</ele><time>2026-05-01T11:40:58.373Z</time></trkpt><trkpt lat="35.4725404" lon="8.8867221"><ele>915.9999999999999</ele><time>2026-05-01T11:40:59.376Z</time></trkpt><trkpt lat="35.4726334" lon="8.886667"><ele>916.0</ele><time>2026-05-01T11:41:01.385Z</time></trkpt><trkpt lat="35.4726842" lon="8.8866178"><ele>916.0</ele><time>2026-05-01T11:41:02.385Z</time></trkpt><trkpt lat="35.4727529" lon="8.8865641"><ele>916.0</ele><time>2026-05-01T11:41:03.378Z</time></trkpt><trkpt lat="35.4728336" lon="8.886515"><ele>915.9999999999999</ele><time>2026-05-01T11:41:04.376Z</time></trkpt><trkpt lat="35.4729355" lon="8.8864654"><ele>916.0</ele><time>2026-05-01T11:41:05.402Z</time></trkpt><trkpt lat="35.4730617" lon="8.8864032"><ele>916.5</ele><time>2026-05-01T11:41:06.381Z</time></trkpt><trkpt lat="35.4731938" lon="8.88633"><ele>917.0</ele><time>2026-05-01T11:41:07.383Z</time></trkpt><trkpt lat="35.4733187" lon="8.8862492"><ele>917.5</ele><time>2026-05-01T11:41:08.375Z</time></trkpt><trkpt lat="35.4734324" lon="8.8861746"><ele>918.0</ele><time>2026-05-01T11:41:09.37Z</time></trkpt><trkpt lat="35.4735399" lon="8.8861052"><ele>918.0</ele><time>2026-05-01T11:41:10.373Z</time></trkpt><trkpt lat="35.4736505" lon="8.8860372"><ele>918.0</ele><time>2026-05-01T11:41:11.39Z</time></trkpt><trkpt lat="35.4737497" lon="8.8859744"><ele>918.0</ele><time>2026-05-01T11:41:12.385Z</time></trkpt><trkpt lat="35.4738427" lon="8.8859158"><ele>918.0</ele><time>2026-05-01T11:41:13.385Z</time></trkpt><trkpt lat="35.4739271" lon="8.8858636"><ele>918.0</ele><time>2026-05-01T11:41:14.375Z</time></trkpt><trkpt lat="35.4740069" lon="8.8858087"><ele>918.8</ele><time>2026-05-01T11:41:15.379Z</time></trkpt><trkpt lat="35.4740916" lon="8.8857583"><ele>919.5999999999999</ele><time>2026-05-01T11:41:16.372Z</time></trkpt><trkpt lat="35.4741845" lon="8.8857073"><ele>920.4000000000001</ele><time>2026-05-01T11:41:17.379Z</time></trkpt><trkpt lat="35.4742798" lon="8.8856503"><ele>921.2</ele><time>2026-05-01T11:41:18.386Z</time></trkpt><trkpt lat="35.4743762" lon="8.8855804"><ele>922.0</ele><time>2026-05-01T11:41:19.366Z</time></trkpt><trkpt lat="35.474471" lon="8.8855187"><ele>922.0</ele><time>2026-05-01T11:41:20.385Z</time></trkpt><trkpt lat="35.474565" lon="8.885462"><ele>922.0</ele><time>2026-05-01T11:41:21.371Z</time></trkpt><trkpt lat="35.4746532" lon="8.8854016"><ele>922.0</ele><time>2026-05-01T11:41:22.371Z</time></trkpt><trkpt lat="35.4747445" lon="8.8853503"><ele>922.0</ele><time>2026-05-01T11:41:23.374Z</time></trkpt><trkpt lat="35.4748342" lon="8.885298"><ele>922.0</ele><time>2026-05-01T11:41:24.377Z</time></trkpt><trkpt lat="35.4749302" lon="8.8852544"><ele>922.0</ele><time>2026-05-01T11:41:25.381Z</time></trkpt><trkpt lat="35.4750264" lon="8.8852084"><ele>922.0</ele><time>2026-05-01T11:41:26.374Z</time></trkpt><trkpt lat="35.4751249" lon="8.8851618"><ele>922.0</ele><time>2026-05-01T11:41:27.37Z</time></trkpt><trkpt lat="35.4752287" lon="8.8851228"><ele>922.0</ele><time>2026-05-01T11:41:28.372Z</time></trkpt><trkpt lat="35.4753382" lon="8.8850855"><ele>922.0</ele><time>2026-05-01T11:41:29.386Z</time></trkpt><trkpt lat="35.4754502" lon="8.8850635"><ele>922.5</ele><time>2026-05-01T11:41:30.376Z</time></trkpt><trkpt lat="35.4755706" lon="8.8850522"><ele>923.0</ele><time>2026-05-01T11:41:31.392Z</time></trkpt><trkpt lat="35.4756894" lon="8.8850424"><ele>923.5</ele><time>2026-05-01T11:41:32.375Z</time></trkpt><trkpt lat="35.4757988" lon="8.8850389"><ele>924.0</ele><time>2026-05-01T11:41:33.373Z</time></trkpt><trkpt lat="35.4759005" lon="8.8850412"><ele>924.0</ele><time>2026-05-01T11:41:34.394Z</time></trkpt><trkpt lat="35.476001" lon="8.8850469"><ele>924.0</ele><time>2026-05-01T11:41:35.382Z</time></trkpt><trkpt lat="35.4760988" lon="8.8850488"><ele>924.0</ele><time>2026-05-01T11:41:36.378Z</time></trkpt><trkpt lat="35.4729355" lon="8.8864654"><ele>922.5</ele><time>2026-05-01T11:41:05.402Z</time></trkpt><trkpt lat="35.4730617" lon="8.8864032"><ele>921.0</ele><time>2026-05-01T11:41:06.381Z</time></trkpt><trkpt lat="35.4731938" lon="8.88633"><ele>919.5</ele><time>2026-05-01T11:41:07.383Z</time></trkpt><trkpt lat="35.4733187" lon="8.8862492"><ele>918.0</ele><time>2026-05-01T11:41:08.375Z</time></trkpt><trkpt lat="35.4734324" lon="8.8861746"><ele>918.0</ele><time>2026-05-01T11:41:09.37Z</time></trkpt><trkpt lat="35.4735399" lon="8.8861052"><ele>918.0</ele><time>2026-05-01T11:41:10.373Z</time></trkpt><trkpt lat="35.4736505" lon="8.8860372"><ele>918.0</ele><time>2026-05-01T11:41:11.39Z</time></trkpt><trkpt lat="35.4737497" lon="8.8859744"><ele>918.0</ele><time>2026-05-01T11:41:12.385Z</time></trkpt><trkpt lat="35.4738427" lon="8.8859158"><ele>918.8</ele><time>2026-05-01T11:41:13.385Z</time></trkpt><trkpt lat="35.4739271" lon="8.8858636"><ele>919.5999999999999</ele><time>2026-05-01T11:41:14.375Z</time></trkpt><trkpt lat="35.4740069" lon="8.8858087"><ele>920.4000000000001</ele><time>2026-05-01T11:41:15.379Z</time></trkpt><trkpt lat="35.4740916" lon="8.8857583"><ele>921.2</ele><time>2026-05-01T11:41:16.372Z</time></trkpt><trkpt lat="35.4741845" lon="8.8857073"><ele>922.0</ele><time>2026-05-01T11:41:17.379Z</time></trkpt><trkpt lat="35.4742798" lon="8.8856503"><ele>922.0</ele><time>2026-05-01T11:41:18.386Z</time></trkpt><trkpt lat="35.4743762" lon="8.8855804"><ele>922.0</ele><time>2026-05-01T11:41:19.366Z</time></trkpt><trkpt lat="35.474471" lon="8.8855187"><ele>922.0</ele><time>2026-05-01T11:41:20.385Z</time></trkpt><trkpt lat="35.474565" lon="8.885462"><ele>922.0</ele><time>2026-05-01T11:41:21.371Z</time></trkpt><trkpt lat="35.4746532" lon="8.8854016"><ele>922.0</ele><time>2026-05-01T11:41:22.371Z</time></trkpt><trkpt lat="35.4747445" lon="8.8853503"><ele>922.0</ele><time>2026-05-01T11:41:23.374Z</time></trkpt><trkpt lat="35.4748342" lon="8.885298"><ele>922.0</ele><time>2026-05-01T11:41:24.377Z</time></trkpt><trkpt lat="35.4749302" lon="8.8852544"><ele>922.0</ele><time>2026-05-01T11:41:25.381Z</time></trkpt><trkpt lat="35.4750264" lon="8.8852084"><ele>922.0</ele><time>2026-05-01T11:41:26.374Z</time></trkpt><trkpt lat="35.4751249" lon="8.8851618"><ele>922.0</ele><time>2026-05-01T11:41:27.37Z</time></trkpt><trkpt lat="35.4752287" lon="8.8851228"><ele>922.5</ele><time>2026-05-01T11:41:28.372Z</time></trkpt><trkpt lat="35.4753382" lon="8.8850855"><ele>923.0</ele><time>2026-05-01T11:41:29.386Z</time></trkpt><trkpt lat="35.4754502" lon="8.8850635"><ele>923.5</ele><time>2026-05-01T11:41:30.376Z</time></trkpt><trkpt lat="35.4755706" lon="8.8850522"><ele>924.0</ele><time>2026-05-01T11:41:31.392Z</time></trkpt><trkpt lat="35.4756894" lon="8.8850424"><ele>924.0</ele><time>2026-05-01T11:41:32.375Z</time></trkpt><trkpt lat="35.4757988" lon="8.8850389"><ele>924.0000000000001</ele><time>2026-05-01T11:41:33.373Z</time></trkpt><trkpt lat="35.4759005" lon="8.8850412"><ele>924.0000000000001</ele><time>2026-05-01T11:41:34.394Z</time></trkpt><trkpt lat="35.476001" lon="8.8850469"><ele>924.0</ele><time>2026-05-01T11:41:35.382Z</time></trkpt><trkpt lat="35.4760988" lon="8.8850488"><ele>924.0</ele><time>2026-05-01T11:41:36.378Z</time></trkpt><trkpt lat="35.4761916" lon="8.8850548"><ele>923.8000000000001</ele><time>2026-05-01T11:41:37.386Z</time></trkpt><trkpt lat="35.4762892" lon="8.8850634"><ele>923.6000000000001</ele><time>2026-05-01T11:41:38.372Z</time></trkpt><trkpt lat="35.4763871" lon="8.8850738"><ele>923.4</ele><time>2026-05-01T11:41:39.368Z</time></trkpt><trkpt lat="35.476482" lon="8.8850837"><ele>923.2</ele><time>2026-05-01T11:41:40.38Z</time></trkpt><trkpt lat="35.4765747" lon="8.885091"><ele>923.0</ele><time>2026-05-01T11:41:41.385Z</time></trkpt><trkpt lat="35.4766656" lon="8.8850961"><ele>922.3333333333334</ele><time>2026-05-01T11:41:42.375Z</time></trkpt><trkpt lat="35.4767493" lon="8.8851011"><ele>921.6666666666667</ele><time>2026-05-01T11:41:43.381Z</time></trkpt><trkpt lat="35.4768266" lon="8.8851065"><ele>921.0</ele><time>2026-05-01T11:41:44.376Z</time></trkpt><trkpt lat="35.4769029" lon="8.8851105"><ele>920.3333333333333</ele><time>2026-05-01T11:41:45.384Z</time></trkpt><trkpt lat="35.4769719" lon="8.8851184"><ele>919.6666666666666</ele><time>2026-05-01T11:41:46.4Z</time></trkpt><trkpt lat="35.4770402" lon="8.8851221"><ele>919.0</ele><time>2026-05-01T11:41:47.376Z</time></trkpt><trkpt lat="35.4771605" lon="8.8851204"><ele>919.0</ele><time>2026-05-01T11:41:49.381Z</time></trkpt><trkpt lat="35.4772714" lon="8.8851163"><ele>919.0000000000001</ele><time>2026-05-01T11:41:51.378Z</time></trkpt><trkpt lat="35.477381" lon="8.88511"><ele>919.0000000000001</ele><time>2026-05-01T11:41:53.383Z</time></trkpt><trkpt lat="35.4774854" lon="8.8851028"><ele>919.0</ele><time>2026-05-01T11:41:55.382Z</time></trkpt><trkpt lat="35.4775643" lon="8.8850989"><ele>919.0</ele><time>2026-05-01T11:41:57.374Z</time></trkpt><trkpt lat="35.4776437" lon="8.8850992"><ele>919.0</ele><time>2026-05-01T11:41:59.378Z</time></trkpt><trkpt lat="35.4777578" lon="8.885108"><ele>919.0000000000001</ele><time>2026-05-01T11:42:01.393Z</time></trkpt><trkpt lat="35.4778394" lon="8.8851013"><ele>919.0000000000001</ele><time>2026-05-01T11:42:02.38Z</time></trkpt><trkpt lat="35.4779241" lon="8.8850967"><ele>919.0</ele><time>2026-05-01T11:42:03.375Z</time></trkpt><trkpt lat="35.4780314" lon="8.8851097"><ele>919.0</ele><time>2026-05-01T11:42:04.38Z</time></trkpt><trkpt lat="35.4781698" lon="8.8851243"><ele>920.0</ele><time>2026-05-01T11:42:05.376Z</time></trkpt><trkpt lat="35.4782976" lon="8.8851317"><ele>921.0</ele><time>2026-05-01T11:42:06.37Z</time></trkpt><trkpt lat="35.4784302" lon="8.885138"><ele>922.0</ele><time>2026-05-01T11:42:07.376Z</time></trkpt><trkpt lat="35.4785567" lon="8.8851439"><ele>923.0</ele><time>2026-05-01T11:42:08.379Z</time></trkpt><trkpt lat="35.4786823" lon="8.8851474"><ele>923.0</ele><time>2026-05-01T11:42:09.38Z</time></trkpt><trkpt lat="35.4788074" lon="8.88516"><ele>923.0</ele><time>2026-05-01T11:42:10.375Z</time></trkpt><trkpt lat="35.478936" lon="8.885165"><ele>923.0</ele><time>2026-05-01T11:42:11.383Z</time></trkpt><trkpt lat="35.4790625" lon="8.8851715"><ele>923.0</ele><time>2026-05-01T11:42:12.396Z</time></trkpt><trkpt lat="35.4791855" lon="8.8851748"><ele>923.0</ele><time>2026-05-01T11:42:13.386Z</time></trkpt><trkpt lat="35.4793104" lon="8.8851681"><ele>923.0</ele><time>2026-05-01T11:42:14.38Z</time></trkpt><trkpt lat="35.4794327" lon="8.8851562"><ele>923.0</ele><time>2026-05-01T11:42:15.386Z</time></trkpt><trkpt lat="35.479549" lon="8.8851311"><ele>923.0</ele><time>2026-05-01T11:42:16.362Z</time></trkpt><trkpt lat="35.4796701" lon="8.885107"><ele>925.0</ele><time>2026-05-01T11:42:17.382Z</time></trkpt><trkpt lat="35.4797914" lon="8.8850695"><ele>927.0</ele><time>2026-05-01T11:42:18.389Z</time></trkpt><trkpt lat="35.479921" lon="8.8850337"><ele>929.0</ele><time>2026-05-01T11:42:19.418Z</time></trkpt><trkpt lat="35.4800445" lon="8.8850011"><ele>931.0</ele><time>2026-05-01T11:42:20.433Z</time></trkpt><trkpt lat="35.4801733" lon="8.8849588"><ele>931.0</ele><time>2026-05-01T11:42:21.41Z</time></trkpt><trkpt lat="35.4803103" lon="8.8849125"><ele>931.0</ele><time>2026-05-01T11:42:22.387Z</time></trkpt><trkpt lat="35.4804541" lon="8.8848685"><ele>931.0</ele><time>2026-05-01T11:42:23.411Z</time></trkpt><trkpt lat="35.4805988" lon="8.8848133"><ele>931.0</ele><time>2026-05-01T11:42:24.426Z</time></trkpt><trkpt lat="35.4807513" lon="8.884759"><ele>932.3333333333333</ele><time>2026-05-01T11:42:25.408Z</time></trkpt><trkpt lat="35.480902" lon="8.884692"><ele>933.6666666666667</ele><time>2026-05-01T11:42:26.389Z</time></trkpt><trkpt lat="35.4810523" lon="8.884627"><ele>935.0</ele><time>2026-05-01T11:42:27.376Z</time></trkpt><trkpt lat="35.4812003" lon="8.8845646"><ele>934.3333333333334</ele><time>2026-05-01T11:42:28.391Z</time></trkpt><trkpt lat="35.4813449" lon="8.8845021"><ele>933.6666666666667</ele><time>2026-05-01T11:42:29.373Z</time></trkpt><trkpt lat="35.4814911" lon="8.8844408"><ele>933.0</ele><time>2026-05-01T11:42:30.376Z</time></trkpt><trkpt lat="35.4816337" lon="8.8843821"><ele>933.0</ele><time>2026-05-01T11:42:31.372Z</time></trkpt><trkpt lat="35.4817701" lon="8.8843213"><ele>933.0</ele><time>2026-05-01T11:42:32.369Z</time></trkpt><trkpt lat="35.4819055" lon="8.8842668"><ele>933.0</ele><time>2026-05-01T11:42:33.379Z</time></trkpt><trkpt lat="35.4820389" lon="8.8842117"><ele>933.0</ele><time>2026-05-01T11:42:34.374Z</time></trkpt><trkpt lat="35.4821712" lon="8.8841564"><ele>934.25</ele><time>2026-05-01T11:42:35.379Z</time></trkpt><trkpt lat="35.4823099" lon="8.8840956"><ele>935.5</ele><time>2026-05-01T11:42:36.381Z</time></trkpt><trkpt lat="35.4824421" lon="8.8840384"><ele>936.75</ele><time>2026-05-01T11:42:37.38Z</time></trkpt><trkpt lat="35.4825778" lon="8.8839834"><ele>938.0</ele><time>2026-05-01T11:42:38.376Z</time></trkpt><trkpt lat="35.482715" lon="8.8839268"><ele>938.0</ele><time>2026-05-01T11:42:39.369Z</time></trkpt><trkpt lat="35.4828525" lon="8.883875"><ele>938.0</ele><time>2026-05-01T11:42:40.373Z</time></trkpt><trkpt lat="35.4830008" lon="8.8838359"><ele>938.0</ele><time>2026-05-01T11:42:41.378Z</time></trkpt><trkpt lat="35.4831526" lon="8.8838017"><ele>938.3333333333334</ele><time>2026-05-01T11:42:42.378Z</time></trkpt><trkpt lat="35.4833162" lon="8.8837702"><ele>938.6666666666667</ele><time>2026-05-01T11:42:43.379Z</time></trkpt><trkpt lat="35.4834779" lon="8.8837358"><ele>939.0</ele><time>2026-05-01T11:42:44.404Z</time></trkpt><trkpt lat="35.4836473" lon="8.8837076"><ele>940.0</ele><time>2026-05-01T11:42:45.387Z</time></trkpt><trkpt lat="35.4838158" lon="8.8836756"><ele>941.0</ele><time>2026-05-01T11:42:46.376Z</time></trkpt><trkpt lat="35.483988" lon="8.8836396"><ele>942.0</ele><time>2026-05-01T11:42:47.372Z</time></trkpt><trkpt lat="35.4841581" lon="8.8836068"><ele>942.0</ele><time>2026-05-01T11:42:48.381Z</time></trkpt><trkpt lat="35.4843297" lon="8.8835731"><ele>942.0</ele><time>2026-05-01T11:42:49.398Z</time></trkpt><trkpt lat="35.4844957" lon="8.8835399"><ele>942.0</ele><time>2026-05-01T11:42:50.374Z</time></trkpt><trkpt lat="35.4846649" lon="8.883505"><ele>943.6666666666667</ele><time>2026-05-01T11:42:51.372Z</time></trkpt><trkpt lat="35.4848246" lon="8.8834698"><ele>945.3333333333334</ele><time>2026-05-01T11:42:52.381Z</time></trkpt><trkpt lat="35.4849776" lon="8.8834346"><ele>947.0</ele><time>2026-05-01T11:42:53.385Z</time></trkpt><trkpt lat="35.4851363" lon="8.8834006"><ele>947.0</ele><time>2026-05-01T11:42:54.383Z</time></trkpt><trkpt lat="35.4852939" lon="8.8833655"><ele>947.0</ele><time>2026-05-01T11:42:55.377Z</time></trkpt><trkpt lat="35.4854478" lon="8.8833336"><ele>947.0</ele><time>2026-05-01T11:42:56.366Z</time></trkpt><trkpt lat="35.4855997" lon="8.8833063"><ele>949.0</ele><time>2026-05-01T11:42:57.372Z</time></trkpt><trkpt lat="35.4857528" lon="8.8832739"><ele>951.0</ele><time>2026-05-01T11:42:58.368Z</time></trkpt><trkpt lat="35.485903" lon="8.8832422"><ele>953.0</ele><time>2026-05-01T11:42:59.363Z</time></trkpt><trkpt lat="35.4860522" lon="8.8832069"><ele>953.0</ele><time>2026-05-01T11:43:00.371Z</time></trkpt><trkpt lat="35.4862016" lon="8.8831707"><ele>953.0</ele><time>2026-05-01T11:43:01.379Z</time></trkpt><trkpt lat="35.4863432" lon="8.8831221"><ele>953.0</ele><time>2026-05-01T11:43:02.386Z</time></trkpt><trkpt lat="35.4864851" lon="8.8830694"><ele>953.0</ele><time>2026-05-01T11:43:03.379Z</time></trkpt><trkpt lat="35.4866192" lon="8.8830049"><ele>954.0</ele><time>2026-05-01T11:43:04.39Z</time></trkpt><trkpt lat="35.4867596" lon="8.8829427"><ele>955.0</ele><time>2026-05-01T11:43:05.382Z</time></trkpt><trkpt lat="35.4868912" lon="8.8828751"><ele>956.0</ele><time>2026-05-01T11:43:06.38Z</time></trkpt><trkpt lat="35.4870268" lon="8.8828117"><ele>957.0</ele><time>2026-05-01T11:43:07.371Z</time></trkpt><trkpt lat="35.4871605" lon="8.8827445"><ele>957.6666666666667</ele><time>2026-05-01T11:43:08.383Z</time></trkpt><trkpt lat="35.4872981" lon="8.8826775"><ele>958.3333333333334</ele><time>2026-05-01T11:43:09.383Z</time></trkpt><trkpt lat="35.4874387" lon="8.8826072"><ele>959.0</ele><time>2026-05-01T11:43:10.372Z</time></trkpt><trkpt lat="35.4875798" lon="8.8825446"><ele>959.6666666666667</ele><time>2026-05-01T11:43:11.381Z</time></trkpt><trkpt lat="35.4877241" lon="8.8824827"><ele>960.3333333333333</ele><time>2026-05-01T11:43:12.378Z</time></trkpt><trkpt lat="35.4878669" lon="8.882422"><ele>961.0</ele><time>2026-05-01T11:43:13.37Z</time></trkpt><trkpt lat="35.4880076" lon="8.8823592"><ele>961.5</ele><time>2026-05-01T11:43:14.373Z</time></trkpt><trkpt lat="35.4881467" lon="8.8822929"><ele>962.0</ele><time>2026-05-01T11:43:15.373Z</time></trkpt><trkpt lat="35.4882834" lon="8.8822305"><ele>962.5</ele><time>2026-05-01T11:43:16.37Z</time></trkpt><trkpt lat="35.4884197" lon="8.8821662"><ele>963.0</ele><time>2026-05-01T11:43:17.399Z</time></trkpt><trkpt lat="35.4885562" lon="8.8821117"><ele>963.0</ele><time>2026-05-01T11:43:18.378Z</time></trkpt><trkpt lat="35.4886899" lon="8.8820528"><ele>963.0</ele><time>2026-05-01T11:43:19.381Z</time></trkpt><trkpt lat="35.4888238" lon="8.8819842"><ele>963.0</ele><time>2026-05-01T11:43:20.386Z</time></trkpt><trkpt lat="35.4889593" lon="8.881903"><ele>963.0</ele><time>2026-05-01T11:43:21.384Z</time></trkpt><trkpt lat="35.4890937" lon="8.8818193"><ele>964.5</ele><time>2026-05-01T11:43:22.378Z</time></trkpt><trkpt lat="35.4892241" lon="8.8817288"><ele>966.0</ele><time>2026-05-01T11:43:23.381Z</time></trkpt><trkpt lat="35.4893599" lon="8.8816508"><ele>967.5</ele><time>2026-05-01T11:43:24.383Z</time></trkpt><trkpt lat="35.4894944" lon="8.881574"><ele>969.0</ele><time>2026-05-01T11:43:25.373Z</time></trkpt><trkpt lat="35.4896281" lon="8.8815133"><ele>970.0</ele><time>2026-05-01T11:43:26.371Z</time></trkpt><trkpt lat="35.489766" lon="8.8814773"><ele>971.0</ele><time>2026-05-01T11:43:27.372Z</time></trkpt><trkpt lat="35.4899104" lon="8.8814504"><ele>972.0</ele><time>2026-05-01T11:43:28.365Z</time></trkpt><trkpt lat="35.4900603" lon="8.881429"><ele>973.0</ele><time>2026-05-01T11:43:29.366Z</time></trkpt><trkpt lat="35.4902042" lon="8.8814164"><ele>973.0</ele><time>2026-05-01T11:43:30.373Z</time></trkpt><trkpt lat="35.4903467" lon="8.8814074"><ele>973.0</ele><time>2026-05-01T11:43:31.371Z</time></trkpt><trkpt lat="35.4904947" lon="8.8814076"><ele>973.0</ele><time>2026-05-01T11:43:32.38Z</time></trkpt><trkpt lat="35.4906436" lon="8.8814209"><ele>973.0</ele><time>2026-05-01T11:43:33.373Z</time></trkpt><trkpt lat="35.4907817" lon="8.8814449"><ele>973.5</ele><time>2026-05-01T11:43:34.378Z</time></trkpt><trkpt lat="35.4909145" lon="8.8814785"><ele>974.0</ele><time>2026-05-01T11:43:35.378Z</time></trkpt><trkpt lat="35.4910355" lon="8.881512"><ele>974.5</ele><time>2026-05-01T11:43:36.382Z</time></trkpt><trkpt lat="35.4911498" lon="8.8815313"><ele>975.0</ele><time>2026-05-01T11:43:37.386Z</time></trkpt><trkpt lat="35.4912552" lon="8.8815358"><ele>975.6</ele><time>2026-05-01T11:43:38.369Z</time></trkpt><trkpt lat="35.4913508" lon="8.8815199"><ele>976.2</ele><time>2026-05-01T11:43:39.363Z</time></trkpt><trkpt lat="35.4914399" lon="8.8814757"><ele>976.8</ele><time>2026-05-01T11:43:40.379Z</time></trkpt><trkpt lat="35.4915349" lon="8.8814215"><ele>977.4</ele><time>2026-05-01T11:43:41.373Z</time></trkpt><trkpt lat="35.4916283" lon="8.8813639"><ele>978.0</ele><time>2026-05-01T11:43:42.391Z</time></trkpt><trkpt lat="35.4917294" lon="8.8812933"><ele>978.0</ele><time>2026-05-01T11:43:43.387Z</time></trkpt><trkpt lat="35.4918284" lon="8.8812153"><ele>978.0</ele><time>2026-05-01T11:43:44.388Z</time></trkpt><trkpt lat="35.4919215" lon="8.881123"><ele>978.0</ele><time>2026-05-01T11:43:45.411Z</time></trkpt><trkpt lat="35.4920043" lon="8.8810197"><ele>978.0</ele><time>2026-05-01T11:43:46.366Z</time></trkpt><trkpt lat="35.4920838" lon="8.8809067"><ele>978.75</ele><time>2026-05-01T11:43:47.368Z</time></trkpt><trkpt lat="35.4921518" lon="8.880772"><ele>979.5</ele><time>2026-05-01T11:43:48.371Z</time></trkpt><trkpt lat="35.4922024" lon="8.8806253"><ele>980.25</ele><time>2026-05-01T11:43:49.369Z</time></trkpt><trkpt lat="35.4922379" lon="8.8804693"><ele>981.0</ele><time>2026-05-01T11:43:50.375Z</time></trkpt><trkpt lat="35.4922583" lon="8.8803113"><ele>981.0</ele><time>2026-05-01T11:43:51.392Z</time></trkpt><trkpt lat="35.4922706" lon="8.8801502"><ele>981.0</ele><time>2026-05-01T11:43:52.374Z</time></trkpt><trkpt lat="35.4922918" lon="8.8799901"><ele>981.0</ele><time>2026-05-01T11:43:53.381Z</time></trkpt><trkpt lat="35.4923024" lon="8.8798226"><ele>981.0</ele><time>2026-05-01T11:43:54.377Z</time></trkpt><trkpt lat="35.4923147" lon="8.8796506"><ele>982.3333333333333</ele><time>2026-05-01T11:43:55.371Z</time></trkpt><trkpt lat="35.4923202" lon="8.8794666"><ele>983.6666666666666</ele><time>2026-05-01T11:43:56.378Z</time></trkpt><trkpt lat="35.4923219" lon="8.87927"><ele>985.0</ele><time>2026-05-01T11:43:57.372Z</time></trkpt><trkpt lat="35.4923192" lon="8.8790623"><ele>986.0</ele><time>2026-05-01T11:43:58.375Z</time></trkpt><trkpt lat="35.4923123" lon="8.878858"><ele>987.0</ele><time>2026-05-01T11:43:59.365Z</time></trkpt><trkpt lat="35.4923011" lon="8.8786531"><ele>988.0</ele><time>2026-05-01T11:44:00.372Z</time></trkpt><trkpt lat="35.4922768" lon="8.8784459"><ele>988.0</ele><time>2026-05-01T11:44:01.364Z</time></trkpt><trkpt lat="35.4922492" lon="8.8782307"><ele>988.0</ele><time>2026-05-01T11:44:02.39Z</time></trkpt><trkpt lat="35.4922156" lon="8.8780092"><ele>988.0</ele><time>2026-05-01T11:44:03.374Z</time></trkpt><trkpt lat="35.4921758" lon="8.8777905"><ele>986.6666666666666</ele><time>2026-05-01T11:44:04.383Z</time></trkpt><trkpt lat="35.4921347" lon="8.8775689"><ele>985.3333333333333</ele><time>2026-05-01T11:44:05.385Z</time></trkpt><trkpt lat="35.492096" lon="8.877351"><ele>984.0</ele><time>2026-05-01T11:44:06.374Z</time></trkpt><trkpt lat="35.4920554" lon="8.877142"><ele>983.0</ele><time>2026-05-01T11:44:07.389Z</time></trkpt><trkpt lat="35.4920166" lon="8.8769295"><ele>982.0</ele><time>2026-05-01T11:44:08.387Z</time></trkpt><trkpt lat="35.49198" lon="8.8767251"><ele>981.0</ele><time>2026-05-01T11:44:09.383Z</time></trkpt><trkpt lat="35.491942" lon="8.8765246"><ele>980.3333333333333</ele><time>2026-05-01T11:44:10.375Z</time></trkpt><trkpt lat="35.4919093" lon="8.8763323"><ele>979.6666666666666</ele><time>2026-05-01T11:44:11.386Z</time></trkpt><trkpt lat="35.4918788" lon="8.8761408"><ele>979.0</ele><time>2026-05-01T11:44:12.37Z</time></trkpt><trkpt lat="35.4918486" lon="8.875952"><ele>978.3333333333333</ele><time>2026-05-01T11:44:13.376Z</time></trkpt><trkpt lat="35.491813" lon="8.875773"><ele>977.6666666666667</ele><time>2026-05-01T11:44:14.377Z</time></trkpt><trkpt lat="35.4917799" lon="8.8755906"><ele>977.0</ele><time>2026-05-01T11:44:15.384Z</time></trkpt><trkpt lat="35.4917465" lon="8.8754127"><ele>977.0</ele><time>2026-05-01T11:44:16.384Z</time></trkpt><trkpt lat="35.4917091" lon="8.875233"><ele>977.0</ele><time>2026-05-01T11:44:17.382Z</time></trkpt><trkpt lat="35.4916747" lon="8.8750493"><ele>977.0</ele><time>2026-05-01T11:44:18.374Z</time></trkpt><trkpt lat="35.4916404" lon="8.8748618"><ele>977.6666666666667</ele><time>2026-05-01T11:44:19.379Z</time></trkpt><trkpt lat="35.4916043" lon="8.8746739"><ele>978.3333333333333</ele><time>2026-05-01T11:44:20.381Z</time></trkpt><trkpt lat="35.4915723" lon="8.8744809"><ele>979.0</ele><time>2026-05-01T11:44:21.376Z</time></trkpt><trkpt lat="35.491535" lon="8.8742806"><ele>978.6666666666666</ele><time>2026-05-01T11:44:22.389Z</time></trkpt><trkpt lat="35.4915029" lon="8.8740874"><ele>978.3333333333333</ele><time>2026-05-01T11:44:23.375Z</time></trkpt><trkpt lat="35.4914731" lon="8.8738969"><ele>978.0</ele><time>2026-05-01T11:44:24.38Z</time></trkpt><trkpt lat="35.4914374" lon="8.873708"><ele>978.0</ele><time>2026-05-01T11:44:25.382Z</time></trkpt><trkpt lat="35.4913994" lon="8.8735173"><ele>978.0</ele><time>2026-05-01T11:44:26.38Z</time></trkpt><trkpt lat="35.491356" lon="8.8733285"><ele>978.0</ele><time>2026-05-01T11:44:27.37Z</time></trkpt><trkpt lat="35.4913164" lon="8.8731408"><ele>977.3333333333333</ele><time>2026-05-01T11:44:28.381Z</time></trkpt><trkpt lat="35.4912752" lon="8.8729547"><ele>976.6666666666666</ele><time>2026-05-01T11:44:29.384Z</time></trkpt><trkpt lat="35.4912336" lon="8.8727669"><ele>976.0</ele><time>2026-05-01T11:44:30.372Z</time></trkpt><trkpt lat="35.4911928" lon="8.8725813"><ele>975.0</ele><time>2026-05-01T11:44:31.382Z</time></trkpt><trkpt lat="35.4911466" lon="8.8723983"><ele>974.0</ele><time>2026-05-01T11:44:32.372Z</time></trkpt><trkpt lat="35.4911022" lon="8.8722164"><ele>973.0</ele><time>2026-05-01T11:44:33.383Z</time></trkpt><trkpt lat="35.4910576" lon="8.872041"><ele>973.0</ele><time>2026-05-01T11:44:34.373Z</time></trkpt><trkpt lat="35.4910116" lon="8.8718571"><ele>973.0</ele><time>2026-05-01T11:44:35.384Z</time></trkpt><trkpt lat="35.4909659" lon="8.8716761"><ele>973.0</ele><time>2026-05-01T11:44:36.377Z</time></trkpt><trkpt lat="35.4909173" lon="8.8714859"><ele>974.6666666666666</ele><time>2026-05-01T11:44:37.373Z</time></trkpt><trkpt lat="35.4908773" lon="8.8712981"><ele>976.3333333333333</ele><time>2026-05-01T11:44:38.446Z</time></trkpt><trkpt lat="35.4908413" lon="8.8711073"><ele>978.0</ele><time>2026-05-01T11:44:39.378Z</time></trkpt><trkpt lat="35.4908093" lon="8.8709163"><ele>978.25</ele><time>2026-05-01T11:44:40.379Z</time></trkpt><trkpt lat="35.4907816" lon="8.8707245"><ele>978.5</ele><time>2026-05-01T11:44:41.375Z</time></trkpt><trkpt lat="35.4907581" lon="8.8705452"><ele>978.75</ele><time>2026-05-01T11:44:42.378Z</time></trkpt><trkpt lat="35.4907388" lon="8.870375"><ele>979.0</ele><time>2026-05-01T11:44:43.366Z</time></trkpt><trkpt lat="35.4907228" lon="8.8702013"><ele>979.25</ele><time>2026-05-01T11:44:44.368Z</time></trkpt><trkpt lat="35.4907129" lon="8.8700231"><ele>979.5</ele><time>2026-05-01T11:44:45.378Z</time></trkpt><trkpt lat="35.4907113" lon="8.8698422"><ele>979.75</ele><time>2026-05-01T11:44:46.38Z</time></trkpt><trkpt lat="35.4907169" lon="8.8696537"><ele>980.0</ele><time>2026-05-01T11:44:47.368Z</time></trkpt><trkpt lat="35.4907136" lon="8.8694513"><ele>979.0</ele><time>2026-05-01T11:44:48.378Z</time></trkpt><trkpt lat="35.490713" lon="8.8692361"><ele>978.0</ele><time>2026-05-01T11:44:49.378Z</time></trkpt><trkpt lat="35.4907075" lon="8.869015"><ele>977.0</ele><time>2026-05-01T11:44:50.393Z</time></trkpt><trkpt lat="35.490702" lon="8.8687925"><ele>977.0</ele><time>2026-05-01T11:44:51.372Z</time></trkpt><trkpt lat="35.4906993" lon="8.8685704"><ele>977.0</ele><time>2026-05-01T11:44:52.376Z</time></trkpt><trkpt lat="35.4906971" lon="8.8683509"><ele>977.0</ele><time>2026-05-01T11:44:53.37Z</time></trkpt><trkpt lat="35.4906917" lon="8.8681349"><ele>976.6666666666667</ele><time>2026-05-01T11:44:54.375Z</time></trkpt><trkpt lat="35.4906833" lon="8.8679188"><ele>976.3333333333333</ele><time>2026-05-01T11:44:55.375Z</time></trkpt><trkpt lat="35.4906816" lon="8.8676988"><ele>976.0</ele><time>2026-05-01T11:44:56.368Z</time></trkpt><trkpt lat="35.4906743" lon="8.8674856"><ele>976.0</ele><time>2026-05-01T11:44:57.375Z</time></trkpt><trkpt lat="35.4906618" lon="8.8672667"><ele>976.0</ele><time>2026-05-01T11:44:58.364Z</time></trkpt><trkpt lat="35.4906509" lon="8.8670513"><ele>976.0</ele><time>2026-05-01T11:44:59.373Z</time></trkpt><trkpt lat="35.4906376" lon="8.8668285"><ele>977.0</ele><time>2026-05-01T11:45:00.375Z</time></trkpt><trkpt lat="35.4906281" lon="8.8666002"><ele>978.0</ele><time>2026-05-01T11:45:01.371Z</time></trkpt><trkpt lat="35.4906169" lon="8.8663721"><ele>979.0</ele><time>2026-05-01T11:45:02.377Z</time></trkpt><trkpt lat="35.4906019" lon="8.8661453"><ele>979.3333333333333</ele><time>2026-05-01T11:45:03.381Z</time></trkpt><trkpt lat="35.4905886" lon="8.8659266"><ele>979.6666666666667</ele><time>2026-05-01T11:45:04.38Z</time></trkpt><trkpt lat="35.4905786" lon="8.8657066"><ele>980.0</ele><time>2026-05-01T11:45:05.38Z</time></trkpt><trkpt lat="35.490568" lon="8.8654896"><ele>980.0</ele><time>2026-05-01T11:45:06.374Z</time></trkpt><trkpt lat="35.4905581" lon="8.8652777"><ele>980.0</ele><time>2026-05-01T11:45:07.377Z</time></trkpt><trkpt lat="35.4905422" lon="8.8650681"><ele>980.0</ele><time>2026-05-01T11:45:08.378Z</time></trkpt><trkpt lat="35.4905287" lon="8.8648631"><ele>980.0</ele><time>2026-05-01T11:45:09.374Z</time></trkpt><trkpt lat="35.4905113" lon="8.8646672"><ele>980.0</ele><time>2026-05-01T11:45:10.378Z</time></trkpt><trkpt lat="35.4904952" lon="8.8644637"><ele>980.0</ele><time>2026-05-01T11:45:11.382Z</time></trkpt><trkpt lat="35.4904792" lon="8.8642612"><ele>980.0</ele><time>2026-05-01T11:45:12.371Z</time></trkpt><trkpt lat="35.4904643" lon="8.864056"><ele>980.0</ele><time>2026-05-01T11:45:13.386Z</time></trkpt><trkpt lat="35.4904488" lon="8.8638523"><ele>980.0</ele><time>2026-05-01T11:45:14.378Z</time></trkpt><trkpt lat="35.4904353" lon="8.8636545"><ele>979.0</ele><time>2026-05-01T11:45:15.38Z</time></trkpt><trkpt lat="35.490411" lon="8.8634521"><ele>978.0</ele><time>2026-05-01T11:45:16.374Z</time></trkpt><trkpt lat="35.4903862" lon="8.8632501"><ele>977.0</ele><time>2026-05-01T11:45:17.371Z</time></trkpt><trkpt lat="35.4903512" lon="8.8630419"><ele>977.0</ele><time>2026-05-01T11:45:18.386Z</time></trkpt><trkpt lat="35.4903147" lon="8.8628351"><ele>977.0</ele><time>2026-05-01T11:45:19.376Z</time></trkpt><trkpt lat="35.4902742" lon="8.8626298"><ele>977.0</ele><time>2026-05-01T11:45:20.366Z</time></trkpt><trkpt lat="35.4902262" lon="8.8624228"><ele>977.3333333333334</ele><time>2026-05-01T11:45:21.372Z</time></trkpt><trkpt lat="35.4901687" lon="8.8622153"><ele>977.6666666666667</ele><time>2026-05-01T11:45:22.371Z</time></trkpt><trkpt lat="35.4901039" lon="8.8620083"><ele>978.0</ele><time>2026-05-01T11:45:23.374Z</time></trkpt><trkpt lat="35.4900384" lon="8.8617993"><ele>977.6666666666667</ele><time>2026-05-01T11:45:24.365Z</time></trkpt><trkpt lat="35.4899669" lon="8.8615988"><ele>977.3333333333334</ele><time>2026-05-01T11:45:25.386Z</time></trkpt><trkpt lat="35.4898862" lon="8.8614018"><ele>977.0</ele><time>2026-05-01T11:45:26.371Z</time></trkpt><trkpt lat="35.4898005" lon="8.8612069"><ele>977.0</ele><time>2026-05-01T11:45:27.373Z</time></trkpt><trkpt lat="35.4897042" lon="8.8610172"><ele>977.0</ele><time>2026-05-01T11:45:28.375Z</time></trkpt><trkpt lat="35.4896076" lon="8.8608266"><ele>977.0</ele><time>2026-05-01T11:45:29.368Z</time></trkpt><trkpt lat="35.4895031" lon="8.8606459"><ele>975.0</ele><time>2026-05-01T11:45:30.366Z</time></trkpt><trkpt lat="35.4893967" lon="8.8604703"><ele>973.0</ele><time>2026-05-01T11:45:31.374Z</time></trkpt><trkpt lat="35.4892876" lon="8.8602902"><ele>971.0</ele><time>2026-05-01T11:45:32.379Z</time></trkpt><trkpt lat="35.4891784" lon="8.860116"><ele>971.0</ele><time>2026-05-01T11:45:33.375Z</time></trkpt><trkpt lat="35.4890657" lon="8.859944"><ele>971.0</ele><time>2026-05-01T11:45:34.383Z</time></trkpt><trkpt lat="35.4889494" lon="8.8597784"><ele>971.0</ele><time>2026-05-01T11:45:35.383Z</time></trkpt><trkpt lat="35.488835" lon="8.8596125"><ele>970.3333333333334</ele><time>2026-05-01T11:45:36.367Z</time></trkpt><trkpt lat="35.4887247" lon="8.8594492"><ele>969.6666666666667</ele><time>2026-05-01T11:45:37.384Z</time></trkpt><trkpt lat="35.4886196" lon="8.8592837"><ele>969.0</ele><time>2026-05-01T11:45:38.377Z</time></trkpt><trkpt lat="35.4885138" lon="8.8591129"><ele>968.0</ele><time>2026-05-01T11:45:39.372Z</time></trkpt><trkpt lat="35.488411" lon="8.858939"><ele>967.0</ele><time>2026-05-01T11:45:40.372Z</time></trkpt><trkpt lat="35.4883121" lon="8.8587626"><ele>966.0</ele><time>2026-05-01T11:45:41.376Z</time></trkpt><trkpt lat="35.4882114" lon="8.8585825"><ele>966.0</ele><time>2026-05-01T11:45:42.372Z</time></trkpt><trkpt lat="35.488113" lon="8.8584006"><ele>966.0</ele><time>2026-05-01T11:45:43.369Z</time></trkpt><trkpt lat="35.4880187" lon="8.8582251"><ele>966.0</ele><time>2026-05-01T11:45:44.375Z</time></trkpt><trkpt lat="35.4879252" lon="8.8580392"><ele>964.6666666666667</ele><time>2026-05-01T11:45:45.367Z</time></trkpt><trkpt lat="35.4878339" lon="8.857852"><ele>963.3333333333334</ele><time>2026-05-01T11:45:46.367Z</time></trkpt><trkpt lat="35.4877417" lon="8.8576633"><ele>962.0</ele><time>2026-05-01T11:45:47.381Z</time></trkpt><trkpt lat="35.4876584" lon="8.8574646"><ele>962.0</ele><time>2026-05-01T11:45:48.37Z</time></trkpt><trkpt lat="35.4875842" lon="8.8572619"><ele>962.0</ele><time>2026-05-01T11:45:49.365Z</time></trkpt><trkpt lat="35.4875111" lon="8.857064"><ele>962.0</ele><time>2026-05-01T11:45:50.381Z</time></trkpt><trkpt lat="35.4874428" lon="8.8568603"><ele>961.6666666666667</ele><time>2026-05-01T11:45:51.375Z</time></trkpt><trkpt lat="35.4873804" lon="8.8566576"><ele>961.3333333333333</ele><time>2026-05-01T11:45:52.373Z</time></trkpt><trkpt lat="35.4873181" lon="8.8564596"><ele>961.0</ele><time>2026-05-01T11:45:53.369Z</time></trkpt><trkpt lat="35.487255" lon="8.8562585"><ele>961.0</ele><time>2026-05-01T11:45:54.376Z</time></trkpt><trkpt lat="35.4871967" lon="8.8560572"><ele>961.0</ele><time>2026-05-01T11:45:55.37Z</time></trkpt><trkpt lat="35.4871397" lon="8.8558566"><ele>961.0</ele><time>2026-05-01T11:45:56.374Z</time></trkpt><trkpt lat="35.4870877" lon="8.8556595"><ele>961.3333333333333</ele><time>2026-05-01T11:45:57.376Z</time></trkpt><trkpt lat="35.4870414" lon="8.8554602"><ele>961.6666666666667</ele><time>2026-05-01T11:45:58.374Z</time></trkpt><trkpt lat="35.4869941" lon="8.8552649"><ele>962.0</ele><time>2026-05-01T11:45:59.371Z</time></trkpt><trkpt lat="35.4869481" lon="8.8550721"><ele>961.5</ele><time>2026-05-01T11:46:00.374Z</time></trkpt><trkpt lat="35.4869022" lon="8.8548979"><ele>961.0</ele><time>2026-05-01T11:46:01.374Z</time></trkpt><trkpt lat="35.486865" lon="8.854751"><ele>960.5</ele><time>2026-05-01T11:46:02.379Z</time></trkpt><trkpt lat="35.4868323" lon="8.8546117"><ele>960.0</ele><time>2026-05-01T11:46:03.377Z</time></trkpt><trkpt lat="35.4867964" lon="8.8544828"><ele>960.0</ele><time>2026-05-01T11:46:04.379Z</time></trkpt><trkpt lat="35.4867633" lon="8.8543566"><ele>960.0</ele><time>2026-05-01T11:46:05.384Z</time></trkpt><trkpt lat="35.4867311" lon="8.8542274"><ele>960.0</ele><time>2026-05-01T11:46:06.375Z</time></trkpt><trkpt lat="35.4866998" lon="8.8540866"><ele>960.0</ele><time>2026-05-01T11:46:07.37Z</time></trkpt><trkpt lat="35.4866635" lon="8.8539414"><ele>960.25</ele><time>2026-05-01T11:46:08.369Z</time></trkpt><trkpt lat="35.486625" lon="8.8537941"><ele>960.5</ele><time>2026-05-01T11:46:09.369Z</time></trkpt><trkpt lat="35.4865794" lon="8.853636"><ele>960.75</ele><time>2026-05-01T11:46:10.374Z</time></trkpt><trkpt lat="35.486534" lon="8.8534779"><ele>961.0</ele><time>2026-05-01T11:46:11.38Z</time></trkpt><trkpt lat="35.4864924" lon="8.8533143"><ele>961.0</ele><time>2026-05-01T11:46:12.382Z</time></trkpt><trkpt lat="35.48645" lon="8.8531464"><ele>961.0</ele><time>2026-05-01T11:46:13.37Z</time></trkpt><trkpt lat="35.4864097" lon="8.8529707"><ele>961.0</ele><time>2026-05-01T11:46:14.386Z</time></trkpt><trkpt lat="35.4863678" lon="8.8527847"><ele>961.0</ele><time>2026-05-01T11:46:15.376Z</time></trkpt><trkpt lat="35.4863341" lon="8.8525925"><ele>961.6666666666666</ele><time>2026-05-01T11:46:16.368Z</time></trkpt><trkpt lat="35.4863072" lon="8.852397"><ele>962.3333333333333</ele><time>2026-05-01T11:46:17.396Z</time></trkpt><trkpt lat="35.4862832" lon="8.8522073"><ele>963.0</ele><time>2026-05-01T11:46:18.374Z</time></trkpt><trkpt lat="35.4862713" lon="8.8520308"><ele>963.0</ele><time>2026-05-01T11:46:19.366Z</time></trkpt><trkpt lat="35.4862667" lon="8.851858"><ele>963.0</ele><time>2026-05-01T11:46:20.378Z</time></trkpt><trkpt lat="35.4862584" lon="8.8516907"><ele>963.0</ele><time>2026-05-01T11:46:21.379Z</time></trkpt><trkpt lat="35.4862522" lon="8.8515144"><ele>963.0</ele><time>2026-05-01T11:46:22.363Z</time></trkpt><trkpt lat="35.4862458" lon="8.8513348"><ele>963.25</ele><time>2026-05-01T11:46:23.374Z</time></trkpt><trkpt lat="35.4862527" lon="8.8511581"><ele>963.5</ele><time>2026-05-01T11:46:24.384Z</time></trkpt><trkpt lat="35.4862728" lon="8.8509858"><ele>963.75</ele><time>2026-05-01T11:46:25.382Z</time></trkpt><trkpt lat="35.4862958" lon="8.8508217"><ele>964.0</ele><time>2026-05-01T11:46:26.371Z</time></trkpt><trkpt lat="35.4863142" lon="8.8506572"><ele>963.25</ele><time>2026-05-01T11:46:27.378Z</time></trkpt><trkpt lat="35.4863309" lon="8.8504961"><ele>962.5</ele><time>2026-05-01T11:46:28.379Z</time></trkpt><trkpt lat="35.4863424" lon="8.8503301"><ele>961.75</ele><time>2026-05-01T11:46:29.372Z</time></trkpt><trkpt lat="35.486349" lon="8.8501606"><ele>961.0</ele><time>2026-05-01T11:46:30.371Z</time></trkpt><trkpt lat="35.4863564" lon="8.8499832"><ele>960.6666666666666</ele><time>2026-05-01T11:46:31.37Z</time></trkpt><trkpt lat="35.4863617" lon="8.849801"><ele>960.3333333333333</ele><time>2026-05-01T11:46:32.378Z</time></trkpt><trkpt lat="35.4863679" lon="8.8496106"><ele>960.0</ele><time>2026-05-01T11:46:33.376Z</time></trkpt><trkpt lat="35.4863639" lon="8.8494104"><ele>959.6666666666667</ele><time>2026-05-01T11:46:34.372Z</time></trkpt><trkpt lat="35.4863543" lon="8.8492098"><ele>959.3333333333334</ele><time>2026-05-01T11:46:35.373Z</time></trkpt><trkpt lat="35.4863435" lon="8.8490095"><ele>959.0</ele><time>2026-05-01T11:46:36.371Z</time></trkpt><trkpt lat="35.4863305" lon="8.848809"><ele>959.0</ele><time>2026-05-01T11:46:37.377Z</time></trkpt><trkpt lat="35.4863262" lon="8.8486121"><ele>959.0</ele><time>2026-05-01T11:46:38.373Z</time></trkpt><trkpt lat="35.4863174" lon="8.8484138"><ele>959.0</ele><time>2026-05-01T11:46:39.373Z</time></trkpt><trkpt lat="35.4863083" lon="8.8482219"><ele>959.0</ele><time>2026-05-01T11:46:40.392Z</time></trkpt><trkpt lat="35.4863036" lon="8.8480289"><ele>959.0</ele><time>2026-05-01T11:46:41.383Z</time></trkpt><trkpt lat="35.4862944" lon="8.847836"><ele>959.0</ele><time>2026-05-01T11:46:42.371Z</time></trkpt><trkpt lat="35.4862899" lon="8.8476368"><ele>957.6666666666667</ele><time>2026-05-01T11:46:43.382Z</time></trkpt><trkpt lat="35.4862892" lon="8.8474398"><ele>956.3333333333333</ele><time>2026-05-01T11:46:44.38Z</time></trkpt><trkpt lat="35.4862931" lon="8.8472411"><ele>955.0</ele><time>2026-05-01T11:46:45.373Z</time></trkpt><trkpt lat="35.4863033" lon="8.8470347"><ele>955.0</ele><time>2026-05-01T11:46:46.373Z</time></trkpt><trkpt lat="35.4863219" lon="8.8468232"><ele>955.0</ele><time>2026-05-01T11:46:47.384Z</time></trkpt><trkpt lat="35.4863482" lon="8.8466117"><ele>955.0</ele><time>2026-05-01T11:46:48.381Z</time></trkpt><trkpt lat="35.4863796" lon="8.8463951"><ele>953.6666666666666</ele><time>2026-05-01T11:46:49.379Z</time></trkpt><trkpt lat="35.4864259" lon="8.8461738"><ele>952.3333333333333</ele><time>2026-05-01T11:46:50.376Z</time></trkpt><trkpt lat="35.4864725" lon="8.8459484"><ele>951.0</ele><time>2026-05-01T11:46:51.391Z</time></trkpt><trkpt lat="35.4865176" lon="8.8457325"><ele>949.3333333333333</ele><time>2026-05-01T11:46:52.386Z</time></trkpt><trkpt lat="35.486563" lon="8.8455133"><ele>947.6666666666666</ele><time>2026-05-01T11:46:53.379Z</time></trkpt><trkpt lat="35.486607" lon="8.8452907"><ele>946.0</ele><time>2026-05-01T11:46:54.374Z</time></trkpt><trkpt lat="35.4866512" lon="8.8450626"><ele>944.3333333333333</ele><time>2026-05-01T11:46:55.382Z</time></trkpt><trkpt lat="35.4866962" lon="8.8448405"><ele>942.6666666666667</ele><time>2026-05-01T11:46:56.378Z</time></trkpt><trkpt lat="35.4867414" lon="8.8446149"><ele>941.0</ele><time>2026-05-01T11:46:57.372Z</time></trkpt><trkpt lat="35.4867894" lon="8.8443913"><ele>940.3333333333334</ele><time>2026-05-01T11:46:58.378Z</time></trkpt><trkpt lat="35.4868368" lon="8.8441668"><ele>939.6666666666667</ele><time>2026-05-01T11:46:59.375Z</time></trkpt><trkpt lat="35.4868859" lon="8.8439339"><ele>939.0</ele><time>2026-05-01T11:47:00.371Z</time></trkpt><trkpt lat="35.4869333" lon="8.8437063"><ele>939.0</ele><time>2026-05-01T11:47:01.373Z</time></trkpt><trkpt lat="35.4869806" lon="8.8434757"><ele>939.0</ele><time>2026-05-01T11:47:02.378Z</time></trkpt><trkpt lat="35.4870295" lon="8.8432456"><ele>939.0</ele><time>2026-05-01T11:47:03.374Z</time></trkpt><trkpt lat="35.4870763" lon="8.8430156"><ele>938.6666666666667</ele><time>2026-05-01T11:47:04.368Z</time></trkpt><trkpt lat="35.4871186" lon="8.842791"><ele>938.3333333333334</ele><time>2026-05-01T11:47:05.371Z</time></trkpt><trkpt lat="35.4871672" lon="8.8425757"><ele>938.0</ele><time>2026-05-01T11:47:06.38Z</time></trkpt><trkpt lat="35.487214" lon="8.8423524"><ele>936.6666666666667</ele><time>2026-05-01T11:47:07.383Z</time></trkpt><trkpt lat="35.4872613" lon="8.8421316"><ele>935.3333333333333</ele><time>2026-05-01T11:47:08.376Z</time></trkpt><trkpt lat="35.4873067" lon="8.8419167"><ele>934.0</ele><time>2026-05-01T11:47:09.382Z</time></trkpt><trkpt lat="35.4873543" lon="8.8416995"><ele>933.0</ele><time>2026-05-01T11:47:10.376Z</time></trkpt><trkpt lat="35.487399" lon="8.8414871"><ele>932.0</ele><time>2026-05-01T11:47:11.38Z</time></trkpt><trkpt lat="35.487442" lon="8.8412714"><ele>931.0</ele><time>2026-05-01T11:47:12.386Z</time></trkpt><trkpt lat="35.4874829" lon="8.8410637"><ele>929.3333333333333</ele><time>2026-05-01T11:47:13.381Z</time></trkpt><trkpt lat="35.4875259" lon="8.8408486"><ele>927.6666666666667</ele><time>2026-05-01T11:47:14.377Z</time></trkpt><trkpt lat="35.4875671" lon="8.8406415"><ele>926.0</ele><time>2026-05-01T11:47:15.384Z</time></trkpt><trkpt lat="35.4876107" lon="8.8404326"><ele>926.0</ele><time>2026-05-01T11:47:16.388Z</time></trkpt><trkpt lat="35.4876547" lon="8.8402226"><ele>926.0</ele><time>2026-05-01T11:47:17.369Z</time></trkpt><trkpt lat="35.4876953" lon="8.8400151"><ele>926.0</ele><time>2026-05-01T11:47:18.381Z</time></trkpt><trkpt lat="35.4877381" lon="8.8398055"><ele>925.0</ele><time>2026-05-01T11:47:19.382Z</time></trkpt><trkpt lat="35.4877829" lon="8.8395959"><ele>924.0</ele><time>2026-05-01T11:47:20.383Z</time></trkpt><trkpt lat="35.4878305" lon="8.8393861"><ele>923.0</ele><time>2026-05-01T11:47:21.38Z</time></trkpt><trkpt lat="35.4878777" lon="8.8391776"><ele>922.6666666666667</ele><time>2026-05-01T11:47:22.374Z</time></trkpt><trkpt lat="35.4879204" lon="8.8389792"><ele>922.3333333333333</ele><time>2026-05-01T11:47:23.385Z</time></trkpt><trkpt lat="35.4879703" lon="8.8387785"><ele>922.0</ele><time>2026-05-01T11:47:24.382Z</time></trkpt><trkpt lat="35.4880109" lon="8.8385817"><ele>922.6666666666666</ele><time>2026-05-01T11:47:25.377Z</time></trkpt><trkpt lat="35.4880497" lon="8.8383815"><ele>923.3333333333333</ele><time>2026-05-01T11:47:26.38Z</time></trkpt><trkpt lat="35.4880981" lon="8.8381655"><ele>924.0</ele><time>2026-05-01T11:47:27.373Z</time></trkpt><trkpt lat="35.4881602" lon="8.8379462"><ele>924.0</ele><time>2026-05-01T11:47:28.366Z</time></trkpt><trkpt lat="35.4882254" lon="8.8377057"><ele>924.0</ele><time>2026-05-01T11:47:29.375Z</time></trkpt><trkpt lat="35.4882805" lon="8.8374595"><ele>924.0</ele><time>2026-05-01T11:47:30.372Z</time></trkpt><trkpt lat="35.4883303" lon="8.8372255"><ele>923.0</ele><time>2026-05-01T11:47:31.365Z</time></trkpt><trkpt lat="35.4883741" lon="8.8369947"><ele>922.0</ele><time>2026-05-01T11:47:32.366Z</time></trkpt><trkpt lat="35.4884193" lon="8.8367554"><ele>921.0</ele><time>2026-05-01T11:47:33.38Z</time></trkpt><trkpt lat="35.4884589" lon="8.8365136"><ele>921.0</ele><time>2026-05-01T11:47:34.377Z</time></trkpt><trkpt lat="35.4885032" lon="8.8362666"><ele>921.0</ele><time>2026-05-01T11:47:35.37Z</time></trkpt><trkpt lat="35.4885452" lon="8.8360205"><ele>921.0</ele><time>2026-05-01T11:47:36.373Z</time></trkpt><trkpt lat="35.4885765" lon="8.8357837"><ele>921.0</ele><time>2026-05-01T11:47:37.389Z</time></trkpt><trkpt lat="35.4886089" lon="8.8355526"><ele>921.0</ele><time>2026-05-01T11:47:38.376Z</time></trkpt><trkpt lat="35.4886375" lon="8.8353148"><ele>921.0</ele><time>2026-05-01T11:47:39.378Z</time></trkpt><trkpt lat="35.4886696" lon="8.8350798"><ele>921.0</ele><time>2026-05-01T11:47:40.381Z</time></trkpt><trkpt lat="35.4887038" lon="8.8348515"><ele>921.0</ele><time>2026-05-01T11:47:41.378Z</time></trkpt><trkpt lat="35.4887398" lon="8.8346187"><ele>921.0</ele><time>2026-05-01T11:47:42.385Z</time></trkpt><trkpt lat="35.4887733" lon="8.834385"><ele>922.6666666666667</ele><time>2026-05-01T11:47:43.379Z</time></trkpt><trkpt lat="35.4888105" lon="8.8341509"><ele>924.3333333333334</ele><time>2026-05-01T11:47:44.379Z</time></trkpt><trkpt lat="35.4888452" lon="8.8339123"><ele>926.0</ele><time>2026-05-01T11:47:45.389Z</time></trkpt><trkpt lat="35.4888777" lon="8.8336721"><ele>926.0</ele><time>2026-05-01T11:47:46.38Z</time></trkpt><trkpt lat="35.4889174" lon="8.833441"><ele>926.0</ele><time>2026-05-01T11:47:47.372Z</time></trkpt><trkpt lat="35.4889512" lon="8.8332051"><ele>926.0</ele><time>2026-05-01T11:47:48.375Z</time></trkpt><trkpt lat="35.4889879" lon="8.8329645"><ele>926.0</ele><time>2026-05-01T11:47:49.374Z</time></trkpt><trkpt lat="35.4890218" lon="8.8327235"><ele>926.0</ele><time>2026-05-01T11:47:50.382Z</time></trkpt><trkpt lat="35.4890534" lon="8.8324762"><ele>926.0</ele><time>2026-05-01T11:47:51.389Z</time></trkpt><trkpt lat="35.4890878" lon="8.8322295"><ele>926.3333333333334</ele><time>2026-05-01T11:47:52.38Z</time></trkpt><trkpt lat="35.4891301" lon="8.8319811"><ele>926.6666666666667</ele><time>2026-05-01T11:47:53.378Z</time></trkpt><trkpt lat="35.4891704" lon="8.8317305"><ele>927.0</ele><time>2026-05-01T11:47:54.381Z</time></trkpt><trkpt lat="35.4892054" lon="8.831479"><ele>927.3333333333333</ele><time>2026-05-01T11:47:55.379Z</time></trkpt><trkpt lat="35.4892378" lon="8.8312397"><ele>927.6666666666666</ele><time>2026-05-01T11:47:56.372Z</time></trkpt><trkpt lat="35.4892702" lon="8.831005"><ele>928.0</ele><time>2026-05-01T11:47:57.384Z</time></trkpt><trkpt lat="35.4892996" lon="8.8307745"><ele>928.3333333333333</ele><time>2026-05-01T11:47:58.376Z</time></trkpt><trkpt lat="35.4893251" lon="8.8305469"><ele>928.6666666666667</ele><time>2026-05-01T11:47:59.373Z</time></trkpt><trkpt lat="35.4893565" lon="8.8303216"><ele>929.0</ele><time>2026-05-01T11:48:00.377Z</time></trkpt><trkpt lat="35.4893884" lon="8.8300957"><ele>929.3333333333334</ele><time>2026-05-01T11:48:01.379Z</time></trkpt><trkpt lat="35.4894261" lon="8.8298663"><ele>929.6666666666667</ele><time>2026-05-01T11:48:02.376Z</time></trkpt><trkpt lat="35.4894596" lon="8.8296312"><ele>930.0</ele><time>2026-05-01T11:48:03.378Z</time></trkpt><trkpt lat="35.4894901" lon="8.8293989"><ele>930.6666666666667</ele><time>2026-05-01T11:48:04.38Z</time></trkpt><trkpt lat="35.4895195" lon="8.8291651"><ele>931.3333333333334</ele><time>2026-05-01T11:48:05.382Z</time></trkpt><trkpt lat="35.48955" lon="8.8289303"><ele>932.0</ele><time>2026-05-01T11:48:06.38Z</time></trkpt><trkpt lat="35.4895767" lon="8.8286939"><ele>932.0</ele><time>2026-05-01T11:48:07.384Z</time></trkpt><trkpt lat="35.4896064" lon="8.8284684"><ele>932.0</ele><time>2026-05-01T11:48:08.377Z</time></trkpt><trkpt lat="35.4896397" lon="8.8282385"><ele>932.0</ele><time>2026-05-01T11:48:09.376Z</time></trkpt><trkpt lat="35.4896684" lon="8.8280073"><ele>932.0</ele><time>2026-05-01T11:48:10.373Z</time></trkpt><trkpt lat="35.4896969" lon="8.827776"><ele>932.0</ele><time>2026-05-01T11:48:11.38Z</time></trkpt><trkpt lat="35.4897276" lon="8.8275453"><ele>932.0</ele><time>2026-05-01T11:48:12.381Z</time></trkpt><trkpt lat="35.4897592" lon="8.8273069"><ele>932.6666666666667</ele><time>2026-05-01T11:48:13.387Z</time></trkpt><trkpt lat="35.4897984" lon="8.827056"><ele>933.3333333333333</ele><time>2026-05-01T11:48:14.376Z</time></trkpt><trkpt lat="35.4898339" lon="8.8267966"><ele>934.0</ele><time>2026-05-01T11:48:15.376Z</time></trkpt><trkpt lat="35.4898658" lon="8.8265506"><ele>935.0</ele><time>2026-05-01T11:48:16.369Z</time></trkpt><trkpt lat="35.489898" lon="8.8263058"><ele>936.0</ele><time>2026-05-01T11:48:17.386Z</time></trkpt><trkpt lat="35.4899329" lon="8.8260631"><ele>937.0</ele><time>2026-05-01T11:48:18.375Z</time></trkpt><trkpt lat="35.4899717" lon="8.8258234"><ele>937.6666666666666</ele><time>2026-05-01T11:48:19.386Z</time></trkpt><trkpt lat="35.4900103" lon="8.825585"><ele>938.3333333333333</ele><time>2026-05-01T11:48:20.368Z</time></trkpt><trkpt lat="35.4900447" lon="8.8253512"><ele>939.0</ele><time>2026-05-01T11:48:21.383Z</time></trkpt><trkpt lat="35.4900822" lon="8.8251227"><ele>940.0</ele><time>2026-05-01T11:48:22.382Z</time></trkpt><trkpt lat="35.4901123" lon="8.8248995"><ele>941.0</ele><time>2026-05-01T11:48:23.384Z</time></trkpt><trkpt lat="35.4901369" lon="8.8246875"><ele>942.0</ele><time>2026-05-01T11:48:24.368Z</time></trkpt><trkpt lat="35.4901628" lon="8.8244736"><ele>942.6666666666667</ele><time>2026-05-01T11:48:25.375Z</time></trkpt><trkpt lat="35.4901887" lon="8.8242606"><ele>943.3333333333334</ele><time>2026-05-01T11:48:26.373Z</time></trkpt><trkpt lat="35.4902161" lon="8.8240396"><ele>944.0</ele><time>2026-05-01T11:48:27.389Z</time></trkpt><trkpt lat="35.4902451" lon="8.8238178"><ele>944.0</ele><time>2026-05-01T11:48:28.391Z</time></trkpt><trkpt lat="35.4902676" lon="8.8236058"><ele>944.0</ele><time>2026-05-01T11:48:29.375Z</time></trkpt><trkpt lat="35.4902917" lon="8.8234"><ele>944.0</ele><time>2026-05-01T11:48:30.371Z</time></trkpt><trkpt lat="35.4903116" lon="8.8231906"><ele>944.0</ele><time>2026-05-01T11:48:31.376Z</time></trkpt><trkpt lat="35.490338" lon="8.8229727"><ele>944.0</ele><time>2026-05-01T11:48:32.378Z</time></trkpt><trkpt lat="35.4903619" lon="8.8227534"><ele>944.0</ele><time>2026-05-01T11:48:33.385Z</time></trkpt><trkpt lat="35.4903823" lon="8.8225329"><ele>944.0</ele><time>2026-05-01T11:48:34.372Z</time></trkpt><trkpt lat="35.4904089" lon="8.8223087"><ele>944.0</ele><time>2026-05-01T11:48:35.372Z</time></trkpt><trkpt lat="35.4904339" lon="8.8220847"><ele>944.0</ele><time>2026-05-01T11:48:36.372Z</time></trkpt><trkpt lat="35.490465" lon="8.8218488"><ele>943.0</ele><time>2026-05-01T11:48:37.372Z</time></trkpt><trkpt lat="35.4904952" lon="8.8216239"><ele>942.0</ele><time>2026-05-01T11:48:38.377Z</time></trkpt><trkpt lat="35.4905273" lon="8.821399"><ele>941.0</ele><time>2026-05-01T11:48:39.371Z</time></trkpt><trkpt lat="35.4905649" lon="8.8211651"><ele>940.3333333333334</ele><time>2026-05-01T11:48:40.37Z</time></trkpt><trkpt lat="35.4906048" lon="8.8209339"><ele>939.6666666666667</ele><time>2026-05-01T11:48:41.368Z</time></trkpt><trkpt lat="35.4906463" lon="8.820707"><ele>939.0</ele><time>2026-05-01T11:48:42.379Z</time></trkpt><trkpt lat="35.4906925" lon="8.8204842"><ele>939.0</ele><time>2026-05-01T11:48:43.374Z</time></trkpt><trkpt lat="35.490736" lon="8.8202643"><ele>939.0</ele><time>2026-05-01T11:48:44.38Z</time></trkpt><trkpt lat="35.4907837" lon="8.8200402"><ele>939.0</ele><time>2026-05-01T11:48:45.371Z</time></trkpt><trkpt lat="35.490835" lon="8.8198231"><ele>939.0</ele><time>2026-05-01T11:48:46.372Z</time></trkpt><trkpt lat="35.4908868" lon="8.8196057"><ele>939.0</ele><time>2026-05-01T11:48:47.377Z</time></trkpt><trkpt lat="35.4909392" lon="8.8193908"><ele>939.0</ele><time>2026-05-01T11:48:48.372Z</time></trkpt><trkpt lat="35.4909937" lon="8.8191722"><ele>940.3333333333333</ele><time>2026-05-01T11:48:49.371Z</time></trkpt><trkpt lat="35.4910501" lon="8.8189546"><ele>941.6666666666666</ele><time>2026-05-01T11:48:50.38Z</time></trkpt><trkpt lat="35.4911089" lon="8.818741"><ele>943.0</ele><time>2026-05-01T11:48:51.377Z</time></trkpt><trkpt lat="35.4911662" lon="8.8185298"><ele>943.6666666666666</ele><time>2026-05-01T11:48:52.374Z</time></trkpt><trkpt lat="35.491225" lon="8.8183219"><ele>944.3333333333333</ele><time>2026-05-01T11:48:53.372Z</time></trkpt><trkpt lat="35.4912782" lon="8.8181226"><ele>945.0</ele><time>2026-05-01T11:48:54.373Z</time></trkpt><trkpt lat="35.4913333" lon="8.8179199"><ele>945.0</ele><time>2026-05-01T11:48:55.384Z</time></trkpt><trkpt lat="35.4913859" lon="8.8177139"><ele>945.0</ele><time>2026-05-01T11:48:56.396Z</time></trkpt><trkpt lat="35.4914446" lon="8.8175086"><ele>945.0</ele><time>2026-05-01T11:48:57.372Z</time></trkpt><trkpt lat="35.4915003" lon="8.8173119"><ele>946.3333333333333</ele><time>2026-05-01T11:48:58.374Z</time></trkpt><trkpt lat="35.4915568" lon="8.817113"><ele>947.6666666666666</ele><time>2026-05-01T11:48:59.379Z</time></trkpt><trkpt lat="35.4916115" lon="8.8169071"><ele>949.0</ele><time>2026-05-01T11:49:00.374Z</time></trkpt><trkpt lat="35.4916685" lon="8.8166986"><ele>949.6666666666666</ele><time>2026-05-01T11:49:01.373Z</time></trkpt><trkpt lat="35.4917254" lon="8.8164992"><ele>950.3333333333333</ele><time>2026-05-01T11:49:02.364Z</time></trkpt><trkpt lat="35.4917781" lon="8.8162953"><ele>951.0</ele><time>2026-05-01T11:49:03.372Z</time></trkpt><trkpt lat="35.4918314" lon="8.8160892"><ele>952.0</ele><time>2026-05-01T11:49:04.384Z</time></trkpt><trkpt lat="35.4918884" lon="8.8158902"><ele>953.0</ele><time>2026-05-01T11:49:05.378Z</time></trkpt><trkpt lat="35.4919419" lon="8.8156942"><ele>954.0</ele><time>2026-05-01T11:49:06.375Z</time></trkpt><trkpt lat="35.4919976" lon="8.815492"><ele>954.0</ele><time>2026-05-01T11:49:07.373Z</time></trkpt><trkpt lat="35.492054" lon="8.8152917"><ele>954.0</ele><time>2026-05-01T11:49:08.381Z</time></trkpt><trkpt lat="35.4921111" lon="8.8150819"><ele>954.0</ele><time>2026-05-01T11:49:09.381Z</time></trkpt><trkpt lat="35.4921633" lon="8.8148689"><ele>954.6666666666667</ele><time>2026-05-01T11:49:10.371Z</time></trkpt><trkpt lat="35.4922214" lon="8.8146476"><ele>955.3333333333334</ele><time>2026-05-01T11:49:11.374Z</time></trkpt><trkpt lat="35.492281" lon="8.8144292"><ele>956.0</ele><time>2026-05-01T11:49:12.382Z</time></trkpt><trkpt lat="35.492347" lon="8.8142051"><ele>956.6666666666667</ele><time>2026-05-01T11:49:13.383Z</time></trkpt><trkpt lat="35.4924053" lon="8.8139847"><ele>957.3333333333333</ele><time>2026-05-01T11:49:14.39Z</time></trkpt><trkpt lat="35.4924587" lon="8.8137655"><ele>958.0</ele><time>2026-05-01T11:49:15.368Z</time></trkpt><trkpt lat="35.4925095" lon="8.8135361"><ele>958.6666666666666</ele><time>2026-05-01T11:49:16.376Z</time></trkpt><trkpt lat="35.4925621" lon="8.8133141"><ele>959.3333333333333</ele><time>2026-05-01T11:49:17.382Z</time></trkpt><trkpt lat="35.4926161" lon="8.8130912"><ele>960.0</ele><time>2026-05-01T11:49:18.368Z</time></trkpt><trkpt lat="35.492671" lon="8.812865"><ele>960.6666666666667</ele><time>2026-05-01T11:49:19.371Z</time></trkpt><trkpt lat="35.4927255" lon="8.8126369"><ele>961.3333333333334</ele><time>2026-05-01T11:49:20.384Z</time></trkpt><trkpt lat="35.4927812" lon="8.8124074"><ele>962.0</ele><time>2026-05-01T11:49:21.375Z</time></trkpt><trkpt lat="35.492833" lon="8.8121805"><ele>962.0</ele><time>2026-05-01T11:49:22.369Z</time></trkpt><trkpt lat="35.4928819" lon="8.8119548"><ele>962.0</ele><time>2026-05-01T11:49:23.379Z</time></trkpt><trkpt lat="35.4929286" lon="8.8117275"><ele>962.0</ele><time>2026-05-01T11:49:24.394Z</time></trkpt><trkpt lat="35.4929778" lon="8.8114999"><ele>963.0</ele><time>2026-05-01T11:49:25.38Z</time></trkpt><trkpt lat="35.4930254" lon="8.8112816"><ele>964.0</ele><time>2026-05-01T11:49:26.379Z</time></trkpt><trkpt lat="35.4930781" lon="8.8110632"><ele>965.0</ele><time>2026-05-01T11:49:27.435Z</time></trkpt><trkpt lat="35.4931258" lon="8.8108487"><ele>965.6666666666667</ele><time>2026-05-01T11:49:28.372Z</time></trkpt><trkpt lat="35.4931759" lon="8.8106329"><ele>966.3333333333333</ele><time>2026-05-01T11:49:29.369Z</time></trkpt><trkpt lat="35.4932215" lon="8.8104238"><ele>967.0</ele><time>2026-05-01T11:49:30.381Z</time></trkpt><trkpt lat="35.4932614" lon="8.8102147"><ele>968.0</ele><time>2026-05-01T11:49:31.373Z</time></trkpt><trkpt lat="35.4933012" lon="8.8100022"><ele>969.0</ele><time>2026-05-01T11:49:32.372Z</time></trkpt><trkpt lat="35.4933396" lon="8.8097927"><ele>970.0</ele><time>2026-05-01T11:49:33.38Z</time></trkpt><trkpt lat="35.493381" lon="8.809586"><ele>970.0</ele><time>2026-05-01T11:49:34.379Z</time></trkpt><trkpt lat="35.4934246" lon="8.8093762"><ele>970.0</ele><time>2026-05-01T11:49:35.384Z</time></trkpt><trkpt lat="35.4934703" lon="8.8091673"><ele>970.0</ele><time>2026-05-01T11:49:36.37Z</time></trkpt><trkpt lat="35.4935138" lon="8.8089598"><ele>970.6666666666666</ele><time>2026-05-01T11:49:37.378Z</time></trkpt><trkpt lat="35.4935548" lon="8.8087491"><ele>971.3333333333333</ele><time>2026-05-01T11:49:38.37Z</time></trkpt><trkpt lat="35.4935902" lon="8.8085368"><ele>972.0</ele><time>2026-05-01T11:49:39.4Z</time></trkpt><trkpt lat="35.4936209" lon="8.8083164"><ele>972.0</ele><time>2026-05-01T11:49:40.384Z</time></trkpt><trkpt lat="35.4936514" lon="8.8081028"><ele>972.0</ele><time>2026-05-01T11:49:41.365Z</time></trkpt><trkpt lat="35.493676" lon="8.8078849"><ele>972.0</ele><time>2026-05-01T11:49:42.378Z</time></trkpt><trkpt lat="35.4936954" lon="8.8076642"><ele>972.3333333333333</ele><time>2026-05-01T11:49:43.377Z</time></trkpt><trkpt lat="35.4937165" lon="8.8074398"><ele>972.6666666666666</ele><time>2026-05-01T11:49:44.376Z</time></trkpt><trkpt lat="35.4937291" lon="8.807215"><ele>973.0</ele><time>2026-05-01T11:49:45.374Z</time></trkpt><trkpt lat="35.493736" lon="8.806981"><ele>973.0</ele><time>2026-05-01T11:49:46.372Z</time></trkpt><trkpt lat="35.4937366" lon="8.8067421"><ele>973.0</ele><time>2026-05-01T11:49:47.373Z</time></trkpt><trkpt lat="35.4937353" lon="8.8065008"><ele>973.0</ele><time>2026-05-01T11:49:48.373Z</time></trkpt><trkpt lat="35.4937302" lon="8.8062602"><ele>973.0</ele><time>2026-05-01T11:49:49.385Z</time></trkpt><trkpt lat="35.4937168" lon="8.806019"><ele>973.0</ele><time>2026-05-01T11:49:50.375Z</time></trkpt><trkpt lat="35.4937035" lon="8.8057774"><ele>973.0</ele><time>2026-05-01T11:49:51.372Z</time></trkpt><trkpt lat="35.4936864" lon="8.8055293"><ele>973.0</ele><time>2026-05-01T11:49:52.377Z</time></trkpt><trkpt lat="35.4936646" lon="8.8052788"><ele>973.0</ele><time>2026-05-01T11:49:53.372Z</time></trkpt><trkpt lat="35.4936388" lon="8.8050366"><ele>973.0</ele><time>2026-05-01T11:49:54.375Z</time></trkpt><trkpt lat="35.4936048" lon="8.8047926"><ele>973.0</ele><time>2026-05-01T11:49:55.379Z</time></trkpt><trkpt lat="35.4935612" lon="8.8045501"><ele>973.0</ele><time>2026-05-01T11:49:56.365Z</time></trkpt><trkpt lat="35.4935102" lon="8.8043166"><ele>973.0</ele><time>2026-05-01T11:49:57.379Z</time></trkpt><trkpt lat="35.4934631" lon="8.8040882"><ele>972.3333333333333</ele><time>2026-05-01T11:49:58.374Z</time></trkpt><trkpt lat="35.4934178" lon="8.8038633"><ele>971.6666666666667</ele><time>2026-05-01T11:49:59.377Z</time></trkpt><trkpt lat="35.4933688" lon="8.803645"><ele>971.0</ele><time>2026-05-01T11:50:00.371Z</time></trkpt><trkpt lat="35.4933227" lon="8.8034321"><ele>971.0</ele><time>2026-05-01T11:50:01.377Z</time></trkpt><trkpt lat="35.4932806" lon="8.8032241"><ele>971.0</ele><time>2026-05-01T11:50:02.377Z</time></trkpt><trkpt lat="35.4932409" lon="8.8030172"><ele>971.0</ele><time>2026-05-01T11:50:03.378Z</time></trkpt><trkpt lat="35.4932124" lon="8.8028107"><ele>971.0</ele><time>2026-05-01T11:50:04.385Z</time></trkpt><trkpt lat="35.493193" lon="8.802592"><ele>971.0</ele><time>2026-05-01T11:50:05.377Z</time></trkpt><trkpt lat="35.4931862" lon="8.8023699"><ele>971.0</ele><time>2026-05-01T11:50:06.378Z</time></trkpt><trkpt lat="35.4931935" lon="8.8021342"><ele>971.0</ele><time>2026-05-01T11:50:07.392Z</time></trkpt><trkpt lat="35.4932052" lon="8.8018977"><ele>971.0</ele><time>2026-05-01T11:50:08.38Z</time></trkpt><trkpt lat="35.4932322" lon="8.8016563"><ele>971.0</ele><time>2026-05-01T11:50:09.378Z</time></trkpt><trkpt lat="35.4932693" lon="8.80141"><ele>970.0</ele><time>2026-05-01T11:50:10.37Z</time></trkpt><trkpt lat="35.4933208" lon="8.8011687"><ele>969.0</ele><time>2026-05-01T11:50:11.376Z</time></trkpt><trkpt lat="35.493385" lon="8.8009364"><ele>968.0</ele><time>2026-05-01T11:50:12.37Z</time></trkpt><trkpt lat="35.4934601" lon="8.8007103"><ele>966.0</ele><time>2026-05-01T11:50:13.376Z</time></trkpt><trkpt lat="35.4935459" lon="8.8004816"><ele>964.0</ele><time>2026-05-01T11:50:14.378Z</time></trkpt><trkpt lat="35.4936359" lon="8.800264"><ele>962.0</ele><time>2026-05-01T11:50:15.379Z</time></trkpt><trkpt lat="35.4937279" lon="8.8000497"><ele>962.0</ele><time>2026-05-01T11:50:16.383Z</time></trkpt><trkpt lat="35.493812" lon="8.7998353"><ele>962.0</ele><time>2026-05-01T11:50:17.379Z</time></trkpt><trkpt lat="35.493901" lon="8.7996244"><ele>962.0</ele><time>2026-05-01T11:50:18.376Z</time></trkpt><trkpt lat="35.4939846" lon="8.7994144"><ele>962.3333333333334</ele><time>2026-05-01T11:50:19.37Z</time></trkpt><trkpt lat="35.4940687" lon="8.7992083"><ele>962.6666666666667</ele><time>2026-05-01T11:50:20.393Z</time></trkpt><trkpt lat="35.494151" lon="8.7989997"><ele>963.0</ele><time>2026-05-01T11:50:21.374Z</time></trkpt><trkpt lat="35.4942303" lon="8.7987905"><ele>963.0</ele><time>2026-05-01T11:50:22.375Z</time></trkpt><trkpt lat="35.4943069" lon="8.7985729"><ele>963.0</ele><time>2026-05-01T11:50:23.364Z</time></trkpt><trkpt lat="35.4943735" lon="8.7983499"><ele>963.0</ele><time>2026-05-01T11:50:24.385Z</time></trkpt><trkpt lat="35.4944382" lon="8.7981233"><ele>963.3333333333333</ele><time>2026-05-01T11:50:25.377Z</time></trkpt><trkpt lat="35.4945007" lon="8.7978952"><ele>963.6666666666666</ele><time>2026-05-01T11:50:26.374Z</time></trkpt><trkpt lat="35.4945571" lon="8.7976633"><ele>964.0</ele><time>2026-05-01T11:50:27.373Z</time></trkpt><trkpt lat="35.4946053" lon="8.797429"><ele>965.0</ele><time>2026-05-01T11:50:28.364Z</time></trkpt><trkpt lat="35.4946532" lon="8.7971976"><ele>966.0</ele><time>2026-05-01T11:50:29.375Z</time></trkpt><trkpt lat="35.4946967" lon="8.7969623"><ele>967.0</ele><time>2026-05-01T11:50:30.373Z</time></trkpt><trkpt lat="35.4947405" lon="8.7967256"><ele>968.0</ele><time>2026-05-01T11:50:31.369Z</time></trkpt><trkpt lat="35.4947835" lon="8.7964895"><ele>969.0</ele><time>2026-05-01T11:50:32.373Z</time></trkpt><trkpt lat="35.494827" lon="8.7962501"><ele>970.0</ele><time>2026-05-01T11:50:33.381Z</time></trkpt><trkpt lat="35.4948643" lon="8.7960146"><ele>970.3333333333333</ele><time>2026-05-01T11:50:34.381Z</time></trkpt><trkpt lat="35.4949056" lon="8.7957814"><ele>970.6666666666667</ele><time>2026-05-01T11:50:35.373Z</time></trkpt><trkpt lat="35.4949454" lon="8.7955462"><ele>971.0</ele><time>2026-05-01T11:50:36.381Z</time></trkpt><trkpt lat="35.4949895" lon="8.7953203"><ele>971.3333333333334</ele><time>2026-05-01T11:50:37.362Z</time></trkpt><trkpt lat="35.4950357" lon="8.7950941"><ele>971.6666666666667</ele><time>2026-05-01T11:50:38.385Z</time></trkpt><trkpt lat="35.4950801" lon="8.7948717"><ele>972.0</ele><time>2026-05-01T11:50:39.376Z</time></trkpt><trkpt lat="35.4951262" lon="8.7946482"><ele>972.0</ele><time>2026-05-01T11:50:40.379Z</time></trkpt><trkpt lat="35.4951674" lon="8.7944293"><ele>972.0</ele><time>2026-05-01T11:50:41.374Z</time></trkpt><trkpt lat="35.495212" lon="8.7942087"><ele>972.0</ele><time>2026-05-01T11:50:42.381Z</time></trkpt><trkpt lat="35.4952536" lon="8.7939838"><ele>972.6666666666667</ele><time>2026-05-01T11:50:43.38Z</time></trkpt><trkpt lat="35.4952983" lon="8.7937502"><ele>973.3333333333334</ele><time>2026-05-01T11:50:44.379Z</time></trkpt><trkpt lat="35.4953464" lon="8.7935075"><ele>974.0</ele><time>2026-05-01T11:50:45.37Z</time></trkpt><trkpt lat="35.4953925" lon="8.7932631"><ele>974.0</ele><time>2026-05-01T11:50:46.38Z</time></trkpt><trkpt lat="35.495442" lon="8.7930071"><ele>974.0</ele><time>2026-05-01T11:50:47.377Z</time></trkpt><trkpt lat="35.4954901" lon="8.7927582"><ele>974.0</ele><time>2026-05-01T11:50:48.37Z</time></trkpt><trkpt lat="35.4955397" lon="8.7925002"><ele>974.0</ele><time>2026-05-01T11:50:49.378Z</time></trkpt><trkpt lat="35.4955902" lon="8.7922398"><ele>974.0</ele><time>2026-05-01T11:50:50.373Z</time></trkpt><trkpt lat="35.4956355" lon="8.7919792"><ele>974.0</ele><time>2026-05-01T11:50:51.38Z</time></trkpt><trkpt lat="35.4956848" lon="8.7917226"><ele>973.3333333333334</ele><time>2026-05-01T11:50:52.372Z</time></trkpt><trkpt lat="35.4957283" lon="8.7914738"><ele>972.6666666666667</ele><time>2026-05-01T11:50:53.381Z</time></trkpt><trkpt lat="35.4957773" lon="8.7912348"><ele>972.0</ele><time>2026-05-01T11:50:54.375Z</time></trkpt><trkpt lat="35.495827" lon="8.7910053"><ele>972.0</ele><time>2026-05-01T11:50:55.382Z</time></trkpt><trkpt lat="35.495873" lon="8.7907775"><ele>972.0</ele><time>2026-05-01T11:50:56.376Z</time></trkpt><trkpt lat="35.4959171" lon="8.7905469"><ele>972.0</ele><time>2026-05-01T11:50:57.383Z</time></trkpt><trkpt lat="35.4959587" lon="8.7903206"><ele>971.6666666666667</ele><time>2026-05-01T11:50:58.371Z</time></trkpt><trkpt lat="35.4960035" lon="8.7900878"><ele>971.3333333333334</ele><time>2026-05-01T11:50:59.402Z</time></trkpt><trkpt lat="35.4960498" lon="8.7898585"><ele>971.0</ele><time>2026-05-01T11:51:00.38Z</time></trkpt><trkpt lat="35.4960923" lon="8.7896294"><ele>971.0</ele><time>2026-05-01T11:51:01.384Z</time></trkpt><trkpt lat="35.4961352" lon="8.7894004"><ele>971.0</ele><time>2026-05-01T11:51:02.374Z</time></trkpt><trkpt lat="35.4961785" lon="8.7891737"><ele>971.0</ele><time>2026-05-01T11:51:03.383Z</time></trkpt><trkpt lat="35.4962245" lon="8.7889521"><ele>972.0</ele><time>2026-05-01T11:51:04.382Z</time></trkpt><trkpt lat="35.496272" lon="8.7887321"><ele>973.0</ele><time>2026-05-01T11:51:05.378Z</time></trkpt><trkpt lat="35.4963168" lon="8.7885163"><ele>974.0</ele><time>2026-05-01T11:51:06.386Z</time></trkpt><trkpt lat="35.4963588" lon="8.7883"><ele>974.0</ele><time>2026-05-01T11:51:07.381Z</time></trkpt><trkpt lat="35.4964024" lon="8.7880907"><ele>974.0</ele><time>2026-05-01T11:51:08.38Z</time></trkpt><trkpt lat="35.4964498" lon="8.7878744"><ele>974.0</ele><time>2026-05-01T11:51:09.36Z</time></trkpt><trkpt lat="35.4965021" lon="8.7876641"><ele>974.0</ele><time>2026-05-01T11:51:10.373Z</time></trkpt><trkpt lat="35.4965558" lon="8.7874555"><ele>974.0</ele><time>2026-05-01T11:51:11.371Z</time></trkpt><trkpt lat="35.4966123" lon="8.7872533"><ele>974.0</ele><time>2026-05-01T11:51:12.366Z</time></trkpt><trkpt lat="35.4966738" lon="8.7870492"><ele>973.6666666666667</ele><time>2026-05-01T11:51:13.365Z</time></trkpt><trkpt lat="35.4967396" lon="8.7868431"><ele>973.3333333333333</ele><time>2026-05-01T11:51:14.367Z</time></trkpt><trkpt lat="35.4968098" lon="8.786633"><ele>973.0</ele><time>2026-05-01T11:51:15.375Z</time></trkpt><trkpt lat="35.4968801" lon="8.7864186"><ele>973.0</ele><time>2026-05-01T11:51:16.399Z</time></trkpt><trkpt lat="35.4969512" lon="8.786197"><ele>973.0</ele><time>2026-05-01T11:51:17.367Z</time></trkpt><trkpt lat="35.4970236" lon="8.7859747"><ele>973.0</ele><time>2026-05-01T11:51:18.371Z</time></trkpt><trkpt lat="35.4970964" lon="8.7857598"><ele>972.6666666666666</ele><time>2026-05-01T11:51:19.379Z</time></trkpt><trkpt lat="35.4971716" lon="8.7855511"><ele>972.3333333333333</ele><time>2026-05-01T11:51:20.371Z</time></trkpt><trkpt lat="35.4972439" lon="8.7853395"><ele>972.0</ele><time>2026-05-01T11:51:21.372Z</time></trkpt><trkpt lat="35.4973149" lon="8.7851259"><ele>971.0</ele><time>2026-05-01T11:51:22.381Z</time></trkpt><trkpt lat="35.4973858" lon="8.7849125"><ele>970.0</ele><time>2026-05-01T11:51:23.367Z</time></trkpt><trkpt lat="35.4974606" lon="8.7846941"><ele>969.0</ele><time>2026-05-01T11:51:24.381Z</time></trkpt><trkpt lat="35.4975324" lon="8.7844773"><ele>969.3333333333333</ele><time>2026-05-01T11:51:25.378Z</time></trkpt><trkpt lat="35.4976082" lon="8.784255"><ele>969.6666666666666</ele><time>2026-05-01T11:51:26.375Z</time></trkpt><trkpt lat="35.497682" lon="8.784034"><ele>970.0</ele><time>2026-05-01T11:51:27.378Z</time></trkpt><trkpt lat="35.4977569" lon="8.7838086"><ele>970.0</ele><time>2026-05-01T11:51:28.378Z</time></trkpt><trkpt lat="35.497836" lon="8.7835805"><ele>970.0</ele><time>2026-05-01T11:51:29.383Z</time></trkpt><trkpt lat="35.4979094" lon="8.7833512"><ele>970.0</ele><time>2026-05-01T11:51:30.381Z</time></trkpt><trkpt lat="35.4979846" lon="8.7831174"><ele>969.0</ele><time>2026-05-01T11:51:31.417Z</time></trkpt><trkpt lat="35.498062" lon="8.7828869"><ele>968.0</ele><time>2026-05-01T11:51:32.396Z</time></trkpt><trkpt lat="35.4981348" lon="8.7826617"><ele>967.0</ele><time>2026-05-01T11:51:33.379Z</time></trkpt><trkpt lat="35.4982129" lon="8.7824359"><ele>966.0</ele><time>2026-05-01T11:51:34.368Z</time></trkpt><trkpt lat="35.498283" lon="8.7822152"><ele>965.0</ele><time>2026-05-01T11:51:35.379Z</time></trkpt><trkpt lat="35.4983527" lon="8.7820032"><ele>964.0</ele><time>2026-05-01T11:51:36.378Z</time></trkpt><trkpt lat="35.4984241" lon="8.7817853"><ele>963.3333333333333</ele><time>2026-05-01T11:51:37.372Z</time></trkpt><trkpt lat="35.4984904" lon="8.781576"><ele>962.6666666666667</ele><time>2026-05-01T11:51:38.385Z</time></trkpt><trkpt lat="35.4985511" lon="8.781383"><ele>962.0</ele><time>2026-05-01T11:51:39.37Z</time></trkpt><trkpt lat="35.4986125" lon="8.7811988"><ele>962.0</ele><time>2026-05-01T11:51:40.374Z</time></trkpt><trkpt lat="35.4986715" lon="8.7810262"><ele>962.0</ele><time>2026-05-01T11:51:41.372Z</time></trkpt><trkpt lat="35.4987353" lon="8.7808489"><ele>962.0</ele><time>2026-05-01T11:51:42.374Z</time></trkpt><trkpt lat="35.4987959" lon="8.7806771"><ele>961.6666666666667</ele><time>2026-05-01T11:51:43.367Z</time></trkpt><trkpt lat="35.4988594" lon="8.7804896"><ele>961.3333333333333</ele><time>2026-05-01T11:51:44.379Z</time></trkpt><trkpt lat="35.4989204" lon="8.7802966"><ele>961.0</ele><time>2026-05-01T11:51:45.384Z</time></trkpt><trkpt lat="35.4989808" lon="8.7801157"><ele>961.0</ele><time>2026-05-01T11:51:46.37Z</time></trkpt><trkpt lat="35.4990432" lon="8.77993"><ele>961.0</ele><time>2026-05-01T11:51:47.369Z</time></trkpt><trkpt lat="35.4991024" lon="8.7797461"><ele>961.0</ele><time>2026-05-01T11:51:48.378Z</time></trkpt><trkpt lat="35.4991663" lon="8.7795614"><ele>961.0</ele><time>2026-05-01T11:51:49.384Z</time></trkpt><trkpt lat="35.4992286" lon="8.7793773"><ele>961.0</ele><time>2026-05-01T11:51:50.382Z</time></trkpt><trkpt lat="35.4992873" lon="8.7791939"><ele>961.0</ele><time>2026-05-01T11:51:51.386Z</time></trkpt><trkpt lat="35.4993518" lon="8.7790293"><ele>961.25</ele><time>2026-05-01T11:51:52.38Z</time></trkpt><trkpt lat="35.4994077" lon="8.7788643"><ele>961.5</ele><time>2026-05-01T11:51:53.373Z</time></trkpt><trkpt lat="35.4994588" lon="8.7787067"><ele>961.75</ele><time>2026-05-01T11:51:54.375Z</time></trkpt><trkpt lat="35.499514" lon="8.7785404"><ele>962.0</ele><time>2026-05-01T11:51:55.382Z</time></trkpt><trkpt lat="35.4995741" lon="8.7783731"><ele>962.5</ele><time>2026-05-01T11:51:56.38Z</time></trkpt><trkpt lat="35.4996323" lon="8.7782074"><ele>963.0</ele><time>2026-05-01T11:51:57.382Z</time></trkpt><trkpt lat="35.4996891" lon="8.7780431"><ele>963.5</ele><time>2026-05-01T11:51:58.39Z</time></trkpt><trkpt lat="35.4997456" lon="8.7778814"><ele>964.0</ele><time>2026-05-01T11:51:59.381Z</time></trkpt><trkpt lat="35.4997977" lon="8.7777228"><ele>963.25</ele><time>2026-05-01T11:52:00.378Z</time></trkpt><trkpt lat="35.4998464" lon="8.7775723"><ele>962.5</ele><time>2026-05-01T11:52:01.403Z</time></trkpt><trkpt lat="35.4998918" lon="8.7774257"><ele>961.75</ele><time>2026-05-01T11:52:02.382Z</time></trkpt><trkpt lat="35.4999418" lon="8.7772711"><ele>961.0</ele><time>2026-05-01T11:52:03.376Z</time></trkpt><trkpt lat="35.500001" lon="8.7770885"><ele>961.0</ele><time>2026-05-01T11:52:04.382Z</time></trkpt><trkpt lat="35.5000726" lon="8.776864"><ele>961.0</ele><time>2026-05-01T11:52:05.383Z</time></trkpt><trkpt lat="35.5001649" lon="8.776586"><ele>961.0</ele><time>2026-05-01T11:52:06.385Z</time></trkpt><trkpt lat="35.5002571" lon="8.7763099"><ele>960.6666666666666</ele><time>2026-05-01T11:52:07.38Z</time></trkpt><trkpt lat="35.5003396" lon="8.7760737"><ele>960.3333333333333</ele><time>2026-05-01T11:52:08.382Z</time></trkpt><trkpt lat="35.5004113" lon="8.7758644"><ele>960.0</ele><time>2026-05-01T11:52:09.372Z</time></trkpt><trkpt lat="35.5004688" lon="8.7757001"><ele>960.4</ele><time>2026-05-01T11:52:10.372Z</time></trkpt><trkpt lat="35.5005161" lon="8.7755526"><ele>960.8</ele><time>2026-05-01T11:52:11.373Z</time></trkpt><trkpt lat="35.500559" lon="8.7754274"><ele>961.2</ele><time>2026-05-01T11:52:12.369Z</time></trkpt><trkpt lat="35.5005895" lon="8.775345"><ele>961.6</ele><time>2026-05-01T11:52:13.369Z</time></trkpt><trkpt lat="35.5006459" lon="8.7752609"><ele>962.0</ele><time>2026-05-01T11:52:15.376Z</time></trkpt><trkpt lat="35.500709" lon="8.7752283"><ele>961.8333333333334</ele><time>2026-05-01T11:52:18.369Z</time></trkpt><trkpt lat="35.5007422" lon="8.7751276"><ele>961.6666666666667</ele><time>2026-05-01T12:14:12.394Z</time></trkpt><trkpt lat="35.5007281" lon="8.7750434"><ele>961.5</ele><time>2026-05-01T12:14:14.37Z</time></trkpt><trkpt lat="35.5007631" lon="8.7749068"><ele>961.3333333333333</ele><time>2026-05-01T12:14:16.388Z</time></trkpt><trkpt lat="35.5007888" lon="8.7748197"><ele>961.1666666666666</ele><time>2026-05-01T12:14:17.417Z</time></trkpt><trkpt lat="35.5008185" lon="8.7747255"><ele>961.0</ele><time>2026-05-01T12:14:18.377Z</time></trkpt><trkpt lat="35.5008482" lon="8.7746273"><ele>961.0</ele><time>2026-05-01T12:14:19.404Z</time></trkpt><trkpt lat="35.5008758" lon="8.7745321"><ele>960.9999999999999</ele><time>2026-05-01T12:14:20.394Z</time></trkpt><trkpt lat="35.5009105" lon="8.7744315"><ele>960.9999999999999</ele><time>2026-05-01T12:14:21.403Z</time></trkpt><trkpt lat="35.5009379" lon="8.774341"><ele>961.0</ele><time>2026-05-01T12:14:22.409Z</time></trkpt><trkpt lat="35.5009691" lon="8.7742447"><ele>961.0</ele><time>2026-05-01T12:14:23.385Z</time></trkpt><trkpt lat="35.5010988" lon="8.7738831"><ele>960.8</ele><time>2026-05-01T12:14:27.412Z</time></trkpt><trkpt lat="35.5011284" lon="8.7737907"><ele>960.5999999999999</ele><time>2026-05-01T12:14:28.376Z</time></trkpt><trkpt lat="35.5011602" lon="8.7736874"><ele>960.4</ele><time>2026-05-01T12:14:29.385Z</time></trkpt><trkpt lat="35.5011995" lon="8.7735776"><ele>960.2</ele><time>2026-05-01T12:14:30.397Z</time></trkpt><trkpt lat="35.5012416" lon="8.7734622"><ele>960.0</ele><time>2026-05-01T12:14:31.393Z</time></trkpt><trkpt lat="35.5012887" lon="8.7733509"><ele>959.25</ele><time>2026-05-01T12:14:32.375Z</time></trkpt><trkpt lat="35.5013299" lon="8.7732216"><ele>958.5</ele><time>2026-05-01T12:14:33.371Z</time></trkpt><trkpt lat="35.5013724" lon="8.7730864"><ele>957.75</ele><time>2026-05-01T12:14:34.412Z</time></trkpt><trkpt lat="35.5014228" lon="8.7729487"><ele>957.0</ele><time>2026-05-01T12:14:35.382Z</time></trkpt><trkpt lat="35.5014716" lon="8.7728009"><ele>957.0</ele><time>2026-05-01T12:14:36.385Z</time></trkpt><trkpt lat="35.5015222" lon="8.7726434"><ele>957.0</ele><time>2026-05-01T12:14:37.393Z</time></trkpt><trkpt lat="35.5015726" lon="8.772487"><ele>957.0</ele><time>2026-05-01T12:14:38.405Z</time></trkpt><trkpt lat="35.5016233" lon="8.7723294"><ele>957.0</ele><time>2026-05-01T12:14:39.364Z</time></trkpt><trkpt lat="35.5016726" lon="8.7721715"><ele>957.0</ele><time>2026-05-01T12:14:40.381Z</time></trkpt><trkpt lat="35.501729" lon="8.7720144"><ele>957.0</ele><time>2026-05-01T12:14:41.389Z</time></trkpt><trkpt lat="35.5017821" lon="8.7718583"><ele>957.0</ele><time>2026-05-01T12:14:42.377Z</time></trkpt><trkpt lat="35.501834" lon="8.7716887"><ele>957.0</ele><time>2026-05-01T12:14:43.39Z</time></trkpt><trkpt lat="35.5018909" lon="8.7715232"><ele>957.25</ele><time>2026-05-01T12:14:44.389Z</time></trkpt><trkpt lat="35.5019487" lon="8.7713582"><ele>957.5</ele><time>2026-05-01T12:14:45.388Z</time></trkpt><trkpt lat="35.5020056" lon="8.7711885"><ele>957.75</ele><time>2026-05-01T12:14:46.391Z</time></trkpt><trkpt lat="35.5020606" lon="8.7710217"><ele>958.0</ele><time>2026-05-01T12:14:47.401Z</time></trkpt><trkpt lat="35.5021211" lon="8.7708476"><ele>958.5</ele><time>2026-05-01T12:14:48.376Z</time></trkpt><trkpt lat="35.5021824" lon="8.77068"><ele>959.0</ele><time>2026-05-01T12:14:49.373Z</time></trkpt><trkpt lat="35.5022401" lon="8.7705132"><ele>959.5</ele><time>2026-05-01T12:14:50.389Z</time></trkpt><trkpt lat="35.5023005" lon="8.7703457"><ele>960.0</ele><time>2026-05-01T12:14:51.383Z</time></trkpt><trkpt lat="35.5023526" lon="8.7701829"><ele>960.25</ele><time>2026-05-01T12:14:52.389Z</time></trkpt><trkpt lat="35.5024046" lon="8.7700323"><ele>960.5</ele><time>2026-05-01T12:14:53.38Z</time></trkpt><trkpt lat="35.5024555" lon="8.7698806"><ele>960.75</ele><time>2026-05-01T12:14:54.385Z</time></trkpt><trkpt lat="35.5025109" lon="8.7697205"><ele>961.0</ele><time>2026-05-01T12:14:55.385Z</time></trkpt><trkpt lat="35.5025597" lon="8.7695589"><ele>961.0</ele><time>2026-05-01T12:14:56.387Z</time></trkpt><trkpt lat="35.502617" lon="8.7693871"><ele>961.0</ele><time>2026-05-01T12:14:57.383Z</time></trkpt><trkpt lat="35.502676" lon="8.7692141"><ele>961.0</ele><time>2026-05-01T12:14:58.383Z</time></trkpt><trkpt lat="35.5027352" lon="8.7690258"><ele>961.0</ele><time>2026-05-01T12:14:59.401Z</time></trkpt><trkpt lat="35.5027994" lon="8.7688237"><ele>961.0</ele><time>2026-05-01T12:15:00.4Z</time></trkpt><trkpt lat="35.5028762" lon="8.7686082"><ele>961.0</ele><time>2026-05-01T12:15:01.399Z</time></trkpt><trkpt lat="35.502953" lon="8.7683866"><ele>961.0</ele><time>2026-05-01T12:15:02.396Z</time></trkpt><trkpt lat="35.5030296" lon="8.7681657"><ele>961.0</ele><time>2026-05-01T12:15:03.389Z</time></trkpt><trkpt lat="35.5031001" lon="8.767948"><ele>961.0</ele><time>2026-05-01T12:15:04.393Z</time></trkpt><trkpt lat="35.5031747" lon="8.767735"><ele>961.3333333333333</ele><time>2026-05-01T12:15:05.38Z</time></trkpt><trkpt lat="35.5032512" lon="8.7675254"><ele>961.6666666666667</ele><time>2026-05-01T12:15:06.39Z</time></trkpt><trkpt lat="35.5033198" lon="8.7673167"><ele>962.0</ele><time>2026-05-01T12:15:07.385Z</time></trkpt><trkpt lat="35.5033876" lon="8.7671003"><ele>962.0</ele><time>2026-05-01T12:15:08.383Z</time></trkpt><trkpt lat="35.5034584" lon="8.7668912"><ele>962.0</ele><time>2026-05-01T12:15:09.377Z</time></trkpt><trkpt lat="35.5035294" lon="8.766678"><ele>962.0</ele><time>2026-05-01T12:15:10.389Z</time></trkpt><trkpt lat="35.5035995" lon="8.7664615"><ele>962.0</ele><time>2026-05-01T12:15:11.396Z</time></trkpt><trkpt lat="35.50367" lon="8.7662451"><ele>962.0</ele><time>2026-05-01T12:15:12.4Z</time></trkpt><trkpt lat="35.5037433" lon="8.766029"><ele>962.0</ele><time>2026-05-01T12:15:13.399Z</time></trkpt><trkpt lat="35.5038187" lon="8.7658147"><ele>962.6666666666667</ele><time>2026-05-01T12:15:14.391Z</time></trkpt><trkpt lat="35.5038921" lon="8.7656031"><ele>963.3333333333333</ele><time>2026-05-01T12:15:15.388Z</time></trkpt><trkpt lat="35.5039664" lon="8.7653881"><ele>964.0</ele><time>2026-05-01T12:15:16.389Z</time></trkpt><trkpt lat="35.5040416" lon="8.7651745"><ele>964.0</ele><time>2026-05-01T12:15:17.399Z</time></trkpt><trkpt lat="35.5041149" lon="8.7649541"><ele>964.0</ele><time>2026-05-01T12:15:18.38Z</time></trkpt><trkpt lat="35.5041888" lon="8.7647433"><ele>964.0</ele><time>2026-05-01T12:15:19.377Z</time></trkpt><trkpt lat="35.5042615" lon="8.7645262"><ele>963.6666666666666</ele><time>2026-05-01T12:15:20.388Z</time></trkpt><trkpt lat="35.5043324" lon="8.7643123"><ele>963.3333333333333</ele><time>2026-05-01T12:15:21.384Z</time></trkpt><trkpt lat="35.5044013" lon="8.7641167"><ele>963.0</ele><time>2026-05-01T12:15:22.402Z</time></trkpt><trkpt lat="35.5044659" lon="8.7639274"><ele>963.0</ele><time>2026-05-01T12:15:23.393Z</time></trkpt><trkpt lat="35.5045265" lon="8.7637519"><ele>963.0</ele><time>2026-05-01T12:15:24.397Z</time></trkpt><trkpt lat="35.5045809" lon="8.7635839"><ele>963.0</ele><time>2026-05-01T12:15:25.393Z</time></trkpt><trkpt lat="35.5046336" lon="8.7634229"><ele>963.0</ele><time>2026-05-01T12:15:26.378Z</time></trkpt><trkpt lat="35.5046858" lon="8.7632778"><ele>963.5</ele><time>2026-05-01T12:15:27.384Z</time></trkpt><trkpt lat="35.5047356" lon="8.763133"><ele>964.0</ele><time>2026-05-01T12:15:28.388Z</time></trkpt><trkpt lat="35.5047847" lon="8.7629979"><ele>964.5</ele><time>2026-05-01T12:15:29.396Z</time></trkpt><trkpt lat="35.5048292" lon="8.7628648"><ele>965.0</ele><time>2026-05-01T12:15:30.394Z</time></trkpt><trkpt lat="35.5048692" lon="8.7627275"><ele>965.25</ele><time>2026-05-01T12:15:31.381Z</time></trkpt><trkpt lat="35.5049147" lon="8.7625827"><ele>965.5</ele><time>2026-05-01T12:15:32.397Z</time></trkpt><trkpt lat="35.5049666" lon="8.7624386"><ele>965.75</ele><time>2026-05-01T12:15:33.389Z</time></trkpt><trkpt lat="35.5050222" lon="8.7622906"><ele>966.0</ele><time>2026-05-01T12:15:34.392Z</time></trkpt><trkpt lat="35.5050737" lon="8.7621342"><ele>966.0</ele><time>2026-05-01T12:15:35.397Z</time></trkpt><trkpt lat="35.5051267" lon="8.7619784"><ele>966.0</ele><time>2026-05-01T12:15:36.399Z</time></trkpt><trkpt lat="35.5051805" lon="8.7618201"><ele>966.0</ele><time>2026-05-01T12:15:37.387Z</time></trkpt><trkpt lat="35.5052348" lon="8.7616638"><ele>966.0</ele><time>2026-05-01T12:15:38.397Z</time></trkpt><trkpt lat="35.5052872" lon="8.7615137"><ele>966.0</ele><time>2026-05-01T12:15:39.394Z</time></trkpt><trkpt lat="35.505343" lon="8.7613575"><ele>966.0</ele><time>2026-05-01T12:15:40.39Z</time></trkpt><trkpt lat="35.505403" lon="8.7611951"><ele>966.0</ele><time>2026-05-01T12:15:41.393Z</time></trkpt><trkpt lat="35.5054597" lon="8.761029"><ele>966.0</ele><time>2026-05-01T12:15:42.392Z</time></trkpt><trkpt lat="35.5055173" lon="8.7608642"><ele>966.0</ele><time>2026-05-01T12:15:43.397Z</time></trkpt><trkpt lat="35.5055758" lon="8.7607017"><ele>966.0</ele><time>2026-05-01T12:15:44.403Z</time></trkpt><trkpt lat="35.5056313" lon="8.7605406"><ele>966.0</ele><time>2026-05-01T12:15:45.382Z</time></trkpt><trkpt lat="35.5056872" lon="8.7603713"><ele>966.0</ele><time>2026-05-01T12:15:46.387Z</time></trkpt><trkpt lat="35.5057501" lon="8.7602008"><ele>966.6666666666667</ele><time>2026-05-01T12:15:47.384Z</time></trkpt><trkpt lat="35.5058135" lon="8.7600192"><ele>967.3333333333334</ele><time>2026-05-01T12:15:48.382Z</time></trkpt><trkpt lat="35.5058762" lon="8.7598411"><ele>968.0</ele><time>2026-05-01T12:15:49.391Z</time></trkpt><trkpt lat="35.5059361" lon="8.7596608"><ele>968.0</ele><time>2026-05-01T12:15:50.407Z</time></trkpt><trkpt lat="35.5059949" lon="8.7594839"><ele>968.0</ele><time>2026-05-01T12:15:51.391Z</time></trkpt><trkpt lat="35.5060591" lon="8.7593042"><ele>968.0</ele><time>2026-05-01T12:15:52.407Z</time></trkpt><trkpt lat="35.5061182" lon="8.759126"><ele>968.6666666666667</ele><time>2026-05-01T12:15:53.398Z</time></trkpt><trkpt lat="35.5061817" lon="8.7589502"><ele>969.3333333333333</ele><time>2026-05-01T12:15:54.392Z</time></trkpt><trkpt lat="35.506244" lon="8.7587719"><ele>970.0</ele><time>2026-05-01T12:15:55.4Z</time></trkpt><trkpt lat="35.5063037" lon="8.7585934"><ele>971.0</ele><time>2026-05-01T12:15:56.385Z</time></trkpt><trkpt lat="35.5063667" lon="8.7584121"><ele>972.0</ele><time>2026-05-01T12:15:57.379Z</time></trkpt><trkpt lat="35.506433" lon="8.7582303"><ele>973.0</ele><time>2026-05-01T12:15:58.408Z</time></trkpt><trkpt lat="35.5064981" lon="8.7580464"><ele>973.0</ele><time>2026-05-01T12:15:59.38Z</time></trkpt><trkpt lat="35.5065621" lon="8.7578634"><ele>973.0</ele><time>2026-05-01T12:16:00.391Z</time></trkpt><trkpt lat="35.5066234" lon="8.7576816"><ele>973.0</ele><time>2026-05-01T12:16:01.391Z</time></trkpt><trkpt lat="35.5066844" lon="8.7574957"><ele>973.0</ele><time>2026-05-01T12:16:02.384Z</time></trkpt><trkpt lat="35.5067464" lon="8.7573093"><ele>973.0</ele><time>2026-05-01T12:16:03.398Z</time></trkpt><trkpt lat="35.506809" lon="8.7571281"><ele>973.0</ele><time>2026-05-01T12:16:04.395Z</time></trkpt><trkpt lat="35.5068687" lon="8.7569447"><ele>973.0</ele><time>2026-05-01T12:16:05.39Z</time></trkpt><trkpt lat="35.5069343" lon="8.7567665"><ele>973.0</ele><time>2026-05-01T12:16:06.4Z</time></trkpt><trkpt lat="35.5069974" lon="8.7565837"><ele>973.0</ele><time>2026-05-01T12:16:07.403Z</time></trkpt><trkpt lat="35.5070576" lon="8.7564025"><ele>973.0</ele><time>2026-05-01T12:16:08.397Z</time></trkpt><trkpt lat="35.507118" lon="8.7562238"><ele>973.0</ele><time>2026-05-01T12:16:09.383Z</time></trkpt><trkpt lat="35.5071761" lon="8.7560427"><ele>973.0</ele><time>2026-05-01T12:16:10.393Z</time></trkpt><trkpt lat="35.5072348" lon="8.7558522"><ele>973.0</ele><time>2026-05-01T12:16:11.393Z</time></trkpt><trkpt lat="35.5072949" lon="8.7556687"><ele>973.0</ele><time>2026-05-01T12:16:12.396Z</time></trkpt><trkpt lat="35.5073531" lon="8.7554813"><ele>973.0</ele><time>2026-05-01T12:16:13.412Z</time></trkpt><trkpt lat="35.5074147" lon="8.7553014"><ele>973.0</ele><time>2026-05-01T12:16:14.406Z</time></trkpt><trkpt lat="35.507477" lon="8.7551183"><ele>973.0</ele><time>2026-05-01T12:16:15.392Z</time></trkpt><trkpt lat="35.5075367" lon="8.7549337"><ele>973.0</ele><time>2026-05-01T12:16:16.399Z</time></trkpt><trkpt lat="35.5075945" lon="8.7547537"><ele>973.0</ele><time>2026-05-01T12:16:17.392Z</time></trkpt><trkpt lat="35.507654" lon="8.7545686"><ele>973.0</ele><time>2026-05-01T12:16:18.399Z</time></trkpt><trkpt lat="35.5077163" lon="8.7543858"><ele>973.0</ele><time>2026-05-01T12:16:19.39Z</time></trkpt><trkpt lat="35.5077717" lon="8.7542017"><ele>973.6666666666666</ele><time>2026-05-01T12:16:20.409Z</time></trkpt><trkpt lat="35.5078328" lon="8.7540156"><ele>974.3333333333333</ele><time>2026-05-01T12:16:21.398Z</time></trkpt><trkpt lat="35.5078902" lon="8.7538329"><ele>975.0</ele><time>2026-05-01T12:16:22.387Z</time></trkpt><trkpt lat="35.5079493" lon="8.7536495"><ele>975.6666666666667</ele><time>2026-05-01T12:16:23.393Z</time></trkpt><trkpt lat="35.5080074" lon="8.7534664"><ele>976.3333333333334</ele><time>2026-05-01T12:16:24.378Z</time></trkpt><trkpt lat="35.508066" lon="8.7532786"><ele>977.0</ele><time>2026-05-01T12:16:25.386Z</time></trkpt><trkpt lat="35.5081241" lon="8.753096"><ele>977.0</ele><time>2026-05-01T12:16:26.385Z</time></trkpt><trkpt lat="35.5081871" lon="8.7529116"><ele>977.0</ele><time>2026-05-01T12:16:27.393Z</time></trkpt><trkpt lat="35.5082498" lon="8.7527265"><ele>977.0</ele><time>2026-05-01T12:16:28.391Z</time></trkpt><trkpt lat="35.5083146" lon="8.7525393"><ele>977.0</ele><time>2026-05-01T12:16:29.396Z</time></trkpt><trkpt lat="35.5083764" lon="8.7523592"><ele>977.0</ele><time>2026-05-01T12:16:30.39Z</time></trkpt><trkpt lat="35.5084362" lon="8.7521774"><ele>977.0</ele><time>2026-05-01T12:16:31.399Z</time></trkpt><trkpt lat="35.5084976" lon="8.751996"><ele>977.6666666666667</ele><time>2026-05-01T12:16:32.405Z</time></trkpt><trkpt lat="35.5085624" lon="8.7518121"><ele>978.3333333333333</ele><time>2026-05-01T12:16:33.39Z</time></trkpt><trkpt lat="35.5086284" lon="8.7516333"><ele>979.0</ele><time>2026-05-01T12:16:34.384Z</time></trkpt><trkpt lat="35.50869" lon="8.7514518"><ele>978.6666666666666</ele><time>2026-05-01T12:16:35.402Z</time></trkpt><trkpt lat="35.508749" lon="8.7512734"><ele>978.3333333333333</ele><time>2026-05-01T12:16:36.396Z</time></trkpt><trkpt lat="35.5088088" lon="8.7510905"><ele>978.0</ele><time>2026-05-01T12:16:37.39Z</time></trkpt><trkpt lat="35.5088723" lon="8.7509108"><ele>978.6666666666667</ele><time>2026-05-01T12:16:38.403Z</time></trkpt><trkpt lat="35.5089403" lon="8.7507295"><ele>979.3333333333334</ele><time>2026-05-01T12:16:39.397Z</time></trkpt><trkpt lat="35.5090049" lon="8.7505493"><ele>980.0</ele><time>2026-05-01T12:16:40.378Z</time></trkpt><trkpt lat="35.5090736" lon="8.7503648"><ele>979.6666666666667</ele><time>2026-05-01T12:16:41.407Z</time></trkpt><trkpt lat="35.5091427" lon="8.7501885"><ele>979.3333333333333</ele><time>2026-05-01T12:16:42.401Z</time></trkpt><trkpt lat="35.5092148" lon="8.7500105"><ele>979.0</ele><time>2026-05-01T12:16:43.403Z</time></trkpt><trkpt lat="35.5092885" lon="8.7498368"><ele>979.0</ele><time>2026-05-01T12:16:44.394Z</time></trkpt><trkpt lat="35.5093593" lon="8.749663"><ele>979.0</ele><time>2026-05-01T12:16:45.38Z</time></trkpt><trkpt lat="35.5094308" lon="8.7494881"><ele>979.0</ele><time>2026-05-01T12:16:46.385Z</time></trkpt><trkpt lat="35.5095037" lon="8.7493067"><ele>979.6666666666666</ele><time>2026-05-01T12:16:47.4Z</time></trkpt><trkpt lat="35.5095771" lon="8.7491269"><ele>980.3333333333333</ele><time>2026-05-01T12:16:48.402Z</time></trkpt><trkpt lat="35.5096472" lon="8.7489517"><ele>981.0</ele><time>2026-05-01T12:16:49.393Z</time></trkpt><trkpt lat="35.5097204" lon="8.7487753"><ele>981.0</ele><time>2026-05-01T12:16:50.406Z</time></trkpt><trkpt lat="35.5097924" lon="8.748599"><ele>981.0</ele><time>2026-05-01T12:16:51.39Z</time></trkpt><trkpt lat="35.5098685" lon="8.7484218"><ele>981.0</ele><time>2026-05-01T12:16:52.394Z</time></trkpt><trkpt lat="35.5099444" lon="8.7482446"><ele>981.0</ele><time>2026-05-01T12:16:53.399Z</time></trkpt><trkpt lat="35.5100164" lon="8.7480708"><ele>981.0</ele><time>2026-05-01T12:16:54.381Z</time></trkpt><trkpt lat="35.5100945" lon="8.7478877"><ele>981.0</ele><time>2026-05-01T12:16:55.394Z</time></trkpt><trkpt lat="35.5101692" lon="8.7477101"><ele>980.6666666666667</ele><time>2026-05-01T12:16:56.392Z</time></trkpt><trkpt lat="35.5102531" lon="8.7475142"><ele>980.3333333333334</ele><time>2026-05-01T12:16:57.403Z</time></trkpt><trkpt lat="35.5103362" lon="8.7473199"><ele>980.0</ele><time>2026-05-01T12:16:58.395Z</time></trkpt><trkpt lat="35.5104148" lon="8.7471192"><ele>980.0</ele><time>2026-05-01T12:16:59.39Z</time></trkpt><trkpt lat="35.5104973" lon="8.7469122"><ele>980.0</ele><time>2026-05-01T12:17:00.392Z</time></trkpt><trkpt lat="35.5105851" lon="8.7467044"><ele>980.0</ele><time>2026-05-01T12:17:01.384Z</time></trkpt><trkpt lat="35.5106753" lon="8.7464896"><ele>980.6666666666667</ele><time>2026-05-01T12:17:02.392Z</time></trkpt><trkpt lat="35.5107699" lon="8.7462775"><ele>981.3333333333333</ele><time>2026-05-01T12:17:03.388Z</time></trkpt><trkpt lat="35.5108573" lon="8.7460559"><ele>982.0</ele><time>2026-05-01T12:17:04.403Z</time></trkpt><trkpt lat="35.5109508" lon="8.7458293"><ele>982.3333333333333</ele><time>2026-05-01T12:17:05.386Z</time></trkpt><trkpt lat="35.5110491" lon="8.7455971"><ele>982.6666666666667</ele><time>2026-05-01T12:17:06.4Z</time></trkpt><trkpt lat="35.5111439" lon="8.7453816"><ele>983.0</ele><time>2026-05-01T12:17:07.399Z</time></trkpt><trkpt lat="35.511234" lon="8.7451552"><ele>983.0</ele><time>2026-05-01T12:17:08.405Z</time></trkpt><trkpt lat="35.5113254" lon="8.7449366"><ele>983.0</ele><time>2026-05-01T12:17:09.388Z</time></trkpt><trkpt lat="35.5114148" lon="8.7447219"><ele>983.0</ele><time>2026-05-01T12:17:10.378Z</time></trkpt><trkpt lat="35.5115011" lon="8.7445203"><ele>984.0</ele><time>2026-05-01T12:17:11.383Z</time></trkpt><trkpt lat="35.5115883" lon="8.7443217"><ele>985.0</ele><time>2026-05-01T12:17:12.399Z</time></trkpt><trkpt lat="35.5116735" lon="8.7441335"><ele>986.0</ele><time>2026-05-01T12:17:13.398Z</time></trkpt><trkpt lat="35.5117565" lon="8.743953"><ele>986.0</ele><time>2026-05-01T12:17:14.4Z</time></trkpt><trkpt lat="35.511841" lon="8.7437694"><ele>986.0</ele><time>2026-05-01T12:17:15.399Z</time></trkpt><trkpt lat="35.511925" lon="8.7435826"><ele>986.0</ele><time>2026-05-01T12:17:16.405Z</time></trkpt><trkpt lat="35.5120071" lon="8.7433915"><ele>985.0</ele><time>2026-05-01T12:17:17.398Z</time></trkpt><trkpt lat="35.5120895" lon="8.7432051"><ele>984.0</ele><time>2026-05-01T12:17:18.436Z</time></trkpt><trkpt lat="35.5121764" lon="8.7430194"><ele>983.0</ele><time>2026-05-01T12:17:19.385Z</time></trkpt><trkpt lat="35.5122601" lon="8.7428334"><ele>983.6666666666667</ele><time>2026-05-01T12:17:20.391Z</time></trkpt><trkpt lat="35.5123477" lon="8.7426487"><ele>984.3333333333333</ele><time>2026-05-01T12:17:21.393Z</time></trkpt><trkpt lat="35.5124332" lon="8.742471"><ele>985.0</ele><time>2026-05-01T12:17:22.397Z</time></trkpt><trkpt lat="35.5125229" lon="8.7422834"><ele>985.0</ele><time>2026-05-01T12:17:23.386Z</time></trkpt><trkpt lat="35.5126067" lon="8.7420998"><ele>985.0</ele><time>2026-05-01T12:17:24.393Z</time></trkpt><trkpt lat="35.5126894" lon="8.7419134"><ele>985.0</ele><time>2026-05-01T12:17:25.389Z</time></trkpt><trkpt lat="35.512772" lon="8.7417343"><ele>985.6666666666666</ele><time>2026-05-01T12:17:26.385Z</time></trkpt><trkpt lat="35.5128541" lon="8.7415479"><ele>986.3333333333333</ele><time>2026-05-01T12:17:27.394Z</time></trkpt><trkpt lat="35.5129379" lon="8.7413631"><ele>987.0</ele><time>2026-05-01T12:17:28.396Z</time></trkpt><trkpt lat="35.5130224" lon="8.7411797"><ele>987.6666666666667</ele><time>2026-05-01T12:17:29.403Z</time></trkpt><trkpt lat="35.5131058" lon="8.7409972"><ele>988.3333333333334</ele><time>2026-05-01T12:17:30.401Z</time></trkpt><trkpt lat="35.51319" lon="8.7408121"><ele>989.0</ele><time>2026-05-01T12:17:31.405Z</time></trkpt><trkpt lat="35.5132752" lon="8.7406261"><ele>989.0</ele><time>2026-05-01T12:17:32.399Z</time></trkpt><trkpt lat="35.5133571" lon="8.7404392"><ele>989.0</ele><time>2026-05-01T12:17:33.395Z</time></trkpt><trkpt lat="35.5134433" lon="8.7402519"><ele>989.0</ele><time>2026-05-01T12:17:34.399Z</time></trkpt><trkpt lat="35.5135236" lon="8.7400684"><ele>989.6666666666667</ele><time>2026-05-01T12:17:35.4Z</time></trkpt><trkpt lat="35.5136133" lon="8.7398875"><ele>990.3333333333333</ele><time>2026-05-01T12:17:36.392Z</time></trkpt><trkpt lat="35.513702" lon="8.7397032"><ele>991.0</ele><time>2026-05-01T12:17:37.414Z</time></trkpt><trkpt lat="35.5137877" lon="8.7395208"><ele>990.6666666666666</ele><time>2026-05-01T12:17:38.405Z</time></trkpt><trkpt lat="35.5138722" lon="8.7393355"><ele>990.3333333333333</ele><time>2026-05-01T12:17:39.387Z</time></trkpt><trkpt lat="35.5139588" lon="8.7391499"><ele>990.0</ele><time>2026-05-01T12:17:40.385Z</time></trkpt><trkpt lat="35.5140477" lon="8.7389689"><ele>990.0</ele><time>2026-05-01T12:17:41.39Z</time></trkpt><trkpt lat="35.5141362" lon="8.7387867"><ele>990.0</ele><time>2026-05-01T12:17:42.395Z</time></trkpt><trkpt lat="35.51423" lon="8.7386077"><ele>990.0</ele><time>2026-05-01T12:17:43.403Z</time></trkpt><trkpt lat="35.514321" lon="8.7384305"><ele>990.6666666666667</ele><time>2026-05-01T12:17:44.399Z</time></trkpt><trkpt lat="35.5144167" lon="8.7382488"><ele>991.3333333333334</ele><time>2026-05-01T12:17:45.394Z</time></trkpt><trkpt lat="35.5145129" lon="8.7380694"><ele>992.0</ele><time>2026-05-01T12:17:46.403Z</time></trkpt><trkpt lat="35.5146058" lon="8.737892"><ele>992.3333333333334</ele><time>2026-05-01T12:17:47.4Z</time></trkpt><trkpt lat="35.5146995" lon="8.7377121"><ele>992.6666666666667</ele><time>2026-05-01T12:17:48.394Z</time></trkpt><trkpt lat="35.5147929" lon="8.7375373"><ele>993.0</ele><time>2026-05-01T12:17:49.393Z</time></trkpt><trkpt lat="35.5148848" lon="8.7373561"><ele>993.0</ele><time>2026-05-01T12:17:50.405Z</time></trkpt><trkpt lat="35.5149755" lon="8.7371746"><ele>993.0</ele><time>2026-05-01T12:17:51.393Z</time></trkpt><trkpt lat="35.5150647" lon="8.736995"><ele>993.0</ele><time>2026-05-01T12:17:52.393Z</time></trkpt><trkpt lat="35.515159" lon="8.7368181"><ele>993.3333333333333</ele><time>2026-05-01T12:17:53.397Z</time></trkpt><trkpt lat="35.5152575" lon="8.7366377"><ele>993.6666666666666</ele><time>2026-05-01T12:17:54.395Z</time></trkpt><trkpt lat="35.5153499" lon="8.7364577"><ele>994.0</ele><time>2026-05-01T12:17:55.398Z</time></trkpt><trkpt lat="35.5154406" lon="8.7362797"><ele>994.6666666666666</ele><time>2026-05-01T12:17:56.391Z</time></trkpt><trkpt lat="35.5155316" lon="8.7361006"><ele>995.3333333333333</ele><time>2026-05-01T12:17:57.398Z</time></trkpt><trkpt lat="35.5156229" lon="8.7359207"><ele>996.0</ele><time>2026-05-01T12:17:58.406Z</time></trkpt><trkpt lat="35.5157141" lon="8.7357429"><ele>996.3333333333333</ele><time>2026-05-01T12:17:59.395Z</time></trkpt><trkpt lat="35.5158098" lon="8.7355694"><ele>996.6666666666666</ele><time>2026-05-01T12:18:00.403Z</time></trkpt><trkpt lat="35.5159014" lon="8.7353933"><ele>997.0</ele><time>2026-05-01T12:18:01.39Z</time></trkpt><trkpt lat="35.5159929" lon="8.7352139"><ele>997.0</ele><time>2026-05-01T12:18:02.396Z</time></trkpt><trkpt lat="35.5160861" lon="8.7350357"><ele>997.0</ele><time>2026-05-01T12:18:03.387Z</time></trkpt><trkpt lat="35.5161791" lon="8.7348556"><ele>997.0</ele><time>2026-05-01T12:18:04.387Z</time></trkpt><trkpt lat="35.5162695" lon="8.7346787"><ele>998.0</ele><time>2026-05-01T12:18:05.395Z</time></trkpt><trkpt lat="35.5163589" lon="8.7344956"><ele>999.0</ele><time>2026-05-01T12:18:06.403Z</time></trkpt><trkpt lat="35.5164484" lon="8.7343149"><ele>1000.0</ele><time>2026-05-01T12:18:07.399Z</time></trkpt><trkpt lat="35.5165389" lon="8.7341349"><ele>1000.0</ele><time>2026-05-01T12:18:08.398Z</time></trkpt><trkpt lat="35.5166353" lon="8.7339539"><ele>1000.0</ele><time>2026-05-01T12:18:09.407Z</time></trkpt><trkpt lat="35.5167319" lon="8.7337753"><ele>1000.0</ele><time>2026-05-01T12:18:10.4Z</time></trkpt><trkpt lat="35.5168283" lon="8.7336007"><ele>1000.0</ele><time>2026-05-01T12:18:11.396Z</time></trkpt><trkpt lat="35.5169225" lon="8.7334239"><ele>1000.0</ele><time>2026-05-01T12:18:12.413Z</time></trkpt><trkpt lat="35.5170165" lon="8.7332477"><ele>1000.0</ele><time>2026-05-01T12:18:13.405Z</time></trkpt><trkpt lat="35.5171091" lon="8.733069"><ele>999.6666666666666</ele><time>2026-05-01T12:18:14.408Z</time></trkpt><trkpt lat="35.5172003" lon="8.7328933"><ele>999.3333333333333</ele><time>2026-05-01T12:18:15.398Z</time></trkpt><trkpt lat="35.5172885" lon="8.7327133"><ele>999.0</ele><time>2026-05-01T12:18:16.409Z</time></trkpt><trkpt lat="35.5173798" lon="8.732537"><ele>998.6666666666667</ele><time>2026-05-01T12:18:17.401Z</time></trkpt><trkpt lat="35.5174685" lon="8.732356"><ele>998.3333333333334</ele><time>2026-05-01T12:18:18.39Z</time></trkpt><trkpt lat="35.5175598" lon="8.7321775"><ele>998.0</ele><time>2026-05-01T12:18:19.4Z</time></trkpt><trkpt lat="35.5176555" lon="8.7320016"><ele>999.0</ele><time>2026-05-01T12:18:20.398Z</time></trkpt><trkpt lat="35.5177513" lon="8.7318201"><ele>1000.0</ele><time>2026-05-01T12:18:21.394Z</time></trkpt><trkpt lat="35.5178478" lon="8.7316398"><ele>1001.0</ele><time>2026-05-01T12:18:22.398Z</time></trkpt><trkpt lat="35.517939" lon="8.7314636"><ele>1001.6666666666667</ele><time>2026-05-01T12:18:23.399Z</time></trkpt><trkpt lat="35.5180359" lon="8.7312858"><ele>1002.3333333333333</ele><time>2026-05-01T12:18:24.375Z</time></trkpt><trkpt lat="35.5181355" lon="8.7311104"><ele>1003.0</ele><time>2026-05-01T12:18:25.397Z</time></trkpt><trkpt lat="35.5182337" lon="8.7309341"><ele>1003.3333333333333</ele><time>2026-05-01T12:18:26.39Z</time></trkpt><trkpt lat="35.5183295" lon="8.7307582"><ele>1003.6666666666667</ele><time>2026-05-01T12:18:27.402Z</time></trkpt><trkpt lat="35.5184244" lon="8.7305818"><ele>1004.0</ele><time>2026-05-01T12:18:28.404Z</time></trkpt><trkpt lat="35.5185195" lon="8.7304077"><ele>1004.0</ele><time>2026-05-01T12:18:29.396Z</time></trkpt><trkpt lat="35.5186131" lon="8.730234"><ele>1004.0</ele><time>2026-05-01T12:18:30.399Z</time></trkpt><trkpt lat="35.5187104" lon="8.7300579"><ele>1004.0</ele><time>2026-05-01T12:18:31.4Z</time></trkpt><trkpt lat="35.5188082" lon="8.729876"><ele>1005.0</ele><time>2026-05-01T12:18:32.385Z</time></trkpt><trkpt lat="35.5189062" lon="8.7296961"><ele>1006.0</ele><time>2026-05-01T12:18:33.385Z</time></trkpt><trkpt lat="35.5190075" lon="8.7295222"><ele>1007.0</ele><time>2026-05-01T12:18:34.386Z</time></trkpt><trkpt lat="35.5191069" lon="8.7293502"><ele>1007.6666666666667</ele><time>2026-05-01T12:18:35.396Z</time></trkpt><trkpt lat="35.5192064" lon="8.7291793"><ele>1008.3333333333333</ele><time>2026-05-01T12:18:36.373Z</time></trkpt><trkpt lat="35.519309" lon="8.7289981"><ele>1009.0</ele><time>2026-05-01T12:18:37.392Z</time></trkpt><trkpt lat="35.51941" lon="8.7288102"><ele>1009.0</ele><time>2026-05-01T12:18:38.402Z</time></trkpt><trkpt lat="35.5195047" lon="8.7286157"><ele>1009.0</ele><time>2026-05-01T12:18:39.396Z</time></trkpt><trkpt lat="35.5196007" lon="8.7284166"><ele>1009.0</ele><time>2026-05-01T12:18:40.401Z</time></trkpt><trkpt lat="35.5196985" lon="8.7282206"><ele>1010.0</ele><time>2026-05-01T12:18:41.392Z</time></trkpt><trkpt lat="35.5197937" lon="8.7280164"><ele>1011.0</ele><time>2026-05-01T12:18:42.381Z</time></trkpt><trkpt lat="35.5198869" lon="8.7278102"><ele>1012.0</ele><time>2026-05-01T12:18:43.385Z</time></trkpt><trkpt lat="35.519978" lon="8.7276064"><ele>1012.0</ele><time>2026-05-01T12:18:44.405Z</time></trkpt><trkpt lat="35.5200676" lon="8.7273948"><ele>1012.0</ele><time>2026-05-01T12:18:45.397Z</time></trkpt><trkpt lat="35.5201558" lon="8.7271844"><ele>1012.0</ele><time>2026-05-01T12:18:46.398Z</time></trkpt><trkpt lat="35.5202451" lon="8.7269706"><ele>1012.3333333333333</ele><time>2026-05-01T12:18:47.39Z</time></trkpt><trkpt lat="35.5203408" lon="8.7267569"><ele>1012.6666666666667</ele><time>2026-05-01T12:18:48.371Z</time></trkpt><trkpt lat="35.5204318" lon="8.7265439"><ele>1013.0</ele><time>2026-05-01T12:18:49.395Z</time></trkpt><trkpt lat="35.5205256" lon="8.7263371"><ele>1013.0</ele><time>2026-05-01T12:18:50.399Z</time></trkpt><trkpt lat="35.520619" lon="8.7261219"><ele>1013.0</ele><time>2026-05-01T12:18:51.401Z</time></trkpt><trkpt lat="35.5207065" lon="8.7259051"><ele>1013.0</ele><time>2026-05-01T12:18:52.4Z</time></trkpt><trkpt lat="35.5207926" lon="8.7256864"><ele>1014.0</ele><time>2026-05-01T12:18:53.387Z</time></trkpt><trkpt lat="35.5208854" lon="8.7254723"><ele>1015.0</ele><time>2026-05-01T12:18:54.395Z</time></trkpt><trkpt lat="35.5209767" lon="8.7252552"><ele>1016.0</ele><time>2026-05-01T12:18:55.394Z</time></trkpt><trkpt lat="35.5210646" lon="8.7250346"><ele>1016.3333333333334</ele><time>2026-05-01T12:18:56.41Z</time></trkpt><trkpt lat="35.5211531" lon="8.7248141"><ele>1016.6666666666667</ele><time>2026-05-01T12:18:57.396Z</time></trkpt><trkpt lat="35.5212365" lon="8.7246016"><ele>1017.0</ele><time>2026-05-01T12:18:58.403Z</time></trkpt><trkpt lat="35.5213203" lon="8.7243951"><ele>1018.3333333333333</ele><time>2026-05-01T12:18:59.387Z</time></trkpt><trkpt lat="35.5214042" lon="8.7241765"><ele>1019.6666666666666</ele><time>2026-05-01T12:19:00.389Z</time></trkpt><trkpt lat="35.5214958" lon="8.7239562"><ele>1021.0</ele><time>2026-05-01T12:19:01.392Z</time></trkpt><trkpt lat="35.5215854" lon="8.7237373"><ele>1021.3333333333333</ele><time>2026-05-01T12:19:02.401Z</time></trkpt><trkpt lat="35.5216763" lon="8.7235178"><ele>1021.6666666666667</ele><time>2026-05-01T12:19:03.391Z</time></trkpt><trkpt lat="35.5217659" lon="8.7232987"><ele>1022.0</ele><time>2026-05-01T12:19:04.405Z</time></trkpt><trkpt lat="35.5218521" lon="8.723075"><ele>1022.0</ele><time>2026-05-01T12:19:05.402Z</time></trkpt><trkpt lat="35.5219391" lon="8.72286"><ele>1022.0</ele><time>2026-05-01T12:19:06.379Z</time></trkpt><trkpt lat="35.5220282" lon="8.7226417"><ele>1022.0</ele><time>2026-05-01T12:19:07.382Z</time></trkpt><trkpt lat="35.5221135" lon="8.722422"><ele>1022.6666666666667</ele><time>2026-05-01T12:19:08.386Z</time></trkpt><trkpt lat="35.5222013" lon="8.7222037"><ele>1023.3333333333333</ele><time>2026-05-01T12:19:09.387Z</time></trkpt><trkpt lat="35.5222842" lon="8.7219836"><ele>1024.0</ele><time>2026-05-01T12:19:10.393Z</time></trkpt><trkpt lat="35.522373" lon="8.72177"><ele>1024.6666666666665</ele><time>2026-05-01T12:19:11.387Z</time></trkpt><trkpt lat="35.5224666" lon="8.7215574"><ele>1025.3333333333333</ele><time>2026-05-01T12:19:12.394Z</time></trkpt><trkpt lat="35.52256" lon="8.7213396"><ele>1026.0</ele><time>2026-05-01T12:19:13.389Z</time></trkpt><trkpt lat="35.5226483" lon="8.7211257"><ele>1026.6666666666667</ele><time>2026-05-01T12:19:14.409Z</time></trkpt><trkpt lat="35.5227375" lon="8.7209066"><ele>1027.3333333333335</ele><time>2026-05-01T12:19:15.4Z</time></trkpt><trkpt lat="35.5228268" lon="8.7206905"><ele>1028.0</ele><time>2026-05-01T12:19:16.373Z</time></trkpt><trkpt lat="35.5229172" lon="8.7204811"><ele>1028.3333333333335</ele><time>2026-05-01T12:19:17.39Z</time></trkpt><trkpt lat="35.5230063" lon="8.7202628"><ele>1028.6666666666667</ele><time>2026-05-01T12:19:18.4Z</time></trkpt><trkpt lat="35.5230993" lon="8.7200469"><ele>1029.0</ele><time>2026-05-01T12:19:19.405Z</time></trkpt><trkpt lat="35.5231856" lon="8.7198294"><ele>1030.0</ele><time>2026-05-01T12:19:20.403Z</time></trkpt><trkpt lat="35.5232773" lon="8.7196133"><ele>1031.0</ele><time>2026-05-01T12:19:21.393Z</time></trkpt><trkpt lat="35.5233662" lon="8.7193959"><ele>1032.0</ele><time>2026-05-01T12:19:22.393Z</time></trkpt><trkpt lat="35.5234577" lon="8.7191754"><ele>1032.6666666666667</ele><time>2026-05-01T12:19:23.386Z</time></trkpt><trkpt lat="35.5235472" lon="8.7189581"><ele>1033.3333333333335</ele><time>2026-05-01T12:19:24.393Z</time></trkpt><trkpt lat="35.5236396" lon="8.7187393"><ele>1034.0</ele><time>2026-05-01T12:19:25.394Z</time></trkpt><trkpt lat="35.523732" lon="8.7185259"><ele>1035.3333333333335</ele><time>2026-05-01T12:19:26.383Z</time></trkpt><trkpt lat="35.5238233" lon="8.7183105"><ele>1036.6666666666667</ele><time>2026-05-01T12:19:27.386Z</time></trkpt><trkpt lat="35.5239191" lon="8.7180913"><ele>1038.0</ele><time>2026-05-01T12:19:28.392Z</time></trkpt><trkpt lat="35.5240116" lon="8.7178727"><ele>1038.6666666666667</ele><time>2026-05-01T12:19:29.383Z</time></trkpt><trkpt lat="35.5241003" lon="8.7176599"><ele>1039.3333333333335</ele><time>2026-05-01T12:19:30.394Z</time></trkpt><trkpt lat="35.5241887" lon="8.7174374"><ele>1040.0</ele><time>2026-05-01T12:19:31.378Z</time></trkpt><trkpt lat="35.5242771" lon="8.7172205"><ele>1040.0</ele><time>2026-05-01T12:19:32.421Z</time></trkpt><trkpt lat="35.5243658" lon="8.7170016"><ele>1040.0</ele><time>2026-05-01T12:19:33.39Z</time></trkpt><trkpt lat="35.5244462" lon="8.7167778"><ele>1040.0</ele><time>2026-05-01T12:19:34.407Z</time></trkpt><trkpt lat="35.5245306" lon="8.7165536"><ele>1039.6666666666667</ele><time>2026-05-01T12:19:35.387Z</time></trkpt><trkpt lat="35.5246144" lon="8.7163518"><ele>1039.3333333333333</ele><time>2026-05-01T12:19:36.399Z</time></trkpt><trkpt lat="35.5246874" lon="8.7161514"><ele>1039.0</ele><time>2026-05-01T12:19:37.393Z</time></trkpt><trkpt lat="35.5247581" lon="8.7159529"><ele>1040.0</ele><time>2026-05-01T12:19:38.398Z</time></trkpt><trkpt lat="35.5248281" lon="8.7157664"><ele>1041.0</ele><time>2026-05-01T12:19:39.401Z</time></trkpt><trkpt lat="35.5248991" lon="8.7155808"><ele>1042.0</ele><time>2026-05-01T12:19:40.389Z</time></trkpt><trkpt lat="35.5249704" lon="8.7153873"><ele>1043.0</ele><time>2026-05-01T12:19:41.392Z</time></trkpt><trkpt lat="35.5250446" lon="8.7151894"><ele>1044.0</ele><time>2026-05-01T12:19:42.395Z</time></trkpt><trkpt lat="35.5251177" lon="8.7149898"><ele>1045.0</ele><time>2026-05-01T12:19:43.402Z</time></trkpt><trkpt lat="35.5251913" lon="8.7147877"><ele>1045.0</ele><time>2026-05-01T12:19:44.394Z</time></trkpt><trkpt lat="35.5252606" lon="8.7145847"><ele>1045.0</ele><time>2026-05-01T12:19:45.397Z</time></trkpt><trkpt lat="35.5253306" lon="8.7143848"><ele>1045.0</ele><time>2026-05-01T12:19:46.382Z</time></trkpt><trkpt lat="35.5253968" lon="8.7141813"><ele>1045.0</ele><time>2026-05-01T12:19:47.408Z</time></trkpt><trkpt lat="35.5254662" lon="8.7139803"><ele>1045.0</ele><time>2026-05-01T12:19:48.397Z</time></trkpt><trkpt lat="35.5255375" lon="8.7137778"><ele>1045.0</ele><time>2026-05-01T12:19:49.385Z</time></trkpt><trkpt lat="35.5256086" lon="8.7135746"><ele>1045.6666666666665</ele><time>2026-05-01T12:19:50.384Z</time></trkpt><trkpt lat="35.5256826" lon="8.7133747"><ele>1046.3333333333333</ele><time>2026-05-01T12:19:51.39Z</time></trkpt><trkpt lat="35.5257596" lon="8.7131696"><ele>1047.0</ele><time>2026-05-01T12:19:52.397Z</time></trkpt><trkpt lat="35.5258361" lon="8.7129687"><ele>1047.0</ele><time>2026-05-01T12:19:53.397Z</time></trkpt><trkpt lat="35.5259112" lon="8.7127679"><ele>1047.0</ele><time>2026-05-01T12:19:54.393Z</time></trkpt><trkpt lat="35.5259863" lon="8.7125687"><ele>1047.0</ele><time>2026-05-01T12:19:55.39Z</time></trkpt><trkpt lat="35.5260662" lon="8.7123744"><ele>1048.6666666666667</ele><time>2026-05-01T12:19:56.394Z</time></trkpt><trkpt lat="35.5261547" lon="8.7121823"><ele>1050.3333333333335</ele><time>2026-05-01T12:19:57.382Z</time></trkpt><trkpt lat="35.5262458" lon="8.7119856"><ele>1052.0</ele><time>2026-05-01T12:19:58.382Z</time></trkpt><trkpt lat="35.5263373" lon="8.7117882"><ele>1052.6666666666667</ele><time>2026-05-01T12:19:59.39Z</time></trkpt><trkpt lat="35.5264358" lon="8.7116018"><ele>1053.3333333333333</ele><time>2026-05-01T12:20:00.403Z</time></trkpt><trkpt lat="35.5265326" lon="8.7114131"><ele>1054.0</ele><time>2026-05-01T12:20:01.414Z</time></trkpt><trkpt lat="35.5266338" lon="8.7112214"><ele>1055.0</ele><time>2026-05-01T12:20:02.39Z</time></trkpt><trkpt lat="35.5267366" lon="8.7110339"><ele>1056.0</ele><time>2026-05-01T12:20:03.392Z</time></trkpt><trkpt lat="35.5268421" lon="8.7108558"><ele>1057.0</ele><time>2026-05-01T12:20:04.398Z</time></trkpt><trkpt lat="35.5269492" lon="8.7106722"><ele>1057.0</ele><time>2026-05-01T12:20:05.391Z</time></trkpt><trkpt lat="35.527057" lon="8.7104881"><ele>1057.0</ele><time>2026-05-01T12:20:06.391Z</time></trkpt><trkpt lat="35.5271684" lon="8.7103041"><ele>1057.0</ele><time>2026-05-01T12:20:07.382Z</time></trkpt><trkpt lat="35.5272723" lon="8.7101204"><ele>1058.3333333333333</ele><time>2026-05-01T12:20:08.398Z</time></trkpt><trkpt lat="35.5273762" lon="8.7099332"><ele>1059.6666666666667</ele><time>2026-05-01T12:20:09.389Z</time></trkpt><trkpt lat="35.5274832" lon="8.7097516"><ele>1061.0</ele><time>2026-05-01T12:20:10.39Z</time></trkpt><trkpt lat="35.5275855" lon="8.7095715"><ele>1062.3333333333335</ele><time>2026-05-01T12:20:11.394Z</time></trkpt><trkpt lat="35.5276871" lon="8.7093878"><ele>1063.6666666666667</ele><time>2026-05-01T12:20:12.396Z</time></trkpt><trkpt lat="35.5277839" lon="8.7091982"><ele>1065.0</ele><time>2026-05-01T12:20:13.402Z</time></trkpt><trkpt lat="35.5278839" lon="8.7090076"><ele>1064.6666666666667</ele><time>2026-05-01T12:20:14.402Z</time></trkpt><trkpt lat="35.5279762" lon="8.7088194"><ele>1064.3333333333335</ele><time>2026-05-01T12:20:15.39Z</time></trkpt><trkpt lat="35.5280681" lon="8.7086267"><ele>1064.0</ele><time>2026-05-01T12:20:16.394Z</time></trkpt><trkpt lat="35.5281602" lon="8.7084359"><ele>1064.0</ele><time>2026-05-01T12:20:17.386Z</time></trkpt><trkpt lat="35.5282478" lon="8.7082385"><ele>1064.0</ele><time>2026-05-01T12:20:18.39Z</time></trkpt><trkpt lat="35.5283418" lon="8.7080476"><ele>1064.0</ele><time>2026-05-01T12:20:19.376Z</time></trkpt><trkpt lat="35.5284359" lon="8.7078455"><ele>1064.6666666666667</ele><time>2026-05-01T12:20:20.379Z</time></trkpt><trkpt lat="35.5285205" lon="8.7076457"><ele>1065.3333333333333</ele><time>2026-05-01T12:20:21.379Z</time></trkpt><trkpt lat="35.5286024" lon="8.7074349"><ele>1066.0</ele><time>2026-05-01T12:20:22.394Z</time></trkpt><trkpt lat="35.5286819" lon="8.7072283"><ele>1066.3333333333333</ele><time>2026-05-01T12:20:23.386Z</time></trkpt><trkpt lat="35.5287598" lon="8.7070255"><ele>1066.6666666666667</ele><time>2026-05-01T12:20:24.406Z</time></trkpt><trkpt lat="35.5288402" lon="8.7068168"><ele>1067.0</ele><time>2026-05-01T12:20:25.393Z</time></trkpt><trkpt lat="35.5289122" lon="8.7066101"><ele>1067.0</ele><time>2026-05-01T12:20:26.42Z</time></trkpt><trkpt lat="35.5289862" lon="8.706404"><ele>1067.0</ele><time>2026-05-01T12:20:27.391Z</time></trkpt><trkpt lat="35.5290677" lon="8.7061994"><ele>1067.0</ele><time>2026-05-01T12:20:28.402Z</time></trkpt><trkpt lat="35.5291459" lon="8.7059907"><ele>1068.0</ele><time>2026-05-01T12:20:29.378Z</time></trkpt><trkpt lat="35.5292253" lon="8.7057863"><ele>1069.0</ele><time>2026-05-01T12:20:30.401Z</time></trkpt><trkpt lat="35.5293051" lon="8.705584"><ele>1070.0</ele><time>2026-05-01T12:20:31.38Z</time></trkpt><trkpt lat="35.5293824" lon="8.7053774"><ele>1071.0</ele><time>2026-05-01T12:20:32.395Z</time></trkpt><trkpt lat="35.529456" lon="8.7051661"><ele>1072.0</ele><time>2026-05-01T12:20:33.395Z</time></trkpt><trkpt lat="35.5295298" lon="8.7049551"><ele>1073.0</ele><time>2026-05-01T12:20:34.403Z</time></trkpt><trkpt lat="35.5296037" lon="8.7047499"><ele>1073.0</ele><time>2026-05-01T12:20:35.397Z</time></trkpt><trkpt lat="35.5296822" lon="8.7045441"><ele>1073.0</ele><time>2026-05-01T12:20:36.4Z</time></trkpt><trkpt lat="35.5297642" lon="8.7043298"><ele>1073.0</ele><time>2026-05-01T12:20:37.394Z</time></trkpt><trkpt lat="35.5298454" lon="8.7041129"><ele>1074.3333333333335</ele><time>2026-05-01T12:20:38.388Z</time></trkpt><trkpt lat="35.5299265" lon="8.703891"><ele>1075.6666666666667</ele><time>2026-05-01T12:20:39.402Z</time></trkpt><trkpt lat="35.5300078" lon="8.7036642"><ele>1077.0</ele><time>2026-05-01T12:20:40.391Z</time></trkpt><trkpt lat="35.5300888" lon="8.7034363"><ele>1078.3333333333333</ele><time>2026-05-01T12:20:41.384Z</time></trkpt><trkpt lat="35.5301739" lon="8.7032142"><ele>1079.6666666666665</ele><time>2026-05-01T12:20:42.405Z</time></trkpt><trkpt lat="35.5302577" lon="8.7029951"><ele>1081.0</ele><time>2026-05-01T12:20:43.386Z</time></trkpt><trkpt lat="35.5303454" lon="8.7027796"><ele>1082.0</ele><time>2026-05-01T12:20:44.394Z</time></trkpt><trkpt lat="35.5304342" lon="8.702568"><ele>1083.0</ele><time>2026-05-01T12:20:45.39Z</time></trkpt><trkpt lat="35.5305217" lon="8.7023613"><ele>1084.0</ele><time>2026-05-01T12:20:46.394Z</time></trkpt><trkpt lat="35.5306119" lon="8.7021511"><ele>1084.0</ele><time>2026-05-01T12:20:47.387Z</time></trkpt><trkpt lat="35.5306948" lon="8.7019468"><ele>1084.0</ele><time>2026-05-01T12:20:48.386Z</time></trkpt><trkpt lat="35.530781" lon="8.7017408"><ele>1084.0</ele><time>2026-05-01T12:20:49.395Z</time></trkpt><trkpt lat="35.5308678" lon="8.7015369"><ele>1085.3333333333333</ele><time>2026-05-01T12:20:50.403Z</time></trkpt><trkpt lat="35.5309603" lon="8.7013332"><ele>1086.6666666666667</ele><time>2026-05-01T12:20:51.392Z</time></trkpt><trkpt lat="35.5310551" lon="8.7011319"><ele>1088.0</ele><time>2026-05-01T12:20:52.384Z</time></trkpt><trkpt lat="35.5311539" lon="8.7009318"><ele>1091.3333333333335</ele><time>2026-05-01T12:20:53.389Z</time></trkpt><trkpt lat="35.5312491" lon="8.7007281"><ele>1094.6666666666667</ele><time>2026-05-01T12:20:54.381Z</time></trkpt><trkpt lat="35.5313516" lon="8.7005212"><ele>1098.0</ele><time>2026-05-01T12:20:55.4Z</time></trkpt><trkpt lat="35.5314525" lon="8.7003115"><ele>1098.6666666666667</ele><time>2026-05-01T12:20:56.401Z</time></trkpt><trkpt lat="35.5315485" lon="8.700107"><ele>1099.3333333333335</ele><time>2026-05-01T12:20:57.39Z</time></trkpt><trkpt lat="35.5316376" lon="8.6999112"><ele>1100.0</ele><time>2026-05-01T12:20:58.388Z</time></trkpt><trkpt lat="35.531718" lon="8.6997299"><ele>1100.0</ele><time>2026-05-01T12:20:59.384Z</time></trkpt><trkpt lat="35.5317787" lon="8.6995634"><ele>1100.0</ele><time>2026-05-01T12:21:00.391Z</time></trkpt><trkpt lat="35.5318221" lon="8.6993999"><ele>1100.0</ele><time>2026-05-01T12:21:01.378Z</time></trkpt><trkpt lat="35.5318298" lon="8.6992535"><ele>1100.0</ele><time>2026-05-01T12:21:02.412Z</time></trkpt><trkpt lat="35.5318252" lon="8.6991299"><ele>1100.1666666666667</ele><time>2026-05-01T12:21:03.4Z</time></trkpt><trkpt lat="35.5318163" lon="8.6990211"><ele>1100.3333333333335</ele><time>2026-05-01T12:21:04.405Z</time></trkpt><trkpt lat="35.5318118" lon="8.6989231"><ele>1100.5</ele><time>2026-05-01T12:21:05.4Z</time></trkpt><trkpt lat="35.5318166" lon="8.698842"><ele>1100.6666666666667</ele><time>2026-05-01T12:21:06.391Z</time></trkpt><trkpt lat="35.5318386" lon="8.6987412"><ele>1100.8333333333333</ele><time>2026-05-01T12:21:08.394Z</time></trkpt><trkpt lat="35.5319058" lon="8.6986395"><ele>1101.0</ele><time>2026-05-01T12:21:10.388Z</time></trkpt><trkpt lat="35.5319632" lon="8.6985787"><ele>1102.0</ele><time>2026-05-01T12:21:11.396Z</time></trkpt><trkpt lat="35.5320285" lon="8.698519"><ele>1103.0</ele><time>2026-05-01T12:21:12.386Z</time></trkpt><trkpt lat="35.5320834" lon="8.6984592"><ele>1104.0</ele><time>2026-05-01T12:21:13.396Z</time></trkpt><trkpt lat="35.5321464" lon="8.6983965"><ele>1105.0</ele><time>2026-05-01T12:21:14.398Z</time></trkpt><trkpt lat="35.5322303" lon="8.6983118"><ele>1106.0</ele><time>2026-05-01T12:21:15.385Z</time></trkpt><trkpt lat="35.5323182" lon="8.6982237"><ele>1106.75</ele><time>2026-05-01T12:21:16.399Z</time></trkpt><trkpt lat="35.5324157" lon="8.6981086"><ele>1107.5</ele><time>2026-05-01T12:21:17.382Z</time></trkpt><trkpt lat="35.5325139" lon="8.6979914"><ele>1108.25</ele><time>2026-05-01T12:21:18.387Z</time></trkpt><trkpt lat="35.5326086" lon="8.6978649"><ele>1109.0</ele><time>2026-05-01T12:21:19.386Z</time></trkpt><trkpt lat="35.532706" lon="8.6977324"><ele>1109.3333333333335</ele><time>2026-05-01T12:21:20.387Z</time></trkpt><trkpt lat="35.5328103" lon="8.6975855"><ele>1109.6666666666667</ele><time>2026-05-01T12:21:21.391Z</time></trkpt><trkpt lat="35.5329225" lon="8.6974158"><ele>1110.0</ele><time>2026-05-01T12:21:22.382Z</time></trkpt><trkpt lat="35.5330337" lon="8.697243"><ele>1108.3333333333333</ele><time>2026-05-01T12:21:23.392Z</time></trkpt><trkpt lat="35.5331428" lon="8.6970696"><ele>1106.6666666666665</ele><time>2026-05-01T12:21:24.405Z</time></trkpt><trkpt lat="35.5332559" lon="8.6968896"><ele>1105.0</ele><time>2026-05-01T12:21:25.386Z</time></trkpt><trkpt lat="35.5333735" lon="8.6967015"><ele>1105.0</ele><time>2026-05-01T12:21:26.396Z</time></trkpt><trkpt lat="35.5337182" lon="8.6961249"><ele>1104.6666666666665</ele><time>2026-05-01T12:21:27.076Z</time></trkpt><trkpt lat="35.533837" lon="8.6959344"><ele>1104.3333333333333</ele><time>2026-05-01T12:21:28.075Z</time></trkpt><trkpt lat="35.5339557" lon="8.6957377"><ele>1104.0</ele><time>2026-05-01T12:21:29.066Z</time></trkpt><trkpt lat="35.5340799" lon="8.6955287"><ele>1104.0</ele><time>2026-05-01T12:21:30.091Z</time></trkpt><trkpt lat="35.5342078" lon="8.6953255"><ele>1104.0</ele><time>2026-05-01T12:21:31.089Z</time></trkpt><trkpt lat="35.5343335" lon="8.6951181"><ele>1104.0</ele><time>2026-05-01T12:21:32.074Z</time></trkpt><trkpt lat="35.5344644" lon="8.6949053"><ele>1105.3333333333333</ele><time>2026-05-01T12:21:33.08Z</time></trkpt><trkpt lat="35.5345939" lon="8.6946891"><ele>1106.6666666666665</ele><time>2026-05-01T12:21:34.08Z</time></trkpt><trkpt lat="35.5347221" lon="8.6944844"><ele>1108.0</ele><time>2026-05-01T12:21:35.068Z</time></trkpt><trkpt lat="35.5348502" lon="8.6942847"><ele>1108.3333333333333</ele><time>2026-05-01T12:21:36.089Z</time></trkpt><trkpt lat="35.534979" lon="8.6940747"><ele>1108.6666666666667</ele><time>2026-05-01T12:21:37.069Z</time></trkpt><trkpt lat="35.5351068" lon="8.6938625"><ele>1109.0</ele><time>2026-05-01T12:21:38.081Z</time></trkpt><trkpt lat="35.535236" lon="8.6936598"><ele>1110.6666666666667</ele><time>2026-05-01T12:21:39.109Z</time></trkpt><trkpt lat="35.5353654" lon="8.6934496"><ele>1112.3333333333333</ele><time>2026-05-01T12:21:40.106Z</time></trkpt><trkpt lat="35.53549" lon="8.6932371"><ele>1114.0</ele><time>2026-05-01T12:21:41.105Z</time></trkpt><trkpt lat="35.5356118" lon="8.6930217"><ele>1114.0</ele><time>2026-05-01T12:21:42.07Z</time></trkpt><trkpt lat="35.5357294" lon="8.6928002"><ele>1114.0</ele><time>2026-05-01T12:21:43.076Z</time></trkpt><trkpt lat="35.5358504" lon="8.6925827"><ele>1114.0</ele><time>2026-05-01T12:21:44.072Z</time></trkpt><trkpt lat="35.5359692" lon="8.692365"><ele>1113.3333333333333</ele><time>2026-05-01T12:21:45.089Z</time></trkpt><trkpt lat="35.5360871" lon="8.6921421"><ele>1112.6666666666667</ele><time>2026-05-01T12:21:46.084Z</time></trkpt><trkpt lat="35.5362065" lon="8.6919191"><ele>1112.0</ele><time>2026-05-01T12:21:47.053Z</time></trkpt><trkpt lat="35.5363208" lon="8.6917008"><ele>1110.3333333333335</ele><time>2026-05-01T12:21:48.085Z</time></trkpt><trkpt lat="35.5364406" lon="8.6914797"><ele>1108.6666666666667</ele><time>2026-05-01T12:21:49.056Z</time></trkpt><trkpt lat="35.5365591" lon="8.6912575"><ele>1107.0</ele><time>2026-05-01T12:21:50.074Z</time></trkpt><trkpt lat="35.5366818" lon="8.6910396"><ele>1105.3333333333333</ele><time>2026-05-01T12:21:51.063Z</time></trkpt><trkpt lat="35.5368022" lon="8.6908212"><ele>1103.6666666666665</ele><time>2026-05-01T12:21:52.124Z</time></trkpt><trkpt lat="35.5369181" lon="8.6906046"><ele>1102.0</ele><time>2026-05-01T12:21:53.085Z</time></trkpt><trkpt lat="35.537036" lon="8.6903912"><ele>1101.0</ele><time>2026-05-01T12:21:54.108Z</time></trkpt><trkpt lat="35.5371536" lon="8.6901735"><ele>1100.0</ele><time>2026-05-01T12:21:55.129Z</time></trkpt><trkpt lat="35.5372683" lon="8.6899593"><ele>1099.0</ele><time>2026-05-01T12:21:56.056Z</time></trkpt><trkpt lat="35.5373898" lon="8.6897437"><ele>1099.0</ele><time>2026-05-01T12:21:57.096Z</time></trkpt><trkpt lat="35.5375112" lon="8.6895271"><ele>1099.0</ele><time>2026-05-01T12:21:58.055Z</time></trkpt><trkpt lat="35.5376344" lon="8.6893176"><ele>1099.0</ele><time>2026-05-01T12:21:59.061Z</time></trkpt><trkpt lat="35.5377625" lon="8.6891079"><ele>1097.3333333333333</ele><time>2026-05-01T12:22:00.096Z</time></trkpt><trkpt lat="35.537895" lon="8.6889081"><ele>1095.6666666666667</ele><time>2026-05-01T12:22:01.06Z</time></trkpt><trkpt lat="35.5380218" lon="8.688719"><ele>1094.0</ele><time>2026-05-01T12:22:02.103Z</time></trkpt><trkpt lat="35.5381593" lon="8.6885368"><ele>1092.0</ele><time>2026-05-01T12:22:03.058Z</time></trkpt><trkpt lat="35.5382976" lon="8.6883709"><ele>1090.0</ele><time>2026-05-01T12:22:04.069Z</time></trkpt><trkpt lat="35.5384424" lon="8.6882208"><ele>1088.0</ele><time>2026-05-01T12:22:05.081Z</time></trkpt><trkpt lat="35.5385933" lon="8.6880674"><ele>1087.3333333333335</ele><time>2026-05-01T12:22:06.058Z</time></trkpt><trkpt lat="35.5387479" lon="8.6879188"><ele>1086.6666666666667</ele><time>2026-05-01T12:22:07.062Z</time></trkpt><trkpt lat="35.5388965" lon="8.687773"><ele>1086.0</ele><time>2026-05-01T12:22:08.088Z</time></trkpt><trkpt lat="35.539051" lon="8.6876369"><ele>1086.0</ele><time>2026-05-01T12:22:09.106Z</time></trkpt><trkpt lat="35.5392035" lon="8.6874932"><ele>1086.0</ele><time>2026-05-01T12:22:10.088Z</time></trkpt><trkpt lat="35.5393604" lon="8.6873467"><ele>1086.0</ele><time>2026-05-01T12:22:11.084Z</time></trkpt><trkpt lat="35.5395167" lon="8.6872091"><ele>1085.6666666666667</ele><time>2026-05-01T12:22:12.093Z</time></trkpt><trkpt lat="35.5396743" lon="8.6870697"><ele>1085.3333333333335</ele><time>2026-05-01T12:22:13.072Z</time></trkpt><trkpt lat="35.5398336" lon="8.6869299"><ele>1085.0</ele><time>2026-05-01T12:22:14.081Z</time></trkpt><trkpt lat="35.5399871" lon="8.6867843"><ele>1086.0</ele><time>2026-05-01T12:22:15.091Z</time></trkpt><trkpt lat="35.5401436" lon="8.6866371"><ele>1087.0</ele><time>2026-05-01T12:22:16.091Z</time></trkpt><trkpt lat="35.5403012" lon="8.6864894"><ele>1088.0</ele><time>2026-05-01T12:22:17.076Z</time></trkpt><trkpt lat="35.5404605" lon="8.6863456"><ele>1087.0</ele><time>2026-05-01T12:22:18.095Z</time></trkpt><trkpt lat="35.5406238" lon="8.6862002"><ele>1086.0</ele><time>2026-05-01T12:22:19.076Z</time></trkpt><trkpt lat="35.5407815" lon="8.6860503"><ele>1085.0</ele><time>2026-05-01T12:22:20.085Z</time></trkpt><trkpt lat="35.5409396" lon="8.685903"><ele>1085.0</ele><time>2026-05-01T12:22:21.088Z</time></trkpt><trkpt lat="35.5410947" lon="8.6857536"><ele>1085.0</ele><time>2026-05-01T12:22:22.086Z</time></trkpt><trkpt lat="35.5412565" lon="8.6856005"><ele>1085.0</ele><time>2026-05-01T12:22:23.076Z</time></trkpt><trkpt lat="35.5414234" lon="8.6854457"><ele>1085.0</ele><time>2026-05-01T12:22:24.081Z</time></trkpt><trkpt lat="35.5416007" lon="8.6852846"><ele>1085.0</ele><time>2026-05-01T12:22:25.084Z</time></trkpt><trkpt lat="35.5417805" lon="8.6851195"><ele>1085.0</ele><time>2026-05-01T12:22:26.085Z</time></trkpt><trkpt lat="35.5419637" lon="8.6849596"><ele>1083.3333333333335</ele><time>2026-05-01T12:22:27.077Z</time></trkpt><trkpt lat="35.5421406" lon="8.6847991"><ele>1081.6666666666667</ele><time>2026-05-01T12:22:28.094Z</time></trkpt><trkpt lat="35.5423181" lon="8.6846544"><ele>1080.0</ele><time>2026-05-01T12:22:29.08Z</time></trkpt><trkpt lat="35.542495" lon="8.6845195"><ele>1080.0</ele><time>2026-05-01T12:22:30.07Z</time></trkpt><trkpt lat="35.5426632" lon="8.6844017"><ele>1080.0</ele><time>2026-05-01T12:22:31.08Z</time></trkpt><trkpt lat="35.5428404" lon="8.6842965"><ele>1080.0</ele><time>2026-05-01T12:22:32.081Z</time></trkpt><trkpt lat="35.5430043" lon="8.6842092"><ele>1079.5</ele><time>2026-05-01T12:22:33.098Z</time></trkpt><trkpt lat="35.5431559" lon="8.6841388"><ele>1079.0</ele><time>2026-05-01T12:22:34.095Z</time></trkpt><trkpt lat="35.543294" lon="8.6840818"><ele>1078.5</ele><time>2026-05-01T12:22:35.073Z</time></trkpt><trkpt lat="35.5434048" lon="8.6840493"><ele>1078.0</ele><time>2026-05-01T12:22:36.093Z</time></trkpt><trkpt lat="35.5434751" lon="8.6840264"><ele>1078.0</ele><time>2026-05-01T12:22:37.115Z</time></trkpt><trkpt lat="35.5435422" lon="8.6840021"><ele>1078.0</ele><time>2026-05-01T12:22:38.086Z</time></trkpt><trkpt lat="35.5436093" lon="8.6839824"><ele>1078.0</ele><time>2026-05-01T12:22:39.081Z</time></trkpt><trkpt lat="35.5436758" lon="8.6839667"><ele>1078.0</ele><time>2026-05-01T12:22:40.081Z</time></trkpt><trkpt lat="35.5437508" lon="8.6839555"><ele>1078.0</ele><time>2026-05-01T12:22:41.082Z</time></trkpt><trkpt lat="35.5438155" lon="8.6839383"><ele>1078.0</ele><time>2026-05-01T12:22:42.085Z</time></trkpt><trkpt lat="35.5438786" lon="8.6839269"><ele>1078.0</ele><time>2026-05-01T12:22:43.088Z</time></trkpt><trkpt lat="35.5439909" lon="8.6839089"><ele>1076.8</ele><time>2026-05-01T12:22:45.089Z</time></trkpt><trkpt lat="35.544099" lon="8.6838982"><ele>1075.6</ele><time>2026-05-01T12:22:47.094Z</time></trkpt><trkpt lat="35.5442053" lon="8.6838747"><ele>1074.4</ele><time>2026-05-01T12:22:49.069Z</time></trkpt><trkpt lat="35.5443375" lon="8.6838477"><ele>1073.2</ele><time>2026-05-01T12:22:51.09Z</time></trkpt><trkpt lat="35.5444136" lon="8.6838359"><ele>1072.0</ele><time>2026-05-01T12:22:52.079Z</time></trkpt><trkpt lat="35.5444958" lon="8.6838275"><ele>1072.2</ele><time>2026-05-01T12:22:53.068Z</time></trkpt><trkpt lat="35.5445823" lon="8.6838184"><ele>1072.4</ele><time>2026-05-01T12:22:54.09Z</time></trkpt><trkpt lat="35.5446859" lon="8.6838068"><ele>1072.6</ele><time>2026-05-01T12:22:55.075Z</time></trkpt><trkpt lat="35.5447996" lon="8.6837957"><ele>1072.8</ele><time>2026-05-01T12:22:56.077Z</time></trkpt><trkpt lat="35.5449342" lon="8.6837942"><ele>1073.0</ele><time>2026-05-01T12:22:57.085Z</time></trkpt><trkpt lat="35.5450911" lon="8.6837805"><ele>1073.0</ele><time>2026-05-01T12:22:58.087Z</time></trkpt><trkpt lat="35.5452722" lon="8.6837647"><ele>1073.0</ele><time>2026-05-01T12:22:59.086Z</time></trkpt><trkpt lat="35.545472" lon="8.6837487"><ele>1073.0</ele><time>2026-05-01T12:23:00.083Z</time></trkpt><trkpt lat="35.5456744" lon="8.6837349"><ele>1073.3333333333335</ele><time>2026-05-01T12:23:01.088Z</time></trkpt><trkpt lat="35.5458673" lon="8.6837199"><ele>1073.6666666666667</ele><time>2026-05-01T12:23:02.073Z</time></trkpt><trkpt lat="35.5460521" lon="8.6837057"><ele>1074.0</ele><time>2026-05-01T12:23:03.093Z</time></trkpt><trkpt lat="35.546237" lon="8.6836945"><ele>1073.0</ele><time>2026-05-01T12:23:04.09Z</time></trkpt><trkpt lat="35.5464222" lon="8.6836814"><ele>1072.0</ele><time>2026-05-01T12:23:05.077Z</time></trkpt><trkpt lat="35.546602" lon="8.683668"><ele>1071.0</ele><time>2026-05-01T12:23:06.093Z</time></trkpt><trkpt lat="35.5467905" lon="8.6836516"><ele>1071.0</ele><time>2026-05-01T12:23:07.093Z</time></trkpt><trkpt lat="35.5469736" lon="8.6836403"><ele>1071.0</ele><time>2026-05-01T12:23:08.079Z</time></trkpt><trkpt lat="35.5471627" lon="8.6836251"><ele>1071.0</ele><time>2026-05-01T12:23:09.083Z</time></trkpt><trkpt lat="35.5473496" lon="8.6836094"><ele>1073.3333333333333</ele><time>2026-05-01T12:23:10.092Z</time></trkpt><trkpt lat="35.5475352" lon="8.6835977"><ele>1075.6666666666665</ele><time>2026-05-01T12:23:11.089Z</time></trkpt><trkpt lat="35.547715" lon="8.6835882"><ele>1078.0</ele><time>2026-05-01T12:23:12.088Z</time></trkpt><trkpt lat="35.5478972" lon="8.6835741"><ele>1080.0</ele><time>2026-05-01T12:23:13.079Z</time></trkpt><trkpt lat="35.5480818" lon="8.6835595"><ele>1082.0</ele><time>2026-05-01T12:23:14.094Z</time></trkpt><trkpt lat="35.5482662" lon="8.6835417"><ele>1084.0</ele><time>2026-05-01T12:23:15.095Z</time></trkpt><trkpt lat="35.548453" lon="8.6835255"><ele>1084.0</ele><time>2026-05-01T12:23:16.098Z</time></trkpt><trkpt lat="35.5486375" lon="8.6835036"><ele>1084.0</ele><time>2026-05-01T12:23:17.081Z</time></trkpt><trkpt lat="35.548823" lon="8.6834835"><ele>1084.0</ele><time>2026-05-01T12:23:18.09Z</time></trkpt><trkpt lat="35.549003" lon="8.6834646"><ele>1084.0</ele><time>2026-05-01T12:23:19.094Z</time></trkpt><trkpt lat="35.549184" lon="8.6834447"><ele>1084.0</ele><time>2026-05-01T12:23:20.088Z</time></trkpt><trkpt lat="35.5493635" lon="8.6834224"><ele>1084.0</ele><time>2026-05-01T12:23:21.1Z</time></trkpt><trkpt lat="35.5495473" lon="8.6833955"><ele>1085.0</ele><time>2026-05-01T12:23:22.085Z</time></trkpt><trkpt lat="35.5497254" lon="8.683368"><ele>1086.0</ele><time>2026-05-01T12:23:23.083Z</time></trkpt><trkpt lat="35.5499079" lon="8.68334"><ele>1087.0</ele><time>2026-05-01T12:23:24.091Z</time></trkpt><trkpt lat="35.5500886" lon="8.6833078"><ele>1087.0</ele><time>2026-05-01T12:23:25.088Z</time></trkpt><trkpt lat="35.550264" lon="8.6832729"><ele>1087.0</ele><time>2026-05-01T12:23:26.085Z</time></trkpt><trkpt lat="35.5504424" lon="8.6832204"><ele>1087.0</ele><time>2026-05-01T12:23:27.098Z</time></trkpt><trkpt lat="35.5506202" lon="8.683169"><ele>1087.0</ele><time>2026-05-01T12:23:28.087Z</time></trkpt><trkpt lat="35.550805" lon="8.6830962"><ele>1087.0</ele><time>2026-05-01T12:23:29.076Z</time></trkpt><trkpt lat="35.550992" lon="8.6830244"><ele>1087.0</ele><time>2026-05-01T12:23:30.099Z</time></trkpt><trkpt lat="35.5511946" lon="8.6829406"><ele>1088.3333333333333</ele><time>2026-05-01T12:23:31.084Z</time></trkpt><trkpt lat="35.5513892" lon="8.6828527"><ele>1089.6666666666667</ele><time>2026-05-01T12:23:32.091Z</time></trkpt><trkpt lat="35.5515873" lon="8.6827645"><ele>1091.0</ele><time>2026-05-01T12:23:33.089Z</time></trkpt><trkpt lat="35.5517769" lon="8.6826786"><ele>1088.6666666666667</ele><time>2026-05-01T12:23:34.105Z</time></trkpt><trkpt lat="35.5519679" lon="8.6825874"><ele>1086.3333333333333</ele><time>2026-05-01T12:23:35.083Z</time></trkpt><trkpt lat="35.552164" lon="8.6825003"><ele>1084.0</ele><time>2026-05-01T12:23:36.096Z</time></trkpt><trkpt lat="35.5523632" lon="8.682411"><ele>1084.0</ele><time>2026-05-01T12:23:37.102Z</time></trkpt><trkpt lat="35.5525614" lon="8.6823227"><ele>1084.0</ele><time>2026-05-01T12:23:38.09Z</time></trkpt><trkpt lat="35.5527639" lon="8.6822378"><ele>1084.0</ele><time>2026-05-01T12:23:39.087Z</time></trkpt><trkpt lat="35.5529624" lon="8.6821476"><ele>1082.3333333333333</ele><time>2026-05-01T12:23:40.092Z</time></trkpt><trkpt lat="35.5531644" lon="8.6820583"><ele>1080.6666666666667</ele><time>2026-05-01T12:23:41.099Z</time></trkpt><trkpt lat="35.5533639" lon="8.6819707"><ele>1079.0</ele><time>2026-05-01T12:23:42.108Z</time></trkpt><trkpt lat="35.553561" lon="8.6818778"><ele>1075.0</ele><time>2026-05-01T12:23:43.092Z</time></trkpt><trkpt lat="35.5537605" lon="8.6817876"><ele>1071.0</ele><time>2026-05-01T12:23:44.082Z</time></trkpt><trkpt lat="35.5539597" lon="8.6816986"><ele>1067.0</ele><time>2026-05-01T12:23:45.1Z</time></trkpt><trkpt lat="35.5541578" lon="8.6816104"><ele>1067.0</ele><time>2026-05-01T12:23:46.089Z</time></trkpt><trkpt lat="35.5543552" lon="8.6815259"><ele>1067.0</ele><time>2026-05-01T12:23:47.085Z</time></trkpt><trkpt lat="35.5545551" lon="8.6814374"><ele>1067.0</ele><time>2026-05-01T12:23:48.101Z</time></trkpt><trkpt lat="35.5547541" lon="8.6813454"><ele>1065.6666666666667</ele><time>2026-05-01T12:23:49.111Z</time></trkpt><trkpt lat="35.554955" lon="8.6812542"><ele>1064.3333333333333</ele><time>2026-05-01T12:23:50.076Z</time></trkpt><trkpt lat="35.5551474" lon="8.6811682"><ele>1063.0</ele><time>2026-05-01T12:23:51.084Z</time></trkpt><trkpt lat="35.5553302" lon="8.6810868"><ele>1060.3333333333333</ele><time>2026-05-01T12:23:52.084Z</time></trkpt><trkpt lat="35.5555054" lon="8.6810109"><ele>1057.6666666666667</ele><time>2026-05-01T12:23:53.08Z</time></trkpt><trkpt lat="35.5556702" lon="8.6809245"><ele>1055.0</ele><time>2026-05-01T12:23:54.087Z</time></trkpt><trkpt lat="35.5558346" lon="8.6808464"><ele>1055.0</ele><time>2026-05-01T12:23:55.102Z</time></trkpt><trkpt lat="35.5559932" lon="8.680769"><ele>1055.0</ele><time>2026-05-01T12:23:56.084Z</time></trkpt><trkpt lat="35.5561499" lon="8.6807013"><ele>1055.0</ele><time>2026-05-01T12:23:57.079Z</time></trkpt><trkpt lat="35.5562949" lon="8.6806407"><ele>1054.5</ele><time>2026-05-01T12:23:58.074Z</time></trkpt><trkpt lat="35.5564296" lon="8.6805819"><ele>1054.0</ele><time>2026-05-01T12:23:59.098Z</time></trkpt><trkpt lat="35.5565443" lon="8.6805334"><ele>1053.5</ele><time>2026-05-01T12:24:00.095Z</time></trkpt><trkpt lat="35.5566449" lon="8.6804898"><ele>1053.0</ele><time>2026-05-01T12:24:01.076Z</time></trkpt><trkpt lat="35.556742" lon="8.6804444"><ele>1053.0</ele><time>2026-05-01T12:24:02.088Z</time></trkpt><trkpt lat="35.5568387" lon="8.6804"><ele>1053.0</ele><time>2026-05-01T12:24:03.095Z</time></trkpt><trkpt lat="35.5569332" lon="8.6803527"><ele>1053.0</ele><time>2026-05-01T12:24:04.064Z</time></trkpt><trkpt lat="35.5570165" lon="8.6803017"><ele>1053.0</ele><time>2026-05-01T12:24:05.091Z</time></trkpt><trkpt lat="35.5570974" lon="8.6802517"><ele>1053.0</ele><time>2026-05-01T12:24:06.087Z</time></trkpt><trkpt lat="35.5571734" lon="8.6802027"><ele>1053.6666666666667</ele><time>2026-05-01T12:24:07.094Z</time></trkpt><trkpt lat="35.557249" lon="8.6801618"><ele>1054.3333333333333</ele><time>2026-05-01T12:24:08.116Z</time></trkpt><trkpt lat="35.5573238" lon="8.6801174"><ele>1055.0</ele><time>2026-05-01T12:24:09.082Z</time></trkpt><trkpt lat="35.557401" lon="8.6800836"><ele>1055.6666666666665</ele><time>2026-05-01T12:24:10.088Z</time></trkpt><trkpt lat="35.5574828" lon="8.6800574"><ele>1056.3333333333333</ele><time>2026-05-01T12:24:11.074Z</time></trkpt><trkpt lat="35.5575683" lon="8.6800409"><ele>1057.0</ele><time>2026-05-01T12:24:12.075Z</time></trkpt><trkpt lat="35.5576544" lon="8.6800289"><ele>1057.0</ele><time>2026-05-01T12:24:13.075Z</time></trkpt><trkpt lat="35.5577385" lon="8.6800085"><ele>1057.0</ele><time>2026-05-01T12:24:14.081Z</time></trkpt><trkpt lat="35.5578224" lon="8.6799584"><ele>1057.0</ele><time>2026-05-01T12:24:15.092Z</time></trkpt><trkpt lat="35.5578906" lon="8.6798896"><ele>1057.0</ele><time>2026-05-01T12:24:16.083Z</time></trkpt><trkpt lat="35.5579498" lon="8.6797942"><ele>1057.0</ele><time>2026-05-01T12:24:17.092Z</time></trkpt><trkpt lat="35.557998" lon="8.6796694"><ele>1056.75</ele><time>2026-05-01T12:24:18.102Z</time></trkpt><trkpt lat="35.5580707" lon="8.6795416"><ele>1056.5</ele><time>2026-05-01T12:24:19.095Z</time></trkpt><trkpt lat="35.5581762" lon="8.6794208"><ele>1056.25</ele><time>2026-05-01T12:24:20.087Z</time></trkpt><trkpt lat="35.5582951" lon="8.6792933"><ele>1056.0</ele><time>2026-05-01T12:24:21.093Z</time></trkpt><trkpt lat="35.5584243" lon="8.6791533"><ele>1056.0</ele><time>2026-05-01T12:24:22.09Z</time></trkpt><trkpt lat="35.5585382" lon="8.6790133"><ele>1056.0</ele><time>2026-05-01T12:24:23.085Z</time></trkpt><trkpt lat="35.5586575" lon="8.6788809"><ele>1056.0</ele><time>2026-05-01T12:24:24.084Z</time></trkpt><trkpt lat="35.5587761" lon="8.6787462"><ele>1056.6666666666667</ele><time>2026-05-01T12:24:25.081Z</time></trkpt><trkpt lat="35.5588919" lon="8.6786118"><ele>1057.3333333333335</ele><time>2026-05-01T12:24:26.092Z</time></trkpt><trkpt lat="35.5590144" lon="8.6784761"><ele>1058.0</ele><time>2026-05-01T12:24:27.099Z</time></trkpt><trkpt lat="35.5591306" lon="8.678344"><ele>1056.6666666666667</ele><time>2026-05-01T12:24:28.071Z</time></trkpt><trkpt lat="35.5592651" lon="8.6782197"><ele>1055.3333333333333</ele><time>2026-05-01T12:24:29.081Z</time></trkpt><trkpt lat="35.559395" lon="8.6781009"><ele>1054.0</ele><time>2026-05-01T12:24:30.085Z</time></trkpt><trkpt lat="35.5595313" lon="8.677984"><ele>1052.6666666666665</ele><time>2026-05-01T12:24:31.087Z</time></trkpt><trkpt lat="35.5596657" lon="8.6778782"><ele>1051.3333333333333</ele><time>2026-05-01T12:24:32.085Z</time></trkpt><trkpt lat="35.5598072" lon="8.6777624"><ele>1050.0</ele><time>2026-05-01T12:24:33.1Z</time></trkpt><trkpt lat="35.5599485" lon="8.6776464"><ele>1047.3333333333333</ele><time>2026-05-01T12:24:34.097Z</time></trkpt><trkpt lat="35.5600906" lon="8.6775274"><ele>1044.6666666666665</ele><time>2026-05-01T12:24:35.076Z</time></trkpt><trkpt lat="35.5602376" lon="8.6774089"><ele>1042.0</ele><time>2026-05-01T12:24:36.078Z</time></trkpt><trkpt lat="35.5603897" lon="8.6772863"><ele>1040.0</ele><time>2026-05-01T12:24:37.085Z</time></trkpt><trkpt lat="35.5605432" lon="8.6771724"><ele>1038.0</ele><time>2026-05-01T12:24:38.079Z</time></trkpt><trkpt lat="35.5607019" lon="8.6770524"><ele>1036.0</ele><time>2026-05-01T12:24:39.087Z</time></trkpt><trkpt lat="35.5608569" lon="8.6769318"><ele>1035.3333333333333</ele><time>2026-05-01T12:24:40.083Z</time></trkpt><trkpt lat="35.5610134" lon="8.6768116"><ele>1034.6666666666667</ele><time>2026-05-01T12:24:41.084Z</time></trkpt><trkpt lat="35.5611692" lon="8.6766888"><ele>1034.0</ele><time>2026-05-01T12:24:42.092Z</time></trkpt><trkpt lat="35.5613172" lon="8.6765692"><ele>1032.0</ele><time>2026-05-01T12:24:43.074Z</time></trkpt><trkpt lat="35.5614638" lon="8.6764515"><ele>1030.0</ele><time>2026-05-01T12:24:44.091Z</time></trkpt><trkpt lat="35.5616067" lon="8.6763453"><ele>1028.0</ele><time>2026-05-01T12:24:45.096Z</time></trkpt><trkpt lat="35.5617585" lon="8.6762483"><ele>1028.0</ele><time>2026-05-01T12:24:46.079Z</time></trkpt><trkpt lat="35.5619064" lon="8.6761519"><ele>1028.0</ele><time>2026-05-01T12:24:47.088Z</time></trkpt><trkpt lat="35.5620521" lon="8.6760631"><ele>1028.0</ele><time>2026-05-01T12:24:48.076Z</time></trkpt><trkpt lat="35.5621989" lon="8.6759895"><ele>1024.6666666666667</ele><time>2026-05-01T12:24:49.113Z</time></trkpt><trkpt lat="35.562346" lon="8.675919"><ele>1021.3333333333333</ele><time>2026-05-01T12:24:50.085Z</time></trkpt><trkpt lat="35.5624898" lon="8.6758588"><ele>1018.0</ele><time>2026-05-01T12:24:51.07Z</time></trkpt><trkpt lat="35.5626337" lon="8.6758127"><ele>1018.0</ele><time>2026-05-01T12:24:52.081Z</time></trkpt><trkpt lat="35.562765" lon="8.6757728"><ele>1018.0</ele><time>2026-05-01T12:24:53.086Z</time></trkpt><trkpt lat="35.562885" lon="8.6757389"><ele>1018.0</ele><time>2026-05-01T12:24:54.101Z</time></trkpt><trkpt lat="35.5629982" lon="8.6757143"><ele>1018.0</ele><time>2026-05-01T12:24:55.089Z</time></trkpt><trkpt lat="35.5631067" lon="8.6756963"><ele>1016.5999999999999</ele><time>2026-05-01T12:24:56.086Z</time></trkpt><trkpt lat="35.5632082" lon="8.6756847"><ele>1015.1999999999999</ele><time>2026-05-01T12:24:57.076Z</time></trkpt><trkpt lat="35.5633005" lon="8.6756708"><ele>1013.8</ele><time>2026-05-01T12:24:58.094Z</time></trkpt><trkpt lat="35.5633796" lon="8.6756458"><ele>1012.4</ele><time>2026-05-01T12:24:59.088Z</time></trkpt><trkpt lat="35.5634568" lon="8.6755843"><ele>1011.0</ele><time>2026-05-01T12:25:00.081Z</time></trkpt><trkpt lat="35.5635232" lon="8.6755146"><ele>1011.0</ele><time>2026-05-01T12:25:01.071Z</time></trkpt><trkpt lat="35.5635881" lon="8.6754482"><ele>1010.9999999999999</ele><time>2026-05-01T12:25:02.084Z</time></trkpt><trkpt lat="35.5636629" lon="8.6753829"><ele>1010.9999999999999</ele><time>2026-05-01T12:25:03.102Z</time></trkpt><trkpt lat="35.5637472" lon="8.6753433"><ele>1011.0</ele><time>2026-05-01T12:25:04.101Z</time></trkpt><trkpt lat="35.563845" lon="8.6753056"><ele>1011.0</ele><time>2026-05-01T12:25:05.088Z</time></trkpt><trkpt lat="35.5639527" lon="8.6752602"><ele>1009.75</ele><time>2026-05-01T12:25:06.091Z</time></trkpt><trkpt lat="35.5640598" lon="8.6752073"><ele>1008.5</ele><time>2026-05-01T12:25:07.08Z</time></trkpt><trkpt lat="35.5641694" lon="8.6751591"><ele>1007.25</ele><time>2026-05-01T12:25:08.093Z</time></trkpt><trkpt lat="35.5642743" lon="8.6751152"><ele>1006.0</ele><time>2026-05-01T12:25:09.083Z</time></trkpt><trkpt lat="35.5643696" lon="8.6750542"><ele>1005.9999999999999</ele><time>2026-05-01T12:25:10.08Z</time></trkpt><trkpt lat="35.5644586" lon="8.6750001"><ele>1006.0</ele><time>2026-05-01T12:25:11.093Z</time></trkpt><trkpt lat="35.5645421" lon="8.6749493"><ele>1006.0</ele><time>2026-05-01T12:25:12.089Z</time></trkpt><trkpt lat="35.5646148" lon="8.6749053"><ele>1006.0</ele><time>2026-05-01T12:25:13.088Z</time></trkpt><trkpt lat="35.5646868" lon="8.6748593"><ele>1005.9999999999999</ele><time>2026-05-01T12:25:14.098Z</time></trkpt><trkpt lat="35.5647566" lon="8.6748146"><ele>1006.0</ele><time>2026-05-01T12:25:15.089Z</time></trkpt><trkpt lat="35.5648319" lon="8.6747649"><ele>1004.5999999999999</ele><time>2026-05-01T12:25:16.099Z</time></trkpt><trkpt lat="35.5649091" lon="8.6747252"><ele>1003.1999999999999</ele><time>2026-05-01T12:25:17.077Z</time></trkpt><trkpt lat="35.5649946" lon="8.6746815"><ele>1001.8000000000001</ele><time>2026-05-01T12:25:18.079Z</time></trkpt><trkpt lat="35.5650808" lon="8.6746346"><ele>1000.4000000000001</ele><time>2026-05-01T12:25:19.056Z</time></trkpt><trkpt lat="35.5651623" lon="8.6745854"><ele>999.0</ele><time>2026-05-01T12:25:20.106Z</time></trkpt><trkpt lat="35.5652396" lon="8.6745323"><ele>999.0</ele><time>2026-05-01T12:25:21.074Z</time></trkpt><trkpt lat="35.5653294" lon="8.6744666"><ele>999.0000000000001</ele><time>2026-05-01T12:25:22.06Z</time></trkpt><trkpt lat="35.5654246" lon="8.6744012"><ele>999.0000000000001</ele><time>2026-05-01T12:25:23.09Z</time></trkpt><trkpt lat="35.5655181" lon="8.6743368"><ele>999.0</ele><time>2026-05-01T12:25:24.082Z</time></trkpt><trkpt lat="35.5656157" lon="8.6742692"><ele>999.0</ele><time>2026-05-01T12:25:25.086Z</time></trkpt><trkpt lat="35.5657129" lon="8.6742031"><ele>998.6</ele><time>2026-05-01T12:25:26.087Z</time></trkpt><trkpt lat="35.5658059" lon="8.6741408"><ele>998.2</ele><time>2026-05-01T12:25:27.073Z</time></trkpt><trkpt lat="35.5658928" lon="8.6740816"><ele>997.8000000000001</ele><time>2026-05-01T12:25:28.09Z</time></trkpt><trkpt lat="35.5659802" lon="8.6740229"><ele>997.4000000000001</ele><time>2026-05-01T12:25:29.085Z</time></trkpt><trkpt lat="35.5660621" lon="8.6739603"><ele>997.0</ele><time>2026-05-01T12:25:30.104Z</time></trkpt><trkpt lat="35.5661397" lon="8.6739123"><ele>996.4285714285713</ele><time>2026-05-01T12:25:31.078Z</time></trkpt><trkpt lat="35.5662006" lon="8.6738726"><ele>995.8571428571429</ele><time>2026-05-01T12:25:32.086Z</time></trkpt><trkpt lat="35.5662617" lon="8.6738303"><ele>995.2857142857142</ele><time>2026-05-01T12:25:33.085Z</time></trkpt><trkpt lat="35.5663226" lon="8.6737818"><ele>994.7142857142857</ele><time>2026-05-01T12:25:34.092Z</time></trkpt><trkpt lat="35.5663897" lon="8.6737388"><ele>994.1428571428571</ele><time>2026-05-01T12:25:35.098Z</time></trkpt><trkpt lat="35.5664572" lon="8.6736947"><ele>993.5714285714286</ele><time>2026-05-01T12:25:36.072Z</time></trkpt><trkpt lat="35.5665206" lon="8.6736504"><ele>993.0</ele><time>2026-05-01T12:25:37.088Z</time></trkpt><trkpt lat="35.5665879" lon="8.6736106"><ele>992.8</ele><time>2026-05-01T12:25:38.112Z</time></trkpt><trkpt lat="35.5666637" lon="8.6735647"><ele>992.5999999999999</ele><time>2026-05-01T12:25:39.079Z</time></trkpt><trkpt lat="35.5667456" lon="8.6735175"><ele>992.4000000000001</ele><time>2026-05-01T12:25:40.098Z</time></trkpt><trkpt lat="35.5668315" lon="8.6734642"><ele>992.2</ele><time>2026-05-01T12:25:41.088Z</time></trkpt><trkpt lat="35.5669234" lon="8.6734091"><ele>992.0</ele><time>2026-05-01T12:25:42.104Z</time></trkpt><trkpt lat="35.5670146" lon="8.6733481"><ele>991.4000000000001</ele><time>2026-05-01T12:25:43.095Z</time></trkpt><trkpt lat="35.5671057" lon="8.6732919"><ele>990.8000000000001</ele><time>2026-05-01T12:25:44.077Z</time></trkpt><trkpt lat="35.5671956" lon="8.6732338"><ele>990.2</ele><time>2026-05-01T12:25:45.084Z</time></trkpt><trkpt lat="35.567286" lon="8.6731763"><ele>989.6</ele><time>2026-05-01T12:25:46.076Z</time></trkpt><trkpt lat="35.5673743" lon="8.6731192"><ele>989.0</ele><time>2026-05-01T12:25:47.089Z</time></trkpt><trkpt lat="35.5674559" lon="8.6730649"><ele>989.0000000000001</ele><time>2026-05-01T12:25:48.09Z</time></trkpt><trkpt lat="35.5675362" lon="8.6730113"><ele>989.0</ele><time>2026-05-01T12:25:49.078Z</time></trkpt><trkpt lat="35.5676051" lon="8.6729658"><ele>989.0</ele><time>2026-05-01T12:25:50.092Z</time></trkpt><trkpt lat="35.5676681" lon="8.6729354"><ele>989.0</ele><time>2026-05-01T12:25:51.092Z</time></trkpt><trkpt lat="35.567724" lon="8.6728984"><ele>989.0000000000001</ele><time>2026-05-01T12:25:52.079Z</time></trkpt><trkpt lat="35.567823" lon="8.672849"><ele>989.0</ele><time>2026-05-01T12:25:54.074Z</time></trkpt><trkpt lat="35.5679228" lon="8.6727861"><ele>987.8000000000001</ele><time>2026-05-01T12:25:56.068Z</time></trkpt><trkpt lat="35.5680127" lon="8.6727423"><ele>986.6000000000001</ele><time>2026-05-01T12:25:58.09Z</time></trkpt><trkpt lat="35.5680934" lon="8.6726952"><ele>985.4</ele><time>2026-05-01T12:26:00.09Z</time></trkpt><trkpt lat="35.5681785" lon="8.6726549"><ele>984.2</ele><time>2026-05-01T12:26:02.085Z</time></trkpt><trkpt lat="35.5682541" lon="8.6726054"><ele>983.0</ele><time>2026-05-01T12:26:04.078Z</time></trkpt><trkpt lat="35.568344" lon="8.6725591"><ele>983.0</ele><time>2026-05-01T12:26:06.084Z</time></trkpt><trkpt lat="35.5684505" lon="8.672507"><ele>983.0</ele><time>2026-05-01T12:26:08.09Z</time></trkpt><trkpt lat="35.5685533" lon="8.672454"><ele>983.0</ele><time>2026-05-01T12:26:10.079Z</time></trkpt><trkpt lat="35.5686577" lon="8.6723923"><ele>983.0</ele><time>2026-05-01T12:26:12.1Z</time></trkpt><trkpt lat="35.5687728" lon="8.6723281"><ele>983.0</ele><time>2026-05-01T12:26:14.086Z</time></trkpt><trkpt lat="35.5688822" lon="8.672265"><ele>983.0</ele><time>2026-05-01T12:26:16.081Z</time></trkpt><trkpt lat="35.5689674" lon="8.6722422"><ele>983.0</ele><time>2026-05-01T12:26:19.075Z</time></trkpt><trkpt lat="35.5690498" lon="8.6722005"><ele>983.0</ele><time>2026-05-01T12:26:22.099Z</time></trkpt><trkpt lat="35.5691246" lon="8.672151"><ele>983.0</ele><time>2026-05-01T12:26:24.099Z</time></trkpt><trkpt lat="35.5692184" lon="8.6721055"><ele>983.0000000000001</ele><time>2026-05-01T12:26:26.089Z</time></trkpt><trkpt lat="35.5693154" lon="8.6720562"><ele>983.0</ele><time>2026-05-01T12:26:28.083Z</time></trkpt><trkpt lat="35.5693819" lon="8.672012"><ele>983.0</ele><time>2026-05-01T12:26:30.093Z</time></trkpt><trkpt lat="35.5694502" lon="8.6719774"><ele>983.0</ele><time>2026-05-01T12:26:35.078Z</time></trkpt><trkpt lat="35.5695187" lon="8.6719197"><ele>983.0000000000001</ele><time>2026-05-01T12:26:39.082Z</time></trkpt><trkpt lat="35.5696059" lon="8.6718623"><ele>983.0</ele><time>2026-05-01T12:26:42.09Z</time></trkpt><trkpt lat="35.569667" lon="8.6718392"><ele>981.8571428571427</ele><time>2026-05-01T12:26:44.094Z</time></trkpt><trkpt lat="35.5697278" lon="8.6718174"><ele>980.7142857142857</ele><time>2026-05-01T12:26:46.089Z</time></trkpt><trkpt lat="35.5697873" lon="8.6717838"><ele>979.5714285714284</ele><time>2026-05-01T12:26:48.089Z</time></trkpt><trkpt lat="35.56987" lon="8.6717681"><ele>978.4285714285713</ele><time>2026-05-01T12:26:50.08Z</time></trkpt><trkpt lat="35.5699508" lon="8.6717348"><ele>977.2857142857142</ele><time>2026-05-01T12:26:52.077Z</time></trkpt><trkpt lat="35.5700138" lon="8.6717224"><ele>976.1428571428571</ele><time>2026-05-01T12:26:55.093Z</time></trkpt><trkpt lat="35.5700818" lon="8.6716913"><ele>975.0</ele><time>2026-05-01T12:26:59.093Z</time></trkpt><trkpt lat="35.5701677" lon="8.6716451"><ele>975.0</ele><time>2026-05-01T12:27:02.092Z</time></trkpt><trkpt lat="35.5702459" lon="8.6716206"><ele>975.0</ele><time>2026-05-01T12:27:04.082Z</time></trkpt><trkpt lat="35.5703292" lon="8.6715929"><ele>975.0</ele><time>2026-05-01T12:27:06.097Z</time></trkpt><trkpt lat="35.5704306" lon="8.6715492"><ele>975.0</ele><time>2026-05-01T12:27:08.085Z</time></trkpt><trkpt lat="35.5705298" lon="8.6715066"><ele>975.0</ele><time>2026-05-01T12:27:10.093Z</time></trkpt><trkpt lat="35.5706401" lon="8.6714683"><ele>974.6666666666666</ele><time>2026-05-01T12:27:12.07Z</time></trkpt><trkpt lat="35.5707635" lon="8.6714321"><ele>974.3333333333333</ele><time>2026-05-01T12:27:14.072Z</time></trkpt><trkpt lat="35.5708278" lon="8.6714097"><ele>974.0</ele><time>2026-05-01T12:27:15.082Z</time></trkpt><trkpt lat="35.5708915" lon="8.6713928"><ele>973.6666666666666</ele><time>2026-05-01T12:27:16.08Z</time></trkpt><trkpt lat="35.5709624" lon="8.6713667"><ele>973.3333333333333</ele><time>2026-05-01T12:27:17.084Z</time></trkpt><trkpt lat="35.5710318" lon="8.6713385"><ele>973.0</ele><time>2026-05-01T12:27:18.117Z</time></trkpt><trkpt lat="35.5711029" lon="8.6713124"><ele>972.9999999999999</ele><time>2026-05-01T12:27:19.095Z</time></trkpt><trkpt lat="35.5711707" lon="8.6712872"><ele>973.0</ele><time>2026-05-01T12:27:20.083Z</time></trkpt><trkpt lat="35.5712415" lon="8.6712642"><ele>973.0</ele><time>2026-05-01T12:27:21.09Z</time></trkpt><trkpt lat="35.5713044" lon="8.6712424"><ele>973.0</ele><time>2026-05-01T12:27:22.075Z</time></trkpt><trkpt lat="35.5714195" lon="8.6711977"><ele>972.9999999999999</ele><time>2026-05-01T12:27:24.079Z</time></trkpt><trkpt lat="35.5715163" lon="8.6711621"><ele>973.0</ele><time>2026-05-01T12:27:26.088Z</time></trkpt><trkpt lat="35.5715793" lon="8.6711415"><ele>973.0</ele><time>2026-05-01T12:27:27.081Z</time></trkpt><trkpt lat="35.571647" lon="8.6711171"><ele>973.0</ele><time>2026-05-01T12:27:28.101Z</time></trkpt><trkpt lat="35.5717146" lon="8.6710849"><ele>973.0</ele><time>2026-05-01T12:27:29.087Z</time></trkpt><trkpt lat="35.5717828" lon="8.6710518"><ele>973.0</ele><time>2026-05-01T12:27:30.08Z</time></trkpt><trkpt lat="35.5718511" lon="8.6710223"><ele>973.0</ele><time>2026-05-01T12:27:31.08Z</time></trkpt><trkpt lat="35.5719124" lon="8.6709899"><ele>973.0</ele><time>2026-05-01T12:27:32.088Z</time></trkpt><trkpt lat="35.5719732" lon="8.6709623"><ele>973.0</ele><time>2026-05-01T12:27:33.086Z</time></trkpt><trkpt lat="35.5721024" lon="8.6709228"><ele>971.0</ele><time>2026-05-01T12:27:35.085Z</time></trkpt><trkpt lat="35.5722167" lon="8.6708929"><ele>969.0</ele><time>2026-05-01T12:27:37.076Z</time></trkpt><trkpt lat="35.5723177" lon="8.6708461"><ele>967.0</ele><time>2026-05-01T12:27:39.073Z</time></trkpt><trkpt lat="35.5724024" lon="8.6708113"><ele>965.0</ele><time>2026-05-01T12:27:41.104Z</time></trkpt><trkpt lat="35.5724793" lon="8.6707883"><ele>963.0</ele><time>2026-05-01T12:27:43.091Z</time></trkpt><trkpt lat="35.5725539" lon="8.6707535"><ele>963.0</ele><time>2026-05-01T12:27:45.085Z</time></trkpt><trkpt lat="35.572626" lon="8.670717"><ele>963.0</ele><time>2026-05-01T12:27:47.09Z</time></trkpt><trkpt lat="35.572708" lon="8.6706789"><ele>963.0</ele><time>2026-05-01T12:27:49.088Z</time></trkpt><trkpt lat="35.5728013" lon="8.6706347"><ele>963.0</ele><time>2026-05-01T12:27:51.077Z</time></trkpt><trkpt lat="35.5728918" lon="8.6706112"><ele>963.0</ele><time>2026-05-01T12:27:53.098Z</time></trkpt><trkpt lat="35.5729557" lon="8.6706024"><ele>963.0</ele><time>2026-05-01T12:27:55.09Z</time></trkpt><trkpt lat="35.5730423" lon="8.6705701"><ele>962.4285714285716</ele><time>2026-05-01T12:27:58.091Z</time></trkpt><trkpt lat="35.5730967" lon="8.6705281"><ele>961.8571428571429</ele><time>2026-05-01T12:28:00.107Z</time></trkpt><trkpt lat="35.5731087" lon="8.6704449"><ele>961.2857142857143</ele><time>2026-05-01T12:28:03.092Z</time></trkpt><trkpt lat="35.5730418" lon="8.670405"><ele>960.7142857142858</ele><time>2026-05-01T12:28:18.093Z</time></trkpt><trkpt lat="35.5729747" lon="8.6703732"><ele>960.1428571428571</ele><time>2026-05-01T12:28:35.066Z</time></trkpt><trkpt lat="35.5729224" lon="8.6703289"><ele>959.5714285714286</ele><time>2026-05-01T12:28:40.077Z</time></trkpt><trkpt lat="35.5729463" lon="8.6704176"><ele>959.0</ele><time>2026-05-01T12:33:00.122Z</time></trkpt><trkpt lat="35.5729686" lon="8.6704974"><ele>959.0</ele><time>2026-05-01T12:33:05.053Z</time></trkpt><trkpt lat="35.5729085" lon="8.6705622"><ele>959.0000000000001</ele><time>2026-05-01T12:33:13.102Z</time></trkpt><trkpt lat="35.572793" lon="8.670614"><ele>959.0000000000001</ele><time>2026-05-01T12:33:15.108Z</time></trkpt><trkpt lat="35.5726779" lon="8.670668"><ele>959.0</ele><time>2026-05-01T12:33:17.054Z</time></trkpt><trkpt lat="35.572567" lon="8.6707118"><ele>959.0</ele><time>2026-05-01T12:33:19.069Z</time></trkpt><trkpt lat="35.5724503" lon="8.6707493"><ele>960.3333333333334</ele><time>2026-05-01T12:33:21.099Z</time></trkpt><trkpt lat="35.5723371" lon="8.6707928"><ele>961.6666666666667</ele><time>2026-05-01T12:33:23.09Z</time></trkpt><trkpt lat="35.5720472" lon="8.6708959"><ele>963.0</ele><time>2026-05-01T12:33:28.065Z</time></trkpt><trkpt lat="35.5719822" lon="8.6709174"><ele>963.8</ele><time>2026-05-01T12:33:29.055Z</time></trkpt><trkpt lat="35.5718808" lon="8.6709523"><ele>964.5999999999999</ele><time>2026-05-01T12:33:31.063Z</time></trkpt><trkpt lat="35.5717993" lon="8.6709747"><ele>965.4000000000001</ele><time>2026-05-01T12:33:33.07Z</time></trkpt><trkpt lat="35.5717438" lon="8.6709365"><ele>966.2</ele><time>2026-05-01T12:33:35.068Z</time></trkpt><trkpt lat="35.5717036" lon="8.6708308"><ele>967.0</ele><time>2026-05-01T12:33:37.095Z</time></trkpt><trkpt lat="35.5716687" lon="8.670695"><ele>967.0</ele><time>2026-05-01T12:33:39.082Z</time></trkpt><trkpt lat="35.5716433" lon="8.6706175"><ele>967.0</ele><time>2026-05-01T12:33:40.091Z</time></trkpt><trkpt lat="35.5715875" lon="8.6704628"><ele>967.0</ele><time>2026-05-01T12:33:42.07Z</time></trkpt><trkpt lat="35.5715643" lon="8.6703785"><ele>967.0</ele><time>2026-05-01T12:33:43.074Z</time></trkpt><trkpt lat="35.5715511" lon="8.6701717"><ele>967.0</ele><time>2026-05-01T12:33:46.076Z</time></trkpt><trkpt lat="35.5715288" lon="8.6700624"><ele>966.8333333333333</ele><time>2026-05-01T12:33:48.065Z</time></trkpt><trkpt lat="35.5715087" lon="8.6699848"><ele>966.6666666666666</ele><time>2026-05-01T12:33:51.075Z</time></trkpt><trkpt lat="35.5714868" lon="8.6699115"><ele>966.5</ele><time>2026-05-01T12:33:53.06Z</time></trkpt><trkpt lat="35.5714544" lon="8.6698092"><ele>966.3333333333333</ele><time>2026-05-01T12:33:56.047Z</time></trkpt><trkpt lat="35.5714262" lon="8.669718"><ele>966.1666666666666</ele><time>2026-05-01T12:33:58.044Z</time></trkpt><trkpt lat="35.5713946" lon="8.6696006"><ele>966.0</ele><time>2026-05-01T12:34:00.052Z</time></trkpt><trkpt lat="35.5713621" lon="8.6695019"><ele>966.4</ele><time>2026-05-01T12:34:02.112Z</time></trkpt><trkpt lat="35.5713943" lon="8.6694271"><ele>966.8</ele><time>2026-05-01T12:34:04.068Z</time></trkpt><trkpt lat="35.5714965" lon="8.6693856"><ele>967.1999999999999</ele><time>2026-05-01T12:34:06.089Z</time></trkpt><trkpt lat="35.5716086" lon="8.6693485"><ele>967.5999999999999</ele><time>2026-05-01T12:34:08.084Z</time></trkpt><trkpt lat="35.5716673" lon="8.6693198"><ele>968.0</ele><time>2026-05-01T12:34:09.068Z</time></trkpt><trkpt lat="35.5717842" lon="8.6692762"><ele>968.0</ele><time>2026-05-01T12:34:11.074Z</time></trkpt><trkpt lat="35.5718966" lon="8.6692396"><ele>968.0</ele><time>2026-05-01T12:34:13.109Z</time></trkpt><trkpt lat="35.5720114" lon="8.6691837"><ele>968.0</ele><time>2026-05-01T12:34:15.101Z</time></trkpt><trkpt lat="35.5721213" lon="8.6691315"><ele>968.0</ele><time>2026-05-01T12:34:17.102Z</time></trkpt><trkpt lat="35.5722312" lon="8.669095"><ele>967.3333333333334</ele><time>2026-05-01T12:34:19.095Z</time></trkpt><trkpt lat="35.5723467" lon="8.6690546"><ele>966.6666666666667</ele><time>2026-05-01T12:34:21.093Z</time></trkpt><trkpt lat="35.5724729" lon="8.6690316"><ele>966.0</ele><time>2026-05-01T12:34:23.104Z</time></trkpt><trkpt lat="35.5725376" lon="8.669013"><ele>965.3333333333333</ele><time>2026-05-01T12:34:24.09Z</time></trkpt><trkpt lat="35.5726019" lon="8.6689907"><ele>964.6666666666666</ele><time>2026-05-01T12:34:25.088Z</time></trkpt><trkpt lat="35.5726642" lon="8.6689668"><ele>964.0</ele><time>2026-05-01T12:34:26.115Z</time></trkpt><trkpt lat="35.5727309" lon="8.6689382"><ele>964.0</ele><time>2026-05-01T12:34:27.118Z</time></trkpt><trkpt lat="35.5727994" lon="8.6689109"><ele>964.0000000000001</ele><time>2026-05-01T12:34:28.101Z</time></trkpt><trkpt lat="35.5729109" lon="8.6688637"><ele>964.0000000000001</ele><time>2026-05-01T12:34:30.109Z</time></trkpt><trkpt lat="35.5730301" lon="8.6688203"><ele>964.0</ele><time>2026-05-01T12:34:32.104Z</time></trkpt><trkpt lat="35.5731184" lon="8.6687946"><ele>964.0</ele><time>2026-05-01T12:34:34.104Z</time></trkpt><trkpt lat="35.5731906" lon="8.6687793"><ele>963.1666666666666</ele><time>2026-05-01T12:34:37.106Z</time></trkpt><trkpt lat="35.5732612" lon="8.6687781"><ele>962.3333333333333</ele><time>2026-05-01T12:34:40.113Z</time></trkpt><trkpt lat="35.5733044" lon="8.6687188"><ele>961.5</ele><time>2026-05-01T12:34:56.095Z</time></trkpt><trkpt lat="35.5732323" lon="8.6687143"><ele>960.6666666666667</ele><time>2026-05-01T12:36:41.085Z</time></trkpt><trkpt lat="35.5731563" lon="8.6687456"><ele>959.8333333333334</ele><time>2026-05-01T12:36:58.071Z</time></trkpt><trkpt lat="35.5730691" lon="8.668797"><ele>959.0</ele><time>2026-05-01T12:37:00.075Z</time></trkpt><trkpt lat="35.5729732" lon="8.6688218"><ele>959.0</ele><time>2026-05-01T12:37:02.1Z</time></trkpt><trkpt lat="35.5728779" lon="8.6688741"><ele>959.0000000000001</ele><time>2026-05-01T12:37:04.108Z</time></trkpt><trkpt lat="35.5727869" lon="8.6689001"><ele>959.0000000000001</ele><time>2026-05-01T12:37:06.095Z</time></trkpt><trkpt lat="35.5726956" lon="8.6689216"><ele>959.0</ele><time>2026-05-01T12:37:08.115Z</time></trkpt><trkpt lat="35.5726196" lon="8.6689404"><ele>959.0</ele><time>2026-05-01T12:37:10.077Z</time></trkpt><trkpt lat="35.5725389" lon="8.6689723"><ele>960.0</ele><time>2026-05-01T12:37:12.129Z</time></trkpt><trkpt lat="35.5724491" lon="8.6690108"><ele>961.0000000000001</ele><time>2026-05-01T12:37:14.104Z</time></trkpt><trkpt lat="35.5723438" lon="8.6690418"><ele>962.0000000000001</ele><time>2026-05-01T12:37:16.134Z</time></trkpt><trkpt lat="35.5722286" lon="8.6690777"><ele>963.0</ele><time>2026-05-01T12:37:18.108Z</time></trkpt><trkpt lat="35.5721211" lon="8.6691265"><ele>964.0</ele><time>2026-05-01T12:37:20.107Z</time></trkpt><trkpt lat="35.5720273" lon="8.6691598"><ele>964.6666666666666</ele><time>2026-05-01T12:37:22.106Z</time></trkpt><trkpt lat="35.5719427" lon="8.669191"><ele>965.3333333333333</ele><time>2026-05-01T12:37:24.116Z</time></trkpt><trkpt lat="35.5718608" lon="8.669215"><ele>966.0</ele><time>2026-05-01T12:37:26.097Z</time></trkpt><trkpt lat="35.5717831" lon="8.6692539"><ele>966.6666666666667</ele><time>2026-05-01T12:37:28.119Z</time></trkpt><trkpt lat="35.5717066" lon="8.6692795"><ele>967.3333333333334</ele><time>2026-05-01T12:37:30.105Z</time></trkpt><trkpt lat="35.5716441" lon="8.6693098"><ele>968.0</ele><time>2026-05-01T12:37:32.137Z</time></trkpt><trkpt lat="35.57158" lon="8.6693377"><ele>968.0</ele><time>2026-05-01T12:37:34.121Z</time></trkpt><trkpt lat="35.5715061" lon="8.6693698"><ele>967.9999999999999</ele><time>2026-05-01T12:37:37.137Z</time></trkpt><trkpt lat="35.5714251" lon="8.6693905"><ele>968.0</ele><time>2026-05-01T12:37:41.148Z</time></trkpt><trkpt lat="35.5713681" lon="8.6694307"><ele>968.0</ele><time>2026-05-01T12:37:43.127Z</time></trkpt><trkpt lat="35.5713486" lon="8.6695064"><ele>967.9999999999999</ele><time>2026-05-01T12:37:45.155Z</time></trkpt><trkpt lat="35.5713669" lon="8.6695987"><ele>968.0</ele><time>2026-05-01T12:37:47.101Z</time></trkpt><trkpt lat="35.5713935" lon="8.6696924"><ele>968.0</ele><time>2026-05-01T12:37:49.123Z</time></trkpt><trkpt lat="35.5714176" lon="8.6697782"><ele>966.0</ele><time>2026-05-01T12:37:52.108Z</time></trkpt><trkpt lat="35.5714272" lon="8.669867"><ele>966.0</ele><time>2026-05-01T12:37:57.128Z</time></trkpt><trkpt lat="35.5714038" lon="8.669939"><ele>966.0</ele><time>2026-05-01T12:38:04.077Z</time></trkpt><trkpt lat="35.5713465" lon="8.6699714"><ele>966.0</ele><time>2026-05-01T12:38:26.114Z</time></trkpt></trkseg><trkseg><trkpt lat="35.5714452" lon="8.6699794"><ele>966.0</ele><time>2026-05-01T13:20:50.087Z</time></trkpt><trkpt lat="35.5714757" lon="8.6701064"><ele>965.9999999999999</ele><time>2026-05-01T13:20:53.075Z</time></trkpt><trkpt lat="35.5715056" lon="8.6702162"><ele>965.9999999999999</ele><time>2026-05-01T13:20:55.07Z</time></trkpt><trkpt lat="35.5715367" lon="8.6703296"><ele>966.0</ele><time>2026-05-01T13:20:57.073Z</time></trkpt><trkpt lat="35.5715865" lon="8.6704305"><ele>966.0</ele><time>2026-05-01T13:20:59.061Z</time></trkpt><trkpt lat="35.5716207" lon="8.6705424"><ele>966.1666666666666</ele><time>2026-05-01T13:21:01.07Z</time></trkpt><trkpt lat="35.5716424" lon="8.670646"><ele>966.3333333333333</ele><time>2026-05-01T13:21:03.065Z</time></trkpt><trkpt lat="35.571658" lon="8.6707408"><ele>966.5</ele><time>2026-05-01T13:21:05.069Z</time></trkpt><trkpt lat="35.5716791" lon="8.6708392"><ele>966.6666666666666</ele><time>2026-05-01T13:21:07.081Z</time></trkpt><trkpt lat="35.5716988" lon="8.6709197"><ele>966.8333333333333</ele><time>2026-05-01T13:21:09.086Z</time></trkpt><trkpt lat="35.5717356" lon="8.6709978"><ele>967.0</ele><time>2026-05-01T13:21:12.084Z</time></trkpt><trkpt lat="35.5718166" lon="8.6709905"><ele>967.0</ele><time>2026-05-01T13:21:15.064Z</time></trkpt><trkpt lat="35.5719199" lon="8.6709655"><ele>967.0</ele><time>2026-05-01T13:21:17.079Z</time></trkpt><trkpt lat="35.5720266" lon="8.6709309"><ele>967.0</ele><time>2026-05-01T13:21:19.087Z</time></trkpt><trkpt lat="35.5721507" lon="8.6708999"><ele>967.0</ele><time>2026-05-01T13:21:21.086Z</time></trkpt><trkpt lat="35.5722185" lon="8.6708762"><ele>967.0</ele><time>2026-05-01T13:21:22.074Z</time></trkpt><trkpt lat="35.5722852" lon="8.6708522"><ele>966.4285714285714</ele><time>2026-05-01T13:21:23.079Z</time></trkpt><trkpt lat="35.5723524" lon="8.6708268"><ele>965.8571428571429</ele><time>2026-05-01T13:21:24.082Z</time></trkpt><trkpt lat="35.5724203" lon="8.6708068"><ele>965.2857142857143</ele><time>2026-05-01T13:21:25.074Z</time></trkpt><trkpt lat="35.5724896" lon="8.6707819"><ele>964.7142857142858</ele><time>2026-05-01T13:21:26.089Z</time></trkpt><trkpt lat="35.5725591" lon="8.670749"><ele>964.1428571428571</ele><time>2026-05-01T13:21:27.074Z</time></trkpt><trkpt lat="35.5726328" lon="8.6707217"><ele>963.5714285714287</ele><time>2026-05-01T13:21:28.07Z</time></trkpt><trkpt lat="35.5727085" lon="8.6706981"><ele>963.0000000000001</ele><time>2026-05-01T13:21:29.066Z</time></trkpt><trkpt lat="35.5727833" lon="8.6706682"><ele>963.0</ele><time>2026-05-01T13:21:30.067Z</time></trkpt><trkpt lat="35.5728545" lon="8.6706414"><ele>963.0</ele><time>2026-05-01T13:21:31.079Z</time></trkpt><trkpt lat="35.5729259" lon="8.6706094"><ele>963.0</ele><time>2026-05-01T13:21:32.081Z</time></trkpt><trkpt lat="35.5729955" lon="8.6705846"><ele>963.0</ele><time>2026-05-01T13:21:33.076Z</time></trkpt><trkpt lat="35.5730596" lon="8.6705602"><ele>963.0</ele><time>2026-05-01T13:21:34.08Z</time></trkpt><trkpt lat="35.5731229" lon="8.6705373"><ele>963.0</ele><time>2026-05-01T13:21:35.081Z</time></trkpt><trkpt lat="35.5732189" lon="8.6705039"><ele>962.3333333333334</ele><time>2026-05-01T13:21:37.072Z</time></trkpt><trkpt lat="35.5733019" lon="8.670472"><ele>961.6666666666667</ele><time>2026-05-01T13:21:39.082Z</time></trkpt><trkpt lat="35.5733905" lon="8.6704302"><ele>961.0</ele><time>2026-05-01T13:21:41.072Z</time></trkpt><trkpt lat="35.5734972" lon="8.6703963"><ele>960.3333333333334</ele><time>2026-05-01T13:21:43.067Z</time></trkpt><trkpt lat="35.573566" lon="8.6703671"><ele>959.6666666666667</ele><time>2026-05-01T13:21:44.072Z</time></trkpt><trkpt lat="35.5736331" lon="8.6703384"><ele>959.0</ele><time>2026-05-01T13:21:45.065Z</time></trkpt><trkpt lat="35.5737011" lon="8.6703131"><ele>958.5714285714286</ele><time>2026-05-01T13:21:46.073Z</time></trkpt><trkpt lat="35.573769" lon="8.6702826"><ele>958.1428571428571</ele><time>2026-05-01T13:21:47.066Z</time></trkpt><trkpt lat="35.573838" lon="8.67025"><ele>957.7142857142858</ele><time>2026-05-01T13:21:48.083Z</time></trkpt><trkpt lat="35.5739063" lon="8.6702269"><ele>957.2857142857143</ele><time>2026-05-01T13:21:49.075Z</time></trkpt><trkpt lat="35.5739735" lon="8.6701978"><ele>956.8571428571429</ele><time>2026-05-01T13:21:50.067Z</time></trkpt><trkpt lat="35.5740401" lon="8.6701712"><ele>956.4285714285716</ele><time>2026-05-01T13:21:51.088Z</time></trkpt><trkpt lat="35.5741134" lon="8.6701474"><ele>956.0000000000001</ele><time>2026-05-01T13:21:52.065Z</time></trkpt><trkpt lat="35.5741828" lon="8.6701214"><ele>955.3333333333334</ele><time>2026-05-01T13:21:53.081Z</time></trkpt><trkpt lat="35.5742595" lon="8.670094"><ele>954.6666666666667</ele><time>2026-05-01T13:21:54.076Z</time></trkpt><trkpt lat="35.5743366" lon="8.670066"><ele>954.0</ele><time>2026-05-01T13:21:55.08Z</time></trkpt><trkpt lat="35.5744127" lon="8.6700395"><ele>953.3333333333333</ele><time>2026-05-01T13:21:56.072Z</time></trkpt><trkpt lat="35.5744946" lon="8.6700137"><ele>952.6666666666666</ele><time>2026-05-01T13:21:57.063Z</time></trkpt><trkpt lat="35.5745709" lon="8.6699846"><ele>952.0</ele><time>2026-05-01T13:21:58.081Z</time></trkpt><trkpt lat="35.5746452" lon="8.6699536"><ele>951.2</ele><time>2026-05-01T13:21:59.078Z</time></trkpt><trkpt lat="35.5747134" lon="8.6699215"><ele>950.4000000000001</ele><time>2026-05-01T13:22:00.068Z</time></trkpt><trkpt lat="35.5747807" lon="8.6698911"><ele>949.5999999999999</ele><time>2026-05-01T13:22:01.067Z</time></trkpt><trkpt lat="35.5748438" lon="8.6698659"><ele>948.8</ele><time>2026-05-01T13:22:02.072Z</time></trkpt><trkpt lat="35.5749653" lon="8.669826"><ele>948.0</ele><time>2026-05-01T13:22:04.082Z</time></trkpt><trkpt lat="35.57509" lon="8.669786"><ele>948.0</ele><time>2026-05-01T13:22:06.083Z</time></trkpt><trkpt lat="35.5751538" lon="8.6697586"><ele>948.0</ele><time>2026-05-01T13:22:07.084Z</time></trkpt><trkpt lat="35.5752737" lon="8.6697095"><ele>948.0</ele><time>2026-05-01T13:22:09.071Z</time></trkpt><trkpt lat="35.5753334" lon="8.6696842"><ele>948.0</ele><time>2026-05-01T13:22:10.079Z</time></trkpt><trkpt lat="35.5754504" lon="8.6696511"><ele>948.0</ele><time>2026-05-01T13:22:12.079Z</time></trkpt><trkpt lat="35.5755675" lon="8.6696076"><ele>947.6666666666666</ele><time>2026-05-01T13:22:14.073Z</time></trkpt><trkpt lat="35.5756724" lon="8.6695819"><ele>947.3333333333333</ele><time>2026-05-01T13:22:16.078Z</time></trkpt><trkpt lat="35.5757535" lon="8.6695527"><ele>947.0</ele><time>2026-05-01T13:22:18.068Z</time></trkpt><trkpt lat="35.57583" lon="8.6695288"><ele>946.6666666666666</ele><time>2026-05-01T13:22:20.089Z</time></trkpt><trkpt lat="35.5759038" lon="8.6695071"><ele>946.3333333333333</ele><time>2026-05-01T13:22:22.069Z</time></trkpt><trkpt lat="35.5759816" lon="8.6694844"><ele>946.0</ele><time>2026-05-01T13:22:24.081Z</time></trkpt><trkpt lat="35.5760777" lon="8.6694448"><ele>946.5999999999999</ele><time>2026-05-01T13:22:26.077Z</time></trkpt><trkpt lat="35.5761836" lon="8.669393"><ele>947.1999999999999</ele><time>2026-05-01T13:22:28.074Z</time></trkpt><trkpt lat="35.5763019" lon="8.6693456"><ele>947.8000000000001</ele><time>2026-05-01T13:22:30.079Z</time></trkpt><trkpt lat="35.5763665" lon="8.6693193"><ele>948.4000000000001</ele><time>2026-05-01T13:22:31.077Z</time></trkpt><trkpt lat="35.5764267" lon="8.6692952"><ele>949.0</ele><time>2026-05-01T13:22:32.074Z</time></trkpt><trkpt lat="35.5765423" lon="8.6692435"><ele>947.6666666666666</ele><time>2026-05-01T13:22:34.074Z</time></trkpt><trkpt lat="35.5766463" lon="8.6691947"><ele>946.3333333333333</ele><time>2026-05-01T13:22:36.082Z</time></trkpt><trkpt lat="35.5767618" lon="8.6691464"><ele>945.0</ele><time>2026-05-01T13:22:38.077Z</time></trkpt><trkpt lat="35.5768251" lon="8.6691201"><ele>943.6666666666667</ele><time>2026-05-01T13:22:39.076Z</time></trkpt><trkpt lat="35.5768876" lon="8.6690884"><ele>942.3333333333334</ele><time>2026-05-01T13:22:40.087Z</time></trkpt><trkpt lat="35.5769527" lon="8.669059"><ele>941.0</ele><time>2026-05-01T13:22:41.076Z</time></trkpt><trkpt lat="35.5770168" lon="8.66903"><ele>939.9999999999999</ele><time>2026-05-01T13:22:42.063Z</time></trkpt><trkpt lat="35.577085" lon="8.6690018"><ele>939.0</ele><time>2026-05-01T13:22:43.069Z</time></trkpt><trkpt lat="35.5771532" lon="8.6689762"><ele>937.9999999999999</ele><time>2026-05-01T13:22:44.082Z</time></trkpt><trkpt lat="35.5772242" lon="8.6689482"><ele>936.9999999999999</ele><time>2026-05-01T13:22:45.075Z</time></trkpt><trkpt lat="35.5772937" lon="8.6689189"><ele>936.0</ele><time>2026-05-01T13:22:46.081Z</time></trkpt><trkpt lat="35.5773581" lon="8.6688927"><ele>934.9999999999999</ele><time>2026-05-01T13:22:47.077Z</time></trkpt><trkpt lat="35.5774289" lon="8.6688677"><ele>933.9999999999999</ele><time>2026-05-01T13:22:48.088Z</time></trkpt><trkpt lat="35.5775461" lon="8.6688402"><ele>933.9999999999999</ele><time>2026-05-01T13:22:50.078Z</time></trkpt><trkpt lat="35.5776114" lon="8.6688302"><ele>934.0</ele><time>2026-05-01T13:22:51.071Z</time></trkpt><trkpt lat="35.5776753" lon="8.6688304"><ele>933.9999999999999</ele><time>2026-05-01T13:22:52.058Z</time></trkpt><trkpt lat="35.5777422" lon="8.6688418"><ele>933.9999999999999</ele><time>2026-05-01T13:22:53.075Z</time></trkpt><trkpt lat="35.5778148" lon="8.6688701"><ele>934.0</ele><time>2026-05-01T13:22:54.069Z</time></trkpt><trkpt lat="35.5778911" lon="8.6688932"><ele>933.9999999999999</ele><time>2026-05-01T13:22:55.079Z</time></trkpt><trkpt lat="35.5779624" lon="8.6689148"><ele>933.9999999999999</ele><time>2026-05-01T13:22:56.074Z</time></trkpt><trkpt lat="35.578037" lon="8.6689404"><ele>933.1666666666666</ele><time>2026-05-01T13:22:57.076Z</time></trkpt><trkpt lat="35.5781067" lon="8.6689663"><ele>932.3333333333333</ele><time>2026-05-01T13:22:58.075Z</time></trkpt><trkpt lat="35.5781829" lon="8.6689947"><ele>931.5</ele><time>2026-05-01T13:22:59.077Z</time></trkpt><trkpt lat="35.5782561" lon="8.6690244"><ele>930.6666666666667</ele><time>2026-05-01T13:23:00.064Z</time></trkpt><trkpt lat="35.5783295" lon="8.6690603"><ele>929.8333333333334</ele><time>2026-05-01T13:23:01.076Z</time></trkpt><trkpt lat="35.5784048" lon="8.6691005"><ele>929.0</ele><time>2026-05-01T13:23:02.061Z</time></trkpt><trkpt lat="35.5784837" lon="8.6691453"><ele>929.0000000000001</ele><time>2026-05-01T13:23:03.071Z</time></trkpt><trkpt lat="35.5785438" lon="8.6692047"><ele>929.0</ele><time>2026-05-01T13:23:04.075Z</time></trkpt><trkpt lat="35.5785951" lon="8.6692864"><ele>929.0</ele><time>2026-05-01T13:23:05.072Z</time></trkpt><trkpt lat="35.5786388" lon="8.6693693"><ele>929.0</ele><time>2026-05-01T13:23:06.071Z</time></trkpt><trkpt lat="35.5786859" lon="8.6694642"><ele>929.0000000000001</ele><time>2026-05-01T13:23:07.091Z</time></trkpt><trkpt lat="35.5787334" lon="8.6695648"><ele>929.0</ele><time>2026-05-01T13:23:08.069Z</time></trkpt><trkpt lat="35.5787788" lon="8.6696635"><ele>927.1666666666667</ele><time>2026-05-01T13:23:09.08Z</time></trkpt><trkpt lat="35.5788245" lon="8.6697604"><ele>925.3333333333334</ele><time>2026-05-01T13:23:10.084Z</time></trkpt><trkpt lat="35.5788663" lon="8.6698594"><ele>923.5</ele><time>2026-05-01T13:23:11.065Z</time></trkpt><trkpt lat="35.5789083" lon="8.6699521"><ele>921.6666666666667</ele><time>2026-05-01T13:23:12.066Z</time></trkpt><trkpt lat="35.5789571" lon="8.6700378"><ele>919.8333333333334</ele><time>2026-05-01T13:23:13.075Z</time></trkpt><trkpt lat="35.5790073" lon="8.6701202"><ele>918.0</ele><time>2026-05-01T13:23:14.069Z</time></trkpt><trkpt lat="35.5790614" lon="8.6702032"><ele>918.5999999999999</ele><time>2026-05-01T13:23:15.074Z</time></trkpt><trkpt lat="35.5791289" lon="8.670277"><ele>919.1999999999999</ele><time>2026-05-01T13:23:16.075Z</time></trkpt><trkpt lat="35.5792028" lon="8.670337"><ele>919.8</ele><time>2026-05-01T13:23:17.075Z</time></trkpt><trkpt lat="35.5792871" lon="8.6703848"><ele>920.4</ele><time>2026-05-01T13:23:18.082Z</time></trkpt><trkpt lat="35.5793857" lon="8.6704323"><ele>921.0</ele><time>2026-05-01T13:23:19.077Z</time></trkpt><trkpt lat="35.5794838" lon="8.6704618"><ele>920.4</ele><time>2026-05-01T13:23:20.065Z</time></trkpt><trkpt lat="35.5795828" lon="8.6704887"><ele>919.8</ele><time>2026-05-01T13:23:21.081Z</time></trkpt><trkpt lat="35.5796795" lon="8.6705156"><ele>919.1999999999999</ele><time>2026-05-01T13:23:22.07Z</time></trkpt><trkpt lat="35.5797799" lon="8.6705369"><ele>918.5999999999999</ele><time>2026-05-01T13:23:23.074Z</time></trkpt><trkpt lat="35.5798794" lon="8.6705586"><ele>918.0</ele><time>2026-05-01T13:23:24.073Z</time></trkpt><trkpt lat="35.5799853" lon="8.6705778"><ele>918.0</ele><time>2026-05-01T13:23:25.07Z</time></trkpt><trkpt lat="35.5800899" lon="8.6705932"><ele>918.0</ele><time>2026-05-01T13:23:26.081Z</time></trkpt><trkpt lat="35.5801925" lon="8.6706092"><ele>918.0</ele><time>2026-05-01T13:23:27.068Z</time></trkpt><trkpt lat="35.5802934" lon="8.67062"><ele>918.0</ele><time>2026-05-01T13:23:28.079Z</time></trkpt><trkpt lat="35.5803992" lon="8.6706236"><ele>918.0</ele><time>2026-05-01T13:23:29.073Z</time></trkpt><trkpt lat="35.5805048" lon="8.6706125"><ele>916.4</ele><time>2026-05-01T13:23:30.08Z</time></trkpt><trkpt lat="35.58061" lon="8.6705946"><ele>914.8</ele><time>2026-05-01T13:23:31.077Z</time></trkpt><trkpt lat="35.5807158" lon="8.6705625"><ele>913.2</ele><time>2026-05-01T13:23:32.065Z</time></trkpt><trkpt lat="35.5808191" lon="8.670539"><ele>911.6</ele><time>2026-05-01T13:23:33.075Z</time></trkpt><trkpt lat="35.5809242" lon="8.6705189"><ele>910.0</ele><time>2026-05-01T13:23:34.074Z</time></trkpt><trkpt lat="35.581031" lon="8.6704931"><ele>910.0</ele><time>2026-05-01T13:23:35.074Z</time></trkpt><trkpt lat="35.5811365" lon="8.6704672"><ele>910.0</ele><time>2026-05-01T13:23:36.077Z</time></trkpt><trkpt lat="35.5812404" lon="8.6704343"><ele>910.0</ele><time>2026-05-01T13:23:37.078Z</time></trkpt><trkpt lat="35.581348" lon="8.6703904"><ele>910.0</ele><time>2026-05-01T13:23:38.077Z</time></trkpt><trkpt lat="35.5814515" lon="8.6703477"><ele>910.0</ele><time>2026-05-01T13:23:39.08Z</time></trkpt><trkpt lat="35.5815542" lon="8.6703004"><ele>909.0</ele><time>2026-05-01T13:23:40.068Z</time></trkpt><trkpt lat="35.5816566" lon="8.6702585"><ele>908.0</ele><time>2026-05-01T13:23:41.074Z</time></trkpt><trkpt lat="35.5817604" lon="8.6702069"><ele>907.0</ele><time>2026-05-01T13:23:42.094Z</time></trkpt><trkpt lat="35.5818593" lon="8.6701525"><ele>906.0</ele><time>2026-05-01T13:23:43.08Z</time></trkpt><trkpt lat="35.5819553" lon="8.6700937"><ele>905.0</ele><time>2026-05-01T13:23:44.075Z</time></trkpt><trkpt lat="35.5820463" lon="8.670036"><ele>903.4</ele><time>2026-05-01T13:23:45.061Z</time></trkpt><trkpt lat="35.5821344" lon="8.6699787"><ele>901.8</ele><time>2026-05-01T13:23:46.07Z</time></trkpt><trkpt lat="35.5822267" lon="8.6699222"><ele>900.2</ele><time>2026-05-01T13:23:47.082Z</time></trkpt><trkpt lat="35.5823219" lon="8.6698663"><ele>898.6</ele><time>2026-05-01T13:23:48.082Z</time></trkpt><trkpt lat="35.5824171" lon="8.6698034"><ele>897.0</ele><time>2026-05-01T13:23:49.068Z</time></trkpt><trkpt lat="35.582507" lon="8.6697449"><ele>897.0</ele><time>2026-05-01T13:23:50.066Z</time></trkpt><trkpt lat="35.5825994" lon="8.6696864"><ele>897.0</ele><time>2026-05-01T13:23:51.077Z</time></trkpt><trkpt lat="35.5826969" lon="8.6696267"><ele>897.0</ele><time>2026-05-01T13:23:52.08Z</time></trkpt><trkpt lat="35.5827974" lon="8.6695706"><ele>897.0</ele><time>2026-05-01T13:23:53.08Z</time></trkpt><trkpt lat="35.5829101" lon="8.6695128"><ele>897.0</ele><time>2026-05-01T13:23:54.067Z</time></trkpt><trkpt lat="35.5830257" lon="8.669453"><ele>895.75</ele><time>2026-05-01T13:23:55.076Z</time></trkpt><trkpt lat="35.5831454" lon="8.6694056"><ele>894.5</ele><time>2026-05-01T13:23:56.071Z</time></trkpt><trkpt lat="35.5832648" lon="8.6693501"><ele>893.25</ele><time>2026-05-01T13:23:57.072Z</time></trkpt><trkpt lat="35.5833849" lon="8.6693057"><ele>892.0</ele><time>2026-05-01T13:23:58.079Z</time></trkpt><trkpt lat="35.5835073" lon="8.6692701"><ele>892.0</ele><time>2026-05-01T13:23:59.082Z</time></trkpt><trkpt lat="35.5836326" lon="8.6692342"><ele>892.0</ele><time>2026-05-01T13:24:00.068Z</time></trkpt><trkpt lat="35.5837577" lon="8.6691981"><ele>892.0</ele><time>2026-05-01T13:24:01.067Z</time></trkpt><trkpt lat="35.5838755" lon="8.669172"><ele>892.0</ele><time>2026-05-01T13:24:02.08Z</time></trkpt><trkpt lat="35.5839917" lon="8.6691487"><ele>890.5</ele><time>2026-05-01T13:24:03.072Z</time></trkpt><trkpt lat="35.5841119" lon="8.6691252"><ele>889.0</ele><time>2026-05-01T13:24:04.069Z</time></trkpt><trkpt lat="35.5842267" lon="8.669104"><ele>887.5</ele><time>2026-05-01T13:24:05.075Z</time></trkpt><trkpt lat="35.5843382" lon="8.6690877"><ele>886.0</ele><time>2026-05-01T13:24:06.085Z</time></trkpt><trkpt lat="35.5844522" lon="8.6690761"><ele>884.8</ele><time>2026-05-01T13:24:07.074Z</time></trkpt><trkpt lat="35.584565" lon="8.6690659"><ele>883.5999999999999</ele><time>2026-05-01T13:24:08.075Z</time></trkpt><trkpt lat="35.584677" lon="8.669062"><ele>882.4</ele><time>2026-05-01T13:24:09.087Z</time></trkpt><trkpt lat="35.5847864" lon="8.6690602"><ele>881.2</ele><time>2026-05-01T13:24:10.081Z</time></trkpt><trkpt lat="35.5848916" lon="8.6690559"><ele>880.0</ele><time>2026-05-01T13:24:11.076Z</time></trkpt><trkpt lat="35.5849963" lon="8.6690548"><ele>880.0</ele><time>2026-05-01T13:24:12.079Z</time></trkpt><trkpt lat="35.5851021" lon="8.6690449"><ele>880.0</ele><time>2026-05-01T13:24:13.083Z</time></trkpt><trkpt lat="35.5852037" lon="8.6690379"><ele>880.0</ele><time>2026-05-01T13:24:14.064Z</time></trkpt><trkpt lat="35.5853011" lon="8.6690304"><ele>880.0</ele><time>2026-05-01T13:24:15.067Z</time></trkpt><trkpt lat="35.5853974" lon="8.6690285"><ele>880.0</ele><time>2026-05-01T13:24:16.077Z</time></trkpt><trkpt lat="35.5854939" lon="8.6690198"><ele>879.0</ele><time>2026-05-01T13:24:17.09Z</time></trkpt><trkpt lat="35.5855932" lon="8.6690125"><ele>878.0</ele><time>2026-05-01T13:24:18.077Z</time></trkpt><trkpt lat="35.5856959" lon="8.6690036"><ele>877.0</ele><time>2026-05-01T13:24:19.07Z</time></trkpt><trkpt lat="35.5857987" lon="8.6690009"><ele>876.0</ele><time>2026-05-01T13:24:20.073Z</time></trkpt><trkpt lat="35.5859045" lon="8.6689934"><ele>875.0</ele><time>2026-05-01T13:24:21.079Z</time></trkpt><trkpt lat="35.5860123" lon="8.6689867"><ele>875.0</ele><time>2026-05-01T13:24:22.087Z</time></trkpt><trkpt lat="35.5861181" lon="8.6689789"><ele>875.0</ele><time>2026-05-01T13:24:23.088Z</time></trkpt><trkpt lat="35.5862191" lon="8.6689737"><ele>875.0</ele><time>2026-05-01T13:24:24.077Z</time></trkpt><trkpt lat="35.5863223" lon="8.6689618"><ele>875.0</ele><time>2026-05-01T13:24:25.073Z</time></trkpt><trkpt lat="35.5864208" lon="8.6689515"><ele>875.0</ele><time>2026-05-01T13:24:26.065Z</time></trkpt><trkpt lat="35.5865179" lon="8.6689504"><ele>874.6666666666667</ele><time>2026-05-01T13:24:27.077Z</time></trkpt><trkpt lat="35.5866121" lon="8.6689354"><ele>874.3333333333334</ele><time>2026-05-01T13:24:28.085Z</time></trkpt><trkpt lat="35.5867017" lon="8.6689223"><ele>874.0</ele><time>2026-05-01T13:24:29.065Z</time></trkpt><trkpt lat="35.5867832" lon="8.66891"><ele>873.6666666666667</ele><time>2026-05-01T13:24:30.092Z</time></trkpt><trkpt lat="35.5868653" lon="8.6688924"><ele>873.3333333333334</ele><time>2026-05-01T13:24:31.067Z</time></trkpt><trkpt lat="35.586954" lon="8.6688713"><ele>873.0</ele><time>2026-05-01T13:24:32.071Z</time></trkpt><trkpt lat="35.587048" lon="8.6688486"><ele>872.4</ele><time>2026-05-01T13:24:33.088Z</time></trkpt><trkpt lat="35.5871496" lon="8.6688189"><ele>871.8</ele><time>2026-05-01T13:24:34.101Z</time></trkpt><trkpt lat="35.5872547" lon="8.6687893"><ele>871.2</ele><time>2026-05-01T13:24:35.085Z</time></trkpt><trkpt lat="35.5873564" lon="8.6687532"><ele>870.6</ele><time>2026-05-01T13:24:36.103Z</time></trkpt><trkpt lat="35.5874598" lon="8.668717"><ele>870.0</ele><time>2026-05-01T13:24:37.071Z</time></trkpt><trkpt lat="35.5875669" lon="8.6686807"><ele>870.0</ele><time>2026-05-01T13:24:38.093Z</time></trkpt><trkpt lat="35.5876762" lon="8.6686511"><ele>870.0</ele><time>2026-05-01T13:24:39.073Z</time></trkpt><trkpt lat="35.5877815" lon="8.6686092"><ele>870.0</ele><time>2026-05-01T13:24:40.096Z</time></trkpt><trkpt lat="35.5878904" lon="8.6685733"><ele>870.0</ele><time>2026-05-01T13:24:41.077Z</time></trkpt><trkpt lat="35.5879971" lon="8.66853"><ele>870.0</ele><time>2026-05-01T13:24:42.097Z</time></trkpt><trkpt lat="35.588103" lon="8.6684902"><ele>868.0</ele><time>2026-05-01T13:24:43.067Z</time></trkpt><trkpt lat="35.5882086" lon="8.6684568"><ele>866.0</ele><time>2026-05-01T13:24:44.059Z</time></trkpt><trkpt lat="35.588314" lon="8.6684193"><ele>864.0</ele><time>2026-05-01T13:24:45.058Z</time></trkpt><trkpt lat="35.5884149" lon="8.6683828"><ele>862.0</ele><time>2026-05-01T13:24:46.07Z</time></trkpt><trkpt lat="35.5885173" lon="8.6683453"><ele>860.0</ele><time>2026-05-01T13:24:47.074Z</time></trkpt><trkpt lat="35.5886187" lon="8.668305"><ele>859.6</ele><time>2026-05-01T13:24:48.09Z</time></trkpt><trkpt lat="35.5887182" lon="8.6682688"><ele>859.2</ele><time>2026-05-01T13:24:49.068Z</time></trkpt><trkpt lat="35.5888228" lon="8.6682309"><ele>858.8</ele><time>2026-05-01T13:24:50.089Z</time></trkpt><trkpt lat="35.5889256" lon="8.6681843"><ele>858.4</ele><time>2026-05-01T13:24:51.068Z</time></trkpt><trkpt lat="35.5890274" lon="8.6681383"><ele>858.0</ele><time>2026-05-01T13:24:52.085Z</time></trkpt><trkpt lat="35.5891323" lon="8.6680911"><ele>858.0</ele><time>2026-05-01T13:24:53.084Z</time></trkpt><trkpt lat="35.5892338" lon="8.6680406"><ele>858.0</ele><time>2026-05-01T13:24:54.093Z</time></trkpt><trkpt lat="35.5893359" lon="8.6679845"><ele>858.0</ele><time>2026-05-01T13:24:55.082Z</time></trkpt><trkpt lat="35.589441" lon="8.6679248"><ele>858.0</ele><time>2026-05-01T13:24:56.068Z</time></trkpt><trkpt lat="35.5895428" lon="8.667867"><ele>858.0</ele><time>2026-05-01T13:24:57.079Z</time></trkpt><trkpt lat="35.5896415" lon="8.6677992"><ele>856.5999999999999</ele><time>2026-05-01T13:24:58.08Z</time></trkpt><trkpt lat="35.5897373" lon="8.6677267"><ele>855.1999999999999</ele><time>2026-05-01T13:24:59.074Z</time></trkpt><trkpt lat="35.5898266" lon="8.6676579"><ele>853.8</ele><time>2026-05-01T13:25:00.08Z</time></trkpt><trkpt lat="35.5899166" lon="8.6675956"><ele>852.4</ele><time>2026-05-01T13:25:01.074Z</time></trkpt><trkpt lat="35.5900025" lon="8.6675316"><ele>851.0</ele><time>2026-05-01T13:25:02.089Z</time></trkpt><trkpt lat="35.5900904" lon="8.6674663"><ele>851.0</ele><time>2026-05-01T13:25:03.086Z</time></trkpt><trkpt lat="35.5901791" lon="8.6673932"><ele>851.0</ele><time>2026-05-01T13:25:04.091Z</time></trkpt><trkpt lat="35.5902691" lon="8.6673133"><ele>851.0</ele><time>2026-05-01T13:25:05.075Z</time></trkpt><trkpt lat="35.5903577" lon="8.6672385"><ele>851.0</ele><time>2026-05-01T13:25:06.079Z</time></trkpt><trkpt lat="35.5904392" lon="8.6671647"><ele>851.0</ele><time>2026-05-01T13:25:07.099Z</time></trkpt><trkpt lat="35.5905203" lon="8.6670769"><ele>850.5999999999999</ele><time>2026-05-01T13:25:08.096Z</time></trkpt><trkpt lat="35.5905981" lon="8.6669765"><ele>850.2</ele><time>2026-05-01T13:25:09.086Z</time></trkpt><trkpt lat="35.5906652" lon="8.6668668"><ele>849.8</ele><time>2026-05-01T13:25:10.067Z</time></trkpt><trkpt lat="35.5907349" lon="8.6667596"><ele>849.4000000000001</ele><time>2026-05-01T13:25:11.099Z</time></trkpt><trkpt lat="35.5908043" lon="8.666654"><ele>849.0</ele><time>2026-05-01T13:25:12.107Z</time></trkpt><trkpt lat="35.5908707" lon="8.6665455"><ele>848.2</ele><time>2026-05-01T13:25:13.085Z</time></trkpt><trkpt lat="35.5909411" lon="8.6664367"><ele>847.4000000000001</ele><time>2026-05-01T13:25:14.077Z</time></trkpt><trkpt lat="35.59101" lon="8.6663277"><ele>846.6</ele><time>2026-05-01T13:25:15.079Z</time></trkpt><trkpt lat="35.5910815" lon="8.6662131"><ele>845.8</ele><time>2026-05-01T13:25:16.087Z</time></trkpt><trkpt lat="35.5911419" lon="8.666107"><ele>845.0</ele><time>2026-05-01T13:25:17.074Z</time></trkpt><trkpt lat="35.5912064" lon="8.6660018"><ele>843.0</ele><time>2026-05-01T13:25:18.078Z</time></trkpt><trkpt lat="35.5912706" lon="8.6658983"><ele>841.0</ele><time>2026-05-01T13:25:19.075Z</time></trkpt><trkpt lat="35.5913353" lon="8.6657954"><ele>839.0</ele><time>2026-05-01T13:25:20.075Z</time></trkpt><trkpt lat="35.5913918" lon="8.6657007"><ele>837.0</ele><time>2026-05-01T13:25:21.088Z</time></trkpt><trkpt lat="35.5914369" lon="8.6656229"><ele>835.0</ele><time>2026-05-01T13:25:22.078Z</time></trkpt><trkpt lat="35.5914776" lon="8.665557"><ele>834.9999999999999</ele><time>2026-05-01T13:25:23.076Z</time></trkpt><trkpt lat="35.5915463" lon="8.6654539"><ele>835.0</ele><time>2026-05-01T13:25:25.065Z</time></trkpt><trkpt lat="35.591592" lon="8.6653827"><ele>835.0</ele><time>2026-05-01T13:25:27.067Z</time></trkpt><trkpt lat="35.5916439" lon="8.665317"><ele>835.0</ele><time>2026-05-01T13:25:36.071Z</time></trkpt><trkpt lat="35.5916936" lon="8.6652666"><ele>834.9999999999999</ele><time>2026-05-01T13:30:01.104Z</time></trkpt><trkpt lat="35.5917384" lon="8.6651669"><ele>835.0</ele><time>2026-05-01T13:30:03.104Z</time></trkpt><trkpt lat="35.5917915" lon="8.6650054"><ele>835.0</ele><time>2026-05-01T13:30:05.114Z</time></trkpt><trkpt lat="35.5918439" lon="8.6649151"><ele>835.0</ele><time>2026-05-01T13:30:06.133Z</time></trkpt><trkpt lat="35.5919024" lon="8.6648199"><ele>835.0</ele><time>2026-05-01T13:30:07.067Z</time></trkpt><trkpt lat="35.5919667" lon="8.6647149"><ele>835.0</ele><time>2026-05-01T13:30:08.097Z</time></trkpt><trkpt lat="35.5920279" lon="8.6646015"><ele>835.0</ele><time>2026-05-01T13:30:09.073Z</time></trkpt><trkpt lat="35.5920896" lon="8.6644977"><ele>835.0</ele><time>2026-05-01T13:30:10.067Z</time></trkpt><trkpt lat="35.5921494" lon="8.664392"><ele>835.0</ele><time>2026-05-01T13:30:11.11Z</time></trkpt><trkpt lat="35.592208" lon="8.6642827"><ele>835.0</ele><time>2026-05-01T13:30:12.108Z</time></trkpt><trkpt lat="35.5922733" lon="8.6641659"><ele>835.0</ele><time>2026-05-01T13:30:13.101Z</time></trkpt><trkpt lat="35.5923383" lon="8.6640538"><ele>835.0</ele><time>2026-05-01T13:30:14.081Z</time></trkpt><trkpt lat="35.5924014" lon="8.6639437"><ele>835.0</ele><time>2026-05-01T13:30:15.062Z</time></trkpt><trkpt lat="35.5924691" lon="8.6638304"><ele>835.0</ele><time>2026-05-01T13:30:16.063Z</time></trkpt><trkpt lat="35.5925395" lon="8.6637138"><ele>835.0</ele><time>2026-05-01T13:30:17.118Z</time></trkpt><trkpt lat="35.5926067" lon="8.6635876"><ele>835.0</ele><time>2026-05-01T13:30:18.07Z</time></trkpt><trkpt lat="35.5926726" lon="8.6634626"><ele>835.5</ele><time>2026-05-01T13:30:19.082Z</time></trkpt><trkpt lat="35.5927414" lon="8.6633325"><ele>836.0</ele><time>2026-05-01T13:30:20.107Z</time></trkpt><trkpt lat="35.5928104" lon="8.6632008"><ele>836.5</ele><time>2026-05-01T13:30:21.115Z</time></trkpt><trkpt lat="35.5928872" lon="8.6630638"><ele>837.0</ele><time>2026-05-01T13:30:22.085Z</time></trkpt><trkpt lat="35.5929636" lon="8.6629253"><ele>835.0</ele><time>2026-05-01T13:30:23.093Z</time></trkpt><trkpt lat="35.5933855" lon="8.6621459"><ele>835.0</ele><time>2026-05-01T13:30:29.07Z</time></trkpt><trkpt lat="35.5934458" lon="8.6620331"><ele>835.0</ele><time>2026-05-01T13:30:30.06Z</time></trkpt><trkpt lat="35.5934977" lon="8.6619234"><ele>835.0</ele><time>2026-05-01T13:30:31.07Z</time></trkpt><trkpt lat="35.5935506" lon="8.6618229"><ele>835.0</ele><time>2026-05-01T13:30:32.105Z</time></trkpt><trkpt lat="35.5936046" lon="8.661724"><ele>835.0</ele><time>2026-05-01T13:30:33.058Z</time></trkpt><trkpt lat="35.5936575" lon="8.6616359"><ele>834.6</ele><time>2026-05-01T13:30:34.062Z</time></trkpt><trkpt lat="35.5937052" lon="8.6615554"><ele>834.2</ele><time>2026-05-01T13:30:35.077Z</time></trkpt><trkpt lat="35.5937496" lon="8.6614782"><ele>833.8</ele><time>2026-05-01T13:30:36.061Z</time></trkpt><trkpt lat="35.5938047" lon="8.661387"><ele>833.4</ele><time>2026-05-01T13:30:37.064Z</time></trkpt><trkpt lat="35.5938675" lon="8.6612852"><ele>833.0</ele><time>2026-05-01T13:30:38.075Z</time></trkpt><trkpt lat="35.5939309" lon="8.6611754"><ele>832.75</ele><time>2026-05-01T13:30:39.089Z</time></trkpt><trkpt lat="35.5939936" lon="8.6610631"><ele>832.5</ele><time>2026-05-01T13:30:40.084Z</time></trkpt><trkpt lat="35.5940557" lon="8.6609456"><ele>832.25</ele><time>2026-05-01T13:30:41.077Z</time></trkpt><trkpt lat="35.5941207" lon="8.6608285"><ele>832.0</ele><time>2026-05-01T13:30:42.06Z</time></trkpt><trkpt lat="35.594186" lon="8.660703"><ele>832.0</ele><time>2026-05-01T13:30:43.065Z</time></trkpt><trkpt lat="35.5942534" lon="8.6605806"><ele>832.0</ele><time>2026-05-01T13:30:44.074Z</time></trkpt><trkpt lat="35.5943223" lon="8.6604524"><ele>832.0</ele><time>2026-05-01T13:30:45.067Z</time></trkpt><trkpt lat="35.5943934" lon="8.6603183"><ele>832.0</ele><time>2026-05-01T13:30:46.078Z</time></trkpt><trkpt lat="35.5944647" lon="8.6601889"><ele>831.4000000000001</ele><time>2026-05-01T13:30:47.075Z</time></trkpt><trkpt lat="35.5945351" lon="8.6600625"><ele>830.8000000000001</ele><time>2026-05-01T13:30:48.086Z</time></trkpt><trkpt lat="35.5945966" lon="8.6599513"><ele>830.2</ele><time>2026-05-01T13:30:49.082Z</time></trkpt><trkpt lat="35.594659" lon="8.6598411"><ele>829.6</ele><time>2026-05-01T13:30:50.062Z</time></trkpt><trkpt lat="35.5947225" lon="8.6597377"><ele>829.0</ele><time>2026-05-01T13:30:51.078Z</time></trkpt><trkpt lat="35.5947739" lon="8.6596485"><ele>829.0</ele><time>2026-05-01T13:30:52.079Z</time></trkpt><trkpt lat="35.5948187" lon="8.6595633"><ele>829.0</ele><time>2026-05-01T13:30:53.078Z</time></trkpt><trkpt lat="35.5948654" lon="8.6594867"><ele>829.0</ele><time>2026-05-01T13:30:54.079Z</time></trkpt><trkpt lat="35.5949192" lon="8.659396"><ele>829.0</ele><time>2026-05-01T13:30:55.098Z</time></trkpt><trkpt lat="35.5949743" lon="8.6592921"><ele>829.0</ele><time>2026-05-01T13:30:56.093Z</time></trkpt><trkpt lat="35.5950368" lon="8.6591858"><ele>828.25</ele><time>2026-05-01T13:30:57.069Z</time></trkpt><trkpt lat="35.5951126" lon="8.6590693"><ele>827.5</ele><time>2026-05-01T13:30:58.072Z</time></trkpt><trkpt lat="35.5951926" lon="8.6589502"><ele>826.75</ele><time>2026-05-01T13:30:59.078Z</time></trkpt><trkpt lat="35.5952722" lon="8.6588289"><ele>826.0</ele><time>2026-05-01T13:31:00.077Z</time></trkpt><trkpt lat="35.5953539" lon="8.6586972"><ele>825.0</ele><time>2026-05-01T13:31:01.081Z</time></trkpt><trkpt lat="35.5954417" lon="8.6585635"><ele>824.0</ele><time>2026-05-01T13:31:02.08Z</time></trkpt><trkpt lat="35.5955359" lon="8.6584188"><ele>823.0</ele><time>2026-05-01T13:31:03.09Z</time></trkpt><trkpt lat="35.5956243" lon="8.6582847"><ele>822.0</ele><time>2026-05-01T13:31:04.086Z</time></trkpt><trkpt lat="35.5957027" lon="8.6581616"><ele>822.0</ele><time>2026-05-01T13:31:05.09Z</time></trkpt><trkpt lat="35.5957761" lon="8.6580605"><ele>822.0</ele><time>2026-05-01T13:31:06.071Z</time></trkpt><trkpt lat="35.5958412" lon="8.657962"><ele>822.0</ele><time>2026-05-01T13:31:07.078Z</time></trkpt><trkpt lat="35.595905" lon="8.6578714"><ele>822.0</ele><time>2026-05-01T13:31:08.074Z</time></trkpt><trkpt lat="35.5959677" lon="8.6577868"><ele>822.0</ele><time>2026-05-01T13:31:09.075Z</time></trkpt><trkpt lat="35.5960334" lon="8.6576905"><ele>820.75</ele><time>2026-05-01T13:31:10.071Z</time></trkpt><trkpt lat="35.5961114" lon="8.6575879"><ele>819.5</ele><time>2026-05-01T13:31:11.077Z</time></trkpt><trkpt lat="35.5961907" lon="8.6574683"><ele>818.25</ele><time>2026-05-01T13:31:12.087Z</time></trkpt><trkpt lat="35.596274" lon="8.6573489"><ele>817.0</ele><time>2026-05-01T13:31:13.061Z</time></trkpt><trkpt lat="35.5963641" lon="8.6572141"><ele>815.5</ele><time>2026-05-01T13:31:14.081Z</time></trkpt><trkpt lat="35.5964564" lon="8.6570868"><ele>814.0</ele><time>2026-05-01T13:31:15.08Z</time></trkpt><trkpt lat="35.596551" lon="8.6569549"><ele>812.5</ele><time>2026-05-01T13:31:16.079Z</time></trkpt><trkpt lat="35.5966484" lon="8.6568236"><ele>811.0</ele><time>2026-05-01T13:31:17.09Z</time></trkpt><trkpt lat="35.5967442" lon="8.6566903"><ele>811.0</ele><time>2026-05-01T13:31:18.073Z</time></trkpt><trkpt lat="35.5968413" lon="8.6565558"><ele>811.0</ele><time>2026-05-01T13:31:19.067Z</time></trkpt><trkpt lat="35.596941" lon="8.6564285"><ele>811.0</ele><time>2026-05-01T13:31:20.072Z</time></trkpt><trkpt lat="35.5970377" lon="8.6562984"><ele>811.0</ele><time>2026-05-01T13:31:21.084Z</time></trkpt><trkpt lat="35.5971348" lon="8.6561636"><ele>809.75</ele><time>2026-05-01T13:31:22.082Z</time></trkpt><trkpt lat="35.5972226" lon="8.6560187"><ele>808.5</ele><time>2026-05-01T13:31:23.075Z</time></trkpt><trkpt lat="35.597309" lon="8.6558734"><ele>807.25</ele><time>2026-05-01T13:31:24.083Z</time></trkpt><trkpt lat="35.5973917" lon="8.6557304"><ele>806.0</ele><time>2026-05-01T13:31:25.07Z</time></trkpt><trkpt lat="35.5974751" lon="8.6555768"><ele>806.0</ele><time>2026-05-01T13:31:26.086Z</time></trkpt><trkpt lat="35.5975577" lon="8.655419"><ele>806.0</ele><time>2026-05-01T13:31:27.088Z</time></trkpt><trkpt lat="35.5976366" lon="8.6552582"><ele>806.0</ele><time>2026-05-01T13:31:28.069Z</time></trkpt><trkpt lat="35.5977119" lon="8.6550946"><ele>805.3333333333334</ele><time>2026-05-01T13:31:29.073Z</time></trkpt><trkpt lat="35.5977877" lon="8.6549313"><ele>804.6666666666667</ele><time>2026-05-01T13:31:30.075Z</time></trkpt><trkpt lat="35.5978652" lon="8.6547679"><ele>804.0</ele><time>2026-05-01T13:31:31.085Z</time></trkpt><trkpt lat="35.5979429" lon="8.6546125"><ele>804.25</ele><time>2026-05-01T13:31:32.078Z</time></trkpt><trkpt lat="35.5980212" lon="8.6544578"><ele>804.5</ele><time>2026-05-01T13:31:33.084Z</time></trkpt><trkpt lat="35.598101" lon="8.6543045"><ele>804.75</ele><time>2026-05-01T13:31:34.077Z</time></trkpt><trkpt lat="35.5981874" lon="8.6541489"><ele>805.0</ele><time>2026-05-01T13:31:35.092Z</time></trkpt><trkpt lat="35.598273" lon="8.6539956"><ele>805.0</ele><time>2026-05-01T13:31:36.083Z</time></trkpt><trkpt lat="35.5983588" lon="8.6538381"><ele>805.0</ele><time>2026-05-01T13:31:37.077Z</time></trkpt><trkpt lat="35.5984491" lon="8.6536829"><ele>805.0</ele><time>2026-05-01T13:31:38.072Z</time></trkpt><trkpt lat="35.5985399" lon="8.6535263"><ele>803.3333333333333</ele><time>2026-05-01T13:31:39.076Z</time></trkpt><trkpt lat="35.5986311" lon="8.6533696"><ele>801.6666666666667</ele><time>2026-05-01T13:31:40.068Z</time></trkpt><trkpt lat="35.5987231" lon="8.6532183"><ele>800.0</ele><time>2026-05-01T13:31:41.073Z</time></trkpt><trkpt lat="35.5988152" lon="8.6530695"><ele>800.0</ele><time>2026-05-01T13:31:42.065Z</time></trkpt><trkpt lat="35.5989087" lon="8.6529204"><ele>800.0</ele><time>2026-05-01T13:31:43.082Z</time></trkpt><trkpt lat="35.5990053" lon="8.6527734"><ele>800.0</ele><time>2026-05-01T13:31:44.094Z</time></trkpt><trkpt lat="35.599101" lon="8.6526277"><ele>799.0</ele><time>2026-05-01T13:31:45.082Z</time></trkpt><trkpt lat="35.5992052" lon="8.6524798"><ele>798.0</ele><time>2026-05-01T13:31:46.079Z</time></trkpt><trkpt lat="35.5993108" lon="8.6523376"><ele>797.0</ele><time>2026-05-01T13:31:47.077Z</time></trkpt><trkpt lat="35.599426" lon="8.6521925"><ele>795.3333333333334</ele><time>2026-05-01T13:31:48.088Z</time></trkpt><trkpt lat="35.599551" lon="8.6520475"><ele>793.6666666666667</ele><time>2026-05-01T13:31:49.07Z</time></trkpt><trkpt lat="35.5996748" lon="8.6518941"><ele>792.0</ele><time>2026-05-01T13:31:50.087Z</time></trkpt><trkpt lat="35.5998035" lon="8.6517347"><ele>791.0</ele><time>2026-05-01T13:31:51.074Z</time></trkpt><trkpt lat="35.5999315" lon="8.6515806"><ele>790.0</ele><time>2026-05-01T13:31:52.079Z</time></trkpt><trkpt lat="35.6000614" lon="8.6514256"><ele>789.0</ele><time>2026-05-01T13:31:53.089Z</time></trkpt><trkpt lat="35.6001908" lon="8.6512731"><ele>787.6666666666667</ele><time>2026-05-01T13:31:54.087Z</time></trkpt><trkpt lat="35.6003129" lon="8.6511219"><ele>786.3333333333334</ele><time>2026-05-01T13:31:55.075Z</time></trkpt><trkpt lat="35.6004393" lon="8.6509679"><ele>785.0</ele><time>2026-05-01T13:31:56.082Z</time></trkpt><trkpt lat="35.6005671" lon="8.6508239"><ele>784.3333333333334</ele><time>2026-05-01T13:31:57.095Z</time></trkpt><trkpt lat="35.6006957" lon="8.650679"><ele>783.6666666666667</ele><time>2026-05-01T13:31:58.086Z</time></trkpt><trkpt lat="35.6008226" lon="8.650535"><ele>783.0</ele><time>2026-05-01T13:31:59.077Z</time></trkpt><trkpt lat="35.6009463" lon="8.6503898"><ele>783.0</ele><time>2026-05-01T13:32:00.077Z</time></trkpt><trkpt lat="35.6010636" lon="8.650246"><ele>783.0</ele><time>2026-05-01T13:32:01.084Z</time></trkpt><trkpt lat="35.6011779" lon="8.6500929"><ele>783.0</ele><time>2026-05-01T13:32:02.088Z</time></trkpt><trkpt lat="35.6012858" lon="8.6499258"><ele>782.6666666666667</ele><time>2026-05-01T13:32:03.068Z</time></trkpt><trkpt lat="35.6013885" lon="8.6497588"><ele>782.3333333333334</ele><time>2026-05-01T13:32:04.055Z</time></trkpt><trkpt lat="35.6014863" lon="8.6495888"><ele>782.0</ele><time>2026-05-01T13:32:05.065Z</time></trkpt><trkpt lat="35.6015813" lon="8.6494181"><ele>782.0</ele><time>2026-05-01T13:32:06.086Z</time></trkpt><trkpt lat="35.6016764" lon="8.6492428"><ele>782.0</ele><time>2026-05-01T13:32:07.078Z</time></trkpt><trkpt lat="35.6017723" lon="8.6490707"><ele>782.0</ele><time>2026-05-01T13:32:08.082Z</time></trkpt><trkpt lat="35.6018681" lon="8.6489006"><ele>782.0</ele><time>2026-05-01T13:32:09.08Z</time></trkpt><trkpt lat="35.601959" lon="8.6487328"><ele>782.0</ele><time>2026-05-01T13:32:10.085Z</time></trkpt><trkpt lat="35.602053" lon="8.6485639"><ele>782.0</ele><time>2026-05-01T13:32:11.089Z</time></trkpt><trkpt lat="35.6021515" lon="8.6483961"><ele>781.0</ele><time>2026-05-01T13:32:12.092Z</time></trkpt><trkpt lat="35.6022465" lon="8.6482245"><ele>780.0</ele><time>2026-05-01T13:32:13.073Z</time></trkpt><trkpt lat="35.6023419" lon="8.6480455"><ele>779.0</ele><time>2026-05-01T13:32:14.085Z</time></trkpt><trkpt lat="35.6024414" lon="8.6478641"><ele>778.3333333333334</ele><time>2026-05-01T13:32:15.077Z</time></trkpt><trkpt lat="35.6025443" lon="8.6476901"><ele>777.6666666666667</ele><time>2026-05-01T13:32:16.101Z</time></trkpt><trkpt lat="35.602648" lon="8.647515"><ele>777.0</ele><time>2026-05-01T13:32:17.081Z</time></trkpt><trkpt lat="35.6027528" lon="8.6473414"><ele>776.3333333333333</ele><time>2026-05-01T13:32:18.085Z</time></trkpt><trkpt lat="35.6028562" lon="8.6471677"><ele>775.6666666666666</ele><time>2026-05-01T13:32:19.072Z</time></trkpt><trkpt lat="35.6029578" lon="8.6470027"><ele>775.0</ele><time>2026-05-01T13:32:20.091Z</time></trkpt><trkpt lat="35.6030637" lon="8.6468372"><ele>774.0</ele><time>2026-05-01T13:32:21.075Z</time></trkpt><trkpt lat="35.6031738" lon="8.646681"><ele>773.0</ele><time>2026-05-01T13:32:22.071Z</time></trkpt><trkpt lat="35.6032882" lon="8.6465287"><ele>772.0</ele><time>2026-05-01T13:32:23.065Z</time></trkpt><trkpt lat="35.6034021" lon="8.6463886"><ele>772.0</ele><time>2026-05-01T13:32:24.082Z</time></trkpt><trkpt lat="35.6035165" lon="8.6462613"><ele>772.0</ele><time>2026-05-01T13:32:25.075Z</time></trkpt><trkpt lat="35.6036304" lon="8.6461341"><ele>772.0</ele><time>2026-05-01T13:32:26.099Z</time></trkpt><trkpt lat="35.6037384" lon="8.6460246"><ele>772.0</ele><time>2026-05-01T13:32:27.068Z</time></trkpt><trkpt lat="35.6038396" lon="8.6459247"><ele>770.8</ele><time>2026-05-01T13:32:28.086Z</time></trkpt><trkpt lat="35.6039347" lon="8.6458309"><ele>769.6</ele><time>2026-05-01T13:32:29.079Z</time></trkpt><trkpt lat="35.6040247" lon="8.6457423"><ele>768.4</ele><time>2026-05-01T13:32:30.067Z</time></trkpt><trkpt lat="35.6041121" lon="8.6456624"><ele>767.1999999999999</ele><time>2026-05-01T13:32:31.078Z</time></trkpt><trkpt lat="35.604191" lon="8.6455906"><ele>766.0</ele><time>2026-05-01T13:32:32.082Z</time></trkpt><trkpt lat="35.604268" lon="8.6455265"><ele>766.0</ele><time>2026-05-01T13:32:33.118Z</time></trkpt><trkpt lat="35.604345" lon="8.6454693"><ele>766.0</ele><time>2026-05-01T13:32:34.078Z</time></trkpt><trkpt lat="35.604429" lon="8.6454176"><ele>766.0</ele><time>2026-05-01T13:32:35.08Z</time></trkpt><trkpt lat="35.6045254" lon="8.645374"><ele>766.0</ele><time>2026-05-01T13:32:36.078Z</time></trkpt><trkpt lat="35.6046167" lon="8.6453347"><ele>766.0</ele><time>2026-05-01T13:32:37.078Z</time></trkpt><trkpt lat="35.604691" lon="8.6452871"><ele>765.4</ele><time>2026-05-01T13:32:38.084Z</time></trkpt><trkpt lat="35.6047627" lon="8.6451987"><ele>764.8</ele><time>2026-05-01T13:32:39.089Z</time></trkpt><trkpt lat="35.604822" lon="8.6450983"><ele>764.1999999999999</ele><time>2026-05-01T13:32:40.08Z</time></trkpt><trkpt lat="35.6048785" lon="8.6449897"><ele>763.5999999999999</ele><time>2026-05-01T13:32:41.084Z</time></trkpt><trkpt lat="35.6049451" lon="8.6448815"><ele>763.0</ele><time>2026-05-01T13:32:42.088Z</time></trkpt><trkpt lat="35.6050301" lon="8.6447792"><ele>763.0</ele><time>2026-05-01T13:32:43.1Z</time></trkpt><trkpt lat="35.6051322" lon="8.6446727"><ele>763.0</ele><time>2026-05-01T13:32:44.074Z</time></trkpt><trkpt lat="35.6052419" lon="8.6445609"><ele>763.0</ele><time>2026-05-01T13:32:45.077Z</time></trkpt><trkpt lat="35.6053572" lon="8.6444495"><ele>763.0</ele><time>2026-05-01T13:32:46.074Z</time></trkpt><trkpt lat="35.6054733" lon="8.6443406"><ele>761.6666666666667</ele><time>2026-05-01T13:32:47.082Z</time></trkpt><trkpt lat="35.6055904" lon="8.6442253"><ele>760.3333333333334</ele><time>2026-05-01T13:32:48.073Z</time></trkpt><trkpt lat="35.6057144" lon="8.6441058"><ele>759.0</ele><time>2026-05-01T13:32:49.07Z</time></trkpt><trkpt lat="35.6058422" lon="8.6439842"><ele>759.0</ele><time>2026-05-01T13:32:50.074Z</time></trkpt><trkpt lat="35.6059701" lon="8.643863"><ele>759.0</ele><time>2026-05-01T13:32:51.082Z</time></trkpt><trkpt lat="35.6061018" lon="8.6437378"><ele>759.0</ele><time>2026-05-01T13:32:52.081Z</time></trkpt><trkpt lat="35.6062327" lon="8.6436116"><ele>758.6666666666666</ele><time>2026-05-01T13:32:53.076Z</time></trkpt><trkpt lat="35.6063663" lon="8.6434814"><ele>758.3333333333333</ele><time>2026-05-01T13:32:54.07Z</time></trkpt><trkpt lat="35.6065053" lon="8.6433517"><ele>758.0</ele><time>2026-05-01T13:32:55.091Z</time></trkpt><trkpt lat="35.6066464" lon="8.6432207"><ele>758.0</ele><time>2026-05-01T13:32:56.076Z</time></trkpt><trkpt lat="35.6067898" lon="8.6430808"><ele>758.0</ele><time>2026-05-01T13:32:57.095Z</time></trkpt><trkpt lat="35.6069331" lon="8.6429372"><ele>758.0</ele><time>2026-05-01T13:32:58.083Z</time></trkpt><trkpt lat="35.60708" lon="8.6427975"><ele>756.0</ele><time>2026-05-01T13:32:59.076Z</time></trkpt><trkpt lat="35.6072291" lon="8.6426622"><ele>754.0</ele><time>2026-05-01T13:33:00.062Z</time></trkpt><trkpt lat="35.6073761" lon="8.6425231"><ele>752.0</ele><time>2026-05-01T13:33:01.068Z</time></trkpt><trkpt lat="35.6075263" lon="8.6423743"><ele>752.0</ele><time>2026-05-01T13:33:02.085Z</time></trkpt><trkpt lat="35.6076773" lon="8.6422251"><ele>752.0</ele><time>2026-05-01T13:33:03.091Z</time></trkpt><trkpt lat="35.6078295" lon="8.6420817"><ele>752.0</ele><time>2026-05-01T13:33:04.079Z</time></trkpt><trkpt lat="35.6079834" lon="8.641938"><ele>750.3333333333333</ele><time>2026-05-01T13:33:05.079Z</time></trkpt><trkpt lat="35.608135" lon="8.641793"><ele>748.6666666666666</ele><time>2026-05-01T13:33:06.086Z</time></trkpt><trkpt lat="35.6082864" lon="8.641649"><ele>747.0</ele><time>2026-05-01T13:33:07.086Z</time></trkpt><trkpt lat="35.6084335" lon="8.6415093"><ele>747.0</ele><time>2026-05-01T13:33:08.105Z</time></trkpt><trkpt lat="35.6085805" lon="8.6413657"><ele>747.0</ele><time>2026-05-01T13:33:09.073Z</time></trkpt><trkpt lat="35.6087262" lon="8.6412231"><ele>747.0</ele><time>2026-05-01T13:33:10.081Z</time></trkpt><trkpt lat="35.6088755" lon="8.641083"><ele>746.3333333333334</ele><time>2026-05-01T13:33:11.098Z</time></trkpt><trkpt lat="35.6090182" lon="8.640944"><ele>745.6666666666667</ele><time>2026-05-01T13:33:12.081Z</time></trkpt><trkpt lat="35.6091585" lon="8.6408022"><ele>745.0</ele><time>2026-05-01T13:33:13.076Z</time></trkpt><trkpt lat="35.6093002" lon="8.6406586"><ele>745.0</ele><time>2026-05-01T13:33:14.088Z</time></trkpt><trkpt lat="35.609447" lon="8.6405169"><ele>745.0</ele><time>2026-05-01T13:33:15.095Z</time></trkpt><trkpt lat="35.6095946" lon="8.6403748"><ele>745.0</ele><time>2026-05-01T13:33:16.08Z</time></trkpt><trkpt lat="35.6097428" lon="8.640236"><ele>743.3333333333334</ele><time>2026-05-01T13:33:17.088Z</time></trkpt><trkpt lat="35.6098835" lon="8.6400993"><ele>741.6666666666666</ele><time>2026-05-01T13:33:18.085Z</time></trkpt><trkpt lat="35.61002" lon="8.6399657"><ele>740.0</ele><time>2026-05-01T13:33:19.071Z</time></trkpt><trkpt lat="35.6101562" lon="8.6398337"><ele>740.0</ele><time>2026-05-01T13:33:20.08Z</time></trkpt><trkpt lat="35.6102911" lon="8.6397025"><ele>740.0</ele><time>2026-05-01T13:33:21.089Z</time></trkpt><trkpt lat="35.610427" lon="8.6395716"><ele>740.0</ele><time>2026-05-01T13:33:22.081Z</time></trkpt><trkpt lat="35.6105613" lon="8.6394467"><ele>739.3333333333333</ele><time>2026-05-01T13:33:23.081Z</time></trkpt><trkpt lat="35.6106955" lon="8.6393183"><ele>738.6666666666666</ele><time>2026-05-01T13:33:24.087Z</time></trkpt><trkpt lat="35.6108277" lon="8.6391912"><ele>738.0</ele><time>2026-05-01T13:33:25.097Z</time></trkpt><trkpt lat="35.6109633" lon="8.6390594"><ele>738.0</ele><time>2026-05-01T13:33:26.08Z</time></trkpt><trkpt lat="35.6110978" lon="8.6389321"><ele>738.0</ele><time>2026-05-01T13:33:27.09Z</time></trkpt><trkpt lat="35.6112281" lon="8.6388071"><ele>738.0</ele><time>2026-05-01T13:33:28.085Z</time></trkpt><trkpt lat="35.6113591" lon="8.6386835"><ele>737.0</ele><time>2026-05-01T13:33:29.069Z</time></trkpt><trkpt lat="35.6114894" lon="8.6385599"><ele>736.0</ele><time>2026-05-01T13:33:30.086Z</time></trkpt><trkpt lat="35.6116219" lon="8.6384337"><ele>735.0</ele><time>2026-05-01T13:33:31.089Z</time></trkpt><trkpt lat="35.6117532" lon="8.6383068"><ele>735.0</ele><time>2026-05-01T13:33:32.087Z</time></trkpt><trkpt lat="35.6118827" lon="8.6381782"><ele>735.0</ele><time>2026-05-01T13:33:33.083Z</time></trkpt><trkpt lat="35.6120179" lon="8.6380567"><ele>735.0</ele><time>2026-05-01T13:33:34.076Z</time></trkpt><trkpt lat="35.6121467" lon="8.6379299"><ele>734.3333333333334</ele><time>2026-05-01T13:33:35.067Z</time></trkpt><trkpt lat="35.6122751" lon="8.637805"><ele>733.6666666666667</ele><time>2026-05-01T13:33:36.094Z</time></trkpt><trkpt lat="35.6123996" lon="8.6376743"><ele>733.0</ele><time>2026-05-01T13:33:37.083Z</time></trkpt><trkpt lat="35.6125239" lon="8.6375425"><ele>733.0</ele><time>2026-05-01T13:33:38.084Z</time></trkpt><trkpt lat="35.6126436" lon="8.6374075"><ele>733.0</ele><time>2026-05-01T13:33:39.083Z</time></trkpt><trkpt lat="35.6127623" lon="8.6372626"><ele>733.0</ele><time>2026-05-01T13:33:40.073Z</time></trkpt><trkpt lat="35.6128776" lon="8.6371223"><ele>732.0</ele><time>2026-05-01T13:33:41.085Z</time></trkpt><trkpt lat="35.6129924" lon="8.6369776"><ele>731.0</ele><time>2026-05-01T13:33:42.083Z</time></trkpt><trkpt lat="35.6131098" lon="8.6368316"><ele>730.0</ele><time>2026-05-01T13:33:43.076Z</time></trkpt><trkpt lat="35.6132207" lon="8.6366848"><ele>729.3333333333334</ele><time>2026-05-01T13:33:44.077Z</time></trkpt><trkpt lat="35.6133404" lon="8.6365277"><ele>728.6666666666666</ele><time>2026-05-01T13:33:45.079Z</time></trkpt><trkpt lat="35.6134704" lon="8.6363646"><ele>728.0</ele><time>2026-05-01T13:33:46.09Z</time></trkpt><trkpt lat="35.6136014" lon="8.6362065"><ele>728.0</ele><time>2026-05-01T13:33:47.083Z</time></trkpt><trkpt lat="35.6137348" lon="8.6360343"><ele>728.0</ele><time>2026-05-01T13:33:48.074Z</time></trkpt><trkpt lat="35.6138645" lon="8.6358681"><ele>728.0</ele><time>2026-05-01T13:33:49.084Z</time></trkpt><trkpt lat="35.6139932" lon="8.6357036"><ele>728.0</ele><time>2026-05-01T13:33:50.07Z</time></trkpt><trkpt lat="35.6141216" lon="8.6355375"><ele>728.0</ele><time>2026-05-01T13:33:51.074Z</time></trkpt><trkpt lat="35.614252" lon="8.6353707"><ele>728.0</ele><time>2026-05-01T13:33:52.105Z</time></trkpt><trkpt lat="35.6143766" lon="8.6352117"><ele>728.3333333333333</ele><time>2026-05-01T13:33:53.061Z</time></trkpt><trkpt lat="35.614501" lon="8.6350521"><ele>728.6666666666666</ele><time>2026-05-01T13:33:54.076Z</time></trkpt><trkpt lat="35.6146234" lon="8.6348961"><ele>729.0</ele><time>2026-05-01T13:33:55.09Z</time></trkpt><trkpt lat="35.614744" lon="8.634752"><ele>729.0</ele><time>2026-05-01T13:33:56.079Z</time></trkpt><trkpt lat="35.6148592" lon="8.6346124"><ele>729.0</ele><time>2026-05-01T13:33:57.074Z</time></trkpt><trkpt lat="35.6149776" lon="8.6344736"><ele>729.0</ele><time>2026-05-01T13:33:58.068Z</time></trkpt><trkpt lat="35.6150929" lon="8.6343331"><ele>729.0</ele><time>2026-05-01T13:33:59.076Z</time></trkpt><trkpt lat="35.6152049" lon="8.6341925"><ele>729.0</ele><time>2026-05-01T13:34:00.079Z</time></trkpt><trkpt lat="35.6153212" lon="8.6340438"><ele>729.0</ele><time>2026-05-01T13:34:01.075Z</time></trkpt><trkpt lat="35.6154384" lon="8.6339004"><ele>729.0</ele><time>2026-05-01T13:34:02.089Z</time></trkpt><trkpt lat="35.6155549" lon="8.6337566"><ele>729.0</ele><time>2026-05-01T13:34:03.078Z</time></trkpt><trkpt lat="35.6156704" lon="8.6336143"><ele>729.0</ele><time>2026-05-01T13:34:04.086Z</time></trkpt><trkpt lat="35.6157853" lon="8.6334733"><ele>728.0</ele><time>2026-05-01T13:34:05.083Z</time></trkpt><trkpt lat="35.6159002" lon="8.6333318"><ele>727.0</ele><time>2026-05-01T13:34:06.082Z</time></trkpt><trkpt lat="35.6160138" lon="8.63319"><ele>726.0</ele><time>2026-05-01T13:34:07.078Z</time></trkpt><trkpt lat="35.6161297" lon="8.6330474"><ele>726.6666666666666</ele><time>2026-05-01T13:34:08.093Z</time></trkpt><trkpt lat="35.6162448" lon="8.6329034"><ele>727.3333333333333</ele><time>2026-05-01T13:34:09.072Z</time></trkpt><trkpt lat="35.616363" lon="8.6327616"><ele>728.0</ele><time>2026-05-01T13:34:10.087Z</time></trkpt><trkpt lat="35.616476" lon="8.6326201"><ele>726.6666666666666</ele><time>2026-05-01T13:34:11.067Z</time></trkpt><trkpt lat="35.6165897" lon="8.6324773"><ele>725.3333333333334</ele><time>2026-05-01T13:34:12.092Z</time></trkpt><trkpt lat="35.6167099" lon="8.6323357"><ele>724.0</ele><time>2026-05-01T13:34:13.061Z</time></trkpt><trkpt lat="35.6168322" lon="8.6321969"><ele>724.0</ele><time>2026-05-01T13:34:14.065Z</time></trkpt><trkpt lat="35.6169567" lon="8.6320638"><ele>724.0</ele><time>2026-05-01T13:34:15.079Z</time></trkpt><trkpt lat="35.6170857" lon="8.6319311"><ele>724.0</ele><time>2026-05-01T13:34:16.066Z</time></trkpt><trkpt lat="35.6172122" lon="8.6318015"><ele>723.3333333333334</ele><time>2026-05-01T13:34:17.085Z</time></trkpt><trkpt lat="35.6173411" lon="8.6316794"><ele>722.6666666666666</ele><time>2026-05-01T13:34:18.083Z</time></trkpt><trkpt lat="35.6174734" lon="8.6315666"><ele>722.0</ele><time>2026-05-01T13:34:19.075Z</time></trkpt><trkpt lat="35.617607" lon="8.6314578"><ele>722.0</ele><time>2026-05-01T13:34:20.084Z</time></trkpt><trkpt lat="35.6177444" lon="8.6313551"><ele>722.0</ele><time>2026-05-01T13:34:21.084Z</time></trkpt><trkpt lat="35.6178788" lon="8.6312609"><ele>722.0</ele><time>2026-05-01T13:34:22.068Z</time></trkpt><trkpt lat="35.6180146" lon="8.6311723"><ele>721.3333333333333</ele><time>2026-05-01T13:34:23.075Z</time></trkpt><trkpt lat="35.6181505" lon="8.6310806"><ele>720.6666666666666</ele><time>2026-05-01T13:34:24.089Z</time></trkpt><trkpt lat="35.6182827" lon="8.6309933"><ele>720.0</ele><time>2026-05-01T13:34:25.091Z</time></trkpt><trkpt lat="35.6184131" lon="8.6309054"><ele>720.0</ele><time>2026-05-01T13:34:26.07Z</time></trkpt><trkpt lat="35.6185442" lon="8.6308228"><ele>720.0</ele><time>2026-05-01T13:34:27.072Z</time></trkpt><trkpt lat="35.6186728" lon="8.6307404"><ele>720.0</ele><time>2026-05-01T13:34:28.083Z</time></trkpt><trkpt lat="35.618806" lon="8.6306575"><ele>720.0</ele><time>2026-05-01T13:34:29.08Z</time></trkpt><trkpt lat="35.6189379" lon="8.6305766"><ele>720.0</ele><time>2026-05-01T13:34:30.081Z</time></trkpt><trkpt lat="35.6190684" lon="8.6304893"><ele>720.0</ele><time>2026-05-01T13:34:31.068Z</time></trkpt><trkpt lat="35.619196" lon="8.6304078"><ele>720.0</ele><time>2026-05-01T13:34:32.078Z</time></trkpt><trkpt lat="35.6193226" lon="8.6303188"><ele>720.0</ele><time>2026-05-01T13:34:33.075Z</time></trkpt><trkpt lat="35.6194474" lon="8.6302301"><ele>719.25</ele><time>2026-05-01T13:34:34.085Z</time></trkpt><trkpt lat="35.6195724" lon="8.6301471"><ele>718.5</ele><time>2026-05-01T13:34:35.091Z</time></trkpt><trkpt lat="35.6196953" lon="8.6300631"><ele>717.75</ele><time>2026-05-01T13:34:36.068Z</time></trkpt><trkpt lat="35.6198191" lon="8.6299843"><ele>717.0</ele><time>2026-05-01T13:34:37.082Z</time></trkpt><trkpt lat="35.6199417" lon="8.6299024"><ele>717.0</ele><time>2026-05-01T13:34:38.079Z</time></trkpt><trkpt lat="35.6200673" lon="8.6298169"><ele>717.0</ele><time>2026-05-01T13:34:39.064Z</time></trkpt><trkpt lat="35.6201971" lon="8.6297303"><ele>717.0</ele><time>2026-05-01T13:34:40.081Z</time></trkpt><trkpt lat="35.6203296" lon="8.6296457"><ele>717.0</ele><time>2026-05-01T13:34:41.074Z</time></trkpt><trkpt lat="35.6204627" lon="8.6295589"><ele>716.0</ele><time>2026-05-01T13:34:42.082Z</time></trkpt><trkpt lat="35.6205995" lon="8.6294741"><ele>715.0</ele><time>2026-05-01T13:34:43.069Z</time></trkpt><trkpt lat="35.620743" lon="8.6293764"><ele>714.0</ele><time>2026-05-01T13:34:44.079Z</time></trkpt><trkpt lat="35.6208832" lon="8.6292842"><ele>714.0</ele><time>2026-05-01T13:34:45.077Z</time></trkpt><trkpt lat="35.6210243" lon="8.6291923"><ele>714.0</ele><time>2026-05-01T13:34:46.058Z</time></trkpt><trkpt lat="35.6211716" lon="8.6291002"><ele>714.0</ele><time>2026-05-01T13:34:47.066Z</time></trkpt><trkpt lat="35.6213166" lon="8.6290058"><ele>714.0</ele><time>2026-05-01T13:34:48.078Z</time></trkpt><trkpt lat="35.6214621" lon="8.6289103"><ele>714.0</ele><time>2026-05-01T13:34:49.072Z</time></trkpt><trkpt lat="35.6216066" lon="8.6288158"><ele>714.0</ele><time>2026-05-01T13:34:50.082Z</time></trkpt><trkpt lat="35.6217496" lon="8.6287216"><ele>713.0</ele><time>2026-05-01T13:34:51.075Z</time></trkpt><trkpt lat="35.6218892" lon="8.6286304"><ele>712.0</ele><time>2026-05-01T13:34:52.086Z</time></trkpt><trkpt lat="35.6220283" lon="8.6285402"><ele>711.0</ele><time>2026-05-01T13:34:53.077Z</time></trkpt><trkpt lat="35.6221612" lon="8.6284552"><ele>711.0</ele><time>2026-05-01T13:34:54.081Z</time></trkpt><trkpt lat="35.6222956" lon="8.6283667"><ele>711.0</ele><time>2026-05-01T13:34:55.076Z</time></trkpt><trkpt lat="35.622428" lon="8.6282755"><ele>711.0</ele><time>2026-05-01T13:34:56.081Z</time></trkpt><trkpt lat="35.6225628" lon="8.6281847"><ele>711.0</ele><time>2026-05-01T13:34:57.063Z</time></trkpt><trkpt lat="35.6226995" lon="8.6280952"><ele>711.0</ele><time>2026-05-01T13:34:58.069Z</time></trkpt><trkpt lat="35.622841" lon="8.6280058"><ele>711.0</ele><time>2026-05-01T13:34:59.067Z</time></trkpt><trkpt lat="35.622977" lon="8.6279185"><ele>710.3333333333334</ele><time>2026-05-01T13:35:00.061Z</time></trkpt><trkpt lat="35.6231122" lon="8.6278289"><ele>709.6666666666667</ele><time>2026-05-01T13:35:01.088Z</time></trkpt><trkpt lat="35.6232517" lon="8.6277419"><ele>709.0</ele><time>2026-05-01T13:35:02.069Z</time></trkpt><trkpt lat="35.6233845" lon="8.6276565"><ele>708.3333333333334</ele><time>2026-05-01T13:35:03.076Z</time></trkpt><trkpt lat="35.6235194" lon="8.6275698"><ele>707.6666666666666</ele><time>2026-05-01T13:35:04.076Z</time></trkpt><trkpt lat="35.6236526" lon="8.627481"><ele>707.0</ele><time>2026-05-01T13:35:05.105Z</time></trkpt><trkpt lat="35.6237898" lon="8.6273929"><ele>707.0</ele><time>2026-05-01T13:35:06.09Z</time></trkpt><trkpt lat="35.6239278" lon="8.6273025"><ele>707.0</ele><time>2026-05-01T13:35:07.077Z</time></trkpt><trkpt lat="35.6240664" lon="8.6272126"><ele>707.0</ele><time>2026-05-01T13:35:08.087Z</time></trkpt><trkpt lat="35.6242047" lon="8.627124"><ele>707.0</ele><time>2026-05-01T13:35:09.08Z</time></trkpt><trkpt lat="35.6243432" lon="8.6270313"><ele>707.0</ele><time>2026-05-01T13:35:10.083Z</time></trkpt><trkpt lat="35.62448" lon="8.6269415"><ele>707.0</ele><time>2026-05-01T13:35:11.076Z</time></trkpt><trkpt lat="35.6246134" lon="8.6268507"><ele>705.6666666666666</ele><time>2026-05-01T13:35:12.082Z</time></trkpt><trkpt lat="35.6247456" lon="8.6267602"><ele>704.3333333333334</ele><time>2026-05-01T13:35:13.092Z</time></trkpt><trkpt lat="35.6248794" lon="8.6266683"><ele>703.0</ele><time>2026-05-01T13:35:14.083Z</time></trkpt><trkpt lat="35.6250152" lon="8.6265787"><ele>703.0</ele><time>2026-05-01T13:35:15.072Z</time></trkpt><trkpt lat="35.6251537" lon="8.6264887"><ele>703.0</ele><time>2026-05-01T13:35:16.075Z</time></trkpt><trkpt lat="35.6252901" lon="8.6263985"><ele>703.0</ele><time>2026-05-01T13:35:17.099Z</time></trkpt><trkpt lat="35.6254264" lon="8.626312"><ele>703.0</ele><time>2026-05-01T13:35:18.065Z</time></trkpt><trkpt lat="35.6255642" lon="8.6262233"><ele>703.0</ele><time>2026-05-01T13:35:19.063Z</time></trkpt><trkpt lat="35.6257039" lon="8.6261344"><ele>703.0</ele><time>2026-05-01T13:35:20.079Z</time></trkpt><trkpt lat="35.6258419" lon="8.626048"><ele>701.3333333333334</ele><time>2026-05-01T13:35:21.075Z</time></trkpt><trkpt lat="35.6259788" lon="8.6259616"><ele>699.6666666666666</ele><time>2026-05-01T13:35:22.088Z</time></trkpt><trkpt lat="35.6261134" lon="8.6258718"><ele>698.0</ele><time>2026-05-01T13:35:23.073Z</time></trkpt><trkpt lat="35.626248" lon="8.625783"><ele>697.5</ele><time>2026-05-01T13:35:24.086Z</time></trkpt><trkpt lat="35.6263786" lon="8.625693"><ele>697.0</ele><time>2026-05-01T13:35:25.099Z</time></trkpt><trkpt lat="35.6265102" lon="8.6256049"><ele>696.5</ele><time>2026-05-01T13:35:26.084Z</time></trkpt><trkpt lat="35.6266385" lon="8.6255117"><ele>696.0</ele><time>2026-05-01T13:35:27.069Z</time></trkpt><trkpt lat="35.6267708" lon="8.6254284"><ele>696.0</ele><time>2026-05-01T13:35:28.08Z</time></trkpt><trkpt lat="35.6269045" lon="8.6253423"><ele>696.0</ele><time>2026-05-01T13:35:29.078Z</time></trkpt><trkpt lat="35.6270387" lon="8.6252534"><ele>696.0</ele><time>2026-05-01T13:35:30.077Z</time></trkpt><trkpt lat="35.6271799" lon="8.6251628"><ele>694.6666666666666</ele><time>2026-05-01T13:35:31.083Z</time></trkpt><trkpt lat="35.6273252" lon="8.625073"><ele>693.3333333333333</ele><time>2026-05-01T13:35:32.08Z</time></trkpt><trkpt lat="35.6274754" lon="8.6249747"><ele>692.0</ele><time>2026-05-01T13:35:33.081Z</time></trkpt><trkpt lat="35.6276251" lon="8.6248709"><ele>692.0</ele><time>2026-05-01T13:35:34.081Z</time></trkpt><trkpt lat="35.6277776" lon="8.6247728"><ele>692.0</ele><time>2026-05-01T13:35:35.077Z</time></trkpt><trkpt lat="35.6279334" lon="8.62467"><ele>692.0</ele><time>2026-05-01T13:35:36.088Z</time></trkpt><trkpt lat="35.6280881" lon="8.6245684"><ele>692.6666666666666</ele><time>2026-05-01T13:35:37.062Z</time></trkpt><trkpt lat="35.6282483" lon="8.6244621"><ele>693.3333333333334</ele><time>2026-05-01T13:35:38.078Z</time></trkpt><trkpt lat="35.6284018" lon="8.6243609"><ele>694.0</ele><time>2026-05-01T13:35:39.083Z</time></trkpt><trkpt lat="35.6285597" lon="8.6242582"><ele>693.3333333333334</ele><time>2026-05-01T13:35:40.079Z</time></trkpt><trkpt lat="35.6287195" lon="8.624153"><ele>692.6666666666666</ele><time>2026-05-01T13:35:41.095Z</time></trkpt><trkpt lat="35.6288852" lon="8.6240474"><ele>692.0</ele><time>2026-05-01T13:35:42.102Z</time></trkpt><trkpt lat="35.6290469" lon="8.6239432"><ele>692.0</ele><time>2026-05-01T13:35:43.081Z</time></trkpt><trkpt lat="35.6292122" lon="8.6238336"><ele>692.0</ele><time>2026-05-01T13:35:44.077Z</time></trkpt><trkpt lat="35.6293753" lon="8.6237216"><ele>692.0</ele><time>2026-05-01T13:35:45.07Z</time></trkpt><trkpt lat="35.6295399" lon="8.6236114"><ele>692.3333333333333</ele><time>2026-05-01T13:35:46.08Z</time></trkpt><trkpt lat="35.6296993" lon="8.623503"><ele>692.6666666666666</ele><time>2026-05-01T13:35:47.079Z</time></trkpt><trkpt lat="35.6298566" lon="8.6234036"><ele>693.0</ele><time>2026-05-01T13:35:48.085Z</time></trkpt><trkpt lat="35.6300131" lon="8.6233059"><ele>693.0</ele><time>2026-05-01T13:35:49.078Z</time></trkpt><trkpt lat="35.630167" lon="8.6232079"><ele>693.0</ele><time>2026-05-01T13:35:50.071Z</time></trkpt><trkpt lat="35.6303206" lon="8.6231058"><ele>693.0</ele><time>2026-05-01T13:35:51.075Z</time></trkpt><trkpt lat="35.6304709" lon="8.6230091"><ele>692.3333333333334</ele><time>2026-05-01T13:35:52.081Z</time></trkpt><trkpt lat="35.6306262" lon="8.6229109"><ele>691.6666666666667</ele><time>2026-05-01T13:35:53.079Z</time></trkpt><trkpt lat="35.6307787" lon="8.6228123"><ele>691.0</ele><time>2026-05-01T13:35:54.079Z</time></trkpt><trkpt lat="35.630929" lon="8.6227147"><ele>691.0</ele><time>2026-05-01T13:35:55.081Z</time></trkpt><trkpt lat="35.6310809" lon="8.6226158"><ele>691.0</ele><time>2026-05-01T13:35:56.079Z</time></trkpt><trkpt lat="35.6312299" lon="8.6225175"><ele>691.0</ele><time>2026-05-01T13:35:57.074Z</time></trkpt><trkpt lat="35.6313778" lon="8.6224207"><ele>690.3333333333334</ele><time>2026-05-01T13:35:58.072Z</time></trkpt><trkpt lat="35.6315236" lon="8.6223245"><ele>689.6666666666666</ele><time>2026-05-01T13:35:59.072Z</time></trkpt><trkpt lat="35.6316708" lon="8.6222268"><ele>689.0</ele><time>2026-05-01T13:36:00.066Z</time></trkpt><trkpt lat="35.6318147" lon="8.6221313"><ele>689.0</ele><time>2026-05-01T13:36:01.072Z</time></trkpt><trkpt lat="35.6319579" lon="8.6220371"><ele>689.0</ele><time>2026-05-01T13:36:02.072Z</time></trkpt><trkpt lat="35.632104" lon="8.6219411"><ele>689.0</ele><time>2026-05-01T13:36:03.071Z</time></trkpt><trkpt lat="35.6322511" lon="8.6218421"><ele>687.6666666666666</ele><time>2026-05-01T13:36:04.084Z</time></trkpt><trkpt lat="35.6323957" lon="8.6217429"><ele>686.3333333333334</ele><time>2026-05-01T13:36:05.087Z</time></trkpt><trkpt lat="35.6325415" lon="8.6216439"><ele>685.0</ele><time>2026-05-01T13:36:06.076Z</time></trkpt><trkpt lat="35.6326892" lon="8.6215465"><ele>685.0</ele><time>2026-05-01T13:36:07.079Z</time></trkpt><trkpt lat="35.6328401" lon="8.6214486"><ele>685.0</ele><time>2026-05-01T13:36:08.077Z</time></trkpt><trkpt lat="35.6329994" lon="8.6213487"><ele>685.0</ele><time>2026-05-01T13:36:09.075Z</time></trkpt><trkpt lat="35.6331582" lon="8.6212446"><ele>686.0</ele><time>2026-05-01T13:36:10.072Z</time></trkpt><trkpt lat="35.6333143" lon="8.6211399"><ele>687.0</ele><time>2026-05-01T13:36:11.083Z</time></trkpt><trkpt lat="35.6334731" lon="8.6210332"><ele>688.0</ele><time>2026-05-01T13:36:12.095Z</time></trkpt><trkpt lat="35.6336272" lon="8.6209304"><ele>687.6666666666667</ele><time>2026-05-01T13:36:13.076Z</time></trkpt><trkpt lat="35.6337853" lon="8.6208283"><ele>687.3333333333334</ele><time>2026-05-01T13:36:14.097Z</time></trkpt><trkpt lat="35.6339432" lon="8.6207173"><ele>687.0</ele><time>2026-05-01T13:36:15.078Z</time></trkpt><trkpt lat="35.6341022" lon="8.620608"><ele>687.0</ele><time>2026-05-01T13:36:16.08Z</time></trkpt><trkpt lat="35.6342563" lon="8.6204988"><ele>687.0</ele><time>2026-05-01T13:36:17.078Z</time></trkpt><trkpt lat="35.6344111" lon="8.6203869"><ele>687.0</ele><time>2026-05-01T13:36:18.094Z</time></trkpt><trkpt lat="35.6345636" lon="8.6202711"><ele>686.3333333333334</ele><time>2026-05-01T13:36:19.086Z</time></trkpt><trkpt lat="35.6347121" lon="8.6201497"><ele>685.6666666666667</ele><time>2026-05-01T13:36:20.083Z</time></trkpt><trkpt lat="35.6348586" lon="8.6200276"><ele>685.0</ele><time>2026-05-01T13:36:21.09Z</time></trkpt><trkpt lat="35.635005" lon="8.6199044"><ele>685.0</ele><time>2026-05-01T13:36:22.089Z</time></trkpt><trkpt lat="35.6351533" lon="8.6197749"><ele>685.0</ele><time>2026-05-01T13:36:23.078Z</time></trkpt><trkpt lat="35.6353007" lon="8.6196528"><ele>685.0</ele><time>2026-05-01T13:36:24.107Z</time></trkpt><trkpt lat="35.6354465" lon="8.6195253"><ele>685.0</ele><time>2026-05-01T13:36:25.065Z</time></trkpt><trkpt lat="35.6355927" lon="8.6193986"><ele>685.0</ele><time>2026-05-01T13:36:26.066Z</time></trkpt><trkpt lat="35.6357389" lon="8.6192777"><ele>685.0</ele><time>2026-05-01T13:36:27.061Z</time></trkpt><trkpt lat="35.6358851" lon="8.6191565"><ele>685.0</ele><time>2026-05-01T13:36:28.069Z</time></trkpt><trkpt lat="35.6360303" lon="8.6190317"><ele>685.0</ele><time>2026-05-01T13:36:29.065Z</time></trkpt><trkpt lat="35.6361768" lon="8.6189068"><ele>685.0</ele><time>2026-05-01T13:36:30.078Z</time></trkpt><trkpt lat="35.6363205" lon="8.6187841"><ele>684.6666666666667</ele><time>2026-05-01T13:36:31.093Z</time></trkpt><trkpt lat="35.6364616" lon="8.6186587"><ele>684.3333333333334</ele><time>2026-05-01T13:36:32.077Z</time></trkpt><trkpt lat="35.6366021" lon="8.618531"><ele>684.0</ele><time>2026-05-01T13:36:33.088Z</time></trkpt><trkpt lat="35.6367466" lon="8.6184028"><ele>684.6666666666666</ele><time>2026-05-01T13:36:34.092Z</time></trkpt><trkpt lat="35.6368926" lon="8.6182738"><ele>685.3333333333333</ele><time>2026-05-01T13:36:35.074Z</time></trkpt><trkpt lat="35.6370432" lon="8.6181432"><ele>686.0</ele><time>2026-05-01T13:36:36.079Z</time></trkpt><trkpt lat="35.6371945" lon="8.6180129"><ele>685.0</ele><time>2026-05-01T13:36:37.082Z</time></trkpt><trkpt lat="35.6373456" lon="8.6178835"><ele>684.0</ele><time>2026-05-01T13:36:38.085Z</time></trkpt><trkpt lat="35.637493" lon="8.6177489"><ele>683.0</ele><time>2026-05-01T13:36:39.082Z</time></trkpt><trkpt lat="35.6376368" lon="8.6176205"><ele>683.0</ele><time>2026-05-01T13:36:40.081Z</time></trkpt><trkpt lat="35.6377824" lon="8.6174956"><ele>683.0</ele><time>2026-05-01T13:36:41.075Z</time></trkpt><trkpt lat="35.637928" lon="8.6173685"><ele>683.0</ele><time>2026-05-01T13:36:42.086Z</time></trkpt><trkpt lat="35.6380729" lon="8.6172428"><ele>682.6666666666666</ele><time>2026-05-01T13:36:43.086Z</time></trkpt><trkpt lat="35.6382151" lon="8.6171213"><ele>682.3333333333334</ele><time>2026-05-01T13:36:44.084Z</time></trkpt><trkpt lat="35.6383583" lon="8.6169963"><ele>682.0</ele><time>2026-05-01T13:36:45.073Z</time></trkpt><trkpt lat="35.6385013" lon="8.6168747"><ele>682.0</ele><time>2026-05-01T13:36:46.087Z</time></trkpt><trkpt lat="35.6386377" lon="8.6167565"><ele>682.0</ele><time>2026-05-01T13:36:47.075Z</time></trkpt><trkpt lat="35.6387739" lon="8.6166385"><ele>682.0</ele><time>2026-05-01T13:36:48.067Z</time></trkpt><trkpt lat="35.6389109" lon="8.616523"><ele>682.0</ele><time>2026-05-01T13:36:49.083Z</time></trkpt><trkpt lat="35.6390478" lon="8.6164083"><ele>682.0</ele><time>2026-05-01T13:36:50.073Z</time></trkpt><trkpt lat="35.6391824" lon="8.6162909"><ele>682.0</ele><time>2026-05-01T13:36:51.085Z</time></trkpt><trkpt lat="35.6393191" lon="8.6161726"><ele>682.0</ele><time>2026-05-01T13:36:52.084Z</time></trkpt><trkpt lat="35.6394532" lon="8.6160544"><ele>682.0</ele><time>2026-05-01T13:36:53.08Z</time></trkpt><trkpt lat="35.639588" lon="8.6159345"><ele>682.0</ele><time>2026-05-01T13:36:54.079Z</time></trkpt><trkpt lat="35.6397201" lon="8.6158103"><ele>682.0</ele><time>2026-05-01T13:36:55.08Z</time></trkpt><trkpt lat="35.6398542" lon="8.615692"><ele>682.0</ele><time>2026-05-01T13:36:56.079Z</time></trkpt><trkpt lat="35.6399899" lon="8.6155708"><ele>682.0</ele><time>2026-05-01T13:36:57.083Z</time></trkpt><trkpt lat="35.6401291" lon="8.615453"><ele>682.0</ele><time>2026-05-01T13:36:58.087Z</time></trkpt><trkpt lat="35.6402702" lon="8.6153329"><ele>682.0</ele><time>2026-05-01T13:36:59.075Z</time></trkpt><trkpt lat="35.6404119" lon="8.6152106"><ele>682.0</ele><time>2026-05-01T13:37:00.065Z</time></trkpt><trkpt lat="35.6405556" lon="8.6150906"><ele>681.0</ele><time>2026-05-01T13:37:01.076Z</time></trkpt><trkpt lat="35.6406981" lon="8.6149676"><ele>680.0</ele><time>2026-05-01T13:37:02.078Z</time></trkpt><trkpt lat="35.6408409" lon="8.6148439"><ele>679.0</ele><time>2026-05-01T13:37:03.072Z</time></trkpt><trkpt lat="35.6409836" lon="8.6147182"><ele>679.0</ele><time>2026-05-01T13:37:04.082Z</time></trkpt><trkpt lat="35.6411266" lon="8.6145943"><ele>679.0</ele><time>2026-05-01T13:37:05.076Z</time></trkpt><trkpt lat="35.6412679" lon="8.6144717"><ele>679.0</ele><time>2026-05-01T13:37:06.084Z</time></trkpt><trkpt lat="35.6414068" lon="8.6143509"><ele>679.3333333333334</ele><time>2026-05-01T13:37:07.083Z</time></trkpt><trkpt lat="35.64155" lon="8.6142315"><ele>679.6666666666666</ele><time>2026-05-01T13:37:08.078Z</time></trkpt><trkpt lat="35.6416876" lon="8.6141121"><ele>680.0</ele><time>2026-05-01T13:37:09.076Z</time></trkpt><trkpt lat="35.6418225" lon="8.6139967"><ele>680.0</ele><time>2026-05-01T13:37:10.071Z</time></trkpt><trkpt lat="35.6419577" lon="8.6138774"><ele>680.0</ele><time>2026-05-01T13:37:11.075Z</time></trkpt><trkpt lat="35.6420941" lon="8.6137594"><ele>680.0</ele><time>2026-05-01T13:37:12.084Z</time></trkpt><trkpt lat="35.6422275" lon="8.6136426"><ele>679.3333333333333</ele><time>2026-05-01T13:37:13.08Z</time></trkpt><trkpt lat="35.6423622" lon="8.6135273"><ele>678.6666666666666</ele><time>2026-05-01T13:37:14.088Z</time></trkpt><trkpt lat="35.6424942" lon="8.6134179"><ele>678.0</ele><time>2026-05-01T13:37:15.068Z</time></trkpt><trkpt lat="35.6426274" lon="8.613303"><ele>678.0</ele><time>2026-05-01T13:37:16.084Z</time></trkpt><trkpt lat="35.6427612" lon="8.6131856"><ele>678.0</ele><time>2026-05-01T13:37:17.083Z</time></trkpt><trkpt lat="35.6428971" lon="8.6130685"><ele>678.0</ele><time>2026-05-01T13:37:18.082Z</time></trkpt><trkpt lat="35.6430314" lon="8.6129456"><ele>678.3333333333334</ele><time>2026-05-01T13:37:19.086Z</time></trkpt><trkpt lat="35.6431651" lon="8.6128328"><ele>678.6666666666667</ele><time>2026-05-01T13:37:20.078Z</time></trkpt><trkpt lat="35.6432998" lon="8.6127192"><ele>679.0</ele><time>2026-05-01T13:37:21.077Z</time></trkpt><trkpt lat="35.6434324" lon="8.612604"><ele>679.0</ele><time>2026-05-01T13:37:22.079Z</time></trkpt><trkpt lat="35.643567" lon="8.6124911"><ele>679.0</ele><time>2026-05-01T13:37:23.078Z</time></trkpt><trkpt lat="35.6436995" lon="8.6123753"><ele>679.0</ele><time>2026-05-01T13:37:24.088Z</time></trkpt><trkpt lat="35.6438349" lon="8.6122574"><ele>679.0</ele><time>2026-05-01T13:37:25.078Z</time></trkpt><trkpt lat="35.6439688" lon="8.6121371"><ele>679.0</ele><time>2026-05-01T13:37:26.082Z</time></trkpt><trkpt lat="35.6441032" lon="8.6120152"><ele>679.0</ele><time>2026-05-01T13:37:27.084Z</time></trkpt><trkpt lat="35.6442419" lon="8.6118961"><ele>679.0</ele><time>2026-05-01T13:37:28.074Z</time></trkpt><trkpt lat="35.6443778" lon="8.6117806"><ele>679.0</ele><time>2026-05-01T13:37:29.078Z</time></trkpt><trkpt lat="35.6445094" lon="8.611666"><ele>679.0</ele><time>2026-05-01T13:37:30.08Z</time></trkpt><trkpt lat="35.6446425" lon="8.6115541"><ele>678.3333333333334</ele><time>2026-05-01T13:37:31.081Z</time></trkpt><trkpt lat="35.6447753" lon="8.6114409"><ele>677.6666666666666</ele><time>2026-05-01T13:37:32.089Z</time></trkpt><trkpt lat="35.6449017" lon="8.6113263"><ele>677.0</ele><time>2026-05-01T13:37:33.083Z</time></trkpt><trkpt lat="35.6450319" lon="8.6112144"><ele>677.0</ele><time>2026-05-01T13:37:34.094Z</time></trkpt><trkpt lat="35.645162" lon="8.6111037"><ele>677.0</ele><time>2026-05-01T13:37:35.07Z</time></trkpt><trkpt lat="35.645291" lon="8.6109963"><ele>677.0</ele><time>2026-05-01T13:37:36.08Z</time></trkpt><trkpt lat="35.6454193" lon="8.6108828"><ele>677.0</ele><time>2026-05-01T13:37:37.092Z</time></trkpt><trkpt lat="35.645549" lon="8.6107696"><ele>677.0</ele><time>2026-05-01T13:37:38.084Z</time></trkpt><trkpt lat="35.6456771" lon="8.6106609"><ele>677.0</ele><time>2026-05-01T13:37:39.088Z</time></trkpt><trkpt lat="35.6458065" lon="8.6105467"><ele>677.0</ele><time>2026-05-01T13:37:40.085Z</time></trkpt><trkpt lat="35.6459347" lon="8.6104369"><ele>677.0</ele><time>2026-05-01T13:37:41.079Z</time></trkpt><trkpt lat="35.6460629" lon="8.6103215"><ele>677.0</ele><time>2026-05-01T13:37:42.084Z</time></trkpt><trkpt lat="35.6461932" lon="8.610208"><ele>677.3333333333333</ele><time>2026-05-01T13:37:43.095Z</time></trkpt><trkpt lat="35.6463165" lon="8.610091"><ele>677.6666666666666</ele><time>2026-05-01T13:37:44.094Z</time></trkpt><trkpt lat="35.6464374" lon="8.6099728"><ele>678.0</ele><time>2026-05-01T13:37:45.08Z</time></trkpt><trkpt lat="35.6465567" lon="8.6098489"><ele>678.0</ele><time>2026-05-01T13:37:46.083Z</time></trkpt><trkpt lat="35.6466734" lon="8.6097186"><ele>678.0</ele><time>2026-05-01T13:37:47.084Z</time></trkpt><trkpt lat="35.6467802" lon="8.6095895"><ele>678.0</ele><time>2026-05-01T13:37:48.085Z</time></trkpt><trkpt lat="35.6468801" lon="8.6094572"><ele>677.0</ele><time>2026-05-01T13:37:49.068Z</time></trkpt><trkpt lat="35.6469762" lon="8.6093235"><ele>676.0</ele><time>2026-05-01T13:37:50.076Z</time></trkpt><trkpt lat="35.6470689" lon="8.609192"><ele>675.0</ele><time>2026-05-01T13:37:51.078Z</time></trkpt><trkpt lat="35.6471609" lon="8.6090659"><ele>674.0</ele><time>2026-05-01T13:37:52.077Z</time></trkpt><trkpt lat="35.6472507" lon="8.6089372"><ele>674.0</ele><time>2026-05-01T13:37:53.082Z</time></trkpt><trkpt lat="35.6473398" lon="8.6088123"><ele>674.0</ele><time>2026-05-01T13:37:54.068Z</time></trkpt><trkpt lat="35.6474203" lon="8.6087"><ele>674.0</ele><time>2026-05-01T13:37:55.079Z</time></trkpt><trkpt lat="35.6474975" lon="8.6085868"><ele>674.0</ele><time>2026-05-01T13:37:56.081Z</time></trkpt><trkpt lat="35.6475713" lon="8.6084844"><ele>673.8000000000001</ele><time>2026-05-01T13:37:57.084Z</time></trkpt><trkpt lat="35.6476411" lon="8.6083857"><ele>673.6</ele><time>2026-05-01T13:37:58.086Z</time></trkpt><trkpt lat="35.6477111" lon="8.6082882"><ele>673.4</ele><time>2026-05-01T13:37:59.102Z</time></trkpt><trkpt lat="35.6477811" lon="8.6081883"><ele>673.2</ele><time>2026-05-01T13:38:00.071Z</time></trkpt><trkpt lat="35.6478607" lon="8.6080737"><ele>673.0</ele><time>2026-05-01T13:38:01.088Z</time></trkpt><trkpt lat="35.6479465" lon="8.6079506"><ele>673.25</ele><time>2026-05-01T13:38:02.083Z</time></trkpt><trkpt lat="35.6480349" lon="8.6078215"><ele>673.5</ele><time>2026-05-01T13:38:03.074Z</time></trkpt><trkpt lat="35.6481322" lon="8.6076852"><ele>673.75</ele><time>2026-05-01T13:38:04.073Z</time></trkpt><trkpt lat="35.6482326" lon="8.6075388"><ele>674.0</ele><time>2026-05-01T13:38:05.082Z</time></trkpt><trkpt lat="35.6483401" lon="8.6073824"><ele>674.0</ele><time>2026-05-01T13:38:06.081Z</time></trkpt><trkpt lat="35.648444" lon="8.6072198"><ele>674.0</ele><time>2026-05-01T13:38:07.074Z</time></trkpt><trkpt lat="35.6485416" lon="8.6070588"><ele>674.0</ele><time>2026-05-01T13:38:08.082Z</time></trkpt><trkpt lat="35.6486329" lon="8.6068947"><ele>673.3333333333333</ele><time>2026-05-01T13:38:09.082Z</time></trkpt><trkpt lat="35.6487218" lon="8.6067269"><ele>672.6666666666666</ele><time>2026-05-01T13:38:10.089Z</time></trkpt><trkpt lat="35.6488118" lon="8.6065497"><ele>672.0</ele><time>2026-05-01T13:38:11.081Z</time></trkpt><trkpt lat="35.648892" lon="8.606371"><ele>672.0</ele><time>2026-05-01T13:38:12.076Z</time></trkpt><trkpt lat="35.648973" lon="8.6061836"><ele>672.0</ele><time>2026-05-01T13:38:13.076Z</time></trkpt><trkpt lat="35.6490494" lon="8.6059986"><ele>672.0</ele><time>2026-05-01T13:38:14.083Z</time></trkpt><trkpt lat="35.6491183" lon="8.6058136"><ele>673.0</ele><time>2026-05-01T13:38:15.08Z</time></trkpt><trkpt lat="35.6491813" lon="8.6056256"><ele>674.0</ele><time>2026-05-01T13:38:16.077Z</time></trkpt><trkpt lat="35.6492488" lon="8.6054407"><ele>675.0</ele><time>2026-05-01T13:38:17.092Z</time></trkpt><trkpt lat="35.6493143" lon="8.6052501"><ele>675.3333333333334</ele><time>2026-05-01T13:38:18.083Z</time></trkpt><trkpt lat="35.6493703" lon="8.6050524"><ele>675.6666666666667</ele><time>2026-05-01T13:38:19.074Z</time></trkpt><trkpt lat="35.6494188" lon="8.6048512"><ele>676.0</ele><time>2026-05-01T13:38:20.075Z</time></trkpt><trkpt lat="35.6494605" lon="8.6046436"><ele>674.6666666666667</ele><time>2026-05-01T13:38:21.077Z</time></trkpt><trkpt lat="35.6494957" lon="8.6044426"><ele>673.3333333333334</ele><time>2026-05-01T13:38:22.083Z</time></trkpt><trkpt lat="35.6495269" lon="8.6042412"><ele>672.0</ele><time>2026-05-01T13:38:23.087Z</time></trkpt><trkpt lat="35.6495526" lon="8.6040436"><ele>672.0</ele><time>2026-05-01T13:38:24.059Z</time></trkpt><trkpt lat="35.6495763" lon="8.6038483"><ele>672.0</ele><time>2026-05-01T13:38:25.096Z</time></trkpt><trkpt lat="35.6495988" lon="8.6036519"><ele>672.0</ele><time>2026-05-01T13:38:26.074Z</time></trkpt><trkpt lat="35.6496198" lon="8.6034523"><ele>672.3333333333334</ele><time>2026-05-01T13:38:27.079Z</time></trkpt><trkpt lat="35.649632" lon="8.6032632"><ele>672.6666666666667</ele><time>2026-05-01T13:38:28.091Z</time></trkpt><trkpt lat="35.6496452" lon="8.603071"><ele>673.0</ele><time>2026-05-01T13:38:29.09Z</time></trkpt><trkpt lat="35.6496551" lon="8.6028796"><ele>673.6666666666667</ele><time>2026-05-01T13:38:30.096Z</time></trkpt><trkpt lat="35.6496629" lon="8.6026832"><ele>674.3333333333334</ele><time>2026-05-01T13:38:31.085Z</time></trkpt><trkpt lat="35.6496684" lon="8.6024884"><ele>675.0</ele><time>2026-05-01T13:38:32.095Z</time></trkpt><trkpt lat="35.6496729" lon="8.6022973"><ele>675.0</ele><time>2026-05-01T13:38:33.078Z</time></trkpt><trkpt lat="35.6496734" lon="8.6021026"><ele>675.0</ele><time>2026-05-01T13:38:34.087Z</time></trkpt><trkpt lat="35.6496758" lon="8.6019181"><ele>675.0</ele><time>2026-05-01T13:38:35.085Z</time></trkpt><trkpt lat="35.6496789" lon="8.6017436"><ele>675.0</ele><time>2026-05-01T13:38:36.09Z</time></trkpt><trkpt lat="35.6496836" lon="8.6015722"><ele>675.0</ele><time>2026-05-01T13:38:37.086Z</time></trkpt><trkpt lat="35.649689" lon="8.6014083"><ele>675.0</ele><time>2026-05-01T13:38:38.086Z</time></trkpt><trkpt lat="35.6496914" lon="8.6012486"><ele>675.0</ele><time>2026-05-01T13:38:39.088Z</time></trkpt><trkpt lat="35.6496957" lon="8.6010764"><ele>674.75</ele><time>2026-05-01T13:38:40.09Z</time></trkpt><trkpt lat="35.6496975" lon="8.6008977"><ele>674.5</ele><time>2026-05-01T13:38:41.094Z</time></trkpt><trkpt lat="35.649701" lon="8.6007171"><ele>674.25</ele><time>2026-05-01T13:38:42.09Z</time></trkpt><trkpt lat="35.6497065" lon="8.6005356"><ele>674.0</ele><time>2026-05-01T13:38:43.08Z</time></trkpt><trkpt lat="35.6497125" lon="8.6003478"><ele>673.6666666666666</ele><time>2026-05-01T13:38:44.084Z</time></trkpt><trkpt lat="35.6497146" lon="8.6001583"><ele>673.3333333333334</ele><time>2026-05-01T13:38:45.092Z</time></trkpt><trkpt lat="35.6497208" lon="8.5999573"><ele>673.0</ele><time>2026-05-01T13:38:46.087Z</time></trkpt><trkpt lat="35.6497247" lon="8.5997512"><ele>673.0</ele><time>2026-05-01T13:38:47.073Z</time></trkpt><trkpt lat="35.649729" lon="8.599539"><ele>673.0</ele><time>2026-05-01T13:38:48.096Z</time></trkpt><trkpt lat="35.6497345" lon="8.5993279"><ele>673.0</ele><time>2026-05-01T13:38:49.091Z</time></trkpt><trkpt lat="35.6497412" lon="8.5991237"><ele>672.6666666666667</ele><time>2026-05-01T13:38:50.072Z</time></trkpt><trkpt lat="35.6497491" lon="8.5989153"><ele>672.3333333333334</ele><time>2026-05-01T13:38:51.078Z</time></trkpt><trkpt lat="35.6497618" lon="8.5987089"><ele>672.0</ele><time>2026-05-01T13:38:52.077Z</time></trkpt><trkpt lat="35.6497843" lon="8.5985031"><ele>671.6666666666666</ele><time>2026-05-01T13:38:53.083Z</time></trkpt><trkpt lat="35.6498115" lon="8.5982961"><ele>671.3333333333333</ele><time>2026-05-01T13:38:54.069Z</time></trkpt><trkpt lat="35.6498409" lon="8.5980925"><ele>671.0</ele><time>2026-05-01T13:38:55.085Z</time></trkpt><trkpt lat="35.6498738" lon="8.5978918"><ele>671.3333333333333</ele><time>2026-05-01T13:38:56.066Z</time></trkpt><trkpt lat="35.6499177" lon="8.597696"><ele>671.6666666666666</ele><time>2026-05-01T13:38:57.076Z</time></trkpt><trkpt lat="35.6499724" lon="8.5974996"><ele>672.0</ele><time>2026-05-01T13:38:58.083Z</time></trkpt><trkpt lat="35.6500354" lon="8.5973167"><ele>672.0</ele><time>2026-05-01T13:38:59.075Z</time></trkpt><trkpt lat="35.6501025" lon="8.5971343"><ele>672.0</ele><time>2026-05-01T13:39:00.073Z</time></trkpt><trkpt lat="35.6501781" lon="8.5969566"><ele>672.0</ele><time>2026-05-01T13:39:01.075Z</time></trkpt><trkpt lat="35.6502592" lon="8.5967775"><ele>671.3333333333334</ele><time>2026-05-01T13:39:02.078Z</time></trkpt><trkpt lat="35.6503438" lon="8.5966018"><ele>670.6666666666667</ele><time>2026-05-01T13:39:03.081Z</time></trkpt><trkpt lat="35.6504388" lon="8.5964328"><ele>670.0</ele><time>2026-05-01T13:39:04.096Z</time></trkpt><trkpt lat="35.6505403" lon="8.5962743"><ele>670.0</ele><time>2026-05-01T13:39:05.08Z</time></trkpt><trkpt lat="35.6506438" lon="8.5961227"><ele>670.0</ele><time>2026-05-01T13:39:06.085Z</time></trkpt><trkpt lat="35.6507495" lon="8.5959736"><ele>670.0</ele><time>2026-05-01T13:39:07.087Z</time></trkpt><trkpt lat="35.6508617" lon="8.5958327"><ele>670.0</ele><time>2026-05-01T13:39:08.074Z</time></trkpt><trkpt lat="35.6509801" lon="8.5956955"><ele>670.0</ele><time>2026-05-01T13:39:09.077Z</time></trkpt><trkpt lat="35.6511032" lon="8.5955649"><ele>670.0</ele><time>2026-05-01T13:39:10.076Z</time></trkpt><trkpt lat="35.6512255" lon="8.5954411"><ele>668.3333333333334</ele><time>2026-05-01T13:39:11.08Z</time></trkpt><trkpt lat="35.651358" lon="8.5953243"><ele>666.6666666666666</ele><time>2026-05-01T13:39:12.075Z</time></trkpt><trkpt lat="35.6514894" lon="8.5952141"><ele>665.0</ele><time>2026-05-01T13:39:13.08Z</time></trkpt><trkpt lat="35.6516185" lon="8.5951079"><ele>665.0</ele><time>2026-05-01T13:39:14.075Z</time></trkpt><trkpt lat="35.6517504" lon="8.594997"><ele>665.0</ele><time>2026-05-01T13:39:15.084Z</time></trkpt><trkpt lat="35.6518834" lon="8.5948817"><ele>665.0</ele><time>2026-05-01T13:39:16.082Z</time></trkpt><trkpt lat="35.6520178" lon="8.5947686"><ele>665.0</ele><time>2026-05-01T13:39:17.091Z</time></trkpt><trkpt lat="35.6521498" lon="8.5946601"><ele>665.0</ele><time>2026-05-01T13:39:18.078Z</time></trkpt><trkpt lat="35.6522779" lon="8.594555"><ele>665.0</ele><time>2026-05-01T13:39:19.078Z</time></trkpt><trkpt lat="35.6524094" lon="8.5944526"><ele>665.6666666666666</ele><time>2026-05-01T13:39:20.065Z</time></trkpt><trkpt lat="35.65254" lon="8.5943438"><ele>666.3333333333334</ele><time>2026-05-01T13:39:21.08Z</time></trkpt><trkpt lat="35.6526668" lon="8.5942384"><ele>667.0</ele><time>2026-05-01T13:39:22.093Z</time></trkpt><trkpt lat="35.6527967" lon="8.5941388"><ele>667.3333333333334</ele><time>2026-05-01T13:39:23.074Z</time></trkpt><trkpt lat="35.6529293" lon="8.5940276"><ele>667.6666666666666</ele><time>2026-05-01T13:39:24.08Z</time></trkpt><trkpt lat="35.6530579" lon="8.5939234"><ele>668.0</ele><time>2026-05-01T13:39:25.08Z</time></trkpt><trkpt lat="35.6531858" lon="8.5938241"><ele>668.0</ele><time>2026-05-01T13:39:26.083Z</time></trkpt><trkpt lat="35.6533176" lon="8.593726"><ele>668.0</ele><time>2026-05-01T13:39:27.079Z</time></trkpt><trkpt lat="35.6534478" lon="8.593641"><ele>668.0</ele><time>2026-05-01T13:39:28.08Z</time></trkpt><trkpt lat="35.6535798" lon="8.593563"><ele>668.0</ele><time>2026-05-01T13:39:29.068Z</time></trkpt><trkpt lat="35.6537137" lon="8.5934922"><ele>668.0</ele><time>2026-05-01T13:39:30.092Z</time></trkpt><trkpt lat="35.6538421" lon="8.5934228"><ele>668.0</ele><time>2026-05-01T13:39:31.074Z</time></trkpt><trkpt lat="35.6539658" lon="8.5933623"><ele>668.0</ele><time>2026-05-01T13:39:32.069Z</time></trkpt><trkpt lat="35.6540856" lon="8.593307"><ele>668.0</ele><time>2026-05-01T13:39:33.068Z</time></trkpt><trkpt lat="35.6541966" lon="8.5932622"><ele>668.0</ele><time>2026-05-01T13:39:34.07Z</time></trkpt><trkpt lat="35.6542967" lon="8.593219"><ele>668.0</ele><time>2026-05-01T13:39:35.089Z</time></trkpt><trkpt lat="35.6543942" lon="8.5931749"><ele>668.0</ele><time>2026-05-01T13:39:36.078Z</time></trkpt><trkpt lat="35.6544833" lon="8.5931321"><ele>668.0</ele><time>2026-05-01T13:39:37.079Z</time></trkpt><trkpt lat="35.6545634" lon="8.5931027"><ele>668.0</ele><time>2026-05-01T13:39:38.074Z</time></trkpt><trkpt lat="35.6546326" lon="8.5930745"><ele>667.8333333333333</ele><time>2026-05-01T13:39:39.078Z</time></trkpt><trkpt lat="35.6546973" lon="8.5930495"><ele>667.6666666666666</ele><time>2026-05-01T13:39:40.08Z</time></trkpt><trkpt lat="35.6547953" lon="8.5930167"><ele>667.5</ele><time>2026-05-01T13:39:42.073Z</time></trkpt><trkpt lat="35.6548806" lon="8.5929986"><ele>667.3333333333334</ele><time>2026-05-01T13:39:45.086Z</time></trkpt><trkpt lat="35.6549469" lon="8.593013"><ele>667.1666666666667</ele><time>2026-05-01T13:42:02.048Z</time></trkpt><trkpt lat="35.6550359" lon="8.5930422"><ele>667.0</ele><time>2026-05-01T13:42:04.053Z</time></trkpt><trkpt lat="35.6551025" lon="8.5930537"><ele>667.0</ele><time>2026-05-01T13:42:05.083Z</time></trkpt><trkpt lat="35.6551702" lon="8.593071"><ele>667.0</ele><time>2026-05-01T13:42:06.076Z</time></trkpt><trkpt lat="35.6553059" lon="8.5930671"><ele>667.0</ele><time>2026-05-01T13:42:08.059Z</time></trkpt><trkpt lat="35.6557442" lon="8.5928958"><ele>667.0</ele><time>2026-05-01T13:42:13.07Z</time></trkpt><trkpt lat="35.6558491" lon="8.5928676"><ele>667.0</ele><time>2026-05-01T13:42:14.119Z</time></trkpt><trkpt lat="35.6559597" lon="8.59285"><ele>667.0</ele><time>2026-05-01T13:42:15.052Z</time></trkpt><trkpt lat="35.6560688" lon="8.5928352"><ele>667.0</ele><time>2026-05-01T13:42:16.079Z</time></trkpt><trkpt lat="35.6561841" lon="8.5928346"><ele>667.0</ele><time>2026-05-01T13:42:17.047Z</time></trkpt><trkpt lat="35.6563027" lon="8.5928256"><ele>666.0</ele><time>2026-05-01T13:42:18.066Z</time></trkpt><trkpt lat="35.6564242" lon="8.5928203"><ele>665.0</ele><time>2026-05-01T13:42:19.058Z</time></trkpt><trkpt lat="35.6565404" lon="8.5928172"><ele>664.0</ele><time>2026-05-01T13:42:20.091Z</time></trkpt><trkpt lat="35.656672" lon="8.5928162"><ele>663.0</ele><time>2026-05-01T13:42:21.07Z</time></trkpt><trkpt lat="35.6568117" lon="8.5928111"><ele>662.6666666666666</ele><time>2026-05-01T13:42:22.092Z</time></trkpt><trkpt lat="35.6569626" lon="8.5928074"><ele>662.3333333333333</ele><time>2026-05-01T13:42:23.071Z</time></trkpt><trkpt lat="35.6571165" lon="8.5928041"><ele>662.0</ele><time>2026-05-01T13:42:24.142Z</time></trkpt><trkpt lat="35.6572791" lon="8.5928002"><ele>662.0</ele><time>2026-05-01T13:42:25.051Z</time></trkpt><trkpt lat="35.6574415" lon="8.5927921"><ele>662.0</ele><time>2026-05-01T13:42:26.058Z</time></trkpt><trkpt lat="35.6576106" lon="8.5927863"><ele>662.0</ele><time>2026-05-01T13:42:27.093Z</time></trkpt><trkpt lat="35.6577849" lon="8.5927756"><ele>663.0</ele><time>2026-05-01T13:42:28.063Z</time></trkpt><trkpt lat="35.6579675" lon="8.5927681"><ele>664.0</ele><time>2026-05-01T13:42:29.062Z</time></trkpt><trkpt lat="35.6581483" lon="8.5927576"><ele>665.0</ele><time>2026-05-01T13:42:30.065Z</time></trkpt><trkpt lat="35.6583294" lon="8.5927512"><ele>665.0</ele><time>2026-05-01T13:42:31.048Z</time></trkpt><trkpt lat="35.6585096" lon="8.5927478"><ele>665.0</ele><time>2026-05-01T13:42:32.065Z</time></trkpt><trkpt lat="35.6586919" lon="8.5927402"><ele>665.0</ele><time>2026-05-01T13:42:33.09Z</time></trkpt><trkpt lat="35.6588737" lon="8.592733"><ele>665.0</ele><time>2026-05-01T13:42:34.078Z</time></trkpt><trkpt lat="35.6590532" lon="8.5927241"><ele>665.0</ele><time>2026-05-01T13:42:35.074Z</time></trkpt><trkpt lat="35.6592369" lon="8.5927189"><ele>665.0</ele><time>2026-05-01T13:42:36.093Z</time></trkpt><trkpt lat="35.6594191" lon="8.592723"><ele>665.3333333333333</ele><time>2026-05-01T13:42:37.068Z</time></trkpt><trkpt lat="35.6596034" lon="8.5927416"><ele>665.6666666666666</ele><time>2026-05-01T13:42:38.071Z</time></trkpt><trkpt lat="35.6597932" lon="8.5927705"><ele>666.0</ele><time>2026-05-01T13:42:39.07Z</time></trkpt><trkpt lat="35.6599876" lon="8.5928003"><ele>666.0</ele><time>2026-05-01T13:42:40.086Z</time></trkpt><trkpt lat="35.6601843" lon="8.5928391"><ele>666.0</ele><time>2026-05-01T13:42:41.081Z</time></trkpt><trkpt lat="35.6603845" lon="8.5928965"><ele>666.0</ele><time>2026-05-01T13:42:42.075Z</time></trkpt><trkpt lat="35.6605838" lon="8.5929535"><ele>665.0</ele><time>2026-05-01T13:42:43.076Z</time></trkpt><trkpt lat="35.660782" lon="8.5930119"><ele>664.0</ele><time>2026-05-01T13:42:44.082Z</time></trkpt><trkpt lat="35.6609792" lon="8.5930717"><ele>663.0</ele><time>2026-05-01T13:42:45.075Z</time></trkpt><trkpt lat="35.6611772" lon="8.5931316"><ele>662.3333333333334</ele><time>2026-05-01T13:42:46.067Z</time></trkpt><trkpt lat="35.6613778" lon="8.5931939"><ele>661.6666666666667</ele><time>2026-05-01T13:42:47.09Z</time></trkpt><trkpt lat="35.6615787" lon="8.593256"><ele>661.0</ele><time>2026-05-01T13:42:48.085Z</time></trkpt><trkpt lat="35.6617838" lon="8.5933193"><ele>660.6666666666667</ele><time>2026-05-01T13:42:49.073Z</time></trkpt><trkpt lat="35.6619927" lon="8.5933843"><ele>660.3333333333334</ele><time>2026-05-01T13:42:50.073Z</time></trkpt><trkpt lat="35.6622024" lon="8.5934457"><ele>660.0</ele><time>2026-05-01T13:42:51.081Z</time></trkpt><trkpt lat="35.6624104" lon="8.5935062"><ele>660.0</ele><time>2026-05-01T13:42:52.091Z</time></trkpt><trkpt lat="35.6626182" lon="8.5935694"><ele>660.0</ele><time>2026-05-01T13:42:53.08Z</time></trkpt><trkpt lat="35.662825" lon="8.5936362"><ele>660.0</ele><time>2026-05-01T13:42:54.064Z</time></trkpt><trkpt lat="35.6630336" lon="8.5937056"><ele>659.6666666666666</ele><time>2026-05-01T13:42:55.07Z</time></trkpt><trkpt lat="35.663242" lon="8.5937695"><ele>659.3333333333333</ele><time>2026-05-01T13:42:56.069Z</time></trkpt><trkpt lat="35.6634486" lon="8.5938317"><ele>659.0</ele><time>2026-05-01T13:42:57.079Z</time></trkpt><trkpt lat="35.6636543" lon="8.5938926"><ele>659.0</ele><time>2026-05-01T13:42:58.072Z</time></trkpt><trkpt lat="35.6638529" lon="8.5939567"><ele>659.0</ele><time>2026-05-01T13:42:59.078Z</time></trkpt><trkpt lat="35.6640476" lon="8.5940195"><ele>659.0</ele><time>2026-05-01T13:43:00.073Z</time></trkpt><trkpt lat="35.6642397" lon="8.5940676"><ele>659.0</ele><time>2026-05-01T13:43:01.078Z</time></trkpt><trkpt lat="35.6644278" lon="8.5941049"><ele>659.0</ele><time>2026-05-01T13:43:02.071Z</time></trkpt><trkpt lat="35.6646153" lon="8.5941261"><ele>659.0</ele><time>2026-05-01T13:43:03.071Z</time></trkpt><trkpt lat="35.6648031" lon="8.5941239"><ele>658.6666666666666</ele><time>2026-05-01T13:43:04.068Z</time></trkpt><trkpt lat="35.6649923" lon="8.5941092"><ele>658.3333333333334</ele><time>2026-05-01T13:43:05.123Z</time></trkpt><trkpt lat="35.665183" lon="8.5940756"><ele>658.0</ele><time>2026-05-01T13:43:06.074Z</time></trkpt><trkpt lat="35.6653741" lon="8.5940414"><ele>657.6666666666667</ele><time>2026-05-01T13:43:07.073Z</time></trkpt><trkpt lat="35.6655543" lon="8.5940053"><ele>657.3333333333334</ele><time>2026-05-01T13:43:08.094Z</time></trkpt><trkpt lat="35.6657298" lon="8.593972"><ele>657.0</ele><time>2026-05-01T13:43:09.085Z</time></trkpt><trkpt lat="35.6659073" lon="8.5939339"><ele>657.0</ele><time>2026-05-01T13:43:10.087Z</time></trkpt><trkpt lat="35.6660758" lon="8.5939038"><ele>657.0</ele><time>2026-05-01T13:43:11.084Z</time></trkpt><trkpt lat="35.6662299" lon="8.5938725"><ele>657.0</ele><time>2026-05-01T13:43:12.071Z</time></trkpt><trkpt lat="35.666371" lon="8.5938434"><ele>657.25</ele><time>2026-05-01T13:43:13.081Z</time></trkpt><trkpt lat="35.6665002" lon="8.5938238"><ele>657.5</ele><time>2026-05-01T13:43:14.126Z</time></trkpt><trkpt lat="35.6666177" lon="8.5938021"><ele>657.75</ele><time>2026-05-01T13:43:15.069Z</time></trkpt><trkpt lat="35.6667302" lon="8.5937816"><ele>658.0</ele><time>2026-05-01T13:43:16.077Z</time></trkpt><trkpt lat="35.6668385" lon="8.593759"><ele>658.0</ele><time>2026-05-01T13:43:17.073Z</time></trkpt><trkpt lat="35.66695" lon="8.5937345"><ele>658.0</ele><time>2026-05-01T13:43:18.103Z</time></trkpt><trkpt lat="35.6670678" lon="8.5937106"><ele>658.0</ele><time>2026-05-01T13:43:19.079Z</time></trkpt><trkpt lat="35.6671864" lon="8.5936913"><ele>658.0</ele><time>2026-05-01T13:43:20.081Z</time></trkpt><trkpt lat="35.6673023" lon="8.5936709"><ele>657.8</ele><time>2026-05-01T13:43:21.077Z</time></trkpt><trkpt lat="35.6674166" lon="8.5936504"><ele>657.5999999999999</ele><time>2026-05-01T13:43:22.079Z</time></trkpt><trkpt lat="35.6675236" lon="8.5936268"><ele>657.4000000000001</ele><time>2026-05-01T13:43:23.088Z</time></trkpt><trkpt lat="35.6676303" lon="8.593608"><ele>657.2</ele><time>2026-05-01T13:43:24.091Z</time></trkpt><trkpt lat="35.6677394" lon="8.5935833"><ele>657.0</ele><time>2026-05-01T13:43:25.077Z</time></trkpt><trkpt lat="35.6678402" lon="8.5935635"><ele>657.0</ele><time>2026-05-01T13:43:26.07Z</time></trkpt><trkpt lat="35.6679364" lon="8.5935457"><ele>657.0</ele><time>2026-05-01T13:43:27.062Z</time></trkpt><trkpt lat="35.6680246" lon="8.5935326"><ele>657.0</ele><time>2026-05-01T13:43:28.083Z</time></trkpt><trkpt lat="35.6681137" lon="8.5935197"><ele>657.0</ele><time>2026-05-01T13:43:29.062Z</time></trkpt><trkpt lat="35.6681965" lon="8.5935078"><ele>657.0</ele><time>2026-05-01T13:43:30.069Z</time></trkpt><trkpt lat="35.6682729" lon="8.593496"><ele>657.0</ele><time>2026-05-01T13:43:31.067Z</time></trkpt><trkpt lat="35.6683525" lon="8.5934821"><ele>657.0</ele><time>2026-05-01T13:43:32.073Z</time></trkpt><trkpt lat="35.6684344" lon="8.5934672"><ele>657.0</ele><time>2026-05-01T13:43:33.069Z</time></trkpt><trkpt lat="35.6685287" lon="8.5934458"><ele>657.0</ele><time>2026-05-01T13:43:34.095Z</time></trkpt><trkpt lat="35.6686371" lon="8.5934249"><ele>657.0</ele><time>2026-05-01T13:43:35.07Z</time></trkpt><trkpt lat="35.6687504" lon="8.5933988"><ele>657.0</ele><time>2026-05-01T13:43:36.075Z</time></trkpt><trkpt lat="35.6688759" lon="8.5933741"><ele>656.75</ele><time>2026-05-01T13:43:37.083Z</time></trkpt><trkpt lat="35.6690085" lon="8.5933487"><ele>656.5</ele><time>2026-05-01T13:43:38.107Z</time></trkpt><trkpt lat="35.669149" lon="8.5933186"><ele>656.25</ele><time>2026-05-01T13:43:39.08Z</time></trkpt><trkpt lat="35.6692917" lon="8.5932907"><ele>656.0</ele><time>2026-05-01T13:43:40.086Z</time></trkpt><trkpt lat="35.6694461" lon="8.5932608"><ele>656.0</ele><time>2026-05-01T13:43:41.078Z</time></trkpt><trkpt lat="35.6696034" lon="8.5932303"><ele>656.0</ele><time>2026-05-01T13:43:42.078Z</time></trkpt><trkpt lat="35.6697649" lon="8.5931992"><ele>656.0</ele><time>2026-05-01T13:43:43.081Z</time></trkpt><trkpt lat="35.6699278" lon="8.5931649"><ele>656.0</ele><time>2026-05-01T13:43:44.073Z</time></trkpt><trkpt lat="35.6700854" lon="8.5931322"><ele>656.0</ele><time>2026-05-01T13:43:45.081Z</time></trkpt><trkpt lat="35.6702435" lon="8.5931039"><ele>656.0</ele><time>2026-05-01T13:43:46.072Z</time></trkpt><trkpt lat="35.6704021" lon="8.5930749"><ele>654.6666666666666</ele><time>2026-05-01T13:43:47.084Z</time></trkpt><trkpt lat="35.670564" lon="8.5930413"><ele>653.3333333333334</ele><time>2026-05-01T13:43:48.06Z</time></trkpt><trkpt lat="35.6707248" lon="8.5930097"><ele>652.0</ele><time>2026-05-01T13:43:49.07Z</time></trkpt><trkpt lat="35.6708828" lon="8.5929837"><ele>652.0</ele><time>2026-05-01T13:43:50.081Z</time></trkpt><trkpt lat="35.6710446" lon="8.5929493"><ele>652.0</ele><time>2026-05-01T13:43:51.056Z</time></trkpt><trkpt lat="35.6712167" lon="8.5929157"><ele>652.0</ele><time>2026-05-01T13:43:52.077Z</time></trkpt><trkpt lat="35.6713968" lon="8.5928781"><ele>652.3333333333334</ele><time>2026-05-01T13:43:53.077Z</time></trkpt><trkpt lat="35.6715802" lon="8.592839"><ele>652.6666666666666</ele><time>2026-05-01T13:43:54.076Z</time></trkpt><trkpt lat="35.6717626" lon="8.5928012"><ele>653.0</ele><time>2026-05-01T13:43:55.077Z</time></trkpt><trkpt lat="35.6719412" lon="8.5927639"><ele>653.0</ele><time>2026-05-01T13:43:56.077Z</time></trkpt><trkpt lat="35.6721229" lon="8.5927274"><ele>653.0</ele><time>2026-05-01T13:43:57.076Z</time></trkpt><trkpt lat="35.6723027" lon="8.5926954"><ele>653.0</ele><time>2026-05-01T13:43:58.094Z</time></trkpt><trkpt lat="35.6724835" lon="8.5926598"><ele>653.0</ele><time>2026-05-01T13:43:59.079Z</time></trkpt><trkpt lat="35.6726622" lon="8.5926244"><ele>653.0</ele><time>2026-05-01T13:44:00.068Z</time></trkpt><trkpt lat="35.6728395" lon="8.5925907"><ele>653.0</ele><time>2026-05-01T13:44:01.064Z</time></trkpt><trkpt lat="35.67302" lon="8.5925584"><ele>653.0</ele><time>2026-05-01T13:44:02.07Z</time></trkpt><trkpt lat="35.6732005" lon="8.5925248"><ele>653.0</ele><time>2026-05-01T13:44:03.072Z</time></trkpt><trkpt lat="35.67338" lon="8.592494"><ele>653.0</ele><time>2026-05-01T13:44:04.067Z</time></trkpt><trkpt lat="35.6735619" lon="8.5924635"><ele>652.6666666666666</ele><time>2026-05-01T13:44:05.072Z</time></trkpt><trkpt lat="35.6737488" lon="8.5924268"><ele>652.3333333333334</ele><time>2026-05-01T13:44:06.07Z</time></trkpt><trkpt lat="35.6739335" lon="8.5923894"><ele>652.0</ele><time>2026-05-01T13:44:07.077Z</time></trkpt><trkpt lat="35.6741196" lon="8.5923531"><ele>652.0</ele><time>2026-05-01T13:44:08.078Z</time></trkpt><trkpt lat="35.6743061" lon="8.5923161"><ele>652.0</ele><time>2026-05-01T13:44:09.069Z</time></trkpt><trkpt lat="35.674491" lon="8.5922792"><ele>652.0</ele><time>2026-05-01T13:44:10.077Z</time></trkpt><trkpt lat="35.6746754" lon="8.5922445"><ele>651.6666666666667</ele><time>2026-05-01T13:44:11.072Z</time></trkpt><trkpt lat="35.6748659" lon="8.5922045"><ele>651.3333333333334</ele><time>2026-05-01T13:44:12.075Z</time></trkpt><trkpt lat="35.6750502" lon="8.5921623"><ele>651.0</ele><time>2026-05-01T13:44:13.082Z</time></trkpt><trkpt lat="35.6752357" lon="8.5921249"><ele>650.3333333333334</ele><time>2026-05-01T13:44:14.08Z</time></trkpt><trkpt lat="35.6754168" lon="8.5920943"><ele>649.6666666666667</ele><time>2026-05-01T13:44:15.068Z</time></trkpt><trkpt lat="35.6756029" lon="8.592057"><ele>649.0</ele><time>2026-05-01T13:44:16.073Z</time></trkpt><trkpt lat="35.6757967" lon="8.5920238"><ele>649.0</ele><time>2026-05-01T13:44:17.077Z</time></trkpt><trkpt lat="35.675991" lon="8.5919874"><ele>649.0</ele><time>2026-05-01T13:44:18.066Z</time></trkpt><trkpt lat="35.6761849" lon="8.5919559"><ele>649.0</ele><time>2026-05-01T13:44:19.076Z</time></trkpt><trkpt lat="35.6763819" lon="8.5919174"><ele>649.0</ele><time>2026-05-01T13:44:20.08Z</time></trkpt><trkpt lat="35.6765827" lon="8.5918833"><ele>649.0</ele><time>2026-05-01T13:44:21.08Z</time></trkpt><trkpt lat="35.6767844" lon="8.5918447"><ele>649.0</ele><time>2026-05-01T13:44:22.076Z</time></trkpt><trkpt lat="35.6769871" lon="8.5918085"><ele>649.3333333333334</ele><time>2026-05-01T13:44:23.086Z</time></trkpt><trkpt lat="35.6771904" lon="8.5917724"><ele>649.6666666666666</ele><time>2026-05-01T13:44:24.08Z</time></trkpt><trkpt lat="35.6773901" lon="8.5917318"><ele>650.0</ele><time>2026-05-01T13:44:25.083Z</time></trkpt><trkpt lat="35.6775892" lon="8.5916901"><ele>649.0</ele><time>2026-05-01T13:44:26.077Z</time></trkpt><trkpt lat="35.6777882" lon="8.5916514"><ele>648.0</ele><time>2026-05-01T13:44:27.068Z</time></trkpt><trkpt lat="35.6779962" lon="8.5916142"><ele>647.0</ele><time>2026-05-01T13:44:28.099Z</time></trkpt><trkpt lat="35.6782177" lon="8.5915636"><ele>647.0</ele><time>2026-05-01T13:44:29.083Z</time></trkpt><trkpt lat="35.678446" lon="8.5915177"><ele>647.0</ele><time>2026-05-01T13:44:30.095Z</time></trkpt><trkpt lat="35.6786809" lon="8.5914698"><ele>646.5</ele><time>2026-05-01T13:44:31.086Z</time></trkpt><trkpt lat="35.6789152" lon="8.5914269"><ele>646.0</ele><time>2026-05-01T13:44:32.069Z</time></trkpt><trkpt lat="35.6791526" lon="8.5913792"><ele>646.0</ele><time>2026-05-01T13:44:33.078Z</time></trkpt><trkpt lat="35.679392" lon="8.5913337"><ele>646.0</ele><time>2026-05-01T13:44:34.071Z</time></trkpt><trkpt lat="35.67963" lon="8.5912846"><ele>645.5</ele><time>2026-05-01T13:44:35.084Z</time></trkpt><trkpt lat="35.6798702" lon="8.5912389"><ele>645.0</ele><time>2026-05-01T13:44:36.078Z</time></trkpt><trkpt lat="35.6801051" lon="8.5911942"><ele>645.0</ele><time>2026-05-01T13:44:37.083Z</time></trkpt><trkpt lat="35.6803441" lon="8.5911484"><ele>645.0</ele><time>2026-05-01T13:44:38.077Z</time></trkpt><trkpt lat="35.680583" lon="8.5910996"><ele>645.0</ele><time>2026-05-01T13:44:39.083Z</time></trkpt><trkpt lat="35.6808206" lon="8.5910534"><ele>645.0</ele><time>2026-05-01T13:44:40.077Z</time></trkpt><trkpt lat="35.6810538" lon="8.5910084"><ele>644.5</ele><time>2026-05-01T13:44:41.079Z</time></trkpt><trkpt lat="35.6812908" lon="8.5909651"><ele>644.0</ele><time>2026-05-01T13:44:42.087Z</time></trkpt><trkpt lat="35.6815287" lon="8.5909218"><ele>644.0</ele><time>2026-05-01T13:44:43.087Z</time></trkpt><trkpt lat="35.6817586" lon="8.5908773"><ele>644.0</ele><time>2026-05-01T13:44:44.061Z</time></trkpt><trkpt lat="35.6819876" lon="8.5908387"><ele>644.0</ele><time>2026-05-01T13:44:45.08Z</time></trkpt><trkpt lat="35.6822135" lon="8.5907946"><ele>644.0</ele><time>2026-05-01T13:44:46.07Z</time></trkpt><trkpt lat="35.6824333" lon="8.5907521"><ele>644.0</ele><time>2026-05-01T13:44:47.072Z</time></trkpt><trkpt lat="35.682653" lon="8.5907126"><ele>644.0</ele><time>2026-05-01T13:44:48.076Z</time></trkpt><trkpt lat="35.6828717" lon="8.5906683"><ele>644.0</ele><time>2026-05-01T13:44:49.08Z</time></trkpt><trkpt lat="35.6830928" lon="8.5906295"><ele>643.6666666666666</ele><time>2026-05-01T13:44:50.088Z</time></trkpt><trkpt lat="35.6833107" lon="8.5905872"><ele>643.3333333333334</ele><time>2026-05-01T13:44:51.081Z</time></trkpt><trkpt lat="35.6835236" lon="8.5905439"><ele>643.0</ele><time>2026-05-01T13:44:52.088Z</time></trkpt><trkpt lat="35.6837366" lon="8.5905075"><ele>643.0</ele><time>2026-05-01T13:44:53.076Z</time></trkpt><trkpt lat="35.6839462" lon="8.5904626"><ele>643.0</ele><time>2026-05-01T13:44:54.077Z</time></trkpt><trkpt lat="35.6841585" lon="8.590421"><ele>643.0</ele><time>2026-05-01T13:44:55.084Z</time></trkpt><trkpt lat="35.6843693" lon="8.5903777"><ele>643.0</ele><time>2026-05-01T13:44:56.08Z</time></trkpt><trkpt lat="35.6845849" lon="8.5903353"><ele>643.0</ele><time>2026-05-01T13:44:57.083Z</time></trkpt><trkpt lat="35.6847992" lon="8.5902928"><ele>643.0</ele><time>2026-05-01T13:44:58.076Z</time></trkpt><trkpt lat="35.6850154" lon="8.59025"><ele>643.0</ele><time>2026-05-01T13:44:59.076Z</time></trkpt><trkpt lat="35.6852345" lon="8.5902092"><ele>643.0</ele><time>2026-05-01T13:45:00.074Z</time></trkpt><trkpt lat="35.6854487" lon="8.5901686"><ele>643.0</ele><time>2026-05-01T13:45:01.097Z</time></trkpt><trkpt lat="35.6856666" lon="8.5901292"><ele>642.6666666666667</ele><time>2026-05-01T13:45:02.072Z</time></trkpt><trkpt lat="35.6858843" lon="8.5900863"><ele>642.3333333333334</ele><time>2026-05-01T13:45:03.065Z</time></trkpt><trkpt lat="35.6861026" lon="8.5900428"><ele>642.0</ele><time>2026-05-01T13:45:04.068Z</time></trkpt><trkpt lat="35.68632" lon="8.5899991"><ele>642.6666666666666</ele><time>2026-05-01T13:45:05.068Z</time></trkpt><trkpt lat="35.6865379" lon="8.5899591"><ele>643.3333333333333</ele><time>2026-05-01T13:45:06.08Z</time></trkpt><trkpt lat="35.6867566" lon="8.5899172"><ele>644.0</ele><time>2026-05-01T13:45:07.071Z</time></trkpt><trkpt lat="35.6869742" lon="8.589876"><ele>644.3333333333333</ele><time>2026-05-01T13:45:08.065Z</time></trkpt><trkpt lat="35.6871926" lon="8.5898319"><ele>644.6666666666666</ele><time>2026-05-01T13:45:09.08Z</time></trkpt><trkpt lat="35.6874174" lon="8.5897881"><ele>645.0</ele><time>2026-05-01T13:45:10.078Z</time></trkpt><trkpt lat="35.6876545" lon="8.589743"><ele>642.5</ele><time>2026-05-01T13:45:11.08Z</time></trkpt><trkpt lat="35.6878931" lon="8.5897019"><ele>640.0</ele><time>2026-05-01T13:45:12.078Z</time></trkpt><trkpt lat="35.6881369" lon="8.589652"><ele>640.0</ele><time>2026-05-01T13:45:13.071Z</time></trkpt><trkpt lat="35.6883836" lon="8.589605"><ele>640.0</ele><time>2026-05-01T13:45:14.08Z</time></trkpt><trkpt lat="35.6886285" lon="8.5895595"><ele>639.5</ele><time>2026-05-01T13:45:15.072Z</time></trkpt><trkpt lat="35.6888733" lon="8.5895158"><ele>639.0</ele><time>2026-05-01T13:45:16.07Z</time></trkpt><trkpt lat="35.6891157" lon="8.5894668"><ele>640.0</ele><time>2026-05-01T13:45:17.082Z</time></trkpt><trkpt lat="35.6893602" lon="8.5894171"><ele>641.0</ele><time>2026-05-01T13:45:18.09Z</time></trkpt><trkpt lat="35.6896052" lon="8.589369"><ele>641.0</ele><time>2026-05-01T13:45:19.081Z</time></trkpt><trkpt lat="35.6898483" lon="8.5893192"><ele>641.0</ele><time>2026-05-01T13:45:20.079Z</time></trkpt><trkpt lat="35.6900939" lon="8.5892733"><ele>640.5</ele><time>2026-05-01T13:45:21.075Z</time></trkpt><trkpt lat="35.6903338" lon="8.5892244"><ele>640.0</ele><time>2026-05-01T13:45:22.097Z</time></trkpt><trkpt lat="35.6905751" lon="8.5891812"><ele>640.0</ele><time>2026-05-01T13:45:23.082Z</time></trkpt><trkpt lat="35.6908114" lon="8.5891388"><ele>640.0</ele><time>2026-05-01T13:45:24.073Z</time></trkpt><trkpt lat="35.6910461" lon="8.5890906"><ele>639.0</ele><time>2026-05-01T13:45:25.071Z</time></trkpt><trkpt lat="35.691282" lon="8.5890477"><ele>638.0</ele><time>2026-05-01T13:45:26.062Z</time></trkpt><trkpt lat="35.69152" lon="8.5890012"><ele>638.0</ele><time>2026-05-01T13:45:27.067Z</time></trkpt><trkpt lat="35.6917557" lon="8.5889571"><ele>638.0</ele><time>2026-05-01T13:45:28.07Z</time></trkpt><trkpt lat="35.6919849" lon="8.5889092"><ele>638.0</ele><time>2026-05-01T13:45:29.073Z</time></trkpt><trkpt lat="35.6922163" lon="8.5888602"><ele>638.0</ele><time>2026-05-01T13:45:30.075Z</time></trkpt><trkpt lat="35.6924499" lon="8.5888177"><ele>638.0</ele><time>2026-05-01T13:45:31.067Z</time></trkpt><trkpt lat="35.692683" lon="8.5887801"><ele>638.0</ele><time>2026-05-01T13:45:32.074Z</time></trkpt><trkpt lat="35.6929166" lon="8.5887353"><ele>638.0</ele><time>2026-05-01T13:45:33.058Z</time></trkpt><trkpt lat="35.693146" lon="8.5886901"><ele>638.0</ele><time>2026-05-01T13:45:34.157Z</time></trkpt><trkpt lat="35.693371" lon="8.5886412"><ele>638.0</ele><time>2026-05-01T13:45:35.111Z</time></trkpt><trkpt lat="35.693593" lon="8.5885951"><ele>638.0</ele><time>2026-05-01T13:45:36.127Z</time></trkpt><trkpt lat="35.6938094" lon="8.588553"><ele>638.0</ele><time>2026-05-01T13:45:37.119Z</time></trkpt><trkpt lat="35.6940211" lon="8.5885169"><ele>638.0</ele><time>2026-05-01T13:45:38.124Z</time></trkpt><trkpt lat="35.6942339" lon="8.5884755"><ele>638.0</ele><time>2026-05-01T13:45:39.124Z</time></trkpt><trkpt lat="35.694443" lon="8.5884381"><ele>638.0</ele><time>2026-05-01T13:45:40.137Z</time></trkpt><trkpt lat="35.6946505" lon="8.5883998"><ele>638.3333333333333</ele><time>2026-05-01T13:45:41.14Z</time></trkpt><trkpt lat="35.6948564" lon="8.5883618"><ele>638.6666666666666</ele><time>2026-05-01T13:45:42.139Z</time></trkpt><trkpt lat="35.6950626" lon="8.588319"><ele>639.0</ele><time>2026-05-01T13:45:43.135Z</time></trkpt><trkpt lat="35.6952629" lon="8.5882776"><ele>639.0</ele><time>2026-05-01T13:45:44.137Z</time></trkpt><trkpt lat="35.6954601" lon="8.5882348"><ele>639.0</ele><time>2026-05-01T13:45:45.134Z</time></trkpt><trkpt lat="35.6956601" lon="8.588186"><ele>639.0</ele><time>2026-05-01T13:45:46.139Z</time></trkpt><trkpt lat="35.6958616" lon="8.5881463"><ele>639.0</ele><time>2026-05-01T13:45:47.111Z</time></trkpt><trkpt lat="35.6960616" lon="8.5881047"><ele>639.0</ele><time>2026-05-01T13:45:48.118Z</time></trkpt><trkpt lat="35.6962612" lon="8.5880703"><ele>639.0</ele><time>2026-05-01T13:45:49.135Z</time></trkpt><trkpt lat="35.6964593" lon="8.5880324"><ele>638.3333333333334</ele><time>2026-05-01T13:45:50.142Z</time></trkpt><trkpt lat="35.696661" lon="8.5879966"><ele>637.6666666666667</ele><time>2026-05-01T13:45:51.129Z</time></trkpt><trkpt lat="35.6968644" lon="8.5879591"><ele>637.0</ele><time>2026-05-01T13:45:52.148Z</time></trkpt><trkpt lat="35.6970696" lon="8.5879276"><ele>636.6666666666667</ele><time>2026-05-01T13:45:53.127Z</time></trkpt><trkpt lat="35.6972733" lon="8.5878861"><ele>636.3333333333334</ele><time>2026-05-01T13:45:54.142Z</time></trkpt><trkpt lat="35.6974802" lon="8.5878501"><ele>636.0</ele><time>2026-05-01T13:45:55.121Z</time></trkpt><trkpt lat="35.697686" lon="8.587806"><ele>636.0</ele><time>2026-05-01T13:45:56.131Z</time></trkpt><trkpt lat="35.6978944" lon="8.5877603"><ele>636.0</ele><time>2026-05-01T13:45:57.124Z</time></trkpt><trkpt lat="35.6981066" lon="8.5877173"><ele>636.0</ele><time>2026-05-01T13:45:58.127Z</time></trkpt><trkpt lat="35.6983283" lon="8.5876733"><ele>636.0</ele><time>2026-05-01T13:45:59.126Z</time></trkpt><trkpt lat="35.6985501" lon="8.5876315"><ele>636.0</ele><time>2026-05-01T13:46:00.136Z</time></trkpt><trkpt lat="35.6987728" lon="8.5875918"><ele>636.0</ele><time>2026-05-01T13:46:01.143Z</time></trkpt><trkpt lat="35.6989921" lon="8.5875518"><ele>635.6666666666666</ele><time>2026-05-01T13:46:02.142Z</time></trkpt><trkpt lat="35.6992176" lon="8.5875085"><ele>635.3333333333333</ele><time>2026-05-01T13:46:03.121Z</time></trkpt><trkpt lat="35.6994244" lon="8.5874652"><ele>635.0</ele><time>2026-05-01T13:46:04.142Z</time></trkpt><trkpt lat="35.6996473" lon="8.5874227"><ele>634.3333333333333</ele><time>2026-05-01T13:46:05.13Z</time></trkpt><trkpt lat="35.6998678" lon="8.5873779"><ele>633.6666666666666</ele><time>2026-05-01T13:46:06.138Z</time></trkpt><trkpt lat="35.7000854" lon="8.5873334"><ele>633.0</ele><time>2026-05-01T13:46:07.121Z</time></trkpt><trkpt lat="35.700301" lon="8.5872915"><ele>633.0</ele><time>2026-05-01T13:46:08.14Z</time></trkpt><trkpt lat="35.7005156" lon="8.5872522"><ele>633.0</ele><time>2026-05-01T13:46:09.128Z</time></trkpt><trkpt lat="35.7007303" lon="8.5872111"><ele>633.0</ele><time>2026-05-01T13:46:10.122Z</time></trkpt><trkpt lat="35.700945" lon="8.5871689"><ele>633.0</ele><time>2026-05-01T13:46:11.149Z</time></trkpt><trkpt lat="35.701159" lon="8.5871273"><ele>633.0</ele><time>2026-05-01T13:46:12.132Z</time></trkpt><trkpt lat="35.7013733" lon="8.5870865"><ele>633.0</ele><time>2026-05-01T13:46:13.14Z</time></trkpt><trkpt lat="35.7015873" lon="8.5870471"><ele>633.0</ele><time>2026-05-01T13:46:14.14Z</time></trkpt><trkpt lat="35.7017991" lon="8.5870062"><ele>633.0</ele><time>2026-05-01T13:46:15.137Z</time></trkpt><trkpt lat="35.7020122" lon="8.5869654"><ele>633.0</ele><time>2026-05-01T13:46:16.145Z</time></trkpt><trkpt lat="35.7022253" lon="8.5869246"><ele>633.0</ele><time>2026-05-01T13:46:17.131Z</time></trkpt><trkpt lat="35.7024353" lon="8.5868836"><ele>633.0</ele><time>2026-05-01T13:46:18.142Z</time></trkpt><trkpt lat="35.7026411" lon="8.5868421"><ele>633.0</ele><time>2026-05-01T13:46:19.149Z</time></trkpt><trkpt lat="35.7028469" lon="8.5867977"><ele>633.0</ele><time>2026-05-01T13:46:20.132Z</time></trkpt><trkpt lat="35.7030489" lon="8.5867586"><ele>633.0</ele><time>2026-05-01T13:46:21.141Z</time></trkpt><trkpt lat="35.7032436" lon="8.5867193"><ele>633.0</ele><time>2026-05-01T13:46:22.14Z</time></trkpt><trkpt lat="35.7034344" lon="8.586684"><ele>632.6666666666666</ele><time>2026-05-01T13:46:23.139Z</time></trkpt><trkpt lat="35.7036192" lon="8.5866488"><ele>632.3333333333333</ele><time>2026-05-01T13:46:24.142Z</time></trkpt><trkpt lat="35.7038026" lon="8.5866136"><ele>632.0</ele><time>2026-05-01T13:46:25.139Z</time></trkpt><trkpt lat="35.7039848" lon="8.5865807"><ele>632.0</ele><time>2026-05-01T13:46:26.137Z</time></trkpt><trkpt lat="35.7041696" lon="8.5865484"><ele>632.0</ele><time>2026-05-01T13:46:27.125Z</time></trkpt><trkpt lat="35.7043533" lon="8.5865136"><ele>632.0</ele><time>2026-05-01T13:46:28.122Z</time></trkpt><trkpt lat="35.7045373" lon="8.5864767"><ele>632.0</ele><time>2026-05-01T13:46:29.132Z</time></trkpt><trkpt lat="35.7047195" lon="8.5864401"><ele>632.0</ele><time>2026-05-01T13:46:30.132Z</time></trkpt><trkpt lat="35.7049023" lon="8.5864044"><ele>632.0</ele><time>2026-05-01T13:46:31.15Z</time></trkpt><trkpt lat="35.7050848" lon="8.5863685"><ele>631.6666666666666</ele><time>2026-05-01T13:46:32.139Z</time></trkpt><trkpt lat="35.7052669" lon="8.5863349"><ele>631.3333333333334</ele><time>2026-05-01T13:46:33.138Z</time></trkpt><trkpt lat="35.7054486" lon="8.5863026"><ele>631.0</ele><time>2026-05-01T13:46:34.146Z</time></trkpt><trkpt lat="35.7056269" lon="8.5862663"><ele>631.0</ele><time>2026-05-01T13:46:35.144Z</time></trkpt><trkpt lat="35.7058002" lon="8.5862313"><ele>631.0</ele><time>2026-05-01T13:46:36.133Z</time></trkpt><trkpt lat="35.7059691" lon="8.586197"><ele>631.0</ele><time>2026-05-01T13:46:37.139Z</time></trkpt><trkpt lat="35.7061391" lon="8.5861633"><ele>630.6666666666667</ele><time>2026-05-01T13:46:38.14Z</time></trkpt><trkpt lat="35.7063112" lon="8.5861313"><ele>630.3333333333334</ele><time>2026-05-01T13:46:39.138Z</time></trkpt><trkpt lat="35.7064856" lon="8.5860995"><ele>630.0</ele><time>2026-05-01T13:46:40.148Z</time></trkpt><trkpt lat="35.7066614" lon="8.5860669"><ele>630.0</ele><time>2026-05-01T13:46:41.141Z</time></trkpt><trkpt lat="35.7068433" lon="8.586035"><ele>630.0</ele><time>2026-05-01T13:46:42.129Z</time></trkpt><trkpt lat="35.7070251" lon="8.5860029"><ele>630.0</ele><time>2026-05-01T13:46:43.134Z</time></trkpt><trkpt lat="35.7072097" lon="8.585964"><ele>629.6666666666666</ele><time>2026-05-01T13:46:44.133Z</time></trkpt><trkpt lat="35.7073935" lon="8.5859216"><ele>629.3333333333333</ele><time>2026-05-01T13:46:45.131Z</time></trkpt><trkpt lat="35.7075778" lon="8.5858816"><ele>629.0</ele><time>2026-05-01T13:46:46.13Z</time></trkpt><trkpt lat="35.7077623" lon="8.5858501"><ele>629.0</ele><time>2026-05-01T13:46:47.128Z</time></trkpt><trkpt lat="35.707947" lon="8.5858178"><ele>629.0</ele><time>2026-05-01T13:46:48.148Z</time></trkpt><trkpt lat="35.70813" lon="8.5857844"><ele>629.0</ele><time>2026-05-01T13:46:49.128Z</time></trkpt><trkpt lat="35.7083122" lon="8.5857494"><ele>629.0</ele><time>2026-05-01T13:46:50.13Z</time></trkpt><trkpt lat="35.7084935" lon="8.5857148"><ele>629.0</ele><time>2026-05-01T13:46:51.147Z</time></trkpt><trkpt lat="35.7086745" lon="8.5856821"><ele>629.0</ele><time>2026-05-01T13:46:52.136Z</time></trkpt><trkpt lat="35.7088558" lon="8.585647"><ele>629.3333333333333</ele><time>2026-05-01T13:46:53.135Z</time></trkpt><trkpt lat="35.7090392" lon="8.585611"><ele>629.6666666666666</ele><time>2026-05-01T13:46:54.131Z</time></trkpt><trkpt lat="35.7092224" lon="8.5855735"><ele>630.0</ele><time>2026-05-01T13:46:55.138Z</time></trkpt><trkpt lat="35.7094072" lon="8.5855377"><ele>629.6666666666666</ele><time>2026-05-01T13:46:56.138Z</time></trkpt><trkpt lat="35.7095932" lon="8.5855016"><ele>629.3333333333333</ele><time>2026-05-01T13:46:57.128Z</time></trkpt><trkpt lat="35.7097799" lon="8.5854649"><ele>629.0</ele><time>2026-05-01T13:46:58.149Z</time></trkpt><trkpt lat="35.7099651" lon="8.5854276"><ele>629.0</ele><time>2026-05-01T13:46:59.135Z</time></trkpt><trkpt lat="35.7101509" lon="8.5853909"><ele>629.0</ele><time>2026-05-01T13:47:00.13Z</time></trkpt><trkpt lat="35.7103385" lon="8.5853559"><ele>629.0</ele><time>2026-05-01T13:47:01.117Z</time></trkpt><trkpt lat="35.7105259" lon="8.585322"><ele>629.3333333333333</ele><time>2026-05-01T13:47:02.141Z</time></trkpt><trkpt lat="35.710717" lon="8.5852895"><ele>629.6666666666666</ele><time>2026-05-01T13:47:03.134Z</time></trkpt><trkpt lat="35.7109068" lon="8.5852548"><ele>630.0</ele><time>2026-05-01T13:47:04.121Z</time></trkpt><trkpt lat="35.7110964" lon="8.5852182"><ele>630.3333333333334</ele><time>2026-05-01T13:47:05.13Z</time></trkpt><trkpt lat="35.7112858" lon="8.5851818"><ele>630.6666666666667</ele><time>2026-05-01T13:47:06.142Z</time></trkpt><trkpt lat="35.7114751" lon="8.5851445"><ele>631.0</ele><time>2026-05-01T13:47:07.144Z</time></trkpt><trkpt lat="35.7116654" lon="8.5851064"><ele>631.0</ele><time>2026-05-01T13:47:08.135Z</time></trkpt><trkpt lat="35.7118576" lon="8.5850694"><ele>631.0</ele><time>2026-05-01T13:47:09.138Z</time></trkpt><trkpt lat="35.7120504" lon="8.5850306"><ele>631.0</ele><time>2026-05-01T13:47:10.134Z</time></trkpt><trkpt lat="35.7122473" lon="8.5849914"><ele>630.6666666666667</ele><time>2026-05-01T13:47:11.129Z</time></trkpt><trkpt lat="35.7124495" lon="8.5849521"><ele>630.3333333333334</ele><time>2026-05-01T13:47:12.13Z</time></trkpt><trkpt lat="35.7126527" lon="8.5849131"><ele>630.0</ele><time>2026-05-01T13:47:13.132Z</time></trkpt><trkpt lat="35.7128606" lon="8.5848737"><ele>629.6666666666666</ele><time>2026-05-01T13:47:14.139Z</time></trkpt><trkpt lat="35.713079" lon="8.5848304"><ele>629.3333333333333</ele><time>2026-05-01T13:47:15.122Z</time></trkpt><trkpt lat="35.7133033" lon="8.584785"><ele>629.0</ele><time>2026-05-01T13:47:16.126Z</time></trkpt><trkpt lat="35.713527" lon="8.5847397"><ele>628.5</ele><time>2026-05-01T13:47:17.119Z</time></trkpt><trkpt lat="35.7137483" lon="8.5846944"><ele>628.0</ele><time>2026-05-01T13:47:18.141Z</time></trkpt><trkpt lat="35.7139706" lon="8.5846475"><ele>628.0</ele><time>2026-05-01T13:47:19.13Z</time></trkpt><trkpt lat="35.7141905" lon="8.5846035"><ele>628.0</ele><time>2026-05-01T13:47:20.131Z</time></trkpt><trkpt lat="35.7144122" lon="8.5845625"><ele>628.0</ele><time>2026-05-01T13:47:21.129Z</time></trkpt><trkpt lat="35.7146365" lon="8.5845216"><ele>628.0</ele><time>2026-05-01T13:47:22.137Z</time></trkpt><trkpt lat="35.7148669" lon="8.5844784"><ele>628.0</ele><time>2026-05-01T13:47:23.141Z</time></trkpt><trkpt lat="35.7151004" lon="8.5844325"><ele>628.5</ele><time>2026-05-01T13:47:24.133Z</time></trkpt><trkpt lat="35.7153358" lon="8.584387"><ele>629.0</ele><time>2026-05-01T13:47:25.137Z</time></trkpt><trkpt lat="35.7155748" lon="8.5843395"><ele>629.0</ele><time>2026-05-01T13:47:26.137Z</time></trkpt><trkpt lat="35.7158142" lon="8.5842925"><ele>629.0</ele><time>2026-05-01T13:47:27.128Z</time></trkpt><trkpt lat="35.716052" lon="8.5842464"><ele>629.0</ele><time>2026-05-01T13:47:28.152Z</time></trkpt><trkpt lat="35.7162916" lon="8.5841994"><ele>629.0</ele><time>2026-05-01T13:47:29.145Z</time></trkpt><trkpt lat="35.7165303" lon="8.5841523"><ele>629.0</ele><time>2026-05-01T13:47:30.144Z</time></trkpt><trkpt lat="35.7167673" lon="8.5841061"><ele>629.0</ele><time>2026-05-01T13:47:31.137Z</time></trkpt><trkpt lat="35.7170076" lon="8.5840588"><ele>629.0</ele><time>2026-05-01T13:47:32.139Z</time></trkpt><trkpt lat="35.7172448" lon="8.5840108"><ele>629.0</ele><time>2026-05-01T13:47:33.132Z</time></trkpt><trkpt lat="35.7174834" lon="8.5839598"><ele>629.0</ele><time>2026-05-01T13:47:34.136Z</time></trkpt><trkpt lat="35.7177194" lon="8.5839128"><ele>629.0</ele><time>2026-05-01T13:47:35.128Z</time></trkpt><trkpt lat="35.7179545" lon="8.5838717"><ele>628.5</ele><time>2026-05-01T13:47:36.126Z</time></trkpt><trkpt lat="35.7181864" lon="8.5838292"><ele>628.0</ele><time>2026-05-01T13:47:37.128Z</time></trkpt><trkpt lat="35.7184178" lon="8.5837842"><ele>627.5</ele><time>2026-05-01T13:47:38.146Z</time></trkpt><trkpt lat="35.7186487" lon="8.5837412"><ele>627.0</ele><time>2026-05-01T13:47:39.125Z</time></trkpt><trkpt lat="35.7188809" lon="8.5836961"><ele>626.0</ele><time>2026-05-01T13:47:40.127Z</time></trkpt><trkpt lat="35.719112" lon="8.5836515"><ele>625.0</ele><time>2026-05-01T13:47:41.138Z</time></trkpt><trkpt lat="35.7193434" lon="8.5836073"><ele>626.0</ele><time>2026-05-01T13:47:42.128Z</time></trkpt><trkpt lat="35.7195769" lon="8.5835641"><ele>627.0</ele><time>2026-05-01T13:47:43.152Z</time></trkpt><trkpt lat="35.7198084" lon="8.583518"><ele>627.0</ele><time>2026-05-01T13:47:44.129Z</time></trkpt><trkpt lat="35.7200387" lon="8.5834748"><ele>627.0</ele><time>2026-05-01T13:47:45.123Z</time></trkpt><trkpt lat="35.7202703" lon="8.5834299"><ele>627.0</ele><time>2026-05-01T13:47:46.139Z</time></trkpt><trkpt lat="35.7205016" lon="8.5833844"><ele>627.0</ele><time>2026-05-01T13:47:47.152Z</time></trkpt><trkpt lat="35.7207338" lon="8.5833396"><ele>627.0</ele><time>2026-05-01T13:47:48.14Z</time></trkpt><trkpt lat="35.7209665" lon="8.5832947"><ele>627.0</ele><time>2026-05-01T13:47:49.125Z</time></trkpt><trkpt lat="35.7211992" lon="8.5832514"><ele>625.5</ele><time>2026-05-01T13:47:50.148Z</time></trkpt><trkpt lat="35.7214333" lon="8.583205"><ele>624.0</ele><time>2026-05-01T13:47:51.123Z</time></trkpt><trkpt lat="35.7216737" lon="8.5831574"><ele>625.0</ele><time>2026-05-01T13:47:52.135Z</time></trkpt><trkpt lat="35.7219133" lon="8.5831083"><ele>626.0</ele><time>2026-05-01T13:47:53.125Z</time></trkpt><trkpt lat="35.722155" lon="8.5830614"><ele>626.0</ele><time>2026-05-01T13:47:54.144Z</time></trkpt><trkpt lat="35.7223986" lon="8.5830137"><ele>626.0</ele><time>2026-05-01T13:47:55.117Z</time></trkpt><trkpt lat="35.7226429" lon="8.582968"><ele>625.5</ele><time>2026-05-01T13:47:56.13Z</time></trkpt><trkpt lat="35.7228866" lon="8.5829233"><ele>625.0</ele><time>2026-05-01T13:47:57.126Z</time></trkpt><trkpt lat="35.7231287" lon="8.5828793"><ele>625.5</ele><time>2026-05-01T13:47:58.129Z</time></trkpt><trkpt lat="35.723369" lon="8.5828352"><ele>626.0</ele><time>2026-05-01T13:47:59.147Z</time></trkpt><trkpt lat="35.723607" lon="8.5827909"><ele>626.0</ele><time>2026-05-01T13:48:00.13Z</time></trkpt><trkpt lat="35.7238433" lon="8.5827453"><ele>626.0</ele><time>2026-05-01T13:48:01.148Z</time></trkpt><trkpt lat="35.7240799" lon="8.5826972"><ele>626.0</ele><time>2026-05-01T13:48:02.134Z</time></trkpt><trkpt lat="35.7243152" lon="8.58265"><ele>626.0</ele><time>2026-05-01T13:48:03.129Z</time></trkpt><trkpt lat="35.7245523" lon="8.5826032"><ele>625.0</ele><time>2026-05-01T13:48:04.138Z</time></trkpt><trkpt lat="35.7247858" lon="8.5825584"><ele>624.0</ele><time>2026-05-01T13:48:05.127Z</time></trkpt><trkpt lat="35.725021" lon="8.5825151"><ele>624.0</ele><time>2026-05-01T13:48:06.137Z</time></trkpt><trkpt lat="35.7252537" lon="8.5824712"><ele>624.0</ele><time>2026-05-01T13:48:07.124Z</time></trkpt><trkpt lat="35.7254855" lon="8.5824281"><ele>624.0</ele><time>2026-05-01T13:48:08.136Z</time></trkpt><trkpt lat="35.7257153" lon="8.5823831"><ele>624.0</ele><time>2026-05-01T13:48:09.151Z</time></trkpt><trkpt lat="35.7259462" lon="8.582338"><ele>624.0</ele><time>2026-05-01T13:48:10.131Z</time></trkpt><trkpt lat="35.7261767" lon="8.5822927"><ele>624.0</ele><time>2026-05-01T13:48:11.144Z</time></trkpt><trkpt lat="35.7264073" lon="8.5822466"><ele>624.0</ele><time>2026-05-01T13:48:12.133Z</time></trkpt><trkpt lat="35.7266469" lon="8.5821999"><ele>624.0</ele><time>2026-05-01T13:48:13.135Z</time></trkpt><trkpt lat="35.7268888" lon="8.5821529"><ele>624.0</ele><time>2026-05-01T13:48:14.133Z</time></trkpt><trkpt lat="35.7271286" lon="8.5821066"><ele>624.0</ele><time>2026-05-01T13:48:15.125Z</time></trkpt><trkpt lat="35.7273682" lon="8.5820604"><ele>623.5</ele><time>2026-05-01T13:48:16.135Z</time></trkpt><trkpt lat="35.7276042" lon="8.5820148"><ele>623.0</ele><time>2026-05-01T13:48:17.137Z</time></trkpt><trkpt lat="35.72784" lon="8.5819686"><ele>623.0</ele><time>2026-05-01T13:48:18.124Z</time></trkpt><trkpt lat="35.7280737" lon="8.5819244"><ele>623.0</ele><time>2026-05-01T13:48:19.134Z</time></trkpt><trkpt lat="35.7283062" lon="8.5818793"><ele>623.0</ele><time>2026-05-01T13:48:20.134Z</time></trkpt><trkpt lat="35.728541" lon="8.5818362"><ele>623.0</ele><time>2026-05-01T13:48:21.139Z</time></trkpt><trkpt lat="35.7287749" lon="8.581791"><ele>622.5</ele><time>2026-05-01T13:48:22.134Z</time></trkpt><trkpt lat="35.7290078" lon="8.5817496"><ele>622.0</ele><time>2026-05-01T13:48:23.124Z</time></trkpt><trkpt lat="35.7292394" lon="8.5817053"><ele>622.0</ele><time>2026-05-01T13:48:24.141Z</time></trkpt><trkpt lat="35.7294708" lon="8.5816607"><ele>622.0</ele><time>2026-05-01T13:48:25.145Z</time></trkpt><trkpt lat="35.7296991" lon="8.5816192"><ele>622.0</ele><time>2026-05-01T13:48:26.129Z</time></trkpt><trkpt lat="35.7299261" lon="8.581574"><ele>622.0</ele><time>2026-05-01T13:48:27.126Z</time></trkpt><trkpt lat="35.7301516" lon="8.5815311"><ele>621.0</ele><time>2026-05-01T13:48:28.127Z</time></trkpt><trkpt lat="35.7303753" lon="8.581488"><ele>620.0</ele><time>2026-05-01T13:48:29.123Z</time></trkpt><trkpt lat="35.7305988" lon="8.5814449"><ele>620.0</ele><time>2026-05-01T13:48:30.128Z</time></trkpt><trkpt lat="35.73082" lon="8.5814006"><ele>620.0</ele><time>2026-05-01T13:48:31.134Z</time></trkpt><trkpt lat="35.7310382" lon="8.5813586"><ele>620.0</ele><time>2026-05-01T13:48:32.139Z</time></trkpt><trkpt lat="35.7312583" lon="8.5813166"><ele>620.0</ele><time>2026-05-01T13:48:33.136Z</time></trkpt><trkpt lat="35.7314785" lon="8.5812719"><ele>620.0</ele><time>2026-05-01T13:48:34.121Z</time></trkpt><trkpt lat="35.731706" lon="8.5812282"><ele>620.5</ele><time>2026-05-01T13:48:35.127Z</time></trkpt><trkpt lat="35.7319339" lon="8.5811834"><ele>621.0</ele><time>2026-05-01T13:48:36.141Z</time></trkpt><trkpt lat="35.7321626" lon="8.5811388"><ele>619.5</ele><time>2026-05-01T13:48:37.134Z</time></trkpt><trkpt lat="35.7323952" lon="8.5810952"><ele>618.0</ele><time>2026-05-01T13:48:38.135Z</time></trkpt><trkpt lat="35.7326268" lon="8.581051"><ele>619.0</ele><time>2026-05-01T13:48:39.133Z</time></trkpt><trkpt lat="35.7328584" lon="8.5810082"><ele>620.0</ele><time>2026-05-01T13:48:40.137Z</time></trkpt><trkpt lat="35.7330881" lon="8.5809642"><ele>620.0</ele><time>2026-05-01T13:48:41.136Z</time></trkpt><trkpt lat="35.7333192" lon="8.5809202"><ele>620.0</ele><time>2026-05-01T13:48:42.137Z</time></trkpt><trkpt lat="35.7335489" lon="8.5808754"><ele>620.0</ele><time>2026-05-01T13:48:43.149Z</time></trkpt><trkpt lat="35.7337778" lon="8.5808309"><ele>620.0</ele><time>2026-05-01T13:48:44.127Z</time></trkpt><trkpt lat="35.7340062" lon="8.580786"><ele>620.0</ele><time>2026-05-01T13:48:45.139Z</time></trkpt><trkpt lat="35.7342352" lon="8.5807451"><ele>620.0</ele><time>2026-05-01T13:48:46.132Z</time></trkpt><trkpt lat="35.7344607" lon="8.5807017"><ele>619.5</ele><time>2026-05-01T13:48:47.143Z</time></trkpt><trkpt lat="35.7346874" lon="8.5806599"><ele>619.0</ele><time>2026-05-01T13:48:48.132Z</time></trkpt><trkpt lat="35.7349138" lon="8.5806164"><ele>619.0</ele><time>2026-05-01T13:48:49.124Z</time></trkpt><trkpt lat="35.7351377" lon="8.5805718"><ele>619.0</ele><time>2026-05-01T13:48:50.124Z</time></trkpt><trkpt lat="35.7353601" lon="8.5805281"><ele>618.6666666666667</ele><time>2026-05-01T13:48:51.146Z</time></trkpt><trkpt lat="35.7355819" lon="8.5804851"><ele>618.3333333333334</ele><time>2026-05-01T13:48:52.147Z</time></trkpt><trkpt lat="35.7358035" lon="8.5804424"><ele>618.0</ele><time>2026-05-01T13:48:53.131Z</time></trkpt><trkpt lat="35.7360253" lon="8.5803995"><ele>617.6666666666666</ele><time>2026-05-01T13:48:54.128Z</time></trkpt><trkpt lat="35.7362453" lon="8.5803595"><ele>617.3333333333333</ele><time>2026-05-01T13:48:55.138Z</time></trkpt><trkpt lat="35.7364624" lon="8.5803193"><ele>617.0</ele><time>2026-05-01T13:48:56.137Z</time></trkpt><trkpt lat="35.7366786" lon="8.5802778"><ele>616.6666666666666</ele><time>2026-05-01T13:48:57.139Z</time></trkpt><trkpt lat="35.7368943" lon="8.5802358"><ele>616.3333333333334</ele><time>2026-05-01T13:48:58.137Z</time></trkpt><trkpt lat="35.7371096" lon="8.5801928"><ele>616.0</ele><time>2026-05-01T13:48:59.138Z</time></trkpt><trkpt lat="35.737321" lon="8.5801488"><ele>616.0</ele><time>2026-05-01T13:49:00.133Z</time></trkpt><trkpt lat="35.7375326" lon="8.5801074"><ele>616.0</ele><time>2026-05-01T13:49:01.148Z</time></trkpt><trkpt lat="35.7377416" lon="8.5800689"><ele>616.0</ele><time>2026-05-01T13:49:02.135Z</time></trkpt><trkpt lat="35.7379451" lon="8.5800292"><ele>615.6666666666667</ele><time>2026-05-01T13:49:03.126Z</time></trkpt><trkpt lat="35.7381492" lon="8.5799876"><ele>615.3333333333334</ele><time>2026-05-01T13:49:04.141Z</time></trkpt><trkpt lat="35.7383497" lon="8.5799478"><ele>615.0</ele><time>2026-05-01T13:49:05.138Z</time></trkpt><trkpt lat="35.7385466" lon="8.5799064"><ele>616.0</ele><time>2026-05-01T13:49:06.122Z</time></trkpt><trkpt lat="35.7387434" lon="8.5798655"><ele>617.0</ele><time>2026-05-01T13:49:07.126Z</time></trkpt><trkpt lat="35.7389384" lon="8.5798252"><ele>618.0</ele><time>2026-05-01T13:49:08.13Z</time></trkpt><trkpt lat="35.7391328" lon="8.5797856"><ele>618.0</ele><time>2026-05-01T13:49:09.131Z</time></trkpt><trkpt lat="35.7393287" lon="8.5797499"><ele>618.0</ele><time>2026-05-01T13:49:10.131Z</time></trkpt><trkpt lat="35.7395265" lon="8.5797132"><ele>618.0</ele><time>2026-05-01T13:49:11.133Z</time></trkpt><trkpt lat="35.7397242" lon="8.5796786"><ele>618.6666666666666</ele><time>2026-05-01T13:49:12.138Z</time></trkpt><trkpt lat="35.7399226" lon="8.5796412"><ele>619.3333333333333</ele><time>2026-05-01T13:49:13.129Z</time></trkpt><trkpt lat="35.740121" lon="8.5796054"><ele>620.0</ele><time>2026-05-01T13:49:14.12Z</time></trkpt><trkpt lat="35.7403206" lon="8.5795681"><ele>620.0</ele><time>2026-05-01T13:49:15.144Z</time></trkpt><trkpt lat="35.7405142" lon="8.5795323"><ele>620.0</ele><time>2026-05-01T13:49:16.136Z</time></trkpt><trkpt lat="35.7407031" lon="8.5794983"><ele>620.0</ele><time>2026-05-01T13:49:17.129Z</time></trkpt><trkpt lat="35.7408867" lon="8.5794623"><ele>620.6666666666666</ele><time>2026-05-01T13:49:18.142Z</time></trkpt><trkpt lat="35.7410598" lon="8.5794295"><ele>621.3333333333334</ele><time>2026-05-01T13:49:19.12Z</time></trkpt><trkpt lat="35.7412347" lon="8.5793947"><ele>622.0</ele><time>2026-05-01T13:49:20.133Z</time></trkpt><trkpt lat="35.7414083" lon="8.5793583"><ele>622.0</ele><time>2026-05-01T13:49:21.138Z</time></trkpt><trkpt lat="35.741579" lon="8.5793241"><ele>622.0</ele><time>2026-05-01T13:49:22.127Z</time></trkpt><trkpt lat="35.7417473" lon="8.5792944"><ele>622.0</ele><time>2026-05-01T13:49:23.133Z</time></trkpt><trkpt lat="35.7419145" lon="8.5792644"><ele>621.6666666666667</ele><time>2026-05-01T13:49:24.138Z</time></trkpt><trkpt lat="35.742084" lon="8.5792328"><ele>621.3333333333334</ele><time>2026-05-01T13:49:25.13Z</time></trkpt><trkpt lat="35.7422513" lon="8.5792023"><ele>621.0</ele><time>2026-05-01T13:49:26.15Z</time></trkpt><trkpt lat="35.7424156" lon="8.5791691"><ele>621.0</ele><time>2026-05-01T13:49:27.133Z</time></trkpt><trkpt lat="35.7425796" lon="8.579139"><ele>621.0</ele><time>2026-05-01T13:49:28.139Z</time></trkpt><trkpt lat="35.7427465" lon="8.5791076"><ele>621.0</ele><time>2026-05-01T13:49:29.132Z</time></trkpt><trkpt lat="35.7429181" lon="8.5790734"><ele>620.3333333333334</ele><time>2026-05-01T13:49:30.129Z</time></trkpt><trkpt lat="35.7430935" lon="8.5790382"><ele>619.6666666666667</ele><time>2026-05-01T13:49:31.131Z</time></trkpt><trkpt lat="35.7432751" lon="8.5790022"><ele>619.0</ele><time>2026-05-01T13:49:32.125Z</time></trkpt><trkpt lat="35.743461" lon="8.5789644"><ele>618.0</ele><time>2026-05-01T13:49:33.126Z</time></trkpt><trkpt lat="35.7436514" lon="8.5789268"><ele>617.0</ele><time>2026-05-01T13:49:34.123Z</time></trkpt><trkpt lat="35.7438414" lon="8.5788883"><ele>616.0</ele><time>2026-05-01T13:49:35.132Z</time></trkpt><trkpt lat="35.7440357" lon="8.5788492"><ele>616.0</ele><time>2026-05-01T13:49:36.122Z</time></trkpt><trkpt lat="35.7442335" lon="8.5788118"><ele>616.0</ele><time>2026-05-01T13:49:37.125Z</time></trkpt><trkpt lat="35.7444324" lon="8.5787728"><ele>616.0</ele><time>2026-05-01T13:49:38.114Z</time></trkpt><trkpt lat="35.7446317" lon="8.5787333"><ele>616.0</ele><time>2026-05-01T13:49:39.124Z</time></trkpt><trkpt lat="35.7448313" lon="8.5786933"><ele>616.0</ele><time>2026-05-01T13:49:40.129Z</time></trkpt><trkpt lat="35.7450316" lon="8.578653"><ele>616.0</ele><time>2026-05-01T13:49:41.122Z</time></trkpt><trkpt lat="35.7452299" lon="8.5786156"><ele>614.3333333333334</ele><time>2026-05-01T13:49:42.132Z</time></trkpt><trkpt lat="35.7454298" lon="8.5785783"><ele>612.6666666666666</ele><time>2026-05-01T13:49:43.113Z</time></trkpt><trkpt lat="35.7456331" lon="8.5785396"><ele>611.0</ele><time>2026-05-01T13:49:44.125Z</time></trkpt><trkpt lat="35.7458353" lon="8.5785002"><ele>611.0</ele><time>2026-05-01T13:49:45.14Z</time></trkpt><trkpt lat="35.7460372" lon="8.5784612"><ele>611.0</ele><time>2026-05-01T13:49:46.133Z</time></trkpt><trkpt lat="35.7462393" lon="8.5784224"><ele>611.0</ele><time>2026-05-01T13:49:47.13Z</time></trkpt><trkpt lat="35.7464413" lon="8.5783807"><ele>610.6666666666666</ele><time>2026-05-01T13:49:48.143Z</time></trkpt><trkpt lat="35.746646" lon="8.5783404"><ele>610.3333333333334</ele><time>2026-05-01T13:49:49.117Z</time></trkpt><trkpt lat="35.7468525" lon="8.5783011"><ele>610.0</ele><time>2026-05-01T13:49:50.126Z</time></trkpt><trkpt lat="35.7470646" lon="8.5782616"><ele>610.0</ele><time>2026-05-01T13:49:51.125Z</time></trkpt><trkpt lat="35.747283" lon="8.5782208"><ele>610.0</ele><time>2026-05-01T13:49:52.129Z</time></trkpt><trkpt lat="35.7475078" lon="8.5781759"><ele>610.0</ele><time>2026-05-01T13:49:53.127Z</time></trkpt><trkpt lat="35.7477373" lon="8.5781321"><ele>610.0</ele><time>2026-05-01T13:49:54.142Z</time></trkpt><trkpt lat="35.7479661" lon="8.5780856"><ele>610.0</ele><time>2026-05-01T13:49:55.14Z</time></trkpt><trkpt lat="35.7481945" lon="8.5780395"><ele>610.0</ele><time>2026-05-01T13:49:56.13Z</time></trkpt><trkpt lat="35.7484212" lon="8.5779933"><ele>610.0</ele><time>2026-05-01T13:49:57.126Z</time></trkpt><trkpt lat="35.7486447" lon="8.5779511"><ele>610.0</ele><time>2026-05-01T13:49:58.126Z</time></trkpt><trkpt lat="35.7488657" lon="8.5779092"><ele>610.0</ele><time>2026-05-01T13:49:59.125Z</time></trkpt><trkpt lat="35.7490837" lon="8.5778683"><ele>610.0</ele><time>2026-05-01T13:50:00.114Z</time></trkpt><trkpt lat="35.7493015" lon="8.5778275"><ele>610.3333333333334</ele><time>2026-05-01T13:50:01.127Z</time></trkpt><trkpt lat="35.7495149" lon="8.577789"><ele>610.6666666666666</ele><time>2026-05-01T13:50:02.136Z</time></trkpt><trkpt lat="35.7497295" lon="8.5777496"><ele>611.0</ele><time>2026-05-01T13:50:03.135Z</time></trkpt><trkpt lat="35.7499389" lon="8.5777111"><ele>611.0</ele><time>2026-05-01T13:50:04.137Z</time></trkpt><trkpt lat="35.7501482" lon="8.5776698"><ele>611.0</ele><time>2026-05-01T13:50:05.129Z</time></trkpt><trkpt lat="35.7503577" lon="8.5776282"><ele>611.0</ele><time>2026-05-01T13:50:06.133Z</time></trkpt><trkpt lat="35.7505661" lon="8.5775865"><ele>611.0</ele><time>2026-05-01T13:50:07.133Z</time></trkpt><trkpt lat="35.7507753" lon="8.5775461"><ele>611.0</ele><time>2026-05-01T13:50:08.129Z</time></trkpt><trkpt lat="35.7509846" lon="8.5775076"><ele>611.0</ele><time>2026-05-01T13:50:09.135Z</time></trkpt><trkpt lat="35.7511963" lon="8.5774665"><ele>609.6666666666666</ele><time>2026-05-01T13:50:10.118Z</time></trkpt><trkpt lat="35.7514087" lon="8.5774241"><ele>608.3333333333334</ele><time>2026-05-01T13:50:11.135Z</time></trkpt><trkpt lat="35.7516221" lon="8.5773822"><ele>607.0</ele><time>2026-05-01T13:50:12.142Z</time></trkpt><trkpt lat="35.7518339" lon="8.5773403"><ele>607.6666666666667</ele><time>2026-05-01T13:50:13.132Z</time></trkpt><trkpt lat="35.7520452" lon="8.5772991"><ele>608.3333333333334</ele><time>2026-05-01T13:50:14.124Z</time></trkpt><trkpt lat="35.7522563" lon="8.5772575"><ele>609.0</ele><time>2026-05-01T13:50:15.143Z</time></trkpt><trkpt lat="35.7524659" lon="8.5772174"><ele>609.0</ele><time>2026-05-01T13:50:16.14Z</time></trkpt><trkpt lat="35.7526758" lon="8.5771765"><ele>609.0</ele><time>2026-05-01T13:50:17.126Z</time></trkpt><trkpt lat="35.752885" lon="8.5771344"><ele>609.0</ele><time>2026-05-01T13:50:18.119Z</time></trkpt><trkpt lat="35.7530921" lon="8.5770957"><ele>609.0</ele><time>2026-05-01T13:50:19.132Z</time></trkpt><trkpt lat="35.7533029" lon="8.577055"><ele>609.0</ele><time>2026-05-01T13:50:20.135Z</time></trkpt><trkpt lat="35.7535168" lon="8.5770143"><ele>609.0</ele><time>2026-05-01T13:50:21.135Z</time></trkpt><trkpt lat="35.7537312" lon="8.5769762"><ele>608.6666666666666</ele><time>2026-05-01T13:50:22.138Z</time></trkpt><trkpt lat="35.7539503" lon="8.5769346"><ele>608.3333333333333</ele><time>2026-05-01T13:50:23.12Z</time></trkpt><trkpt lat="35.7541656" lon="8.5768934"><ele>608.0</ele><time>2026-05-01T13:50:24.133Z</time></trkpt><trkpt lat="35.7543819" lon="8.5768504"><ele>607.6666666666666</ele><time>2026-05-01T13:50:25.127Z</time></trkpt><trkpt lat="35.754597" lon="8.576808"><ele>607.3333333333334</ele><time>2026-05-01T13:50:26.133Z</time></trkpt><trkpt lat="35.7548115" lon="8.5767662"><ele>607.0</ele><time>2026-05-01T13:50:27.128Z</time></trkpt><trkpt lat="35.7550264" lon="8.5767242"><ele>606.6666666666667</ele><time>2026-05-01T13:50:28.127Z</time></trkpt><trkpt lat="35.7552415" lon="8.5766815"><ele>606.3333333333334</ele><time>2026-05-01T13:50:29.128Z</time></trkpt><trkpt lat="35.7554552" lon="8.5766407"><ele>606.0</ele><time>2026-05-01T13:50:30.131Z</time></trkpt><trkpt lat="35.7556686" lon="8.5765991"><ele>606.0</ele><time>2026-05-01T13:50:31.153Z</time></trkpt><trkpt lat="35.7558817" lon="8.5765568"><ele>606.0</ele><time>2026-05-01T13:50:32.128Z</time></trkpt><trkpt lat="35.7560957" lon="8.5765139"><ele>606.0</ele><time>2026-05-01T13:50:33.14Z</time></trkpt><trkpt lat="35.7563093" lon="8.5764706"><ele>606.0</ele><time>2026-05-01T13:50:34.131Z</time></trkpt><trkpt lat="35.7565252" lon="8.5764274"><ele>606.0</ele><time>2026-05-01T13:50:35.125Z</time></trkpt><trkpt lat="35.7567446" lon="8.576385"><ele>606.0</ele><time>2026-05-01T13:50:36.133Z</time></trkpt><trkpt lat="35.7569631" lon="8.576345"><ele>606.0</ele><time>2026-05-01T13:50:37.124Z</time></trkpt><trkpt lat="35.7571831" lon="8.5763018"><ele>606.0</ele><time>2026-05-01T13:50:38.124Z</time></trkpt><trkpt lat="35.7574015" lon="8.5762596"><ele>606.0</ele><time>2026-05-01T13:50:39.12Z</time></trkpt><trkpt lat="35.7576177" lon="8.5762151"><ele>605.6666666666666</ele><time>2026-05-01T13:50:40.122Z</time></trkpt><trkpt lat="35.7578324" lon="8.5761734"><ele>605.3333333333333</ele><time>2026-05-01T13:50:41.134Z</time></trkpt><trkpt lat="35.7580453" lon="8.5761344"><ele>605.0</ele><time>2026-05-01T13:50:42.115Z</time></trkpt><trkpt lat="35.7582588" lon="8.5760915"><ele>605.0</ele><time>2026-05-01T13:50:43.126Z</time></trkpt><trkpt lat="35.7584706" lon="8.5760487"><ele>605.0</ele><time>2026-05-01T13:50:44.121Z</time></trkpt><trkpt lat="35.7586804" lon="8.5760059"><ele>605.0</ele><time>2026-05-01T13:50:45.133Z</time></trkpt><trkpt lat="35.7588906" lon="8.5759666"><ele>605.0</ele><time>2026-05-01T13:50:46.119Z</time></trkpt><trkpt lat="35.7591036" lon="8.5759263"><ele>605.0</ele><time>2026-05-01T13:50:47.125Z</time></trkpt><trkpt lat="35.7593181" lon="8.5758846"><ele>605.0</ele><time>2026-05-01T13:50:48.12Z</time></trkpt><trkpt lat="35.7595334" lon="8.5758427"><ele>604.6666666666666</ele><time>2026-05-01T13:50:49.126Z</time></trkpt><trkpt lat="35.7597505" lon="8.5758012"><ele>604.3333333333334</ele><time>2026-05-01T13:50:50.13Z</time></trkpt><trkpt lat="35.7599691" lon="8.5757604"><ele>604.0</ele><time>2026-05-01T13:50:51.129Z</time></trkpt><trkpt lat="35.760184" lon="8.5757219"><ele>603.6666666666667</ele><time>2026-05-01T13:50:52.125Z</time></trkpt><trkpt lat="35.7603964" lon="8.5756821"><ele>603.3333333333334</ele><time>2026-05-01T13:50:53.126Z</time></trkpt><trkpt lat="35.7606073" lon="8.5756418"><ele>603.0</ele><time>2026-05-01T13:50:54.131Z</time></trkpt><trkpt lat="35.7608182" lon="8.5756017"><ele>603.0</ele><time>2026-05-01T13:50:55.121Z</time></trkpt><trkpt lat="35.7610298" lon="8.5755604"><ele>603.0</ele><time>2026-05-01T13:50:56.133Z</time></trkpt><trkpt lat="35.7612397" lon="8.5755184"><ele>603.0</ele><time>2026-05-01T13:50:57.119Z</time></trkpt><trkpt lat="35.7614506" lon="8.5754758"><ele>603.0</ele><time>2026-05-01T13:50:58.117Z</time></trkpt><trkpt lat="35.7616595" lon="8.5754331"><ele>603.0</ele><time>2026-05-01T13:50:59.119Z</time></trkpt><trkpt lat="35.7618683" lon="8.5753925"><ele>603.0</ele><time>2026-05-01T13:51:00.122Z</time></trkpt><trkpt lat="35.7620799" lon="8.57535"><ele>603.0</ele><time>2026-05-01T13:51:01.116Z</time></trkpt><trkpt lat="35.7622922" lon="8.5753097"><ele>603.0</ele><time>2026-05-01T13:51:02.121Z</time></trkpt><trkpt lat="35.7625041" lon="8.5752707"><ele>603.0</ele><time>2026-05-01T13:51:03.124Z</time></trkpt><trkpt lat="35.7627178" lon="8.5752319"><ele>603.0</ele><time>2026-05-01T13:51:04.132Z</time></trkpt><trkpt lat="35.7629306" lon="8.5751926"><ele>603.0</ele><time>2026-05-01T13:51:05.125Z</time></trkpt><trkpt lat="35.7631419" lon="8.5751531"><ele>603.0</ele><time>2026-05-01T13:51:06.138Z</time></trkpt><trkpt lat="35.7633542" lon="8.5751113"><ele>602.3333333333334</ele><time>2026-05-01T13:51:07.129Z</time></trkpt><trkpt lat="35.7635664" lon="8.5750679"><ele>601.6666666666667</ele><time>2026-05-01T13:51:08.123Z</time></trkpt><trkpt lat="35.7637819" lon="8.575026"><ele>601.0</ele><time>2026-05-01T13:51:09.13Z</time></trkpt><trkpt lat="35.7639959" lon="8.5749831"><ele>601.0</ele><time>2026-05-01T13:51:10.134Z</time></trkpt><trkpt lat="35.7642104" lon="8.5749405"><ele>601.0</ele><time>2026-05-01T13:51:11.136Z</time></trkpt><trkpt lat="35.7644229" lon="8.5748968"><ele>601.0</ele><time>2026-05-01T13:51:12.124Z</time></trkpt><trkpt lat="35.7646325" lon="8.5748555"><ele>601.0</ele><time>2026-05-01T13:51:13.136Z</time></trkpt><trkpt lat="35.764841" lon="8.5748149"><ele>601.0</ele><time>2026-05-01T13:51:14.125Z</time></trkpt><trkpt lat="35.7650475" lon="8.574777"><ele>601.0</ele><time>2026-05-01T13:51:15.134Z</time></trkpt><trkpt lat="35.7652542" lon="8.5747395"><ele>601.0</ele><time>2026-05-01T13:51:16.145Z</time></trkpt><trkpt lat="35.7654573" lon="8.5747047"><ele>601.0</ele><time>2026-05-01T13:51:17.128Z</time></trkpt><trkpt lat="35.7656599" lon="8.5746667"><ele>601.0</ele><time>2026-05-01T13:51:18.127Z</time></trkpt><trkpt lat="35.7658662" lon="8.5746277"><ele>600.6666666666667</ele><time>2026-05-01T13:51:19.127Z</time></trkpt><trkpt lat="35.7660672" lon="8.5745872"><ele>600.3333333333334</ele><time>2026-05-01T13:51:20.138Z</time></trkpt><trkpt lat="35.7662663" lon="8.5745494"><ele>600.0</ele><time>2026-05-01T13:51:21.144Z</time></trkpt><trkpt lat="35.7664665" lon="8.5745124"><ele>600.0</ele><time>2026-05-01T13:51:22.147Z</time></trkpt><trkpt lat="35.7666641" lon="8.5744765"><ele>600.0</ele><time>2026-05-01T13:51:23.131Z</time></trkpt><trkpt lat="35.7668633" lon="8.5744382"><ele>600.0</ele><time>2026-05-01T13:51:24.141Z</time></trkpt><trkpt lat="35.7670635" lon="8.5743994"><ele>600.0</ele><time>2026-05-01T13:51:25.135Z</time></trkpt><trkpt lat="35.767264" lon="8.5743595"><ele>600.0</ele><time>2026-05-01T13:51:26.14Z</time></trkpt><trkpt lat="35.7674627" lon="8.5743204"><ele>600.0</ele><time>2026-05-01T13:51:27.126Z</time></trkpt><trkpt lat="35.7676619" lon="8.5742824"><ele>600.0</ele><time>2026-05-01T13:51:28.131Z</time></trkpt><trkpt lat="35.7678594" lon="8.5742441"><ele>600.0</ele><time>2026-05-01T13:51:29.124Z</time></trkpt><trkpt lat="35.7680597" lon="8.5742057"><ele>600.0</ele><time>2026-05-01T13:51:30.125Z</time></trkpt><trkpt lat="35.7682636" lon="8.5741671"><ele>600.0</ele><time>2026-05-01T13:51:31.121Z</time></trkpt><trkpt lat="35.7684678" lon="8.5741282"><ele>600.0</ele><time>2026-05-01T13:51:32.125Z</time></trkpt><trkpt lat="35.7686725" lon="8.5740891"><ele>600.0</ele><time>2026-05-01T13:51:33.147Z</time></trkpt><trkpt lat="35.7688786" lon="8.5740487"><ele>599.3333333333334</ele><time>2026-05-01T13:51:34.137Z</time></trkpt><trkpt lat="35.7690804" lon="8.5740089"><ele>598.6666666666667</ele><time>2026-05-01T13:51:35.141Z</time></trkpt><trkpt lat="35.769282" lon="8.573967"><ele>598.0</ele><time>2026-05-01T13:51:36.139Z</time></trkpt><trkpt lat="35.7694812" lon="8.5739276"><ele>598.0</ele><time>2026-05-01T13:51:37.13Z</time></trkpt><trkpt lat="35.7696799" lon="8.5738893"><ele>598.0</ele><time>2026-05-01T13:51:38.136Z</time></trkpt><trkpt lat="35.7698766" lon="8.5738509"><ele>598.0</ele><time>2026-05-01T13:51:39.125Z</time></trkpt><trkpt lat="35.7700716" lon="8.5738145"><ele>598.0</ele><time>2026-05-01T13:51:40.137Z</time></trkpt><trkpt lat="35.7702667" lon="8.5737765"><ele>598.0</ele><time>2026-05-01T13:51:41.124Z</time></trkpt><trkpt lat="35.770461" lon="8.5737382"><ele>598.0</ele><time>2026-05-01T13:51:42.133Z</time></trkpt><trkpt lat="35.7706531" lon="8.5737003"><ele>597.6666666666667</ele><time>2026-05-01T13:51:43.141Z</time></trkpt><trkpt lat="35.770848" lon="8.5736615"><ele>597.3333333333334</ele><time>2026-05-01T13:51:44.127Z</time></trkpt><trkpt lat="35.7710446" lon="8.5736234"><ele>597.0</ele><time>2026-05-01T13:51:45.136Z</time></trkpt><trkpt lat="35.7712432" lon="8.5735847"><ele>596.3333333333334</ele><time>2026-05-01T13:51:46.121Z</time></trkpt><trkpt lat="35.7714441" lon="8.5735462"><ele>595.6666666666667</ele><time>2026-05-01T13:51:47.122Z</time></trkpt><trkpt lat="35.7716448" lon="8.5735062"><ele>595.0</ele><time>2026-05-01T13:51:48.126Z</time></trkpt><trkpt lat="35.7718513" lon="8.5734665"><ele>595.6666666666667</ele><time>2026-05-01T13:51:49.121Z</time></trkpt><trkpt lat="35.7720567" lon="8.5734267"><ele>596.3333333333334</ele><time>2026-05-01T13:51:50.119Z</time></trkpt><trkpt lat="35.7722636" lon="8.573389"><ele>597.0</ele><time>2026-05-01T13:51:51.127Z</time></trkpt><trkpt lat="35.7724674" lon="8.57335"><ele>597.0</ele><time>2026-05-01T13:51:52.131Z</time></trkpt><trkpt lat="35.7726678" lon="8.5733116"><ele>597.0</ele><time>2026-05-01T13:51:53.135Z</time></trkpt><trkpt lat="35.7728663" lon="8.5732741"><ele>597.0</ele><time>2026-05-01T13:51:54.138Z</time></trkpt><trkpt lat="35.7730596" lon="8.5732349"><ele>596.3333333333334</ele><time>2026-05-01T13:51:55.127Z</time></trkpt><trkpt lat="35.7732539" lon="8.5731979"><ele>595.6666666666667</ele><time>2026-05-01T13:51:56.133Z</time></trkpt><trkpt lat="35.773447" lon="8.5731628"><ele>595.0</ele><time>2026-05-01T13:51:57.143Z</time></trkpt><trkpt lat="35.7736399" lon="8.5731267"><ele>595.0</ele><time>2026-05-01T13:51:58.123Z</time></trkpt><trkpt lat="35.7738315" lon="8.5730914"><ele>595.0</ele><time>2026-05-01T13:51:59.137Z</time></trkpt><trkpt lat="35.7740226" lon="8.5730544"><ele>595.0</ele><time>2026-05-01T13:52:00.127Z</time></trkpt><trkpt lat="35.7742152" lon="8.5730186"><ele>594.3333333333334</ele><time>2026-05-01T13:52:01.134Z</time></trkpt><trkpt lat="35.7744112" lon="8.5729817"><ele>593.6666666666666</ele><time>2026-05-01T13:52:02.121Z</time></trkpt><trkpt lat="35.7746071" lon="8.5729422"><ele>593.0</ele><time>2026-05-01T13:52:03.122Z</time></trkpt><trkpt lat="35.7748035" lon="8.5729023"><ele>593.0</ele><time>2026-05-01T13:52:04.131Z</time></trkpt><trkpt lat="35.7750035" lon="8.572863"><ele>593.0</ele><time>2026-05-01T13:52:05.13Z</time></trkpt><trkpt lat="35.7752093" lon="8.5728225"><ele>593.0</ele><time>2026-05-01T13:52:06.128Z</time></trkpt><trkpt lat="35.7754166" lon="8.5727828"><ele>593.3333333333333</ele><time>2026-05-01T13:52:07.124Z</time></trkpt><trkpt lat="35.7756244" lon="8.5727428"><ele>593.6666666666666</ele><time>2026-05-01T13:52:08.116Z</time></trkpt><trkpt lat="35.7758313" lon="8.5727037"><ele>594.0</ele><time>2026-05-01T13:52:09.118Z</time></trkpt><trkpt lat="35.7760383" lon="8.5726647"><ele>594.3333333333334</ele><time>2026-05-01T13:52:10.115Z</time></trkpt><trkpt lat="35.7762443" lon="8.5726249"><ele>594.6666666666667</ele><time>2026-05-01T13:52:11.125Z</time></trkpt><trkpt lat="35.7764486" lon="8.5725852"><ele>595.0</ele><time>2026-05-01T13:52:12.123Z</time></trkpt><trkpt lat="35.7766532" lon="8.5725463"><ele>594.6666666666667</ele><time>2026-05-01T13:52:13.115Z</time></trkpt><trkpt lat="35.7768594" lon="8.5725068"><ele>594.3333333333334</ele><time>2026-05-01T13:52:14.135Z</time></trkpt><trkpt lat="35.7770642" lon="8.5724672"><ele>594.0</ele><time>2026-05-01T13:52:15.132Z</time></trkpt><trkpt lat="35.7772717" lon="8.5724285"><ele>594.0</ele><time>2026-05-01T13:52:16.14Z</time></trkpt><trkpt lat="35.7774779" lon="8.5723896"><ele>594.0</ele><time>2026-05-01T13:52:17.124Z</time></trkpt><trkpt lat="35.7776839" lon="8.5723504"><ele>594.0</ele><time>2026-05-01T13:52:18.122Z</time></trkpt><trkpt lat="35.7778913" lon="8.5723077"><ele>593.6666666666666</ele><time>2026-05-01T13:52:19.117Z</time></trkpt><trkpt lat="35.7780999" lon="8.5722657"><ele>593.3333333333333</ele><time>2026-05-01T13:52:20.117Z</time></trkpt><trkpt lat="35.7783093" lon="8.5722237"><ele>593.0</ele><time>2026-05-01T13:52:21.115Z</time></trkpt><trkpt lat="35.7785201" lon="8.5721829"><ele>592.6666666666666</ele><time>2026-05-01T13:52:22.13Z</time></trkpt><trkpt lat="35.7787333" lon="8.5721422"><ele>592.3333333333334</ele><time>2026-05-01T13:52:23.139Z</time></trkpt><trkpt lat="35.7789452" lon="8.5721027"><ele>592.0</ele><time>2026-05-01T13:52:24.135Z</time></trkpt><trkpt lat="35.7791559" lon="8.5720615"><ele>592.0</ele><time>2026-05-01T13:52:25.136Z</time></trkpt><trkpt lat="35.7793638" lon="8.5720198"><ele>592.0</ele><time>2026-05-01T13:52:26.136Z</time></trkpt><trkpt lat="35.7795698" lon="8.5719767"><ele>592.0</ele><time>2026-05-01T13:52:27.126Z</time></trkpt><trkpt lat="35.7797757" lon="8.5719335"><ele>592.0</ele><time>2026-05-01T13:52:28.137Z</time></trkpt><trkpt lat="35.779983" lon="8.5718926"><ele>592.0</ele><time>2026-05-01T13:52:29.138Z</time></trkpt><trkpt lat="35.7801949" lon="8.5718529"><ele>592.0</ele><time>2026-05-01T13:52:30.137Z</time></trkpt><trkpt lat="35.7804109" lon="8.5718134"><ele>592.3333333333334</ele><time>2026-05-01T13:52:31.134Z</time></trkpt><trkpt lat="35.7806322" lon="8.5717728"><ele>592.6666666666666</ele><time>2026-05-01T13:52:32.113Z</time></trkpt><trkpt lat="35.7808548" lon="8.5717313"><ele>593.0</ele><time>2026-05-01T13:52:33.14Z</time></trkpt><trkpt lat="35.7810708" lon="8.5716876"><ele>592.0</ele><time>2026-05-01T13:52:34.122Z</time></trkpt><trkpt lat="35.7812884" lon="8.5716421"><ele>591.0</ele><time>2026-05-01T13:52:35.132Z</time></trkpt><trkpt lat="35.7815055" lon="8.5715961"><ele>590.0</ele><time>2026-05-01T13:52:36.135Z</time></trkpt><trkpt lat="35.7817251" lon="8.5715515"><ele>589.5</ele><time>2026-05-01T13:52:37.117Z</time></trkpt><trkpt lat="35.781953" lon="8.571499"><ele>589.0</ele><time>2026-05-01T13:52:38.124Z</time></trkpt><trkpt lat="35.7821872" lon="8.5714441"><ele>589.0</ele><time>2026-05-01T13:52:39.124Z</time></trkpt><trkpt lat="35.7824254" lon="8.5713909"><ele>589.0</ele><time>2026-05-01T13:52:40.129Z</time></trkpt><trkpt lat="35.7826627" lon="8.5713435"><ele>588.0</ele><time>2026-05-01T13:52:41.132Z</time></trkpt><trkpt lat="35.7828993" lon="8.5713036"><ele>587.0</ele><time>2026-05-01T13:52:42.137Z</time></trkpt><trkpt lat="35.7831346" lon="8.5712686"><ele>587.0</ele><time>2026-05-01T13:52:43.13Z</time></trkpt><trkpt lat="35.7833643" lon="8.5712342"><ele>587.0</ele><time>2026-05-01T13:52:44.133Z</time></trkpt><trkpt lat="35.7835909" lon="8.5711972"><ele>587.0</ele><time>2026-05-01T13:52:45.144Z</time></trkpt><trkpt lat="35.783812" lon="8.5711568"><ele>587.0</ele><time>2026-05-01T13:52:46.127Z</time></trkpt><trkpt lat="35.7840296" lon="8.5711154"><ele>587.0</ele><time>2026-05-01T13:52:47.133Z</time></trkpt><trkpt lat="35.7842441" lon="8.5710725"><ele>586.0</ele><time>2026-05-01T13:52:48.128Z</time></trkpt><trkpt lat="35.7844581" lon="8.5710293"><ele>585.0</ele><time>2026-05-01T13:52:49.122Z</time></trkpt><trkpt lat="35.7846669" lon="8.5709865"><ele>584.0</ele><time>2026-05-01T13:52:50.125Z</time></trkpt><trkpt lat="35.7848757" lon="8.5709465"><ele>584.0</ele><time>2026-05-01T13:52:51.122Z</time></trkpt><trkpt lat="35.7850824" lon="8.570906"><ele>584.0</ele><time>2026-05-01T13:52:52.118Z</time></trkpt><trkpt lat="35.7852886" lon="8.5708656"><ele>584.0</ele><time>2026-05-01T13:52:53.132Z</time></trkpt><trkpt lat="35.7854947" lon="8.5708271"><ele>584.3333333333333</ele><time>2026-05-01T13:52:54.136Z</time></trkpt><trkpt lat="35.785701" lon="8.5707879"><ele>584.6666666666666</ele><time>2026-05-01T13:52:55.133Z</time></trkpt><trkpt lat="35.7859056" lon="8.5707484"><ele>585.0</ele><time>2026-05-01T13:52:56.124Z</time></trkpt><trkpt lat="35.7861092" lon="8.570708"><ele>585.0</ele><time>2026-05-01T13:52:57.136Z</time></trkpt><trkpt lat="35.786312" lon="8.5706661"><ele>585.0</ele><time>2026-05-01T13:52:58.137Z</time></trkpt><trkpt lat="35.7865156" lon="8.5706226"><ele>585.0</ele><time>2026-05-01T13:52:59.118Z</time></trkpt><trkpt lat="35.7867196" lon="8.5705814"><ele>584.3333333333334</ele><time>2026-05-01T13:53:00.133Z</time></trkpt><trkpt lat="35.7869217" lon="8.5705398"><ele>583.6666666666667</ele><time>2026-05-01T13:53:01.129Z</time></trkpt><trkpt lat="35.7871265" lon="8.570502"><ele>583.0</ele><time>2026-05-01T13:53:02.132Z</time></trkpt><trkpt lat="35.7873296" lon="8.5704635"><ele>583.0</ele><time>2026-05-01T13:53:03.128Z</time></trkpt><trkpt lat="35.7875349" lon="8.5704249"><ele>583.0</ele><time>2026-05-01T13:53:04.135Z</time></trkpt><trkpt lat="35.7877404" lon="8.5703857"><ele>583.0</ele><time>2026-05-01T13:53:05.136Z</time></trkpt><trkpt lat="35.787947" lon="8.5703444"><ele>583.3333333333334</ele><time>2026-05-01T13:53:06.126Z</time></trkpt><trkpt lat="35.7881565" lon="8.570304"><ele>583.6666666666666</ele><time>2026-05-01T13:53:07.133Z</time></trkpt><trkpt lat="35.788364" lon="8.5702657"><ele>584.0</ele><time>2026-05-01T13:53:08.133Z</time></trkpt><trkpt lat="35.788573" lon="8.5702276"><ele>584.0</ele><time>2026-05-01T13:53:09.139Z</time></trkpt><trkpt lat="35.7887807" lon="8.5701909"><ele>584.0</ele><time>2026-05-01T13:53:10.132Z</time></trkpt><trkpt lat="35.7889876" lon="8.570151"><ele>584.0</ele><time>2026-05-01T13:53:11.13Z</time></trkpt><trkpt lat="35.789196" lon="8.5701127"><ele>584.0</ele><time>2026-05-01T13:53:12.121Z</time></trkpt><trkpt lat="35.7894008" lon="8.5700737"><ele>584.0</ele><time>2026-05-01T13:53:13.138Z</time></trkpt><trkpt lat="35.7896034" lon="8.5700349"><ele>584.0</ele><time>2026-05-01T13:53:14.131Z</time></trkpt><trkpt lat="35.789809" lon="8.5699927"><ele>584.0</ele><time>2026-05-01T13:53:15.134Z</time></trkpt><trkpt lat="35.7900155" lon="8.5699516"><ele>584.0</ele><time>2026-05-01T13:53:16.132Z</time></trkpt><trkpt lat="35.7902228" lon="8.5699105"><ele>584.0</ele><time>2026-05-01T13:53:17.124Z</time></trkpt><trkpt lat="35.79043" lon="8.5698725"><ele>584.0</ele><time>2026-05-01T13:53:18.139Z</time></trkpt><trkpt lat="35.7906354" lon="8.5698332"><ele>584.0</ele><time>2026-05-01T13:53:19.129Z</time></trkpt><trkpt lat="35.7908394" lon="8.5697946"><ele>584.0</ele><time>2026-05-01T13:53:20.114Z</time></trkpt><trkpt lat="35.7910433" lon="8.5697555"><ele>582.3333333333333</ele><time>2026-05-01T13:53:21.125Z</time></trkpt><trkpt lat="35.7912474" lon="8.5697147"><ele>580.6666666666666</ele><time>2026-05-01T13:53:22.125Z</time></trkpt><trkpt lat="35.7914482" lon="8.5696724"><ele>579.0</ele><time>2026-05-01T13:53:23.124Z</time></trkpt><trkpt lat="35.7916505" lon="8.5696321"><ele>579.3333333333334</ele><time>2026-05-01T13:53:24.119Z</time></trkpt><trkpt lat="35.7918517" lon="8.5695918"><ele>579.6666666666667</ele><time>2026-05-01T13:53:25.119Z</time></trkpt><trkpt lat="35.7920538" lon="8.5695525"><ele>580.0</ele><time>2026-05-01T13:53:26.14Z</time></trkpt><trkpt lat="35.7922549" lon="8.5695145"><ele>580.3333333333334</ele><time>2026-05-01T13:53:27.128Z</time></trkpt><trkpt lat="35.7924551" lon="8.5694776"><ele>580.6666666666666</ele><time>2026-05-01T13:53:28.132Z</time></trkpt><trkpt lat="35.7926535" lon="8.569439"><ele>581.0</ele><time>2026-05-01T13:53:29.13Z</time></trkpt><trkpt lat="35.7928538" lon="8.5694026"><ele>580.3333333333333</ele><time>2026-05-01T13:53:30.15Z</time></trkpt><trkpt lat="35.7930538" lon="8.5693655"><ele>579.6666666666666</ele><time>2026-05-01T13:53:31.126Z</time></trkpt><trkpt lat="35.7932525" lon="8.5693272"><ele>579.0</ele><time>2026-05-01T13:53:32.136Z</time></trkpt><trkpt lat="35.7934526" lon="8.5692892"><ele>579.0</ele><time>2026-05-01T13:53:33.132Z</time></trkpt><trkpt lat="35.7936564" lon="8.5692499"><ele>579.0</ele><time>2026-05-01T13:53:34.127Z</time></trkpt><trkpt lat="35.7938612" lon="8.5692095"><ele>579.0</ele><time>2026-05-01T13:53:35.15Z</time></trkpt><trkpt lat="35.7940656" lon="8.5691691"><ele>579.0</ele><time>2026-05-01T13:53:36.139Z</time></trkpt><trkpt lat="35.7942729" lon="8.5691298"><ele>579.0</ele><time>2026-05-01T13:53:37.136Z</time></trkpt><trkpt lat="35.7944795" lon="8.5690909"><ele>579.0</ele><time>2026-05-01T13:53:38.134Z</time></trkpt><trkpt lat="35.7946859" lon="8.569051"><ele>579.0</ele><time>2026-05-01T13:53:39.154Z</time></trkpt><trkpt lat="35.7948929" lon="8.5690129"><ele>579.0</ele><time>2026-05-01T13:53:40.134Z</time></trkpt><trkpt lat="35.7951007" lon="8.5689733"><ele>579.0</ele><time>2026-05-01T13:53:41.134Z</time></trkpt><trkpt lat="35.7953084" lon="8.5689336"><ele>579.0</ele><time>2026-05-01T13:53:42.133Z</time></trkpt><trkpt lat="35.7955268" lon="8.5688916"><ele>579.0</ele><time>2026-05-01T13:53:43.129Z</time></trkpt><trkpt lat="35.7957503" lon="8.5688457"><ele>579.0</ele><time>2026-05-01T13:53:44.141Z</time></trkpt><trkpt lat="35.7959797" lon="8.5687997"><ele>578.5</ele><time>2026-05-01T13:53:45.136Z</time></trkpt><trkpt lat="35.7962114" lon="8.5687546"><ele>578.0</ele><time>2026-05-01T13:53:46.135Z</time></trkpt><trkpt lat="35.7964445" lon="8.5687086"><ele>577.5</ele><time>2026-05-01T13:53:47.133Z</time></trkpt><trkpt lat="35.796678" lon="8.568664"><ele>577.0</ele><time>2026-05-01T13:53:48.129Z</time></trkpt><trkpt lat="35.7969108" lon="8.5686196"><ele>577.0</ele><time>2026-05-01T13:53:49.116Z</time></trkpt><trkpt lat="35.7971452" lon="8.5685754"><ele>577.0</ele><time>2026-05-01T13:53:50.124Z</time></trkpt><trkpt lat="35.7973801" lon="8.5685306"><ele>577.0</ele><time>2026-05-01T13:53:51.119Z</time></trkpt><trkpt lat="35.7976143" lon="8.5684864"><ele>577.0</ele><time>2026-05-01T13:53:52.122Z</time></trkpt><trkpt lat="35.7978456" lon="8.5684428"><ele>577.5</ele><time>2026-05-01T13:53:53.13Z</time></trkpt><trkpt lat="35.7980766" lon="8.568399"><ele>578.0</ele><time>2026-05-01T13:53:54.136Z</time></trkpt><trkpt lat="35.7983068" lon="8.5683541"><ele>577.0</ele><time>2026-05-01T13:53:55.14Z</time></trkpt><trkpt lat="35.7985352" lon="8.5683119"><ele>576.0</ele><time>2026-05-01T13:53:56.138Z</time></trkpt><trkpt lat="35.798764" lon="8.5682672"><ele>576.0</ele><time>2026-05-01T13:53:57.118Z</time></trkpt><trkpt lat="35.7989934" lon="8.5682208"><ele>576.0</ele><time>2026-05-01T13:53:58.135Z</time></trkpt><trkpt lat="35.7992234" lon="8.5681767"><ele>575.0</ele><time>2026-05-01T13:53:59.133Z</time></trkpt><trkpt lat="35.7994535" lon="8.5681292"><ele>574.0</ele><time>2026-05-01T13:54:00.134Z</time></trkpt><trkpt lat="35.7996847" lon="8.5680862"><ele>574.0</ele><time>2026-05-01T13:54:01.128Z</time></trkpt><trkpt lat="35.7999157" lon="8.5680432"><ele>574.0</ele><time>2026-05-01T13:54:02.121Z</time></trkpt><trkpt lat="35.8001466" lon="8.5680009"><ele>574.5</ele><time>2026-05-01T13:54:03.123Z</time></trkpt><trkpt lat="35.8003759" lon="8.5679583"><ele>575.0</ele><time>2026-05-01T13:54:04.134Z</time></trkpt><trkpt lat="35.8006072" lon="8.5679132"><ele>575.0</ele><time>2026-05-01T13:54:05.121Z</time></trkpt><trkpt lat="35.8008363" lon="8.5678687"><ele>575.0</ele><time>2026-05-01T13:54:06.127Z</time></trkpt><trkpt lat="35.8010644" lon="8.5678232"><ele>574.5</ele><time>2026-05-01T13:54:07.117Z</time></trkpt><trkpt lat="35.801294" lon="8.5677788"><ele>574.0</ele><time>2026-05-01T13:54:08.137Z</time></trkpt><trkpt lat="35.8015244" lon="8.5677347"><ele>574.0</ele><time>2026-05-01T13:54:09.128Z</time></trkpt><trkpt lat="35.8017548" lon="8.5676899"><ele>574.0</ele><time>2026-05-01T13:54:10.127Z</time></trkpt><trkpt lat="35.8019847" lon="8.5676447"><ele>573.5</ele><time>2026-05-01T13:54:11.136Z</time></trkpt><trkpt lat="35.8022158" lon="8.5676"><ele>573.0</ele><time>2026-05-01T13:54:12.133Z</time></trkpt><trkpt lat="35.8024454" lon="8.5675541"><ele>573.0</ele><time>2026-05-01T13:54:13.133Z</time></trkpt><trkpt lat="35.8026776" lon="8.5675078"><ele>573.0</ele><time>2026-05-01T13:54:14.121Z</time></trkpt><trkpt lat="35.8029063" lon="8.5674623"><ele>573.0</ele><time>2026-05-01T13:54:15.133Z</time></trkpt><trkpt lat="35.8031387" lon="8.5674165"><ele>573.0</ele><time>2026-05-01T13:54:16.128Z</time></trkpt><trkpt lat="35.8033686" lon="8.5673704"><ele>573.0</ele><time>2026-05-01T13:54:17.134Z</time></trkpt><trkpt lat="35.8035988" lon="8.5673235"><ele>573.0</ele><time>2026-05-01T13:54:18.131Z</time></trkpt><trkpt lat="35.8038277" lon="8.567282"><ele>573.0</ele><time>2026-05-01T13:54:19.131Z</time></trkpt><trkpt lat="35.8040579" lon="8.5672376"><ele>573.0</ele><time>2026-05-01T13:54:20.126Z</time></trkpt><trkpt lat="35.8042872" lon="8.5671934"><ele>572.6666666666666</ele><time>2026-05-01T13:54:21.146Z</time></trkpt><trkpt lat="35.8045019" lon="8.5671499"><ele>572.3333333333333</ele><time>2026-05-01T13:54:22.135Z</time></trkpt><trkpt lat="35.80471" lon="8.5671095"><ele>572.0</ele><time>2026-05-01T13:54:23.128Z</time></trkpt><trkpt lat="35.8049109" lon="8.5670722"><ele>572.0</ele><time>2026-05-01T13:54:24.133Z</time></trkpt><trkpt lat="35.8051049" lon="8.5670339"><ele>572.0</ele><time>2026-05-01T13:54:25.118Z</time></trkpt><trkpt lat="35.8052981" lon="8.5669986"><ele>572.0</ele><time>2026-05-01T13:54:26.133Z</time></trkpt><trkpt lat="35.8054926" lon="8.5669636"><ele>572.0</ele><time>2026-05-01T13:54:27.129Z</time></trkpt><trkpt lat="35.8056837" lon="8.5669287"><ele>572.0</ele><time>2026-05-01T13:54:28.127Z</time></trkpt><trkpt lat="35.8058762" lon="8.5668936"><ele>572.0</ele><time>2026-05-01T13:54:29.147Z</time></trkpt><trkpt lat="35.8060668" lon="8.5668583"><ele>570.3333333333333</ele><time>2026-05-01T13:54:30.129Z</time></trkpt><trkpt lat="35.8062543" lon="8.566826"><ele>568.6666666666666</ele><time>2026-05-01T13:54:31.118Z</time></trkpt><trkpt lat="35.8064455" lon="8.5667916"><ele>567.0</ele><time>2026-05-01T13:54:32.123Z</time></trkpt><trkpt lat="35.8066361" lon="8.5667588"><ele>564.3333333333334</ele><time>2026-05-01T13:54:33.132Z</time></trkpt><trkpt lat="35.8068292" lon="8.5667244"><ele>561.6666666666667</ele><time>2026-05-01T13:54:34.126Z</time></trkpt><trkpt lat="35.8070215" lon="8.5666879"><ele>559.0</ele><time>2026-05-01T13:54:35.127Z</time></trkpt><trkpt lat="35.8072143" lon="8.5666531"><ele>559.0</ele><time>2026-05-01T13:54:36.135Z</time></trkpt><trkpt lat="35.8074075" lon="8.566613"><ele>559.0</ele><time>2026-05-01T13:54:37.138Z</time></trkpt><trkpt lat="35.8075986" lon="8.5665745"><ele>559.0</ele><time>2026-05-01T13:54:38.143Z</time></trkpt><trkpt lat="35.8077892" lon="8.5665368"><ele>561.6666666666667</ele><time>2026-05-01T13:54:39.128Z</time></trkpt><trkpt lat="35.8079785" lon="8.5664993"><ele>564.3333333333334</ele><time>2026-05-01T13:54:40.143Z</time></trkpt><trkpt lat="35.8081744" lon="8.5664594"><ele>567.0</ele><time>2026-05-01T13:54:41.127Z</time></trkpt><trkpt lat="35.8083697" lon="8.5664195"><ele>568.3333333333334</ele><time>2026-05-01T13:54:42.142Z</time></trkpt><trkpt lat="35.8085643" lon="8.5663808"><ele>569.6666666666667</ele><time>2026-05-01T13:54:43.128Z</time></trkpt><trkpt lat="35.8087583" lon="8.5663416"><ele>571.0</ele><time>2026-05-01T13:54:44.134Z</time></trkpt><trkpt lat="35.8089523" lon="8.5663003"><ele>571.0</ele><time>2026-05-01T13:54:45.124Z</time></trkpt><trkpt lat="35.8091468" lon="8.5662591"><ele>571.0</ele><time>2026-05-01T13:54:46.121Z</time></trkpt><trkpt lat="35.8093435" lon="8.5662234"><ele>571.0</ele><time>2026-05-01T13:54:47.122Z</time></trkpt><trkpt lat="35.8095421" lon="8.5661834"><ele>570.6666666666667</ele><time>2026-05-01T13:54:48.135Z</time></trkpt><trkpt lat="35.8097449" lon="8.5661427"><ele>570.3333333333334</ele><time>2026-05-01T13:54:49.141Z</time></trkpt><trkpt lat="35.8099499" lon="8.5661022"><ele>570.0</ele><time>2026-05-01T13:54:50.14Z</time></trkpt><trkpt lat="35.8101547" lon="8.5660582"><ele>570.3333333333334</ele><time>2026-05-01T13:54:51.12Z</time></trkpt><trkpt lat="35.8103603" lon="8.5660154"><ele>570.6666666666667</ele><time>2026-05-01T13:54:52.125Z</time></trkpt><trkpt lat="35.8105614" lon="8.5659727"><ele>571.0</ele><time>2026-05-01T13:54:53.126Z</time></trkpt><trkpt lat="35.8107556" lon="8.5659336"><ele>571.0</ele><time>2026-05-01T13:54:54.134Z</time></trkpt><trkpt lat="35.8109475" lon="8.5658958"><ele>571.0</ele><time>2026-05-01T13:54:55.125Z</time></trkpt><trkpt lat="35.8111325" lon="8.5658598"><ele>571.0</ele><time>2026-05-01T13:54:56.133Z</time></trkpt><trkpt lat="35.8113166" lon="8.5658243"><ele>571.0</ele><time>2026-05-01T13:54:57.143Z</time></trkpt><trkpt lat="35.8115016" lon="8.5657865"><ele>571.0</ele><time>2026-05-01T13:54:58.143Z</time></trkpt><trkpt lat="35.8116894" lon="8.5657509"><ele>571.0</ele><time>2026-05-01T13:54:59.122Z</time></trkpt><trkpt lat="35.8118797" lon="8.5657156"><ele>570.6666666666667</ele><time>2026-05-01T13:55:00.137Z</time></trkpt><trkpt lat="35.8120726" lon="8.5656792"><ele>570.3333333333334</ele><time>2026-05-01T13:55:01.128Z</time></trkpt><trkpt lat="35.8122649" lon="8.5656442"><ele>570.0</ele><time>2026-05-01T13:55:02.138Z</time></trkpt><trkpt lat="35.8124571" lon="8.5656056"><ele>570.0</ele><time>2026-05-01T13:55:03.132Z</time></trkpt><trkpt lat="35.8126476" lon="8.5655694"><ele>570.0</ele><time>2026-05-01T13:55:04.133Z</time></trkpt><trkpt lat="35.8128389" lon="8.5655327"><ele>570.0</ele><time>2026-05-01T13:55:05.126Z</time></trkpt><trkpt lat="35.8130303" lon="8.5654954"><ele>570.0</ele><time>2026-05-01T13:55:06.142Z</time></trkpt><trkpt lat="35.8132181" lon="8.565461"><ele>570.0</ele><time>2026-05-01T13:55:07.134Z</time></trkpt><trkpt lat="35.8134083" lon="8.5654245"><ele>570.0</ele><time>2026-05-01T13:55:08.133Z</time></trkpt><trkpt lat="35.8135966" lon="8.5653895"><ele>569.6666666666666</ele><time>2026-05-01T13:55:09.122Z</time></trkpt><trkpt lat="35.813788" lon="8.5653524"><ele>569.3333333333333</ele><time>2026-05-01T13:55:10.129Z</time></trkpt><trkpt lat="35.813977" lon="8.5653156"><ele>569.0</ele><time>2026-05-01T13:55:11.123Z</time></trkpt><trkpt lat="35.8141681" lon="8.5652783"><ele>568.6666666666666</ele><time>2026-05-01T13:55:12.138Z</time></trkpt><trkpt lat="35.8143564" lon="8.5652416"><ele>568.3333333333334</ele><time>2026-05-01T13:55:13.133Z</time></trkpt><trkpt lat="35.8145335" lon="8.5652062"><ele>568.0</ele><time>2026-05-01T13:55:14.134Z</time></trkpt><trkpt lat="35.8147013" lon="8.5651747"><ele>568.0</ele><time>2026-05-01T13:55:15.125Z</time></trkpt><trkpt lat="35.8148637" lon="8.5651448"><ele>568.0</ele><time>2026-05-01T13:55:16.127Z</time></trkpt><trkpt lat="35.8150195" lon="8.5651172"><ele>568.0</ele><time>2026-05-01T13:55:17.136Z</time></trkpt><trkpt lat="35.8151668" lon="8.5650892"><ele>568.0</ele><time>2026-05-01T13:55:18.134Z</time></trkpt><trkpt lat="35.8153147" lon="8.5650623"><ele>568.0</ele><time>2026-05-01T13:55:19.126Z</time></trkpt><trkpt lat="35.8154659" lon="8.5650359"><ele>568.0</ele><time>2026-05-01T13:55:20.123Z</time></trkpt><trkpt lat="35.8156218" lon="8.5650063"><ele>568.0</ele><time>2026-05-01T13:55:21.122Z</time></trkpt><trkpt lat="35.8157808" lon="8.5649746"><ele>568.0</ele><time>2026-05-01T13:55:22.128Z</time></trkpt><trkpt lat="35.8159369" lon="8.5649426"><ele>568.0</ele><time>2026-05-01T13:55:23.129Z</time></trkpt><trkpt lat="35.816093" lon="8.5649105"><ele>568.0</ele><time>2026-05-01T13:55:24.141Z</time></trkpt><trkpt lat="35.8162489" lon="8.5648787"><ele>568.0</ele><time>2026-05-01T13:55:25.12Z</time></trkpt><trkpt lat="35.8164068" lon="8.5648463"><ele>568.0</ele><time>2026-05-01T13:55:26.124Z</time></trkpt><trkpt lat="35.8165641" lon="8.5648132"><ele>568.0</ele><time>2026-05-01T13:55:27.135Z</time></trkpt><trkpt lat="35.8167195" lon="8.5647813"><ele>568.0</ele><time>2026-05-01T13:55:28.142Z</time></trkpt><trkpt lat="35.8168783" lon="8.564747"><ele>568.0</ele><time>2026-05-01T13:55:29.135Z</time></trkpt><trkpt lat="35.8170357" lon="8.5647158"><ele>568.0</ele><time>2026-05-01T13:55:30.131Z</time></trkpt><trkpt lat="35.8171923" lon="8.564687"><ele>568.0</ele><time>2026-05-01T13:55:31.136Z</time></trkpt><trkpt lat="35.8173504" lon="8.564656"><ele>568.0</ele><time>2026-05-01T13:55:32.126Z</time></trkpt><trkpt lat="35.8175066" lon="8.5646263"><ele>568.0</ele><time>2026-05-01T13:55:33.13Z</time></trkpt><trkpt lat="35.8176652" lon="8.564595"><ele>568.0</ele><time>2026-05-01T13:55:34.138Z</time></trkpt><trkpt lat="35.8178224" lon="8.564566"><ele>568.0</ele><time>2026-05-01T13:55:35.14Z</time></trkpt><trkpt lat="35.8179808" lon="8.5645331"><ele>567.6666666666667</ele><time>2026-05-01T13:55:36.136Z</time></trkpt><trkpt lat="35.8181388" lon="8.5645005"><ele>567.3333333333334</ele><time>2026-05-01T13:55:37.135Z</time></trkpt><trkpt lat="35.818298" lon="8.5644704"><ele>567.0</ele><time>2026-05-01T13:55:38.133Z</time></trkpt><trkpt lat="35.8184569" lon="8.5644402"><ele>567.0</ele><time>2026-05-01T13:55:39.141Z</time></trkpt><trkpt lat="35.8186154" lon="8.5644117"><ele>567.0</ele><time>2026-05-01T13:55:40.137Z</time></trkpt><trkpt lat="35.8187735" lon="8.5643807"><ele>567.0</ele><time>2026-05-01T13:55:41.141Z</time></trkpt><trkpt lat="35.8189326" lon="8.5643512"><ele>567.0</ele><time>2026-05-01T13:55:42.141Z</time></trkpt><trkpt lat="35.8190873" lon="8.5643203"><ele>567.0</ele><time>2026-05-01T13:55:43.134Z</time></trkpt><trkpt lat="35.8192444" lon="8.5642949"><ele>567.0</ele><time>2026-05-01T13:55:44.135Z</time></trkpt><trkpt lat="35.819402" lon="8.5642621"><ele>567.3333333333334</ele><time>2026-05-01T13:55:45.132Z</time></trkpt><trkpt lat="35.8195562" lon="8.5642313"><ele>567.6666666666667</ele><time>2026-05-01T13:55:46.146Z</time></trkpt><trkpt lat="35.819714" lon="8.5641973"><ele>568.0</ele><time>2026-05-01T13:55:47.124Z</time></trkpt><trkpt lat="35.8198713" lon="8.5641667"><ele>568.0</ele><time>2026-05-01T13:55:48.124Z</time></trkpt><trkpt lat="35.8200304" lon="8.564138"><ele>568.0</ele><time>2026-05-01T13:55:49.137Z</time></trkpt><trkpt lat="35.8201897" lon="8.5641067"><ele>568.0</ele><time>2026-05-01T13:55:50.134Z</time></trkpt><trkpt lat="35.8203486" lon="8.5640737"><ele>567.6666666666667</ele><time>2026-05-01T13:55:51.133Z</time></trkpt><trkpt lat="35.8205047" lon="8.5640433"><ele>567.3333333333334</ele><time>2026-05-01T13:55:52.122Z</time></trkpt><trkpt lat="35.8206618" lon="8.5640136"><ele>567.0</ele><time>2026-05-01T13:55:53.129Z</time></trkpt><trkpt lat="35.8208184" lon="8.5639854"><ele>567.0</ele><time>2026-05-01T13:55:54.13Z</time></trkpt><trkpt lat="35.8209763" lon="8.5639533"><ele>567.0</ele><time>2026-05-01T13:55:55.129Z</time></trkpt><trkpt lat="35.8211323" lon="8.5639223"><ele>567.0</ele><time>2026-05-01T13:55:56.118Z</time></trkpt><trkpt lat="35.8212897" lon="8.5638937"><ele>567.6666666666666</ele><time>2026-05-01T13:55:57.131Z</time></trkpt><trkpt lat="35.8214477" lon="8.5638667"><ele>568.3333333333333</ele><time>2026-05-01T13:55:58.119Z</time></trkpt><trkpt lat="35.8216061" lon="8.5638368"><ele>569.0</ele><time>2026-05-01T13:55:59.136Z</time></trkpt><trkpt lat="35.8217656" lon="8.5638041"><ele>569.0</ele><time>2026-05-01T13:56:00.127Z</time></trkpt><trkpt lat="35.8219231" lon="8.5637715"><ele>569.0</ele><time>2026-05-01T13:56:01.131Z</time></trkpt><trkpt lat="35.8220824" lon="8.5637401"><ele>569.0</ele><time>2026-05-01T13:56:02.119Z</time></trkpt><trkpt lat="35.8222381" lon="8.5637063"><ele>568.6666666666666</ele><time>2026-05-01T13:56:03.116Z</time></trkpt><trkpt lat="35.8223989" lon="8.5636699"><ele>568.3333333333334</ele><time>2026-05-01T13:56:04.128Z</time></trkpt><trkpt lat="35.8225621" lon="8.5636176"><ele>568.0</ele><time>2026-05-01T13:56:05.135Z</time></trkpt><trkpt lat="35.8227311" lon="8.5635533"><ele>568.0</ele><time>2026-05-01T13:56:06.137Z</time></trkpt><trkpt lat="35.8229013" lon="8.5634798"><ele>568.0</ele><time>2026-05-01T13:56:07.116Z</time></trkpt><trkpt lat="35.8230734" lon="8.5633964"><ele>568.0</ele><time>2026-05-01T13:56:08.135Z</time></trkpt><trkpt lat="35.8232467" lon="8.5633062"><ele>568.0</ele><time>2026-05-01T13:56:09.118Z</time></trkpt><trkpt lat="35.823429" lon="8.5632106"><ele>568.0</ele><time>2026-05-01T13:56:10.139Z</time></trkpt><trkpt lat="35.8236152" lon="8.5631108"><ele>568.0</ele><time>2026-05-01T13:56:11.126Z</time></trkpt><trkpt lat="35.8238037" lon="8.5630094"><ele>568.0</ele><time>2026-05-01T13:56:12.123Z</time></trkpt><trkpt lat="35.8239939" lon="8.5629065"><ele>568.0</ele><time>2026-05-01T13:56:13.14Z</time></trkpt><trkpt lat="35.8241866" lon="8.5628013"><ele>568.0</ele><time>2026-05-01T13:56:14.131Z</time></trkpt><trkpt lat="35.8243807" lon="8.562696"><ele>567.6666666666667</ele><time>2026-05-01T13:56:15.127Z</time></trkpt><trkpt lat="35.8245737" lon="8.5625881"><ele>567.3333333333334</ele><time>2026-05-01T13:56:16.143Z</time></trkpt><trkpt lat="35.824767" lon="8.5624796"><ele>567.0</ele><time>2026-05-01T13:56:17.133Z</time></trkpt><trkpt lat="35.8249597" lon="8.5623698"><ele>566.3333333333334</ele><time>2026-05-01T13:56:18.144Z</time></trkpt><trkpt lat="35.8251535" lon="8.5622583"><ele>565.6666666666667</ele><time>2026-05-01T13:56:19.136Z</time></trkpt><trkpt lat="35.8253472" lon="8.5621463"><ele>565.0</ele><time>2026-05-01T13:56:20.13Z</time></trkpt><trkpt lat="35.8255377" lon="8.5620383"><ele>565.6666666666667</ele><time>2026-05-01T13:56:21.139Z</time></trkpt><trkpt lat="35.825728" lon="8.5619321"><ele>566.3333333333334</ele><time>2026-05-01T13:56:22.137Z</time></trkpt><trkpt lat="35.8259153" lon="8.5618287"><ele>567.0</ele><time>2026-05-01T13:56:23.129Z</time></trkpt><trkpt lat="35.8261055" lon="8.5617233"><ele>567.3333333333334</ele><time>2026-05-01T13:56:24.135Z</time></trkpt><trkpt lat="35.8262939" lon="8.5616163"><ele>567.6666666666667</ele><time>2026-05-01T13:56:25.121Z</time></trkpt><trkpt lat="35.8264816" lon="8.5615092"><ele>568.0</ele><time>2026-05-01T13:56:26.147Z</time></trkpt><trkpt lat="35.8266699" lon="8.5614046"><ele>568.3333333333334</ele><time>2026-05-01T13:56:27.129Z</time></trkpt><trkpt lat="35.8268591" lon="8.5613014"><ele>568.6666666666666</ele><time>2026-05-01T13:56:28.135Z</time></trkpt><trkpt lat="35.8270468" lon="8.5611967"><ele>569.0</ele><time>2026-05-01T13:56:29.127Z</time></trkpt><trkpt lat="35.827236" lon="8.5610909"><ele>569.3333333333333</ele><time>2026-05-01T13:56:30.131Z</time></trkpt><trkpt lat="35.8274283" lon="8.560985"><ele>569.6666666666666</ele><time>2026-05-01T13:56:31.139Z</time></trkpt><trkpt lat="35.8276211" lon="8.560878"><ele>570.0</ele><time>2026-05-01T13:56:32.13Z</time></trkpt><trkpt lat="35.8278142" lon="8.5607696"><ele>570.0</ele><time>2026-05-01T13:56:33.135Z</time></trkpt><trkpt lat="35.8280046" lon="8.5606624"><ele>570.0</ele><time>2026-05-01T13:56:34.148Z</time></trkpt><trkpt lat="35.8281945" lon="8.5605518"><ele>570.0</ele><time>2026-05-01T13:56:35.134Z</time></trkpt><trkpt lat="35.8283848" lon="8.5604432"><ele>569.6666666666666</ele><time>2026-05-01T13:56:36.135Z</time></trkpt><trkpt lat="35.8285772" lon="8.5603347"><ele>569.3333333333333</ele><time>2026-05-01T13:56:37.132Z</time></trkpt><trkpt lat="35.8287681" lon="8.5602259"><ele>569.0</ele><time>2026-05-01T13:56:38.124Z</time></trkpt><trkpt lat="35.82896" lon="8.5601179"><ele>569.0</ele><time>2026-05-01T13:56:39.122Z</time></trkpt><trkpt lat="35.8291506" lon="8.5600119"><ele>569.0</ele><time>2026-05-01T13:56:40.125Z</time></trkpt><trkpt lat="35.8293423" lon="8.5599057"><ele>569.0</ele><time>2026-05-01T13:56:41.127Z</time></trkpt><trkpt lat="35.8295342" lon="8.5597997"><ele>569.3333333333333</ele><time>2026-05-01T13:56:42.118Z</time></trkpt><trkpt lat="35.8297252" lon="8.5596934"><ele>569.6666666666666</ele><time>2026-05-01T13:56:43.126Z</time></trkpt><trkpt lat="35.829916" lon="8.5595874"><ele>570.0</ele><time>2026-05-01T13:56:44.134Z</time></trkpt><trkpt lat="35.8301032" lon="8.559481"><ele>570.0</ele><time>2026-05-01T13:56:45.134Z</time></trkpt><trkpt lat="35.8302935" lon="8.5593761"><ele>570.0</ele><time>2026-05-01T13:56:46.133Z</time></trkpt><trkpt lat="35.8304778" lon="8.5592735"><ele>570.0</ele><time>2026-05-01T13:56:47.141Z</time></trkpt><trkpt lat="35.8306602" lon="8.5591713"><ele>570.0</ele><time>2026-05-01T13:56:48.13Z</time></trkpt><trkpt lat="35.8308428" lon="8.5590683"><ele>570.0</ele><time>2026-05-01T13:56:49.117Z</time></trkpt><trkpt lat="35.8310225" lon="8.5589666"><ele>570.0</ele><time>2026-05-01T13:56:50.131Z</time></trkpt><trkpt lat="35.831202" lon="8.5588653"><ele>570.6666666666666</ele><time>2026-05-01T13:56:51.13Z</time></trkpt><trkpt lat="35.8313811" lon="8.5587649"><ele>571.3333333333333</ele><time>2026-05-01T13:56:52.131Z</time></trkpt><trkpt lat="35.8315627" lon="8.5586653"><ele>572.0</ele><time>2026-05-01T13:56:53.131Z</time></trkpt><trkpt lat="35.8317424" lon="8.5585643"><ele>572.0</ele><time>2026-05-01T13:56:54.131Z</time></trkpt><trkpt lat="35.8319235" lon="8.5584648"><ele>572.0</ele><time>2026-05-01T13:56:55.113Z</time></trkpt><trkpt lat="35.8321048" lon="8.558362"><ele>572.0</ele><time>2026-05-01T13:56:56.131Z</time></trkpt><trkpt lat="35.832285" lon="8.5582616"><ele>572.0</ele><time>2026-05-01T13:56:57.13Z</time></trkpt><trkpt lat="35.8324655" lon="8.5581602"><ele>572.0</ele><time>2026-05-01T13:56:58.135Z</time></trkpt><trkpt lat="35.8326461" lon="8.5580598"><ele>572.0</ele><time>2026-05-01T13:56:59.127Z</time></trkpt><trkpt lat="35.8328264" lon="8.557961"><ele>572.0</ele><time>2026-05-01T13:57:00.13Z</time></trkpt><trkpt lat="35.8330058" lon="8.5578598"><ele>572.0</ele><time>2026-05-01T13:57:01.143Z</time></trkpt><trkpt lat="35.8331857" lon="8.5577591"><ele>572.0</ele><time>2026-05-01T13:57:02.131Z</time></trkpt><trkpt lat="35.8333654" lon="8.5576569"><ele>573.0</ele><time>2026-05-01T13:57:03.138Z</time></trkpt><trkpt lat="35.8335465" lon="8.557555"><ele>574.0</ele><time>2026-05-01T13:57:04.131Z</time></trkpt><trkpt lat="35.833727" lon="8.5574522"><ele>575.0</ele><time>2026-05-01T13:57:05.136Z</time></trkpt><trkpt lat="35.8339079" lon="8.5573504"><ele>575.0</ele><time>2026-05-01T13:57:06.136Z</time></trkpt><trkpt lat="35.8340891" lon="8.557252"><ele>575.0</ele><time>2026-05-01T13:57:07.138Z</time></trkpt><trkpt lat="35.8342704" lon="8.5571512"><ele>575.0</ele><time>2026-05-01T13:57:08.107Z</time></trkpt><trkpt lat="35.8344512" lon="8.5570513"><ele>574.6666666666666</ele><time>2026-05-01T13:57:09.142Z</time></trkpt><trkpt lat="35.8346318" lon="8.5569497"><ele>574.3333333333334</ele><time>2026-05-01T13:57:10.13Z</time></trkpt><trkpt lat="35.8348128" lon="8.556847"><ele>574.0</ele><time>2026-05-01T13:57:11.13Z</time></trkpt><trkpt lat="35.8349938" lon="8.556742"><ele>573.6666666666667</ele><time>2026-05-01T13:57:12.126Z</time></trkpt><trkpt lat="35.8351737" lon="8.5566379"><ele>573.3333333333334</ele><time>2026-05-01T13:57:13.128Z</time></trkpt><trkpt lat="35.835356" lon="8.5565349"><ele>573.0</ele><time>2026-05-01T13:57:14.13Z</time></trkpt><trkpt lat="35.8355394" lon="8.5564325"><ele>573.0</ele><time>2026-05-01T13:57:15.142Z</time></trkpt><trkpt lat="35.8357229" lon="8.5563323"><ele>573.0</ele><time>2026-05-01T13:57:16.125Z</time></trkpt><trkpt lat="35.8359028" lon="8.5562298"><ele>573.0</ele><time>2026-05-01T13:57:17.144Z</time></trkpt><trkpt lat="35.8360851" lon="8.5561262"><ele>574.0</ele><time>2026-05-01T13:57:18.122Z</time></trkpt><trkpt lat="35.8362666" lon="8.5560235"><ele>575.0</ele><time>2026-05-01T13:57:19.136Z</time></trkpt><trkpt lat="35.8364451" lon="8.5559214"><ele>576.0</ele><time>2026-05-01T13:57:20.115Z</time></trkpt><trkpt lat="35.8366241" lon="8.5558212"><ele>577.0</ele><time>2026-05-01T13:57:21.134Z</time></trkpt><trkpt lat="35.8368035" lon="8.5557218"><ele>578.0</ele><time>2026-05-01T13:57:22.121Z</time></trkpt><trkpt lat="35.8369826" lon="8.5556228"><ele>579.0</ele><time>2026-05-01T13:57:23.132Z</time></trkpt><trkpt lat="35.8371638" lon="8.5555219"><ele>579.0</ele><time>2026-05-01T13:57:24.13Z</time></trkpt><trkpt lat="35.8373432" lon="8.5554195"><ele>579.0</ele><time>2026-05-01T13:57:25.129Z</time></trkpt><trkpt lat="35.8375227" lon="8.5553189"><ele>579.0</ele><time>2026-05-01T13:57:26.139Z</time></trkpt><trkpt lat="35.8377008" lon="8.5552176"><ele>579.0</ele><time>2026-05-01T13:57:27.131Z</time></trkpt><trkpt lat="35.8378791" lon="8.5551203"><ele>579.0</ele><time>2026-05-01T13:57:28.131Z</time></trkpt><trkpt lat="35.8380583" lon="8.5550224"><ele>579.0</ele><time>2026-05-01T13:57:29.14Z</time></trkpt><trkpt lat="35.8382364" lon="8.5549254"><ele>579.0</ele><time>2026-05-01T13:57:30.146Z</time></trkpt><trkpt lat="35.8384138" lon="8.5548269"><ele>579.0</ele><time>2026-05-01T13:57:31.132Z</time></trkpt><trkpt lat="35.8385941" lon="8.554729"><ele>579.0</ele><time>2026-05-01T13:57:32.138Z</time></trkpt><trkpt lat="35.8387719" lon="8.5546272"><ele>579.3333333333334</ele><time>2026-05-01T13:57:33.128Z</time></trkpt><trkpt lat="35.8389506" lon="8.5545235"><ele>579.6666666666667</ele><time>2026-05-01T13:57:34.135Z</time></trkpt><trkpt lat="35.8391255" lon="8.5544212"><ele>580.0</ele><time>2026-05-01T13:57:35.134Z</time></trkpt><trkpt lat="35.8393006" lon="8.5543195"><ele>580.0</ele><time>2026-05-01T13:57:36.119Z</time></trkpt><trkpt lat="35.8394762" lon="8.5542193"><ele>580.0</ele><time>2026-05-01T13:57:37.139Z</time></trkpt><trkpt lat="35.8396518" lon="8.5541201"><ele>580.0</ele><time>2026-05-01T13:57:38.147Z</time></trkpt><trkpt lat="35.8398279" lon="8.5540191"><ele>580.0</ele><time>2026-05-01T13:57:39.134Z</time></trkpt><trkpt lat="35.8400038" lon="8.5539193"><ele>580.0</ele><time>2026-05-01T13:57:40.126Z</time></trkpt><trkpt lat="35.8401794" lon="8.5538201"><ele>580.0</ele><time>2026-05-01T13:57:41.134Z</time></trkpt><trkpt lat="35.8403552" lon="8.5537229"><ele>580.0</ele><time>2026-05-01T13:57:42.127Z</time></trkpt><trkpt lat="35.8405336" lon="8.5536239"><ele>580.0</ele><time>2026-05-01T13:57:43.137Z</time></trkpt><trkpt lat="35.8407109" lon="8.5535268"><ele>580.0</ele><time>2026-05-01T13:57:44.132Z</time></trkpt><trkpt lat="35.8408861" lon="8.5534283"><ele>580.3333333333334</ele><time>2026-05-01T13:57:45.119Z</time></trkpt><trkpt lat="35.8410646" lon="8.5533304"><ele>580.6666666666666</ele><time>2026-05-01T13:57:46.131Z</time></trkpt><trkpt lat="35.8412385" lon="8.5532307"><ele>581.0</ele><time>2026-05-01T13:57:47.133Z</time></trkpt><trkpt lat="35.8414143" lon="8.5531313"><ele>581.0</ele><time>2026-05-01T13:57:48.132Z</time></trkpt><trkpt lat="35.8415792" lon="8.5530357"><ele>581.0</ele><time>2026-05-01T13:57:49.141Z</time></trkpt><trkpt lat="35.8417376" lon="8.5529497"><ele>581.0</ele><time>2026-05-01T13:57:50.147Z</time></trkpt><trkpt lat="35.8418866" lon="8.5528658"><ele>581.6666666666666</ele><time>2026-05-01T13:57:51.139Z</time></trkpt><trkpt lat="35.8420262" lon="8.5527877"><ele>582.3333333333334</ele><time>2026-05-01T13:57:52.126Z</time></trkpt><trkpt lat="35.8421625" lon="8.5527098"><ele>583.0</ele><time>2026-05-01T13:57:53.133Z</time></trkpt><trkpt lat="35.8423022" lon="8.5526311"><ele>583.0</ele><time>2026-05-01T13:57:54.122Z</time></trkpt><trkpt lat="35.8424405" lon="8.5525546"><ele>583.0</ele><time>2026-05-01T13:57:55.117Z</time></trkpt><trkpt lat="35.8425789" lon="8.5524772"><ele>583.0</ele><time>2026-05-01T13:57:56.13Z</time></trkpt><trkpt lat="35.8427174" lon="8.5524006"><ele>583.0</ele><time>2026-05-01T13:57:57.127Z</time></trkpt><trkpt lat="35.8428583" lon="8.5523253"><ele>583.0</ele><time>2026-05-01T13:57:58.13Z</time></trkpt><trkpt lat="35.8429987" lon="8.5522442"><ele>583.0</ele><time>2026-05-01T13:57:59.137Z</time></trkpt><trkpt lat="35.8431402" lon="8.5521614"><ele>583.0</ele><time>2026-05-01T13:58:00.129Z</time></trkpt><trkpt lat="35.8432823" lon="8.5520795"><ele>583.0</ele><time>2026-05-01T13:58:01.121Z</time></trkpt><trkpt lat="35.8434248" lon="8.5519979"><ele>583.0</ele><time>2026-05-01T13:58:02.126Z</time></trkpt><trkpt lat="35.8435617" lon="8.5519204"><ele>583.0</ele><time>2026-05-01T13:58:03.122Z</time></trkpt><trkpt lat="35.8436912" lon="8.5518489"><ele>583.0</ele><time>2026-05-01T13:58:04.142Z</time></trkpt><trkpt lat="35.8438133" lon="8.5517816"><ele>583.0</ele><time>2026-05-01T13:58:05.14Z</time></trkpt><trkpt lat="35.8439334" lon="8.5517142"><ele>583.0</ele><time>2026-05-01T13:58:06.133Z</time></trkpt><trkpt lat="35.8440606" lon="8.5516408"><ele>583.0</ele><time>2026-05-01T13:58:07.138Z</time></trkpt><trkpt lat="35.8441928" lon="8.5515608"><ele>583.0</ele><time>2026-05-01T13:58:08.122Z</time></trkpt><trkpt lat="35.8443337" lon="8.5514797"><ele>583.0</ele><time>2026-05-01T13:58:09.133Z</time></trkpt><trkpt lat="35.844488" lon="8.5513923"><ele>583.0</ele><time>2026-05-01T13:58:10.136Z</time></trkpt><trkpt lat="35.8446489" lon="8.5513007"><ele>583.0</ele><time>2026-05-01T13:58:11.126Z</time></trkpt><trkpt lat="35.8448142" lon="8.5512092"><ele>583.0</ele><time>2026-05-01T13:58:12.143Z</time></trkpt><trkpt lat="35.84498" lon="8.5511202"><ele>583.6666666666667</ele><time>2026-05-01T13:58:13.145Z</time></trkpt><trkpt lat="35.8451348" lon="8.5510352"><ele>584.3333333333334</ele><time>2026-05-01T13:58:14.134Z</time></trkpt><trkpt lat="35.8452862" lon="8.5509546"><ele>585.0</ele><time>2026-05-01T13:58:15.127Z</time></trkpt><trkpt lat="35.8454328" lon="8.5508736"><ele>585.0</ele><time>2026-05-01T13:58:16.127Z</time></trkpt><trkpt lat="35.8455717" lon="8.5507938"><ele>585.0</ele><time>2026-05-01T13:58:17.123Z</time></trkpt><trkpt lat="35.8457102" lon="8.5507181"><ele>585.0</ele><time>2026-05-01T13:58:18.138Z</time></trkpt><trkpt lat="35.8458448" lon="8.5506445"><ele>585.3333333333334</ele><time>2026-05-01T13:58:19.116Z</time></trkpt><trkpt lat="35.84598" lon="8.5505698"><ele>585.6666666666667</ele><time>2026-05-01T13:58:20.129Z</time></trkpt><trkpt lat="35.8461161" lon="8.5504921"><ele>586.0</ele><time>2026-05-01T13:58:21.13Z</time></trkpt><trkpt lat="35.8462541" lon="8.5504149"><ele>586.3333333333334</ele><time>2026-05-01T13:58:22.119Z</time></trkpt><trkpt lat="35.8463947" lon="8.5503354"><ele>586.6666666666666</ele><time>2026-05-01T13:58:23.136Z</time></trkpt><trkpt lat="35.8465356" lon="8.5502543"><ele>587.0</ele><time>2026-05-01T13:58:24.13Z</time></trkpt><trkpt lat="35.8466744" lon="8.5501751"><ele>587.25</ele><time>2026-05-01T13:58:25.137Z</time></trkpt><trkpt lat="35.8468122" lon="8.5500988"><ele>587.5</ele><time>2026-05-01T13:58:26.143Z</time></trkpt><trkpt lat="35.8469408" lon="8.550026"><ele>587.75</ele><time>2026-05-01T13:58:27.125Z</time></trkpt><trkpt lat="35.8470664" lon="8.5499591"><ele>588.0</ele><time>2026-05-01T13:58:28.143Z</time></trkpt><trkpt lat="35.8471823" lon="8.5498985"><ele>588.0</ele><time>2026-05-01T13:58:29.14Z</time></trkpt><trkpt lat="35.8472944" lon="8.5498377"><ele>588.0</ele><time>2026-05-01T13:58:30.124Z</time></trkpt><trkpt lat="35.8474046" lon="8.5497757"><ele>588.0</ele><time>2026-05-01T13:58:31.133Z</time></trkpt><trkpt lat="35.8475139" lon="8.549716"><ele>588.0</ele><time>2026-05-01T13:58:32.129Z</time></trkpt><trkpt lat="35.8476232" lon="8.5496544"><ele>588.25</ele><time>2026-05-01T13:58:33.141Z</time></trkpt><trkpt lat="35.8477386" lon="8.5495885"><ele>588.5</ele><time>2026-05-01T13:58:34.133Z</time></trkpt><trkpt lat="35.8478578" lon="8.5495215"><ele>588.75</ele><time>2026-05-01T13:58:35.13Z</time></trkpt><trkpt lat="35.8479807" lon="8.5494519"><ele>589.0</ele><time>2026-05-01T13:58:36.139Z</time></trkpt><trkpt lat="35.8481054" lon="8.5493799"><ele>589.0</ele><time>2026-05-01T13:58:37.141Z</time></trkpt><trkpt lat="35.8482349" lon="8.5493062"><ele>589.0</ele><time>2026-05-01T13:58:38.126Z</time></trkpt><trkpt lat="35.8483655" lon="8.5492323"><ele>589.0</ele><time>2026-05-01T13:58:39.125Z</time></trkpt><trkpt lat="35.8484992" lon="8.5491583"><ele>589.0</ele><time>2026-05-01T13:58:40.144Z</time></trkpt><trkpt lat="35.8486331" lon="8.5490813"><ele>589.0</ele><time>2026-05-01T13:58:41.125Z</time></trkpt><trkpt lat="35.8487695" lon="8.5490024"><ele>589.0</ele><time>2026-05-01T13:58:42.129Z</time></trkpt><trkpt lat="35.8489053" lon="8.5489257"><ele>589.0</ele><time>2026-05-01T13:58:43.132Z</time></trkpt><trkpt lat="35.849041" lon="8.5488496"><ele>589.0</ele><time>2026-05-01T13:58:44.132Z</time></trkpt><trkpt lat="35.8491763" lon="8.548774"><ele>589.0</ele><time>2026-05-01T13:58:45.131Z</time></trkpt><trkpt lat="35.8493108" lon="8.5486995"><ele>589.0</ele><time>2026-05-01T13:58:46.134Z</time></trkpt><trkpt lat="35.8494442" lon="8.5486263"><ele>589.0</ele><time>2026-05-01T13:58:47.142Z</time></trkpt><trkpt lat="35.8495784" lon="8.548552"><ele>589.0</ele><time>2026-05-01T13:58:48.145Z</time></trkpt><trkpt lat="35.8497094" lon="8.5484774"><ele>589.0</ele><time>2026-05-01T13:58:49.125Z</time></trkpt><trkpt lat="35.8498405" lon="8.5484024"><ele>589.0</ele><time>2026-05-01T13:58:50.14Z</time></trkpt><trkpt lat="35.8499724" lon="8.5483285"><ele>589.0</ele><time>2026-05-01T13:58:51.14Z</time></trkpt><trkpt lat="35.8501021" lon="8.5482555"><ele>589.0</ele><time>2026-05-01T13:58:52.156Z</time></trkpt><trkpt lat="35.8502248" lon="8.5481841"><ele>589.25</ele><time>2026-05-01T13:58:53.138Z</time></trkpt><trkpt lat="35.8503425" lon="8.5481182"><ele>589.5</ele><time>2026-05-01T13:58:54.139Z</time></trkpt><trkpt lat="35.8504564" lon="8.548053"><ele>589.75</ele><time>2026-05-01T13:58:55.131Z</time></trkpt><trkpt lat="35.8505652" lon="8.5479924"><ele>590.0</ele><time>2026-05-01T13:58:56.122Z</time></trkpt><trkpt lat="35.8506657" lon="8.5479347"><ele>590.0</ele><time>2026-05-01T13:58:57.126Z</time></trkpt><trkpt lat="35.8507535" lon="8.5478836"><ele>590.0</ele><time>2026-05-01T13:58:58.135Z</time></trkpt><trkpt lat="35.8508328" lon="8.5478381"><ele>590.0</ele><time>2026-05-01T13:58:59.125Z</time></trkpt><trkpt lat="35.8509097" lon="8.5477961"><ele>590.0</ele><time>2026-05-01T13:59:00.131Z</time></trkpt><trkpt lat="35.8509797" lon="8.5477576"><ele>590.0</ele><time>2026-05-01T13:59:01.117Z</time></trkpt><trkpt lat="35.8510481" lon="8.5477207"><ele>590.0</ele><time>2026-05-01T13:59:02.135Z</time></trkpt><trkpt lat="35.8511183" lon="8.5476833"><ele>590.3333333333333</ele><time>2026-05-01T13:59:03.127Z</time></trkpt><trkpt lat="35.8511883" lon="8.5476441"><ele>590.6666666666666</ele><time>2026-05-01T13:59:04.136Z</time></trkpt><trkpt lat="35.8512508" lon="8.5476066"><ele>591.0</ele><time>2026-05-01T13:59:05.122Z</time></trkpt><trkpt lat="35.8513088" lon="8.5475704"><ele>591.3333333333334</ele><time>2026-05-01T13:59:06.127Z</time></trkpt><trkpt lat="35.8514135" lon="8.5475134"><ele>591.6666666666667</ele><time>2026-05-01T13:59:08.127Z</time></trkpt><trkpt lat="35.8515063" lon="8.5474634"><ele>592.0</ele><time>2026-05-01T13:59:10.118Z</time></trkpt><trkpt lat="35.8515789" lon="8.5474247"><ele>592.0</ele><time>2026-05-01T13:59:13.137Z</time></trkpt><trkpt lat="35.8516442" lon="8.5473764"><ele>592.0</ele><time>2026-05-01T13:59:20.125Z</time></trkpt><trkpt lat="35.8517034" lon="8.5473428"><ele>592.0</ele><time>2026-05-01T13:59:22.129Z</time></trkpt><trkpt lat="35.8517874" lon="8.5472954"><ele>592.0</ele><time>2026-05-01T13:59:25.136Z</time></trkpt><trkpt lat="35.8518526" lon="8.5472557"><ele>592.0</ele><time>2026-05-01T13:59:27.144Z</time></trkpt><trkpt lat="35.8519417" lon="8.5472203"><ele>592.0</ele><time>2026-05-01T13:59:30.133Z</time></trkpt><trkpt lat="35.8520072" lon="8.5472054"><ele>592.1666666666667</ele><time>2026-05-01T13:59:32.143Z</time></trkpt><trkpt lat="35.8520809" lon="8.5471972"><ele>592.3333333333334</ele><time>2026-05-01T13:59:34.152Z</time></trkpt><trkpt lat="35.8521692" lon="8.547198"><ele>592.5</ele><time>2026-05-01T13:59:36.134Z</time></trkpt><trkpt lat="35.8522631" lon="8.5471969"><ele>592.6666666666666</ele><time>2026-05-01T13:59:38.166Z</time></trkpt><trkpt lat="35.852335" lon="8.5471852"><ele>592.8333333333333</ele><time>2026-05-01T13:59:40.153Z</time></trkpt><trkpt lat="35.8523904" lon="8.5471393"><ele>593.0</ele><time>2026-05-01T13:59:42.121Z</time></trkpt><trkpt lat="35.8524227" lon="8.5470512"><ele>593.1999999999999</ele><time>2026-05-01T13:59:44.127Z</time></trkpt><trkpt lat="35.8524064" lon="8.5469216"><ele>593.4</ele><time>2026-05-01T13:59:46.129Z</time></trkpt><trkpt lat="35.852363" lon="8.5467855"><ele>593.5999999999999</ele><time>2026-05-01T13:59:48.143Z</time></trkpt><trkpt lat="35.8523403" lon="8.5466926"><ele>593.8</ele><time>2026-05-01T13:59:49.116Z</time></trkpt><trkpt lat="35.8523204" lon="8.5465907"><ele>594.0</ele><time>2026-05-01T13:59:50.14Z</time></trkpt><trkpt lat="35.852299" lon="8.5464635"><ele>594.0</ele><time>2026-05-01T13:59:51.129Z</time></trkpt><trkpt lat="35.8522846" lon="8.5463423"><ele>594.0</ele><time>2026-05-01T13:59:52.14Z</time></trkpt><trkpt lat="35.852278" lon="8.5462176"><ele>594.0</ele><time>2026-05-01T13:59:53.118Z</time></trkpt><trkpt lat="35.8522752" lon="8.5460889"><ele>594.0</ele><time>2026-05-01T13:59:54.137Z</time></trkpt><trkpt lat="35.8522775" lon="8.5459623"><ele>594.0</ele><time>2026-05-01T13:59:55.141Z</time></trkpt><trkpt lat="35.8522793" lon="8.5458385"><ele>594.0</ele><time>2026-05-01T13:59:56.139Z</time></trkpt><trkpt lat="35.8522816" lon="8.5457158"><ele>594.0</ele><time>2026-05-01T13:59:57.131Z</time></trkpt><trkpt lat="35.8522847" lon="8.5455937"><ele>594.0</ele><time>2026-05-01T13:59:58.146Z</time></trkpt><trkpt lat="35.8522878" lon="8.5454763"><ele>594.0</ele><time>2026-05-01T13:59:59.134Z</time></trkpt><trkpt lat="35.852289" lon="8.5453746"><ele>594.0</ele><time>2026-05-01T14:00:00.126Z</time></trkpt><trkpt lat="35.8522933" lon="8.5452324"><ele>593.8333333333334</ele><time>2026-05-01T14:00:02.13Z</time></trkpt><trkpt lat="35.8522947" lon="8.5450973"><ele>593.6666666666666</ele><time>2026-05-01T14:00:04.126Z</time></trkpt><trkpt lat="35.8523" lon="8.5450177"><ele>593.5</ele><time>2026-05-01T14:00:05.14Z</time></trkpt><trkpt lat="35.8523029" lon="8.5449322"><ele>593.3333333333333</ele><time>2026-05-01T14:00:06.141Z</time></trkpt><trkpt lat="35.8523048" lon="8.5448436"><ele>593.1666666666666</ele><time>2026-05-01T14:00:07.142Z</time></trkpt><trkpt lat="35.8523063" lon="8.5447541"><ele>593.0</ele><time>2026-05-01T14:00:08.142Z</time></trkpt><trkpt lat="35.8523092" lon="8.5446727"><ele>592.9999999999999</ele><time>2026-05-01T14:00:09.133Z</time></trkpt><trkpt lat="35.8523105" lon="8.5445905"><ele>593.0</ele><time>2026-05-01T14:00:10.138Z</time></trkpt><trkpt lat="35.8523153" lon="8.5444996"><ele>593.0</ele><time>2026-05-01T14:00:11.139Z</time></trkpt><trkpt lat="35.8523194" lon="8.5444085"><ele>593.0</ele><time>2026-05-01T14:00:12.138Z</time></trkpt><trkpt lat="35.8523236" lon="8.5443133"><ele>593.0</ele><time>2026-05-01T14:00:13.124Z</time></trkpt><trkpt lat="35.8523254" lon="8.5442186"><ele>592.9999999999999</ele><time>2026-05-01T14:00:14.146Z</time></trkpt><trkpt lat="35.852329" lon="8.5441287"><ele>593.0</ele><time>2026-05-01T14:00:15.14Z</time></trkpt><trkpt lat="35.8523311" lon="8.5440393"><ele>592.8571428571428</ele><time>2026-05-01T14:00:16.131Z</time></trkpt><trkpt lat="35.8523337" lon="8.5439539"><ele>592.7142857142857</ele><time>2026-05-01T14:00:17.124Z</time></trkpt><trkpt lat="35.8523356" lon="8.5438663"><ele>592.5714285714286</ele><time>2026-05-01T14:00:18.123Z</time></trkpt><trkpt lat="35.8523386" lon="8.5437826"><ele>592.4285714285713</ele><time>2026-05-01T14:00:19.124Z</time></trkpt><trkpt lat="35.8523404" lon="8.5437032"><ele>592.2857142857142</ele><time>2026-05-01T14:00:20.128Z</time></trkpt><trkpt lat="35.8523431" lon="8.5435836"><ele>592.1428571428571</ele><time>2026-05-01T14:00:22.147Z</time></trkpt><trkpt lat="35.8523464" lon="8.543491"><ele>592.0</ele><time>2026-05-01T14:00:24.141Z</time></trkpt><trkpt lat="35.8523503" lon="8.5433823"><ele>592.0</ele><time>2026-05-01T14:00:27.141Z</time></trkpt><trkpt lat="35.8523558" lon="8.5433022"><ele>592.0</ele><time>2026-05-01T14:00:30.066Z</time></trkpt><trkpt lat="35.8523473" lon="8.5432252"><ele>592.0</ele><time>2026-05-01T14:00:56.099Z</time></trkpt><trkpt lat="35.8523553" lon="8.5431378"><ele>592.0</ele><time>2026-05-01T14:01:09.077Z</time></trkpt><trkpt lat="35.8523588" lon="8.5430455"><ele>592.0</ele><time>2026-05-01T14:01:11.07Z</time></trkpt><trkpt lat="35.8523717" lon="8.5429172"><ele>592.0</ele><time>2026-05-01T14:01:13.1Z</time></trkpt><trkpt lat="35.8523749" lon="8.5427799"><ele>592.0</ele><time>2026-05-01T14:01:15.072Z</time></trkpt><trkpt lat="35.8523659" lon="8.5426247"><ele>592.0</ele><time>2026-05-01T14:01:17.105Z</time></trkpt><trkpt lat="35.8523664" lon="8.5425385"><ele>592.0</ele><time>2026-05-01T14:01:18.093Z</time></trkpt><trkpt lat="35.8523682" lon="8.5424434"><ele>592.0</ele><time>2026-05-01T14:01:19.089Z</time></trkpt><trkpt lat="35.85237" lon="8.5423412"><ele>592.0</ele><time>2026-05-01T14:01:20.069Z</time></trkpt><trkpt lat="35.8523729" lon="8.5422389"><ele>592.0</ele><time>2026-05-01T14:01:21.07Z</time></trkpt><trkpt lat="35.8523771" lon="8.5421312"><ele>591.6666666666667</ele><time>2026-05-01T14:01:22.083Z</time></trkpt><trkpt lat="35.8523791" lon="8.5420285"><ele>591.3333333333334</ele><time>2026-05-01T14:01:23.073Z</time></trkpt><trkpt lat="35.85238" lon="8.541928"><ele>591.0</ele><time>2026-05-01T14:01:24.077Z</time></trkpt><trkpt lat="35.8523802" lon="8.5418242"><ele>590.6666666666666</ele><time>2026-05-01T14:01:25.063Z</time></trkpt><trkpt lat="35.8523814" lon="8.5417171"><ele>590.3333333333333</ele><time>2026-05-01T14:01:26.094Z</time></trkpt><trkpt lat="35.8523862" lon="8.5416068"><ele>590.0</ele><time>2026-05-01T14:01:27.084Z</time></trkpt><trkpt lat="35.8523861" lon="8.5414925"><ele>590.0</ele><time>2026-05-01T14:01:28.103Z</time></trkpt><trkpt lat="35.8523928" lon="8.5413854"><ele>590.0</ele><time>2026-05-01T14:01:29.099Z</time></trkpt><trkpt lat="35.8523943" lon="8.541272"><ele>590.0</ele><time>2026-05-01T14:01:30.078Z</time></trkpt><trkpt lat="35.8523969" lon="8.541159"><ele>590.0</ele><time>2026-05-01T14:01:31.078Z</time></trkpt><trkpt lat="35.8523974" lon="8.541039"><ele>590.0</ele><time>2026-05-01T14:01:32.077Z</time></trkpt><trkpt lat="35.8523985" lon="8.5409219"><ele>590.25</ele><time>2026-05-01T14:01:33.096Z</time></trkpt><trkpt lat="35.8524027" lon="8.5407963"><ele>590.5</ele><time>2026-05-01T14:01:34.071Z</time></trkpt><trkpt lat="35.8524067" lon="8.5406632"><ele>590.75</ele><time>2026-05-01T14:01:35.085Z</time></trkpt><trkpt lat="35.8524115" lon="8.5405151"><ele>591.0</ele><time>2026-05-01T14:01:36.084Z</time></trkpt><trkpt lat="35.8524187" lon="8.5403382"><ele>591.6666666666666</ele><time>2026-05-01T14:01:37.078Z</time></trkpt><trkpt lat="35.8524223" lon="8.5401479"><ele>592.3333333333333</ele><time>2026-05-01T14:01:38.074Z</time></trkpt><trkpt lat="35.8524237" lon="8.5399641"><ele>593.0</ele><time>2026-05-01T14:01:39.086Z</time></trkpt><trkpt lat="35.8524291" lon="8.5397768"><ele>593.0</ele><time>2026-05-01T14:01:40.087Z</time></trkpt><trkpt lat="35.8524299" lon="8.5395906"><ele>593.0</ele><time>2026-05-01T14:01:41.083Z</time></trkpt><trkpt lat="35.8524336" lon="8.5394059"><ele>593.0</ele><time>2026-05-01T14:01:42.078Z</time></trkpt><trkpt lat="35.8524383" lon="8.539219"><ele>593.6666666666666</ele><time>2026-05-01T14:01:43.081Z</time></trkpt><trkpt lat="35.8524419" lon="8.5390342"><ele>594.3333333333334</ele><time>2026-05-01T14:01:44.077Z</time></trkpt><trkpt lat="35.8524433" lon="8.5388462"><ele>595.0</ele><time>2026-05-01T14:01:45.083Z</time></trkpt><trkpt lat="35.8524486" lon="8.5386591"><ele>595.75</ele><time>2026-05-01T14:01:46.086Z</time></trkpt><trkpt lat="35.8524531" lon="8.5384784"><ele>596.5</ele><time>2026-05-01T14:01:47.075Z</time></trkpt><trkpt lat="35.8524605" lon="8.5382945"><ele>597.25</ele><time>2026-05-01T14:01:48.085Z</time></trkpt><trkpt lat="35.8524618" lon="8.5381145"><ele>598.0</ele><time>2026-05-01T14:01:49.084Z</time></trkpt><trkpt lat="35.852466" lon="8.5379317"><ele>599.6666666666667</ele><time>2026-05-01T14:01:50.076Z</time></trkpt><trkpt lat="35.8524697" lon="8.5377467"><ele>601.3333333333334</ele><time>2026-05-01T14:01:51.08Z</time></trkpt><trkpt lat="35.8524739" lon="8.5375573"><ele>603.0</ele><time>2026-05-01T14:01:52.084Z</time></trkpt><trkpt lat="35.8524749" lon="8.5373602"><ele>603.0</ele><time>2026-05-01T14:01:53.082Z</time></trkpt><trkpt lat="35.8524774" lon="8.5371571"><ele>603.0</ele><time>2026-05-01T14:01:54.072Z</time></trkpt><trkpt lat="35.8524808" lon="8.5369552"><ele>603.0</ele><time>2026-05-01T14:01:55.067Z</time></trkpt><trkpt lat="35.8524825" lon="8.5367567"><ele>602.6666666666666</ele><time>2026-05-01T14:01:56.073Z</time></trkpt><trkpt lat="35.8524876" lon="8.5365515"><ele>602.3333333333333</ele><time>2026-05-01T14:01:57.078Z</time></trkpt><trkpt lat="35.8524936" lon="8.5363442"><ele>602.0</ele><time>2026-05-01T14:01:58.078Z</time></trkpt><trkpt lat="35.8524971" lon="8.5361405"><ele>601.3333333333333</ele><time>2026-05-01T14:01:59.083Z</time></trkpt><trkpt lat="35.8525" lon="8.5359275"><ele>600.6666666666666</ele><time>2026-05-01T14:02:00.091Z</time></trkpt><trkpt lat="35.8525058" lon="8.5357209"><ele>600.0</ele><time>2026-05-01T14:02:01.054Z</time></trkpt><trkpt lat="35.8525121" lon="8.5355153"><ele>599.6666666666666</ele><time>2026-05-01T14:02:02.059Z</time></trkpt><trkpt lat="35.852519" lon="8.5353037"><ele>599.3333333333333</ele><time>2026-05-01T14:02:03.062Z</time></trkpt><trkpt lat="35.8525249" lon="8.5350876"><ele>599.0</ele><time>2026-05-01T14:02:04.075Z</time></trkpt><trkpt lat="35.8525306" lon="8.5348737"><ele>599.0</ele><time>2026-05-01T14:02:05.057Z</time></trkpt><trkpt lat="35.8525322" lon="8.5346602"><ele>599.0</ele><time>2026-05-01T14:02:06.083Z</time></trkpt><trkpt lat="35.8525379" lon="8.5344463"><ele>599.0</ele><time>2026-05-01T14:02:07.086Z</time></trkpt><trkpt lat="35.8525502" lon="8.5342239"><ele>599.3333333333333</ele><time>2026-05-01T14:02:08.083Z</time></trkpt><trkpt lat="35.8525531" lon="8.5340053"><ele>599.6666666666666</ele><time>2026-05-01T14:02:09.071Z</time></trkpt><trkpt lat="35.8525578" lon="8.5337869"><ele>600.0</ele><time>2026-05-01T14:02:10.09Z</time></trkpt><trkpt lat="35.8525636" lon="8.5335738"><ele>600.6666666666666</ele><time>2026-05-01T14:02:11.09Z</time></trkpt><trkpt lat="35.8525669" lon="8.533357"><ele>601.3333333333333</ele><time>2026-05-01T14:02:12.091Z</time></trkpt><trkpt lat="35.8525709" lon="8.5331398"><ele>602.0</ele><time>2026-05-01T14:02:13.078Z</time></trkpt><trkpt lat="35.8525737" lon="8.5329252"><ele>603.0</ele><time>2026-05-01T14:02:14.082Z</time></trkpt><trkpt lat="35.8525824" lon="8.5327206"><ele>604.0</ele><time>2026-05-01T14:02:15.064Z</time></trkpt><trkpt lat="35.8525834" lon="8.532515"><ele>605.0</ele><time>2026-05-01T14:02:16.077Z</time></trkpt><trkpt lat="35.8525841" lon="8.5323075"><ele>605.0</ele><time>2026-05-01T14:02:17.078Z</time></trkpt><trkpt lat="35.8525883" lon="8.5321003"><ele>605.0</ele><time>2026-05-01T14:02:18.074Z</time></trkpt><trkpt lat="35.8525936" lon="8.5318862"><ele>605.0</ele><time>2026-05-01T14:02:19.08Z</time></trkpt><trkpt lat="35.8525976" lon="8.5316701"><ele>605.0</ele><time>2026-05-01T14:02:20.075Z</time></trkpt><trkpt lat="35.8526005" lon="8.5314555"><ele>605.0</ele><time>2026-05-01T14:02:21.069Z</time></trkpt><trkpt lat="35.852607" lon="8.5312447"><ele>605.0</ele><time>2026-05-01T14:02:22.086Z</time></trkpt><trkpt lat="35.8526145" lon="8.5310282"><ele>605.0</ele><time>2026-05-01T14:02:23.082Z</time></trkpt><trkpt lat="35.8526176" lon="8.5308094"><ele>605.0</ele><time>2026-05-01T14:02:24.092Z</time></trkpt><trkpt lat="35.8526222" lon="8.5305877"><ele>605.0</ele><time>2026-05-01T14:02:25.08Z</time></trkpt><trkpt lat="35.8526222" lon="8.5303615"><ele>605.3333333333333</ele><time>2026-05-01T14:02:26.085Z</time></trkpt><trkpt lat="35.8526197" lon="8.5301324"><ele>605.6666666666666</ele><time>2026-05-01T14:02:27.083Z</time></trkpt><trkpt lat="35.8526149" lon="8.5299031"><ele>606.0</ele><time>2026-05-01T14:02:28.079Z</time></trkpt><trkpt lat="35.8526114" lon="8.5296753"><ele>607.3333333333334</ele><time>2026-05-01T14:02:29.079Z</time></trkpt><trkpt lat="35.8526068" lon="8.529447"><ele>608.6666666666667</ele><time>2026-05-01T14:02:30.093Z</time></trkpt><trkpt lat="35.8526051" lon="8.529217"><ele>610.0</ele><time>2026-05-01T14:02:31.079Z</time></trkpt><trkpt lat="35.8526061" lon="8.5289791"><ele>610.0</ele><time>2026-05-01T14:02:32.071Z</time></trkpt><trkpt lat="35.8526062" lon="8.5287494"><ele>610.0</ele><time>2026-05-01T14:02:33.077Z</time></trkpt><trkpt lat="35.8526032" lon="8.5285202"><ele>610.0</ele><time>2026-05-01T14:02:34.083Z</time></trkpt><trkpt lat="35.8526005" lon="8.5282949"><ele>609.3333333333334</ele><time>2026-05-01T14:02:35.076Z</time></trkpt><trkpt lat="35.8525976" lon="8.5280624"><ele>608.6666666666666</ele><time>2026-05-01T14:02:36.082Z</time></trkpt><trkpt lat="35.8525957" lon="8.5278398"><ele>608.0</ele><time>2026-05-01T14:02:37.072Z</time></trkpt><trkpt lat="35.8525901" lon="8.5276133"><ele>608.0</ele><time>2026-05-01T14:02:38.081Z</time></trkpt><trkpt lat="35.8525889" lon="8.527382"><ele>608.0</ele><time>2026-05-01T14:02:39.088Z</time></trkpt><trkpt lat="35.852586" lon="8.5271569"><ele>608.0</ele><time>2026-05-01T14:02:40.08Z</time></trkpt><trkpt lat="35.8525827" lon="8.52693"><ele>606.6666666666666</ele><time>2026-05-01T14:02:41.076Z</time></trkpt><trkpt lat="35.8525779" lon="8.5267016"><ele>605.3333333333334</ele><time>2026-05-01T14:02:42.072Z</time></trkpt><trkpt lat="35.8525746" lon="8.5264722"><ele>604.0</ele><time>2026-05-01T14:02:43.068Z</time></trkpt><trkpt lat="35.8525733" lon="8.526241"><ele>604.0</ele><time>2026-05-01T14:02:44.079Z</time></trkpt><trkpt lat="35.8525725" lon="8.5260144"><ele>604.0</ele><time>2026-05-01T14:02:45.079Z</time></trkpt><trkpt lat="35.8525726" lon="8.5257895"><ele>604.0</ele><time>2026-05-01T14:02:46.079Z</time></trkpt><trkpt lat="35.8525712" lon="8.5255682"><ele>604.6666666666667</ele><time>2026-05-01T14:02:47.075Z</time></trkpt><trkpt lat="35.852567" lon="8.5253427"><ele>605.3333333333334</ele><time>2026-05-01T14:02:48.085Z</time></trkpt><trkpt lat="35.8525625" lon="8.5251191"><ele>606.0</ele><time>2026-05-01T14:02:49.079Z</time></trkpt><trkpt lat="35.8525613" lon="8.5248896"><ele>606.0</ele><time>2026-05-01T14:02:50.073Z</time></trkpt><trkpt lat="35.8525585" lon="8.5246644"><ele>606.0</ele><time>2026-05-01T14:02:51.074Z</time></trkpt><trkpt lat="35.8525544" lon="8.5244329"><ele>606.0</ele><time>2026-05-01T14:02:52.076Z</time></trkpt><trkpt lat="35.8525559" lon="8.5241977"><ele>606.3333333333334</ele><time>2026-05-01T14:02:53.077Z</time></trkpt><trkpt lat="35.8525527" lon="8.5239707"><ele>606.6666666666667</ele><time>2026-05-01T14:02:54.077Z</time></trkpt><trkpt lat="35.8525505" lon="8.5237426"><ele>607.0</ele><time>2026-05-01T14:02:55.079Z</time></trkpt><trkpt lat="35.8525491" lon="8.5235117"><ele>607.0</ele><time>2026-05-01T14:02:56.066Z</time></trkpt><trkpt lat="35.8525481" lon="8.5232855"><ele>607.0</ele><time>2026-05-01T14:02:57.073Z</time></trkpt><trkpt lat="35.8525482" lon="8.52306"><ele>607.0</ele><time>2026-05-01T14:02:58.078Z</time></trkpt><trkpt lat="35.8525454" lon="8.5228346"><ele>606.3333333333334</ele><time>2026-05-01T14:02:59.087Z</time></trkpt><trkpt lat="35.8525401" lon="8.5226111"><ele>605.6666666666666</ele><time>2026-05-01T14:03:00.071Z</time></trkpt><trkpt lat="35.8525369" lon="8.5223851"><ele>605.0</ele><time>2026-05-01T14:03:01.079Z</time></trkpt><trkpt lat="35.8525379" lon="8.5221553"><ele>604.0</ele><time>2026-05-01T14:03:02.07Z</time></trkpt><trkpt lat="35.8525349" lon="8.5219321"><ele>603.0</ele><time>2026-05-01T14:03:03.085Z</time></trkpt><trkpt lat="35.8525331" lon="8.5217166"><ele>602.0</ele><time>2026-05-01T14:03:04.085Z</time></trkpt><trkpt lat="35.8525314" lon="8.5214938"><ele>602.0</ele><time>2026-05-01T14:03:05.078Z</time></trkpt><trkpt lat="35.8525298" lon="8.5212709"><ele>602.0</ele><time>2026-05-01T14:03:06.069Z</time></trkpt><trkpt lat="35.8525281" lon="8.5210439"><ele>602.0</ele><time>2026-05-01T14:03:07.088Z</time></trkpt><trkpt lat="35.8525249" lon="8.5208085"><ele>602.3333333333333</ele><time>2026-05-01T14:03:08.086Z</time></trkpt><trkpt lat="35.8525207" lon="8.5205771"><ele>602.6666666666666</ele><time>2026-05-01T14:03:09.079Z</time></trkpt><trkpt lat="35.852518" lon="8.5203466"><ele>603.0</ele><time>2026-05-01T14:03:10.065Z</time></trkpt><trkpt lat="35.8525137" lon="8.5201187"><ele>603.0</ele><time>2026-05-01T14:03:11.074Z</time></trkpt><trkpt lat="35.8525106" lon="8.5198922"><ele>603.0</ele><time>2026-05-01T14:03:12.065Z</time></trkpt><trkpt lat="35.8525069" lon="8.5196649"><ele>603.0</ele><time>2026-05-01T14:03:13.082Z</time></trkpt><trkpt lat="35.8525064" lon="8.5194406"><ele>603.3333333333334</ele><time>2026-05-01T14:03:14.071Z</time></trkpt><trkpt lat="35.8525061" lon="8.5192079"><ele>603.6666666666667</ele><time>2026-05-01T14:03:15.069Z</time></trkpt><trkpt lat="35.8525076" lon="8.5189712"><ele>604.0</ele><time>2026-05-01T14:03:16.072Z</time></trkpt><trkpt lat="35.8525093" lon="8.5187275"><ele>605.0</ele><time>2026-05-01T14:03:17.093Z</time></trkpt><trkpt lat="35.8525091" lon="8.5184828"><ele>606.0</ele><time>2026-05-01T14:03:18.089Z</time></trkpt><trkpt lat="35.8525056" lon="8.5182313"><ele>607.0</ele><time>2026-05-01T14:03:19.072Z</time></trkpt><trkpt lat="35.8525025" lon="8.5179616"><ele>608.5</ele><time>2026-05-01T14:03:20.081Z</time></trkpt><trkpt lat="35.8524972" lon="8.5176856"><ele>610.0</ele><time>2026-05-01T14:03:21.083Z</time></trkpt><trkpt lat="35.8524933" lon="8.5174047"><ele>610.0</ele><time>2026-05-01T14:03:22.104Z</time></trkpt><trkpt lat="35.8524894" lon="8.5171257"><ele>610.0</ele><time>2026-05-01T14:03:23.088Z</time></trkpt><trkpt lat="35.8524863" lon="8.5168501"><ele>611.5</ele><time>2026-05-01T14:03:24.084Z</time></trkpt><trkpt lat="35.8524832" lon="8.5165728"><ele>613.0</ele><time>2026-05-01T14:03:25.076Z</time></trkpt><trkpt lat="35.852482" lon="8.5162941"><ele>613.0</ele><time>2026-05-01T14:03:26.088Z</time></trkpt><trkpt lat="35.8524803" lon="8.5160213"><ele>613.0</ele><time>2026-05-01T14:03:27.074Z</time></trkpt><trkpt lat="35.8524751" lon="8.5157476"><ele>613.0</ele><time>2026-05-01T14:03:28.085Z</time></trkpt><trkpt lat="35.8524709" lon="8.5154743"><ele>613.3333333333334</ele><time>2026-05-01T14:03:29.071Z</time></trkpt><trkpt lat="35.8524674" lon="8.5152057"><ele>613.6666666666666</ele><time>2026-05-01T14:03:30.083Z</time></trkpt><trkpt lat="35.8524675" lon="8.5149271"><ele>614.0</ele><time>2026-05-01T14:03:31.07Z</time></trkpt><trkpt lat="35.8524649" lon="8.5146521"><ele>615.6666666666666</ele><time>2026-05-01T14:03:32.08Z</time></trkpt><trkpt lat="35.8524635" lon="8.5143787"><ele>617.3333333333334</ele><time>2026-05-01T14:03:33.087Z</time></trkpt><trkpt lat="35.8524592" lon="8.514104"><ele>619.0</ele><time>2026-05-01T14:03:34.085Z</time></trkpt><trkpt lat="35.8524558" lon="8.5138352"><ele>619.3333333333334</ele><time>2026-05-01T14:03:35.083Z</time></trkpt><trkpt lat="35.8524535" lon="8.5135705"><ele>619.6666666666666</ele><time>2026-05-01T14:03:36.078Z</time></trkpt><trkpt lat="35.8524518" lon="8.5133049"><ele>620.0</ele><time>2026-05-01T14:03:37.076Z</time></trkpt><trkpt lat="35.8524479" lon="8.5130374"><ele>620.3333333333333</ele><time>2026-05-01T14:03:38.078Z</time></trkpt><trkpt lat="35.8524431" lon="8.5127728"><ele>620.6666666666666</ele><time>2026-05-01T14:03:39.085Z</time></trkpt><trkpt lat="35.8524423" lon="8.512499"><ele>621.0</ele><time>2026-05-01T14:03:40.081Z</time></trkpt><trkpt lat="35.8524395" lon="8.5122296"><ele>622.0</ele><time>2026-05-01T14:03:41.087Z</time></trkpt><trkpt lat="35.8524347" lon="8.5119617"><ele>623.0</ele><time>2026-05-01T14:03:42.083Z</time></trkpt><trkpt lat="35.8524303" lon="8.5116969"><ele>624.0</ele><time>2026-05-01T14:03:43.072Z</time></trkpt><trkpt lat="35.8524262" lon="8.5114287"><ele>624.0</ele><time>2026-05-01T14:03:44.068Z</time></trkpt><trkpt lat="35.8524223" lon="8.5111613"><ele>624.0</ele><time>2026-05-01T14:03:45.096Z</time></trkpt><trkpt lat="35.8524181" lon="8.5108931"><ele>624.0</ele><time>2026-05-01T14:03:46.085Z</time></trkpt><trkpt lat="35.852415" lon="8.5106288"><ele>625.3333333333334</ele><time>2026-05-01T14:03:47.07Z</time></trkpt><trkpt lat="35.8524149" lon="8.5103656"><ele>626.6666666666667</ele><time>2026-05-01T14:03:48.078Z</time></trkpt><trkpt lat="35.8524123" lon="8.5100983"><ele>628.0</ele><time>2026-05-01T14:03:49.074Z</time></trkpt><trkpt lat="35.8524108" lon="8.5098261"><ele>629.0</ele><time>2026-05-01T14:03:50.071Z</time></trkpt><trkpt lat="35.8524108" lon="8.5095606"><ele>630.0</ele><time>2026-05-01T14:03:51.089Z</time></trkpt><trkpt lat="35.8524077" lon="8.5092941"><ele>631.0</ele><time>2026-05-01T14:03:52.059Z</time></trkpt><trkpt lat="35.8524005" lon="8.5090234"><ele>631.0</ele><time>2026-05-01T14:03:53.067Z</time></trkpt><trkpt lat="35.8523934" lon="8.5087554"><ele>631.0</ele><time>2026-05-01T14:03:54.083Z</time></trkpt><trkpt lat="35.8523922" lon="8.5084935"><ele>631.0</ele><time>2026-05-01T14:03:55.068Z</time></trkpt><trkpt lat="35.8523888" lon="8.508247"><ele>631.0</ele><time>2026-05-01T14:03:56.053Z</time></trkpt><trkpt lat="35.8523908" lon="8.5080026"><ele>631.0</ele><time>2026-05-01T14:03:57.072Z</time></trkpt><trkpt lat="35.8523904" lon="8.5077586"><ele>631.0</ele><time>2026-05-01T14:03:58.072Z</time></trkpt><trkpt lat="35.8523883" lon="8.5075103"><ele>631.0</ele><time>2026-05-01T14:03:59.068Z</time></trkpt><trkpt lat="35.8523869" lon="8.5072574"><ele>631.0</ele><time>2026-05-01T14:04:00.067Z</time></trkpt><trkpt lat="35.8523847" lon="8.5070091"><ele>631.0</ele><time>2026-05-01T14:04:01.065Z</time></trkpt><trkpt lat="35.8523825" lon="8.5067537"><ele>631.6666666666667</ele><time>2026-05-01T14:04:02.071Z</time></trkpt><trkpt lat="35.852381" lon="8.5065004"><ele>632.3333333333334</ele><time>2026-05-01T14:04:03.069Z</time></trkpt><trkpt lat="35.8523757" lon="8.5062507"><ele>633.0</ele><time>2026-05-01T14:04:04.07Z</time></trkpt><trkpt lat="35.8523711" lon="8.5060084"><ele>633.0</ele><time>2026-05-01T14:04:05.126Z</time></trkpt><trkpt lat="35.8523679" lon="8.5057849"><ele>633.0</ele><time>2026-05-01T14:04:06.081Z</time></trkpt><trkpt lat="35.8523658" lon="8.5055624"><ele>633.0</ele><time>2026-05-01T14:04:07.083Z</time></trkpt><trkpt lat="35.8523696" lon="8.5053504"><ele>633.0</ele><time>2026-05-01T14:04:08.098Z</time></trkpt><trkpt lat="35.8523682" lon="8.5051482"><ele>633.0</ele><time>2026-05-01T14:04:09.079Z</time></trkpt><trkpt lat="35.8523663" lon="8.5049473"><ele>633.0</ele><time>2026-05-01T14:04:10.084Z</time></trkpt><trkpt lat="35.8523677" lon="8.5047489"><ele>631.6666666666666</ele><time>2026-05-01T14:04:11.082Z</time></trkpt><trkpt lat="35.852363" lon="8.504548"><ele>630.3333333333333</ele><time>2026-05-01T14:04:12.074Z</time></trkpt><trkpt lat="35.8523595" lon="8.5043413"><ele>629.0</ele><time>2026-05-01T14:04:13.084Z</time></trkpt><trkpt lat="35.8523588" lon="8.5041397"><ele>629.0</ele><time>2026-05-01T14:04:14.078Z</time></trkpt><trkpt lat="35.8523621" lon="8.5039293"><ele>629.0</ele><time>2026-05-01T14:04:15.083Z</time></trkpt><trkpt lat="35.8523711" lon="8.5037107"><ele>629.0</ele><time>2026-05-01T14:04:16.073Z</time></trkpt><trkpt lat="35.8523897" lon="8.5034977"><ele>626.6666666666666</ele><time>2026-05-01T14:04:17.081Z</time></trkpt><trkpt lat="35.8524135" lon="8.5032766"><ele>624.3333333333334</ele><time>2026-05-01T14:04:18.07Z</time></trkpt><trkpt lat="35.8524401" lon="8.5030549"><ele>622.0</ele><time>2026-05-01T14:04:19.074Z</time></trkpt><trkpt lat="35.8524711" lon="8.5028296"><ele>620.3333333333334</ele><time>2026-05-01T14:04:20.082Z</time></trkpt><trkpt lat="35.8525035" lon="8.5025971"><ele>618.6666666666666</ele><time>2026-05-01T14:04:21.087Z</time></trkpt><trkpt lat="35.8525377" lon="8.50237"><ele>617.0</ele><time>2026-05-01T14:04:22.072Z</time></trkpt><trkpt lat="35.8525723" lon="8.5021457"><ele>616.3333333333333</ele><time>2026-05-01T14:04:23.063Z</time></trkpt><trkpt lat="35.8526107" lon="8.5019204"><ele>615.6666666666666</ele><time>2026-05-01T14:04:24.1Z</time></trkpt><trkpt lat="35.8526524" lon="8.5016885"><ele>615.0</ele><time>2026-05-01T14:04:25.064Z</time></trkpt><trkpt lat="35.8526945" lon="8.5014605"><ele>614.3333333333334</ele><time>2026-05-01T14:04:26.072Z</time></trkpt><trkpt lat="35.8527361" lon="8.5012237"><ele>613.6666666666667</ele><time>2026-05-01T14:04:27.068Z</time></trkpt><trkpt lat="35.8527796" lon="8.5009867"><ele>613.0</ele><time>2026-05-01T14:04:28.071Z</time></trkpt><trkpt lat="35.8528169" lon="8.5007596"><ele>613.0</ele><time>2026-05-01T14:04:29.062Z</time></trkpt><trkpt lat="35.8528536" lon="8.5005296"><ele>613.0</ele><time>2026-05-01T14:04:30.075Z</time></trkpt><trkpt lat="35.8528937" lon="8.500296"><ele>613.0</ele><time>2026-05-01T14:04:31.066Z</time></trkpt><trkpt lat="35.8529331" lon="8.5000681"><ele>612.0</ele><time>2026-05-01T14:04:32.069Z</time></trkpt><trkpt lat="35.8529709" lon="8.4998364"><ele>611.0</ele><time>2026-05-01T14:04:33.077Z</time></trkpt><trkpt lat="35.8530071" lon="8.4996053"><ele>610.0</ele><time>2026-05-01T14:04:34.082Z</time></trkpt><trkpt lat="35.8530475" lon="8.499368"><ele>610.0</ele><time>2026-05-01T14:04:35.078Z</time></trkpt><trkpt lat="35.853084" lon="8.4991381"><ele>610.0</ele><time>2026-05-01T14:04:36.101Z</time></trkpt><trkpt lat="35.8531262" lon="8.4989067"><ele>610.0</ele><time>2026-05-01T14:04:37.081Z</time></trkpt><trkpt lat="35.8531667" lon="8.4986824"><ele>609.6666666666667</ele><time>2026-05-01T14:04:38.077Z</time></trkpt><trkpt lat="35.8532088" lon="8.4984551"><ele>609.3333333333334</ele><time>2026-05-01T14:04:39.077Z</time></trkpt><trkpt lat="35.8532501" lon="8.4982226"><ele>609.0</ele><time>2026-05-01T14:04:40.067Z</time></trkpt><trkpt lat="35.8532897" lon="8.4979915"><ele>607.6666666666666</ele><time>2026-05-01T14:04:41.073Z</time></trkpt><trkpt lat="35.8533282" lon="8.4977598"><ele>606.3333333333333</ele><time>2026-05-01T14:04:42.065Z</time></trkpt><trkpt lat="35.8533693" lon="8.497526"><ele>605.0</ele><time>2026-05-01T14:04:43.073Z</time></trkpt><trkpt lat="35.8534099" lon="8.4972895"><ele>603.6666666666666</ele><time>2026-05-01T14:04:44.07Z</time></trkpt><trkpt lat="35.8534539" lon="8.4970527"><ele>602.3333333333334</ele><time>2026-05-01T14:04:45.066Z</time></trkpt><trkpt lat="35.8534943" lon="8.4968217"><ele>601.0</ele><time>2026-05-01T14:04:46.057Z</time></trkpt><trkpt lat="35.8535332" lon="8.4965891"><ele>601.0</ele><time>2026-05-01T14:04:47.066Z</time></trkpt><trkpt lat="35.8535718" lon="8.4963562"><ele>601.0</ele><time>2026-05-01T14:04:48.075Z</time></trkpt><trkpt lat="35.8536115" lon="8.4961214"><ele>601.0</ele><time>2026-05-01T14:04:49.078Z</time></trkpt><trkpt lat="35.8536474" lon="8.4958935"><ele>600.6666666666667</ele><time>2026-05-01T14:04:50.073Z</time></trkpt><trkpt lat="35.8536839" lon="8.4956638"><ele>600.3333333333334</ele><time>2026-05-01T14:04:51.078Z</time></trkpt><trkpt lat="35.8537214" lon="8.4954368"><ele>600.0</ele><time>2026-05-01T14:04:52.076Z</time></trkpt><trkpt lat="35.8537579" lon="8.4952127"><ele>599.6666666666666</ele><time>2026-05-01T14:04:53.076Z</time></trkpt><trkpt lat="35.8537969" lon="8.4949924"><ele>599.3333333333333</ele><time>2026-05-01T14:04:54.075Z</time></trkpt><trkpt lat="35.8538367" lon="8.4947746"><ele>599.0</ele><time>2026-05-01T14:04:55.082Z</time></trkpt><trkpt lat="35.8538736" lon="8.4945603"><ele>599.0</ele><time>2026-05-01T14:04:56.079Z</time></trkpt><trkpt lat="35.8539083" lon="8.4943573"><ele>599.0</ele><time>2026-05-01T14:04:57.074Z</time></trkpt><trkpt lat="35.8539417" lon="8.4941592"><ele>599.0</ele><time>2026-05-01T14:04:58.072Z</time></trkpt><trkpt lat="35.8539721" lon="8.4939634"><ele>599.0</ele><time>2026-05-01T14:04:59.073Z</time></trkpt><trkpt lat="35.8540069" lon="8.493763"><ele>599.0</ele><time>2026-05-01T14:05:00.088Z</time></trkpt><trkpt lat="35.8540409" lon="8.4935707"><ele>599.0</ele><time>2026-05-01T14:05:01.071Z</time></trkpt><trkpt lat="35.8540769" lon="8.4933816"><ele>599.3333333333333</ele><time>2026-05-01T14:05:02.06Z</time></trkpt><trkpt lat="35.8541108" lon="8.4931904"><ele>599.6666666666666</ele><time>2026-05-01T14:05:03.067Z</time></trkpt><trkpt lat="35.8541462" lon="8.4930012"><ele>600.0</ele><time>2026-05-01T14:05:04.073Z</time></trkpt><trkpt lat="35.8541773" lon="8.4928149"><ele>599.3333333333334</ele><time>2026-05-01T14:05:05.075Z</time></trkpt><trkpt lat="35.854208" lon="8.492629"><ele>598.6666666666667</ele><time>2026-05-01T14:05:06.076Z</time></trkpt><trkpt lat="35.8542371" lon="8.4924459"><ele>598.0</ele><time>2026-05-01T14:05:07.089Z</time></trkpt><trkpt lat="35.8542672" lon="8.4922658"><ele>597.25</ele><time>2026-05-01T14:05:08.086Z</time></trkpt><trkpt lat="35.8542955" lon="8.4920897"><ele>596.5</ele><time>2026-05-01T14:05:09.071Z</time></trkpt><trkpt lat="35.8543221" lon="8.4919182"><ele>595.75</ele><time>2026-05-01T14:05:10.08Z</time></trkpt><trkpt lat="35.8543454" lon="8.4917375"><ele>595.0</ele><time>2026-05-01T14:05:11.077Z</time></trkpt><trkpt lat="35.8543597" lon="8.4915549"><ele>595.0</ele><time>2026-05-01T14:05:12.05Z</time></trkpt><trkpt lat="35.8543731" lon="8.4913733"><ele>595.0</ele><time>2026-05-01T14:05:13.058Z</time></trkpt><trkpt lat="35.8543772" lon="8.4911874"><ele>595.0</ele><time>2026-05-01T14:05:14.079Z</time></trkpt><trkpt lat="35.8543809" lon="8.4909907"><ele>594.3333333333334</ele><time>2026-05-01T14:05:15.074Z</time></trkpt><trkpt lat="35.8543746" lon="8.4907938"><ele>593.6666666666666</ele><time>2026-05-01T14:05:16.074Z</time></trkpt><trkpt lat="35.8543645" lon="8.4905928"><ele>593.0</ele><time>2026-05-01T14:05:17.081Z</time></trkpt><trkpt lat="35.8543473" lon="8.4903931"><ele>593.0</ele><time>2026-05-01T14:05:18.07Z</time></trkpt><trkpt lat="35.8543239" lon="8.4901966"><ele>593.0</ele><time>2026-05-01T14:05:19.073Z</time></trkpt><trkpt lat="35.8542974" lon="8.4900029"><ele>593.0</ele><time>2026-05-01T14:05:20.078Z</time></trkpt><trkpt lat="35.8542668" lon="8.4898029"><ele>593.0</ele><time>2026-05-01T14:05:21.072Z</time></trkpt><trkpt lat="35.8542328" lon="8.4896079"><ele>593.0</ele><time>2026-05-01T14:05:22.085Z</time></trkpt><trkpt lat="35.8541965" lon="8.4894167"><ele>593.0</ele><time>2026-05-01T14:05:23.071Z</time></trkpt><trkpt lat="35.8541517" lon="8.4892233"><ele>592.0</ele><time>2026-05-01T14:05:24.071Z</time></trkpt><trkpt lat="35.8541023" lon="8.4890381"><ele>591.0</ele><time>2026-05-01T14:05:25.108Z</time></trkpt><trkpt lat="35.8540467" lon="8.4888568"><ele>590.0</ele><time>2026-05-01T14:05:26.073Z</time></trkpt><trkpt lat="35.8539812" lon="8.4886779"><ele>589.6666666666666</ele><time>2026-05-01T14:05:27.08Z</time></trkpt><trkpt lat="35.8539174" lon="8.488497"><ele>589.3333333333334</ele><time>2026-05-01T14:05:28.078Z</time></trkpt><trkpt lat="35.8538535" lon="8.4883209"><ele>589.0</ele><time>2026-05-01T14:05:29.073Z</time></trkpt><trkpt lat="35.853787" lon="8.4881451"><ele>589.0</ele><time>2026-05-01T14:05:30.081Z</time></trkpt><trkpt lat="35.8537184" lon="8.487973"><ele>589.0</ele><time>2026-05-01T14:05:31.076Z</time></trkpt><trkpt lat="35.8536507" lon="8.4878044"><ele>589.0</ele><time>2026-05-01T14:05:32.074Z</time></trkpt><trkpt lat="35.8535891" lon="8.4876455"><ele>588.75</ele><time>2026-05-01T14:05:33.084Z</time></trkpt><trkpt lat="35.8535285" lon="8.4874918"><ele>588.5</ele><time>2026-05-01T14:05:34.075Z</time></trkpt><trkpt lat="35.8534746" lon="8.4873498"><ele>588.25</ele><time>2026-05-01T14:05:35.077Z</time></trkpt><trkpt lat="35.8534181" lon="8.4872104"><ele>588.0</ele><time>2026-05-01T14:05:36.086Z</time></trkpt><trkpt lat="35.8533611" lon="8.4870648"><ele>587.0</ele><time>2026-05-01T14:05:37.079Z</time></trkpt><trkpt lat="35.8533003" lon="8.4869179"><ele>586.0</ele><time>2026-05-01T14:05:38.095Z</time></trkpt><trkpt lat="35.8532369" lon="8.4867666"><ele>585.0</ele><time>2026-05-01T14:05:39.08Z</time></trkpt><trkpt lat="35.8531729" lon="8.4866065"><ele>584.0</ele><time>2026-05-01T14:05:40.095Z</time></trkpt><trkpt lat="35.853112" lon="8.4864408"><ele>584.0</ele><time>2026-05-01T14:05:41.081Z</time></trkpt><trkpt lat="35.8530523" lon="8.4862832"><ele>584.0</ele><time>2026-05-01T14:05:42.072Z</time></trkpt><trkpt lat="35.8529923" lon="8.4861239"><ele>584.0</ele><time>2026-05-01T14:05:43.074Z</time></trkpt><trkpt lat="35.8529302" lon="8.4859669"><ele>584.0</ele><time>2026-05-01T14:05:44.067Z</time></trkpt><trkpt lat="35.8528655" lon="8.4858042"><ele>584.0</ele><time>2026-05-01T14:05:45.077Z</time></trkpt><trkpt lat="35.8527981" lon="8.4856426"><ele>584.0</ele><time>2026-05-01T14:05:46.087Z</time></trkpt><trkpt lat="35.8527372" lon="8.4854791"><ele>584.0</ele><time>2026-05-01T14:05:47.08Z</time></trkpt><trkpt lat="35.852673" lon="8.4853214"><ele>584.0</ele><time>2026-05-01T14:05:48.074Z</time></trkpt><trkpt lat="35.8526112" lon="8.4851603"><ele>584.0</ele><time>2026-05-01T14:05:49.075Z</time></trkpt><trkpt lat="35.8525453" lon="8.4849981"><ele>584.0</ele><time>2026-05-01T14:05:50.072Z</time></trkpt><trkpt lat="35.8524803" lon="8.4848317"><ele>584.0</ele><time>2026-05-01T14:05:51.076Z</time></trkpt><trkpt lat="35.8524201" lon="8.4846641"><ele>584.0</ele><time>2026-05-01T14:05:52.077Z</time></trkpt><trkpt lat="35.8523559" lon="8.4845009"><ele>584.0</ele><time>2026-05-01T14:05:53.077Z</time></trkpt><trkpt lat="35.8522917" lon="8.4843378"><ele>584.0</ele><time>2026-05-01T14:05:54.064Z</time></trkpt><trkpt lat="35.8522268" lon="8.4841718"><ele>584.0</ele><time>2026-05-01T14:05:55.073Z</time></trkpt><trkpt lat="35.8521612" lon="8.484004"><ele>584.0</ele><time>2026-05-01T14:05:56.076Z</time></trkpt><trkpt lat="35.8521003" lon="8.4838436"><ele>584.5</ele><time>2026-05-01T14:05:57.079Z</time></trkpt><trkpt lat="35.8520394" lon="8.4836817"><ele>585.0</ele><time>2026-05-01T14:05:58.083Z</time></trkpt><trkpt lat="35.8519732" lon="8.4835189"><ele>585.5</ele><time>2026-05-01T14:05:59.077Z</time></trkpt><trkpt lat="35.85191" lon="8.4833636"><ele>586.0</ele><time>2026-05-01T14:06:00.084Z</time></trkpt><trkpt lat="35.8518483" lon="8.4831987"><ele>585.25</ele><time>2026-05-01T14:06:01.068Z</time></trkpt><trkpt lat="35.8517861" lon="8.4830405"><ele>584.5</ele><time>2026-05-01T14:06:02.071Z</time></trkpt><trkpt lat="35.8517259" lon="8.4828813"><ele>583.75</ele><time>2026-05-01T14:06:03.072Z</time></trkpt><trkpt lat="35.8516644" lon="8.4827187"><ele>583.0</ele><time>2026-05-01T14:06:04.079Z</time></trkpt><trkpt lat="35.8516044" lon="8.4825632"><ele>583.0</ele><time>2026-05-01T14:06:05.065Z</time></trkpt><trkpt lat="35.8515435" lon="8.4824081"><ele>583.0</ele><time>2026-05-01T14:06:06.078Z</time></trkpt><trkpt lat="35.851481" lon="8.482258"><ele>583.0</ele><time>2026-05-01T14:06:07.085Z</time></trkpt><trkpt lat="35.8514202" lon="8.4821084"><ele>583.0</ele><time>2026-05-01T14:06:08.073Z</time></trkpt><trkpt lat="35.8513609" lon="8.4819645"><ele>583.25</ele><time>2026-05-01T14:06:09.083Z</time></trkpt><trkpt lat="35.8513026" lon="8.4818192"><ele>583.5</ele><time>2026-05-01T14:06:10.074Z</time></trkpt><trkpt lat="35.8512496" lon="8.4816869"><ele>583.75</ele><time>2026-05-01T14:06:11.063Z</time></trkpt><trkpt lat="35.851196" lon="8.4815596"><ele>584.0</ele><time>2026-05-01T14:06:12.082Z</time></trkpt><trkpt lat="35.8511552" lon="8.4814367"><ele>584.0</ele><time>2026-05-01T14:06:13.071Z</time></trkpt><trkpt lat="35.8511125" lon="8.4813298"><ele>584.0</ele><time>2026-05-01T14:06:14.082Z</time></trkpt><trkpt lat="35.851078" lon="8.4812284"><ele>584.0</ele><time>2026-05-01T14:06:15.074Z</time></trkpt><trkpt lat="35.8510392" lon="8.4811384"><ele>584.0</ele><time>2026-05-01T14:06:16.08Z</time></trkpt><trkpt lat="35.8510078" lon="8.4810602"><ele>584.0</ele><time>2026-05-01T14:06:17.075Z</time></trkpt><trkpt lat="35.850961" lon="8.4809297"><ele>584.0</ele><time>2026-05-01T14:06:19.074Z</time></trkpt><trkpt lat="35.8509318" lon="8.4808567"><ele>584.0</ele><time>2026-05-01T14:06:21.074Z</time></trkpt><trkpt lat="35.8509043" lon="8.4807825"><ele>584.0</ele><time>2026-05-01T14:06:24.07Z</time></trkpt><trkpt lat="35.8508662" lon="8.4806816"><ele>584.0</ele><time>2026-05-01T14:06:46.079Z</time></trkpt><trkpt lat="35.8508208" lon="8.4805588"><ele>584.0</ele><time>2026-05-01T14:06:48.088Z</time></trkpt><trkpt lat="35.8507889" lon="8.4804744"><ele>584.0</ele><time>2026-05-01T14:06:49.068Z</time></trkpt><trkpt lat="35.8507513" lon="8.4803841"><ele>584.0</ele><time>2026-05-01T14:06:50.078Z</time></trkpt><trkpt lat="35.8507121" lon="8.4802893"><ele>584.0</ele><time>2026-05-01T14:06:51.071Z</time></trkpt><trkpt lat="35.8506721" lon="8.4801849"><ele>584.0</ele><time>2026-05-01T14:06:52.068Z</time></trkpt><trkpt lat="35.8506244" lon="8.480081"><ele>584.0</ele><time>2026-05-01T14:06:53.082Z</time></trkpt><trkpt lat="35.8505856" lon="8.4799802"><ele>584.0</ele><time>2026-05-01T14:06:54.072Z</time></trkpt><trkpt lat="35.8505505" lon="8.4798899"><ele>584.0</ele><time>2026-05-01T14:06:55.083Z</time></trkpt><trkpt lat="35.8505137" lon="8.4797968"><ele>584.0</ele><time>2026-05-01T14:06:56.07Z</time></trkpt><trkpt lat="35.8504758" lon="8.4796861"><ele>584.0</ele><time>2026-05-01T14:06:57.071Z</time></trkpt><trkpt lat="35.8504365" lon="8.4795806"><ele>584.0</ele><time>2026-05-01T14:06:58.066Z</time></trkpt><trkpt lat="35.8503908" lon="8.4794665"><ele>584.0</ele><time>2026-05-01T14:06:59.077Z</time></trkpt><trkpt lat="35.8503442" lon="8.4793561"><ele>584.0</ele><time>2026-05-01T14:07:00.103Z</time></trkpt><trkpt lat="35.8503042" lon="8.4792466"><ele>584.5</ele><time>2026-05-01T14:07:01.072Z</time></trkpt><trkpt lat="35.8502648" lon="8.4791369"><ele>585.0</ele><time>2026-05-01T14:07:02.089Z</time></trkpt><trkpt lat="35.8502225" lon="8.4790359"><ele>585.5</ele><time>2026-05-01T14:07:03.071Z</time></trkpt><trkpt lat="35.8501847" lon="8.4789373"><ele>586.0</ele><time>2026-05-01T14:07:04.069Z</time></trkpt><trkpt lat="35.8501542" lon="8.4788495"><ele>586.5</ele><time>2026-05-01T14:07:05.063Z</time></trkpt><trkpt lat="35.8501291" lon="8.4787779"><ele>587.0</ele><time>2026-05-01T14:07:06.075Z</time></trkpt><trkpt lat="35.8500808" lon="8.4786547"><ele>587.0</ele><time>2026-05-01T14:07:08.08Z</time></trkpt><trkpt lat="35.8500341" lon="8.4785474"><ele>587.0</ele><time>2026-05-01T14:07:10.084Z</time></trkpt><trkpt lat="35.8500097" lon="8.4784758"><ele>587.0</ele><time>2026-05-01T14:07:11.07Z</time></trkpt><trkpt lat="35.8499791" lon="8.4783971"><ele>587.0</ele><time>2026-05-01T14:07:12.077Z</time></trkpt><trkpt lat="35.8499377" lon="8.4783032"><ele>587.0</ele><time>2026-05-01T14:07:13.077Z</time></trkpt><trkpt lat="35.8498952" lon="8.4782068"><ele>587.0</ele><time>2026-05-01T14:07:14.078Z</time></trkpt><trkpt lat="35.8498488" lon="8.4781"><ele>587.0</ele><time>2026-05-01T14:07:15.088Z</time></trkpt><trkpt lat="35.8498072" lon="8.4779894"><ele>587.0</ele><time>2026-05-01T14:07:16.08Z</time></trkpt><trkpt lat="35.8497613" lon="8.4778781"><ele>587.0</ele><time>2026-05-01T14:07:17.066Z</time></trkpt><trkpt lat="35.8497143" lon="8.477764"><ele>587.0</ele><time>2026-05-01T14:07:18.058Z</time></trkpt><trkpt lat="35.8496638" lon="8.4776445"><ele>587.0</ele><time>2026-05-01T14:07:19.053Z</time></trkpt><trkpt lat="35.8496194" lon="8.4775215"><ele>586.5</ele><time>2026-05-01T14:07:20.072Z</time></trkpt><trkpt lat="35.8495722" lon="8.4774"><ele>586.0</ele><time>2026-05-01T14:07:21.077Z</time></trkpt><trkpt lat="35.8495233" lon="8.4772699"><ele>585.5</ele><time>2026-05-01T14:07:22.071Z</time></trkpt><trkpt lat="35.8494716" lon="8.477136"><ele>585.0</ele><time>2026-05-01T14:07:23.085Z</time></trkpt><trkpt lat="35.8494195" lon="8.4770071"><ele>585.0</ele><time>2026-05-01T14:07:24.079Z</time></trkpt><trkpt lat="35.8493681" lon="8.4768742"><ele>585.0</ele><time>2026-05-01T14:07:25.074Z</time></trkpt><trkpt lat="35.8493186" lon="8.4767442"><ele>585.0</ele><time>2026-05-01T14:07:26.074Z</time></trkpt><trkpt lat="35.8492629" lon="8.4766058"><ele>585.0</ele><time>2026-05-01T14:07:27.08Z</time></trkpt><trkpt lat="35.8492064" lon="8.4764647"><ele>585.0</ele><time>2026-05-01T14:07:28.113Z</time></trkpt><trkpt lat="35.8491506" lon="8.4763182"><ele>585.0</ele><time>2026-05-01T14:07:29.093Z</time></trkpt><trkpt lat="35.849087" lon="8.4761688"><ele>585.0</ele><time>2026-05-01T14:07:30.081Z</time></trkpt><trkpt lat="35.8490276" lon="8.4760175"><ele>585.0</ele><time>2026-05-01T14:07:31.079Z</time></trkpt><trkpt lat="35.8489682" lon="8.4758636"><ele>585.0</ele><time>2026-05-01T14:07:32.079Z</time></trkpt><trkpt lat="35.8489032" lon="8.4757119"><ele>585.0</ele><time>2026-05-01T14:07:33.077Z</time></trkpt><trkpt lat="35.8488449" lon="8.4755607"><ele>585.0</ele><time>2026-05-01T14:07:34.076Z</time></trkpt><trkpt lat="35.8487856" lon="8.4754012"><ele>585.0</ele><time>2026-05-01T14:07:35.074Z</time></trkpt><trkpt lat="35.8487242" lon="8.4752439"><ele>585.25</ele><time>2026-05-01T14:07:36.092Z</time></trkpt><trkpt lat="35.8486601" lon="8.4750862"><ele>585.5</ele><time>2026-05-01T14:07:37.074Z</time></trkpt><trkpt lat="35.8485964" lon="8.4749229"><ele>585.75</ele><time>2026-05-01T14:07:38.075Z</time></trkpt><trkpt lat="35.8485312" lon="8.4747514"><ele>586.0</ele><time>2026-05-01T14:07:39.201Z</time></trkpt><trkpt lat="35.8484622" lon="8.474575"><ele>584.6666666666667</ele><time>2026-05-01T14:07:40.141Z</time></trkpt><trkpt lat="35.8483882" lon="8.4743862"><ele>583.3333333333334</ele><time>2026-05-01T14:07:41.131Z</time></trkpt><trkpt lat="35.8483095" lon="8.4742005"><ele>582.0</ele><time>2026-05-01T14:07:42.132Z</time></trkpt><trkpt lat="35.8482342" lon="8.474003"><ele>582.0</ele><time>2026-05-01T14:07:43.131Z</time></trkpt><trkpt lat="35.8481542" lon="8.4738037"><ele>582.0</ele><time>2026-05-01T14:07:44.129Z</time></trkpt><trkpt lat="35.8480762" lon="8.4736066"><ele>582.0</ele><time>2026-05-01T14:07:45.138Z</time></trkpt><trkpt lat="35.8479976" lon="8.4734135"><ele>583.0</ele><time>2026-05-01T14:07:46.128Z</time></trkpt><trkpt lat="35.8479183" lon="8.47322"><ele>584.0</ele><time>2026-05-01T14:07:47.119Z</time></trkpt><trkpt lat="35.8478471" lon="8.4730257"><ele>585.0</ele><time>2026-05-01T14:07:48.139Z</time></trkpt><trkpt lat="35.8477784" lon="8.4728388"><ele>585.3333333333334</ele><time>2026-05-01T14:07:49.147Z</time></trkpt><trkpt lat="35.8477126" lon="8.4726549"><ele>585.6666666666667</ele><time>2026-05-01T14:07:50.129Z</time></trkpt><trkpt lat="35.8476398" lon="8.4724842"><ele>586.0</ele><time>2026-05-01T14:07:51.146Z</time></trkpt><trkpt lat="35.8475654" lon="8.4723095"><ele>585.0</ele><time>2026-05-01T14:07:52.131Z</time></trkpt><trkpt lat="35.8474975" lon="8.4721282"><ele>584.0</ele><time>2026-05-01T14:07:53.146Z</time></trkpt><trkpt lat="35.8474282" lon="8.4719461"><ele>583.0</ele><time>2026-05-01T14:07:54.145Z</time></trkpt><trkpt lat="35.847363" lon="8.4717547"><ele>583.0</ele><time>2026-05-01T14:07:55.141Z</time></trkpt><trkpt lat="35.8472939" lon="8.4715579"><ele>583.0</ele><time>2026-05-01T14:07:56.142Z</time></trkpt><trkpt lat="35.84722" lon="8.4713564"><ele>583.0</ele><time>2026-05-01T14:07:57.132Z</time></trkpt><trkpt lat="35.8471461" lon="8.4711491"><ele>583.3333333333334</ele><time>2026-05-01T14:07:58.143Z</time></trkpt><trkpt lat="35.8470751" lon="8.4709489"><ele>583.6666666666666</ele><time>2026-05-01T14:07:59.149Z</time></trkpt><trkpt lat="35.8470058" lon="8.4707469"><ele>584.0</ele><time>2026-05-01T14:08:00.137Z</time></trkpt><trkpt lat="35.8469372" lon="8.4705463"><ele>584.3333333333333</ele><time>2026-05-01T14:08:01.146Z</time></trkpt><trkpt lat="35.846864" lon="8.4703504"><ele>584.6666666666666</ele><time>2026-05-01T14:08:02.141Z</time></trkpt><trkpt lat="35.8467926" lon="8.4701609"><ele>585.0</ele><time>2026-05-01T14:08:03.148Z</time></trkpt><trkpt lat="35.8467274" lon="8.4699673"><ele>583.3333333333334</ele><time>2026-05-01T14:08:04.146Z</time></trkpt><trkpt lat="35.8466602" lon="8.4697705"><ele>581.6666666666667</ele><time>2026-05-01T14:08:05.14Z</time></trkpt><trkpt lat="35.8465913" lon="8.4695794"><ele>580.0</ele><time>2026-05-01T14:08:06.143Z</time></trkpt><trkpt lat="35.8465249" lon="8.4693855"><ele>580.0</ele><time>2026-05-01T14:08:07.151Z</time></trkpt><trkpt lat="35.8464549" lon="8.4692004"><ele>580.0</ele><time>2026-05-01T14:08:08.147Z</time></trkpt><trkpt lat="35.8463849" lon="8.4689997"><ele>580.0</ele><time>2026-05-01T14:08:09.145Z</time></trkpt><trkpt lat="35.8463156" lon="8.4688036"><ele>580.6666666666667</ele><time>2026-05-01T14:08:10.137Z</time></trkpt><trkpt lat="35.8462456" lon="8.4686047"><ele>581.3333333333334</ele><time>2026-05-01T14:08:11.15Z</time></trkpt><trkpt lat="35.8461766" lon="8.4684026"><ele>582.0</ele><time>2026-05-01T14:08:12.14Z</time></trkpt><trkpt lat="35.8461059" lon="8.4681984"><ele>582.0</ele><time>2026-05-01T14:08:13.137Z</time></trkpt><trkpt lat="35.8460374" lon="8.467993"><ele>582.0</ele><time>2026-05-01T14:08:14.141Z</time></trkpt><trkpt lat="35.8459717" lon="8.4677836"><ele>582.0</ele><time>2026-05-01T14:08:15.144Z</time></trkpt><trkpt lat="35.8459119" lon="8.4675728"><ele>581.0</ele><time>2026-05-01T14:08:16.143Z</time></trkpt><trkpt lat="35.8458601" lon="8.4673594"><ele>580.0</ele><time>2026-05-01T14:08:17.141Z</time></trkpt><trkpt lat="35.8458174" lon="8.4671478"><ele>579.0</ele><time>2026-05-01T14:08:18.123Z</time></trkpt><trkpt lat="35.8457846" lon="8.4669358"><ele>579.0</ele><time>2026-05-01T14:08:19.155Z</time></trkpt><trkpt lat="35.84576" lon="8.4667218"><ele>579.0</ele><time>2026-05-01T14:08:20.142Z</time></trkpt><trkpt lat="35.8457406" lon="8.4665067"><ele>579.0</ele><time>2026-05-01T14:08:21.138Z</time></trkpt><trkpt lat="35.8457279" lon="8.4662869"><ele>579.0</ele><time>2026-05-01T14:08:22.134Z</time></trkpt><trkpt lat="35.8457223" lon="8.466066"><ele>579.0</ele><time>2026-05-01T14:08:23.139Z</time></trkpt><trkpt lat="35.8457261" lon="8.4658433"><ele>579.0</ele><time>2026-05-01T14:08:24.143Z</time></trkpt><trkpt lat="35.8457406" lon="8.4656106"><ele>578.6666666666666</ele><time>2026-05-01T14:08:25.124Z</time></trkpt><trkpt lat="35.8457611" lon="8.4653751"><ele>578.3333333333333</ele><time>2026-05-01T14:08:26.14Z</time></trkpt><trkpt lat="35.845784" lon="8.4651363"><ele>578.0</ele><time>2026-05-01T14:08:27.138Z</time></trkpt><trkpt lat="35.8458107" lon="8.4648855"><ele>578.0</ele><time>2026-05-01T14:08:28.149Z</time></trkpt><trkpt lat="35.8458377" lon="8.464627"><ele>578.0</ele><time>2026-05-01T14:08:29.143Z</time></trkpt><trkpt lat="35.8458653" lon="8.4643617"><ele>578.0</ele><time>2026-05-01T14:08:30.155Z</time></trkpt><trkpt lat="35.8458928" lon="8.4640935"><ele>577.6666666666666</ele><time>2026-05-01T14:08:31.133Z</time></trkpt><trkpt lat="35.8459217" lon="8.4638269"><ele>577.3333333333334</ele><time>2026-05-01T14:08:32.144Z</time></trkpt><trkpt lat="35.8459512" lon="8.4635618"><ele>577.0</ele><time>2026-05-01T14:08:33.149Z</time></trkpt><trkpt lat="35.8459798" lon="8.4632991"><ele>576.6666666666667</ele><time>2026-05-01T14:08:34.135Z</time></trkpt><trkpt lat="35.8460085" lon="8.4630432"><ele>576.3333333333334</ele><time>2026-05-01T14:08:35.151Z</time></trkpt><trkpt lat="35.8460351" lon="8.4627915"><ele>576.0</ele><time>2026-05-01T14:08:36.147Z</time></trkpt><trkpt lat="35.8460616" lon="8.4625466"><ele>575.6666666666666</ele><time>2026-05-01T14:08:37.148Z</time></trkpt><trkpt lat="35.8460865" lon="8.4623063"><ele>575.3333333333333</ele><time>2026-05-01T14:08:38.141Z</time></trkpt><trkpt lat="35.8461141" lon="8.4620735"><ele>575.0</ele><time>2026-05-01T14:08:39.129Z</time></trkpt><trkpt lat="35.8461411" lon="8.461843"><ele>575.0</ele><time>2026-05-01T14:08:40.14Z</time></trkpt><trkpt lat="35.846166" lon="8.4616198"><ele>575.0</ele><time>2026-05-01T14:08:41.147Z</time></trkpt><trkpt lat="35.8461895" lon="8.4613983"><ele>575.0</ele><time>2026-05-01T14:08:42.143Z</time></trkpt><trkpt lat="35.8462127" lon="8.4611806"><ele>574.6666666666666</ele><time>2026-05-01T14:08:43.13Z</time></trkpt><trkpt lat="35.846238" lon="8.4609654"><ele>574.3333333333334</ele><time>2026-05-01T14:08:44.139Z</time></trkpt><trkpt lat="35.8462627" lon="8.4607476"><ele>574.0</ele><time>2026-05-01T14:08:45.135Z</time></trkpt><trkpt lat="35.8462866" lon="8.4605293"><ele>574.3333333333334</ele><time>2026-05-01T14:08:46.141Z</time></trkpt><trkpt lat="35.84631" lon="8.4603102"><ele>574.6666666666666</ele><time>2026-05-01T14:08:47.143Z</time></trkpt><trkpt lat="35.8463332" lon="8.4600907"><ele>575.0</ele><time>2026-05-01T14:08:48.136Z</time></trkpt><trkpt lat="35.8463574" lon="8.45987"><ele>575.0</ele><time>2026-05-01T14:08:49.127Z</time></trkpt><trkpt lat="35.8463804" lon="8.4596498"><ele>575.0</ele><time>2026-05-01T14:08:50.137Z</time></trkpt><trkpt lat="35.8464046" lon="8.4594249"><ele>575.0</ele><time>2026-05-01T14:08:51.132Z</time></trkpt><trkpt lat="35.8464297" lon="8.4591939"><ele>574.6666666666666</ele><time>2026-05-01T14:08:52.139Z</time></trkpt><trkpt lat="35.8464545" lon="8.458963"><ele>574.3333333333334</ele><time>2026-05-01T14:08:53.122Z</time></trkpt><trkpt lat="35.8464807" lon="8.4587268"><ele>574.0</ele><time>2026-05-01T14:08:54.147Z</time></trkpt><trkpt lat="35.8465067" lon="8.458488"><ele>574.0</ele><time>2026-05-01T14:08:55.149Z</time></trkpt><trkpt lat="35.8465335" lon="8.4582475"><ele>574.0</ele><time>2026-05-01T14:08:56.137Z</time></trkpt><trkpt lat="35.8465605" lon="8.4580061"><ele>574.0</ele><time>2026-05-01T14:08:57.144Z</time></trkpt><trkpt lat="35.8465858" lon="8.4577638"><ele>574.3333333333334</ele><time>2026-05-01T14:08:58.148Z</time></trkpt><trkpt lat="35.8466114" lon="8.4575203"><ele>574.6666666666666</ele><time>2026-05-01T14:08:59.131Z</time></trkpt><trkpt lat="35.8466376" lon="8.4572757"><ele>575.0</ele><time>2026-05-01T14:09:00.144Z</time></trkpt><trkpt lat="35.8466638" lon="8.4570303"><ele>575.0</ele><time>2026-05-01T14:09:01.132Z</time></trkpt><trkpt lat="35.846691" lon="8.4567821"><ele>575.0</ele><time>2026-05-01T14:09:02.131Z</time></trkpt><trkpt lat="35.846718" lon="8.4565326"><ele>575.0</ele><time>2026-05-01T14:09:03.125Z</time></trkpt><trkpt lat="35.8467448" lon="8.4562816"><ele>575.0</ele><time>2026-05-01T14:09:04.137Z</time></trkpt><trkpt lat="35.8467723" lon="8.4560285"><ele>575.0</ele><time>2026-05-01T14:09:05.14Z</time></trkpt><trkpt lat="35.8468" lon="8.4557736"><ele>575.0</ele><time>2026-05-01T14:09:06.137Z</time></trkpt><trkpt lat="35.8468271" lon="8.455517"><ele>575.3333333333333</ele><time>2026-05-01T14:09:07.123Z</time></trkpt><trkpt lat="35.846855" lon="8.4552613"><ele>575.6666666666666</ele><time>2026-05-01T14:09:08.137Z</time></trkpt><trkpt lat="35.8468829" lon="8.4550043"><ele>576.0</ele><time>2026-05-01T14:09:09.135Z</time></trkpt><trkpt lat="35.8469109" lon="8.4547459"><ele>576.0</ele><time>2026-05-01T14:09:10.146Z</time></trkpt><trkpt lat="35.8469384" lon="8.4544877"><ele>576.0</ele><time>2026-05-01T14:09:11.133Z</time></trkpt><trkpt lat="35.846968" lon="8.4542259"><ele>576.0</ele><time>2026-05-01T14:09:12.133Z</time></trkpt><trkpt lat="35.8469966" lon="8.4539696"><ele>575.6666666666666</ele><time>2026-05-01T14:09:13.12Z</time></trkpt><trkpt lat="35.8470247" lon="8.4537166"><ele>575.3333333333333</ele><time>2026-05-01T14:09:14.118Z</time></trkpt><trkpt lat="35.8470514" lon="8.4534613"><ele>575.0</ele><time>2026-05-01T14:09:15.13Z</time></trkpt><trkpt lat="35.8470772" lon="8.4532037"><ele>573.6666666666666</ele><time>2026-05-01T14:09:16.123Z</time></trkpt><trkpt lat="35.8471027" lon="8.4529482"><ele>572.3333333333334</ele><time>2026-05-01T14:09:17.124Z</time></trkpt><trkpt lat="35.8471299" lon="8.4526917"><ele>571.0</ele><time>2026-05-01T14:09:18.137Z</time></trkpt><trkpt lat="35.8471577" lon="8.4524342"><ele>571.0</ele><time>2026-05-01T14:09:19.125Z</time></trkpt><trkpt lat="35.8471874" lon="8.4521765"><ele>571.0</ele><time>2026-05-01T14:09:20.125Z</time></trkpt><trkpt lat="35.847218" lon="8.4519192"><ele>571.0</ele><time>2026-05-01T14:09:21.13Z</time></trkpt><trkpt lat="35.8472492" lon="8.4516605"><ele>570.6666666666667</ele><time>2026-05-01T14:09:22.127Z</time></trkpt><trkpt lat="35.8472785" lon="8.4514047"><ele>570.3333333333334</ele><time>2026-05-01T14:09:23.132Z</time></trkpt><trkpt lat="35.8473061" lon="8.4511483"><ele>570.0</ele><time>2026-05-01T14:09:24.133Z</time></trkpt><trkpt lat="35.8473333" lon="8.4508903"><ele>570.0</ele><time>2026-05-01T14:09:25.141Z</time></trkpt><trkpt lat="35.8473595" lon="8.4506333"><ele>570.0</ele><time>2026-05-01T14:09:26.134Z</time></trkpt><trkpt lat="35.8473868" lon="8.4503746"><ele>570.0</ele><time>2026-05-01T14:09:27.138Z</time></trkpt><trkpt lat="35.8474163" lon="8.4501167"><ele>570.0</ele><time>2026-05-01T14:09:28.131Z</time></trkpt><trkpt lat="35.8474471" lon="8.4498591"><ele>570.0</ele><time>2026-05-01T14:09:29.134Z</time></trkpt><trkpt lat="35.8474798" lon="8.4496041"><ele>570.0</ele><time>2026-05-01T14:09:30.143Z</time></trkpt><trkpt lat="35.8475179" lon="8.4493483"><ele>570.3333333333334</ele><time>2026-05-01T14:09:31.141Z</time></trkpt><trkpt lat="35.8475643" lon="8.4490945"><ele>570.6666666666667</ele><time>2026-05-01T14:09:32.137Z</time></trkpt><trkpt lat="35.8476206" lon="8.4488428"><ele>571.0</ele><time>2026-05-01T14:09:33.14Z</time></trkpt><trkpt lat="35.8476821" lon="8.4485938"><ele>570.0</ele><time>2026-05-01T14:09:34.149Z</time></trkpt><trkpt lat="35.847748" lon="8.4483444"><ele>569.0</ele><time>2026-05-01T14:09:35.129Z</time></trkpt><trkpt lat="35.8478128" lon="8.4481075"><ele>568.0</ele><time>2026-05-01T14:09:36.129Z</time></trkpt><trkpt lat="35.8478752" lon="8.4478791"><ele>566.0</ele><time>2026-05-01T14:09:37.135Z</time></trkpt><trkpt lat="35.8479347" lon="8.447657"><ele>564.0</ele><time>2026-05-01T14:09:38.127Z</time></trkpt><trkpt lat="35.8479946" lon="8.4474335"><ele>562.0</ele><time>2026-05-01T14:09:39.138Z</time></trkpt><trkpt lat="35.8480544" lon="8.4472096"><ele>561.3333333333334</ele><time>2026-05-01T14:09:40.13Z</time></trkpt><trkpt lat="35.848116" lon="8.4469844"><ele>560.6666666666666</ele><time>2026-05-01T14:09:41.148Z</time></trkpt><trkpt lat="35.8481772" lon="8.4467592"><ele>560.0</ele><time>2026-05-01T14:09:42.137Z</time></trkpt><trkpt lat="35.8482394" lon="8.4465362"><ele>560.0</ele><time>2026-05-01T14:09:43.114Z</time></trkpt><trkpt lat="35.8483003" lon="8.4463134"><ele>560.0</ele><time>2026-05-01T14:09:44.121Z</time></trkpt><trkpt lat="35.8483611" lon="8.4460877"><ele>560.0</ele><time>2026-05-01T14:09:45.116Z</time></trkpt><trkpt lat="35.8484225" lon="8.4458629"><ele>561.0</ele><time>2026-05-01T14:09:46.129Z</time></trkpt><trkpt lat="35.8484848" lon="8.4456366"><ele>562.0</ele><time>2026-05-01T14:09:47.113Z</time></trkpt><trkpt lat="35.8485478" lon="8.4454082"><ele>563.0</ele><time>2026-05-01T14:09:48.13Z</time></trkpt><trkpt lat="35.8486093" lon="8.4451839"><ele>563.0</ele><time>2026-05-01T14:09:49.136Z</time></trkpt><trkpt lat="35.8486702" lon="8.4449586"><ele>563.0</ele><time>2026-05-01T14:09:50.134Z</time></trkpt><trkpt lat="35.8487351" lon="8.4447286"><ele>563.0</ele><time>2026-05-01T14:09:51.141Z</time></trkpt><trkpt lat="35.8487976" lon="8.4445007"><ele>563.0</ele><time>2026-05-01T14:09:52.137Z</time></trkpt><trkpt lat="35.8488586" lon="8.4442712"><ele>563.0</ele><time>2026-05-01T14:09:53.123Z</time></trkpt><trkpt lat="35.8489179" lon="8.4440445"><ele>563.0</ele><time>2026-05-01T14:09:54.128Z</time></trkpt><trkpt lat="35.8489786" lon="8.4438169"><ele>562.3333333333333</ele><time>2026-05-01T14:09:55.126Z</time></trkpt><trkpt lat="35.8490417" lon="8.4435887"><ele>561.6666666666666</ele><time>2026-05-01T14:09:56.138Z</time></trkpt><trkpt lat="35.8491063" lon="8.4433607"><ele>561.0</ele><time>2026-05-01T14:09:57.127Z</time></trkpt><trkpt lat="35.8491682" lon="8.4431341"><ele>560.6666666666666</ele><time>2026-05-01T14:09:58.147Z</time></trkpt><trkpt lat="35.8492308" lon="8.4429058"><ele>560.3333333333333</ele><time>2026-05-01T14:09:59.133Z</time></trkpt><trkpt lat="35.8492917" lon="8.4426793"><ele>560.0</ele><time>2026-05-01T14:10:00.135Z</time></trkpt><trkpt lat="35.8493531" lon="8.4424531"><ele>559.6666666666666</ele><time>2026-05-01T14:10:01.122Z</time></trkpt><trkpt lat="35.8494137" lon="8.4422268"><ele>559.3333333333334</ele><time>2026-05-01T14:10:02.137Z</time></trkpt><trkpt lat="35.8494741" lon="8.4419997"><ele>559.0</ele><time>2026-05-01T14:10:03.135Z</time></trkpt><trkpt lat="35.8495347" lon="8.4417718"><ele>559.0</ele><time>2026-05-01T14:10:04.133Z</time></trkpt><trkpt lat="35.8495916" lon="8.4415403"><ele>559.0</ele><time>2026-05-01T14:10:05.133Z</time></trkpt><trkpt lat="35.8496419" lon="8.4413078"><ele>559.0</ele><time>2026-05-01T14:10:06.137Z</time></trkpt><trkpt lat="35.8496883" lon="8.4410701"><ele>558.3333333333334</ele><time>2026-05-01T14:10:07.134Z</time></trkpt><trkpt lat="35.8497264" lon="8.4408283"><ele>557.6666666666666</ele><time>2026-05-01T14:10:08.142Z</time></trkpt><trkpt lat="35.8497562" lon="8.440586"><ele>557.0</ele><time>2026-05-01T14:10:09.139Z</time></trkpt><trkpt lat="35.8497795" lon="8.4403397"><ele>556.3333333333333</ele><time>2026-05-01T14:10:10.147Z</time></trkpt><trkpt lat="35.8497984" lon="8.4400889"><ele>555.6666666666666</ele><time>2026-05-01T14:10:11.125Z</time></trkpt><trkpt lat="35.8498152" lon="8.4398349"><ele>555.0</ele><time>2026-05-01T14:10:12.137Z</time></trkpt><trkpt lat="35.8498306" lon="8.4395794"><ele>554.3333333333334</ele><time>2026-05-01T14:10:13.136Z</time></trkpt><trkpt lat="35.8498446" lon="8.4393222"><ele>553.6666666666667</ele><time>2026-05-01T14:10:14.117Z</time></trkpt><trkpt lat="35.8498575" lon="8.4390594"><ele>553.0</ele><time>2026-05-01T14:10:15.136Z</time></trkpt><trkpt lat="35.8498709" lon="8.4387949"><ele>551.6666666666667</ele><time>2026-05-01T14:10:16.137Z</time></trkpt><trkpt lat="35.8498823" lon="8.4385297"><ele>550.3333333333334</ele><time>2026-05-01T14:10:17.111Z</time></trkpt><trkpt lat="35.8498959" lon="8.4382662"><ele>549.0</ele><time>2026-05-01T14:10:18.11Z</time></trkpt><trkpt lat="35.8499075" lon="8.4380038"><ele>549.0</ele><time>2026-05-01T14:10:19.13Z</time></trkpt><trkpt lat="35.8499185" lon="8.4377437"><ele>549.0</ele><time>2026-05-01T14:10:20.135Z</time></trkpt><trkpt lat="35.8499293" lon="8.4374842"><ele>549.0</ele><time>2026-05-01T14:10:21.141Z</time></trkpt><trkpt lat="35.8499408" lon="8.4372266"><ele>548.3333333333334</ele><time>2026-05-01T14:10:22.133Z</time></trkpt><trkpt lat="35.849952" lon="8.436972"><ele>547.6666666666667</ele><time>2026-05-01T14:10:23.131Z</time></trkpt><trkpt lat="35.8499624" lon="8.4367211"><ele>547.0</ele><time>2026-05-01T14:10:24.13Z</time></trkpt><trkpt lat="35.8499759" lon="8.4364779"><ele>546.3333333333334</ele><time>2026-05-01T14:10:25.122Z</time></trkpt><trkpt lat="35.8499894" lon="8.4362384"><ele>545.6666666666666</ele><time>2026-05-01T14:10:26.141Z</time></trkpt><trkpt lat="35.850008" lon="8.4359975"><ele>545.0</ele><time>2026-05-01T14:10:27.147Z</time></trkpt><trkpt lat="35.8500386" lon="8.43576"><ele>545.0</ele><time>2026-05-01T14:10:28.132Z</time></trkpt><trkpt lat="35.8500809" lon="8.435526"><ele>545.0</ele><time>2026-05-01T14:10:29.13Z</time></trkpt><trkpt lat="35.850137" lon="8.4352934"><ele>545.0</ele><time>2026-05-01T14:10:30.135Z</time></trkpt><trkpt lat="35.8501992" lon="8.4350607"><ele>546.6666666666666</ele><time>2026-05-01T14:10:31.135Z</time></trkpt><trkpt lat="35.8502703" lon="8.4348302"><ele>548.3333333333334</ele><time>2026-05-01T14:10:32.131Z</time></trkpt><trkpt lat="35.8503459" lon="8.4345997"><ele>550.0</ele><time>2026-05-01T14:10:33.142Z</time></trkpt><trkpt lat="35.8504234" lon="8.4343679"><ele>550.0</ele><time>2026-05-01T14:10:34.14Z</time></trkpt><trkpt lat="35.8505019" lon="8.4341361"><ele>550.0</ele><time>2026-05-01T14:10:35.145Z</time></trkpt><trkpt lat="35.85058" lon="8.4339045"><ele>550.0</ele><time>2026-05-01T14:10:36.144Z</time></trkpt><trkpt lat="35.8506572" lon="8.4336755"><ele>550.0</ele><time>2026-05-01T14:10:37.13Z</time></trkpt><trkpt lat="35.850732" lon="8.4334472"><ele>550.0</ele><time>2026-05-01T14:10:38.135Z</time></trkpt><trkpt lat="35.8508064" lon="8.4332199"><ele>550.0</ele><time>2026-05-01T14:10:39.138Z</time></trkpt><trkpt lat="35.8508816" lon="8.4329959"><ele>549.6666666666667</ele><time>2026-05-01T14:10:40.132Z</time></trkpt><trkpt lat="35.8509575" lon="8.4327744"><ele>549.3333333333334</ele><time>2026-05-01T14:10:41.124Z</time></trkpt><trkpt lat="35.8510341" lon="8.4325533"><ele>549.0</ele><time>2026-05-01T14:10:42.124Z</time></trkpt><trkpt lat="35.8511102" lon="8.4323314"><ele>548.6666666666666</ele><time>2026-05-01T14:10:43.12Z</time></trkpt><trkpt lat="35.8511835" lon="8.4321108"><ele>548.3333333333333</ele><time>2026-05-01T14:10:44.139Z</time></trkpt><trkpt lat="35.8512591" lon="8.4318885"><ele>548.0</ele><time>2026-05-01T14:10:45.139Z</time></trkpt><trkpt lat="35.8513355" lon="8.4316625"><ele>548.0</ele><time>2026-05-01T14:10:46.151Z</time></trkpt><trkpt lat="35.8514104" lon="8.4314361"><ele>548.0</ele><time>2026-05-01T14:10:47.139Z</time></trkpt><trkpt lat="35.8514865" lon="8.4312087"><ele>548.0</ele><time>2026-05-01T14:10:48.135Z</time></trkpt><trkpt lat="35.8515624" lon="8.4309832"><ele>547.0</ele><time>2026-05-01T14:10:49.135Z</time></trkpt><trkpt lat="35.851639" lon="8.4307573"><ele>546.0</ele><time>2026-05-01T14:10:50.138Z</time></trkpt><trkpt lat="35.8517159" lon="8.4305372"><ele>545.0</ele><time>2026-05-01T14:10:51.115Z</time></trkpt><trkpt lat="35.8517896" lon="8.4303188"><ele>545.6666666666666</ele><time>2026-05-01T14:10:52.132Z</time></trkpt><trkpt lat="35.8518622" lon="8.4301036"><ele>546.3333333333334</ele><time>2026-05-01T14:10:53.127Z</time></trkpt><trkpt lat="35.8519331" lon="8.4298879"><ele>547.0</ele><time>2026-05-01T14:10:54.124Z</time></trkpt><trkpt lat="35.8520042" lon="8.4296764"><ele>546.3333333333334</ele><time>2026-05-01T14:10:55.12Z</time></trkpt><trkpt lat="35.8520756" lon="8.4294618"><ele>545.6666666666666</ele><time>2026-05-01T14:10:56.137Z</time></trkpt><trkpt lat="35.8521478" lon="8.4292474"><ele>545.0</ele><time>2026-05-01T14:10:57.129Z</time></trkpt><trkpt lat="35.8522193" lon="8.4290308"><ele>545.0</ele><time>2026-05-01T14:10:58.118Z</time></trkpt><trkpt lat="35.8522894" lon="8.4288137"><ele>545.0</ele><time>2026-05-01T14:10:59.129Z</time></trkpt><trkpt lat="35.8523593" lon="8.4285926"><ele>545.0</ele><time>2026-05-01T14:11:00.125Z</time></trkpt><trkpt lat="35.852426" lon="8.4283702"><ele>545.6666666666666</ele><time>2026-05-01T14:11:01.116Z</time></trkpt><trkpt lat="35.8524855" lon="8.4281458"><ele>546.3333333333334</ele><time>2026-05-01T14:11:02.139Z</time></trkpt><trkpt lat="35.85254" lon="8.4279206"><ele>547.0</ele><time>2026-05-01T14:11:03.118Z</time></trkpt><trkpt lat="35.852587" lon="8.427692"><ele>547.0</ele><time>2026-05-01T14:11:04.12Z</time></trkpt><trkpt lat="35.8526243" lon="8.4274579"><ele>547.0</ele><time>2026-05-01T14:11:05.11Z</time></trkpt><trkpt lat="35.8526577" lon="8.4272198"><ele>547.0</ele><time>2026-05-01T14:11:06.129Z</time></trkpt><trkpt lat="35.8526868" lon="8.42698"><ele>547.0</ele><time>2026-05-01T14:11:07.125Z</time></trkpt><trkpt lat="35.8527103" lon="8.4267356"><ele>547.0</ele><time>2026-05-01T14:11:08.104Z</time></trkpt><trkpt lat="35.8527265" lon="8.4264872"><ele>547.0</ele><time>2026-05-01T14:11:09.108Z</time></trkpt><trkpt lat="35.85274" lon="8.4262362"><ele>547.6666666666667</ele><time>2026-05-01T14:11:10.098Z</time></trkpt><trkpt lat="35.8527516" lon="8.4259818"><ele>548.3333333333334</ele><time>2026-05-01T14:11:11.104Z</time></trkpt><trkpt lat="35.8527618" lon="8.4257218"><ele>549.0</ele><time>2026-05-01T14:11:12.099Z</time></trkpt><trkpt lat="35.8527705" lon="8.4254579"><ele>549.3333333333334</ele><time>2026-05-01T14:11:13.105Z</time></trkpt><trkpt lat="35.8527803" lon="8.425194"><ele>549.6666666666667</ele><time>2026-05-01T14:11:14.158Z</time></trkpt><trkpt lat="35.8527903" lon="8.4249323"><ele>550.0</ele><time>2026-05-01T14:11:15.119Z</time></trkpt><trkpt lat="35.8528011" lon="8.4246742"><ele>549.3333333333334</ele><time>2026-05-01T14:11:16.111Z</time></trkpt><trkpt lat="35.8528122" lon="8.4244185"><ele>548.6666666666666</ele><time>2026-05-01T14:11:17.1Z</time></trkpt><trkpt lat="35.852823" lon="8.4241641"><ele>548.0</ele><time>2026-05-01T14:11:18.125Z</time></trkpt><trkpt lat="35.8528339" lon="8.42391"><ele>547.3333333333333</ele><time>2026-05-01T14:11:19.103Z</time></trkpt><trkpt lat="35.852844" lon="8.4236529"><ele>546.6666666666666</ele><time>2026-05-01T14:11:20.125Z</time></trkpt><trkpt lat="35.8528533" lon="8.4233945"><ele>546.0</ele><time>2026-05-01T14:11:21.123Z</time></trkpt><trkpt lat="35.8528637" lon="8.4231364"><ele>545.0</ele><time>2026-05-01T14:11:22.111Z</time></trkpt><trkpt lat="35.8528748" lon="8.4228783"><ele>544.0</ele><time>2026-05-01T14:11:23.127Z</time></trkpt><trkpt lat="35.8528861" lon="8.4226209"><ele>543.0</ele><time>2026-05-01T14:11:24.122Z</time></trkpt><trkpt lat="35.8528966" lon="8.4223626"><ele>542.0</ele><time>2026-05-01T14:11:25.146Z</time></trkpt><trkpt lat="35.8529082" lon="8.4221021"><ele>541.0</ele><time>2026-05-01T14:11:26.127Z</time></trkpt><trkpt lat="35.8529194" lon="8.4218396"><ele>540.0</ele><time>2026-05-01T14:11:27.119Z</time></trkpt><trkpt lat="35.8529298" lon="8.421574"><ele>539.3333333333334</ele><time>2026-05-01T14:11:28.119Z</time></trkpt><trkpt lat="35.8529405" lon="8.421309"><ele>538.6666666666667</ele><time>2026-05-01T14:11:29.11Z</time></trkpt><trkpt lat="35.85295" lon="8.421044"><ele>538.0</ele><time>2026-05-01T14:11:30.151Z</time></trkpt><trkpt lat="35.8529606" lon="8.4207805"><ele>538.0</ele><time>2026-05-01T14:11:31.131Z</time></trkpt><trkpt lat="35.8529713" lon="8.4205173"><ele>538.0</ele><time>2026-05-01T14:11:32.122Z</time></trkpt><trkpt lat="35.8529819" lon="8.4202556"><ele>538.0</ele><time>2026-05-01T14:11:33.136Z</time></trkpt><trkpt lat="35.8529923" lon="8.4199929"><ele>538.3333333333334</ele><time>2026-05-01T14:11:34.118Z</time></trkpt><trkpt lat="35.8530047" lon="8.4197289"><ele>538.6666666666666</ele><time>2026-05-01T14:11:35.11Z</time></trkpt><trkpt lat="35.8530165" lon="8.4194668"><ele>539.0</ele><time>2026-05-01T14:11:36.116Z</time></trkpt><trkpt lat="35.8530274" lon="8.4192027"><ele>538.0</ele><time>2026-05-01T14:11:37.127Z</time></trkpt><trkpt lat="35.8530377" lon="8.4189379"><ele>537.0</ele><time>2026-05-01T14:11:38.137Z</time></trkpt><trkpt lat="35.8530475" lon="8.4186745"><ele>536.0</ele><time>2026-05-01T14:11:39.136Z</time></trkpt><trkpt lat="35.8530581" lon="8.4184095"><ele>535.3333333333333</ele><time>2026-05-01T14:11:40.141Z</time></trkpt><trkpt lat="35.8530697" lon="8.418143"><ele>534.6666666666666</ele><time>2026-05-01T14:11:41.136Z</time></trkpt><trkpt lat="35.8530799" lon="8.4178782"><ele>534.0</ele><time>2026-05-01T14:11:42.124Z</time></trkpt><trkpt lat="35.8530907" lon="8.4176123"><ele>534.3333333333334</ele><time>2026-05-01T14:11:43.133Z</time></trkpt><trkpt lat="35.8531015" lon="8.4173478"><ele>534.6666666666667</ele><time>2026-05-01T14:11:44.133Z</time></trkpt><trkpt lat="35.853112" lon="8.4170842"><ele>535.0</ele><time>2026-05-01T14:11:45.146Z</time></trkpt><trkpt lat="35.8531224" lon="8.4168238"><ele>535.0</ele><time>2026-05-01T14:11:46.129Z</time></trkpt><trkpt lat="35.8531336" lon="8.4165636"><ele>535.0</ele><time>2026-05-01T14:11:47.133Z</time></trkpt><trkpt lat="35.8531448" lon="8.4163026"><ele>535.0</ele><time>2026-05-01T14:11:48.117Z</time></trkpt><trkpt lat="35.8531548" lon="8.4160427"><ele>535.0</ele><time>2026-05-01T14:11:49.134Z</time></trkpt><trkpt lat="35.8531659" lon="8.4157844"><ele>535.0</ele><time>2026-05-01T14:11:50.134Z</time></trkpt><trkpt lat="35.8531777" lon="8.4155266"><ele>535.0</ele><time>2026-05-01T14:11:51.126Z</time></trkpt><trkpt lat="35.8531893" lon="8.4152806"><ele>534.3333333333334</ele><time>2026-05-01T14:11:52.117Z</time></trkpt><trkpt lat="35.8531983" lon="8.4150496"><ele>533.6666666666666</ele><time>2026-05-01T14:11:53.11Z</time></trkpt><trkpt lat="35.8532061" lon="8.4148241"><ele>533.0</ele><time>2026-05-01T14:11:54.131Z</time></trkpt><trkpt lat="35.853214" lon="8.4145988"><ele>532.0</ele><time>2026-05-01T14:11:55.133Z</time></trkpt><trkpt lat="35.8532233" lon="8.4143752"><ele>531.0</ele><time>2026-05-01T14:11:56.13Z</time></trkpt><trkpt lat="35.8532317" lon="8.4141516"><ele>530.0</ele><time>2026-05-01T14:11:57.13Z</time></trkpt><trkpt lat="35.8532414" lon="8.4139266"><ele>530.0</ele><time>2026-05-01T14:11:58.116Z</time></trkpt><trkpt lat="35.8532539" lon="8.4136992"><ele>530.0</ele><time>2026-05-01T14:11:59.151Z</time></trkpt><trkpt lat="35.8532649" lon="8.41347"><ele>530.0</ele><time>2026-05-01T14:12:00.116Z</time></trkpt><trkpt lat="35.8532761" lon="8.4132408"><ele>530.0</ele><time>2026-05-01T14:12:01.123Z</time></trkpt><trkpt lat="35.8532866" lon="8.4130093"><ele>530.0</ele><time>2026-05-01T14:12:02.126Z</time></trkpt><trkpt lat="35.853297" lon="8.4127756"><ele>530.0</ele><time>2026-05-01T14:12:03.13Z</time></trkpt><trkpt lat="35.8533065" lon="8.412545"><ele>529.6666666666666</ele><time>2026-05-01T14:12:04.128Z</time></trkpt><trkpt lat="35.8533152" lon="8.4123156"><ele>529.3333333333334</ele><time>2026-05-01T14:12:05.122Z</time></trkpt><trkpt lat="35.8533239" lon="8.412086"><ele>529.0</ele><time>2026-05-01T14:12:06.131Z</time></trkpt><trkpt lat="35.8533313" lon="8.4118559"><ele>528.3333333333334</ele><time>2026-05-01T14:12:07.131Z</time></trkpt><trkpt lat="35.8533369" lon="8.4116313"><ele>527.6666666666666</ele><time>2026-05-01T14:12:08.123Z</time></trkpt><trkpt lat="35.853344" lon="8.4114066"><ele>527.0</ele><time>2026-05-01T14:12:09.13Z</time></trkpt><trkpt lat="35.8533504" lon="8.4111823"><ele>526.0</ele><time>2026-05-01T14:12:10.131Z</time></trkpt><trkpt lat="35.8533551" lon="8.4109559"><ele>525.0</ele><time>2026-05-01T14:12:11.12Z</time></trkpt><trkpt lat="35.8533563" lon="8.4107316"><ele>524.0</ele><time>2026-05-01T14:12:12.13Z</time></trkpt><trkpt lat="35.8533558" lon="8.4105073"><ele>523.6666666666666</ele><time>2026-05-01T14:12:13.117Z</time></trkpt><trkpt lat="35.8533497" lon="8.4102815"><ele>523.3333333333334</ele><time>2026-05-01T14:12:14.132Z</time></trkpt><trkpt lat="35.8533365" lon="8.4100577"><ele>523.0</ele><time>2026-05-01T14:12:15.137Z</time></trkpt><trkpt lat="35.8533177" lon="8.4098353"><ele>521.3333333333334</ele><time>2026-05-01T14:12:16.127Z</time></trkpt><trkpt lat="35.8532955" lon="8.4096136"><ele>519.6666666666666</ele><time>2026-05-01T14:12:17.117Z</time></trkpt><trkpt lat="35.853271" lon="8.4093919"><ele>518.0</ele><time>2026-05-01T14:12:18.123Z</time></trkpt><trkpt lat="35.8532447" lon="8.4091713"><ele>518.0</ele><time>2026-05-01T14:12:19.125Z</time></trkpt><trkpt lat="35.8532158" lon="8.4089476"><ele>518.0</ele><time>2026-05-01T14:12:20.131Z</time></trkpt><trkpt lat="35.8531829" lon="8.4087227"><ele>518.0</ele><time>2026-05-01T14:12:21.129Z</time></trkpt><trkpt lat="35.8531445" lon="8.4084959"><ele>517.6666666666666</ele><time>2026-05-01T14:12:22.137Z</time></trkpt><trkpt lat="35.8531013" lon="8.4082726"><ele>517.3333333333334</ele><time>2026-05-01T14:12:23.111Z</time></trkpt><trkpt lat="35.8530523" lon="8.4080511"><ele>517.0</ele><time>2026-05-01T14:12:24.117Z</time></trkpt><trkpt lat="35.8530019" lon="8.407835"><ele>516.0</ele><time>2026-05-01T14:12:25.138Z</time></trkpt><trkpt lat="35.8529494" lon="8.4076241"><ele>515.0</ele><time>2026-05-01T14:12:26.123Z</time></trkpt><trkpt lat="35.8528961" lon="8.407418"><ele>514.0</ele><time>2026-05-01T14:12:27.13Z</time></trkpt><trkpt lat="35.8528402" lon="8.4072117"><ele>514.6666666666667</ele><time>2026-05-01T14:12:28.117Z</time></trkpt><trkpt lat="35.8527794" lon="8.4070052"><ele>515.3333333333334</ele><time>2026-05-01T14:12:29.118Z</time></trkpt><trkpt lat="35.8527136" lon="8.4067982"><ele>516.0</ele><time>2026-05-01T14:12:30.12Z</time></trkpt><trkpt lat="35.8526427" lon="8.4065907"><ele>513.3333333333334</ele><time>2026-05-01T14:12:31.138Z</time></trkpt><trkpt lat="35.8525684" lon="8.4063842"><ele>510.6666666666667</ele><time>2026-05-01T14:12:32.135Z</time></trkpt><trkpt lat="35.8524922" lon="8.4061767"><ele>508.0</ele><time>2026-05-01T14:12:33.129Z</time></trkpt><trkpt lat="35.8524159" lon="8.405967"><ele>508.0</ele><time>2026-05-01T14:12:34.127Z</time></trkpt><trkpt lat="35.8523389" lon="8.4057583"><ele>508.0</ele><time>2026-05-01T14:12:35.113Z</time></trkpt><trkpt lat="35.8522625" lon="8.4055473"><ele>508.0</ele><time>2026-05-01T14:12:36.134Z</time></trkpt><trkpt lat="35.8521853" lon="8.4053371"><ele>506.6666666666667</ele><time>2026-05-01T14:12:37.122Z</time></trkpt><trkpt lat="35.8521084" lon="8.4051226"><ele>505.33333333333337</ele><time>2026-05-01T14:12:38.137Z</time></trkpt><trkpt lat="35.8520296" lon="8.4049072"><ele>504.0</ele><time>2026-05-01T14:12:39.126Z</time></trkpt><trkpt lat="35.8519491" lon="8.4046925"><ele>503.0</ele><time>2026-05-01T14:12:40.122Z</time></trkpt><trkpt lat="35.8518695" lon="8.4044755"><ele>502.0</ele><time>2026-05-01T14:12:41.126Z</time></trkpt><trkpt lat="35.8517909" lon="8.4042594"><ele>501.0</ele><time>2026-05-01T14:12:42.134Z</time></trkpt><trkpt lat="35.8517129" lon="8.4040463"><ele>500.0</ele><time>2026-05-01T14:12:43.131Z</time></trkpt><trkpt lat="35.8516362" lon="8.4038374"><ele>499.0</ele><time>2026-05-01T14:12:44.13Z</time></trkpt><trkpt lat="35.8515618" lon="8.4036273"><ele>498.0</ele><time>2026-05-01T14:12:45.137Z</time></trkpt><trkpt lat="35.8514862" lon="8.4034187"><ele>497.0</ele><time>2026-05-01T14:12:46.144Z</time></trkpt><trkpt lat="35.8514096" lon="8.4032072"><ele>496.0</ele><time>2026-05-01T14:12:47.126Z</time></trkpt><trkpt lat="35.8513349" lon="8.4029966"><ele>495.0</ele><time>2026-05-01T14:12:48.122Z</time></trkpt><trkpt lat="35.851258" lon="8.4027853"><ele>497.0</ele><time>2026-05-01T14:12:49.127Z</time></trkpt><trkpt lat="35.8511803" lon="8.4025729"><ele>499.0</ele><time>2026-05-01T14:12:50.139Z</time></trkpt><trkpt lat="35.8511002" lon="8.402362"><ele>501.0</ele><time>2026-05-01T14:12:51.132Z</time></trkpt><trkpt lat="35.851017" lon="8.4021523"><ele>501.66666666666663</ele><time>2026-05-01T14:12:52.127Z</time></trkpt><trkpt lat="35.8509279" lon="8.4019451"><ele>502.3333333333333</ele><time>2026-05-01T14:12:53.122Z</time></trkpt><trkpt lat="35.8508352" lon="8.4017368"><ele>503.0</ele><time>2026-05-01T14:12:54.122Z</time></trkpt><trkpt lat="35.8507386" lon="8.4015338"><ele>503.0</ele><time>2026-05-01T14:12:55.125Z</time></trkpt><trkpt lat="35.8506434" lon="8.4013332"><ele>503.0</ele><time>2026-05-01T14:12:56.126Z</time></trkpt><trkpt lat="35.8505488" lon="8.4011312"><ele>503.0</ele><time>2026-05-01T14:12:57.105Z</time></trkpt><trkpt lat="35.8504572" lon="8.400933"><ele>502.3333333333333</ele><time>2026-05-01T14:12:58.116Z</time></trkpt><trkpt lat="35.8503651" lon="8.4007381"><ele>501.66666666666663</ele><time>2026-05-01T14:12:59.133Z</time></trkpt><trkpt lat="35.8502754" lon="8.400548"><ele>501.0</ele><time>2026-05-01T14:13:00.129Z</time></trkpt><trkpt lat="35.850188" lon="8.400366"><ele>502.0</ele><time>2026-05-01T14:13:01.126Z</time></trkpt><trkpt lat="35.8501026" lon="8.4001885"><ele>503.0</ele><time>2026-05-01T14:13:02.112Z</time></trkpt><trkpt lat="35.8500208" lon="8.4000169"><ele>504.0</ele><time>2026-05-01T14:13:03.134Z</time></trkpt><trkpt lat="35.8499423" lon="8.3998472"><ele>504.0</ele><time>2026-05-01T14:13:04.156Z</time></trkpt><trkpt lat="35.8498669" lon="8.399683"><ele>504.0</ele><time>2026-05-01T14:13:05.129Z</time></trkpt><trkpt lat="35.8497943" lon="8.3995255"><ele>504.0</ele><time>2026-05-01T14:13:06.141Z</time></trkpt><trkpt lat="35.8497247" lon="8.3993728"><ele>504.0</ele><time>2026-05-01T14:13:07.128Z</time></trkpt><trkpt lat="35.8496614" lon="8.3992245"><ele>503.75</ele><time>2026-05-01T14:13:08.137Z</time></trkpt><trkpt lat="35.8496077" lon="8.3990801"><ele>503.5</ele><time>2026-05-01T14:13:09.143Z</time></trkpt><trkpt lat="35.8495634" lon="8.398937"><ele>503.25</ele><time>2026-05-01T14:13:10.133Z</time></trkpt><trkpt lat="35.8495274" lon="8.398794"><ele>503.0</ele><time>2026-05-01T14:13:11.126Z</time></trkpt><trkpt lat="35.8495001" lon="8.3986509"><ele>502.75</ele><time>2026-05-01T14:13:12.123Z</time></trkpt><trkpt lat="35.84948" lon="8.3985084"><ele>502.5</ele><time>2026-05-01T14:13:13.123Z</time></trkpt><trkpt lat="35.8494649" lon="8.3983703"><ele>502.25</ele><time>2026-05-01T14:13:14.133Z</time></trkpt><trkpt lat="35.8494557" lon="8.3982341"><ele>502.0</ele><time>2026-05-01T14:13:15.131Z</time></trkpt><trkpt lat="35.8494512" lon="8.3980953"><ele>502.8</ele><time>2026-05-01T14:13:16.128Z</time></trkpt><trkpt lat="35.8494525" lon="8.3979622"><ele>503.6</ele><time>2026-05-01T14:13:17.129Z</time></trkpt><trkpt lat="35.8494571" lon="8.3978387"><ele>504.40000000000003</ele><time>2026-05-01T14:13:18.127Z</time></trkpt><trkpt lat="35.8494632" lon="8.3977213"><ele>505.20000000000005</ele><time>2026-05-01T14:13:19.133Z</time></trkpt><trkpt lat="35.8494697" lon="8.3976121"><ele>506.0</ele><time>2026-05-01T14:13:20.123Z</time></trkpt><trkpt lat="35.8494813" lon="8.3975105"><ele>505.99999999999994</ele><time>2026-05-01T14:13:21.129Z</time></trkpt><trkpt lat="35.8495" lon="8.3974178"><ele>506.0</ele><time>2026-05-01T14:13:22.136Z</time></trkpt><trkpt lat="35.8495222" lon="8.3973368"><ele>506.0</ele><time>2026-05-01T14:13:23.129Z</time></trkpt><trkpt lat="35.8495617" lon="8.3972107"><ele>506.0</ele><time>2026-05-01T14:13:25.115Z</time></trkpt><trkpt lat="35.849573" lon="8.3971012"><ele>505.99999999999994</ele><time>2026-05-01T14:13:27.139Z</time></trkpt><trkpt lat="35.8495421" lon="8.3970241"><ele>506.0</ele><time>2026-05-01T14:13:29.112Z</time></trkpt><trkpt lat="35.8494813" lon="8.3969872"><ele>506.57142857142867</ele><time>2026-05-01T14:13:32.05Z</time></trkpt><trkpt lat="35.8494152" lon="8.3969801"><ele>507.14285714285717</ele><time>2026-05-01T14:13:47.047Z</time></trkpt><trkpt lat="35.8493777" lon="8.3969164"><ele>507.7142857142858</ele><time>2026-05-01T14:13:51.07Z</time></trkpt><trkpt lat="35.8493292" lon="8.3968609"><ele>508.28571428571433</ele><time>2026-05-01T14:22:39.052Z</time></trkpt><trkpt lat="35.8492541" lon="8.396846"><ele>508.8571428571429</ele><time>2026-05-01T14:22:52.04Z</time></trkpt><trkpt lat="35.849187" lon="8.3968308"><ele>509.42857142857144</ele><time>2026-05-01T14:22:54.095Z</time></trkpt><trkpt lat="35.8491048" lon="8.3968014"><ele>510.0</ele><time>2026-05-01T14:22:56.054Z</time></trkpt><trkpt lat="35.8490237" lon="8.396748"><ele>510.5</ele><time>2026-05-01T14:22:58.054Z</time></trkpt><trkpt lat="35.8489234" lon="8.3966774"><ele>511.0</ele><time>2026-05-01T14:23:00.04Z</time></trkpt><trkpt lat="35.8488065" lon="8.3966205"><ele>511.5</ele><time>2026-05-01T14:23:02.051Z</time></trkpt><trkpt lat="35.8487208" lon="8.3965574"><ele>512.0</ele><time>2026-05-01T14:23:03.059Z</time></trkpt><trkpt lat="35.8486062" lon="8.3964775"><ele>512.0</ele><time>2026-05-01T14:23:04.073Z</time></trkpt><trkpt lat="35.8484969" lon="8.3963982"><ele>512.0</ele><time>2026-05-01T14:23:05.052Z</time></trkpt><trkpt lat="35.8483994" lon="8.3963341"><ele>512.0</ele><time>2026-05-01T14:23:06.068Z</time></trkpt><trkpt lat="35.8483177" lon="8.396271"><ele>512.0</ele><time>2026-05-01T14:23:07.063Z</time></trkpt><trkpt lat="35.8482319" lon="8.3962087"><ele>512.0</ele><time>2026-05-01T14:23:08.056Z</time></trkpt><trkpt lat="35.8481434" lon="8.3961446"><ele>512.2</ele><time>2026-05-01T14:23:09.056Z</time></trkpt><trkpt lat="35.8480499" lon="8.3960806"><ele>512.4000000000001</ele><time>2026-05-01T14:23:10.062Z</time></trkpt><trkpt lat="35.8479525" lon="8.3960122"><ele>512.5999999999999</ele><time>2026-05-01T14:23:11.052Z</time></trkpt><trkpt lat="35.8478638" lon="8.395947"><ele>512.8</ele><time>2026-05-01T14:23:12.058Z</time></trkpt><trkpt lat="35.847777" lon="8.3958837"><ele>513.0</ele><time>2026-05-01T14:23:13.057Z</time></trkpt><trkpt lat="35.8476856" lon="8.3958195"><ele>513.1999999999999</ele><time>2026-05-01T14:23:14.067Z</time></trkpt><trkpt lat="35.8475944" lon="8.3957535"><ele>513.4</ele><time>2026-05-01T14:23:15.065Z</time></trkpt><trkpt lat="35.8475018" lon="8.395684"><ele>513.5999999999999</ele><time>2026-05-01T14:23:16.061Z</time></trkpt><trkpt lat="35.8474088" lon="8.3956259"><ele>513.8</ele><time>2026-05-01T14:23:17.058Z</time></trkpt><trkpt lat="35.8473082" lon="8.3955617"><ele>514.0</ele><time>2026-05-01T14:23:18.056Z</time></trkpt><trkpt lat="35.8472037" lon="8.3954859"><ele>515.0</ele><time>2026-05-01T14:23:19.07Z</time></trkpt><trkpt lat="35.8470944" lon="8.395408"><ele>516.0</ele><time>2026-05-01T14:23:20.075Z</time></trkpt><trkpt lat="35.8469825" lon="8.3953296"><ele>517.0</ele><time>2026-05-01T14:23:21.062Z</time></trkpt><trkpt lat="35.8468742" lon="8.3952543"><ele>518.0</ele><time>2026-05-01T14:23:22.069Z</time></trkpt><trkpt lat="35.8467629" lon="8.3951776"><ele>518.25</ele><time>2026-05-01T14:23:23.062Z</time></trkpt><trkpt lat="35.8466503" lon="8.3950943"><ele>518.5</ele><time>2026-05-01T14:23:24.062Z</time></trkpt><trkpt lat="35.8465403" lon="8.395014"><ele>518.75</ele><time>2026-05-01T14:23:25.057Z</time></trkpt><trkpt lat="35.8464281" lon="8.3949318"><ele>519.0</ele><time>2026-05-01T14:23:26.055Z</time></trkpt><trkpt lat="35.8463132" lon="8.3948495"><ele>519.0</ele><time>2026-05-01T14:23:27.07Z</time></trkpt><trkpt lat="35.846197" lon="8.394769"><ele>519.0</ele><time>2026-05-01T14:23:28.067Z</time></trkpt><trkpt lat="35.8460737" lon="8.3946941"><ele>519.0</ele><time>2026-05-01T14:23:29.06Z</time></trkpt><trkpt lat="35.8459492" lon="8.394618"><ele>519.0</ele><time>2026-05-01T14:23:30.05Z</time></trkpt><trkpt lat="35.8458168" lon="8.3945486"><ele>519.75</ele><time>2026-05-01T14:23:31.067Z</time></trkpt><trkpt lat="35.845685" lon="8.3944819"><ele>520.5</ele><time>2026-05-01T14:23:32.068Z</time></trkpt><trkpt lat="35.8455518" lon="8.3944178"><ele>521.25</ele><time>2026-05-01T14:23:33.069Z</time></trkpt><trkpt lat="35.8454182" lon="8.3943667"><ele>522.0</ele><time>2026-05-01T14:23:34.065Z</time></trkpt><trkpt lat="35.8452888" lon="8.3943142"><ele>522.0</ele><time>2026-05-01T14:23:35.059Z</time></trkpt><trkpt lat="35.8451514" lon="8.3942681"><ele>522.0</ele><time>2026-05-01T14:23:36.071Z</time></trkpt><trkpt lat="35.8450108" lon="8.3942236"><ele>522.0</ele><time>2026-05-01T14:23:37.066Z</time></trkpt><trkpt lat="35.844871" lon="8.3941881"><ele>522.0</ele><time>2026-05-01T14:23:38.061Z</time></trkpt><trkpt lat="35.8447288" lon="8.3941539"><ele>522.25</ele><time>2026-05-01T14:23:39.063Z</time></trkpt><trkpt lat="35.8445849" lon="8.394123"><ele>522.5</ele><time>2026-05-01T14:23:40.066Z</time></trkpt><trkpt lat="35.8444415" lon="8.3940889"><ele>522.75</ele><time>2026-05-01T14:23:41.07Z</time></trkpt><trkpt lat="35.8443002" lon="8.3940569"><ele>523.0</ele><time>2026-05-01T14:23:42.055Z</time></trkpt><trkpt lat="35.8441571" lon="8.3940227"><ele>523.5</ele><time>2026-05-01T14:23:43.064Z</time></trkpt><trkpt lat="35.8440181" lon="8.3939863"><ele>524.0</ele><time>2026-05-01T14:23:44.05Z</time></trkpt><trkpt lat="35.8438756" lon="8.3939504"><ele>524.5</ele><time>2026-05-01T14:23:45.071Z</time></trkpt><trkpt lat="35.8437319" lon="8.3939204"><ele>525.0</ele><time>2026-05-01T14:23:46.056Z</time></trkpt><trkpt lat="35.8435875" lon="8.3938899"><ele>525.6666666666666</ele><time>2026-05-01T14:23:47.063Z</time></trkpt><trkpt lat="35.8434366" lon="8.3938591"><ele>526.3333333333333</ele><time>2026-05-01T14:23:48.085Z</time></trkpt><trkpt lat="35.8432783" lon="8.3938232"><ele>527.0</ele><time>2026-05-01T14:23:49.07Z</time></trkpt><trkpt lat="35.8431166" lon="8.393784"><ele>527.0</ele><time>2026-05-01T14:23:50.062Z</time></trkpt><trkpt lat="35.8429506" lon="8.3937477"><ele>527.0</ele><time>2026-05-01T14:23:51.065Z</time></trkpt><trkpt lat="35.8427838" lon="8.3937096"><ele>527.0</ele><time>2026-05-01T14:23:52.064Z</time></trkpt><trkpt lat="35.8426176" lon="8.3936685"><ele>527.6666666666666</ele><time>2026-05-01T14:23:53.068Z</time></trkpt><trkpt lat="35.8424425" lon="8.3936321"><ele>528.3333333333334</ele><time>2026-05-01T14:23:54.066Z</time></trkpt><trkpt lat="35.84227" lon="8.3935915"><ele>529.0</ele><time>2026-05-01T14:23:55.07Z</time></trkpt><trkpt lat="35.8420935" lon="8.3935443"><ele>529.0</ele><time>2026-05-01T14:23:56.057Z</time></trkpt><trkpt lat="35.84192" lon="8.3935037"><ele>529.0</ele><time>2026-05-01T14:23:57.052Z</time></trkpt><trkpt lat="35.8417479" lon="8.3934575"><ele>529.0</ele><time>2026-05-01T14:23:58.045Z</time></trkpt><trkpt lat="35.8415772" lon="8.3934056"><ele>528.6666666666667</ele><time>2026-05-01T14:23:59.051Z</time></trkpt><trkpt lat="35.8414042" lon="8.3933468"><ele>528.3333333333334</ele><time>2026-05-01T14:24:00.062Z</time></trkpt><trkpt lat="35.8412299" lon="8.3932862"><ele>528.0</ele><time>2026-05-01T14:24:01.052Z</time></trkpt><trkpt lat="35.8410547" lon="8.3932262"><ele>528.0</ele><time>2026-05-01T14:24:02.064Z</time></trkpt><trkpt lat="35.8408821" lon="8.3931574"><ele>528.0</ele><time>2026-05-01T14:24:03.061Z</time></trkpt><trkpt lat="35.840711" lon="8.3930825"><ele>528.0</ele><time>2026-05-01T14:24:04.055Z</time></trkpt><trkpt lat="35.8405423" lon="8.3930017"><ele>527.6666666666666</ele><time>2026-05-01T14:24:05.065Z</time></trkpt><trkpt lat="35.8403765" lon="8.3929191"><ele>527.3333333333333</ele><time>2026-05-01T14:24:06.043Z</time></trkpt><trkpt lat="35.8402109" lon="8.3928336"><ele>527.0</ele><time>2026-05-01T14:24:07.047Z</time></trkpt><trkpt lat="35.8400466" lon="8.3927476"><ele>527.0</ele><time>2026-05-01T14:24:08.083Z</time></trkpt><trkpt lat="35.839885" lon="8.3926579"><ele>527.0</ele><time>2026-05-01T14:24:09.095Z</time></trkpt><trkpt lat="35.8397219" lon="8.3925682"><ele>527.0</ele><time>2026-05-01T14:24:10.07Z</time></trkpt><trkpt lat="35.839564" lon="8.3924687"><ele>527.0</ele><time>2026-05-01T14:24:11.052Z</time></trkpt><trkpt lat="35.8394096" lon="8.3923598"><ele>527.0</ele><time>2026-05-01T14:24:12.075Z</time></trkpt><trkpt lat="35.839256" lon="8.392249"><ele>527.0</ele><time>2026-05-01T14:24:13.069Z</time></trkpt><trkpt lat="35.8391013" lon="8.3921428"><ele>526.0</ele><time>2026-05-01T14:24:14.089Z</time></trkpt><trkpt lat="35.8389461" lon="8.3920291"><ele>525.0</ele><time>2026-05-01T14:24:15.063Z</time></trkpt><trkpt lat="35.8387926" lon="8.3919163"><ele>524.0</ele><time>2026-05-01T14:24:16.062Z</time></trkpt><trkpt lat="35.8386398" lon="8.3918012"><ele>524.0</ele><time>2026-05-01T14:24:17.06Z</time></trkpt><trkpt lat="35.8384863" lon="8.391688"><ele>524.0</ele><time>2026-05-01T14:24:18.06Z</time></trkpt><trkpt lat="35.8383327" lon="8.3915744"><ele>524.0</ele><time>2026-05-01T14:24:19.049Z</time></trkpt><trkpt lat="35.8381792" lon="8.3914579"><ele>524.3333333333333</ele><time>2026-05-01T14:24:20.063Z</time></trkpt><trkpt lat="35.8380281" lon="8.3913459"><ele>524.6666666666666</ele><time>2026-05-01T14:24:21.072Z</time></trkpt><trkpt lat="35.8378781" lon="8.3912301"><ele>525.0</ele><time>2026-05-01T14:24:22.064Z</time></trkpt><trkpt lat="35.8377282" lon="8.3911205"><ele>526.6666666666666</ele><time>2026-05-01T14:24:23.056Z</time></trkpt><trkpt lat="35.8375782" lon="8.3910078"><ele>528.3333333333333</ele><time>2026-05-01T14:24:24.061Z</time></trkpt><trkpt lat="35.8374324" lon="8.3908908"><ele>530.0</ele><time>2026-05-01T14:24:25.06Z</time></trkpt><trkpt lat="35.8372789" lon="8.3907718"><ele>530.0</ele><time>2026-05-01T14:24:26.082Z</time></trkpt><trkpt lat="35.8371251" lon="8.3906566"><ele>530.0</ele><time>2026-05-01T14:24:27.051Z</time></trkpt><trkpt lat="35.836972" lon="8.3905375"><ele>530.0</ele><time>2026-05-01T14:24:28.069Z</time></trkpt><trkpt lat="35.8368149" lon="8.3904226"><ele>530.0</ele><time>2026-05-01T14:24:29.069Z</time></trkpt><trkpt lat="35.8366583" lon="8.3903063"><ele>530.0</ele><time>2026-05-01T14:24:30.063Z</time></trkpt><trkpt lat="35.8364972" lon="8.3901946"><ele>530.0</ele><time>2026-05-01T14:24:31.072Z</time></trkpt><trkpt lat="35.8363379" lon="8.3900807"><ele>530.0</ele><time>2026-05-01T14:24:32.066Z</time></trkpt><trkpt lat="35.8361793" lon="8.3899723"><ele>530.0</ele><time>2026-05-01T14:24:33.053Z</time></trkpt><trkpt lat="35.8360302" lon="8.3898581"><ele>530.0</ele><time>2026-05-01T14:24:34.065Z</time></trkpt><trkpt lat="35.8358769" lon="8.3897464"><ele>531.0</ele><time>2026-05-01T14:24:35.079Z</time></trkpt><trkpt lat="35.8357221" lon="8.3896422"><ele>532.0</ele><time>2026-05-01T14:24:36.068Z</time></trkpt><trkpt lat="35.8355721" lon="8.3895471"><ele>533.0</ele><time>2026-05-01T14:24:37.069Z</time></trkpt><trkpt lat="35.8354189" lon="8.3894615"><ele>533.0</ele><time>2026-05-01T14:24:38.066Z</time></trkpt><trkpt lat="35.8352589" lon="8.3893807"><ele>533.0</ele><time>2026-05-01T14:24:39.07Z</time></trkpt><trkpt lat="35.8350958" lon="8.3893138"><ele>533.0</ele><time>2026-05-01T14:24:40.069Z</time></trkpt><trkpt lat="35.8349275" lon="8.3892606"><ele>534.0</ele><time>2026-05-01T14:24:41.061Z</time></trkpt><trkpt lat="35.8347565" lon="8.3892243"><ele>535.0</ele><time>2026-05-01T14:24:42.071Z</time></trkpt><trkpt lat="35.8345809" lon="8.3891917"><ele>536.0</ele><time>2026-05-01T14:24:43.07Z</time></trkpt><trkpt lat="35.8344015" lon="8.3891661"><ele>536.3333333333333</ele><time>2026-05-01T14:24:44.067Z</time></trkpt><trkpt lat="35.8342224" lon="8.3891445"><ele>536.6666666666666</ele><time>2026-05-01T14:24:45.06Z</time></trkpt><trkpt lat="35.8340386" lon="8.3891206"><ele>537.0</ele><time>2026-05-01T14:24:46.068Z</time></trkpt><trkpt lat="35.8338564" lon="8.3890962"><ele>537.0</ele><time>2026-05-01T14:24:47.068Z</time></trkpt><trkpt lat="35.8336746" lon="8.3890728"><ele>537.0</ele><time>2026-05-01T14:24:48.07Z</time></trkpt><trkpt lat="35.8334921" lon="8.3890508"><ele>537.0</ele><time>2026-05-01T14:24:49.057Z</time></trkpt><trkpt lat="35.8333116" lon="8.3890285"><ele>537.0</ele><time>2026-05-01T14:24:50.069Z</time></trkpt><trkpt lat="35.8331314" lon="8.3890088"><ele>537.0</ele><time>2026-05-01T14:24:51.081Z</time></trkpt><trkpt lat="35.83295" lon="8.3889888"><ele>537.0</ele><time>2026-05-01T14:24:52.069Z</time></trkpt><trkpt lat="35.8327732" lon="8.3889684"><ele>537.6666666666666</ele><time>2026-05-01T14:24:53.062Z</time></trkpt><trkpt lat="35.832596" lon="8.3889487"><ele>538.3333333333333</ele><time>2026-05-01T14:24:54.062Z</time></trkpt><trkpt lat="35.8324159" lon="8.3889295"><ele>539.0</ele><time>2026-05-01T14:24:55.066Z</time></trkpt><trkpt lat="35.8322372" lon="8.3889001"><ele>539.0</ele><time>2026-05-01T14:24:56.06Z</time></trkpt><trkpt lat="35.8320544" lon="8.3888755"><ele>539.0</ele><time>2026-05-01T14:24:57.065Z</time></trkpt><trkpt lat="35.8318682" lon="8.3888498"><ele>539.0</ele><time>2026-05-01T14:24:58.058Z</time></trkpt><trkpt lat="35.8316831" lon="8.3888297"><ele>540.3333333333333</ele><time>2026-05-01T14:24:59.071Z</time></trkpt><trkpt lat="35.8314995" lon="8.3888021"><ele>541.6666666666666</ele><time>2026-05-01T14:25:00.062Z</time></trkpt><trkpt lat="35.8313163" lon="8.3887826"><ele>543.0</ele><time>2026-05-01T14:25:01.055Z</time></trkpt><trkpt lat="35.8311384" lon="8.3887619"><ele>542.6666666666666</ele><time>2026-05-01T14:25:02.07Z</time></trkpt><trkpt lat="35.8309563" lon="8.3887408"><ele>542.3333333333333</ele><time>2026-05-01T14:25:03.062Z</time></trkpt><trkpt lat="35.83077" lon="8.3887186"><ele>542.0</ele><time>2026-05-01T14:25:04.063Z</time></trkpt><trkpt lat="35.830589" lon="8.3886904"><ele>542.0</ele><time>2026-05-01T14:25:05.061Z</time></trkpt><trkpt lat="35.8304084" lon="8.3886583"><ele>542.0</ele><time>2026-05-01T14:25:06.079Z</time></trkpt><trkpt lat="35.8302287" lon="8.3886258"><ele>542.0</ele><time>2026-05-01T14:25:07.062Z</time></trkpt><trkpt lat="35.8300447" lon="8.38859"><ele>542.3333333333333</ele><time>2026-05-01T14:25:08.051Z</time></trkpt><trkpt lat="35.8298658" lon="8.3885519"><ele>542.6666666666666</ele><time>2026-05-01T14:25:09.083Z</time></trkpt><trkpt lat="35.8296857" lon="8.3885126"><ele>543.0</ele><time>2026-05-01T14:25:10.059Z</time></trkpt><trkpt lat="35.8295076" lon="8.3884789"><ele>543.0</ele><time>2026-05-01T14:25:11.074Z</time></trkpt><trkpt lat="35.8293401" lon="8.3884438"><ele>543.0</ele><time>2026-05-01T14:25:12.073Z</time></trkpt><trkpt lat="35.8291807" lon="8.3884067"><ele>543.0</ele><time>2026-05-01T14:25:13.064Z</time></trkpt><trkpt lat="35.8290284" lon="8.3883763"><ele>542.6666666666666</ele><time>2026-05-01T14:25:14.045Z</time></trkpt><trkpt lat="35.8288757" lon="8.3883366"><ele>542.3333333333333</ele><time>2026-05-01T14:25:15.073Z</time></trkpt><trkpt lat="35.8287214" lon="8.3883001"><ele>542.0</ele><time>2026-05-01T14:25:16.066Z</time></trkpt><trkpt lat="35.8285631" lon="8.3882639"><ele>542.6666666666666</ele><time>2026-05-01T14:25:17.064Z</time></trkpt><trkpt lat="35.828403" lon="8.3882268"><ele>543.3333333333334</ele><time>2026-05-01T14:25:18.048Z</time></trkpt><trkpt lat="35.8282384" lon="8.3881893"><ele>544.0</ele><time>2026-05-01T14:25:19.052Z</time></trkpt><trkpt lat="35.8280732" lon="8.3881522"><ele>544.0</ele><time>2026-05-01T14:25:20.053Z</time></trkpt><trkpt lat="35.8279073" lon="8.388113"><ele>544.0</ele><time>2026-05-01T14:25:21.051Z</time></trkpt><trkpt lat="35.827736" lon="8.388075"><ele>544.0</ele><time>2026-05-01T14:25:22.078Z</time></trkpt><trkpt lat="35.8275649" lon="8.3880369"><ele>543.6666666666667</ele><time>2026-05-01T14:25:23.079Z</time></trkpt><trkpt lat="35.8273956" lon="8.3880008"><ele>543.3333333333334</ele><time>2026-05-01T14:25:24.054Z</time></trkpt><trkpt lat="35.8272261" lon="8.3879635"><ele>543.0</ele><time>2026-05-01T14:25:25.05Z</time></trkpt><trkpt lat="35.8270571" lon="8.3879285"><ele>543.0</ele><time>2026-05-01T14:25:26.061Z</time></trkpt><trkpt lat="35.8268864" lon="8.387893"><ele>543.0</ele><time>2026-05-01T14:25:27.068Z</time></trkpt><trkpt lat="35.8267207" lon="8.3878557"><ele>543.0</ele><time>2026-05-01T14:25:28.075Z</time></trkpt><trkpt lat="35.8265552" lon="8.3878197"><ele>544.0</ele><time>2026-05-01T14:25:29.055Z</time></trkpt><trkpt lat="35.826389" lon="8.3877825"><ele>545.0</ele><time>2026-05-01T14:25:30.062Z</time></trkpt><trkpt lat="35.8262256" lon="8.3877459"><ele>546.0</ele><time>2026-05-01T14:25:31.069Z</time></trkpt><trkpt lat="35.8260651" lon="8.38771"><ele>546.6666666666666</ele><time>2026-05-01T14:25:32.062Z</time></trkpt><trkpt lat="35.8258999" lon="8.387673"><ele>547.3333333333333</ele><time>2026-05-01T14:25:33.053Z</time></trkpt><trkpt lat="35.8257382" lon="8.3876373"><ele>548.0</ele><time>2026-05-01T14:25:34.051Z</time></trkpt><trkpt lat="35.8255782" lon="8.3875978"><ele>548.0</ele><time>2026-05-01T14:25:35.05Z</time></trkpt><trkpt lat="35.8254178" lon="8.3875544"><ele>548.0</ele><time>2026-05-01T14:25:36.064Z</time></trkpt><trkpt lat="35.8252541" lon="8.387507"><ele>548.0</ele><time>2026-05-01T14:25:37.067Z</time></trkpt><trkpt lat="35.8250883" lon="8.3874553"><ele>549.0</ele><time>2026-05-01T14:25:38.085Z</time></trkpt><trkpt lat="35.8249221" lon="8.38739"><ele>550.0</ele><time>2026-05-01T14:25:39.061Z</time></trkpt><trkpt lat="35.8247543" lon="8.3873248"><ele>551.0</ele><time>2026-05-01T14:25:40.062Z</time></trkpt><trkpt lat="35.8245844" lon="8.3872477"><ele>550.3333333333333</ele><time>2026-05-01T14:25:41.062Z</time></trkpt><trkpt lat="35.8244115" lon="8.3871691"><ele>549.6666666666666</ele><time>2026-05-01T14:25:42.067Z</time></trkpt><trkpt lat="35.8242336" lon="8.3870886"><ele>549.0</ele><time>2026-05-01T14:25:43.07Z</time></trkpt><trkpt lat="35.8240569" lon="8.3870103"><ele>548.6666666666666</ele><time>2026-05-01T14:25:44.067Z</time></trkpt><trkpt lat="35.8238766" lon="8.3869233"><ele>548.3333333333333</ele><time>2026-05-01T14:25:45.065Z</time></trkpt><trkpt lat="35.8236945" lon="8.3868372"><ele>548.0</ele><time>2026-05-01T14:25:46.053Z</time></trkpt><trkpt lat="35.8235096" lon="8.3867493"><ele>548.6666666666666</ele><time>2026-05-01T14:25:47.061Z</time></trkpt><trkpt lat="35.8233267" lon="8.386655"><ele>549.3333333333334</ele><time>2026-05-01T14:25:48.07Z</time></trkpt><trkpt lat="35.8231429" lon="8.3865627"><ele>550.0</ele><time>2026-05-01T14:25:49.06Z</time></trkpt><trkpt lat="35.8229636" lon="8.3864732"><ele>550.0</ele><time>2026-05-01T14:25:50.07Z</time></trkpt><trkpt lat="35.822791" lon="8.3863879"><ele>550.0</ele><time>2026-05-01T14:25:51.072Z</time></trkpt><trkpt lat="35.8226194" lon="8.3863016"><ele>550.0</ele><time>2026-05-01T14:25:52.062Z</time></trkpt><trkpt lat="35.8224488" lon="8.3862149"><ele>549.6666666666667</ele><time>2026-05-01T14:25:53.064Z</time></trkpt><trkpt lat="35.8222794" lon="8.3861299"><ele>549.3333333333334</ele><time>2026-05-01T14:25:54.051Z</time></trkpt><trkpt lat="35.8221098" lon="8.3860489"><ele>549.0</ele><time>2026-05-01T14:25:55.07Z</time></trkpt><trkpt lat="35.8219407" lon="8.3859643"><ele>548.6666666666666</ele><time>2026-05-01T14:25:56.048Z</time></trkpt><trkpt lat="35.8217691" lon="8.3858806"><ele>548.3333333333333</ele><time>2026-05-01T14:25:57.06Z</time></trkpt><trkpt lat="35.8216015" lon="8.3858006"><ele>548.0</ele><time>2026-05-01T14:25:58.07Z</time></trkpt><trkpt lat="35.8214351" lon="8.3857192"><ele>548.0</ele><time>2026-05-01T14:25:59.068Z</time></trkpt><trkpt lat="35.8212729" lon="8.3856361"><ele>548.0</ele><time>2026-05-01T14:26:00.063Z</time></trkpt><trkpt lat="35.8211085" lon="8.3855571"><ele>548.0</ele><time>2026-05-01T14:26:01.051Z</time></trkpt><trkpt lat="35.8209457" lon="8.3854734"><ele>548.3333333333333</ele><time>2026-05-01T14:26:02.061Z</time></trkpt><trkpt lat="35.820783" lon="8.3853962"><ele>548.6666666666666</ele><time>2026-05-01T14:26:03.061Z</time></trkpt><trkpt lat="35.8206212" lon="8.3853153"><ele>549.0</ele><time>2026-05-01T14:26:04.066Z</time></trkpt><trkpt lat="35.820464" lon="8.3852392"><ele>549.0</ele><time>2026-05-01T14:26:05.059Z</time></trkpt><trkpt lat="35.8203007" lon="8.3851602"><ele>549.0</ele><time>2026-05-01T14:26:06.066Z</time></trkpt><trkpt lat="35.8201392" lon="8.385074"><ele>549.0</ele><time>2026-05-01T14:26:07.062Z</time></trkpt><trkpt lat="35.8199757" lon="8.3849939"><ele>549.6666666666666</ele><time>2026-05-01T14:26:08.063Z</time></trkpt><trkpt lat="35.8198139" lon="8.3849116"><ele>550.3333333333333</ele><time>2026-05-01T14:26:09.055Z</time></trkpt><trkpt lat="35.8196502" lon="8.384835"><ele>551.0</ele><time>2026-05-01T14:26:10.061Z</time></trkpt><trkpt lat="35.8194877" lon="8.3847629"><ele>551.0</ele><time>2026-05-01T14:26:11.074Z</time></trkpt><trkpt lat="35.8193232" lon="8.3846938"><ele>551.0</ele><time>2026-05-01T14:26:12.077Z</time></trkpt><trkpt lat="35.8191569" lon="8.3846398"><ele>551.0</ele><time>2026-05-01T14:26:13.06Z</time></trkpt><trkpt lat="35.8189898" lon="8.3845923"><ele>550.6666666666666</ele><time>2026-05-01T14:26:14.053Z</time></trkpt><trkpt lat="35.8188177" lon="8.3845516"><ele>550.3333333333334</ele><time>2026-05-01T14:26:15.064Z</time></trkpt><trkpt lat="35.8186431" lon="8.3845126"><ele>550.0</ele><time>2026-05-01T14:26:16.073Z</time></trkpt><trkpt lat="35.8184706" lon="8.3844774"><ele>551.0</ele><time>2026-05-01T14:26:17.065Z</time></trkpt><trkpt lat="35.818294" lon="8.3844549"><ele>552.0</ele><time>2026-05-01T14:26:18.055Z</time></trkpt><trkpt lat="35.8181203" lon="8.3844303"><ele>553.0</ele><time>2026-05-01T14:26:19.06Z</time></trkpt><trkpt lat="35.8179484" lon="8.384408"><ele>553.0</ele><time>2026-05-01T14:26:20.067Z</time></trkpt><trkpt lat="35.8177799" lon="8.3843887"><ele>553.0</ele><time>2026-05-01T14:26:21.071Z</time></trkpt><trkpt lat="35.8176097" lon="8.3843692"><ele>553.0</ele><time>2026-05-01T14:26:22.069Z</time></trkpt><trkpt lat="35.81744" lon="8.3843486"><ele>554.0</ele><time>2026-05-01T14:26:23.065Z</time></trkpt><trkpt lat="35.817275" lon="8.3843313"><ele>555.0</ele><time>2026-05-01T14:26:24.091Z</time></trkpt><trkpt lat="35.8171078" lon="8.3843162"><ele>556.0</ele><time>2026-05-01T14:26:25.069Z</time></trkpt><trkpt lat="35.8169402" lon="8.3843108"><ele>556.6666666666667</ele><time>2026-05-01T14:26:26.066Z</time></trkpt><trkpt lat="35.8167742" lon="8.384318"><ele>557.3333333333334</ele><time>2026-05-01T14:26:27.058Z</time></trkpt><trkpt lat="35.8166023" lon="8.3843364"><ele>558.0</ele><time>2026-05-01T14:26:28.074Z</time></trkpt><trkpt lat="35.816434" lon="8.3843602"><ele>558.0</ele><time>2026-05-01T14:26:29.065Z</time></trkpt><trkpt lat="35.816267" lon="8.384401"><ele>558.0</ele><time>2026-05-01T14:26:30.055Z</time></trkpt><trkpt lat="35.8160961" lon="8.3844367"><ele>558.0</ele><time>2026-05-01T14:26:31.066Z</time></trkpt><trkpt lat="35.8159295" lon="8.384481"><ele>557.6666666666666</ele><time>2026-05-01T14:26:32.063Z</time></trkpt><trkpt lat="35.8157583" lon="8.3845297"><ele>557.3333333333333</ele><time>2026-05-01T14:26:33.066Z</time></trkpt><trkpt lat="35.8155864" lon="8.3845773"><ele>557.0</ele><time>2026-05-01T14:26:34.054Z</time></trkpt><trkpt lat="35.8154099" lon="8.3846215"><ele>557.0</ele><time>2026-05-01T14:26:35.056Z</time></trkpt><trkpt lat="35.815232" lon="8.3846581"><ele>557.0</ele><time>2026-05-01T14:26:36.075Z</time></trkpt><trkpt lat="35.8150566" lon="8.3846843"><ele>557.0</ele><time>2026-05-01T14:26:37.058Z</time></trkpt><trkpt lat="35.8148782" lon="8.3846968"><ele>557.3333333333333</ele><time>2026-05-01T14:26:38.063Z</time></trkpt><trkpt lat="35.8146929" lon="8.3846885"><ele>557.6666666666666</ele><time>2026-05-01T14:26:39.073Z</time></trkpt><trkpt lat="35.8145132" lon="8.38466"><ele>558.0</ele><time>2026-05-01T14:26:40.068Z</time></trkpt><trkpt lat="35.8143338" lon="8.3846092"><ele>558.6666666666666</ele><time>2026-05-01T14:26:41.074Z</time></trkpt><trkpt lat="35.8141549" lon="8.3845545"><ele>559.3333333333333</ele><time>2026-05-01T14:26:42.075Z</time></trkpt><trkpt lat="35.8139795" lon="8.3844942"><ele>560.0</ele><time>2026-05-01T14:26:43.06Z</time></trkpt><trkpt lat="35.8137993" lon="8.3844254"><ele>560.0</ele><time>2026-05-01T14:26:44.092Z</time></trkpt><trkpt lat="35.813619" lon="8.3843631"><ele>560.0</ele><time>2026-05-01T14:26:45.073Z</time></trkpt><trkpt lat="35.8134384" lon="8.3842999"><ele>560.0</ele><time>2026-05-01T14:26:46.064Z</time></trkpt><trkpt lat="35.8132599" lon="8.3842356"><ele>560.0</ele><time>2026-05-01T14:26:47.068Z</time></trkpt><trkpt lat="35.8130785" lon="8.384172"><ele>560.0</ele><time>2026-05-01T14:26:48.074Z</time></trkpt><trkpt lat="35.8128984" lon="8.3841103"><ele>560.0</ele><time>2026-05-01T14:26:49.066Z</time></trkpt><trkpt lat="35.8127191" lon="8.3840459"><ele>560.0</ele><time>2026-05-01T14:26:50.069Z</time></trkpt><trkpt lat="35.8125382" lon="8.3839788"><ele>560.0</ele><time>2026-05-01T14:26:51.064Z</time></trkpt><trkpt lat="35.8123572" lon="8.3839163"><ele>560.0</ele><time>2026-05-01T14:26:52.051Z</time></trkpt><trkpt lat="35.8121778" lon="8.3838534"><ele>560.0</ele><time>2026-05-01T14:26:53.072Z</time></trkpt><trkpt lat="35.8119982" lon="8.3837888"><ele>560.0</ele><time>2026-05-01T14:26:54.068Z</time></trkpt><trkpt lat="35.8118199" lon="8.3837247"><ele>560.0</ele><time>2026-05-01T14:26:55.075Z</time></trkpt><trkpt lat="35.811643" lon="8.3836579"><ele>560.0</ele><time>2026-05-01T14:26:56.069Z</time></trkpt><trkpt lat="35.8114663" lon="8.3835905"><ele>560.0</ele><time>2026-05-01T14:26:57.058Z</time></trkpt><trkpt lat="35.8112858" lon="8.3835262"><ele>560.0</ele><time>2026-05-01T14:26:58.081Z</time></trkpt><trkpt lat="35.811109" lon="8.3834594"><ele>560.3333333333333</ele><time>2026-05-01T14:26:59.066Z</time></trkpt><trkpt lat="35.8109301" lon="8.3833902"><ele>560.6666666666666</ele><time>2026-05-01T14:27:00.06Z</time></trkpt><trkpt lat="35.8107511" lon="8.3833247"><ele>561.0</ele><time>2026-05-01T14:27:01.062Z</time></trkpt><trkpt lat="35.8105733" lon="8.3832574"><ele>561.0</ele><time>2026-05-01T14:27:02.075Z</time></trkpt><trkpt lat="35.8103964" lon="8.3831847"><ele>561.0</ele><time>2026-05-01T14:27:03.082Z</time></trkpt><trkpt lat="35.8102201" lon="8.383112"><ele>561.0</ele><time>2026-05-01T14:27:04.059Z</time></trkpt><trkpt lat="35.810045" lon="8.3830364"><ele>561.3333333333334</ele><time>2026-05-01T14:27:05.069Z</time></trkpt><trkpt lat="35.8098708" lon="8.3829519"><ele>561.6666666666667</ele><time>2026-05-01T14:27:06.075Z</time></trkpt><trkpt lat="35.8096983" lon="8.3828602"><ele>562.0</ele><time>2026-05-01T14:27:07.065Z</time></trkpt><trkpt lat="35.8095252" lon="8.3827666"><ele>562.0</ele><time>2026-05-01T14:27:08.066Z</time></trkpt><trkpt lat="35.8093551" lon="8.3826723"><ele>562.0</ele><time>2026-05-01T14:27:09.068Z</time></trkpt><trkpt lat="35.8091851" lon="8.3825811"><ele>562.0</ele><time>2026-05-01T14:27:10.073Z</time></trkpt><trkpt lat="35.809019" lon="8.3824897"><ele>562.3333333333334</ele><time>2026-05-01T14:27:11.075Z</time></trkpt><trkpt lat="35.8088517" lon="8.3823973"><ele>562.6666666666666</ele><time>2026-05-01T14:27:12.063Z</time></trkpt><trkpt lat="35.808681" lon="8.3823073"><ele>563.0</ele><time>2026-05-01T14:27:13.072Z</time></trkpt><trkpt lat="35.808517" lon="8.3822125"><ele>565.0</ele><time>2026-05-01T14:27:14.059Z</time></trkpt><trkpt lat="35.8083527" lon="8.3821215"><ele>567.0</ele><time>2026-05-01T14:27:15.071Z</time></trkpt><trkpt lat="35.8081889" lon="8.382028"><ele>569.0</ele><time>2026-05-01T14:27:16.055Z</time></trkpt><trkpt lat="35.8080241" lon="8.381935"><ele>569.0</ele><time>2026-05-01T14:27:17.078Z</time></trkpt><trkpt lat="35.8078596" lon="8.381844"><ele>569.0</ele><time>2026-05-01T14:27:18.065Z</time></trkpt><trkpt lat="35.8076991" lon="8.3817541"><ele>569.0</ele><time>2026-05-01T14:27:19.065Z</time></trkpt><trkpt lat="35.8075385" lon="8.3816636"><ele>569.3333333333333</ele><time>2026-05-01T14:27:20.066Z</time></trkpt><trkpt lat="35.8073763" lon="8.381575"><ele>569.6666666666666</ele><time>2026-05-01T14:27:21.061Z</time></trkpt><trkpt lat="35.8072157" lon="8.3814852"><ele>570.0</ele><time>2026-05-01T14:27:22.069Z</time></trkpt><trkpt lat="35.807055" lon="8.3813973"><ele>570.6666666666666</ele><time>2026-05-01T14:27:23.061Z</time></trkpt><trkpt lat="35.8068899" lon="8.3813059"><ele>571.3333333333333</ele><time>2026-05-01T14:27:24.063Z</time></trkpt><trkpt lat="35.806726" lon="8.3812086"><ele>572.0</ele><time>2026-05-01T14:27:25.083Z</time></trkpt><trkpt lat="35.8065647" lon="8.3811102"><ele>572.6666666666666</ele><time>2026-05-01T14:27:26.059Z</time></trkpt><trkpt lat="35.8063997" lon="8.3810154"><ele>573.3333333333334</ele><time>2026-05-01T14:27:27.073Z</time></trkpt><trkpt lat="35.8062365" lon="8.3809139"><ele>574.0</ele><time>2026-05-01T14:27:28.059Z</time></trkpt><trkpt lat="35.8060729" lon="8.3808166"><ele>575.0</ele><time>2026-05-01T14:27:29.062Z</time></trkpt><trkpt lat="35.8059105" lon="8.380715"><ele>576.0</ele><time>2026-05-01T14:27:30.078Z</time></trkpt><trkpt lat="35.8057467" lon="8.3806145"><ele>577.0</ele><time>2026-05-01T14:27:31.064Z</time></trkpt><trkpt lat="35.80558" lon="8.3805113"><ele>577.3333333333334</ele><time>2026-05-01T14:27:32.065Z</time></trkpt><trkpt lat="35.8054132" lon="8.3804107"><ele>577.6666666666666</ele><time>2026-05-01T14:27:33.07Z</time></trkpt><trkpt lat="35.8052443" lon="8.3803052"><ele>578.0</ele><time>2026-05-01T14:27:34.067Z</time></trkpt><trkpt lat="35.8050754" lon="8.3801981"><ele>579.3333333333333</ele><time>2026-05-01T14:27:35.066Z</time></trkpt><trkpt lat="35.8049085" lon="8.3800977"><ele>580.6666666666666</ele><time>2026-05-01T14:27:36.07Z</time></trkpt><trkpt lat="35.8047386" lon="8.3799939"><ele>582.0</ele><time>2026-05-01T14:27:37.062Z</time></trkpt><trkpt lat="35.8045695" lon="8.379885"><ele>582.0</ele><time>2026-05-01T14:27:38.052Z</time></trkpt><trkpt lat="35.8044024" lon="8.3797742"><ele>582.0</ele><time>2026-05-01T14:27:39.068Z</time></trkpt><trkpt lat="35.8042334" lon="8.3796701"><ele>582.0</ele><time>2026-05-01T14:27:40.066Z</time></trkpt><trkpt lat="35.8040626" lon="8.379565"><ele>582.3333333333334</ele><time>2026-05-01T14:27:41.065Z</time></trkpt><trkpt lat="35.8038936" lon="8.3794599"><ele>582.6666666666667</ele><time>2026-05-01T14:27:42.071Z</time></trkpt><trkpt lat="35.8037165" lon="8.3793561"><ele>583.0</ele><time>2026-05-01T14:27:43.076Z</time></trkpt><trkpt lat="35.8035491" lon="8.379248"><ele>584.0</ele><time>2026-05-01T14:27:44.065Z</time></trkpt><trkpt lat="35.8033815" lon="8.3791401"><ele>585.0</ele><time>2026-05-01T14:27:45.07Z</time></trkpt><trkpt lat="35.8032128" lon="8.3790325"><ele>586.0</ele><time>2026-05-01T14:27:46.062Z</time></trkpt><trkpt lat="35.803044" lon="8.3789277"><ele>585.6666666666667</ele><time>2026-05-01T14:27:47.073Z</time></trkpt><trkpt lat="35.8028764" lon="8.3788222"><ele>585.3333333333334</ele><time>2026-05-01T14:27:48.069Z</time></trkpt><trkpt lat="35.8027096" lon="8.3787178"><ele>585.0</ele><time>2026-05-01T14:27:49.06Z</time></trkpt><trkpt lat="35.8025525" lon="8.3786158"><ele>586.6666666666666</ele><time>2026-05-01T14:27:50.052Z</time></trkpt><trkpt lat="35.8024038" lon="8.3785114"><ele>588.3333333333333</ele><time>2026-05-01T14:27:51.066Z</time></trkpt><trkpt lat="35.8022606" lon="8.3784111"><ele>590.0</ele><time>2026-05-01T14:27:52.05Z</time></trkpt><trkpt lat="35.8021221" lon="8.3782964"><ele>590.0</ele><time>2026-05-01T14:27:53.068Z</time></trkpt><trkpt lat="35.8019865" lon="8.3781687"><ele>590.0</ele><time>2026-05-01T14:27:54.073Z</time></trkpt><trkpt lat="35.8018571" lon="8.3780299"><ele>590.0</ele><time>2026-05-01T14:27:55.097Z</time></trkpt><trkpt lat="35.8017242" lon="8.3778838"><ele>590.6666666666666</ele><time>2026-05-01T14:27:56.053Z</time></trkpt><trkpt lat="35.8015899" lon="8.3777343"><ele>591.3333333333334</ele><time>2026-05-01T14:27:57.077Z</time></trkpt><trkpt lat="35.801461" lon="8.3775792"><ele>592.0</ele><time>2026-05-01T14:27:58.076Z</time></trkpt><trkpt lat="35.8013303" lon="8.3774189"><ele>592.0</ele><time>2026-05-01T14:27:59.068Z</time></trkpt><trkpt lat="35.8012031" lon="8.3772626"><ele>592.0</ele><time>2026-05-01T14:28:00.08Z</time></trkpt><trkpt lat="35.8010743" lon="8.377104"><ele>592.0</ele><time>2026-05-01T14:28:01.061Z</time></trkpt><trkpt lat="35.8009441" lon="8.3769517"><ele>592.0</ele><time>2026-05-01T14:28:02.055Z</time></trkpt><trkpt lat="35.800816" lon="8.3767989"><ele>592.0</ele><time>2026-05-01T14:28:03.057Z</time></trkpt><trkpt lat="35.8006928" lon="8.3766438"><ele>592.0</ele><time>2026-05-01T14:28:04.051Z</time></trkpt><trkpt lat="35.8005713" lon="8.3764895"><ele>591.6666666666667</ele><time>2026-05-01T14:28:05.064Z</time></trkpt><trkpt lat="35.8004475" lon="8.3763388"><ele>591.3333333333334</ele><time>2026-05-01T14:28:06.077Z</time></trkpt><trkpt lat="35.800323" lon="8.3761884"><ele>591.0</ele><time>2026-05-01T14:28:07.061Z</time></trkpt><trkpt lat="35.8001983" lon="8.3760367"><ele>592.3333333333334</ele><time>2026-05-01T14:28:08.068Z</time></trkpt><trkpt lat="35.8000768" lon="8.3758822"><ele>593.6666666666667</ele><time>2026-05-01T14:28:09.073Z</time></trkpt><trkpt lat="35.7999511" lon="8.3757291"><ele>595.0</ele><time>2026-05-01T14:28:10.076Z</time></trkpt><trkpt lat="35.7998266" lon="8.3755697"><ele>594.6666666666667</ele><time>2026-05-01T14:28:11.07Z</time></trkpt><trkpt lat="35.7996998" lon="8.3754107"><ele>594.3333333333334</ele><time>2026-05-01T14:28:12.056Z</time></trkpt><trkpt lat="35.7995716" lon="8.3752497"><ele>594.0</ele><time>2026-05-01T14:28:13.069Z</time></trkpt><trkpt lat="35.7994417" lon="8.3750918"><ele>594.6666666666666</ele><time>2026-05-01T14:28:14.073Z</time></trkpt><trkpt lat="35.7993154" lon="8.3749315"><ele>595.3333333333333</ele><time>2026-05-01T14:28:15.07Z</time></trkpt><trkpt lat="35.799189" lon="8.3747744"><ele>596.0</ele><time>2026-05-01T14:28:16.079Z</time></trkpt><trkpt lat="35.7990604" lon="8.3746171"><ele>596.3333333333333</ele><time>2026-05-01T14:28:17.071Z</time></trkpt><trkpt lat="35.7989319" lon="8.3744614"><ele>596.6666666666666</ele><time>2026-05-01T14:28:18.074Z</time></trkpt><trkpt lat="35.7988041" lon="8.3743113"><ele>597.0</ele><time>2026-05-01T14:28:19.06Z</time></trkpt><trkpt lat="35.798678" lon="8.374157"><ele>597.0</ele><time>2026-05-01T14:28:20.068Z</time></trkpt><trkpt lat="35.7985498" lon="8.3740083"><ele>597.0</ele><time>2026-05-01T14:28:21.078Z</time></trkpt><trkpt lat="35.7984299" lon="8.37386"><ele>597.0</ele><time>2026-05-01T14:28:22.066Z</time></trkpt><trkpt lat="35.7983168" lon="8.3737134"><ele>597.3333333333334</ele><time>2026-05-01T14:28:23.071Z</time></trkpt><trkpt lat="35.798204" lon="8.37357"><ele>597.6666666666667</ele><time>2026-05-01T14:28:24.056Z</time></trkpt><trkpt lat="35.7980923" lon="8.3734275"><ele>598.0</ele><time>2026-05-01T14:28:25.063Z</time></trkpt><trkpt lat="35.7979782" lon="8.373282"><ele>598.0</ele><time>2026-05-01T14:28:26.061Z</time></trkpt><trkpt lat="35.797857" lon="8.3731417"><ele>598.0</ele><time>2026-05-01T14:28:27.073Z</time></trkpt><trkpt lat="35.7977365" lon="8.3729989"><ele>598.0</ele><time>2026-05-01T14:28:28.067Z</time></trkpt><trkpt lat="35.7976136" lon="8.3728486"><ele>599.3333333333334</ele><time>2026-05-01T14:28:29.058Z</time></trkpt><trkpt lat="35.7974905" lon="8.3727025"><ele>600.6666666666666</ele><time>2026-05-01T14:28:30.058Z</time></trkpt><trkpt lat="35.7973698" lon="8.3725563"><ele>602.0</ele><time>2026-05-01T14:28:31.052Z</time></trkpt><trkpt lat="35.7972509" lon="8.3724097"><ele>602.0</ele><time>2026-05-01T14:28:32.047Z</time></trkpt><trkpt lat="35.7971358" lon="8.3722618"><ele>602.0</ele><time>2026-05-01T14:28:33.064Z</time></trkpt><trkpt lat="35.7970159" lon="8.3721179"><ele>602.0</ele><time>2026-05-01T14:28:34.056Z</time></trkpt><trkpt lat="35.7968967" lon="8.3719767"><ele>602.6666666666666</ele><time>2026-05-01T14:28:35.039Z</time></trkpt><trkpt lat="35.7967772" lon="8.3718339"><ele>603.3333333333334</ele><time>2026-05-01T14:28:36.112Z</time></trkpt><trkpt lat="35.796659" lon="8.3716842"><ele>604.0</ele><time>2026-05-01T14:28:37.064Z</time></trkpt><trkpt lat="35.796535" lon="8.3715375"><ele>604.0</ele><time>2026-05-01T14:28:38.067Z</time></trkpt><trkpt lat="35.796414" lon="8.3713861"><ele>604.0</ele><time>2026-05-01T14:28:39.061Z</time></trkpt><trkpt lat="35.7961669" lon="8.3710789"><ele>603.3333333333334</ele><time>2026-05-01T14:28:41.069Z</time></trkpt><trkpt lat="35.7960411" lon="8.3709274"><ele>602.6666666666666</ele><time>2026-05-01T14:28:42.069Z</time></trkpt><trkpt lat="35.7959142" lon="8.3707759"><ele>602.0</ele><time>2026-05-01T14:28:43.07Z</time></trkpt><trkpt lat="35.7957844" lon="8.3706233"><ele>603.3333333333333</ele><time>2026-05-01T14:28:44.065Z</time></trkpt><trkpt lat="35.7956559" lon="8.3704757"><ele>604.6666666666666</ele><time>2026-05-01T14:28:45.074Z</time></trkpt><trkpt lat="35.7955323" lon="8.3703222"><ele>606.0</ele><time>2026-05-01T14:28:46.06Z</time></trkpt><trkpt lat="35.7954074" lon="8.3701735"><ele>606.0</ele><time>2026-05-01T14:28:47.084Z</time></trkpt><trkpt lat="35.7952827" lon="8.3700252"><ele>606.0</ele><time>2026-05-01T14:28:48.059Z</time></trkpt><trkpt lat="35.795162" lon="8.3698825"><ele>606.0</ele><time>2026-05-01T14:28:49.081Z</time></trkpt><trkpt lat="35.7950436" lon="8.3697382"><ele>606.0</ele><time>2026-05-01T14:28:50.061Z</time></trkpt><trkpt lat="35.7949255" lon="8.3695952"><ele>606.0</ele><time>2026-05-01T14:28:51.058Z</time></trkpt><trkpt lat="35.7948095" lon="8.3694571"><ele>606.0</ele><time>2026-05-01T14:28:52.068Z</time></trkpt><trkpt lat="35.7946908" lon="8.3693105"><ele>606.0</ele><time>2026-05-01T14:28:53.077Z</time></trkpt><trkpt lat="35.7945758" lon="8.3691655"><ele>606.0</ele><time>2026-05-01T14:28:54.072Z</time></trkpt><trkpt lat="35.7944564" lon="8.3690148"><ele>606.0</ele><time>2026-05-01T14:28:55.07Z</time></trkpt><trkpt lat="35.7943316" lon="8.3688637"><ele>606.3333333333334</ele><time>2026-05-01T14:28:56.067Z</time></trkpt><trkpt lat="35.7942164" lon="8.3687165"><ele>606.6666666666667</ele><time>2026-05-01T14:28:57.067Z</time></trkpt><trkpt lat="35.7940975" lon="8.3685667"><ele>607.0</ele><time>2026-05-01T14:28:58.078Z</time></trkpt><trkpt lat="35.7939784" lon="8.3684247"><ele>607.0</ele><time>2026-05-01T14:28:59.077Z</time></trkpt><trkpt lat="35.7938604" lon="8.368282"><ele>607.0</ele><time>2026-05-01T14:29:00.061Z</time></trkpt><trkpt lat="35.7937405" lon="8.3681294"><ele>607.0</ele><time>2026-05-01T14:29:01.064Z</time></trkpt><trkpt lat="35.7936199" lon="8.3679828"><ele>606.6666666666667</ele><time>2026-05-01T14:29:02.078Z</time></trkpt><trkpt lat="35.7934975" lon="8.3678305"><ele>606.3333333333334</ele><time>2026-05-01T14:29:03.081Z</time></trkpt><trkpt lat="35.793373" lon="8.3676824"><ele>606.0</ele><time>2026-05-01T14:29:04.057Z</time></trkpt><trkpt lat="35.7932513" lon="8.3675345"><ele>606.0</ele><time>2026-05-01T14:29:05.046Z</time></trkpt><trkpt lat="35.7931253" lon="8.3673869"><ele>606.0</ele><time>2026-05-01T14:29:06.059Z</time></trkpt><trkpt lat="35.792999" lon="8.3672363"><ele>606.0</ele><time>2026-05-01T14:29:07.073Z</time></trkpt><trkpt lat="35.7928724" lon="8.3670876"><ele>606.3333333333334</ele><time>2026-05-01T14:29:08.079Z</time></trkpt><trkpt lat="35.7927447" lon="8.366939"><ele>606.6666666666667</ele><time>2026-05-01T14:29:09.064Z</time></trkpt><trkpt lat="35.7926211" lon="8.3667884"><ele>607.0</ele><time>2026-05-01T14:29:10.069Z</time></trkpt><trkpt lat="35.7924973" lon="8.3666423"><ele>607.0</ele><time>2026-05-01T14:29:11.074Z</time></trkpt><trkpt lat="35.7923744" lon="8.3664966"><ele>607.0</ele><time>2026-05-01T14:29:12.059Z</time></trkpt><trkpt lat="35.7922536" lon="8.3663461"><ele>607.0</ele><time>2026-05-01T14:29:13.073Z</time></trkpt><trkpt lat="35.7921321" lon="8.3661979"><ele>606.3333333333334</ele><time>2026-05-01T14:29:14.076Z</time></trkpt><trkpt lat="35.792006" lon="8.3660479"><ele>605.6666666666666</ele><time>2026-05-01T14:29:15.059Z</time></trkpt><trkpt lat="35.7918819" lon="8.365899"><ele>605.0</ele><time>2026-05-01T14:29:16.064Z</time></trkpt><trkpt lat="35.7917612" lon="8.3657459"><ele>605.6666666666666</ele><time>2026-05-01T14:29:17.059Z</time></trkpt><trkpt lat="35.7916387" lon="8.3655963"><ele>606.3333333333334</ele><time>2026-05-01T14:29:18.071Z</time></trkpt><trkpt lat="35.7915188" lon="8.3654483"><ele>607.0</ele><time>2026-05-01T14:29:19.072Z</time></trkpt><trkpt lat="35.7913952" lon="8.3652929"><ele>607.0</ele><time>2026-05-01T14:29:20.064Z</time></trkpt><trkpt lat="35.7912687" lon="8.3651392"><ele>607.0</ele><time>2026-05-01T14:29:21.049Z</time></trkpt><trkpt lat="35.7911473" lon="8.3649836"><ele>607.0</ele><time>2026-05-01T14:29:22.051Z</time></trkpt><trkpt lat="35.7910237" lon="8.3648297"><ele>607.0</ele><time>2026-05-01T14:29:23.076Z</time></trkpt><trkpt lat="35.7908993" lon="8.364681"><ele>607.0</ele><time>2026-05-01T14:29:24.058Z</time></trkpt><trkpt lat="35.7907744" lon="8.3645293"><ele>607.0</ele><time>2026-05-01T14:29:25.067Z</time></trkpt><trkpt lat="35.7906494" lon="8.3643799"><ele>607.0</ele><time>2026-05-01T14:29:26.067Z</time></trkpt><trkpt lat="35.7905212" lon="8.3642287"><ele>607.0</ele><time>2026-05-01T14:29:27.075Z</time></trkpt><trkpt lat="35.790395" lon="8.364082"><ele>607.0</ele><time>2026-05-01T14:29:28.069Z</time></trkpt><trkpt lat="35.7902765" lon="8.3639303"><ele>607.6666666666667</ele><time>2026-05-01T14:29:29.073Z</time></trkpt><trkpt lat="35.7901588" lon="8.3637806"><ele>608.3333333333334</ele><time>2026-05-01T14:29:30.066Z</time></trkpt><trkpt lat="35.7900371" lon="8.3636354"><ele>609.0</ele><time>2026-05-01T14:29:31.067Z</time></trkpt><trkpt lat="35.7899146" lon="8.3634881"><ele>609.0</ele><time>2026-05-01T14:29:32.063Z</time></trkpt><trkpt lat="35.7897936" lon="8.3633458"><ele>609.0</ele><time>2026-05-01T14:29:33.066Z</time></trkpt><trkpt lat="35.7896744" lon="8.3631948"><ele>609.0</ele><time>2026-05-01T14:29:34.074Z</time></trkpt><trkpt lat="35.7895505" lon="8.3630493"><ele>609.0</ele><time>2026-05-01T14:29:35.056Z</time></trkpt><trkpt lat="35.7894251" lon="8.3629009"><ele>609.0</ele><time>2026-05-01T14:29:36.077Z</time></trkpt><trkpt lat="35.789304" lon="8.3627542"><ele>609.0</ele><time>2026-05-01T14:29:37.062Z</time></trkpt><trkpt lat="35.7891874" lon="8.3626053"><ele>609.3333333333334</ele><time>2026-05-01T14:29:38.081Z</time></trkpt><trkpt lat="35.7890643" lon="8.3624518"><ele>609.6666666666667</ele><time>2026-05-01T14:29:39.058Z</time></trkpt><trkpt lat="35.7889415" lon="8.3622976"><ele>610.0</ele><time>2026-05-01T14:29:40.074Z</time></trkpt><trkpt lat="35.7888197" lon="8.3621524"><ele>610.0</ele><time>2026-05-01T14:29:41.071Z</time></trkpt><trkpt lat="35.7886948" lon="8.3620011"><ele>610.0</ele><time>2026-05-01T14:29:42.064Z</time></trkpt><trkpt lat="35.7885697" lon="8.361847"><ele>610.0</ele><time>2026-05-01T14:29:43.067Z</time></trkpt><trkpt lat="35.788436" lon="8.3616879"><ele>610.3333333333334</ele><time>2026-05-01T14:29:44.081Z</time></trkpt><trkpt lat="35.7883036" lon="8.3615274"><ele>610.6666666666666</ele><time>2026-05-01T14:29:45.067Z</time></trkpt><trkpt lat="35.7881706" lon="8.3613686"><ele>611.0</ele><time>2026-05-01T14:29:46.074Z</time></trkpt><trkpt lat="35.7880374" lon="8.3612069"><ele>611.0</ele><time>2026-05-01T14:29:47.055Z</time></trkpt><trkpt lat="35.7879022" lon="8.3610392"><ele>611.0</ele><time>2026-05-01T14:29:48.063Z</time></trkpt><trkpt lat="35.7877627" lon="8.3608656"><ele>611.0</ele><time>2026-05-01T14:29:49.064Z</time></trkpt><trkpt lat="35.7876234" lon="8.3606996"><ele>611.3333333333333</ele><time>2026-05-01T14:29:50.068Z</time></trkpt><trkpt lat="35.787485" lon="8.3605287"><ele>611.6666666666666</ele><time>2026-05-01T14:29:51.072Z</time></trkpt><trkpt lat="35.7873503" lon="8.3603568"><ele>612.0</ele><time>2026-05-01T14:29:52.067Z</time></trkpt><trkpt lat="35.7872175" lon="8.3601906"><ele>612.0</ele><time>2026-05-01T14:29:53.058Z</time></trkpt><trkpt lat="35.7870824" lon="8.3600317"><ele>612.0</ele><time>2026-05-01T14:29:54.059Z</time></trkpt><trkpt lat="35.7869513" lon="8.3598696"><ele>612.0</ele><time>2026-05-01T14:29:55.062Z</time></trkpt><trkpt lat="35.7868205" lon="8.3597035"><ele>613.0</ele><time>2026-05-01T14:29:56.065Z</time></trkpt><trkpt lat="35.7866891" lon="8.3595398"><ele>614.0</ele><time>2026-05-01T14:29:57.067Z</time></trkpt><trkpt lat="35.7865576" lon="8.3593801"><ele>615.0</ele><time>2026-05-01T14:29:58.068Z</time></trkpt><trkpt lat="35.7864256" lon="8.3592187"><ele>615.0</ele><time>2026-05-01T14:29:59.067Z</time></trkpt><trkpt lat="35.7862969" lon="8.3590594"><ele>615.0</ele><time>2026-05-01T14:30:00.057Z</time></trkpt><trkpt lat="35.7861642" lon="8.3588979"><ele>615.0</ele><time>2026-05-01T14:30:01.075Z</time></trkpt><trkpt lat="35.7860379" lon="8.358744"><ele>615.0</ele><time>2026-05-01T14:30:02.068Z</time></trkpt><trkpt lat="35.7859127" lon="8.3585922"><ele>615.0</ele><time>2026-05-01T14:30:03.061Z</time></trkpt><trkpt lat="35.785788" lon="8.3584418"><ele>615.0</ele><time>2026-05-01T14:30:04.062Z</time></trkpt><trkpt lat="35.7856656" lon="8.3582926"><ele>615.0</ele><time>2026-05-01T14:30:05.068Z</time></trkpt><trkpt lat="35.7855447" lon="8.3581412"><ele>615.0</ele><time>2026-05-01T14:30:06.064Z</time></trkpt><trkpt lat="35.7854267" lon="8.3579911"><ele>615.0</ele><time>2026-05-01T14:30:07.067Z</time></trkpt><trkpt lat="35.785303" lon="8.3578442"><ele>614.3333333333334</ele><time>2026-05-01T14:30:08.063Z</time></trkpt><trkpt lat="35.7851807" lon="8.357696"><ele>613.6666666666667</ele><time>2026-05-01T14:30:09.057Z</time></trkpt><trkpt lat="35.7850539" lon="8.3575444"><ele>613.0</ele><time>2026-05-01T14:30:10.06Z</time></trkpt><trkpt lat="35.784925" lon="8.357392"><ele>614.3333333333334</ele><time>2026-05-01T14:30:11.069Z</time></trkpt><trkpt lat="35.7848005" lon="8.3572384"><ele>615.6666666666666</ele><time>2026-05-01T14:30:12.06Z</time></trkpt><trkpt lat="35.7846776" lon="8.3570849"><ele>617.0</ele><time>2026-05-01T14:30:13.076Z</time></trkpt><trkpt lat="35.7845503" lon="8.3569295"><ele>617.0</ele><time>2026-05-01T14:30:14.06Z</time></trkpt><trkpt lat="35.7844248" lon="8.3567748"><ele>617.0</ele><time>2026-05-01T14:30:15.076Z</time></trkpt><trkpt lat="35.7842925" lon="8.356619"><ele>617.0</ele><time>2026-05-01T14:30:16.084Z</time></trkpt><trkpt lat="35.7841635" lon="8.3564635"><ele>618.0</ele><time>2026-05-01T14:30:17.073Z</time></trkpt><trkpt lat="35.7840353" lon="8.3563056"><ele>619.0</ele><time>2026-05-01T14:30:18.061Z</time></trkpt><trkpt lat="35.7839064" lon="8.3561509"><ele>620.0</ele><time>2026-05-01T14:30:19.067Z</time></trkpt><trkpt lat="35.7837759" lon="8.3559919"><ele>620.0</ele><time>2026-05-01T14:30:20.063Z</time></trkpt><trkpt lat="35.7836502" lon="8.3558367"><ele>620.0</ele><time>2026-05-01T14:30:21.065Z</time></trkpt><trkpt lat="35.7835208" lon="8.3556819"><ele>620.0</ele><time>2026-05-01T14:30:22.06Z</time></trkpt><trkpt lat="35.7833907" lon="8.3555271"><ele>621.3333333333333</ele><time>2026-05-01T14:30:23.073Z</time></trkpt><trkpt lat="35.7832646" lon="8.3553734"><ele>622.6666666666666</ele><time>2026-05-01T14:30:24.076Z</time></trkpt><trkpt lat="35.7831399" lon="8.355217"><ele>624.0</ele><time>2026-05-01T14:30:25.071Z</time></trkpt><trkpt lat="35.7830159" lon="8.3550627"><ele>624.0</ele><time>2026-05-01T14:30:26.076Z</time></trkpt><trkpt lat="35.7828856" lon="8.3549117"><ele>624.0</ele><time>2026-05-01T14:30:27.07Z</time></trkpt><trkpt lat="35.7827615" lon="8.3547646"><ele>624.0</ele><time>2026-05-01T14:30:28.074Z</time></trkpt><trkpt lat="35.782637" lon="8.3546082"><ele>624.3333333333334</ele><time>2026-05-01T14:30:29.074Z</time></trkpt><trkpt lat="35.7825171" lon="8.354456"><ele>624.6666666666667</ele><time>2026-05-01T14:30:30.07Z</time></trkpt><trkpt lat="35.7823912" lon="8.3543041"><ele>625.0</ele><time>2026-05-01T14:30:31.072Z</time></trkpt><trkpt lat="35.7822683" lon="8.3541521"><ele>625.0</ele><time>2026-05-01T14:30:32.079Z</time></trkpt><trkpt lat="35.7821422" lon="8.3539956"><ele>625.0</ele><time>2026-05-01T14:30:33.079Z</time></trkpt><trkpt lat="35.7820153" lon="8.3538382"><ele>625.0</ele><time>2026-05-01T14:30:34.072Z</time></trkpt><trkpt lat="35.7818906" lon="8.3536799"><ele>625.6666666666667</ele><time>2026-05-01T14:30:35.078Z</time></trkpt><trkpt lat="35.7817647" lon="8.3535169"><ele>626.3333333333334</ele><time>2026-05-01T14:30:36.078Z</time></trkpt><trkpt lat="35.781639" lon="8.3533595"><ele>627.0</ele><time>2026-05-01T14:30:37.069Z</time></trkpt><trkpt lat="35.7815115" lon="8.353205"><ele>627.0</ele><time>2026-05-01T14:30:38.071Z</time></trkpt><trkpt lat="35.7813816" lon="8.3530587"><ele>627.0</ele><time>2026-05-01T14:30:39.073Z</time></trkpt><trkpt lat="35.7812581" lon="8.3529043"><ele>627.0</ele><time>2026-05-01T14:30:40.066Z</time></trkpt><trkpt lat="35.7811339" lon="8.3527552"><ele>628.3333333333334</ele><time>2026-05-01T14:30:41.07Z</time></trkpt><trkpt lat="35.7810091" lon="8.3526057"><ele>629.6666666666667</ele><time>2026-05-01T14:30:42.063Z</time></trkpt><trkpt lat="35.7808812" lon="8.3524477"><ele>631.0</ele><time>2026-05-01T14:30:43.07Z</time></trkpt><trkpt lat="35.7807505" lon="8.3522944"><ele>630.3333333333334</ele><time>2026-05-01T14:30:44.071Z</time></trkpt><trkpt lat="35.7806219" lon="8.3521432"><ele>629.6666666666666</ele><time>2026-05-01T14:30:45.052Z</time></trkpt><trkpt lat="35.7804937" lon="8.3519913"><ele>629.0</ele><time>2026-05-01T14:30:46.064Z</time></trkpt><trkpt lat="35.7803668" lon="8.3518428"><ele>629.0</ele><time>2026-05-01T14:30:47.071Z</time></trkpt><trkpt lat="35.7802404" lon="8.3516935"><ele>629.0</ele><time>2026-05-01T14:30:48.051Z</time></trkpt><trkpt lat="35.7801151" lon="8.3515477"><ele>629.0</ele><time>2026-05-01T14:30:49.076Z</time></trkpt><trkpt lat="35.7799954" lon="8.3514049"><ele>630.0</ele><time>2026-05-01T14:30:50.069Z</time></trkpt><trkpt lat="35.7798789" lon="8.3512605"><ele>631.0</ele><time>2026-05-01T14:30:51.068Z</time></trkpt><trkpt lat="35.7797591" lon="8.3511203"><ele>632.0</ele><time>2026-05-01T14:30:52.064Z</time></trkpt><trkpt lat="35.7796492" lon="8.3509837"><ele>632.0</ele><time>2026-05-01T14:30:53.064Z</time></trkpt><trkpt lat="35.7795382" lon="8.3508513"><ele>632.0</ele><time>2026-05-01T14:30:54.054Z</time></trkpt><trkpt lat="35.7794197" lon="8.3507098"><ele>632.0</ele><time>2026-05-01T14:30:55.063Z</time></trkpt><trkpt lat="35.7793034" lon="8.3505663"><ele>632.6666666666666</ele><time>2026-05-01T14:30:56.067Z</time></trkpt><trkpt lat="35.7791889" lon="8.350415"><ele>633.3333333333334</ele><time>2026-05-01T14:30:57.083Z</time></trkpt><trkpt lat="35.7790736" lon="8.3502663"><ele>634.0</ele><time>2026-05-01T14:30:58.079Z</time></trkpt><trkpt lat="35.7789543" lon="8.350114"><ele>634.0</ele><time>2026-05-01T14:30:59.075Z</time></trkpt><trkpt lat="35.778833" lon="8.349968"><ele>634.0</ele><time>2026-05-01T14:31:00.051Z</time></trkpt><trkpt lat="35.7787082" lon="8.3498226"><ele>634.0</ele><time>2026-05-01T14:31:01.069Z</time></trkpt><trkpt lat="35.778591" lon="8.3496821"><ele>634.0</ele><time>2026-05-01T14:31:02.065Z</time></trkpt><trkpt lat="35.778472" lon="8.3495352"><ele>634.0</ele><time>2026-05-01T14:31:03.091Z</time></trkpt><trkpt lat="35.7783524" lon="8.349383"><ele>634.0</ele><time>2026-05-01T14:31:04.06Z</time></trkpt><trkpt lat="35.7782302" lon="8.3492354"><ele>634.0</ele><time>2026-05-01T14:31:05.06Z</time></trkpt><trkpt lat="35.7781067" lon="8.3490815"><ele>634.0</ele><time>2026-05-01T14:31:06.08Z</time></trkpt><trkpt lat="35.7779818" lon="8.3489273"><ele>634.0</ele><time>2026-05-01T14:31:07.065Z</time></trkpt><trkpt lat="35.7778529" lon="8.3487769"><ele>633.6666666666667</ele><time>2026-05-01T14:31:08.075Z</time></trkpt><trkpt lat="35.7777266" lon="8.3486289"><ele>633.3333333333334</ele><time>2026-05-01T14:31:09.059Z</time></trkpt><trkpt lat="35.7775995" lon="8.3484804"><ele>633.0</ele><time>2026-05-01T14:31:10.059Z</time></trkpt><trkpt lat="35.7774733" lon="8.3483329"><ele>633.3333333333334</ele><time>2026-05-01T14:31:11.068Z</time></trkpt><trkpt lat="35.7773501" lon="8.3481839"><ele>633.6666666666667</ele><time>2026-05-01T14:31:12.076Z</time></trkpt><trkpt lat="35.7772273" lon="8.3480341"><ele>634.0</ele><time>2026-05-01T14:31:13.069Z</time></trkpt><trkpt lat="35.7771031" lon="8.3478894"><ele>634.0</ele><time>2026-05-01T14:31:14.071Z</time></trkpt><trkpt lat="35.7769842" lon="8.3477477"><ele>634.0</ele><time>2026-05-01T14:31:15.082Z</time></trkpt><trkpt lat="35.7768658" lon="8.3476028"><ele>634.0</ele><time>2026-05-01T14:31:16.075Z</time></trkpt><trkpt lat="35.7767509" lon="8.3474593"><ele>634.6666666666667</ele><time>2026-05-01T14:31:17.065Z</time></trkpt><trkpt lat="35.7766368" lon="8.3473234"><ele>635.3333333333334</ele><time>2026-05-01T14:31:18.073Z</time></trkpt><trkpt lat="35.7765257" lon="8.3471871"><ele>636.0</ele><time>2026-05-01T14:31:19.072Z</time></trkpt><trkpt lat="35.7764123" lon="8.3470485"><ele>636.0</ele><time>2026-05-01T14:31:20.061Z</time></trkpt><trkpt lat="35.7763006" lon="8.3469105"><ele>636.0</ele><time>2026-05-01T14:31:21.073Z</time></trkpt><trkpt lat="35.7761869" lon="8.3467813"><ele>636.0</ele><time>2026-05-01T14:31:22.06Z</time></trkpt><trkpt lat="35.7760829" lon="8.3466562"><ele>636.5</ele><time>2026-05-01T14:31:23.063Z</time></trkpt><trkpt lat="35.7759853" lon="8.3465324"><ele>637.0</ele><time>2026-05-01T14:31:24.069Z</time></trkpt><trkpt lat="35.7758992" lon="8.3464271"><ele>637.5</ele><time>2026-05-01T14:31:25.069Z</time></trkpt><trkpt lat="35.7758198" lon="8.3463207"><ele>638.0</ele><time>2026-05-01T14:31:26.071Z</time></trkpt><trkpt lat="35.7757484" lon="8.3462235"><ele>638.0</ele><time>2026-05-01T14:31:27.061Z</time></trkpt><trkpt lat="35.7756751" lon="8.3461422"><ele>638.0</ele><time>2026-05-01T14:31:28.056Z</time></trkpt><trkpt lat="35.7756077" lon="8.3460637"><ele>638.0</ele><time>2026-05-01T14:31:29.063Z</time></trkpt><trkpt lat="35.7755541" lon="8.345994"><ele>638.0</ele><time>2026-05-01T14:31:30.05Z</time></trkpt><trkpt lat="35.7755022" lon="8.345923"><ele>638.0</ele><time>2026-05-01T14:31:31.058Z</time></trkpt><trkpt lat="35.7754533" lon="8.3458653"><ele>638.0</ele><time>2026-05-01T14:31:32.062Z</time></trkpt><trkpt lat="35.7753745" lon="8.3457765"><ele>638.0</ele><time>2026-05-01T14:31:34.052Z</time></trkpt><trkpt lat="35.775304" lon="8.345692"><ele>638.0</ele><time>2026-05-01T14:31:36.079Z</time></trkpt><trkpt lat="35.7752353" lon="8.3455935"><ele>638.0</ele><time>2026-05-01T14:31:38.072Z</time></trkpt><trkpt lat="35.7751922" lon="8.3455345"><ele>638.0</ele><time>2026-05-01T14:31:39.074Z</time></trkpt><trkpt lat="35.7751453" lon="8.3454763"><ele>638.0</ele><time>2026-05-01T14:31:40.067Z</time></trkpt><trkpt lat="35.7750944" lon="8.3454188"><ele>638.0</ele><time>2026-05-01T14:31:41.067Z</time></trkpt><trkpt lat="35.7750429" lon="8.345365"><ele>637.8333333333333</ele><time>2026-05-01T14:31:42.079Z</time></trkpt><trkpt lat="35.7749856" lon="8.3453072"><ele>637.6666666666666</ele><time>2026-05-01T14:31:43.063Z</time></trkpt><trkpt lat="35.7749331" lon="8.345253"><ele>637.5</ele><time>2026-05-01T14:31:44.072Z</time></trkpt><trkpt lat="35.7748511" lon="8.345148"><ele>637.3333333333334</ele><time>2026-05-01T14:31:46.081Z</time></trkpt><trkpt lat="35.7747938" lon="8.3450715"><ele>637.1666666666667</ele><time>2026-05-01T14:31:48.064Z</time></trkpt><trkpt lat="35.7747319" lon="8.3449894"><ele>637.0</ele><time>2026-05-01T14:31:50.07Z</time></trkpt><trkpt lat="35.7746485" lon="8.3448872"><ele>637.0</ele><time>2026-05-01T14:31:52.054Z</time></trkpt><trkpt lat="35.7745981" lon="8.3448238"><ele>637.0</ele><time>2026-05-01T14:31:53.063Z</time></trkpt><trkpt lat="35.7745449" lon="8.3447542"><ele>637.0</ele><time>2026-05-01T14:31:54.06Z</time></trkpt><trkpt lat="35.7744827" lon="8.3446802"><ele>637.0</ele><time>2026-05-01T14:31:55.068Z</time></trkpt><trkpt lat="35.7744169" lon="8.3446074"><ele>637.0</ele><time>2026-05-01T14:31:56.066Z</time></trkpt><trkpt lat="35.7743557" lon="8.3445288"><ele>637.0</ele><time>2026-05-01T14:31:57.062Z</time></trkpt><trkpt lat="35.7742849" lon="8.3444564"><ele>636.8000000000001</ele><time>2026-05-01T14:31:58.067Z</time></trkpt><trkpt lat="35.7742121" lon="8.3443797"><ele>636.6</ele><time>2026-05-01T14:31:59.065Z</time></trkpt><trkpt lat="35.7741425" lon="8.344303"><ele>636.4000000000001</ele><time>2026-05-01T14:32:00.071Z</time></trkpt><trkpt lat="35.774065" lon="8.3442331"><ele>636.2</ele><time>2026-05-01T14:32:01.06Z</time></trkpt><trkpt lat="35.7739831" lon="8.3441692"><ele>636.0</ele><time>2026-05-01T14:32:02.08Z</time></trkpt><trkpt lat="35.7739048" lon="8.3441041"><ele>636.0</ele><time>2026-05-01T14:32:03.073Z</time></trkpt><trkpt lat="35.7738259" lon="8.3440343"><ele>636.0</ele><time>2026-05-01T14:32:04.057Z</time></trkpt><trkpt lat="35.7737428" lon="8.3439661"><ele>636.0</ele><time>2026-05-01T14:32:05.078Z</time></trkpt><trkpt lat="35.773655" lon="8.3439043"><ele>636.0</ele><time>2026-05-01T14:32:06.077Z</time></trkpt><trkpt lat="35.773568" lon="8.3438424"><ele>636.0</ele><time>2026-05-01T14:32:07.056Z</time></trkpt><trkpt lat="35.7734782" lon="8.3437923"><ele>635.8</ele><time>2026-05-01T14:32:08.069Z</time></trkpt><trkpt lat="35.773381" lon="8.3437382"><ele>635.6</ele><time>2026-05-01T14:32:09.063Z</time></trkpt><trkpt lat="35.7732843" lon="8.3436888"><ele>635.4</ele><time>2026-05-01T14:32:10.052Z</time></trkpt><trkpt lat="35.7731875" lon="8.3436443"><ele>635.2</ele><time>2026-05-01T14:32:11.072Z</time></trkpt><trkpt lat="35.7730909" lon="8.3435991"><ele>635.0</ele><time>2026-05-01T14:32:12.071Z</time></trkpt><trkpt lat="35.7729996" lon="8.3435515"><ele>635.0</ele><time>2026-05-01T14:32:13.067Z</time></trkpt><trkpt lat="35.7729098" lon="8.3435099"><ele>635.0</ele><time>2026-05-01T14:32:14.068Z</time></trkpt><trkpt lat="35.7728174" lon="8.3434747"><ele>635.0</ele><time>2026-05-01T14:32:15.057Z</time></trkpt><trkpt lat="35.7727226" lon="8.3434401"><ele>635.0</ele><time>2026-05-01T14:32:16.077Z</time></trkpt><trkpt lat="35.7726332" lon="8.3434096"><ele>635.0</ele><time>2026-05-01T14:32:17.059Z</time></trkpt><trkpt lat="35.7725427" lon="8.3433762"><ele>636.0</ele><time>2026-05-01T14:32:18.064Z</time></trkpt><trkpt lat="35.7724549" lon="8.3433403"><ele>637.0</ele><time>2026-05-01T14:32:19.053Z</time></trkpt><trkpt lat="35.7723635" lon="8.3433044"><ele>638.0</ele><time>2026-05-01T14:32:20.07Z</time></trkpt><trkpt lat="35.7722734" lon="8.3432778"><ele>639.0</ele><time>2026-05-01T14:32:21.053Z</time></trkpt><trkpt lat="35.7721861" lon="8.3432468"><ele>640.0</ele><time>2026-05-01T14:32:22.069Z</time></trkpt><trkpt lat="35.7720993" lon="8.3432167"><ele>640.0</ele><time>2026-05-01T14:32:23.066Z</time></trkpt><trkpt lat="35.7720077" lon="8.3431805"><ele>640.0</ele><time>2026-05-01T14:32:24.061Z</time></trkpt><trkpt lat="35.7719189" lon="8.3431437"><ele>640.0</ele><time>2026-05-01T14:32:25.073Z</time></trkpt><trkpt lat="35.7718324" lon="8.3431077"><ele>640.0</ele><time>2026-05-01T14:32:26.074Z</time></trkpt><trkpt lat="35.7717573" lon="8.3430717"><ele>640.0</ele><time>2026-05-01T14:32:27.065Z</time></trkpt><trkpt lat="35.7716803" lon="8.3430411"><ele>640.0</ele><time>2026-05-01T14:32:28.071Z</time></trkpt><trkpt lat="35.7716154" lon="8.3430139"><ele>640.8333333333334</ele><time>2026-05-01T14:32:29.073Z</time></trkpt><trkpt lat="35.7715163" lon="8.3429719"><ele>641.6666666666667</ele><time>2026-05-01T14:32:31.077Z</time></trkpt><trkpt lat="35.7714526" lon="8.3429453"><ele>642.5</ele><time>2026-05-01T14:32:33.081Z</time></trkpt><trkpt lat="35.7713838" lon="8.3429293"><ele>643.3333333333334</ele><time>2026-05-01T14:32:35.063Z</time></trkpt><trkpt lat="35.7712783" lon="8.342908"><ele>644.1666666666666</ele><time>2026-05-01T14:32:37.059Z</time></trkpt><trkpt lat="35.7712158" lon="8.342881"><ele>645.0</ele><time>2026-05-01T14:32:38.071Z</time></trkpt><trkpt lat="35.7711501" lon="8.3428536"><ele>645.0</ele><time>2026-05-01T14:32:39.067Z</time></trkpt><trkpt lat="35.7710846" lon="8.3428241"><ele>645.0</ele><time>2026-05-01T14:32:40.069Z</time></trkpt><trkpt lat="35.771019" lon="8.3427966"><ele>645.0</ele><time>2026-05-01T14:32:41.066Z</time></trkpt><trkpt lat="35.7709429" lon="8.3427642"><ele>645.0</ele><time>2026-05-01T14:32:42.063Z</time></trkpt><trkpt lat="35.7708712" lon="8.3427397"><ele>645.0</ele><time>2026-05-01T14:32:43.063Z</time></trkpt><trkpt lat="35.7708054" lon="8.3427167"><ele>645.0</ele><time>2026-05-01T14:32:44.07Z</time></trkpt><trkpt lat="35.770711" lon="8.3426743"><ele>645.6666666666666</ele><time>2026-05-01T14:32:46.06Z</time></trkpt><trkpt lat="35.7706459" lon="8.3426532"><ele>646.3333333333334</ele><time>2026-05-01T14:32:48.073Z</time></trkpt><trkpt lat="35.7705814" lon="8.3426277"><ele>647.0</ele><time>2026-05-01T14:32:51.06Z</time></trkpt><trkpt lat="35.7704725" lon="8.3425853"><ele>647.6666666666667</ele><time>2026-05-01T14:32:54.08Z</time></trkpt><trkpt lat="35.7703626" lon="8.3425448"><ele>648.3333333333334</ele><time>2026-05-01T14:32:56.067Z</time></trkpt><trkpt lat="35.7702994" lon="8.3425257"><ele>649.0</ele><time>2026-05-01T14:32:57.073Z</time></trkpt><trkpt lat="35.7702343" lon="8.3425029"><ele>649.3333333333334</ele><time>2026-05-01T14:32:58.067Z</time></trkpt><trkpt lat="35.7701569" lon="8.342476"><ele>649.6666666666667</ele><time>2026-05-01T14:32:59.051Z</time></trkpt><trkpt lat="35.7700901" lon="8.3424428"><ele>650.0</ele><time>2026-05-01T14:33:00.05Z</time></trkpt><trkpt lat="35.7700245" lon="8.3424105"><ele>650.3333333333334</ele><time>2026-05-01T14:33:01.055Z</time></trkpt><trkpt lat="35.7699601" lon="8.3423784"><ele>650.6666666666666</ele><time>2026-05-01T14:33:02.058Z</time></trkpt><trkpt lat="35.7698703" lon="8.3423366"><ele>651.0</ele><time>2026-05-01T14:33:04.064Z</time></trkpt><trkpt lat="35.7697898" lon="8.3423066"><ele>651.0</ele><time>2026-05-01T14:33:07.072Z</time></trkpt><trkpt lat="35.7696825" lon="8.342276"><ele>651.0</ele><time>2026-05-01T14:33:10.068Z</time></trkpt><trkpt lat="35.7695657" lon="8.3422338"><ele>651.0</ele><time>2026-05-01T14:33:12.064Z</time></trkpt><trkpt lat="35.769501" lon="8.3422036"><ele>651.0</ele><time>2026-05-01T14:33:13.064Z</time></trkpt><trkpt lat="35.76938" lon="8.3421543"><ele>651.0</ele><time>2026-05-01T14:33:15.063Z</time></trkpt><trkpt lat="35.7693146" lon="8.3421293"><ele>651.6666666666666</ele><time>2026-05-01T14:33:16.056Z</time></trkpt><trkpt lat="35.7692433" lon="8.3421013"><ele>652.3333333333334</ele><time>2026-05-01T14:33:17.055Z</time></trkpt><trkpt lat="35.7691713" lon="8.3420731"><ele>653.0</ele><time>2026-05-01T14:33:18.074Z</time></trkpt><trkpt lat="35.7691033" lon="8.3420445"><ele>653.6666666666667</ele><time>2026-05-01T14:33:19.079Z</time></trkpt><trkpt lat="35.7689848" lon="8.3420088"><ele>654.3333333333334</ele><time>2026-05-01T14:33:21.07Z</time></trkpt><trkpt lat="35.7688859" lon="8.3419766"><ele>655.0</ele><time>2026-05-01T14:33:23.053Z</time></trkpt><trkpt lat="35.7688165" lon="8.3419551"><ele>655.0</ele><time>2026-05-01T14:33:25.069Z</time></trkpt><trkpt lat="35.7687435" lon="8.3419237"><ele>655.0</ele><time>2026-05-01T14:33:28.073Z</time></trkpt><trkpt lat="35.7686787" lon="8.3418909"><ele>655.0</ele><time>2026-05-01T14:33:33.057Z</time></trkpt><trkpt lat="35.7685865" lon="8.3418578"><ele>655.0</ele><time>2026-05-01T14:37:08.053Z</time></trkpt><trkpt lat="35.7684943" lon="8.3418369"><ele>655.0</ele><time>2026-05-01T14:37:10.053Z</time></trkpt><trkpt lat="35.7684109" lon="8.341805"><ele>655.0</ele><time>2026-05-01T14:37:12.054Z</time></trkpt><trkpt lat="35.768285" lon="8.3417641"><ele>655.4</ele><time>2026-05-01T14:37:15.044Z</time></trkpt><trkpt lat="35.7681486" lon="8.3417155"><ele>655.8</ele><time>2026-05-01T14:37:19.107Z</time></trkpt><trkpt lat="35.7680695" lon="8.3416834"><ele>656.2</ele><time>2026-05-01T14:37:21.042Z</time></trkpt><trkpt lat="35.7679758" lon="8.3416472"><ele>656.6</ele><time>2026-05-01T14:37:23.051Z</time></trkpt><trkpt lat="35.7678762" lon="8.3415995"><ele>657.0</ele><time>2026-05-01T14:37:25.044Z</time></trkpt><trkpt lat="35.76776" lon="8.3415533"><ele>657.0</ele><time>2026-05-01T14:37:27.066Z</time></trkpt><trkpt lat="35.7676985" lon="8.3415319"><ele>657.0</ele><time>2026-05-01T14:37:28.084Z</time></trkpt><trkpt lat="35.7676373" lon="8.3415083"><ele>657.0</ele><time>2026-05-01T14:37:29.055Z</time></trkpt><trkpt lat="35.7675739" lon="8.3414831"><ele>657.0</ele><time>2026-05-01T14:37:30.072Z</time></trkpt><trkpt lat="35.7675046" lon="8.3414534"><ele>657.0</ele><time>2026-05-01T14:37:31.057Z</time></trkpt><trkpt lat="35.7674297" lon="8.3414209"><ele>657.0</ele><time>2026-05-01T14:37:32.035Z</time></trkpt><trkpt lat="35.7673582" lon="8.3413796"><ele>657.0</ele><time>2026-05-01T14:37:33.095Z</time></trkpt><trkpt lat="35.7672856" lon="8.3413328"><ele>656.0</ele><time>2026-05-01T14:37:34.035Z</time></trkpt><trkpt lat="35.7672204" lon="8.3412918"><ele>655.0</ele><time>2026-05-01T14:37:35.058Z</time></trkpt><trkpt lat="35.7671524" lon="8.341245"><ele>654.0</ele><time>2026-05-01T14:37:36.038Z</time></trkpt><trkpt lat="35.7668047" lon="8.3409363"><ele>655.0</ele><time>2026-05-01T14:37:42.043Z</time></trkpt><trkpt lat="35.7667046" lon="8.3408506"><ele>656.0</ele><time>2026-05-01T14:37:44.055Z</time></trkpt><trkpt lat="35.7666504" lon="8.3408044"><ele>657.0</ele><time>2026-05-01T14:37:45.055Z</time></trkpt><trkpt lat="35.7665934" lon="8.3407586"><ele>658.0</ele><time>2026-05-01T14:37:46.035Z</time></trkpt><trkpt lat="35.7665394" lon="8.3407181"><ele>659.0</ele><time>2026-05-01T14:37:47.064Z</time></trkpt><trkpt lat="35.7664852" lon="8.3406714"><ele>660.0</ele><time>2026-05-01T14:37:48.042Z</time></trkpt><trkpt lat="35.7663818" lon="8.3405924"><ele>659.6666666666666</ele><time>2026-05-01T14:37:50.05Z</time></trkpt><trkpt lat="35.7663057" lon="8.3405158"><ele>659.3333333333334</ele><time>2026-05-01T14:37:52.066Z</time></trkpt><trkpt lat="35.7662373" lon="8.3404541"><ele>659.0</ele><time>2026-05-01T14:37:54.067Z</time></trkpt><trkpt lat="35.7661667" lon="8.3404018"><ele>658.6666666666667</ele><time>2026-05-01T14:37:57.065Z</time></trkpt><trkpt lat="35.7660993" lon="8.3404275"><ele>658.3333333333334</ele><time>2026-05-01T14:38:00.069Z</time></trkpt><trkpt lat="35.7660607" lon="8.3404967"><ele>658.0</ele><time>2026-05-01T14:38:02.061Z</time></trkpt><trkpt lat="35.7660049" lon="8.3406342"><ele>659.4</ele><time>2026-05-01T14:38:04.071Z</time></trkpt><trkpt lat="35.7659728" lon="8.3407292"><ele>660.8</ele><time>2026-05-01T14:38:05.063Z</time></trkpt><trkpt lat="35.7659498" lon="8.3408066"><ele>662.2</ele><time>2026-05-01T14:38:06.063Z</time></trkpt><trkpt lat="35.7659055" lon="8.3409427"><ele>663.6</ele><time>2026-05-01T14:38:08.056Z</time></trkpt><trkpt lat="35.7658703" lon="8.3410892"><ele>665.0</ele><time>2026-05-01T14:38:10.059Z</time></trkpt><trkpt lat="35.7658488" lon="8.3411651"><ele>665.0</ele><time>2026-05-01T14:38:11.05Z</time></trkpt><trkpt lat="35.7657977" lon="8.3413065"><ele>665.0</ele><time>2026-05-01T14:38:13.055Z</time></trkpt><trkpt lat="35.7657696" lon="8.341382"><ele>665.0</ele><time>2026-05-01T14:38:14.062Z</time></trkpt><trkpt lat="35.7657416" lon="8.3414554"><ele>665.0</ele><time>2026-05-01T14:38:15.056Z</time></trkpt><trkpt lat="35.7657172" lon="8.3415328"><ele>665.0</ele><time>2026-05-01T14:38:16.067Z</time></trkpt><trkpt lat="35.765692" lon="8.3416112"><ele>665.0</ele><time>2026-05-01T14:38:17.064Z</time></trkpt><trkpt lat="35.765656" lon="8.3416894"><ele>665.3333333333333</ele><time>2026-05-01T14:38:18.067Z</time></trkpt><trkpt lat="35.7656245" lon="8.3417692"><ele>665.6666666666666</ele><time>2026-05-01T14:38:19.058Z</time></trkpt><trkpt lat="35.7655921" lon="8.3418559"><ele>666.0</ele><time>2026-05-01T14:38:20.084Z</time></trkpt><trkpt lat="35.7655657" lon="8.3419366"><ele>666.3333333333334</ele><time>2026-05-01T14:38:21.079Z</time></trkpt><trkpt lat="35.7655382" lon="8.3420189"><ele>666.6666666666667</ele><time>2026-05-01T14:38:22.069Z</time></trkpt><trkpt lat="35.7655132" lon="8.3420961"><ele>667.0</ele><time>2026-05-01T14:38:23.067Z</time></trkpt><trkpt lat="35.7654712" lon="8.3422351"><ele>667.0</ele><time>2026-05-01T14:38:25.073Z</time></trkpt><trkpt lat="35.7654374" lon="8.3423327"><ele>667.0</ele><time>2026-05-01T14:38:27.059Z</time></trkpt><trkpt lat="35.7653976" lon="8.3424082"><ele>667.0</ele><time>2026-05-01T14:38:29.052Z</time></trkpt><trkpt lat="35.7653645" lon="8.3424927"><ele>667.0</ele><time>2026-05-01T14:38:31.07Z</time></trkpt><trkpt lat="35.7653249" lon="8.3425767"><ele>667.0</ele><time>2026-05-01T14:38:33.066Z</time></trkpt><trkpt lat="35.7652762" lon="8.3426343"><ele>667.0</ele><time>2026-05-01T14:38:35.059Z</time></trkpt><trkpt lat="35.7652208" lon="8.3427018"><ele>668.0</ele><time>2026-05-01T14:38:37.076Z</time></trkpt><trkpt lat="35.7651772" lon="8.342761"><ele>669.0</ele><time>2026-05-01T14:38:39.064Z</time></trkpt><trkpt lat="35.7651303" lon="8.3428152"><ele>670.0</ele><time>2026-05-01T14:38:41.053Z</time></trkpt><trkpt lat="35.765072" lon="8.3428612"><ele>671.0</ele><time>2026-05-01T14:38:43.06Z</time></trkpt><trkpt lat="35.765015" lon="8.342923"><ele>672.0</ele><time>2026-05-01T14:38:45.078Z</time></trkpt><trkpt lat="35.7649427" lon="8.3429773"><ele>673.0</ele><time>2026-05-01T14:38:47.047Z</time></trkpt><trkpt lat="35.7648456" lon="8.3430576"><ele>673.3333333333334</ele><time>2026-05-01T14:38:49.063Z</time></trkpt><trkpt lat="35.7647877" lon="8.3431122"><ele>673.6666666666667</ele><time>2026-05-01T14:38:50.065Z</time></trkpt><trkpt lat="35.7647312" lon="8.3431639"><ele>674.0</ele><time>2026-05-01T14:38:51.061Z</time></trkpt><trkpt lat="35.7646706" lon="8.3432157"><ele>674.3333333333334</ele><time>2026-05-01T14:38:52.069Z</time></trkpt><trkpt lat="35.7646134" lon="8.3432673"><ele>674.6666666666666</ele><time>2026-05-01T14:38:53.05Z</time></trkpt><trkpt lat="35.7645605" lon="8.3433166"><ele>675.0</ele><time>2026-05-01T14:38:54.06Z</time></trkpt><trkpt lat="35.7644612" lon="8.3434065"><ele>675.0</ele><time>2026-05-01T14:38:56.069Z</time></trkpt><trkpt lat="35.7643633" lon="8.3434911"><ele>675.0</ele><time>2026-05-01T14:38:58.061Z</time></trkpt><trkpt lat="35.7643107" lon="8.3435362"><ele>675.0</ele><time>2026-05-01T14:38:59.063Z</time></trkpt><trkpt lat="35.7642533" lon="8.343581"><ele>675.0</ele><time>2026-05-01T14:39:00.066Z</time></trkpt><trkpt lat="35.764191" lon="8.3436349"><ele>675.0</ele><time>2026-05-01T14:39:01.063Z</time></trkpt><trkpt lat="35.7641275" lon="8.3436981"><ele>675.0</ele><time>2026-05-01T14:39:02.079Z</time></trkpt><trkpt lat="35.7640674" lon="8.3437481"><ele>675.8333333333334</ele><time>2026-05-01T14:39:03.049Z</time></trkpt><trkpt lat="35.7639999" lon="8.3437937"><ele>676.6666666666666</ele><time>2026-05-01T14:39:04.074Z</time></trkpt><trkpt lat="35.7639281" lon="8.3438426"><ele>677.5</ele><time>2026-05-01T14:39:05.062Z</time></trkpt><trkpt lat="35.7638569" lon="8.3439026"><ele>678.3333333333333</ele><time>2026-05-01T14:39:06.075Z</time></trkpt><trkpt lat="35.7637839" lon="8.3439568"><ele>679.1666666666666</ele><time>2026-05-01T14:39:07.057Z</time></trkpt><trkpt lat="35.7637019" lon="8.3440201"><ele>680.0</ele><time>2026-05-01T14:39:08.063Z</time></trkpt><trkpt lat="35.7636174" lon="8.3440836"><ele>680.2</ele><time>2026-05-01T14:39:09.041Z</time></trkpt><trkpt lat="35.7635377" lon="8.3441483"><ele>680.4</ele><time>2026-05-01T14:39:10.071Z</time></trkpt><trkpt lat="35.763452" lon="8.3442129"><ele>680.5999999999999</ele><time>2026-05-01T14:39:11.062Z</time></trkpt><trkpt lat="35.7633731" lon="8.3442783"><ele>680.8</ele><time>2026-05-01T14:39:12.055Z</time></trkpt><trkpt lat="35.7632937" lon="8.3443432"><ele>681.0</ele><time>2026-05-01T14:39:13.066Z</time></trkpt><trkpt lat="35.7632127" lon="8.3444077"><ele>682.1999999999999</ele><time>2026-05-01T14:39:14.056Z</time></trkpt><trkpt lat="35.7631316" lon="8.3444686"><ele>683.4</ele><time>2026-05-01T14:39:15.061Z</time></trkpt><trkpt lat="35.7630445" lon="8.3445361"><ele>684.6</ele><time>2026-05-01T14:39:16.058Z</time></trkpt><trkpt lat="35.7629572" lon="8.3446067"><ele>685.8</ele><time>2026-05-01T14:39:17.072Z</time></trkpt><trkpt lat="35.7628689" lon="8.3446775"><ele>687.0</ele><time>2026-05-01T14:39:18.06Z</time></trkpt><trkpt lat="35.7627777" lon="8.3447468"><ele>688.5</ele><time>2026-05-01T14:39:19.056Z</time></trkpt><trkpt lat="35.7626773" lon="8.3448246"><ele>690.0</ele><time>2026-05-01T14:39:20.078Z</time></trkpt><trkpt lat="35.7625845" lon="8.3448981"><ele>691.5</ele><time>2026-05-01T14:39:21.068Z</time></trkpt><trkpt lat="35.7624812" lon="8.3449826"><ele>693.0</ele><time>2026-05-01T14:39:22.067Z</time></trkpt><trkpt lat="35.7623872" lon="8.345065"><ele>693.0</ele><time>2026-05-01T14:39:23.064Z</time></trkpt><trkpt lat="35.7622958" lon="8.3451279"><ele>693.0</ele><time>2026-05-01T14:39:24.072Z</time></trkpt><trkpt lat="35.7622096" lon="8.3451847"><ele>693.0</ele><time>2026-05-01T14:39:25.07Z</time></trkpt><trkpt lat="35.7621256" lon="8.3452324"><ele>693.0</ele><time>2026-05-01T14:39:26.063Z</time></trkpt><trkpt lat="35.76204" lon="8.3452586"><ele>693.0</ele><time>2026-05-01T14:39:27.072Z</time></trkpt><trkpt lat="35.7619482" lon="8.3452656"><ele>694.6666666666666</ele><time>2026-05-01T14:39:28.063Z</time></trkpt><trkpt lat="35.7618649" lon="8.3452587"><ele>696.3333333333334</ele><time>2026-05-01T14:39:29.078Z</time></trkpt><trkpt lat="35.7617833" lon="8.3452383"><ele>698.0</ele><time>2026-05-01T14:39:30.058Z</time></trkpt><trkpt lat="35.7617102" lon="8.3452265"><ele>699.6666666666667</ele><time>2026-05-01T14:39:31.069Z</time></trkpt><trkpt lat="35.7616398" lon="8.3452084"><ele>701.3333333333334</ele><time>2026-05-01T14:39:32.068Z</time></trkpt><trkpt lat="35.7615721" lon="8.3451914"><ele>703.0</ele><time>2026-05-01T14:39:33.059Z</time></trkpt><trkpt lat="35.7614456" lon="8.345166"><ele>703.0</ele><time>2026-05-01T14:39:35.07Z</time></trkpt><trkpt lat="35.7613258" lon="8.3451217"><ele>703.0</ele><time>2026-05-01T14:39:37.062Z</time></trkpt><trkpt lat="35.7612067" lon="8.3450827"><ele>703.0</ele><time>2026-05-01T14:39:39.069Z</time></trkpt><trkpt lat="35.7610937" lon="8.345047"><ele>703.0</ele><time>2026-05-01T14:39:41.066Z</time></trkpt><trkpt lat="35.760977" lon="8.3450524"><ele>704.1428571428571</ele><time>2026-05-01T14:39:43.069Z</time></trkpt><trkpt lat="35.7609155" lon="8.3450826"><ele>705.2857142857143</ele><time>2026-05-01T14:39:44.067Z</time></trkpt><trkpt lat="35.7608601" lon="8.3451274"><ele>706.4285714285714</ele><time>2026-05-01T14:39:45.06Z</time></trkpt><trkpt lat="35.7608098" lon="8.3451858"><ele>707.5714285714286</ele><time>2026-05-01T14:39:46.061Z</time></trkpt><trkpt lat="35.7607617" lon="8.3452444"><ele>708.7142857142857</ele><time>2026-05-01T14:39:47.063Z</time></trkpt><trkpt lat="35.7607076" lon="8.3453116"><ele>709.8571428571429</ele><time>2026-05-01T14:39:48.074Z</time></trkpt><trkpt lat="35.7606524" lon="8.3453837"><ele>711.0</ele><time>2026-05-01T14:39:49.067Z</time></trkpt><trkpt lat="35.7605882" lon="8.345452"><ele>711.0</ele><time>2026-05-01T14:39:50.064Z</time></trkpt><trkpt lat="35.7605156" lon="8.3455209"><ele>711.0</ele><time>2026-05-01T14:39:51.045Z</time></trkpt><trkpt lat="35.7604359" lon="8.3455781"><ele>711.0</ele><time>2026-05-01T14:39:52.065Z</time></trkpt><trkpt lat="35.76036" lon="8.3456391"><ele>711.0</ele><time>2026-05-01T14:39:53.061Z</time></trkpt><trkpt lat="35.7602852" lon="8.3456961"><ele>711.0</ele><time>2026-05-01T14:39:54.066Z</time></trkpt><trkpt lat="35.7602154" lon="8.3457508"><ele>711.0</ele><time>2026-05-01T14:39:55.058Z</time></trkpt><trkpt lat="35.7601503" lon="8.3457995"><ele>713.1428571428571</ele><time>2026-05-01T14:39:56.057Z</time></trkpt><trkpt lat="35.7600893" lon="8.3458486"><ele>715.2857142857142</ele><time>2026-05-01T14:39:57.073Z</time></trkpt><trkpt lat="35.7600248" lon="8.3458985"><ele>717.4285714285713</ele><time>2026-05-01T14:39:58.074Z</time></trkpt><trkpt lat="35.7599668" lon="8.3459512"><ele>719.5714285714286</ele><time>2026-05-01T14:39:59.061Z</time></trkpt><trkpt lat="35.7599097" lon="8.3460057"><ele>721.7142857142857</ele><time>2026-05-01T14:40:00.055Z</time></trkpt><trkpt lat="35.7598632" lon="8.3460585"><ele>723.8571428571428</ele><time>2026-05-01T14:40:01.061Z</time></trkpt><trkpt lat="35.7598174" lon="8.3461141"><ele>726.0</ele><time>2026-05-01T14:40:02.068Z</time></trkpt><trkpt lat="35.7597714" lon="8.3461735"><ele>725.9999999999999</ele><time>2026-05-01T14:40:03.066Z</time></trkpt><trkpt lat="35.759723" lon="8.3462354"><ele>726.0</ele><time>2026-05-01T14:40:04.062Z</time></trkpt><trkpt lat="35.7596791" lon="8.3463047"><ele>726.0</ele><time>2026-05-01T14:40:05.057Z</time></trkpt><trkpt lat="35.7596346" lon="8.3463787"><ele>726.0</ele><time>2026-05-01T14:40:06.073Z</time></trkpt><trkpt lat="35.7595848" lon="8.3464529"><ele>726.0</ele><time>2026-05-01T14:40:07.065Z</time></trkpt><trkpt lat="35.7595395" lon="8.3465247"><ele>725.9999999999999</ele><time>2026-05-01T14:40:08.063Z</time></trkpt><trkpt lat="35.7594944" lon="8.3465947"><ele>726.0</ele><time>2026-05-01T14:40:09.069Z</time></trkpt><trkpt lat="35.759447" lon="8.3466666"><ele>727.0</ele><time>2026-05-01T14:40:10.046Z</time></trkpt><trkpt lat="35.7594005" lon="8.3467381"><ele>728.0</ele><time>2026-05-01T14:40:11.055Z</time></trkpt><trkpt lat="35.7593501" lon="8.3468067"><ele>729.0</ele><time>2026-05-01T14:40:12.07Z</time></trkpt><trkpt lat="35.7592999" lon="8.3468754"><ele>730.0</ele><time>2026-05-01T14:40:13.065Z</time></trkpt><trkpt lat="35.7592498" lon="8.3469473"><ele>731.0</ele><time>2026-05-01T14:40:14.052Z</time></trkpt><trkpt lat="35.7592005" lon="8.3470209"><ele>732.0</ele><time>2026-05-01T14:40:15.064Z</time></trkpt><trkpt lat="35.7591478" lon="8.347093"><ele>732.0</ele><time>2026-05-01T14:40:16.055Z</time></trkpt><trkpt lat="35.7590966" lon="8.3471634"><ele>732.0</ele><time>2026-05-01T14:40:17.064Z</time></trkpt><trkpt lat="35.7590441" lon="8.3472313"><ele>732.0</ele><time>2026-05-01T14:40:18.064Z</time></trkpt><trkpt lat="35.7589932" lon="8.3473012"><ele>732.0</ele><time>2026-05-01T14:40:19.067Z</time></trkpt><trkpt lat="35.758945" lon="8.3473802"><ele>732.0</ele><time>2026-05-01T14:40:20.06Z</time></trkpt><trkpt lat="35.7588958" lon="8.3474561"><ele>732.0</ele><time>2026-05-01T14:40:21.093Z</time></trkpt><trkpt lat="35.758841" lon="8.3475343"><ele>733.5</ele><time>2026-05-01T14:40:22.066Z</time></trkpt><trkpt lat="35.7587874" lon="8.347611"><ele>735.0</ele><time>2026-05-01T14:40:23.06Z</time></trkpt><trkpt lat="35.7587351" lon="8.3476882"><ele>736.5</ele><time>2026-05-01T14:40:24.056Z</time></trkpt><trkpt lat="35.7586843" lon="8.3477578"><ele>738.0</ele><time>2026-05-01T14:40:25.07Z</time></trkpt><trkpt lat="35.7586315" lon="8.3478199"><ele>739.5</ele><time>2026-05-01T14:40:26.049Z</time></trkpt><trkpt lat="35.7585594" lon="8.3479191"><ele>741.0</ele><time>2026-05-01T14:40:28.076Z</time></trkpt><trkpt lat="35.7584963" lon="8.348013"><ele>742.3333333333334</ele><time>2026-05-01T14:40:30.062Z</time></trkpt><trkpt lat="35.7584231" lon="8.3481081"><ele>743.6666666666666</ele><time>2026-05-01T14:40:32.061Z</time></trkpt><trkpt lat="35.7583769" lon="8.3481738"><ele>745.0</ele><time>2026-05-01T14:40:33.061Z</time></trkpt><trkpt lat="35.7583245" lon="8.348234"><ele>746.3333333333333</ele><time>2026-05-01T14:40:34.066Z</time></trkpt><trkpt lat="35.7582648" lon="8.3483018"><ele>747.6666666666666</ele><time>2026-05-01T14:40:35.061Z</time></trkpt><trkpt lat="35.7582067" lon="8.3483766"><ele>749.0</ele><time>2026-05-01T14:40:36.076Z</time></trkpt><trkpt lat="35.7581439" lon="8.3484406"><ele>749.0</ele><time>2026-05-01T14:40:37.071Z</time></trkpt><trkpt lat="35.7580734" lon="8.3485154"><ele>749.0</ele><time>2026-05-01T14:40:38.064Z</time></trkpt><trkpt lat="35.7579959" lon="8.3485821"><ele>749.0</ele><time>2026-05-01T14:40:39.061Z</time></trkpt><trkpt lat="35.7579173" lon="8.3486456"><ele>749.0</ele><time>2026-05-01T14:40:40.065Z</time></trkpt><trkpt lat="35.757834" lon="8.3487069"><ele>749.0</ele><time>2026-05-01T14:40:41.065Z</time></trkpt><trkpt lat="35.7577533" lon="8.3487626"><ele>750.0</ele><time>2026-05-01T14:40:42.074Z</time></trkpt><trkpt lat="35.7576725" lon="8.348815"><ele>751.0</ele><time>2026-05-01T14:40:43.061Z</time></trkpt><trkpt lat="35.7576024" lon="8.3488626"><ele>752.0</ele><time>2026-05-01T14:40:44.06Z</time></trkpt><trkpt lat="35.7575326" lon="8.3489119"><ele>753.0</ele><time>2026-05-01T14:40:45.057Z</time></trkpt><trkpt lat="35.7574651" lon="8.3489628"><ele>754.0</ele><time>2026-05-01T14:40:46.065Z</time></trkpt><trkpt lat="35.7574078" lon="8.3490107"><ele>755.0</ele><time>2026-05-01T14:40:47.083Z</time></trkpt><trkpt lat="35.7573469" lon="8.3490592"><ele>755.7142857142857</ele><time>2026-05-01T14:40:48.065Z</time></trkpt><trkpt lat="35.7572843" lon="8.3491038"><ele>756.4285714285714</ele><time>2026-05-01T14:40:49.056Z</time></trkpt><trkpt lat="35.7572296" lon="8.3491446"><ele>757.1428571428571</ele><time>2026-05-01T14:40:50.066Z</time></trkpt><trkpt lat="35.757174" lon="8.3491902"><ele>757.8571428571429</ele><time>2026-05-01T14:40:51.066Z</time></trkpt><trkpt lat="35.7571177" lon="8.3492365"><ele>758.5714285714287</ele><time>2026-05-01T14:40:52.065Z</time></trkpt><trkpt lat="35.7570597" lon="8.3492815"><ele>759.2857142857143</ele><time>2026-05-01T14:40:53.079Z</time></trkpt><trkpt lat="35.7570035" lon="8.349332"><ele>760.0</ele><time>2026-05-01T14:40:54.057Z</time></trkpt><trkpt lat="35.756942" lon="8.3493838"><ele>760.0</ele><time>2026-05-01T14:40:55.054Z</time></trkpt><trkpt lat="35.756886" lon="8.3494352"><ele>760.0</ele><time>2026-05-01T14:40:56.061Z</time></trkpt><trkpt lat="35.7568342" lon="8.3494799"><ele>760.0</ele><time>2026-05-01T14:40:57.054Z</time></trkpt><trkpt lat="35.7567796" lon="8.3495251"><ele>760.0</ele><time>2026-05-01T14:40:58.071Z</time></trkpt><trkpt lat="35.7567274" lon="8.3495757"><ele>760.0</ele><time>2026-05-01T14:40:59.065Z</time></trkpt><trkpt lat="35.7566715" lon="8.349624"><ele>760.0</ele><time>2026-05-01T14:41:00.068Z</time></trkpt><trkpt lat="35.7566122" lon="8.3496748"><ele>760.0</ele><time>2026-05-01T14:41:01.071Z</time></trkpt><trkpt lat="35.7565479" lon="8.3497282"><ele>761.5</ele><time>2026-05-01T14:41:02.059Z</time></trkpt><trkpt lat="35.7564782" lon="8.3497763"><ele>763.0</ele><time>2026-05-01T14:41:03.058Z</time></trkpt><trkpt lat="35.7564053" lon="8.3498247"><ele>764.5</ele><time>2026-05-01T14:41:04.064Z</time></trkpt><trkpt lat="35.756339" lon="8.3498698"><ele>766.0</ele><time>2026-05-01T14:41:05.068Z</time></trkpt><trkpt lat="35.7562744" lon="8.3499136"><ele>767.4999999999999</ele><time>2026-05-01T14:41:06.072Z</time></trkpt><trkpt lat="35.7562086" lon="8.3499558"><ele>769.0</ele><time>2026-05-01T14:41:07.07Z</time></trkpt><trkpt lat="35.7561434" lon="8.3500011"><ele>768.9999999999999</ele><time>2026-05-01T14:41:08.062Z</time></trkpt><trkpt lat="35.7560806" lon="8.3500508"><ele>769.0</ele><time>2026-05-01T14:41:09.058Z</time></trkpt><trkpt lat="35.756017" lon="8.3501079"><ele>769.0</ele><time>2026-05-01T14:41:10.075Z</time></trkpt><trkpt lat="35.755959" lon="8.3501676"><ele>769.0</ele><time>2026-05-01T14:41:11.063Z</time></trkpt><trkpt lat="35.7559032" lon="8.3502354"><ele>768.9999999999999</ele><time>2026-05-01T14:41:12.055Z</time></trkpt><trkpt lat="35.7558503" lon="8.350308"><ele>769.0</ele><time>2026-05-01T14:41:13.07Z</time></trkpt><trkpt lat="35.7557979" lon="8.3503868"><ele>770.3333333333333</ele><time>2026-05-01T14:41:14.064Z</time></trkpt><trkpt lat="35.7557473" lon="8.3504676"><ele>771.6666666666666</ele><time>2026-05-01T14:41:15.058Z</time></trkpt><trkpt lat="35.7556989" lon="8.350542"><ele>773.0</ele><time>2026-05-01T14:41:16.067Z</time></trkpt><trkpt lat="35.7556456" lon="8.3506193"><ele>774.3333333333333</ele><time>2026-05-01T14:41:17.066Z</time></trkpt><trkpt lat="35.7555952" lon="8.3507024"><ele>775.6666666666666</ele><time>2026-05-01T14:41:18.064Z</time></trkpt><trkpt lat="35.7555381" lon="8.3507939"><ele>777.0</ele><time>2026-05-01T14:41:19.071Z</time></trkpt><trkpt lat="35.7554795" lon="8.3508864"><ele>777.5</ele><time>2026-05-01T14:41:20.07Z</time></trkpt><trkpt lat="35.755423" lon="8.3509779"><ele>778.0</ele><time>2026-05-01T14:41:21.056Z</time></trkpt><trkpt lat="35.7553661" lon="8.3510681"><ele>778.5</ele><time>2026-05-01T14:41:22.067Z</time></trkpt><trkpt lat="35.7553138" lon="8.3511516"><ele>779.0</ele><time>2026-05-01T14:41:23.068Z</time></trkpt><trkpt lat="35.755263" lon="8.3512325"><ele>779.5</ele><time>2026-05-01T14:41:24.063Z</time></trkpt><trkpt lat="35.7552055" lon="8.3513064"><ele>780.0</ele><time>2026-05-01T14:41:25.068Z</time></trkpt><trkpt lat="35.7551516" lon="8.3513885"><ele>781.8</ele><time>2026-05-01T14:41:26.059Z</time></trkpt><trkpt lat="35.7550996" lon="8.3514682"><ele>783.6</ele><time>2026-05-01T14:41:27.059Z</time></trkpt><trkpt lat="35.7550423" lon="8.3515494"><ele>785.4000000000001</ele><time>2026-05-01T14:41:28.066Z</time></trkpt><trkpt lat="35.754982" lon="8.3516371"><ele>787.2</ele><time>2026-05-01T14:41:29.075Z</time></trkpt><trkpt lat="35.7549204" lon="8.3517291"><ele>789.0</ele><time>2026-05-01T14:41:30.056Z</time></trkpt><trkpt lat="35.7548617" lon="8.3518199"><ele>789.0</ele><time>2026-05-01T14:41:31.064Z</time></trkpt><trkpt lat="35.7547994" lon="8.3519084"><ele>789.0</ele><time>2026-05-01T14:41:32.073Z</time></trkpt><trkpt lat="35.7547361" lon="8.3519971"><ele>789.0</ele><time>2026-05-01T14:41:33.065Z</time></trkpt><trkpt lat="35.7546753" lon="8.3520891"><ele>789.0</ele><time>2026-05-01T14:41:34.07Z</time></trkpt><trkpt lat="35.7546138" lon="8.3521818"><ele>789.0</ele><time>2026-05-01T14:41:35.068Z</time></trkpt><trkpt lat="35.7545531" lon="8.3522791"><ele>790.6</ele><time>2026-05-01T14:41:36.071Z</time></trkpt><trkpt lat="35.7544868" lon="8.3523721"><ele>792.2</ele><time>2026-05-01T14:41:37.074Z</time></trkpt><trkpt lat="35.7544234" lon="8.35247"><ele>793.8000000000001</ele><time>2026-05-01T14:41:38.063Z</time></trkpt><trkpt lat="35.7543626" lon="8.3525637"><ele>795.4000000000001</ele><time>2026-05-01T14:41:39.067Z</time></trkpt><trkpt lat="35.7543008" lon="8.3526552"><ele>797.0</ele><time>2026-05-01T14:41:40.058Z</time></trkpt><trkpt lat="35.7542379" lon="8.3527512"><ele>797.8</ele><time>2026-05-01T14:41:41.063Z</time></trkpt><trkpt lat="35.7541832" lon="8.3528481"><ele>798.6</ele><time>2026-05-01T14:41:42.056Z</time></trkpt><trkpt lat="35.7541253" lon="8.3529481"><ele>799.4</ele><time>2026-05-01T14:41:43.072Z</time></trkpt><trkpt lat="35.7540728" lon="8.3530446"><ele>800.1999999999999</ele><time>2026-05-01T14:41:44.063Z</time></trkpt><trkpt lat="35.7540288" lon="8.3531475"><ele>801.0</ele><time>2026-05-01T14:41:45.059Z</time></trkpt><trkpt lat="35.7539759" lon="8.3532504"><ele>802.4</ele><time>2026-05-01T14:41:46.061Z</time></trkpt><trkpt lat="35.7539268" lon="8.3533585"><ele>803.8</ele><time>2026-05-01T14:41:47.056Z</time></trkpt><trkpt lat="35.7538751" lon="8.3534671"><ele>805.1999999999999</ele><time>2026-05-01T14:41:48.062Z</time></trkpt><trkpt lat="35.7538217" lon="8.3535725"><ele>806.5999999999999</ele><time>2026-05-01T14:41:49.065Z</time></trkpt><trkpt lat="35.7537704" lon="8.3536769"><ele>808.0</ele><time>2026-05-01T14:41:50.074Z</time></trkpt><trkpt lat="35.7537207" lon="8.3537861"><ele>809.2</ele><time>2026-05-01T14:41:51.063Z</time></trkpt><trkpt lat="35.7536712" lon="8.3538953"><ele>810.4</ele><time>2026-05-01T14:41:52.073Z</time></trkpt><trkpt lat="35.7536212" lon="8.3540132"><ele>811.6</ele><time>2026-05-01T14:41:53.057Z</time></trkpt><trkpt lat="35.7535642" lon="8.3541366"><ele>812.8000000000001</ele><time>2026-05-01T14:41:54.053Z</time></trkpt><trkpt lat="35.7534992" lon="8.3542561"><ele>814.0</ele><time>2026-05-01T14:41:55.073Z</time></trkpt><trkpt lat="35.7534326" lon="8.3543778"><ele>814.6</ele><time>2026-05-01T14:41:56.054Z</time></trkpt><trkpt lat="35.7533741" lon="8.3544876"><ele>815.2</ele><time>2026-05-01T14:41:57.074Z</time></trkpt><trkpt lat="35.7533112" lon="8.3545979"><ele>815.8000000000001</ele><time>2026-05-01T14:41:58.073Z</time></trkpt><trkpt lat="35.7532488" lon="8.3547066"><ele>816.4000000000001</ele><time>2026-05-01T14:41:59.081Z</time></trkpt><trkpt lat="35.753186" lon="8.3548199"><ele>817.0</ele><time>2026-05-01T14:42:00.058Z</time></trkpt><trkpt lat="35.7531217" lon="8.3549258"><ele>817.8</ele><time>2026-05-01T14:42:01.068Z</time></trkpt><trkpt lat="35.7530539" lon="8.35503"><ele>818.6</ele><time>2026-05-01T14:42:02.052Z</time></trkpt><trkpt lat="35.7529903" lon="8.3551336"><ele>819.4</ele><time>2026-05-01T14:42:03.073Z</time></trkpt><trkpt lat="35.7529194" lon="8.3552355"><ele>820.1999999999999</ele><time>2026-05-01T14:42:04.068Z</time></trkpt><trkpt lat="35.7528489" lon="8.3553413"><ele>821.0</ele><time>2026-05-01T14:42:05.053Z</time></trkpt><trkpt lat="35.752774" lon="8.3554483"><ele>823.0</ele><time>2026-05-01T14:42:06.057Z</time></trkpt><trkpt lat="35.752699" lon="8.3555475"><ele>825.0</ele><time>2026-05-01T14:42:07.061Z</time></trkpt><trkpt lat="35.7526208" lon="8.3556498"><ele>827.0</ele><time>2026-05-01T14:42:08.068Z</time></trkpt><trkpt lat="35.7525445" lon="8.355748"><ele>829.0</ele><time>2026-05-01T14:42:09.062Z</time></trkpt><trkpt lat="35.7524719" lon="8.3558453"><ele>831.0</ele><time>2026-05-01T14:42:10.059Z</time></trkpt><trkpt lat="35.7524013" lon="8.3559459"><ele>831.0</ele><time>2026-05-01T14:42:11.06Z</time></trkpt><trkpt lat="35.7523285" lon="8.3560433"><ele>831.0</ele><time>2026-05-01T14:42:12.067Z</time></trkpt><trkpt lat="35.752258" lon="8.356139"><ele>831.0</ele><time>2026-05-01T14:42:13.059Z</time></trkpt><trkpt lat="35.7521881" lon="8.3562423"><ele>831.0</ele><time>2026-05-01T14:42:14.069Z</time></trkpt><trkpt lat="35.7521152" lon="8.3563455"><ele>831.0</ele><time>2026-05-01T14:42:15.073Z</time></trkpt><trkpt lat="35.7520487" lon="8.3564493"><ele>832.4</ele><time>2026-05-01T14:42:16.058Z</time></trkpt><trkpt lat="35.7519831" lon="8.356552"><ele>833.8</ele><time>2026-05-01T14:42:17.059Z</time></trkpt><trkpt lat="35.7519144" lon="8.3566556"><ele>835.1999999999999</ele><time>2026-05-01T14:42:18.078Z</time></trkpt><trkpt lat="35.7518532" lon="8.3567554"><ele>836.5999999999999</ele><time>2026-05-01T14:42:19.071Z</time></trkpt><trkpt lat="35.7517942" lon="8.3568576"><ele>838.0</ele><time>2026-05-01T14:42:20.078Z</time></trkpt><trkpt lat="35.7517379" lon="8.3569588"><ele>838.8</ele><time>2026-05-01T14:42:21.054Z</time></trkpt><trkpt lat="35.7516775" lon="8.3570606"><ele>839.5999999999999</ele><time>2026-05-01T14:42:22.072Z</time></trkpt><trkpt lat="35.7516161" lon="8.357168"><ele>840.4000000000001</ele><time>2026-05-01T14:42:23.059Z</time></trkpt><trkpt lat="35.7515567" lon="8.3572795"><ele>841.2</ele><time>2026-05-01T14:42:24.047Z</time></trkpt><trkpt lat="35.7515" lon="8.3573952"><ele>842.0</ele><time>2026-05-01T14:42:25.058Z</time></trkpt><trkpt lat="35.7514462" lon="8.357506"><ele>843.8</ele><time>2026-05-01T14:42:26.067Z</time></trkpt><trkpt lat="35.7513969" lon="8.3576219"><ele>845.6</ele><time>2026-05-01T14:42:27.09Z</time></trkpt><trkpt lat="35.7513501" lon="8.3577342"><ele>847.4</ele><time>2026-05-01T14:42:28.079Z</time></trkpt><trkpt lat="35.751302" lon="8.3578479"><ele>849.1999999999999</ele><time>2026-05-01T14:42:29.072Z</time></trkpt><trkpt lat="35.7512572" lon="8.3579625"><ele>851.0</ele><time>2026-05-01T14:42:30.053Z</time></trkpt><trkpt lat="35.7512188" lon="8.3580751"><ele>852.0</ele><time>2026-05-01T14:42:31.069Z</time></trkpt><trkpt lat="35.7511848" lon="8.3581893"><ele>853.0</ele><time>2026-05-01T14:42:32.052Z</time></trkpt><trkpt lat="35.7511483" lon="8.3583055"><ele>853.9999999999999</ele><time>2026-05-01T14:42:33.062Z</time></trkpt><trkpt lat="35.7511116" lon="8.3584214"><ele>855.0</ele><time>2026-05-01T14:42:34.06Z</time></trkpt><trkpt lat="35.7510741" lon="8.3585344"><ele>856.0</ele><time>2026-05-01T14:42:35.086Z</time></trkpt><trkpt lat="35.7510388" lon="8.3586523"><ele>856.5999999999999</ele><time>2026-05-01T14:42:36.059Z</time></trkpt><trkpt lat="35.7510024" lon="8.3587728"><ele>857.1999999999999</ele><time>2026-05-01T14:42:37.066Z</time></trkpt><trkpt lat="35.7509641" lon="8.358898"><ele>857.8000000000001</ele><time>2026-05-01T14:42:38.066Z</time></trkpt><trkpt lat="35.7509193" lon="8.3590245"><ele>858.4000000000001</ele><time>2026-05-01T14:42:39.058Z</time></trkpt><trkpt lat="35.7508716" lon="8.3591491"><ele>859.0</ele><time>2026-05-01T14:42:40.065Z</time></trkpt><trkpt lat="35.7508162" lon="8.3592805"><ele>860.5</ele><time>2026-05-01T14:42:41.066Z</time></trkpt><trkpt lat="35.7507566" lon="8.3594084"><ele>862.0</ele><time>2026-05-01T14:42:42.051Z</time></trkpt><trkpt lat="35.7506879" lon="8.3595318"><ele>863.5</ele><time>2026-05-01T14:42:43.056Z</time></trkpt><trkpt lat="35.7506114" lon="8.3596511"><ele>865.0</ele><time>2026-05-01T14:42:44.042Z</time></trkpt><trkpt lat="35.7505376" lon="8.3597631"><ele>866.0</ele><time>2026-05-01T14:42:45.06Z</time></trkpt><trkpt lat="35.7504625" lon="8.3598755"><ele>867.0</ele><time>2026-05-01T14:42:46.053Z</time></trkpt><trkpt lat="35.7503827" lon="8.3599808"><ele>868.0</ele><time>2026-05-01T14:42:47.077Z</time></trkpt><trkpt lat="35.7502946" lon="8.3600831"><ele>869.0</ele><time>2026-05-01T14:42:48.073Z</time></trkpt><trkpt lat="35.750201" lon="8.3601749"><ele>869.75</ele><time>2026-05-01T14:42:49.055Z</time></trkpt><trkpt lat="35.7500938" lon="8.3602594"><ele>870.5</ele><time>2026-05-01T14:42:50.046Z</time></trkpt><trkpt lat="35.7499909" lon="8.3603294"><ele>871.25</ele><time>2026-05-01T14:42:51.063Z</time></trkpt><trkpt lat="35.7498794" lon="8.3603848"><ele>872.0</ele><time>2026-05-01T14:42:52.072Z</time></trkpt><trkpt lat="35.7497643" lon="8.3604359"><ele>872.0</ele><time>2026-05-01T14:42:53.051Z</time></trkpt><trkpt lat="35.7496531" lon="8.3604882"><ele>872.0</ele><time>2026-05-01T14:42:54.063Z</time></trkpt><trkpt lat="35.7495463" lon="8.3605408"><ele>872.0</ele><time>2026-05-01T14:42:55.059Z</time></trkpt><trkpt lat="35.7494358" lon="8.3606006"><ele>872.0</ele><time>2026-05-01T14:42:56.062Z</time></trkpt><trkpt lat="35.7493273" lon="8.3606597"><ele>875.25</ele><time>2026-05-01T14:42:57.059Z</time></trkpt><trkpt lat="35.7492214" lon="8.3607229"><ele>878.5</ele><time>2026-05-01T14:42:58.061Z</time></trkpt><trkpt lat="35.7491119" lon="8.36079"><ele>881.75</ele><time>2026-05-01T14:42:59.046Z</time></trkpt><trkpt lat="35.749003" lon="8.3608517"><ele>885.0</ele><time>2026-05-01T14:43:00.092Z</time></trkpt><trkpt lat="35.7488959" lon="8.3609155"><ele>885.0</ele><time>2026-05-01T14:43:01.051Z</time></trkpt><trkpt lat="35.7487944" lon="8.3609731"><ele>885.0</ele><time>2026-05-01T14:43:02.055Z</time></trkpt><trkpt lat="35.7487006" lon="8.3610374"><ele>885.0</ele><time>2026-05-01T14:43:03.058Z</time></trkpt><trkpt lat="35.7486072" lon="8.3610979"><ele>885.0</ele><time>2026-05-01T14:43:04.064Z</time></trkpt><trkpt lat="35.7485187" lon="8.3611713"><ele>885.0</ele><time>2026-05-01T14:43:05.068Z</time></trkpt><trkpt lat="35.7484288" lon="8.3612452"><ele>885.8</ele><time>2026-05-01T14:43:06.046Z</time></trkpt><trkpt lat="35.7483418" lon="8.3613284"><ele>886.6</ele><time>2026-05-01T14:43:07.055Z</time></trkpt><trkpt lat="35.7482689" lon="8.361418"><ele>887.4000000000001</ele><time>2026-05-01T14:43:08.069Z</time></trkpt><trkpt lat="35.7481965" lon="8.3615081"><ele>888.2</ele><time>2026-05-01T14:43:09.072Z</time></trkpt><trkpt lat="35.748137" lon="8.3615978"><ele>889.0</ele><time>2026-05-01T14:43:10.064Z</time></trkpt><trkpt lat="35.7480829" lon="8.3616886"><ele>889.4999999999999</ele><time>2026-05-01T14:43:11.063Z</time></trkpt><trkpt lat="35.7480297" lon="8.3617846"><ele>890.0</ele><time>2026-05-01T14:43:12.052Z</time></trkpt><trkpt lat="35.7479809" lon="8.3618754"><ele>890.5</ele><time>2026-05-01T14:43:13.067Z</time></trkpt><trkpt lat="35.7479302" lon="8.3619671"><ele>891.0</ele><time>2026-05-01T14:43:14.066Z</time></trkpt><trkpt lat="35.747877" lon="8.3620529"><ele>891.4999999999999</ele><time>2026-05-01T14:43:15.054Z</time></trkpt><trkpt lat="35.7478216" lon="8.362135"><ele>892.0</ele><time>2026-05-01T14:43:16.07Z</time></trkpt><trkpt lat="35.7477591" lon="8.3622188"><ele>894.6</ele><time>2026-05-01T14:43:17.046Z</time></trkpt><trkpt lat="35.7476932" lon="8.3623028"><ele>897.2</ele><time>2026-05-01T14:43:18.067Z</time></trkpt><trkpt lat="35.7476241" lon="8.3623877"><ele>899.8</ele><time>2026-05-01T14:43:19.07Z</time></trkpt><trkpt lat="35.7475571" lon="8.3624634"><ele>902.4</ele><time>2026-05-01T14:43:20.057Z</time></trkpt><trkpt lat="35.7474806" lon="8.3625281"><ele>905.0</ele><time>2026-05-01T14:43:21.062Z</time></trkpt><trkpt lat="35.7474007" lon="8.3625819"><ele>905.0</ele><time>2026-05-01T14:43:22.079Z</time></trkpt><trkpt lat="35.747313" lon="8.362636"><ele>905.0</ele><time>2026-05-01T14:43:23.051Z</time></trkpt><trkpt lat="35.7472235" lon="8.3626912"><ele>905.0</ele><time>2026-05-01T14:43:24.075Z</time></trkpt><trkpt lat="35.7471346" lon="8.3627446"><ele>905.0</ele><time>2026-05-01T14:43:25.058Z</time></trkpt><trkpt lat="35.7470445" lon="8.3627861"><ele>905.0</ele><time>2026-05-01T14:43:26.063Z</time></trkpt><trkpt lat="35.7469528" lon="8.3628163"><ele>906.6</ele><time>2026-05-01T14:43:27.069Z</time></trkpt><trkpt lat="35.746851" lon="8.3628352"><ele>908.2</ele><time>2026-05-01T14:43:28.063Z</time></trkpt><trkpt lat="35.7467453" lon="8.3628505"><ele>909.8</ele><time>2026-05-01T14:43:29.064Z</time></trkpt><trkpt lat="35.7466452" lon="8.3628627"><ele>911.4</ele><time>2026-05-01T14:43:30.075Z</time></trkpt><trkpt lat="35.7465415" lon="8.3628745"><ele>913.0</ele><time>2026-05-01T14:43:31.056Z</time></trkpt><trkpt lat="35.7464367" lon="8.3628932"><ele>913.0</ele><time>2026-05-01T14:43:32.078Z</time></trkpt><trkpt lat="35.7463376" lon="8.3629178"><ele>913.0</ele><time>2026-05-01T14:43:33.051Z</time></trkpt><trkpt lat="35.746235" lon="8.3629397"><ele>913.0</ele><time>2026-05-01T14:43:34.07Z</time></trkpt><trkpt lat="35.7461313" lon="8.3629562"><ele>913.0</ele><time>2026-05-01T14:43:35.051Z</time></trkpt><trkpt lat="35.7460349" lon="8.3629615"><ele>913.0</ele><time>2026-05-01T14:43:36.056Z</time></trkpt><trkpt lat="35.7459381" lon="8.3629483"><ele>914.5999999999999</ele><time>2026-05-01T14:43:37.065Z</time></trkpt><trkpt lat="35.7458487" lon="8.3629274"><ele>916.1999999999999</ele><time>2026-05-01T14:43:38.064Z</time></trkpt><trkpt lat="35.7457627" lon="8.3628919"><ele>917.8</ele><time>2026-05-01T14:43:39.047Z</time></trkpt><trkpt lat="35.7456761" lon="8.3628432"><ele>919.4</ele><time>2026-05-01T14:43:40.028Z</time></trkpt><trkpt lat="35.7455968" lon="8.362787"><ele>921.0</ele><time>2026-05-01T14:43:41.04Z</time></trkpt><trkpt lat="35.7455123" lon="8.3627143"><ele>921.0</ele><time>2026-05-01T14:43:42.087Z</time></trkpt><trkpt lat="35.7454325" lon="8.3626386"><ele>921.0</ele><time>2026-05-01T14:43:43.03Z</time></trkpt><trkpt lat="35.7453501" lon="8.3625758"><ele>921.0</ele><time>2026-05-01T14:43:44.044Z</time></trkpt><trkpt lat="35.7452759" lon="8.3625149"><ele>921.0</ele><time>2026-05-01T14:43:45.035Z</time></trkpt><trkpt lat="35.7452099" lon="8.3624637"><ele>921.0</ele><time>2026-05-01T14:43:46.061Z</time></trkpt><trkpt lat="35.745153" lon="8.3624292"><ele>921.0</ele><time>2026-05-01T14:43:47.064Z</time></trkpt><trkpt lat="35.7450368" lon="8.3624264"><ele>922.5999999999999</ele><time>2026-05-01T14:43:49.067Z</time></trkpt><trkpt lat="35.7449456" lon="8.3625188"><ele>924.1999999999999</ele><time>2026-05-01T14:43:51.056Z</time></trkpt><trkpt lat="35.7449246" lon="8.362655"><ele>925.8000000000001</ele><time>2026-05-01T14:43:53.076Z</time></trkpt><trkpt lat="35.7449482" lon="8.3628109"><ele>927.4000000000001</ele><time>2026-05-01T14:43:55.057Z</time></trkpt><trkpt lat="35.7449608" lon="8.3629063"><ele>929.0</ele><time>2026-05-01T14:43:56.065Z</time></trkpt><trkpt lat="35.7449697" lon="8.3630083"><ele>930.0000000000001</ele><time>2026-05-01T14:43:57.069Z</time></trkpt><trkpt lat="35.7449751" lon="8.363114"><ele>931.0</ele><time>2026-05-01T14:43:58.055Z</time></trkpt><trkpt lat="35.7449742" lon="8.3632223"><ele>932.0</ele><time>2026-05-01T14:43:59.078Z</time></trkpt><trkpt lat="35.7449694" lon="8.3633241"><ele>933.0</ele><time>2026-05-01T14:44:00.077Z</time></trkpt><trkpt lat="35.7449567" lon="8.3634268"><ele>934.0000000000001</ele><time>2026-05-01T14:44:01.048Z</time></trkpt><trkpt lat="35.7449384" lon="8.3635339"><ele>935.0</ele><time>2026-05-01T14:44:02.045Z</time></trkpt><trkpt lat="35.7449135" lon="8.3636368"><ele>935.0000000000001</ele><time>2026-05-01T14:44:03.055Z</time></trkpt><trkpt lat="35.7448859" lon="8.3637362"><ele>935.0</ele><time>2026-05-01T14:44:04.05Z</time></trkpt><trkpt lat="35.7448624" lon="8.3638346"><ele>935.0</ele><time>2026-05-01T14:44:05.072Z</time></trkpt><trkpt lat="35.7448367" lon="8.3639363"><ele>935.0</ele><time>2026-05-01T14:44:06.059Z</time></trkpt><trkpt lat="35.744811" lon="8.3640322"><ele>935.0000000000001</ele><time>2026-05-01T14:44:07.063Z</time></trkpt><trkpt lat="35.7447864" lon="8.3641285"><ele>935.0</ele><time>2026-05-01T14:44:08.048Z</time></trkpt><trkpt lat="35.7447596" lon="8.3642279"><ele>935.0000000000001</ele><time>2026-05-01T14:44:09.067Z</time></trkpt><trkpt lat="35.7447343" lon="8.3643241"><ele>935.0</ele><time>2026-05-01T14:44:10.052Z</time></trkpt><trkpt lat="35.7447148" lon="8.3644196"><ele>935.0</ele><time>2026-05-01T14:44:11.063Z</time></trkpt><trkpt lat="35.7446945" lon="8.3645139"><ele>935.0</ele><time>2026-05-01T14:44:12.047Z</time></trkpt><trkpt lat="35.7446759" lon="8.3646111"><ele>935.0000000000001</ele><time>2026-05-01T14:44:13.056Z</time></trkpt><trkpt lat="35.7446698" lon="8.3647075"><ele>935.0</ele><time>2026-05-01T14:44:14.062Z</time></trkpt><trkpt lat="35.7446728" lon="8.3648053"><ele>936.5000000000001</ele><time>2026-05-01T14:44:15.069Z</time></trkpt><trkpt lat="35.7446757" lon="8.3649059"><ele>938.0</ele><time>2026-05-01T14:44:16.054Z</time></trkpt><trkpt lat="35.7446855" lon="8.3649988"><ele>939.5</ele><time>2026-05-01T14:44:17.058Z</time></trkpt><trkpt lat="35.7446984" lon="8.3650901"><ele>941.0</ele><time>2026-05-01T14:44:18.054Z</time></trkpt><trkpt lat="35.7447112" lon="8.365182"><ele>942.5000000000001</ele><time>2026-05-01T14:44:19.08Z</time></trkpt><trkpt lat="35.7447262" lon="8.365271"><ele>944.0</ele><time>2026-05-01T14:44:20.076Z</time></trkpt><trkpt lat="35.7447431" lon="8.3653638"><ele>944.0000000000001</ele><time>2026-05-01T14:44:21.053Z</time></trkpt><trkpt lat="35.7447615" lon="8.3654512"><ele>944.0</ele><time>2026-05-01T14:44:22.062Z</time></trkpt><trkpt lat="35.7447881" lon="8.3655378"><ele>944.0</ele><time>2026-05-01T14:44:23.044Z</time></trkpt><trkpt lat="35.7448365" lon="8.3656148"><ele>944.0</ele><time>2026-05-01T14:44:24.056Z</time></trkpt><trkpt lat="35.7448908" lon="8.3656911"><ele>944.0000000000001</ele><time>2026-05-01T14:44:25.06Z</time></trkpt><trkpt lat="35.7449596" lon="8.3657669"><ele>944.0</ele><time>2026-05-01T14:44:26.058Z</time></trkpt><trkpt lat="35.74503" lon="8.3658374"><ele>944.1666666666667</ele><time>2026-05-01T14:44:27.054Z</time></trkpt><trkpt lat="35.7450973" lon="8.3659049"><ele>944.3333333333334</ele><time>2026-05-01T14:44:28.061Z</time></trkpt><trkpt lat="35.7451675" lon="8.3659735"><ele>944.5</ele><time>2026-05-01T14:44:29.07Z</time></trkpt><trkpt lat="35.7452344" lon="8.366045"><ele>944.6666666666667</ele><time>2026-05-01T14:44:30.072Z</time></trkpt><trkpt lat="35.7452897" lon="8.3661299"><ele>944.8333333333334</ele><time>2026-05-01T14:44:31.056Z</time></trkpt><trkpt lat="35.7453232" lon="8.3662249"><ele>945.0</ele><time>2026-05-01T14:44:32.068Z</time></trkpt><trkpt lat="35.7453543" lon="8.3663209"><ele>946.3333333333334</ele><time>2026-05-01T14:44:33.067Z</time></trkpt><trkpt lat="35.7453831" lon="8.3664209"><ele>947.6666666666667</ele><time>2026-05-01T14:44:34.062Z</time></trkpt><trkpt lat="35.7454136" lon="8.3665158"><ele>949.0</ele><time>2026-05-01T14:44:35.067Z</time></trkpt><trkpt lat="35.7454461" lon="8.366611"><ele>950.3333333333334</ele><time>2026-05-01T14:44:36.067Z</time></trkpt><trkpt lat="35.7454769" lon="8.3667055"><ele>951.6666666666667</ele><time>2026-05-01T14:44:37.062Z</time></trkpt><trkpt lat="35.7455104" lon="8.3667951"><ele>953.0</ele><time>2026-05-01T14:44:38.071Z</time></trkpt><trkpt lat="35.7455477" lon="8.3668724"><ele>953.0000000000001</ele><time>2026-05-01T14:44:39.057Z</time></trkpt><trkpt lat="35.7456013" lon="8.3669337"><ele>953.0</ele><time>2026-05-01T14:44:40.058Z</time></trkpt><trkpt lat="35.7456578" lon="8.3669951"><ele>953.0</ele><time>2026-05-01T14:44:41.061Z</time></trkpt><trkpt lat="35.7457276" lon="8.3670353"><ele>953.0</ele><time>2026-05-01T14:44:42.06Z</time></trkpt><trkpt lat="35.7458053" lon="8.3670615"><ele>953.0000000000001</ele><time>2026-05-01T14:44:43.058Z</time></trkpt><trkpt lat="35.7458894" lon="8.3670786"><ele>953.0</ele><time>2026-05-01T14:44:44.061Z</time></trkpt><trkpt lat="35.7459831" lon="8.3670837"><ele>953.2</ele><time>2026-05-01T14:44:45.05Z</time></trkpt><trkpt lat="35.7460783" lon="8.3670675"><ele>953.4</ele><time>2026-05-01T14:44:46.056Z</time></trkpt><trkpt lat="35.7461734" lon="8.3670508"><ele>953.6000000000001</ele><time>2026-05-01T14:44:47.066Z</time></trkpt><trkpt lat="35.7462768" lon="8.3670295"><ele>953.8000000000001</ele><time>2026-05-01T14:44:48.056Z</time></trkpt><trkpt lat="35.746383" lon="8.3670088"><ele>954.0</ele><time>2026-05-01T14:44:49.05Z</time></trkpt><trkpt lat="35.7465167" lon="8.3669889"><ele>954.0</ele><time>2026-05-01T14:44:50.063Z</time></trkpt><trkpt lat="35.7466498" lon="8.3669659"><ele>954.0</ele><time>2026-05-01T14:44:51.04Z</time></trkpt><trkpt lat="35.7467768" lon="8.366949"><ele>954.0</ele><time>2026-05-01T14:44:52.051Z</time></trkpt><trkpt lat="35.7468952" lon="8.3669354"><ele>954.0</ele><time>2026-05-01T14:44:53.048Z</time></trkpt><trkpt lat="35.7470141" lon="8.3669131"><ele>954.25</ele><time>2026-05-01T14:44:54.054Z</time></trkpt><trkpt lat="35.7471344" lon="8.3668872"><ele>954.5</ele><time>2026-05-01T14:44:55.049Z</time></trkpt><trkpt lat="35.7472557" lon="8.3668665"><ele>954.75</ele><time>2026-05-01T14:44:56.047Z</time></trkpt><trkpt lat="35.7473769" lon="8.3668384"><ele>955.0</ele><time>2026-05-01T14:44:57.063Z</time></trkpt><trkpt lat="35.7474937" lon="8.3668163"><ele>955.0</ele><time>2026-05-01T14:44:58.074Z</time></trkpt><trkpt lat="35.7476069" lon="8.3667966"><ele>955.0</ele><time>2026-05-01T14:44:59.051Z</time></trkpt><trkpt lat="35.7477096" lon="8.3667764"><ele>955.0</ele><time>2026-05-01T14:45:00.067Z</time></trkpt><trkpt lat="35.7478137" lon="8.3667633"><ele>955.0</ele><time>2026-05-01T14:45:01.054Z</time></trkpt><trkpt lat="35.7479183" lon="8.3667546"><ele>955.0</ele><time>2026-05-01T14:45:02.061Z</time></trkpt><trkpt lat="35.7480163" lon="8.3667441"><ele>955.1666666666666</ele><time>2026-05-01T14:45:03.06Z</time></trkpt><trkpt lat="35.7481055" lon="8.3667386"><ele>955.3333333333333</ele><time>2026-05-01T14:45:04.062Z</time></trkpt><trkpt lat="35.7481863" lon="8.3667295"><ele>955.5</ele><time>2026-05-01T14:45:05.067Z</time></trkpt><trkpt lat="35.748265" lon="8.3667367"><ele>955.6666666666667</ele><time>2026-05-01T14:45:06.064Z</time></trkpt><trkpt lat="35.7483305" lon="8.366763"><ele>955.8333333333334</ele><time>2026-05-01T14:45:07.06Z</time></trkpt><trkpt lat="35.7483921" lon="8.3667985"><ele>956.0</ele><time>2026-05-01T14:45:08.047Z</time></trkpt><trkpt lat="35.748454" lon="8.3668451"><ele>956.0000000000001</ele><time>2026-05-01T14:45:09.076Z</time></trkpt><trkpt lat="35.7485083" lon="8.3668989"><ele>956.0</ele><time>2026-05-01T14:45:10.069Z</time></trkpt><trkpt lat="35.7485752" lon="8.3669623"><ele>956.0</ele><time>2026-05-01T14:45:11.058Z</time></trkpt><trkpt lat="35.7486439" lon="8.3670193"><ele>956.0</ele><time>2026-05-01T14:45:12.058Z</time></trkpt><trkpt lat="35.748712" lon="8.3670795"><ele>956.0000000000001</ele><time>2026-05-01T14:45:13.058Z</time></trkpt><trkpt lat="35.7487735" lon="8.36714"><ele>956.0</ele><time>2026-05-01T14:45:14.062Z</time></trkpt><trkpt lat="35.748844" lon="8.3672068"><ele>956.5000000000001</ele><time>2026-05-01T14:45:15.076Z</time></trkpt><trkpt lat="35.7489181" lon="8.3672741"><ele>957.0</ele><time>2026-05-01T14:45:16.051Z</time></trkpt><trkpt lat="35.7489863" lon="8.3673476"><ele>957.5</ele><time>2026-05-01T14:45:17.061Z</time></trkpt><trkpt lat="35.7490578" lon="8.3674114"><ele>958.0</ele><time>2026-05-01T14:45:18.055Z</time></trkpt><trkpt lat="35.7491256" lon="8.3674786"><ele>958.5000000000001</ele><time>2026-05-01T14:45:19.05Z</time></trkpt><trkpt lat="35.7491938" lon="8.3675469"><ele>959.0</ele><time>2026-05-01T14:45:20.063Z</time></trkpt><trkpt lat="35.7492615" lon="8.3676145"><ele>959.0000000000001</ele><time>2026-05-01T14:45:21.058Z</time></trkpt><trkpt lat="35.7493247" lon="8.3676844"><ele>959.0</ele><time>2026-05-01T14:45:22.069Z</time></trkpt><trkpt lat="35.7493848" lon="8.3677481"><ele>959.0</ele><time>2026-05-01T14:45:23.061Z</time></trkpt><trkpt lat="35.7494412" lon="8.3678101"><ele>959.0</ele><time>2026-05-01T14:45:24.075Z</time></trkpt><trkpt lat="35.7494959" lon="8.3678868"><ele>959.0000000000001</ele><time>2026-05-01T14:45:25.045Z</time></trkpt><trkpt lat="35.7495453" lon="8.3679698"><ele>959.0</ele><time>2026-05-01T14:45:26.059Z</time></trkpt><trkpt lat="35.749593" lon="8.3680504"><ele>958.5000000000001</ele><time>2026-05-01T14:45:27.042Z</time></trkpt><trkpt lat="35.7496501" lon="8.3681358"><ele>958.0</ele><time>2026-05-01T14:45:28.059Z</time></trkpt><trkpt lat="35.749701" lon="8.3682257"><ele>957.5</ele><time>2026-05-01T14:45:29.063Z</time></trkpt><trkpt lat="35.7497554" lon="8.368316"><ele>957.0</ele><time>2026-05-01T14:45:30.074Z</time></trkpt><trkpt lat="35.7498063" lon="8.3684014"><ele>956.5000000000001</ele><time>2026-05-01T14:45:31.054Z</time></trkpt><trkpt lat="35.7498635" lon="8.3684908"><ele>956.0</ele><time>2026-05-01T14:45:32.074Z</time></trkpt><trkpt lat="35.7499226" lon="8.3685777"><ele>956.0000000000001</ele><time>2026-05-01T14:45:33.043Z</time></trkpt><trkpt lat="35.7499836" lon="8.3686593"><ele>956.0</ele><time>2026-05-01T14:45:34.039Z</time></trkpt><trkpt lat="35.7500403" lon="8.3687438"><ele>956.0</ele><time>2026-05-01T14:45:35.04Z</time></trkpt><trkpt lat="35.7501013" lon="8.3688261"><ele>956.0</ele><time>2026-05-01T14:45:36.05Z</time></trkpt><trkpt lat="35.7501617" lon="8.3689002"><ele>956.0000000000001</ele><time>2026-05-01T14:45:37.059Z</time></trkpt><trkpt lat="35.7502197" lon="8.3689838"><ele>956.0</ele><time>2026-05-01T14:45:38.054Z</time></trkpt><trkpt lat="35.750281" lon="8.369067"><ele>955.8333333333334</ele><time>2026-05-01T14:45:39.055Z</time></trkpt><trkpt lat="35.7503337" lon="8.3691567"><ele>955.6666666666667</ele><time>2026-05-01T14:45:40.056Z</time></trkpt><trkpt lat="35.7503785" lon="8.3692409"><ele>955.5</ele><time>2026-05-01T14:45:41.058Z</time></trkpt><trkpt lat="35.7504174" lon="8.3693251"><ele>955.3333333333333</ele><time>2026-05-01T14:45:42.049Z</time></trkpt><trkpt lat="35.7504409" lon="8.3694104"><ele>955.1666666666666</ele><time>2026-05-01T14:45:43.065Z</time></trkpt><trkpt lat="35.7504559" lon="8.3695539"><ele>955.0</ele><time>2026-05-01T14:45:45.06Z</time></trkpt><trkpt lat="35.7504138" lon="8.3696675"><ele>955.0</ele><time>2026-05-01T14:45:47.046Z</time></trkpt><trkpt lat="35.7503146" lon="8.3697064"><ele>955.0</ele><time>2026-05-01T14:45:49.066Z</time></trkpt><trkpt lat="35.7502096" lon="8.3696586"><ele>955.0</ele><time>2026-05-01T14:45:51.057Z</time></trkpt><trkpt lat="35.7501352" lon="8.3696112"><ele>955.0</ele><time>2026-05-01T14:45:52.072Z</time></trkpt><trkpt lat="35.7500446" lon="8.3695514"><ele>955.0</ele><time>2026-05-01T14:45:53.053Z</time></trkpt><trkpt lat="35.7499588" lon="8.3694927"><ele>957.0</ele><time>2026-05-01T14:45:54.07Z</time></trkpt><trkpt lat="35.7498703" lon="8.3694343"><ele>959.0</ele><time>2026-05-01T14:45:55.058Z</time></trkpt><trkpt lat="35.7497915" lon="8.3693716"><ele>961.0</ele><time>2026-05-01T14:45:56.061Z</time></trkpt><trkpt lat="35.7497106" lon="8.3693077"><ele>963.0</ele><time>2026-05-01T14:45:57.051Z</time></trkpt><trkpt lat="35.7496358" lon="8.3692374"><ele>965.0</ele><time>2026-05-01T14:45:58.056Z</time></trkpt><trkpt lat="35.7495621" lon="8.3691598"><ele>965.0</ele><time>2026-05-01T14:45:59.044Z</time></trkpt><trkpt lat="35.7494874" lon="8.3690714"><ele>965.0</ele><time>2026-05-01T14:46:00.058Z</time></trkpt><trkpt lat="35.7494186" lon="8.3689898"><ele>965.0</ele><time>2026-05-01T14:46:01.048Z</time></trkpt><trkpt lat="35.7493435" lon="8.3689007"><ele>965.0</ele><time>2026-05-01T14:46:02.078Z</time></trkpt><trkpt lat="35.7492752" lon="8.3688148"><ele>965.0</ele><time>2026-05-01T14:46:03.058Z</time></trkpt><trkpt lat="35.7492028" lon="8.3687399"><ele>965.5000000000001</ele><time>2026-05-01T14:46:04.07Z</time></trkpt><trkpt lat="35.7491349" lon="8.3686709"><ele>966.0</ele><time>2026-05-01T14:46:05.069Z</time></trkpt><trkpt lat="35.7490712" lon="8.3686087"><ele>966.5</ele><time>2026-05-01T14:46:06.056Z</time></trkpt><trkpt lat="35.7490052" lon="8.3685511"><ele>967.0</ele><time>2026-05-01T14:46:07.044Z</time></trkpt><trkpt lat="35.7489439" lon="8.368499"><ele>967.5000000000001</ele><time>2026-05-01T14:46:08.082Z</time></trkpt><trkpt lat="35.7488818" lon="8.3684524"><ele>968.0</ele><time>2026-05-01T14:46:09.069Z</time></trkpt><trkpt lat="35.748819" lon="8.368417"><ele>968.0000000000001</ele><time>2026-05-01T14:46:10.069Z</time></trkpt><trkpt lat="35.7487495" lon="8.368386"><ele>968.0</ele><time>2026-05-01T14:46:11.061Z</time></trkpt><trkpt lat="35.7486822" lon="8.3683583"><ele>968.0</ele><time>2026-05-01T14:46:12.069Z</time></trkpt><trkpt lat="35.7486204" lon="8.3683313"><ele>968.0</ele><time>2026-05-01T14:46:13.067Z</time></trkpt><trkpt lat="35.7485231" lon="8.3682883"><ele>968.0000000000001</ele><time>2026-05-01T14:46:15.064Z</time></trkpt><trkpt lat="35.7484448" lon="8.3682585"><ele>968.0</ele><time>2026-05-01T14:46:17.06Z</time></trkpt><trkpt lat="35.7483488" lon="8.3682565"><ele>971.0</ele><time>2026-05-01T14:46:19.063Z</time></trkpt><trkpt lat="35.7482676" lon="8.3682987"><ele>974.0</ele><time>2026-05-01T14:46:21.049Z</time></trkpt><trkpt lat="35.7482424" lon="8.3684197"><ele>977.0</ele><time>2026-05-01T14:46:23.037Z</time></trkpt><trkpt lat="35.7482707" lon="8.3685568"><ele>980.0</ele><time>2026-05-01T14:46:25.054Z</time></trkpt><trkpt lat="35.7483205" lon="8.3686975"><ele>983.0</ele><time>2026-05-01T14:46:27.085Z</time></trkpt><trkpt lat="35.7483547" lon="8.3687717"><ele>985.142857142857</ele><time>2026-05-01T14:46:28.08Z</time></trkpt><trkpt lat="35.7483856" lon="8.3688632"><ele>987.2857142857142</ele><time>2026-05-01T14:46:29.064Z</time></trkpt><trkpt lat="35.7484081" lon="8.3689534"><ele>989.4285714285714</ele><time>2026-05-01T14:46:30.066Z</time></trkpt><trkpt lat="35.7484317" lon="8.3690437"><ele>991.5714285714286</ele><time>2026-05-01T14:46:31.055Z</time></trkpt><trkpt lat="35.7484576" lon="8.3691262"><ele>993.7142857142858</ele><time>2026-05-01T14:46:32.062Z</time></trkpt><trkpt lat="35.7484825" lon="8.3692011"><ele>995.857142857143</ele><time>2026-05-01T14:46:33.046Z</time></trkpt><trkpt lat="35.7485068" lon="8.3692797"><ele>998.0000000000001</ele><time>2026-05-01T14:46:34.057Z</time></trkpt><trkpt lat="35.7485338" lon="8.3693586"><ele>997.4285714285716</ele><time>2026-05-01T14:46:35.063Z</time></trkpt><trkpt lat="35.7485641" lon="8.3694349"><ele>996.8571428571429</ele><time>2026-05-01T14:46:36.068Z</time></trkpt><trkpt lat="35.748591" lon="8.3695165"><ele>996.2857142857143</ele><time>2026-05-01T14:46:37.071Z</time></trkpt><trkpt lat="35.748621" lon="8.3695948"><ele>995.7142857142858</ele><time>2026-05-01T14:46:38.068Z</time></trkpt><trkpt lat="35.7486488" lon="8.3696742"><ele>995.1428571428571</ele><time>2026-05-01T14:46:39.057Z</time></trkpt><trkpt lat="35.7486778" lon="8.3697557"><ele>994.5714285714286</ele><time>2026-05-01T14:46:40.061Z</time></trkpt><trkpt lat="35.7487086" lon="8.3698397"><ele>994.0</ele><time>2026-05-01T14:46:41.064Z</time></trkpt><trkpt lat="35.748741" lon="8.3699256"><ele>994.0</ele><time>2026-05-01T14:46:42.054Z</time></trkpt><trkpt lat="35.7487738" lon="8.3700093"><ele>994.0</ele><time>2026-05-01T14:46:43.064Z</time></trkpt><trkpt lat="35.7488064" lon="8.3700912"><ele>994.0</ele><time>2026-05-01T14:46:44.066Z</time></trkpt><trkpt lat="35.7488421" lon="8.3701688"><ele>994.0</ele><time>2026-05-01T14:46:45.068Z</time></trkpt><trkpt lat="35.7488845" lon="8.3702472"><ele>994.0</ele><time>2026-05-01T14:46:46.063Z</time></trkpt><trkpt lat="35.7489293" lon="8.3703166"><ele>994.0</ele><time>2026-05-01T14:46:47.062Z</time></trkpt><trkpt lat="35.7489708" lon="8.3703853"><ele>994.0</ele><time>2026-05-01T14:46:48.062Z</time></trkpt><trkpt lat="35.7490093" lon="8.3704597"><ele>995.6666666666666</ele><time>2026-05-01T14:46:49.057Z</time></trkpt><trkpt lat="35.7490444" lon="8.3705388"><ele>997.3333333333333</ele><time>2026-05-01T14:46:50.064Z</time></trkpt><trkpt lat="35.7490751" lon="8.3706294"><ele>999.0</ele><time>2026-05-01T14:46:51.053Z</time></trkpt><trkpt lat="35.7490945" lon="8.3707252"><ele>1000.6666666666667</ele><time>2026-05-01T14:46:52.068Z</time></trkpt><trkpt lat="35.7491109" lon="8.3708319"><ele>1002.3333333333334</ele><time>2026-05-01T14:46:53.051Z</time></trkpt><trkpt lat="35.7491219" lon="8.3709471"><ele>1004.0</ele><time>2026-05-01T14:46:54.054Z</time></trkpt><trkpt lat="35.7491267" lon="8.3710603"><ele>1004.0</ele><time>2026-05-01T14:46:55.038Z</time></trkpt><trkpt lat="35.7491227" lon="8.371167"><ele>1004.0000000000001</ele><time>2026-05-01T14:46:56.055Z</time></trkpt><trkpt lat="35.7491103" lon="8.371281"><ele>1004.0000000000001</ele><time>2026-05-01T14:46:57.053Z</time></trkpt><trkpt lat="35.7490906" lon="8.3713911"><ele>1004.0</ele><time>2026-05-01T14:46:58.075Z</time></trkpt><trkpt lat="35.7490682" lon="8.371505"><ele>1004.0</ele><time>2026-05-01T14:46:59.067Z</time></trkpt><trkpt lat="35.7490409" lon="8.3716245"><ele>1004.2</ele><time>2026-05-01T14:47:00.059Z</time></trkpt><trkpt lat="35.7490174" lon="8.371749"><ele>1004.4000000000001</ele><time>2026-05-01T14:47:01.059Z</time></trkpt><trkpt lat="35.7489923" lon="8.37187"><ele>1004.6</ele><time>2026-05-01T14:47:02.058Z</time></trkpt><trkpt lat="35.7489713" lon="8.3719892"><ele>1004.8</ele><time>2026-05-01T14:47:03.05Z</time></trkpt><trkpt lat="35.7489522" lon="8.3721028"><ele>1005.0</ele><time>2026-05-01T14:47:04.063Z</time></trkpt><trkpt lat="35.7489379" lon="8.3722145"><ele>1005.8333333333334</ele><time>2026-05-01T14:47:05.075Z</time></trkpt><trkpt lat="35.7489285" lon="8.3723181"><ele>1006.6666666666667</ele><time>2026-05-01T14:47:06.052Z</time></trkpt><trkpt lat="35.748929" lon="8.3724211"><ele>1007.5</ele><time>2026-05-01T14:47:07.06Z</time></trkpt><trkpt lat="35.748928" lon="8.3725215"><ele>1008.3333333333334</ele><time>2026-05-01T14:47:08.057Z</time></trkpt><trkpt lat="35.7489195" lon="8.3726241"><ele>1009.1666666666667</ele><time>2026-05-01T14:47:09.058Z</time></trkpt><trkpt lat="35.7489092" lon="8.3727195"><ele>1010.0</ele><time>2026-05-01T14:47:10.063Z</time></trkpt><trkpt lat="35.7488938" lon="8.3728167"><ele>1010.0000000000001</ele><time>2026-05-01T14:47:11.077Z</time></trkpt><trkpt lat="35.7488729" lon="8.3729117"><ele>1010.0</ele><time>2026-05-01T14:47:12.057Z</time></trkpt><trkpt lat="35.7488396" lon="8.3730081"><ele>1010.0</ele><time>2026-05-01T14:47:13.04Z</time></trkpt><trkpt lat="35.7488027" lon="8.3731087"><ele>1010.0</ele><time>2026-05-01T14:47:14.046Z</time></trkpt><trkpt lat="35.7487597" lon="8.3732103"><ele>1010.0000000000001</ele><time>2026-05-01T14:47:15.065Z</time></trkpt><trkpt lat="35.7487101" lon="8.3733105"><ele>1010.0</ele><time>2026-05-01T14:47:16.049Z</time></trkpt><trkpt lat="35.7486578" lon="8.3734065"><ele>1011.6666666666667</ele><time>2026-05-01T14:47:17.058Z</time></trkpt><trkpt lat="35.748604" lon="8.3734972"><ele>1013.3333333333334</ele><time>2026-05-01T14:47:18.072Z</time></trkpt><trkpt lat="35.7485531" lon="8.373577"><ele>1015.0</ele><time>2026-05-01T14:47:19.074Z</time></trkpt><trkpt lat="35.7485002" lon="8.3736426"><ele>1016.6666666666667</ele><time>2026-05-01T14:47:20.07Z</time></trkpt><trkpt lat="35.7484429" lon="8.3737123"><ele>1018.3333333333334</ele><time>2026-05-01T14:47:21.075Z</time></trkpt><trkpt lat="35.7483974" lon="8.3737773"><ele>1020.0</ele><time>2026-05-01T14:47:22.063Z</time></trkpt><trkpt lat="35.7483516" lon="8.3738567"><ele>1022.4285714285714</ele><time>2026-05-01T14:47:23.08Z</time></trkpt><trkpt lat="35.7483151" lon="8.3739334"><ele>1024.857142857143</ele><time>2026-05-01T14:47:24.051Z</time></trkpt><trkpt lat="35.748289" lon="8.3740145"><ele>1027.2857142857142</ele><time>2026-05-01T14:47:25.068Z</time></trkpt><trkpt lat="35.7482788" lon="8.3740949"><ele>1029.7142857142858</ele><time>2026-05-01T14:47:26.057Z</time></trkpt><trkpt lat="35.7482786" lon="8.3741791"><ele>1032.142857142857</ele><time>2026-05-01T14:47:27.064Z</time></trkpt><trkpt lat="35.7482708" lon="8.3742701"><ele>1034.5714285714287</ele><time>2026-05-01T14:47:28.062Z</time></trkpt><trkpt lat="35.7482611" lon="8.3743659"><ele>1037.0</ele><time>2026-05-01T14:47:29.06Z</time></trkpt><trkpt lat="35.7482406" lon="8.3744663"><ele>1037.0</ele><time>2026-05-01T14:47:30.05Z</time></trkpt><trkpt lat="35.7482124" lon="8.374576"><ele>1037.0</ele><time>2026-05-01T14:47:31.073Z</time></trkpt><trkpt lat="35.7481819" lon="8.3746845"><ele>1037.0</ele><time>2026-05-01T14:47:32.057Z</time></trkpt><trkpt lat="35.74815" lon="8.3747962"><ele>1037.0</ele><time>2026-05-01T14:47:33.065Z</time></trkpt><trkpt lat="35.7481158" lon="8.3749149"><ele>1037.0</ele><time>2026-05-01T14:47:34.065Z</time></trkpt><trkpt lat="35.748089" lon="8.3750323"><ele>1037.6</ele><time>2026-05-01T14:47:35.066Z</time></trkpt><trkpt lat="35.7480627" lon="8.3751549"><ele>1038.2</ele><time>2026-05-01T14:47:36.061Z</time></trkpt><trkpt lat="35.7480463" lon="8.3752734"><ele>1038.8</ele><time>2026-05-01T14:47:37.062Z</time></trkpt><trkpt lat="35.7480345" lon="8.3753986"><ele>1039.4</ele><time>2026-05-01T14:47:38.058Z</time></trkpt><trkpt lat="35.7480335" lon="8.3755221"><ele>1040.0</ele><time>2026-05-01T14:47:39.062Z</time></trkpt><trkpt lat="35.7480388" lon="8.3756444"><ele>1040.2</ele><time>2026-05-01T14:47:40.05Z</time></trkpt><trkpt lat="35.7480531" lon="8.3757602"><ele>1040.4</ele><time>2026-05-01T14:47:41.065Z</time></trkpt><trkpt lat="35.7480632" lon="8.3758753"><ele>1040.6</ele><time>2026-05-01T14:47:42.068Z</time></trkpt><trkpt lat="35.7480688" lon="8.3759865"><ele>1040.8</ele><time>2026-05-01T14:47:43.053Z</time></trkpt><trkpt lat="35.7480762" lon="8.3760942"><ele>1041.0</ele><time>2026-05-01T14:47:44.044Z</time></trkpt><trkpt lat="35.7480711" lon="8.376202"><ele>1041.0</ele><time>2026-05-01T14:47:45.053Z</time></trkpt><trkpt lat="35.7480659" lon="8.3763098"><ele>1041.0</ele><time>2026-05-01T14:47:46.054Z</time></trkpt><trkpt lat="35.7480598" lon="8.3764195"><ele>1041.0</ele><time>2026-05-01T14:47:47.056Z</time></trkpt><trkpt lat="35.7480495" lon="8.3765302"><ele>1041.0</ele><time>2026-05-01T14:47:48.054Z</time></trkpt><trkpt lat="35.7480341" lon="8.3766475"><ele>1041.0</ele><time>2026-05-01T14:47:49.048Z</time></trkpt><trkpt lat="35.7480153" lon="8.3767616"><ele>1040.6</ele><time>2026-05-01T14:47:50.046Z</time></trkpt><trkpt lat="35.7479977" lon="8.3768775"><ele>1040.1999999999998</ele><time>2026-05-01T14:47:51.063Z</time></trkpt><trkpt lat="35.7479774" lon="8.3770011"><ele>1039.8000000000002</ele><time>2026-05-01T14:47:52.074Z</time></trkpt><trkpt lat="35.7479534" lon="8.3771332"><ele>1039.4</ele><time>2026-05-01T14:47:53.047Z</time></trkpt><trkpt lat="35.7479337" lon="8.3772691"><ele>1039.0</ele><time>2026-05-01T14:47:54.077Z</time></trkpt><trkpt lat="35.7479109" lon="8.3774056"><ele>1038.4</ele><time>2026-05-01T14:47:55.059Z</time></trkpt><trkpt lat="35.7478827" lon="8.3775449"><ele>1037.8000000000002</ele><time>2026-05-01T14:47:56.062Z</time></trkpt><trkpt lat="35.7478585" lon="8.3776765"><ele>1037.1999999999998</ele><time>2026-05-01T14:47:57.051Z</time></trkpt><trkpt lat="35.7478271" lon="8.3777996"><ele>1036.6</ele><time>2026-05-01T14:47:58.053Z</time></trkpt><trkpt lat="35.7478018" lon="8.3779151"><ele>1036.0</ele><time>2026-05-01T14:47:59.056Z</time></trkpt><trkpt lat="35.7477713" lon="8.3780273"><ele>1035.3999999999999</ele><time>2026-05-01T14:48:00.072Z</time></trkpt><trkpt lat="35.7477358" lon="8.3781342"><ele>1034.8</ele><time>2026-05-01T14:48:01.061Z</time></trkpt><trkpt lat="35.7476986" lon="8.3782378"><ele>1034.1999999999998</ele><time>2026-05-01T14:48:02.054Z</time></trkpt><trkpt lat="35.7476535" lon="8.3783396"><ele>1033.6</ele><time>2026-05-01T14:48:03.054Z</time></trkpt><trkpt lat="35.7476037" lon="8.378443"><ele>1033.0</ele><time>2026-05-01T14:48:04.044Z</time></trkpt><trkpt lat="35.7475525" lon="8.3785538"><ele>1037.4</ele><time>2026-05-01T14:48:05.05Z</time></trkpt><trkpt lat="35.7474953" lon="8.3786642"><ele>1041.8</ele><time>2026-05-01T14:48:06.049Z</time></trkpt><trkpt lat="35.747442" lon="8.3787823"><ele>1046.2</ele><time>2026-05-01T14:48:07.053Z</time></trkpt><trkpt lat="35.7473918" lon="8.3789054"><ele>1050.6</ele><time>2026-05-01T14:48:08.047Z</time></trkpt><trkpt lat="35.7473432" lon="8.379026"><ele>1055.0</ele><time>2026-05-01T14:48:09.055Z</time></trkpt><trkpt lat="35.7472997" lon="8.3791492"><ele>1055.0</ele><time>2026-05-01T14:48:10.063Z</time></trkpt><trkpt lat="35.7472605" lon="8.3792706"><ele>1055.0</ele><time>2026-05-01T14:48:11.046Z</time></trkpt><trkpt lat="35.747226" lon="8.3793967"><ele>1055.0</ele><time>2026-05-01T14:48:12.043Z</time></trkpt><trkpt lat="35.7471898" lon="8.3795267"><ele>1055.0</ele><time>2026-05-01T14:48:13.076Z</time></trkpt><trkpt lat="35.7471591" lon="8.3796562"><ele>1055.0</ele><time>2026-05-01T14:48:14.048Z</time></trkpt><trkpt lat="35.7471313" lon="8.3797867"><ele>1056.2</ele><time>2026-05-01T14:48:15.061Z</time></trkpt><trkpt lat="35.747107" lon="8.3799193"><ele>1057.4</ele><time>2026-05-01T14:48:16.052Z</time></trkpt><trkpt lat="35.7470826" lon="8.3800439"><ele>1058.6</ele><time>2026-05-01T14:48:17.05Z</time></trkpt><trkpt lat="35.7470581" lon="8.3801694"><ele>1059.8</ele><time>2026-05-01T14:48:18.055Z</time></trkpt><trkpt lat="35.7470339" lon="8.380298"><ele>1061.0</ele><time>2026-05-01T14:48:19.052Z</time></trkpt><trkpt lat="35.7470105" lon="8.3804321"><ele>1062.0</ele><time>2026-05-01T14:48:20.055Z</time></trkpt><trkpt lat="35.7469909" lon="8.380562"><ele>1063.0</ele><time>2026-05-01T14:48:21.054Z</time></trkpt><trkpt lat="35.7469743" lon="8.380701"><ele>1064.0</ele><time>2026-05-01T14:48:22.064Z</time></trkpt><trkpt lat="35.7469646" lon="8.3808358"><ele>1065.0</ele><time>2026-05-01T14:48:23.039Z</time></trkpt><trkpt lat="35.746952" lon="8.3809703"><ele>1066.0</ele><time>2026-05-01T14:48:24.064Z</time></trkpt><trkpt lat="35.7469487" lon="8.3810967"><ele>1066.0</ele><time>2026-05-01T14:48:25.062Z</time></trkpt><trkpt lat="35.7469494" lon="8.3812218"><ele>1066.0</ele><time>2026-05-01T14:48:26.047Z</time></trkpt><trkpt lat="35.7469549" lon="8.3813462"><ele>1066.0</ele><time>2026-05-01T14:48:27.043Z</time></trkpt><trkpt lat="35.7469658" lon="8.3814627"><ele>1066.0</ele><time>2026-05-01T14:48:28.06Z</time></trkpt><trkpt lat="35.7469767" lon="8.3815868"><ele>1066.0</ele><time>2026-05-01T14:48:29.055Z</time></trkpt><trkpt lat="35.7469932" lon="8.3817017"><ele>1069.0</ele><time>2026-05-01T14:48:30.057Z</time></trkpt><trkpt lat="35.7470135" lon="8.3818214"><ele>1072.0</ele><time>2026-05-01T14:48:31.059Z</time></trkpt><trkpt lat="35.7470324" lon="8.381937"><ele>1075.0</ele><time>2026-05-01T14:48:32.051Z</time></trkpt><trkpt lat="35.7470518" lon="8.3820465"><ele>1078.0</ele><time>2026-05-01T14:48:33.048Z</time></trkpt><trkpt lat="35.7470664" lon="8.3821544"><ele>1081.0</ele><time>2026-05-01T14:48:34.058Z</time></trkpt><trkpt lat="35.7470704" lon="8.3822544"><ele>1083.5</ele><time>2026-05-01T14:48:35.043Z</time></trkpt><trkpt lat="35.7470726" lon="8.382355"><ele>1086.0</ele><time>2026-05-01T14:48:36.053Z</time></trkpt><trkpt lat="35.7470711" lon="8.382456"><ele>1088.5</ele><time>2026-05-01T14:48:37.061Z</time></trkpt><trkpt lat="35.7470691" lon="8.3825517"><ele>1091.0</ele><time>2026-05-01T14:48:38.047Z</time></trkpt><trkpt lat="35.7470687" lon="8.3826399"><ele>1093.5</ele><time>2026-05-01T14:48:39.058Z</time></trkpt><trkpt lat="35.7470623" lon="8.3827266"><ele>1096.0</ele><time>2026-05-01T14:48:40.05Z</time></trkpt><trkpt lat="35.7470539" lon="8.382812"><ele>1096.0000000000002</ele><time>2026-05-01T14:48:41.07Z</time></trkpt><trkpt lat="35.747046" lon="8.3828958"><ele>1096.0</ele><time>2026-05-01T14:48:42.043Z</time></trkpt><trkpt lat="35.7470418" lon="8.3829758"><ele>1096.0</ele><time>2026-05-01T14:48:43.063Z</time></trkpt><trkpt lat="35.7470367" lon="8.3830548"><ele>1096.0</ele><time>2026-05-01T14:48:44.05Z</time></trkpt><trkpt lat="35.7470414" lon="8.383133"><ele>1096.0</ele><time>2026-05-01T14:48:45.061Z</time></trkpt><trkpt lat="35.7470547" lon="8.3832242"><ele>1096.0000000000002</ele><time>2026-05-01T14:48:46.049Z</time></trkpt><trkpt lat="35.7470728" lon="8.3833144"><ele>1096.0</ele><time>2026-05-01T14:48:47.069Z</time></trkpt><trkpt lat="35.7470907" lon="8.3834108"><ele>1097.0</ele><time>2026-05-01T14:48:48.063Z</time></trkpt><trkpt lat="35.7471094" lon="8.3835011"><ele>1098.0</ele><time>2026-05-01T14:48:49.039Z</time></trkpt><trkpt lat="35.7471332" lon="8.3835996"><ele>1099.0</ele><time>2026-05-01T14:48:50.063Z</time></trkpt><trkpt lat="35.7471588" lon="8.383707"><ele>1100.0</ele><time>2026-05-01T14:48:51.054Z</time></trkpt><trkpt lat="35.7471883" lon="8.3838114"><ele>1101.0</ele><time>2026-05-01T14:48:52.068Z</time></trkpt><trkpt lat="35.7472201" lon="8.3839228"><ele>1102.0</ele><time>2026-05-01T14:48:53.057Z</time></trkpt><trkpt lat="35.7472474" lon="8.3840272"><ele>1102.6</ele><time>2026-05-01T14:48:54.045Z</time></trkpt><trkpt lat="35.747277" lon="8.3841281"><ele>1103.2</ele><time>2026-05-01T14:48:55.062Z</time></trkpt><trkpt lat="35.7473056" lon="8.3842319"><ele>1103.8</ele><time>2026-05-01T14:48:56.058Z</time></trkpt><trkpt lat="35.7473336" lon="8.3843488"><ele>1104.4</ele><time>2026-05-01T14:48:57.073Z</time></trkpt><trkpt lat="35.7473562" lon="8.3844659"><ele>1105.0</ele><time>2026-05-01T14:48:58.05Z</time></trkpt><trkpt lat="35.7473771" lon="8.3845798"><ele>1105.6666666666665</ele><time>2026-05-01T14:48:59.062Z</time></trkpt><trkpt lat="35.7473916" lon="8.3846932"><ele>1106.3333333333333</ele><time>2026-05-01T14:49:00.066Z</time></trkpt><trkpt lat="35.747395" lon="8.3848064"><ele>1107.0</ele><time>2026-05-01T14:49:01.062Z</time></trkpt><trkpt lat="35.7473889" lon="8.3849127"><ele>1107.6666666666667</ele><time>2026-05-01T14:49:02.051Z</time></trkpt><trkpt lat="35.747375" lon="8.3850117"><ele>1108.3333333333335</ele><time>2026-05-01T14:49:03.053Z</time></trkpt><trkpt lat="35.7473579" lon="8.3851154"><ele>1109.0</ele><time>2026-05-01T14:49:04.067Z</time></trkpt><trkpt lat="35.7473314" lon="8.3852154"><ele>1109.0</ele><time>2026-05-01T14:49:05.063Z</time></trkpt><trkpt lat="35.7473" lon="8.3853189"><ele>1109.0</ele><time>2026-05-01T14:49:06.049Z</time></trkpt><trkpt lat="35.747263" lon="8.385417"><ele>1109.0</ele><time>2026-05-01T14:49:07.059Z</time></trkpt><trkpt lat="35.7472231" lon="8.3855123"><ele>1109.0</ele><time>2026-05-01T14:49:08.057Z</time></trkpt><trkpt lat="35.7471755" lon="8.3856096"><ele>1109.0</ele><time>2026-05-01T14:49:09.051Z</time></trkpt><trkpt lat="35.747127" lon="8.3857073"><ele>1108.8</ele><time>2026-05-01T14:49:10.074Z</time></trkpt><trkpt lat="35.7470838" lon="8.3858023"><ele>1108.6000000000001</ele><time>2026-05-01T14:49:11.063Z</time></trkpt><trkpt lat="35.7470369" lon="8.3858987"><ele>1108.4</ele><time>2026-05-01T14:49:12.057Z</time></trkpt><trkpt lat="35.7469815" lon="8.3859945"><ele>1108.2</ele><time>2026-05-01T14:49:13.063Z</time></trkpt><trkpt lat="35.7469129" lon="8.3860853"><ele>1108.0</ele><time>2026-05-01T14:49:14.065Z</time></trkpt><trkpt lat="35.7468447" lon="8.3861732"><ele>1109.6</ele><time>2026-05-01T14:49:15.066Z</time></trkpt><trkpt lat="35.746775" lon="8.3862464"><ele>1111.1999999999998</ele><time>2026-05-01T14:49:16.076Z</time></trkpt><trkpt lat="35.7467059" lon="8.3863246"><ele>1112.8</ele><time>2026-05-01T14:49:17.059Z</time></trkpt><trkpt lat="35.7466423" lon="8.386408"><ele>1114.3999999999999</ele><time>2026-05-01T14:49:18.051Z</time></trkpt><trkpt lat="35.7465893" lon="8.3865013"><ele>1116.0</ele><time>2026-05-01T14:49:19.06Z</time></trkpt><trkpt lat="35.7465431" lon="8.386603"><ele>1116.0</ele><time>2026-05-01T14:49:20.059Z</time></trkpt><trkpt lat="35.7465016" lon="8.3867104"><ele>1116.0</ele><time>2026-05-01T14:49:21.071Z</time></trkpt><trkpt lat="35.7464638" lon="8.3868267"><ele>1116.0</ele><time>2026-05-01T14:49:22.057Z</time></trkpt><trkpt lat="35.74643" lon="8.3869503"><ele>1116.0</ele><time>2026-05-01T14:49:23.048Z</time></trkpt><trkpt lat="35.746394" lon="8.3870851"><ele>1116.0</ele><time>2026-05-01T14:49:24.056Z</time></trkpt><trkpt lat="35.7463578" lon="8.3872238"><ele>1114.8</ele><time>2026-05-01T14:49:25.059Z</time></trkpt><trkpt lat="35.7463193" lon="8.3873559"><ele>1113.6</ele><time>2026-05-01T14:49:26.053Z</time></trkpt><trkpt lat="35.7462864" lon="8.3874892"><ele>1112.4</ele><time>2026-05-01T14:49:27.058Z</time></trkpt><trkpt lat="35.7462605" lon="8.3876167"><ele>1111.2</ele><time>2026-05-01T14:49:28.055Z</time></trkpt><trkpt lat="35.7462261" lon="8.3877495"><ele>1110.0</ele><time>2026-05-01T14:49:29.063Z</time></trkpt><trkpt lat="35.746191" lon="8.3878812"><ele>1109.6</ele><time>2026-05-01T14:49:30.052Z</time></trkpt><trkpt lat="35.7461538" lon="8.3880113"><ele>1109.2</ele><time>2026-05-01T14:49:31.057Z</time></trkpt><trkpt lat="35.7461182" lon="8.3881385"><ele>1108.8</ele><time>2026-05-01T14:49:32.06Z</time></trkpt><trkpt lat="35.7460767" lon="8.3882632"><ele>1108.4</ele><time>2026-05-01T14:49:33.057Z</time></trkpt><trkpt lat="35.7460317" lon="8.3883851"><ele>1108.0</ele><time>2026-05-01T14:49:34.059Z</time></trkpt><trkpt lat="35.7459761" lon="8.3884908"><ele>1112.2</ele><time>2026-05-01T14:49:35.054Z</time></trkpt><trkpt lat="35.7459163" lon="8.3885749"><ele>1116.4</ele><time>2026-05-01T14:49:36.07Z</time></trkpt><trkpt lat="35.7458547" lon="8.388636"><ele>1120.6000000000001</ele><time>2026-05-01T14:49:37.067Z</time></trkpt><trkpt lat="35.7457623" lon="8.3886976"><ele>1124.8</ele><time>2026-05-01T14:49:39.047Z</time></trkpt><trkpt lat="35.7456564" lon="8.3887275"><ele>1129.0</ele><time>2026-05-01T14:49:41.066Z</time></trkpt><trkpt lat="35.7455408" lon="8.3887415"><ele>1129.0</ele><time>2026-05-01T14:49:43.088Z</time></trkpt><trkpt lat="35.7454256" lon="8.3887156"><ele>1129.0</ele><time>2026-05-01T14:49:45.06Z</time></trkpt><trkpt lat="35.7453716" lon="8.3886747"><ele>1129.0</ele><time>2026-05-01T14:49:46.056Z</time></trkpt><trkpt lat="35.7452752" lon="8.3885896"><ele>1129.0</ele><time>2026-05-01T14:49:48.054Z</time></trkpt><trkpt lat="35.7452215" lon="8.3885415"><ele>1129.0</ele><time>2026-05-01T14:49:49.063Z</time></trkpt><trkpt lat="35.745162" lon="8.3884935"><ele>1129.0</ele><time>2026-05-01T14:49:50.047Z</time></trkpt><trkpt lat="35.7451105" lon="8.3884402"><ele>1130.1666666666665</ele><time>2026-05-01T14:49:51.063Z</time></trkpt><trkpt lat="35.7450655" lon="8.3883851"><ele>1131.3333333333333</ele><time>2026-05-01T14:49:52.06Z</time></trkpt><trkpt lat="35.7450211" lon="8.3883297"><ele>1132.5</ele><time>2026-05-01T14:49:53.055Z</time></trkpt><trkpt lat="35.744935" lon="8.3882135"><ele>1133.6666666666667</ele><time>2026-05-01T14:49:55.061Z</time></trkpt><trkpt lat="35.7448743" lon="8.3880726"><ele>1134.8333333333335</ele><time>2026-05-01T14:49:57.054Z</time></trkpt><trkpt lat="35.7448474" lon="8.3880008"><ele>1136.0</ele><time>2026-05-01T14:49:58.054Z</time></trkpt><trkpt lat="35.7448042" lon="8.3878552"><ele>1138.8</ele><time>2026-05-01T14:50:00.058Z</time></trkpt><trkpt lat="35.7447872" lon="8.3877024"><ele>1141.6</ele><time>2026-05-01T14:50:02.056Z</time></trkpt><trkpt lat="35.7447798" lon="8.3875461"><ele>1144.4</ele><time>2026-05-01T14:50:04.06Z</time></trkpt><trkpt lat="35.7447795" lon="8.3874607"><ele>1147.2</ele><time>2026-05-01T14:50:05.053Z</time></trkpt><trkpt lat="35.7447811" lon="8.3873678"><ele>1150.0</ele><time>2026-05-01T14:50:06.065Z</time></trkpt><trkpt lat="35.7447767" lon="8.3872785"><ele>1150.0</ele><time>2026-05-01T14:50:07.054Z</time></trkpt><trkpt lat="35.7447726" lon="8.3871908"><ele>1150.0</ele><time>2026-05-01T14:50:08.067Z</time></trkpt><trkpt lat="35.7447627" lon="8.3870952"><ele>1150.0</ele><time>2026-05-01T14:50:09.058Z</time></trkpt><trkpt lat="35.7447544" lon="8.3870064"><ele>1150.0</ele><time>2026-05-01T14:50:10.064Z</time></trkpt><trkpt lat="35.7447465" lon="8.386919"><ele>1150.0</ele><time>2026-05-01T14:50:11.059Z</time></trkpt><trkpt lat="35.7447401" lon="8.3868253"><ele>1150.0</ele><time>2026-05-01T14:50:12.062Z</time></trkpt><trkpt lat="35.7447332" lon="8.3867305"><ele>1150.0</ele><time>2026-05-01T14:50:13.061Z</time></trkpt><trkpt lat="35.7447302" lon="8.3866382"><ele>1150.8333333333333</ele><time>2026-05-01T14:50:14.043Z</time></trkpt><trkpt lat="35.74473" lon="8.3865462"><ele>1151.6666666666665</ele><time>2026-05-01T14:50:15.054Z</time></trkpt><trkpt lat="35.7447333" lon="8.386447"><ele>1152.5</ele><time>2026-05-01T14:50:16.068Z</time></trkpt><trkpt lat="35.7447409" lon="8.3863478"><ele>1153.3333333333333</ele><time>2026-05-01T14:50:17.05Z</time></trkpt><trkpt lat="35.7447539" lon="8.3862479"><ele>1154.1666666666667</ele><time>2026-05-01T14:50:18.057Z</time></trkpt><trkpt lat="35.7447621" lon="8.3861537"><ele>1155.0</ele><time>2026-05-01T14:50:19.06Z</time></trkpt><trkpt lat="35.7447723" lon="8.3860492"><ele>1155.6666666666667</ele><time>2026-05-01T14:50:20.051Z</time></trkpt><trkpt lat="35.7447805" lon="8.3859526"><ele>1156.3333333333333</ele><time>2026-05-01T14:50:21.062Z</time></trkpt><trkpt lat="35.7447858" lon="8.385854"><ele>1157.0</ele><time>2026-05-01T14:50:22.039Z</time></trkpt><trkpt lat="35.7447952" lon="8.3857596"><ele>1157.6666666666665</ele><time>2026-05-01T14:50:23.053Z</time></trkpt><trkpt lat="35.74481" lon="8.3856661"><ele>1158.3333333333333</ele><time>2026-05-01T14:50:24.052Z</time></trkpt><trkpt lat="35.7448319" lon="8.3855687"><ele>1159.0</ele><time>2026-05-01T14:50:25.056Z</time></trkpt><trkpt lat="35.7448623" lon="8.3854733"><ele>1160.1666666666665</ele><time>2026-05-01T14:50:26.07Z</time></trkpt><trkpt lat="35.7448971" lon="8.3853861"><ele>1161.3333333333333</ele><time>2026-05-01T14:50:27.043Z</time></trkpt><trkpt lat="35.7449299" lon="8.3852921"><ele>1162.5</ele><time>2026-05-01T14:50:28.055Z</time></trkpt><trkpt lat="35.7449599" lon="8.3851973"><ele>1163.6666666666667</ele><time>2026-05-01T14:50:29.061Z</time></trkpt><trkpt lat="35.7449957" lon="8.3851067"><ele>1164.8333333333335</ele><time>2026-05-01T14:50:30.051Z</time></trkpt><trkpt lat="35.7450299" lon="8.3850123"><ele>1166.0</ele><time>2026-05-01T14:50:31.058Z</time></trkpt><trkpt lat="35.7450634" lon="8.3849151"><ele>1166.0</ele><time>2026-05-01T14:50:32.055Z</time></trkpt><trkpt lat="35.7450983" lon="8.3848241"><ele>1166.0</ele><time>2026-05-01T14:50:33.05Z</time></trkpt><trkpt lat="35.7451328" lon="8.3847356"><ele>1166.0</ele><time>2026-05-01T14:50:34.056Z</time></trkpt><trkpt lat="35.7451624" lon="8.3846477"><ele>1166.0</ele><time>2026-05-01T14:50:35.048Z</time></trkpt><trkpt lat="35.7451917" lon="8.3845659"><ele>1166.0</ele><time>2026-05-01T14:50:36.045Z</time></trkpt><trkpt lat="35.7452329" lon="8.3844469"><ele>1166.0</ele><time>2026-05-01T14:50:38.047Z</time></trkpt><trkpt lat="35.7452609" lon="8.3843569"><ele>1164.857142857143</ele><time>2026-05-01T14:50:40.055Z</time></trkpt><trkpt lat="35.7452854" lon="8.3842758"><ele>1163.7142857142858</ele><time>2026-05-01T14:50:44.043Z</time></trkpt><trkpt lat="35.7453158" lon="8.3841934"><ele>1162.5714285714284</ele><time>2026-05-01T14:50:47.043Z</time></trkpt><trkpt lat="35.7453434" lon="8.3841119"><ele>1161.4285714285716</ele><time>2026-05-01T14:50:50.052Z</time></trkpt><trkpt lat="35.7453648" lon="8.3840145"><ele>1160.2857142857142</ele><time>2026-05-01T14:50:54.043Z</time></trkpt><trkpt lat="35.7453513" lon="8.3839251"><ele>1159.142857142857</ele><time>2026-05-01T14:55:17.056Z</time></trkpt><trkpt lat="35.7452947" lon="8.3839733"><ele>1158.0</ele><time>2026-05-01T15:00:07.089Z</time></trkpt><trkpt lat="35.745305" lon="8.3840587"><ele>1158.0</ele><time>2026-05-01T15:00:11.022Z</time></trkpt><trkpt lat="35.745286" lon="8.3842284"><ele>1158.0</ele><time>2026-05-01T15:00:25.024Z</time></trkpt><trkpt lat="35.7452471" lon="8.3842964"><ele>1158.0</ele><time>2026-05-01T15:00:27.044Z</time></trkpt><trkpt lat="35.7452093" lon="8.3843894"><ele>1158.0</ele><time>2026-05-01T15:00:29.069Z</time></trkpt><trkpt lat="35.745172" lon="8.3845062"><ele>1158.0</ele><time>2026-05-01T15:00:31.036Z</time></trkpt><trkpt lat="35.7451299" lon="8.3846173"><ele>1159.6</ele><time>2026-05-01T15:00:33.05Z</time></trkpt><trkpt lat="35.7450945" lon="8.3847266"><ele>1161.1999999999998</ele><time>2026-05-01T15:00:35.052Z</time></trkpt><trkpt lat="35.745055" lon="8.3848568"><ele>1162.8</ele><time>2026-05-01T15:00:37.059Z</time></trkpt><trkpt lat="35.7450125" lon="8.384983"><ele>1164.3999999999999</ele><time>2026-05-01T15:00:39.026Z</time></trkpt><trkpt lat="35.7449702" lon="8.3851134"><ele>1166.0</ele><time>2026-05-01T15:00:41.026Z</time></trkpt><trkpt lat="35.7449176" lon="8.3852334"><ele>1166.0</ele><time>2026-05-01T15:00:43.055Z</time></trkpt><trkpt lat="35.7448837" lon="8.3853446"><ele>1166.0</ele><time>2026-05-01T15:00:45.019Z</time></trkpt><trkpt lat="35.7448409" lon="8.3854775"><ele>1166.0</ele><time>2026-05-01T15:00:47.023Z</time></trkpt><trkpt lat="35.7448099" lon="8.3856164"><ele>1166.0</ele><time>2026-05-01T15:00:49.025Z</time></trkpt><trkpt lat="35.744797" lon="8.385757"><ele>1166.0</ele><time>2026-05-01T15:00:51.029Z</time></trkpt><trkpt lat="35.7447728" lon="8.3858948"><ele>1164.6</ele><time>2026-05-01T15:00:53.023Z</time></trkpt><trkpt lat="35.7447628" lon="8.3860368"><ele>1163.1999999999998</ele><time>2026-05-01T15:00:55.037Z</time></trkpt><trkpt lat="35.7447525" lon="8.3861772"><ele>1161.8000000000002</ele><time>2026-05-01T15:00:57.043Z</time></trkpt><trkpt lat="35.7447416" lon="8.3863207"><ele>1160.4</ele><time>2026-05-01T15:00:59.043Z</time></trkpt><trkpt lat="35.7447345" lon="8.386399"><ele>1159.0</ele><time>2026-05-01T15:01:00.059Z</time></trkpt><trkpt lat="35.7447302" lon="8.3864807"><ele>1158.4285714285716</ele><time>2026-05-01T15:01:01.053Z</time></trkpt><trkpt lat="35.7447317" lon="8.3865638"><ele>1157.857142857143</ele><time>2026-05-01T15:01:02.047Z</time></trkpt><trkpt lat="35.744734" lon="8.3866439"><ele>1157.2857142857142</ele><time>2026-05-01T15:01:03.062Z</time></trkpt><trkpt lat="35.744733" lon="8.3867289"><ele>1156.7142857142858</ele><time>2026-05-01T15:01:04.046Z</time></trkpt><trkpt lat="35.7447352" lon="8.386814"><ele>1156.142857142857</ele><time>2026-05-01T15:01:05.066Z</time></trkpt><trkpt lat="35.7447382" lon="8.3868997"><ele>1155.5714285714287</ele><time>2026-05-01T15:01:06.047Z</time></trkpt><trkpt lat="35.7447427" lon="8.386978"><ele>1155.0</ele><time>2026-05-01T15:01:07.039Z</time></trkpt><trkpt lat="35.7447459" lon="8.3870567"><ele>1155.0</ele><time>2026-05-01T15:01:08.064Z</time></trkpt><trkpt lat="35.7447489" lon="8.3871368"><ele>1155.0</ele><time>2026-05-01T15:01:09.058Z</time></trkpt><trkpt lat="35.7447536" lon="8.3872186"><ele>1155.0</ele><time>2026-05-01T15:01:10.049Z</time></trkpt><trkpt lat="35.7447571" lon="8.3873028"><ele>1155.0</ele><time>2026-05-01T15:01:11.047Z</time></trkpt><trkpt lat="35.7447584" lon="8.387384"><ele>1155.0</ele><time>2026-05-01T15:01:12.074Z</time></trkpt><trkpt lat="35.7447569" lon="8.3874683"><ele>1155.0</ele><time>2026-05-01T15:01:13.051Z</time></trkpt><trkpt lat="35.7447563" lon="8.3875525"><ele>1155.0</ele><time>2026-05-01T15:01:14.049Z</time></trkpt><trkpt lat="35.7447557" lon="8.3876303"><ele>1154.1666666666667</ele><time>2026-05-01T15:01:15.041Z</time></trkpt><trkpt lat="35.7447639" lon="8.3877835"><ele>1153.3333333333333</ele><time>2026-05-01T15:01:17.059Z</time></trkpt><trkpt lat="35.7447817" lon="8.3878648"><ele>1152.5</ele><time>2026-05-01T15:01:18.043Z</time></trkpt><trkpt lat="35.7448041" lon="8.3879474"><ele>1151.6666666666665</ele><time>2026-05-01T15:01:19.04Z</time></trkpt><trkpt lat="35.7448275" lon="8.3880364"><ele>1150.8333333333333</ele><time>2026-05-01T15:01:20.029Z</time></trkpt><trkpt lat="35.7448597" lon="8.3881189"><ele>1150.0</ele><time>2026-05-01T15:01:21.054Z</time></trkpt><trkpt lat="35.7448954" lon="8.3882038"><ele>1148.0</ele><time>2026-05-01T15:01:22.032Z</time></trkpt><trkpt lat="35.7449429" lon="8.3882751"><ele>1146.0</ele><time>2026-05-01T15:01:23.065Z</time></trkpt><trkpt lat="35.7449984" lon="8.3883391"><ele>1144.0</ele><time>2026-05-01T15:01:24.068Z</time></trkpt><trkpt lat="35.745057" lon="8.3883947"><ele>1142.0</ele><time>2026-05-01T15:01:25.038Z</time></trkpt><trkpt lat="35.7451111" lon="8.3884577"><ele>1140.0</ele><time>2026-05-01T15:01:26.054Z</time></trkpt><trkpt lat="35.745168" lon="8.3885105"><ele>1138.0</ele><time>2026-05-01T15:01:27.094Z</time></trkpt><trkpt lat="35.7452219" lon="8.3885664"><ele>1136.0</ele><time>2026-05-01T15:01:28.078Z</time></trkpt><trkpt lat="35.7452725" lon="8.3886204"><ele>1134.25</ele><time>2026-05-01T15:01:29.051Z</time></trkpt><trkpt lat="35.7453688" lon="8.3887094"><ele>1132.5</ele><time>2026-05-01T15:01:31.084Z</time></trkpt><trkpt lat="35.7454792" lon="8.3887534"><ele>1130.75</ele><time>2026-05-01T15:01:33.077Z</time></trkpt><trkpt lat="35.7456068" lon="8.3887689"><ele>1129.0</ele><time>2026-05-01T15:01:35.088Z</time></trkpt><trkpt lat="35.7457324" lon="8.3887517"><ele>1129.0</ele><time>2026-05-01T15:01:37.078Z</time></trkpt><trkpt lat="35.7457941" lon="8.3887237"><ele>1129.0</ele><time>2026-05-01T15:01:38.037Z</time></trkpt><trkpt lat="35.7458513" lon="8.3886778"><ele>1129.0</ele><time>2026-05-01T15:01:39.048Z</time></trkpt><trkpt lat="35.7459066" lon="8.3886291"><ele>1129.0</ele><time>2026-05-01T15:01:40.058Z</time></trkpt><trkpt lat="35.7459593" lon="8.388568"><ele>1129.0</ele><time>2026-05-01T15:01:41.043Z</time></trkpt><trkpt lat="35.7460094" lon="8.3884945"><ele>1129.0</ele><time>2026-05-01T15:01:42.074Z</time></trkpt><trkpt lat="35.7460593" lon="8.3884118"><ele>1129.0</ele><time>2026-05-01T15:01:43.048Z</time></trkpt><trkpt lat="35.7460979" lon="8.3883289"><ele>1125.8333333333333</ele><time>2026-05-01T15:01:44.066Z</time></trkpt><trkpt lat="35.7461293" lon="8.3882395"><ele>1122.6666666666665</ele><time>2026-05-01T15:01:45.067Z</time></trkpt><trkpt lat="35.7461562" lon="8.3881466"><ele>1119.5</ele><time>2026-05-01T15:01:46.099Z</time></trkpt><trkpt lat="35.7461771" lon="8.3880635"><ele>1116.3333333333333</ele><time>2026-05-01T15:01:47.081Z</time></trkpt><trkpt lat="35.7461974" lon="8.3879884"><ele>1113.1666666666667</ele><time>2026-05-01T15:01:48.045Z</time></trkpt><trkpt lat="35.7462371" lon="8.38785"><ele>1110.0</ele><time>2026-05-01T15:01:50.084Z</time></trkpt><trkpt lat="35.7462686" lon="8.3877105"><ele>1110.0</ele><time>2026-05-01T15:01:52.076Z</time></trkpt><trkpt lat="35.746297" lon="8.3875918"><ele>1110.0</ele><time>2026-05-01T15:01:54.069Z</time></trkpt><trkpt lat="35.7463109" lon="8.3874786"><ele>1110.0</ele><time>2026-05-01T15:01:56.099Z</time></trkpt><trkpt lat="35.7463382" lon="8.3873621"><ele>1110.0</ele><time>2026-05-01T15:01:58.088Z</time></trkpt><trkpt lat="35.7463697" lon="8.3872455"><ele>1110.0</ele><time>2026-05-01T15:02:00.072Z</time></trkpt><trkpt lat="35.7464067" lon="8.387131"><ele>1111.2</ele><time>2026-05-01T15:02:02.073Z</time></trkpt><trkpt lat="35.7464392" lon="8.3870125"><ele>1112.4</ele><time>2026-05-01T15:02:04.062Z</time></trkpt><trkpt lat="35.7464712" lon="8.3868958"><ele>1113.6</ele><time>2026-05-01T15:02:06.081Z</time></trkpt><trkpt lat="35.7465014" lon="8.3867785"><ele>1114.8</ele><time>2026-05-01T15:02:08.092Z</time></trkpt><trkpt lat="35.7465404" lon="8.3866527"><ele>1116.0</ele><time>2026-05-01T15:02:10.085Z</time></trkpt><trkpt lat="35.7465836" lon="8.3865379"><ele>1116.0</ele><time>2026-05-01T15:02:12.086Z</time></trkpt><trkpt lat="35.7466413" lon="8.3864288"><ele>1116.0</ele><time>2026-05-01T15:02:14.09Z</time></trkpt><trkpt lat="35.7467164" lon="8.3863288"><ele>1116.0</ele><time>2026-05-01T15:02:16.061Z</time></trkpt><trkpt lat="35.7467993" lon="8.3862356"><ele>1116.0</ele><time>2026-05-01T15:02:18.078Z</time></trkpt><trkpt lat="35.7468812" lon="8.3861351"><ele>1116.0</ele><time>2026-05-01T15:02:20.093Z</time></trkpt><trkpt lat="35.7469655" lon="8.3860235"><ele>1114.6</ele><time>2026-05-01T15:02:22.087Z</time></trkpt><trkpt lat="35.7470461" lon="8.3859061"><ele>1113.1999999999998</ele><time>2026-05-01T15:02:24.087Z</time></trkpt><trkpt lat="35.7471095" lon="8.385782"><ele>1111.8000000000002</ele><time>2026-05-01T15:02:26.088Z</time></trkpt><trkpt lat="35.7471724" lon="8.3856451"><ele>1110.4</ele><time>2026-05-01T15:02:28.089Z</time></trkpt><trkpt lat="35.7472074" lon="8.3855764"><ele>1109.0</ele><time>2026-05-01T15:02:29.059Z</time></trkpt><trkpt lat="35.7472383" lon="8.3855039"><ele>1108.9999999999998</ele><time>2026-05-01T15:02:30.095Z</time></trkpt><trkpt lat="35.7472747" lon="8.3854303"><ele>1109.0</ele><time>2026-05-01T15:02:31.097Z</time></trkpt><trkpt lat="35.7473054" lon="8.3853517"><ele>1109.0</ele><time>2026-05-01T15:02:32.08Z</time></trkpt><trkpt lat="35.7473333" lon="8.3852723"><ele>1109.0</ele><time>2026-05-01T15:02:33.095Z</time></trkpt><trkpt lat="35.7473628" lon="8.3851863"><ele>1109.0</ele><time>2026-05-01T15:02:34.044Z</time></trkpt><trkpt lat="35.7473865" lon="8.3851015"><ele>1108.9999999999998</ele><time>2026-05-01T15:02:35.091Z</time></trkpt><trkpt lat="35.7474043" lon="8.3850198"><ele>1109.0</ele><time>2026-05-01T15:02:36.082Z</time></trkpt><trkpt lat="35.7474122" lon="8.3849338"><ele>1108.9999999999998</ele><time>2026-05-01T15:02:37.06Z</time></trkpt><trkpt lat="35.7474206" lon="8.3848492"><ele>1109.0</ele><time>2026-05-01T15:02:38.08Z</time></trkpt><trkpt lat="35.7474225" lon="8.3847652"><ele>1109.0</ele><time>2026-05-01T15:02:39.105Z</time></trkpt><trkpt lat="35.7474123" lon="8.3846881"><ele>1109.0</ele><time>2026-05-01T15:02:40.043Z</time></trkpt><trkpt lat="35.7473998" lon="8.3846023"><ele>1109.0</ele><time>2026-05-01T15:02:41.072Z</time></trkpt><trkpt lat="35.7473812" lon="8.3845199"><ele>1108.9999999999998</ele><time>2026-05-01T15:02:42.091Z</time></trkpt><trkpt lat="35.7473625" lon="8.3844346"><ele>1109.0</ele><time>2026-05-01T15:02:43.07Z</time></trkpt><trkpt lat="35.7473465" lon="8.3843488"><ele>1108.3333333333335</ele><time>2026-05-01T15:02:44.089Z</time></trkpt><trkpt lat="35.7473293" lon="8.3842644"><ele>1107.6666666666667</ele><time>2026-05-01T15:02:45.047Z</time></trkpt><trkpt lat="35.7473084" lon="8.384173"><ele>1107.0</ele><time>2026-05-01T15:02:46.089Z</time></trkpt><trkpt lat="35.7472881" lon="8.384081"><ele>1106.3333333333333</ele><time>2026-05-01T15:02:47.095Z</time></trkpt><trkpt lat="35.74726" lon="8.3839886"><ele>1105.6666666666665</ele><time>2026-05-01T15:02:48.067Z</time></trkpt><trkpt lat="35.7472351" lon="8.383897"><ele>1105.0</ele><time>2026-05-01T15:02:49.09Z</time></trkpt><trkpt lat="35.7472072" lon="8.3838059"><ele>1104.5</ele><time>2026-05-01T15:02:50.061Z</time></trkpt><trkpt lat="35.7471818" lon="8.3837103"><ele>1104.0</ele><time>2026-05-01T15:02:51.103Z</time></trkpt><trkpt lat="35.7471592" lon="8.3836138"><ele>1103.5</ele><time>2026-05-01T15:02:52.084Z</time></trkpt><trkpt lat="35.7471352" lon="8.3835149"><ele>1103.0</ele><time>2026-05-01T15:02:53.096Z</time></trkpt><trkpt lat="35.7471129" lon="8.3834174"><ele>1102.5</ele><time>2026-05-01T15:02:54.091Z</time></trkpt><trkpt lat="35.7470924" lon="8.3833209"><ele>1102.0</ele><time>2026-05-01T15:02:55.092Z</time></trkpt><trkpt lat="35.7470758" lon="8.3832259"><ele>1101.9999999999998</ele><time>2026-05-01T15:02:56.085Z</time></trkpt><trkpt lat="35.7470668" lon="8.3831386"><ele>1102.0</ele><time>2026-05-01T15:02:57.104Z</time></trkpt><trkpt lat="35.7470621" lon="8.3830539"><ele>1102.0</ele><time>2026-05-01T15:02:58.067Z</time></trkpt><trkpt lat="35.7470664" lon="8.3829723"><ele>1102.0</ele><time>2026-05-01T15:02:59.093Z</time></trkpt><trkpt lat="35.7470714" lon="8.382891"><ele>1102.0</ele><time>2026-05-01T15:03:00.092Z</time></trkpt><trkpt lat="35.7470749" lon="8.3828086"><ele>1101.9999999999998</ele><time>2026-05-01T15:03:01.09Z</time></trkpt><trkpt lat="35.7470796" lon="8.3827185"><ele>1102.0</ele><time>2026-05-01T15:03:02.065Z</time></trkpt><trkpt lat="35.7470856" lon="8.3826187"><ele>1101.0</ele><time>2026-05-01T15:03:03.093Z</time></trkpt><trkpt lat="35.7470915" lon="8.382519"><ele>1100.0</ele><time>2026-05-01T15:03:04.084Z</time></trkpt><trkpt lat="35.7470937" lon="8.3824177"><ele>1099.0</ele><time>2026-05-01T15:03:05.087Z</time></trkpt><trkpt lat="35.7470958" lon="8.3823129"><ele>1098.0</ele><time>2026-05-01T15:03:06.085Z</time></trkpt><trkpt lat="35.7470961" lon="8.3822076"><ele>1097.0</ele><time>2026-05-01T15:03:07.093Z</time></trkpt><trkpt lat="35.747088" lon="8.3820962"><ele>1096.0</ele><time>2026-05-01T15:03:08.086Z</time></trkpt><trkpt lat="35.7470767" lon="8.3819886"><ele>1093.0</ele><time>2026-05-01T15:03:09.078Z</time></trkpt><trkpt lat="35.7470571" lon="8.3818743"><ele>1090.0</ele><time>2026-05-01T15:03:10.061Z</time></trkpt><trkpt lat="35.7470403" lon="8.3817582"><ele>1087.0</ele><time>2026-05-01T15:03:11.069Z</time></trkpt><trkpt lat="35.7470245" lon="8.3816365"><ele>1084.0</ele><time>2026-05-01T15:03:12.047Z</time></trkpt><trkpt lat="35.747016" lon="8.3815246"><ele>1081.0</ele><time>2026-05-01T15:03:13.071Z</time></trkpt><trkpt lat="35.7470095" lon="8.3814088"><ele>1078.0</ele><time>2026-05-01T15:03:14.078Z</time></trkpt><trkpt lat="35.7470072" lon="8.3812882"><ele>1075.0</ele><time>2026-05-01T15:03:15.084Z</time></trkpt><trkpt lat="35.7470112" lon="8.381168"><ele>1072.0</ele><time>2026-05-01T15:03:16.079Z</time></trkpt><trkpt lat="35.7470156" lon="8.3810522"><ele>1069.0</ele><time>2026-05-01T15:03:17.077Z</time></trkpt><trkpt lat="35.7470222" lon="8.3809339"><ele>1066.0</ele><time>2026-05-01T15:03:18.051Z</time></trkpt><trkpt lat="35.7470347" lon="8.3808107"><ele>1066.0</ele><time>2026-05-01T15:03:19.062Z</time></trkpt><trkpt lat="35.7470483" lon="8.3806744"><ele>1066.0</ele><time>2026-05-01T15:03:20.085Z</time></trkpt><trkpt lat="35.7470656" lon="8.3805244"><ele>1066.0</ele><time>2026-05-01T15:03:21.074Z</time></trkpt><trkpt lat="35.7470874" lon="8.3803666"><ele>1066.0</ele><time>2026-05-01T15:03:22.061Z</time></trkpt><trkpt lat="35.7471164" lon="8.3802119"><ele>1064.75</ele><time>2026-05-01T15:03:23.068Z</time></trkpt><trkpt lat="35.7471434" lon="8.3800584"><ele>1063.5</ele><time>2026-05-01T15:03:24.087Z</time></trkpt><trkpt lat="35.7471674" lon="8.3799004"><ele>1062.25</ele><time>2026-05-01T15:03:25.082Z</time></trkpt><trkpt lat="35.7471907" lon="8.3797489"><ele>1061.0</ele><time>2026-05-01T15:03:26.074Z</time></trkpt><trkpt lat="35.7472193" lon="8.3795971"><ele>1059.5</ele><time>2026-05-01T15:03:27.059Z</time></trkpt><trkpt lat="35.7472499" lon="8.3794459"><ele>1058.0</ele><time>2026-05-01T15:03:28.07Z</time></trkpt><trkpt lat="35.7472923" lon="8.3793057"><ele>1056.5</ele><time>2026-05-01T15:03:29.075Z</time></trkpt><trkpt lat="35.7473395" lon="8.3791594"><ele>1055.0</ele><time>2026-05-01T15:03:30.077Z</time></trkpt><trkpt lat="35.7473869" lon="8.3790149"><ele>1055.0</ele><time>2026-05-01T15:03:31.073Z</time></trkpt><trkpt lat="35.7474437" lon="8.3788813"><ele>1055.0</ele><time>2026-05-01T15:03:32.06Z</time></trkpt><trkpt lat="35.7475035" lon="8.3787496"><ele>1055.0</ele><time>2026-05-01T15:03:33.056Z</time></trkpt><trkpt lat="35.7475662" lon="8.3786241"><ele>1055.0</ele><time>2026-05-01T15:03:34.055Z</time></trkpt><trkpt lat="35.747626" lon="8.3784902"><ele>1056.75</ele><time>2026-05-01T15:03:35.061Z</time></trkpt><trkpt lat="35.7476848" lon="8.3783565"><ele>1058.5</ele><time>2026-05-01T15:03:36.081Z</time></trkpt><trkpt lat="35.7477374" lon="8.3782249"><ele>1060.25</ele><time>2026-05-01T15:03:37.063Z</time></trkpt><trkpt lat="35.7477839" lon="8.378091"><ele>1062.0</ele><time>2026-05-01T15:03:38.082Z</time></trkpt><trkpt lat="35.7478149" lon="8.3779596"><ele>1055.5</ele><time>2026-05-01T15:03:39.083Z</time></trkpt><trkpt lat="35.7478489" lon="8.3778219"><ele>1049.0</ele><time>2026-05-01T15:03:40.083Z</time></trkpt><trkpt lat="35.7478801" lon="8.3776858"><ele>1042.5</ele><time>2026-05-01T15:03:41.1Z</time></trkpt><trkpt lat="35.7479088" lon="8.3775483"><ele>1036.0</ele><time>2026-05-01T15:03:42.069Z</time></trkpt><trkpt lat="35.747937" lon="8.3774053"><ele>1036.0</ele><time>2026-05-01T15:03:43.09Z</time></trkpt><trkpt lat="35.7479617" lon="8.3772588"><ele>1036.0</ele><time>2026-05-01T15:03:44.068Z</time></trkpt><trkpt lat="35.7479858" lon="8.3771077"><ele>1036.0</ele><time>2026-05-01T15:03:45.082Z</time></trkpt><trkpt lat="35.7480073" lon="8.3769625"><ele>1036.0</ele><time>2026-05-01T15:03:46.079Z</time></trkpt><trkpt lat="35.7480287" lon="8.3768116"><ele>1036.75</ele><time>2026-05-01T15:03:47.087Z</time></trkpt><trkpt lat="35.748049" lon="8.3766629"><ele>1037.5</ele><time>2026-05-01T15:03:48.084Z</time></trkpt><trkpt lat="35.7480674" lon="8.376518"><ele>1038.25</ele><time>2026-05-01T15:03:49.091Z</time></trkpt><trkpt lat="35.7480817" lon="8.3763826"><ele>1039.0</ele><time>2026-05-01T15:03:50.087Z</time></trkpt><trkpt lat="35.7480872" lon="8.3762435"><ele>1039.5</ele><time>2026-05-01T15:03:51.081Z</time></trkpt><trkpt lat="35.7480867" lon="8.3760987"><ele>1040.0</ele><time>2026-05-01T15:03:52.086Z</time></trkpt><trkpt lat="35.7480747" lon="8.3759536"><ele>1040.5</ele><time>2026-05-01T15:03:53.088Z</time></trkpt><trkpt lat="35.7480635" lon="8.3758027"><ele>1041.0</ele><time>2026-05-01T15:03:54.071Z</time></trkpt><trkpt lat="35.7480505" lon="8.3756477"><ele>1040.75</ele><time>2026-05-01T15:03:55.067Z</time></trkpt><trkpt lat="35.7480434" lon="8.3754841"><ele>1040.5</ele><time>2026-05-01T15:03:56.065Z</time></trkpt><trkpt lat="35.748054" lon="8.3753234"><ele>1040.25</ele><time>2026-05-01T15:03:57.059Z</time></trkpt><trkpt lat="35.7480802" lon="8.3751549"><ele>1040.0</ele><time>2026-05-01T15:03:58.06Z</time></trkpt><trkpt lat="35.7481236" lon="8.374999"><ele>1040.0</ele><time>2026-05-01T15:03:59.066Z</time></trkpt><trkpt lat="35.748163" lon="8.3748482"><ele>1040.0</ele><time>2026-05-01T15:04:00.087Z</time></trkpt><trkpt lat="35.7482051" lon="8.3746955"><ele>1040.0</ele><time>2026-05-01T15:04:01.103Z</time></trkpt><trkpt lat="35.748248" lon="8.3745528"><ele>1040.0</ele><time>2026-05-01T15:04:02.079Z</time></trkpt><trkpt lat="35.7482823" lon="8.374414"><ele>1039.4</ele><time>2026-05-01T15:04:03.089Z</time></trkpt><trkpt lat="35.7483071" lon="8.3742783"><ele>1038.8</ele><time>2026-05-01T15:04:04.089Z</time></trkpt><trkpt lat="35.7483131" lon="8.3741491"><ele>1038.2</ele><time>2026-05-01T15:04:05.099Z</time></trkpt><trkpt lat="35.7483165" lon="8.3740257"><ele>1037.6</ele><time>2026-05-01T15:04:06.09Z</time></trkpt><trkpt lat="35.7483393" lon="8.3739185"><ele>1037.0</ele><time>2026-05-01T15:04:07.096Z</time></trkpt><trkpt lat="35.7483766" lon="8.3738312"><ele>1036.6</ele><time>2026-05-01T15:04:08.091Z</time></trkpt><trkpt lat="35.7484341" lon="8.3737431"><ele>1036.2</ele><time>2026-05-01T15:04:09.09Z</time></trkpt><trkpt lat="35.7485" lon="8.3736555"><ele>1035.8</ele><time>2026-05-01T15:04:10.068Z</time></trkpt><trkpt lat="35.7485764" lon="8.3735634"><ele>1035.4</ele><time>2026-05-01T15:04:11.091Z</time></trkpt><trkpt lat="35.7486465" lon="8.3734659"><ele>1035.0</ele><time>2026-05-01T15:04:12.033Z</time></trkpt><trkpt lat="35.7487166" lon="8.3733586"><ele>1031.25</ele><time>2026-05-01T15:04:13.086Z</time></trkpt><trkpt lat="35.7487795" lon="8.3732335"><ele>1027.5</ele><time>2026-05-01T15:04:14.083Z</time></trkpt><trkpt lat="35.7488374" lon="8.3731042"><ele>1023.75</ele><time>2026-05-01T15:04:15.06Z</time></trkpt><trkpt lat="35.7488881" lon="8.3729681"><ele>1020.0</ele><time>2026-05-01T15:04:16.089Z</time></trkpt><trkpt lat="35.7489165" lon="8.3728299"><ele>1017.5</ele><time>2026-05-01T15:04:17.072Z</time></trkpt><trkpt lat="35.748927" lon="8.372683"><ele>1015.0</ele><time>2026-05-01T15:04:18.088Z</time></trkpt><trkpt lat="35.7489322" lon="8.3725252"><ele>1012.5</ele><time>2026-05-01T15:04:19.087Z</time></trkpt><trkpt lat="35.7489411" lon="8.3723646"><ele>1010.0</ele><time>2026-05-01T15:04:20.099Z</time></trkpt><trkpt lat="35.7489498" lon="8.3722062"><ele>1008.75</ele><time>2026-05-01T15:04:21.083Z</time></trkpt><trkpt lat="35.7489731" lon="8.3720488"><ele>1007.5</ele><time>2026-05-01T15:04:22.063Z</time></trkpt><trkpt lat="35.7490034" lon="8.3718917"><ele>1006.25</ele><time>2026-05-01T15:04:23.059Z</time></trkpt><trkpt lat="35.7490302" lon="8.3717315"><ele>1005.0</ele><time>2026-05-01T15:04:24.068Z</time></trkpt><trkpt lat="35.749063" lon="8.3715691"><ele>1005.0</ele><time>2026-05-01T15:04:25.09Z</time></trkpt><trkpt lat="35.7490935" lon="8.3714106"><ele>1005.0</ele><time>2026-05-01T15:04:26.087Z</time></trkpt><trkpt lat="35.7491203" lon="8.3712541"><ele>1005.0</ele><time>2026-05-01T15:04:27.098Z</time></trkpt><trkpt lat="35.7491337" lon="8.3711033"><ele>1005.0</ele><time>2026-05-01T15:04:28.09Z</time></trkpt><trkpt lat="35.7491352" lon="8.370957"><ele>1004.8</ele><time>2026-05-01T15:04:29.09Z</time></trkpt><trkpt lat="35.7491266" lon="8.3708172"><ele>1004.6</ele><time>2026-05-01T15:04:30.088Z</time></trkpt><trkpt lat="35.7491018" lon="8.3706795"><ele>1004.4000000000001</ele><time>2026-05-01T15:04:31.096Z</time></trkpt><trkpt lat="35.7490669" lon="8.3705573"><ele>1004.2</ele><time>2026-05-01T15:04:32.1Z</time></trkpt><trkpt lat="35.7490127" lon="8.370437"><ele>1004.0</ele><time>2026-05-01T15:04:33.087Z</time></trkpt><trkpt lat="35.7489515" lon="8.3703107"><ele>1001.5</ele><time>2026-05-01T15:04:34.088Z</time></trkpt><trkpt lat="35.7488818" lon="8.3701736"><ele>999.0</ele><time>2026-05-01T15:04:35.081Z</time></trkpt><trkpt lat="35.7488152" lon="8.3700337"><ele>996.5</ele><time>2026-05-01T15:04:36.092Z</time></trkpt><trkpt lat="35.7487584" lon="8.36989"><ele>994.0</ele><time>2026-05-01T15:04:37.074Z</time></trkpt><trkpt lat="35.7487102" lon="8.3697443"><ele>995.0</ele><time>2026-05-01T15:04:38.09Z</time></trkpt><trkpt lat="35.7486594" lon="8.3695978"><ele>996.0</ele><time>2026-05-01T15:04:39.091Z</time></trkpt><trkpt lat="35.7486059" lon="8.3694535"><ele>997.0</ele><time>2026-05-01T15:04:40.072Z</time></trkpt><trkpt lat="35.7485588" lon="8.3693045"><ele>998.0</ele><time>2026-05-01T15:04:41.102Z</time></trkpt><trkpt lat="35.7485101" lon="8.3691711"><ele>998.0</ele><time>2026-05-01T15:04:42.08Z</time></trkpt><trkpt lat="35.7484664" lon="8.3690547"><ele>998.0</ele><time>2026-05-01T15:04:43.072Z</time></trkpt><trkpt lat="35.7484272" lon="8.3689445"><ele>998.0</ele><time>2026-05-01T15:04:44.109Z</time></trkpt><trkpt lat="35.7483874" lon="8.3688399"><ele>998.0</ele><time>2026-05-01T15:04:45.078Z</time></trkpt><trkpt lat="35.7483512" lon="8.3687458"><ele>998.0</ele><time>2026-05-01T15:04:46.106Z</time></trkpt><trkpt lat="35.7483194" lon="8.368664"><ele>995.5000000000001</ele><time>2026-05-01T15:04:47.107Z</time></trkpt><trkpt lat="35.7482939" lon="8.3685831"><ele>993.0</ele><time>2026-05-01T15:04:48.099Z</time></trkpt><trkpt lat="35.7482693" lon="8.3685071"><ele>990.5</ele><time>2026-05-01T15:04:49.068Z</time></trkpt><trkpt lat="35.7482585" lon="8.3683788"><ele>988.0</ele><time>2026-05-01T15:04:51.099Z</time></trkpt><trkpt lat="35.7483359" lon="8.3682988"><ele>985.5000000000001</ele><time>2026-05-01T15:04:53.095Z</time></trkpt><trkpt lat="35.7484381" lon="8.3682984"><ele>983.0</ele><time>2026-05-01T15:04:55.081Z</time></trkpt><trkpt lat="35.7485017" lon="8.3683066"><ele>980.5000000000001</ele><time>2026-05-01T15:04:56.074Z</time></trkpt><trkpt lat="35.7485715" lon="8.3683299"><ele>978.0</ele><time>2026-05-01T15:04:57.058Z</time></trkpt><trkpt lat="35.7486523" lon="8.3683641"><ele>975.5</ele><time>2026-05-01T15:04:58.07Z</time></trkpt><trkpt lat="35.7487323" lon="8.3683972"><ele>973.0</ele><time>2026-05-01T15:04:59.062Z</time></trkpt><trkpt lat="35.7488221" lon="8.3684412"><ele>970.5000000000001</ele><time>2026-05-01T15:05:00.054Z</time></trkpt><trkpt lat="35.7488998" lon="8.3684896"><ele>968.0</ele><time>2026-05-01T15:05:01.106Z</time></trkpt><trkpt lat="35.7489782" lon="8.3685535"><ele>968.0</ele><time>2026-05-01T15:05:02.076Z</time></trkpt><trkpt lat="35.7490567" lon="8.368619"><ele>968.0</ele><time>2026-05-01T15:05:03.097Z</time></trkpt><trkpt lat="35.7491364" lon="8.368693"><ele>968.0</ele><time>2026-05-01T15:05:04.084Z</time></trkpt><trkpt lat="35.7492139" lon="8.3687779"><ele>968.0</ele><time>2026-05-01T15:05:05.103Z</time></trkpt><trkpt lat="35.7492977" lon="8.368867"><ele>968.0</ele><time>2026-05-01T15:05:06.083Z</time></trkpt><trkpt lat="35.7493746" lon="8.3689537"><ele>967.4</ele><time>2026-05-01T15:05:07.043Z</time></trkpt><trkpt lat="35.7494506" lon="8.3690439"><ele>966.8</ele><time>2026-05-01T15:05:08.035Z</time></trkpt><trkpt lat="35.7495233" lon="8.3691229"><ele>966.2</ele><time>2026-05-01T15:05:09.08Z</time></trkpt><trkpt lat="35.7495964" lon="8.369196"><ele>965.6</ele><time>2026-05-01T15:05:10.09Z</time></trkpt><trkpt lat="35.7496662" lon="8.3692705"><ele>965.0</ele><time>2026-05-01T15:05:11.084Z</time></trkpt><trkpt lat="35.7497351" lon="8.3693358"><ele>965.0000000000001</ele><time>2026-05-01T15:05:12.065Z</time></trkpt><trkpt lat="35.7498062" lon="8.3693919"><ele>965.0</ele><time>2026-05-01T15:05:13.088Z</time></trkpt><trkpt lat="35.7498737" lon="8.3694454"><ele>965.0</ele><time>2026-05-01T15:05:14.069Z</time></trkpt><trkpt lat="35.7499455" lon="8.3694986"><ele>965.0</ele><time>2026-05-01T15:05:15.103Z</time></trkpt><trkpt lat="35.7500166" lon="8.3695533"><ele>965.0000000000001</ele><time>2026-05-01T15:05:16.042Z</time></trkpt><trkpt lat="35.7500816" lon="8.3696088"><ele>965.0</ele><time>2026-05-01T15:05:17.028Z</time></trkpt><trkpt lat="35.7501444" lon="8.3696613"><ele>964.0</ele><time>2026-05-01T15:05:18.064Z</time></trkpt><trkpt lat="35.7501994" lon="8.3697"><ele>963.0</ele><time>2026-05-01T15:05:19.031Z</time></trkpt><trkpt lat="35.7503061" lon="8.3697456"><ele>962.0</ele><time>2026-05-01T15:05:21.04Z</time></trkpt><trkpt lat="35.7504136" lon="8.369713"><ele>961.0</ele><time>2026-05-01T15:05:23.031Z</time></trkpt><trkpt lat="35.7504835" lon="8.3695995"><ele>960.0</ele><time>2026-05-01T15:05:25.028Z</time></trkpt><trkpt lat="35.750472" lon="8.3694461"><ele>958.75</ele><time>2026-05-01T15:05:27.055Z</time></trkpt><trkpt lat="35.7504216" lon="8.3692981"><ele>957.5</ele><time>2026-05-01T15:05:29.041Z</time></trkpt><trkpt lat="35.7503567" lon="8.3691538"><ele>956.25</ele><time>2026-05-01T15:05:31.068Z</time></trkpt><trkpt lat="35.7502842" lon="8.3690408"><ele>955.0</ele><time>2026-05-01T15:05:33.074Z</time></trkpt><trkpt lat="35.7502011" lon="8.3689288"><ele>955.2</ele><time>2026-05-01T15:05:35.083Z</time></trkpt><trkpt lat="35.7501106" lon="8.3688094"><ele>955.4</ele><time>2026-05-01T15:05:37.088Z</time></trkpt><trkpt lat="35.7500557" lon="8.3687397"><ele>955.5999999999999</ele><time>2026-05-01T15:05:38.062Z</time></trkpt><trkpt lat="35.750005" lon="8.3686695"><ele>955.8</ele><time>2026-05-01T15:05:39.059Z</time></trkpt><trkpt lat="35.749949" lon="8.3685933"><ele>956.0</ele><time>2026-05-01T15:05:40.078Z</time></trkpt><trkpt lat="35.7498936" lon="8.3685101"><ele>956.0000000000001</ele><time>2026-05-01T15:05:41.059Z</time></trkpt><trkpt lat="35.7498423" lon="8.3684251"><ele>956.0</ele><time>2026-05-01T15:05:42.089Z</time></trkpt><trkpt lat="35.7497908" lon="8.3683358"><ele>956.0</ele><time>2026-05-01T15:05:43.054Z</time></trkpt><trkpt lat="35.7497384" lon="8.3682482"><ele>956.0</ele><time>2026-05-01T15:05:44.069Z</time></trkpt><trkpt lat="35.7496903" lon="8.368164"><ele>956.0000000000001</ele><time>2026-05-01T15:05:45.084Z</time></trkpt><trkpt lat="35.7496365" lon="8.3680795"><ele>956.0</ele><time>2026-05-01T15:05:46.088Z</time></trkpt><trkpt lat="35.7495811" lon="8.3679932"><ele>956.5000000000001</ele><time>2026-05-01T15:05:47.07Z</time></trkpt><trkpt lat="35.7495254" lon="8.3679098"><ele>957.0</ele><time>2026-05-01T15:05:48.091Z</time></trkpt><trkpt lat="35.7494612" lon="8.3678347"><ele>957.5</ele><time>2026-05-01T15:05:49.063Z</time></trkpt><trkpt lat="35.7494018" lon="8.3677616"><ele>958.0</ele><time>2026-05-01T15:05:50.088Z</time></trkpt><trkpt lat="35.7493404" lon="8.3676952"><ele>958.5000000000001</ele><time>2026-05-01T15:05:51.099Z</time></trkpt><trkpt lat="35.749282" lon="8.3676284"><ele>959.0</ele><time>2026-05-01T15:05:52.043Z</time></trkpt><trkpt lat="35.7492197" lon="8.3675583"><ele>959.0000000000001</ele><time>2026-05-01T15:05:53.089Z</time></trkpt><trkpt lat="35.7491537" lon="8.3674867"><ele>959.0</ele><time>2026-05-01T15:05:54.099Z</time></trkpt><trkpt lat="35.7490861" lon="8.3674122"><ele>959.0</ele><time>2026-05-01T15:05:55.095Z</time></trkpt><trkpt lat="35.7490143" lon="8.3673418"><ele>959.0</ele><time>2026-05-01T15:05:56.088Z</time></trkpt><trkpt lat="35.7489432" lon="8.3672784"><ele>959.0000000000001</ele><time>2026-05-01T15:05:57.091Z</time></trkpt><trkpt lat="35.7488719" lon="8.3672132"><ele>959.0</ele><time>2026-05-01T15:05:58.099Z</time></trkpt><trkpt lat="35.7488039" lon="8.3671505"><ele>958.5000000000001</ele><time>2026-05-01T15:05:59.069Z</time></trkpt><trkpt lat="35.7487363" lon="8.3670846"><ele>958.0</ele><time>2026-05-01T15:06:00.032Z</time></trkpt><trkpt lat="35.7486697" lon="8.3670142"><ele>957.5</ele><time>2026-05-01T15:06:01.048Z</time></trkpt><trkpt lat="35.7486069" lon="8.3669444"><ele>957.0</ele><time>2026-05-01T15:06:02.028Z</time></trkpt><trkpt lat="35.748547" lon="8.3668856"><ele>956.5000000000001</ele><time>2026-05-01T15:06:03.047Z</time></trkpt><trkpt lat="35.748492" lon="8.3668296"><ele>956.0</ele><time>2026-05-01T15:06:04.061Z</time></trkpt><trkpt lat="35.7484319" lon="8.3667796"><ele>956.0</ele><time>2026-05-01T15:06:05.041Z</time></trkpt><trkpt lat="35.7483696" lon="8.366751"><ele>955.9999999999999</ele><time>2026-05-01T15:06:06.048Z</time></trkpt><trkpt lat="35.7482955" lon="8.3667252"><ele>955.9999999999999</ele><time>2026-05-01T15:06:07.03Z</time></trkpt><trkpt lat="35.7482054" lon="8.3667147"><ele>956.0</ele><time>2026-05-01T15:06:08.044Z</time></trkpt><trkpt lat="35.7481023" lon="8.366718"><ele>956.0</ele><time>2026-05-01T15:06:09.028Z</time></trkpt><trkpt lat="35.7479889" lon="8.3667236"><ele>956.0</ele><time>2026-05-01T15:06:10.043Z</time></trkpt><trkpt lat="35.7478791" lon="8.3667308"><ele>956.0</ele><time>2026-05-01T15:06:11.086Z</time></trkpt><trkpt lat="35.7477597" lon="8.3667489"><ele>956.0</ele><time>2026-05-01T15:06:12.077Z</time></trkpt><trkpt lat="35.7476491" lon="8.3667614"><ele>956.0</ele><time>2026-05-01T15:06:13.031Z</time></trkpt><trkpt lat="35.7475352" lon="8.366781"><ele>955.75</ele><time>2026-05-01T15:06:14.027Z</time></trkpt><trkpt lat="35.747417" lon="8.3668027"><ele>955.5</ele><time>2026-05-01T15:06:15.054Z</time></trkpt><trkpt lat="35.7473" lon="8.3668252"><ele>955.25</ele><time>2026-05-01T15:06:16.072Z</time></trkpt><trkpt lat="35.747184" lon="8.3668411"><ele>955.0</ele><time>2026-05-01T15:06:17.031Z</time></trkpt><trkpt lat="35.7470752" lon="8.366859"><ele>955.0</ele><time>2026-05-01T15:06:18.06Z</time></trkpt><trkpt lat="35.7469658" lon="8.3668809"><ele>955.0</ele><time>2026-05-01T15:06:19.03Z</time></trkpt><trkpt lat="35.7468595" lon="8.3668996"><ele>955.0</ele><time>2026-05-01T15:06:20.062Z</time></trkpt><trkpt lat="35.7467513" lon="8.3669152"><ele>955.0</ele><time>2026-05-01T15:06:21.044Z</time></trkpt><trkpt lat="35.7466435" lon="8.3669319"><ele>955.0</ele><time>2026-05-01T15:06:22.048Z</time></trkpt><trkpt lat="35.7465366" lon="8.3669489"><ele>954.8</ele><time>2026-05-01T15:06:23.043Z</time></trkpt><trkpt lat="35.7464306" lon="8.3669694"><ele>954.6</ele><time>2026-05-01T15:06:24.074Z</time></trkpt><trkpt lat="35.7463263" lon="8.3669845"><ele>954.4000000000001</ele><time>2026-05-01T15:06:25.077Z</time></trkpt><trkpt lat="35.7462305" lon="8.366997"><ele>954.2</ele><time>2026-05-01T15:06:26.082Z</time></trkpt><trkpt lat="35.7461339" lon="8.3670133"><ele>954.0</ele><time>2026-05-01T15:06:27.053Z</time></trkpt><trkpt lat="35.7460366" lon="8.3670271"><ele>953.8333333333334</ele><time>2026-05-01T15:06:28.061Z</time></trkpt><trkpt lat="35.7459422" lon="8.3670399"><ele>953.6666666666667</ele><time>2026-05-01T15:06:29.086Z</time></trkpt><trkpt lat="35.7458554" lon="8.3670473"><ele>953.5</ele><time>2026-05-01T15:06:30.077Z</time></trkpt><trkpt lat="35.7457655" lon="8.3670339"><ele>953.3333333333334</ele><time>2026-05-01T15:06:31.085Z</time></trkpt><trkpt lat="35.7456851" lon="8.367"><ele>953.1666666666667</ele><time>2026-05-01T15:06:32.083Z</time></trkpt><trkpt lat="35.745628" lon="8.3669568"><ele>953.0</ele><time>2026-05-01T15:06:33.049Z</time></trkpt><trkpt lat="35.745585" lon="8.3668952"><ele>953.0000000000001</ele><time>2026-05-01T15:06:34.032Z</time></trkpt><trkpt lat="35.7455447" lon="8.3668231"><ele>953.0</ele><time>2026-05-01T15:06:35.057Z</time></trkpt><trkpt lat="35.7455065" lon="8.3667376"><ele>953.0</ele><time>2026-05-01T15:06:36.075Z</time></trkpt><trkpt lat="35.7454719" lon="8.3666304"><ele>953.0</ele><time>2026-05-01T15:06:37.075Z</time></trkpt><trkpt lat="35.7454345" lon="8.3665174"><ele>953.0000000000001</ele><time>2026-05-01T15:06:38.061Z</time></trkpt><trkpt lat="35.7453946" lon="8.3663959"><ele>953.0</ele><time>2026-05-01T15:06:39.072Z</time></trkpt><trkpt lat="35.7453539" lon="8.3662832"><ele>953.0000000000001</ele><time>2026-05-01T15:06:40.065Z</time></trkpt><trkpt lat="35.745318" lon="8.3661823"><ele>953.0</ele><time>2026-05-01T15:06:41.064Z</time></trkpt><trkpt lat="35.7452781" lon="8.3660867"><ele>953.0</ele><time>2026-05-01T15:06:42.037Z</time></trkpt><trkpt lat="35.7452295" lon="8.3659958"><ele>953.0</ele><time>2026-05-01T15:06:43.078Z</time></trkpt><trkpt lat="35.7451695" lon="8.3659273"><ele>953.0000000000001</ele><time>2026-05-01T15:06:44.058Z</time></trkpt><trkpt lat="35.7450942" lon="8.3658753"><ele>953.0</ele><time>2026-05-01T15:06:45.056Z</time></trkpt><trkpt lat="35.7450259" lon="8.3658186"><ele>953.0</ele><time>2026-05-01T15:06:46.081Z</time></trkpt><trkpt lat="35.7449517" lon="8.3657517"><ele>953.0</ele><time>2026-05-01T15:06:47.085Z</time></trkpt><trkpt lat="35.7448915" lon="8.3656665"><ele>953.0</ele><time>2026-05-01T15:06:48.074Z</time></trkpt><trkpt lat="35.7448362" lon="8.365576"><ele>953.0</ele><time>2026-05-01T15:06:49.089Z</time></trkpt><trkpt lat="35.7447927" lon="8.3654732"><ele>953.0</ele><time>2026-05-01T15:06:50.085Z</time></trkpt><trkpt lat="35.7447531" lon="8.3653622"><ele>951.2</ele><time>2026-05-01T15:06:51.062Z</time></trkpt><trkpt lat="35.7447337" lon="8.3652475"><ele>949.4</ele><time>2026-05-01T15:06:52.091Z</time></trkpt><trkpt lat="35.7447185" lon="8.3651202"><ele>947.6000000000001</ele><time>2026-05-01T15:06:53.053Z</time></trkpt><trkpt lat="35.7447011" lon="8.3649831"><ele>945.8000000000001</ele><time>2026-05-01T15:06:54.065Z</time></trkpt><trkpt lat="35.7446964" lon="8.3648442"><ele>944.0</ele><time>2026-05-01T15:06:55.094Z</time></trkpt><trkpt lat="35.7447" lon="8.3647074"><ele>941.75</ele><time>2026-05-01T15:06:56.096Z</time></trkpt><trkpt lat="35.7447161" lon="8.3645651"><ele>939.5</ele><time>2026-05-01T15:06:57.096Z</time></trkpt><trkpt lat="35.7447389" lon="8.3644277"><ele>937.25</ele><time>2026-05-01T15:06:58.085Z</time></trkpt><trkpt lat="35.7447695" lon="8.364292"><ele>935.0</ele><time>2026-05-01T15:06:59.097Z</time></trkpt><trkpt lat="35.7448049" lon="8.3641625"><ele>935.0</ele><time>2026-05-01T15:07:00.094Z</time></trkpt><trkpt lat="35.7448388" lon="8.364029"><ele>935.0</ele><time>2026-05-01T15:07:01.093Z</time></trkpt><trkpt lat="35.7448692" lon="8.3638939"><ele>935.0</ele><time>2026-05-01T15:07:02.09Z</time></trkpt><trkpt lat="35.744901" lon="8.3637605"><ele>935.0</ele><time>2026-05-01T15:07:03.064Z</time></trkpt><trkpt lat="35.7449306" lon="8.3636249"><ele>935.0</ele><time>2026-05-01T15:07:04.085Z</time></trkpt><trkpt lat="35.7449538" lon="8.3634884"><ele>935.0</ele><time>2026-05-01T15:07:05.092Z</time></trkpt><trkpt lat="35.7449722" lon="8.3633559"><ele>935.0</ele><time>2026-05-01T15:07:06.09Z</time></trkpt><trkpt lat="35.7449811" lon="8.3632334"><ele>935.0</ele><time>2026-05-01T15:07:07.074Z</time></trkpt><trkpt lat="35.7449842" lon="8.3630996"><ele>935.0</ele><time>2026-05-01T15:07:08.092Z</time></trkpt><trkpt lat="35.7449701" lon="8.3629667"><ele>933.8</ele><time>2026-05-01T15:07:09.069Z</time></trkpt><trkpt lat="35.7449619" lon="8.3628545"><ele>932.6</ele><time>2026-05-01T15:07:10.095Z</time></trkpt><trkpt lat="35.7449526" lon="8.3627651"><ele>931.4000000000001</ele><time>2026-05-01T15:07:11.039Z</time></trkpt><trkpt lat="35.7449482" lon="8.3626804"><ele>930.2</ele><time>2026-05-01T15:07:12.093Z</time></trkpt><trkpt lat="35.74497" lon="8.3625388"><ele>929.0</ele><time>2026-05-01T15:07:14.093Z</time></trkpt><trkpt lat="35.7450575" lon="8.3624665"><ele>929.0</ele><time>2026-05-01T15:07:16.09Z</time></trkpt><trkpt lat="35.7451738" lon="8.3624944"><ele>929.0000000000001</ele><time>2026-05-01T15:07:18.102Z</time></trkpt><trkpt lat="35.7452378" lon="8.3625353"><ele>929.0000000000001</ele><time>2026-05-01T15:07:19.096Z</time></trkpt><trkpt lat="35.7453017" lon="8.3625934"><ele>929.0</ele><time>2026-05-01T15:07:20.058Z</time></trkpt><trkpt lat="35.7453713" lon="8.3626584"><ele>929.0</ele><time>2026-05-01T15:07:21.076Z</time></trkpt><trkpt lat="35.7454556" lon="8.3627168"><ele>927.4000000000001</ele><time>2026-05-01T15:07:22.09Z</time></trkpt><trkpt lat="35.7455402" lon="8.3627857"><ele>925.8000000000001</ele><time>2026-05-01T15:07:23.087Z</time></trkpt><trkpt lat="35.7456264" lon="8.3628535"><ele>924.1999999999999</ele><time>2026-05-01T15:07:24.089Z</time></trkpt><trkpt lat="35.7457166" lon="8.3629092"><ele>922.5999999999999</ele><time>2026-05-01T15:07:25.087Z</time></trkpt><trkpt lat="35.7458068" lon="8.3629623"><ele>921.0</ele><time>2026-05-01T15:07:26.082Z</time></trkpt><trkpt lat="35.7458943" lon="8.3629916"><ele>921.0</ele><time>2026-05-01T15:07:27.091Z</time></trkpt><trkpt lat="35.7459879" lon="8.3629963"><ele>920.9999999999999</ele><time>2026-05-01T15:07:28.088Z</time></trkpt><trkpt lat="35.7460821" lon="8.3629875"><ele>920.9999999999999</ele><time>2026-05-01T15:07:29.101Z</time></trkpt><trkpt lat="35.7461817" lon="8.3629721"><ele>921.0</ele><time>2026-05-01T15:07:30.096Z</time></trkpt><trkpt lat="35.7462906" lon="8.3629505"><ele>921.0</ele><time>2026-05-01T15:07:31.039Z</time></trkpt><trkpt lat="35.7463978" lon="8.362926"><ele>919.0</ele><time>2026-05-01T15:07:32.076Z</time></trkpt><trkpt lat="35.7465193" lon="8.3629079"><ele>917.0</ele><time>2026-05-01T15:07:33.098Z</time></trkpt><trkpt lat="35.7466388" lon="8.3628971"><ele>915.0</ele><time>2026-05-01T15:07:34.086Z</time></trkpt><trkpt lat="35.7467577" lon="8.3628791"><ele>913.0</ele><time>2026-05-01T15:07:35.088Z</time></trkpt><trkpt lat="35.7468797" lon="8.3628628"><ele>911.0</ele><time>2026-05-01T15:07:36.065Z</time></trkpt><trkpt lat="35.746997" lon="8.3628404"><ele>909.0</ele><time>2026-05-01T15:07:37.099Z</time></trkpt><trkpt lat="35.747113" lon="8.362806"><ele>907.0</ele><time>2026-05-01T15:07:38.09Z</time></trkpt><trkpt lat="35.7472272" lon="8.3627501"><ele>905.0</ele><time>2026-05-01T15:07:39.089Z</time></trkpt><trkpt lat="35.7473308" lon="8.3626826"><ele>905.0</ele><time>2026-05-01T15:07:40.069Z</time></trkpt><trkpt lat="35.7474398" lon="8.3625995"><ele>905.0</ele><time>2026-05-01T15:07:41.091Z</time></trkpt><trkpt lat="35.7475435" lon="8.3625097"><ele>905.0</ele><time>2026-05-01T15:07:42.095Z</time></trkpt><trkpt lat="35.7476423" lon="8.3624114"><ele>905.0</ele><time>2026-05-01T15:07:43.104Z</time></trkpt><trkpt lat="35.747733" lon="8.3623047"><ele>901.75</ele><time>2026-05-01T15:07:44.081Z</time></trkpt><trkpt lat="35.7478186" lon="8.3621889"><ele>898.5</ele><time>2026-05-01T15:07:45.06Z</time></trkpt><trkpt lat="35.7478994" lon="8.362067"><ele>895.25</ele><time>2026-05-01T15:07:46.082Z</time></trkpt><trkpt lat="35.7479685" lon="8.3619459"><ele>892.0</ele><time>2026-05-01T15:07:47.095Z</time></trkpt><trkpt lat="35.7480282" lon="8.3618247"><ele>892.0</ele><time>2026-05-01T15:07:48.093Z</time></trkpt><trkpt lat="35.7480849" lon="8.3617056"><ele>892.0</ele><time>2026-05-01T15:07:49.083Z</time></trkpt><trkpt lat="35.7481551" lon="8.3615949"><ele>892.0</ele><time>2026-05-01T15:07:50.091Z</time></trkpt><trkpt lat="35.7482368" lon="8.3614911"><ele>892.0</ele><time>2026-05-01T15:07:51.09Z</time></trkpt><trkpt lat="35.7483258" lon="8.3613916"><ele>891.25</ele><time>2026-05-01T15:07:52.087Z</time></trkpt><trkpt lat="35.7484227" lon="8.3613008"><ele>890.5</ele><time>2026-05-01T15:07:53.087Z</time></trkpt><trkpt lat="35.7485235" lon="8.3612269"><ele>889.75</ele><time>2026-05-01T15:07:54.065Z</time></trkpt><trkpt lat="35.7486257" lon="8.3611522"><ele>889.0</ele><time>2026-05-01T15:07:55.089Z</time></trkpt><trkpt lat="35.7487307" lon="8.3610757"><ele>888.0</ele><time>2026-05-01T15:07:56.085Z</time></trkpt><trkpt lat="35.7488394" lon="8.3610016"><ele>887.0</ele><time>2026-05-01T15:07:57.092Z</time></trkpt><trkpt lat="35.7489523" lon="8.3609291"><ele>886.0</ele><time>2026-05-01T15:07:58.099Z</time></trkpt><trkpt lat="35.7490617" lon="8.3608581"><ele>885.0</ele><time>2026-05-01T15:07:59.08Z</time></trkpt><trkpt lat="35.7491736" lon="8.3607947"><ele>885.0</ele><time>2026-05-01T15:08:00.1Z</time></trkpt><trkpt lat="35.7492829" lon="8.3607326"><ele>885.0</ele><time>2026-05-01T15:08:01.121Z</time></trkpt><trkpt lat="35.7493908" lon="8.3606721"><ele>885.0</ele><time>2026-05-01T15:08:02.095Z</time></trkpt><trkpt lat="35.7494981" lon="8.3606146"><ele>885.0</ele><time>2026-05-01T15:08:03.086Z</time></trkpt><trkpt lat="35.7496076" lon="8.3605582"><ele>881.75</ele><time>2026-05-01T15:08:04.087Z</time></trkpt><trkpt lat="35.7497195" lon="8.3605058"><ele>878.5</ele><time>2026-05-01T15:08:05.083Z</time></trkpt><trkpt lat="35.7498335" lon="8.3604483"><ele>875.25</ele><time>2026-05-01T15:08:06.093Z</time></trkpt><trkpt lat="35.7499436" lon="8.3603867"><ele>872.0</ele><time>2026-05-01T15:08:07.097Z</time></trkpt><trkpt lat="35.7500522" lon="8.3603186"><ele>872.0</ele><time>2026-05-01T15:08:08.094Z</time></trkpt><trkpt lat="35.7501662" lon="8.3602361"><ele>872.0</ele><time>2026-05-01T15:08:09.094Z</time></trkpt><trkpt lat="35.7502716" lon="8.3601429"><ele>872.0</ele><time>2026-05-01T15:08:10.038Z</time></trkpt><trkpt lat="35.7503738" lon="8.3600378"><ele>872.0</ele><time>2026-05-01T15:08:11.089Z</time></trkpt><trkpt lat="35.7504711" lon="8.359921"><ele>871.25</ele><time>2026-05-01T15:08:12.066Z</time></trkpt><trkpt lat="35.75056" lon="8.3597861"><ele>870.5</ele><time>2026-05-01T15:08:13.112Z</time></trkpt><trkpt lat="35.7506477" lon="8.3596498"><ele>869.75</ele><time>2026-05-01T15:08:14.067Z</time></trkpt><trkpt lat="35.7507246" lon="8.3595217"><ele>869.0</ele><time>2026-05-01T15:08:15.076Z</time></trkpt><trkpt lat="35.7507986" lon="8.3593851"><ele>868.0</ele><time>2026-05-01T15:08:16.084Z</time></trkpt><trkpt lat="35.7508684" lon="8.3592499"><ele>867.0</ele><time>2026-05-01T15:08:17.097Z</time></trkpt><trkpt lat="35.7509219" lon="8.359101"><ele>866.0</ele><time>2026-05-01T15:08:18.109Z</time></trkpt><trkpt lat="35.7509687" lon="8.3589561"><ele>865.0</ele><time>2026-05-01T15:08:19.089Z</time></trkpt><trkpt lat="35.751016" lon="8.3588125"><ele>862.75</ele><time>2026-05-01T15:08:20.087Z</time></trkpt><trkpt lat="35.7510586" lon="8.3586742"><ele>860.5</ele><time>2026-05-01T15:08:21.055Z</time></trkpt><trkpt lat="35.7511022" lon="8.3585338"><ele>858.25</ele><time>2026-05-01T15:08:22.083Z</time></trkpt><trkpt lat="35.7511453" lon="8.3583878"><ele>856.0</ele><time>2026-05-01T15:08:23.081Z</time></trkpt><trkpt lat="35.7511938" lon="8.3582381"><ele>856.0</ele><time>2026-05-01T15:08:24.076Z</time></trkpt><trkpt lat="35.7512464" lon="8.3580813"><ele>856.0</ele><time>2026-05-01T15:08:25.089Z</time></trkpt><trkpt lat="35.7513002" lon="8.3579252"><ele>856.0</ele><time>2026-05-01T15:08:26.095Z</time></trkpt><trkpt lat="35.7513554" lon="8.3577765"><ele>856.0</ele><time>2026-05-01T15:08:27.054Z</time></trkpt><trkpt lat="35.7514191" lon="8.3576282"><ele>854.75</ele><time>2026-05-01T15:08:28.072Z</time></trkpt><trkpt lat="35.7514867" lon="8.3574808"><ele>853.5</ele><time>2026-05-01T15:08:29.087Z</time></trkpt><trkpt lat="35.7515568" lon="8.3573293"><ele>852.25</ele><time>2026-05-01T15:08:30.097Z</time></trkpt><trkpt lat="35.7516294" lon="8.3571857"><ele>851.0</ele><time>2026-05-01T15:08:31.099Z</time></trkpt><trkpt lat="35.751711" lon="8.3570438"><ele>848.75</ele><time>2026-05-01T15:08:32.096Z</time></trkpt><trkpt lat="35.7517986" lon="8.3568995"><ele>846.5</ele><time>2026-05-01T15:08:33.109Z</time></trkpt><trkpt lat="35.7518889" lon="8.3567638"><ele>844.25</ele><time>2026-05-01T15:08:34.108Z</time></trkpt><trkpt lat="35.751976" lon="8.3566273"><ele>842.0</ele><time>2026-05-01T15:08:35.104Z</time></trkpt><trkpt lat="35.7520667" lon="8.3564874"><ele>839.25</ele><time>2026-05-01T15:08:36.093Z</time></trkpt><trkpt lat="35.7521556" lon="8.3563483"><ele>836.5</ele><time>2026-05-01T15:08:37.05Z</time></trkpt><trkpt lat="35.7522424" lon="8.3562086"><ele>833.75</ele><time>2026-05-01T15:08:38.102Z</time></trkpt><trkpt lat="35.7523394" lon="8.3560703"><ele>831.0</ele><time>2026-05-01T15:08:39.065Z</time></trkpt><trkpt lat="35.7524399" lon="8.355941"><ele>831.0</ele><time>2026-05-01T15:08:40.102Z</time></trkpt><trkpt lat="35.7525468" lon="8.355802"><ele>831.0</ele><time>2026-05-01T15:08:41.082Z</time></trkpt><trkpt lat="35.7526526" lon="8.3556656"><ele>831.0</ele><time>2026-05-01T15:08:42.085Z</time></trkpt><trkpt lat="35.7527607" lon="8.3555209"><ele>827.6666666666667</ele><time>2026-05-01T15:08:43.098Z</time></trkpt><trkpt lat="35.7528659" lon="8.3553644"><ele>824.3333333333334</ele><time>2026-05-01T15:08:44.05Z</time></trkpt><trkpt lat="35.7529721" lon="8.3552036"><ele>821.0</ele><time>2026-05-01T15:08:45.087Z</time></trkpt><trkpt lat="35.7530793" lon="8.355041"><ele>821.0</ele><time>2026-05-01T15:08:46.076Z</time></trkpt><trkpt lat="35.7531851" lon="8.3548716"><ele>821.0</ele><time>2026-05-01T15:08:47.075Z</time></trkpt><trkpt lat="35.7532882" lon="8.3547018"><ele>821.0</ele><time>2026-05-01T15:08:48.093Z</time></trkpt><trkpt lat="35.7533878" lon="8.3545314"><ele>819.6666666666667</ele><time>2026-05-01T15:08:49.065Z</time></trkpt><trkpt lat="35.7534824" lon="8.354357"><ele>818.3333333333333</ele><time>2026-05-01T15:08:50.069Z</time></trkpt><trkpt lat="35.7535709" lon="8.3541779"><ele>817.0</ele><time>2026-05-01T15:08:51.086Z</time></trkpt><trkpt lat="35.753657" lon="8.3539932"><ele>814.0</ele><time>2026-05-01T15:08:52.097Z</time></trkpt><trkpt lat="35.7537414" lon="8.3538113"><ele>811.0</ele><time>2026-05-01T15:08:53.069Z</time></trkpt><trkpt lat="35.7538248" lon="8.3536313"><ele>808.0</ele><time>2026-05-01T15:08:54.088Z</time></trkpt><trkpt lat="35.7539118" lon="8.3534505"><ele>808.0</ele><time>2026-05-01T15:08:55.067Z</time></trkpt><trkpt lat="35.7540011" lon="8.3532728"><ele>808.0</ele><time>2026-05-01T15:08:56.092Z</time></trkpt><trkpt lat="35.7540939" lon="8.3530935"><ele>808.0</ele><time>2026-05-01T15:08:57.083Z</time></trkpt><trkpt lat="35.7541912" lon="8.3529196"><ele>805.6666666666666</ele><time>2026-05-01T15:08:58.073Z</time></trkpt><trkpt lat="35.7542982" lon="8.3527512"><ele>803.3333333333333</ele><time>2026-05-01T15:08:59.087Z</time></trkpt><trkpt lat="35.7544021" lon="8.3525806"><ele>801.0</ele><time>2026-05-01T15:09:00.089Z</time></trkpt><trkpt lat="35.7545126" lon="8.3524081"><ele>799.6666666666667</ele><time>2026-05-01T15:09:01.063Z</time></trkpt><trkpt lat="35.7546203" lon="8.3522369"><ele>798.3333333333334</ele><time>2026-05-01T15:09:02.073Z</time></trkpt><trkpt lat="35.754732" lon="8.3520697"><ele>797.0</ele><time>2026-05-01T15:09:03.088Z</time></trkpt><trkpt lat="35.7548442" lon="8.3519011"><ele>794.3333333333334</ele><time>2026-05-01T15:09:04.066Z</time></trkpt><trkpt lat="35.7549598" lon="8.3517357"><ele>791.6666666666667</ele><time>2026-05-01T15:09:05.077Z</time></trkpt><trkpt lat="35.7550765" lon="8.3515713"><ele>789.0</ele><time>2026-05-01T15:09:06.038Z</time></trkpt><trkpt lat="35.7551851" lon="8.3514019"><ele>786.0</ele><time>2026-05-01T15:09:07.048Z</time></trkpt><trkpt lat="35.7552936" lon="8.3512389"><ele>783.0</ele><time>2026-05-01T15:09:08.052Z</time></trkpt><trkpt lat="35.7553961" lon="8.3510819"><ele>780.0</ele><time>2026-05-01T15:09:09.028Z</time></trkpt><trkpt lat="35.7554986" lon="8.3509243"><ele>780.0</ele><time>2026-05-01T15:09:10.045Z</time></trkpt><trkpt lat="35.755597" lon="8.3507683"><ele>780.0</ele><time>2026-05-01T15:09:11.046Z</time></trkpt><trkpt lat="35.7556868" lon="8.3506165"><ele>780.0</ele><time>2026-05-01T15:09:12.042Z</time></trkpt><trkpt lat="35.755781" lon="8.3504727"><ele>779.25</ele><time>2026-05-01T15:09:13.065Z</time></trkpt><trkpt lat="35.755875" lon="8.3503406"><ele>778.5</ele><time>2026-05-01T15:09:14.04Z</time></trkpt><trkpt lat="35.7559735" lon="8.3502132"><ele>777.75</ele><time>2026-05-01T15:09:15.064Z</time></trkpt><trkpt lat="35.756089" lon="8.350111"><ele>777.0</ele><time>2026-05-01T15:09:16.029Z</time></trkpt><trkpt lat="35.7562071" lon="8.3500228"><ele>775.0</ele><time>2026-05-01T15:09:17.031Z</time></trkpt><trkpt lat="35.7563335" lon="8.3499374"><ele>773.0</ele><time>2026-05-01T15:09:18.044Z</time></trkpt><trkpt lat="35.7564573" lon="8.3498447"><ele>771.0</ele><time>2026-05-01T15:09:19.036Z</time></trkpt><trkpt lat="35.7565849" lon="8.3497476"><ele>769.0</ele><time>2026-05-01T15:09:20.045Z</time></trkpt><trkpt lat="35.7567018" lon="8.3496421"><ele>768.25</ele><time>2026-05-01T15:09:21.041Z</time></trkpt><trkpt lat="35.7568202" lon="8.3495363"><ele>767.5</ele><time>2026-05-01T15:09:22.061Z</time></trkpt><trkpt lat="35.7569397" lon="8.3494307"><ele>766.75</ele><time>2026-05-01T15:09:23.054Z</time></trkpt><trkpt lat="35.7570627" lon="8.3493224"><ele>766.0</ele><time>2026-05-01T15:09:24.027Z</time></trkpt><trkpt lat="35.7571846" lon="8.3492186"><ele>764.0</ele><time>2026-05-01T15:09:25.063Z</time></trkpt><trkpt lat="35.7573107" lon="8.3491232"><ele>762.0</ele><time>2026-05-01T15:09:26.04Z</time></trkpt><trkpt lat="35.7574402" lon="8.3490315"><ele>760.0</ele><time>2026-05-01T15:09:27.034Z</time></trkpt><trkpt lat="35.7575748" lon="8.3489418"><ele>757.25</ele><time>2026-05-01T15:09:28.044Z</time></trkpt><trkpt lat="35.7577034" lon="8.3488513"><ele>754.5</ele><time>2026-05-01T15:09:29.049Z</time></trkpt><trkpt lat="35.7578303" lon="8.348766"><ele>751.75</ele><time>2026-05-01T15:09:30.062Z</time></trkpt><trkpt lat="35.7579569" lon="8.3486729"><ele>749.0</ele><time>2026-05-01T15:09:31.032Z</time></trkpt><trkpt lat="35.7580741" lon="8.3485746"><ele>749.0</ele><time>2026-05-01T15:09:32.044Z</time></trkpt><trkpt lat="35.758176" lon="8.3484629"><ele>749.0</ele><time>2026-05-01T15:09:33.056Z</time></trkpt><trkpt lat="35.7582752" lon="8.3483432"><ele>749.0</ele><time>2026-05-01T15:09:34.058Z</time></trkpt><trkpt lat="35.7583809" lon="8.3482169"><ele>749.0</ele><time>2026-05-01T15:09:35.042Z</time></trkpt><trkpt lat="35.7584787" lon="8.3480895"><ele>747.0</ele><time>2026-05-01T15:09:36.057Z</time></trkpt><trkpt lat="35.7585739" lon="8.347963"><ele>745.0</ele><time>2026-05-01T15:09:37.04Z</time></trkpt><trkpt lat="35.7586679" lon="8.3478373"><ele>743.0</ele><time>2026-05-01T15:09:38.057Z</time></trkpt><trkpt lat="35.7587664" lon="8.3477036"><ele>741.0</ele><time>2026-05-01T15:09:39.038Z</time></trkpt><trkpt lat="35.7588635" lon="8.3475705"><ele>741.0</ele><time>2026-05-01T15:09:40.086Z</time></trkpt><trkpt lat="35.7589624" lon="8.347435"><ele>741.0</ele><time>2026-05-01T15:09:41.034Z</time></trkpt><trkpt lat="35.7590566" lon="8.3472931"><ele>741.0</ele><time>2026-05-01T15:09:42.047Z</time></trkpt><trkpt lat="35.7591608" lon="8.3471569"><ele>741.0</ele><time>2026-05-01T15:09:43.056Z</time></trkpt><trkpt lat="35.7592593" lon="8.3470121"><ele>739.0</ele><time>2026-05-01T15:09:44.035Z</time></trkpt><trkpt lat="35.7593544" lon="8.3468754"><ele>737.0</ele><time>2026-05-01T15:09:45.049Z</time></trkpt><trkpt lat="35.7594444" lon="8.3467317"><ele>735.0</ele><time>2026-05-01T15:09:46.056Z</time></trkpt><trkpt lat="35.7595383" lon="8.3465935"><ele>733.0</ele><time>2026-05-01T15:09:47.053Z</time></trkpt><trkpt lat="35.7596267" lon="8.3464647"><ele>731.25</ele><time>2026-05-01T15:09:48.047Z</time></trkpt><trkpt lat="35.7597118" lon="8.3463406"><ele>729.5</ele><time>2026-05-01T15:09:49.063Z</time></trkpt><trkpt lat="35.7597954" lon="8.3462195"><ele>727.75</ele><time>2026-05-01T15:09:50.038Z</time></trkpt><trkpt lat="35.7598778" lon="8.3461049"><ele>726.0</ele><time>2026-05-01T15:09:51.03Z</time></trkpt><trkpt lat="35.7599666" lon="8.3460042"><ele>726.0</ele><time>2026-05-01T15:09:52.037Z</time></trkpt><trkpt lat="35.7600641" lon="8.3459088"><ele>726.0</ele><time>2026-05-01T15:09:53.049Z</time></trkpt><trkpt lat="35.7601657" lon="8.3458275"><ele>726.0</ele><time>2026-05-01T15:09:54.085Z</time></trkpt><trkpt lat="35.7602773" lon="8.3457519"><ele>726.0</ele><time>2026-05-01T15:09:55.071Z</time></trkpt><trkpt lat="35.760382" lon="8.3456766"><ele>724.5</ele><time>2026-05-01T15:09:56.049Z</time></trkpt><trkpt lat="35.7604833" lon="8.3455924"><ele>723.0</ele><time>2026-05-01T15:09:57.056Z</time></trkpt><trkpt lat="35.7605819" lon="8.345513"><ele>721.5</ele><time>2026-05-01T15:09:58.051Z</time></trkpt><trkpt lat="35.7606709" lon="8.3454208"><ele>720.0</ele><time>2026-05-01T15:09:59.059Z</time></trkpt><trkpt lat="35.7607455" lon="8.3453343"><ele>718.5</ele><time>2026-05-01T15:10:00.063Z</time></trkpt><trkpt lat="35.7608047" lon="8.3452445"><ele>717.0</ele><time>2026-05-01T15:10:01.031Z</time></trkpt><trkpt lat="35.7608574" lon="8.3451753"><ele>715.5</ele><time>2026-05-01T15:10:02.046Z</time></trkpt><trkpt lat="35.7609131" lon="8.345131"><ele>714.0</ele><time>2026-05-01T15:10:03.065Z</time></trkpt><trkpt lat="35.7609796" lon="8.3451049"><ele>712.5</ele><time>2026-05-01T15:10:04.097Z</time></trkpt><trkpt lat="35.7610548" lon="8.3450979"><ele>711.0</ele><time>2026-05-01T15:10:05.068Z</time></trkpt><trkpt lat="35.7611447" lon="8.3451105"><ele>709.4</ele><time>2026-05-01T15:10:06.062Z</time></trkpt><trkpt lat="35.761246" lon="8.3451434"><ele>707.8</ele><time>2026-05-01T15:10:07.045Z</time></trkpt><trkpt lat="35.7613444" lon="8.3451751"><ele>706.1999999999999</ele><time>2026-05-01T15:10:08.047Z</time></trkpt><trkpt lat="35.7614444" lon="8.345201"><ele>704.5999999999999</ele><time>2026-05-01T15:10:09.053Z</time></trkpt><trkpt lat="35.7615562" lon="8.3452284"><ele>703.0</ele><time>2026-05-01T15:10:10.089Z</time></trkpt><trkpt lat="35.7616724" lon="8.3452566"><ele>703.0</ele><time>2026-05-01T15:10:11.059Z</time></trkpt><trkpt lat="35.7617895" lon="8.345281"><ele>703.0</ele><time>2026-05-01T15:10:12.04Z</time></trkpt><trkpt lat="35.7618992" lon="8.3453007"><ele>703.0</ele><time>2026-05-01T15:10:13.03Z</time></trkpt><trkpt lat="35.7620049" lon="8.3453037"><ele>703.0</ele><time>2026-05-01T15:10:14.051Z</time></trkpt><trkpt lat="35.7621037" lon="8.3452914"><ele>703.0</ele><time>2026-05-01T15:10:15.054Z</time></trkpt><trkpt lat="35.762192" lon="8.3452519"><ele>701.0</ele><time>2026-05-01T15:10:16.048Z</time></trkpt><trkpt lat="35.7622848" lon="8.3451873"><ele>699.0</ele><time>2026-05-01T15:10:17.027Z</time></trkpt><trkpt lat="35.7623739" lon="8.3451158"><ele>697.0</ele><time>2026-05-01T15:10:18.087Z</time></trkpt><trkpt lat="35.7624649" lon="8.3450455"><ele>695.0</ele><time>2026-05-01T15:10:19.031Z</time></trkpt><trkpt lat="35.7625615" lon="8.344971"><ele>693.0</ele><time>2026-05-01T15:10:20.04Z</time></trkpt><trkpt lat="35.7626558" lon="8.344903"><ele>691.8</ele><time>2026-05-01T15:10:21.049Z</time></trkpt><trkpt lat="35.7627449" lon="8.3448345"><ele>690.5999999999999</ele><time>2026-05-01T15:10:22.056Z</time></trkpt><trkpt lat="35.7628344" lon="8.3447613"><ele>689.4000000000001</ele><time>2026-05-01T15:10:23.062Z</time></trkpt><trkpt lat="35.7629235" lon="8.3446867"><ele>688.2</ele><time>2026-05-01T15:10:24.054Z</time></trkpt><trkpt lat="35.7630091" lon="8.3446118"><ele>687.0</ele><time>2026-05-01T15:10:25.048Z</time></trkpt><trkpt lat="35.7630951" lon="8.3445416"><ele>687.0</ele><time>2026-05-01T15:10:26.051Z</time></trkpt><trkpt lat="35.7631727" lon="8.3444718"><ele>687.0</ele><time>2026-05-01T15:10:27.067Z</time></trkpt><trkpt lat="35.7632552" lon="8.3444046"><ele>687.0</ele><time>2026-05-01T15:10:28.052Z</time></trkpt><trkpt lat="35.7633287" lon="8.3443406"><ele>687.0</ele><time>2026-05-01T15:10:29.051Z</time></trkpt><trkpt lat="35.7634029" lon="8.3442822"><ele>687.0</ele><time>2026-05-01T15:10:30.049Z</time></trkpt><trkpt lat="35.7634731" lon="8.344222"><ele>685.8</ele><time>2026-05-01T15:10:31.054Z</time></trkpt><trkpt lat="35.7635477" lon="8.3441658"><ele>684.6</ele><time>2026-05-01T15:10:32.06Z</time></trkpt><trkpt lat="35.7636277" lon="8.3441158"><ele>683.4</ele><time>2026-05-01T15:10:33.041Z</time></trkpt><trkpt lat="35.7637102" lon="8.3440611"><ele>682.1999999999999</ele><time>2026-05-01T15:10:34.045Z</time></trkpt><trkpt lat="35.763792" lon="8.3440045"><ele>681.0</ele><time>2026-05-01T15:10:35.051Z</time></trkpt><trkpt lat="35.7638703" lon="8.3439475"><ele>681.0</ele><time>2026-05-01T15:10:36.047Z</time></trkpt><trkpt lat="35.763945" lon="8.3438836"><ele>681.0</ele><time>2026-05-01T15:10:37.092Z</time></trkpt><trkpt lat="35.7640221" lon="8.3438223"><ele>681.0</ele><time>2026-05-01T15:10:38.063Z</time></trkpt><trkpt lat="35.7640985" lon="8.3437601"><ele>681.0</ele><time>2026-05-01T15:10:39.038Z</time></trkpt><trkpt lat="35.7641761" lon="8.3437009"><ele>681.0</ele><time>2026-05-01T15:10:40.05Z</time></trkpt><trkpt lat="35.7642535" lon="8.3436355"><ele>680.8</ele><time>2026-05-01T15:10:41.048Z</time></trkpt><trkpt lat="35.7643328" lon="8.3435682"><ele>680.5999999999999</ele><time>2026-05-01T15:10:42.096Z</time></trkpt><trkpt lat="35.7644084" lon="8.3434964"><ele>680.4</ele><time>2026-05-01T15:10:43.035Z</time></trkpt><trkpt lat="35.7644845" lon="8.3434246"><ele>680.2</ele><time>2026-05-01T15:10:44.046Z</time></trkpt><trkpt lat="35.7645585" lon="8.3433576"><ele>680.0</ele><time>2026-05-01T15:10:45.027Z</time></trkpt><trkpt lat="35.7646262" lon="8.3432847"><ele>679.1666666666666</ele><time>2026-05-01T15:10:46.032Z</time></trkpt><trkpt lat="35.7646924" lon="8.3432156"><ele>678.3333333333333</ele><time>2026-05-01T15:10:47.044Z</time></trkpt><trkpt lat="35.7647597" lon="8.3431592"><ele>677.5</ele><time>2026-05-01T15:10:48.057Z</time></trkpt><trkpt lat="35.7648234" lon="8.3430984"><ele>676.6666666666666</ele><time>2026-05-01T15:10:49.071Z</time></trkpt><trkpt lat="35.7648755" lon="8.3430495"><ele>675.8333333333334</ele><time>2026-05-01T15:10:50.03Z</time></trkpt><trkpt lat="35.7649216" lon="8.3429957"><ele>675.0</ele><time>2026-05-01T15:10:51.055Z</time></trkpt><trkpt lat="35.7650047" lon="8.3429201"><ele>674.6666666666666</ele><time>2026-05-01T15:10:53.051Z</time></trkpt><trkpt lat="35.7650651" lon="8.3428624"><ele>674.3333333333334</ele><time>2026-05-01T15:10:55.047Z</time></trkpt><trkpt lat="35.7651395" lon="8.3428062"><ele>674.0</ele><time>2026-05-01T15:10:57.056Z</time></trkpt><trkpt lat="35.7652129" lon="8.3427522"><ele>673.6666666666667</ele><time>2026-05-01T15:10:59.035Z</time></trkpt><trkpt lat="35.7652711" lon="8.3426998"><ele>673.3333333333334</ele><time>2026-05-01T15:11:01.033Z</time></trkpt><trkpt lat="35.7653345" lon="8.3426123"><ele>673.0</ele><time>2026-05-01T15:11:03.057Z</time></trkpt><trkpt lat="35.7653971" lon="8.3425013"><ele>671.8</ele><time>2026-05-01T15:11:05.041Z</time></trkpt><trkpt lat="35.765443" lon="8.3423927"><ele>670.5999999999999</ele><time>2026-05-01T15:11:07.089Z</time></trkpt><trkpt lat="35.7654796" lon="8.3422646"><ele>669.4000000000001</ele><time>2026-05-01T15:11:09.039Z</time></trkpt><trkpt lat="35.7655005" lon="8.3421909"><ele>668.2</ele><time>2026-05-01T15:11:10.062Z</time></trkpt><trkpt lat="35.7655503" lon="8.3420612"><ele>667.0</ele><time>2026-05-01T15:11:12.059Z</time></trkpt><trkpt lat="35.7655695" lon="8.3419847"><ele>667.0</ele><time>2026-05-01T15:11:13.038Z</time></trkpt><trkpt lat="35.7656169" lon="8.3418376"><ele>667.0</ele><time>2026-05-01T15:11:15.031Z</time></trkpt><trkpt lat="35.7656716" lon="8.3416931"><ele>667.0</ele><time>2026-05-01T15:11:17.043Z</time></trkpt><trkpt lat="35.7657229" lon="8.3415572"><ele>667.0</ele><time>2026-05-01T15:11:19.073Z</time></trkpt><trkpt lat="35.7657677" lon="8.3414131"><ele>666.7142857142858</ele><time>2026-05-01T15:11:21.047Z</time></trkpt><trkpt lat="35.7657989" lon="8.3413359"><ele>666.4285714285714</ele><time>2026-05-01T15:11:22.052Z</time></trkpt><trkpt lat="35.7658296" lon="8.3412532"><ele>666.1428571428571</ele><time>2026-05-01T15:11:23.044Z</time></trkpt><trkpt lat="35.7658582" lon="8.3411676"><ele>665.8571428571429</ele><time>2026-05-01T15:11:24.029Z</time></trkpt><trkpt lat="35.7658976" lon="8.3410945"><ele>665.5714285714286</ele><time>2026-05-01T15:11:25.045Z</time></trkpt><trkpt lat="35.7659265" lon="8.3410178"><ele>665.2857142857143</ele><time>2026-05-01T15:11:26.033Z</time></trkpt><trkpt lat="35.7659528" lon="8.3409373"><ele>665.0</ele><time>2026-05-01T15:11:27.063Z</time></trkpt><trkpt lat="35.7659782" lon="8.340859"><ele>665.0</ele><time>2026-05-01T15:11:28.041Z</time></trkpt><trkpt lat="35.7660004" lon="8.3407802"><ele>665.0</ele><time>2026-05-01T15:11:29.047Z</time></trkpt><trkpt lat="35.7660205" lon="8.3407056"><ele>665.0</ele><time>2026-05-01T15:11:30.048Z</time></trkpt><trkpt lat="35.7660534" lon="8.3405991"><ele>665.0</ele><time>2026-05-01T15:11:32.057Z</time></trkpt><trkpt lat="35.7660828" lon="8.3405223"><ele>665.0</ele><time>2026-05-01T15:11:34.072Z</time></trkpt><trkpt lat="35.7661233" lon="8.340448"><ele>665.0</ele><time>2026-05-01T15:11:38.057Z</time></trkpt><trkpt lat="35.766221" lon="8.3404506"><ele>664.1666666666666</ele><time>2026-05-01T15:11:42.058Z</time></trkpt><trkpt lat="35.7663106" lon="8.3405385"><ele>663.3333333333333</ele><time>2026-05-01T15:11:44.057Z</time></trkpt><trkpt lat="35.7663681" lon="8.3405855"><ele>662.5</ele><time>2026-05-01T15:11:45.058Z</time></trkpt><trkpt lat="35.766425" lon="8.3406384"><ele>661.6666666666666</ele><time>2026-05-01T15:11:46.043Z</time></trkpt><trkpt lat="35.7664795" lon="8.340685"><ele>660.8333333333334</ele><time>2026-05-01T15:11:47.043Z</time></trkpt><trkpt lat="35.7665313" lon="8.3407318"><ele>660.0</ele><time>2026-05-01T15:11:48.036Z</time></trkpt><trkpt lat="35.7666157" lon="8.3408259"><ele>660.0</ele><time>2026-05-01T15:11:50.035Z</time></trkpt><trkpt lat="35.7666972" lon="8.3409241"><ele>660.0</ele><time>2026-05-01T15:11:52.048Z</time></trkpt><trkpt lat="35.7667891" lon="8.3410128"><ele>660.0</ele><time>2026-05-01T15:11:54.054Z</time></trkpt><trkpt lat="35.7668426" lon="8.3410548"><ele>660.0</ele><time>2026-05-01T15:11:55.032Z</time></trkpt><trkpt lat="35.7669049" lon="8.3410913"><ele>660.0</ele><time>2026-05-01T15:11:56.033Z</time></trkpt><trkpt lat="35.7669642" lon="8.3411254"><ele>660.0</ele><time>2026-05-01T15:11:57.03Z</time></trkpt><trkpt lat="35.7670284" lon="8.3411608"><ele>660.0000000000001</ele><time>2026-05-01T15:11:58.025Z</time></trkpt><trkpt lat="35.7670889" lon="8.3412027"><ele>660.0</ele><time>2026-05-01T15:11:59.031Z</time></trkpt><trkpt lat="35.7671524" lon="8.3412482"><ele>660.0</ele><time>2026-05-01T15:12:00.03Z</time></trkpt><trkpt lat="35.7672142" lon="8.3412929"><ele>660.0</ele><time>2026-05-01T15:12:01.032Z</time></trkpt><trkpt lat="35.7672775" lon="8.3413451"><ele>660.0</ele><time>2026-05-01T15:12:02.025Z</time></trkpt><trkpt lat="35.7673322" lon="8.3413933"><ele>660.0000000000001</ele><time>2026-05-01T15:12:03.037Z</time></trkpt><trkpt lat="35.7673991" lon="8.3414299"><ele>660.0</ele><time>2026-05-01T15:12:04.044Z</time></trkpt><trkpt lat="35.7674646" lon="8.3414539"><ele>660.0000000000001</ele><time>2026-05-01T15:12:05.042Z</time></trkpt><trkpt lat="35.7675371" lon="8.3414823"><ele>660.0</ele><time>2026-05-01T15:12:06.041Z</time></trkpt><trkpt lat="35.7676028" lon="8.3415054"><ele>660.0</ele><time>2026-05-01T15:12:07.035Z</time></trkpt><trkpt lat="35.7676742" lon="8.341537"><ele>660.0</ele><time>2026-05-01T15:12:08.034Z</time></trkpt><trkpt lat="35.7677397" lon="8.341571"><ele>660.0</ele><time>2026-05-01T15:12:09.036Z</time></trkpt><trkpt lat="35.7678012" lon="8.3416007"><ele>660.0000000000001</ele><time>2026-05-01T15:12:10.042Z</time></trkpt><trkpt lat="35.767864" lon="8.3416327"><ele>660.0</ele><time>2026-05-01T15:12:11.038Z</time></trkpt><trkpt lat="35.7679761" lon="8.3416918"><ele>659.5</ele><time>2026-05-01T15:12:13.043Z</time></trkpt><trkpt lat="35.7680955" lon="8.3417283"><ele>659.0</ele><time>2026-05-01T15:12:15.036Z</time></trkpt><trkpt lat="35.7681607" lon="8.3417389"><ele>658.5</ele><time>2026-05-01T15:12:16.024Z</time></trkpt><trkpt lat="35.7682301" lon="8.3417602"><ele>658.0</ele><time>2026-05-01T15:12:17.04Z</time></trkpt><trkpt lat="35.7682975" lon="8.3417798"><ele>657.5</ele><time>2026-05-01T15:12:18.033Z</time></trkpt><trkpt lat="35.7683641" lon="8.3418075"><ele>657.0</ele><time>2026-05-01T15:12:19.036Z</time></trkpt><trkpt lat="35.7684323" lon="8.3418409"><ele>657.0</ele><time>2026-05-01T15:12:20.038Z</time></trkpt><trkpt lat="35.7684983" lon="8.3418592"><ele>657.0</ele><time>2026-05-01T15:12:21.031Z</time></trkpt><trkpt lat="35.7685668" lon="8.341882"><ele>657.0</ele><time>2026-05-01T15:12:22.049Z</time></trkpt><trkpt lat="35.7686393" lon="8.3419093"><ele>657.0</ele><time>2026-05-01T15:12:23.051Z</time></trkpt><trkpt lat="35.7687132" lon="8.3419388"><ele>657.0</ele><time>2026-05-01T15:12:24.05Z</time></trkpt><trkpt lat="35.768789" lon="8.3419681"><ele>657.0</ele><time>2026-05-01T15:12:25.036Z</time></trkpt><trkpt lat="35.7688768" lon="8.3419964"><ele>656.6</ele><time>2026-05-01T15:12:26.039Z</time></trkpt><trkpt lat="35.7689611" lon="8.3420236"><ele>656.2</ele><time>2026-05-01T15:12:27.041Z</time></trkpt><trkpt lat="35.7690452" lon="8.3420619"><ele>655.8</ele><time>2026-05-01T15:12:28.039Z</time></trkpt><trkpt lat="35.7691348" lon="8.3420971"><ele>655.4</ele><time>2026-05-01T15:12:29.04Z</time></trkpt><trkpt lat="35.7692179" lon="8.3421358"><ele>655.0</ele><time>2026-05-01T15:12:30.049Z</time></trkpt><trkpt lat="35.7693046" lon="8.3421741"><ele>654.6666666666667</ele><time>2026-05-01T15:12:31.033Z</time></trkpt><trkpt lat="35.7693923" lon="8.342209"><ele>654.3333333333334</ele><time>2026-05-01T15:12:32.04Z</time></trkpt><trkpt lat="35.7694779" lon="8.3422432"><ele>654.0</ele><time>2026-05-01T15:12:33.032Z</time></trkpt><trkpt lat="35.7695664" lon="8.3422728"><ele>653.6666666666666</ele><time>2026-05-01T15:12:34.045Z</time></trkpt><trkpt lat="35.7696515" lon="8.3423036"><ele>653.3333333333333</ele><time>2026-05-01T15:12:35.054Z</time></trkpt><trkpt lat="35.7697306" lon="8.3423328"><ele>653.0</ele><time>2026-05-01T15:12:36.036Z</time></trkpt><trkpt lat="35.7698086" lon="8.3423626"><ele>652.6666666666666</ele><time>2026-05-01T15:12:37.064Z</time></trkpt><trkpt lat="35.7698898" lon="8.3423919"><ele>652.3333333333333</ele><time>2026-05-01T15:12:38.035Z</time></trkpt><trkpt lat="35.7699678" lon="8.3424265"><ele>652.0</ele><time>2026-05-01T15:12:39.032Z</time></trkpt><trkpt lat="35.7700447" lon="8.3424624"><ele>651.6666666666666</ele><time>2026-05-01T15:12:40.035Z</time></trkpt><trkpt lat="35.770128" lon="8.3424939"><ele>651.3333333333334</ele><time>2026-05-01T15:12:41.037Z</time></trkpt><trkpt lat="35.7702125" lon="8.3425257"><ele>651.0</ele><time>2026-05-01T15:12:42.036Z</time></trkpt><trkpt lat="35.7702962" lon="8.3425552"><ele>650.6666666666666</ele><time>2026-05-01T15:12:43.037Z</time></trkpt><trkpt lat="35.7703783" lon="8.3425791"><ele>650.3333333333334</ele><time>2026-05-01T15:12:44.044Z</time></trkpt><trkpt lat="35.7704547" lon="8.3426061"><ele>650.0</ele><time>2026-05-01T15:12:45.038Z</time></trkpt><trkpt lat="35.7705222" lon="8.3426272"><ele>649.6666666666667</ele><time>2026-05-01T15:12:46.045Z</time></trkpt><trkpt lat="35.7706395" lon="8.3426732"><ele>649.3333333333334</ele><time>2026-05-01T15:12:48.027Z</time></trkpt><trkpt lat="35.7707071" lon="8.3426982"><ele>649.0</ele><time>2026-05-01T15:12:49.04Z</time></trkpt><trkpt lat="35.7707777" lon="8.3427188"><ele>649.0</ele><time>2026-05-01T15:12:50.034Z</time></trkpt><trkpt lat="35.7708506" lon="8.3427466"><ele>649.0</ele><time>2026-05-01T15:12:51.039Z</time></trkpt><trkpt lat="35.7709269" lon="8.3427866"><ele>649.0</ele><time>2026-05-01T15:12:52.045Z</time></trkpt><trkpt lat="35.7710041" lon="8.3428202"><ele>649.0</ele><time>2026-05-01T15:12:53.032Z</time></trkpt><trkpt lat="35.7710813" lon="8.3428503"><ele>649.0</ele><time>2026-05-01T15:12:54.035Z</time></trkpt><trkpt lat="35.7711607" lon="8.3428846"><ele>649.0</ele><time>2026-05-01T15:12:55.045Z</time></trkpt><trkpt lat="35.7712374" lon="8.3429163"><ele>648.2</ele><time>2026-05-01T15:12:56.031Z</time></trkpt><trkpt lat="35.7713133" lon="8.3429469"><ele>647.4000000000001</ele><time>2026-05-01T15:12:57.04Z</time></trkpt><trkpt lat="35.77138" lon="8.3429702"><ele>646.6</ele><time>2026-05-01T15:12:58.041Z</time></trkpt><trkpt lat="35.7714835" lon="8.3430044"><ele>645.8</ele><time>2026-05-01T15:13:00.044Z</time></trkpt><trkpt lat="35.7716029" lon="8.3430483"><ele>645.0</ele><time>2026-05-01T15:13:02.038Z</time></trkpt><trkpt lat="35.7716754" lon="8.3430785"><ele>644.6</ele><time>2026-05-01T15:13:03.044Z</time></trkpt><trkpt lat="35.771759" lon="8.3431104"><ele>644.2</ele><time>2026-05-01T15:13:04.047Z</time></trkpt><trkpt lat="35.771847" lon="8.3431444"><ele>643.8</ele><time>2026-05-01T15:13:05.037Z</time></trkpt><trkpt lat="35.7719447" lon="8.3431773"><ele>643.4</ele><time>2026-05-01T15:13:06.031Z</time></trkpt><trkpt lat="35.7720474" lon="8.3432154"><ele>643.0</ele><time>2026-05-01T15:13:07.04Z</time></trkpt><trkpt lat="35.7721583" lon="8.3432524"><ele>642.25</ele><time>2026-05-01T15:13:08.036Z</time></trkpt><trkpt lat="35.7722706" lon="8.3432957"><ele>641.5</ele><time>2026-05-01T15:13:09.035Z</time></trkpt><trkpt lat="35.772384" lon="8.3433411"><ele>640.75</ele><time>2026-05-01T15:13:10.035Z</time></trkpt><trkpt lat="35.7724962" lon="8.3433843"><ele>640.0</ele><time>2026-05-01T15:13:11.049Z</time></trkpt><trkpt lat="35.7726053" lon="8.3434224"><ele>638.75</ele><time>2026-05-01T15:13:12.03Z</time></trkpt><trkpt lat="35.7727171" lon="8.3434687"><ele>637.5</ele><time>2026-05-01T15:13:13.034Z</time></trkpt><trkpt lat="35.7728246" lon="8.343515"><ele>636.25</ele><time>2026-05-01T15:13:14.042Z</time></trkpt><trkpt lat="35.772928" lon="8.3435586"><ele>635.0</ele><time>2026-05-01T15:13:15.04Z</time></trkpt><trkpt lat="35.7730344" lon="8.3436016"><ele>635.0</ele><time>2026-05-01T15:13:16.031Z</time></trkpt><trkpt lat="35.7731426" lon="8.3436499"><ele>635.0</ele><time>2026-05-01T15:13:17.042Z</time></trkpt><trkpt lat="35.7732564" lon="8.3437008"><ele>635.0</ele><time>2026-05-01T15:13:18.044Z</time></trkpt><trkpt lat="35.7733731" lon="8.3437596"><ele>635.0</ele><time>2026-05-01T15:13:19.052Z</time></trkpt><trkpt lat="35.7734802" lon="8.3438282"><ele>635.25</ele><time>2026-05-01T15:13:20.079Z</time></trkpt><trkpt lat="35.7735866" lon="8.3439021"><ele>635.5</ele><time>2026-05-01T15:13:21.03Z</time></trkpt><trkpt lat="35.7736866" lon="8.3439737"><ele>635.75</ele><time>2026-05-01T15:13:22.035Z</time></trkpt><trkpt lat="35.7737905" lon="8.3440533"><ele>636.0</ele><time>2026-05-01T15:13:23.033Z</time></trkpt><trkpt lat="35.7738919" lon="8.3441325"><ele>636.0</ele><time>2026-05-01T15:13:24.051Z</time></trkpt><trkpt lat="35.7739843" lon="8.3442076"><ele>636.0</ele><time>2026-05-01T15:13:25.044Z</time></trkpt><trkpt lat="35.7740805" lon="8.3442958"><ele>636.0</ele><time>2026-05-01T15:13:26.03Z</time></trkpt><trkpt lat="35.7741737" lon="8.3443907"><ele>636.0</ele><time>2026-05-01T15:13:27.036Z</time></trkpt><trkpt lat="35.7742636" lon="8.344492"><ele>636.25</ele><time>2026-05-01T15:13:28.028Z</time></trkpt><trkpt lat="35.7743564" lon="8.3446014"><ele>636.5</ele><time>2026-05-01T15:13:29.043Z</time></trkpt><trkpt lat="35.7744483" lon="8.3447086"><ele>636.75</ele><time>2026-05-01T15:13:30.039Z</time></trkpt><trkpt lat="35.7745313" lon="8.3448185"><ele>637.0</ele><time>2026-05-01T15:13:31.044Z</time></trkpt><trkpt lat="35.7746196" lon="8.3449113"><ele>637.0</ele><time>2026-05-01T15:13:32.048Z</time></trkpt><trkpt lat="35.7746918" lon="8.3450008"><ele>637.0</ele><time>2026-05-01T15:13:33.037Z</time></trkpt><trkpt lat="35.7747557" lon="8.3450733"><ele>637.0</ele><time>2026-05-01T15:13:34.044Z</time></trkpt><trkpt lat="35.7748047" lon="8.3451348"><ele>637.0</ele><time>2026-05-01T15:13:35.039Z</time></trkpt><trkpt lat="35.7748598" lon="8.3452008"><ele>637.0</ele><time>2026-05-01T15:13:36.059Z</time></trkpt><trkpt lat="35.7749272" lon="8.3452748"><ele>637.0</ele><time>2026-05-01T15:13:37.044Z</time></trkpt><trkpt lat="35.7750088" lon="8.3453705"><ele>637.0</ele><time>2026-05-01T15:13:38.054Z</time></trkpt><trkpt lat="35.7750888" lon="8.3454508"><ele>637.0</ele><time>2026-05-01T15:13:39.038Z</time></trkpt><trkpt lat="35.7751689" lon="8.3455393"><ele>637.0</ele><time>2026-05-01T15:13:40.038Z</time></trkpt><trkpt lat="35.7752434" lon="8.3456314"><ele>637.0</ele><time>2026-05-01T15:13:41.044Z</time></trkpt><trkpt lat="35.7753102" lon="8.3457208"><ele>637.0</ele><time>2026-05-01T15:13:42.044Z</time></trkpt><trkpt lat="35.7753726" lon="8.3457986"><ele>637.2</ele><time>2026-05-01T15:13:43.041Z</time></trkpt><trkpt lat="35.7754261" lon="8.3458748"><ele>637.4000000000001</ele><time>2026-05-01T15:13:44.033Z</time></trkpt><trkpt lat="35.775482" lon="8.3459516"><ele>637.5999999999999</ele><time>2026-05-01T15:13:45.042Z</time></trkpt><trkpt lat="35.77554" lon="8.3460427"><ele>637.8</ele><time>2026-05-01T15:13:46.03Z</time></trkpt><trkpt lat="35.7756187" lon="8.3461407"><ele>638.0</ele><time>2026-05-01T15:13:47.061Z</time></trkpt><trkpt lat="35.7757178" lon="8.3462572"><ele>638.3333333333333</ele><time>2026-05-01T15:13:48.033Z</time></trkpt><trkpt lat="35.7758321" lon="8.3463933"><ele>638.6666666666666</ele><time>2026-05-01T15:13:49.045Z</time></trkpt><trkpt lat="35.7759409" lon="8.3465328"><ele>639.0</ele><time>2026-05-01T15:13:50.033Z</time></trkpt><trkpt lat="35.776047" lon="8.3466589"><ele>638.25</ele><time>2026-05-01T15:13:51.049Z</time></trkpt><trkpt lat="35.7761527" lon="8.3467821"><ele>637.5</ele><time>2026-05-01T15:13:52.045Z</time></trkpt><trkpt lat="35.7762502" lon="8.3469073"><ele>636.75</ele><time>2026-05-01T15:13:53.044Z</time></trkpt><trkpt lat="35.7763544" lon="8.3470341"><ele>636.0</ele><time>2026-05-01T15:13:54.054Z</time></trkpt><trkpt lat="35.776457" lon="8.3471587"><ele>636.0</ele><time>2026-05-01T15:13:55.038Z</time></trkpt><trkpt lat="35.7765633" lon="8.3472855"><ele>636.0</ele><time>2026-05-01T15:13:56.051Z</time></trkpt><trkpt lat="35.7766667" lon="8.3474117"><ele>636.0</ele><time>2026-05-01T15:13:57.041Z</time></trkpt><trkpt lat="35.776766" lon="8.3475331"><ele>636.0</ele><time>2026-05-01T15:13:58.046Z</time></trkpt><trkpt lat="35.7768666" lon="8.3476557"><ele>636.0</ele><time>2026-05-01T15:13:59.043Z</time></trkpt><trkpt lat="35.7769702" lon="8.3477715"><ele>636.0</ele><time>2026-05-01T15:14:00.049Z</time></trkpt><trkpt lat="35.7770687" lon="8.3478914"><ele>636.0</ele><time>2026-05-01T15:14:01.037Z</time></trkpt><trkpt lat="35.7771665" lon="8.3480089"><ele>636.0</ele><time>2026-05-01T15:14:02.07Z</time></trkpt><trkpt lat="35.7772627" lon="8.3481235"><ele>636.0</ele><time>2026-05-01T15:14:03.069Z</time></trkpt><trkpt lat="35.7773566" lon="8.3482385"><ele>636.0</ele><time>2026-05-01T15:14:04.063Z</time></trkpt><trkpt lat="35.7774548" lon="8.348354"><ele>636.0</ele><time>2026-05-01T15:14:05.047Z</time></trkpt><trkpt lat="35.7775527" lon="8.3484718"><ele>636.0</ele><time>2026-05-01T15:14:06.032Z</time></trkpt><trkpt lat="35.7776547" lon="8.3485863"><ele>635.5</ele><time>2026-05-01T15:14:07.042Z</time></trkpt><trkpt lat="35.777752" lon="8.3487085"><ele>635.0</ele><time>2026-05-01T15:14:08.042Z</time></trkpt><trkpt lat="35.7778567" lon="8.3488383"><ele>634.5</ele><time>2026-05-01T15:14:09.045Z</time></trkpt><trkpt lat="35.7779626" lon="8.3489661"><ele>634.0</ele><time>2026-05-01T15:14:10.039Z</time></trkpt><trkpt lat="35.7780753" lon="8.3490941"><ele>634.0</ele><time>2026-05-01T15:14:11.037Z</time></trkpt><trkpt lat="35.7781818" lon="8.3492165"><ele>634.0</ele><time>2026-05-01T15:14:12.046Z</time></trkpt><trkpt lat="35.7782872" lon="8.349355"><ele>634.0</ele><time>2026-05-01T15:14:13.046Z</time></trkpt><trkpt lat="35.7783986" lon="8.3494978"><ele>634.0</ele><time>2026-05-01T15:14:14.043Z</time></trkpt><trkpt lat="35.778515" lon="8.3496484"><ele>634.0</ele><time>2026-05-01T15:14:15.039Z</time></trkpt><trkpt lat="35.7786374" lon="8.349797"><ele>634.0</ele><time>2026-05-01T15:14:16.041Z</time></trkpt><trkpt lat="35.7787585" lon="8.3499424"><ele>634.0</ele><time>2026-05-01T15:14:17.042Z</time></trkpt><trkpt lat="35.7788814" lon="8.3500892"><ele>634.0</ele><time>2026-05-01T15:14:18.046Z</time></trkpt><trkpt lat="35.779004" lon="8.3502411"><ele>634.0</ele><time>2026-05-01T15:14:19.046Z</time></trkpt><trkpt lat="35.7791301" lon="8.3503964"><ele>634.0</ele><time>2026-05-01T15:14:20.047Z</time></trkpt><trkpt lat="35.7792531" lon="8.3505498"><ele>634.0</ele><time>2026-05-01T15:14:21.043Z</time></trkpt><trkpt lat="35.7793749" lon="8.3506995"><ele>634.0</ele><time>2026-05-01T15:14:22.045Z</time></trkpt><trkpt lat="35.7794997" lon="8.3508528"><ele>633.3333333333334</ele><time>2026-05-01T15:14:23.042Z</time></trkpt><trkpt lat="35.7796315" lon="8.3510091"><ele>632.6666666666666</ele><time>2026-05-01T15:14:24.043Z</time></trkpt><trkpt lat="35.779758" lon="8.3511705"><ele>632.0</ele><time>2026-05-01T15:14:25.038Z</time></trkpt><trkpt lat="35.7798924" lon="8.3513338"><ele>632.3333333333333</ele><time>2026-05-01T15:14:26.03Z</time></trkpt><trkpt lat="35.7800284" lon="8.3515034"><ele>632.6666666666666</ele><time>2026-05-01T15:14:27.038Z</time></trkpt><trkpt lat="35.7801671" lon="8.3516732"><ele>633.0</ele><time>2026-05-01T15:14:28.03Z</time></trkpt><trkpt lat="35.7803035" lon="8.3518411"><ele>632.3333333333334</ele><time>2026-05-01T15:14:29.055Z</time></trkpt><trkpt lat="35.7804447" lon="8.3520116"><ele>631.6666666666667</ele><time>2026-05-01T15:14:30.034Z</time></trkpt><trkpt lat="35.7805917" lon="8.3521798"><ele>631.0</ele><time>2026-05-01T15:14:31.039Z</time></trkpt><trkpt lat="35.7807323" lon="8.3523492"><ele>631.0</ele><time>2026-05-01T15:14:32.04Z</time></trkpt><trkpt lat="35.7808717" lon="8.3525164"><ele>631.0</ele><time>2026-05-01T15:14:33.044Z</time></trkpt><trkpt lat="35.7810058" lon="8.3526849"><ele>631.0</ele><time>2026-05-01T15:14:34.044Z</time></trkpt><trkpt lat="35.7811402" lon="8.352856"><ele>630.0</ele><time>2026-05-01T15:14:35.043Z</time></trkpt><trkpt lat="35.7812783" lon="8.3530207"><ele>629.0</ele><time>2026-05-01T15:14:36.03Z</time></trkpt><trkpt lat="35.7814148" lon="8.3531872"><ele>628.0</ele><time>2026-05-01T15:14:37.057Z</time></trkpt><trkpt lat="35.7815545" lon="8.3533533"><ele>627.6666666666667</ele><time>2026-05-01T15:14:38.046Z</time></trkpt><trkpt lat="35.7816949" lon="8.3535245"><ele>627.3333333333334</ele><time>2026-05-01T15:14:39.045Z</time></trkpt><trkpt lat="35.7818387" lon="8.3537038"><ele>627.0</ele><time>2026-05-01T15:14:40.045Z</time></trkpt><trkpt lat="35.7819855" lon="8.3538791"><ele>626.3333333333334</ele><time>2026-05-01T15:14:41.041Z</time></trkpt><trkpt lat="35.7821365" lon="8.3540605"><ele>625.6666666666667</ele><time>2026-05-01T15:14:42.074Z</time></trkpt><trkpt lat="35.7822903" lon="8.3542422"><ele>625.0</ele><time>2026-05-01T15:14:43.035Z</time></trkpt><trkpt lat="35.7824492" lon="8.3544261"><ele>625.0</ele><time>2026-05-01T15:14:44.036Z</time></trkpt><trkpt lat="35.7826147" lon="8.3546185"><ele>625.0</ele><time>2026-05-01T15:14:45.037Z</time></trkpt><trkpt lat="35.7827774" lon="8.354817"><ele>624.5</ele><time>2026-05-01T15:14:46.033Z</time></trkpt><trkpt lat="35.782942" lon="8.3550152"><ele>624.0</ele><time>2026-05-01T15:14:47.038Z</time></trkpt><trkpt lat="35.7831048" lon="8.3552147"><ele>624.0</ele><time>2026-05-01T15:14:48.049Z</time></trkpt><trkpt lat="35.7832691" lon="8.355412"><ele>624.0</ele><time>2026-05-01T15:14:49.039Z</time></trkpt><trkpt lat="35.7834286" lon="8.3556126"><ele>622.6666666666666</ele><time>2026-05-01T15:14:50.044Z</time></trkpt><trkpt lat="35.7835873" lon="8.3558104"><ele>621.3333333333333</ele><time>2026-05-01T15:14:51.04Z</time></trkpt><trkpt lat="35.7837485" lon="8.3560012"><ele>620.0</ele><time>2026-05-01T15:14:52.048Z</time></trkpt><trkpt lat="35.783909" lon="8.3561967"><ele>620.0</ele><time>2026-05-01T15:14:53.046Z</time></trkpt><trkpt lat="35.7840662" lon="8.3563928"><ele>620.0</ele><time>2026-05-01T15:14:54.047Z</time></trkpt><trkpt lat="35.7842226" lon="8.3565855"><ele>620.0</ele><time>2026-05-01T15:14:55.048Z</time></trkpt><trkpt lat="35.7843848" lon="8.3567807"><ele>619.3333333333333</ele><time>2026-05-01T15:14:56.042Z</time></trkpt><trkpt lat="35.784542" lon="8.3569771"><ele>618.6666666666666</ele><time>2026-05-01T15:14:57.05Z</time></trkpt><trkpt lat="35.7847026" lon="8.3571725"><ele>618.0</ele><time>2026-05-01T15:14:58.043Z</time></trkpt><trkpt lat="35.7848625" lon="8.3573675"><ele>618.0</ele><time>2026-05-01T15:14:59.04Z</time></trkpt><trkpt lat="35.7850179" lon="8.3575641"><ele>618.0</ele><time>2026-05-01T15:15:00.035Z</time></trkpt><trkpt lat="35.7851745" lon="8.3577561"><ele>618.0</ele><time>2026-05-01T15:15:01.047Z</time></trkpt><trkpt lat="35.7853269" lon="8.3579449"><ele>617.0</ele><time>2026-05-01T15:15:02.05Z</time></trkpt><trkpt lat="35.785478" lon="8.358133"><ele>616.0</ele><time>2026-05-01T15:15:03.042Z</time></trkpt><trkpt lat="35.7856268" lon="8.3583162"><ele>615.0</ele><time>2026-05-01T15:15:04.047Z</time></trkpt><trkpt lat="35.785772" lon="8.3584925"><ele>615.0</ele><time>2026-05-01T15:15:05.047Z</time></trkpt><trkpt lat="35.7859157" lon="8.3586667"><ele>615.0</ele><time>2026-05-01T15:15:06.046Z</time></trkpt><trkpt lat="35.7860621" lon="8.3588394"><ele>615.0</ele><time>2026-05-01T15:15:07.045Z</time></trkpt><trkpt lat="35.7862024" lon="8.3590171"><ele>615.0</ele><time>2026-05-01T15:15:08.041Z</time></trkpt><trkpt lat="35.7863433" lon="8.3591897"><ele>615.0</ele><time>2026-05-01T15:15:09.032Z</time></trkpt><trkpt lat="35.7864879" lon="8.3593605"><ele>615.0</ele><time>2026-05-01T15:15:10.049Z</time></trkpt><trkpt lat="35.7866334" lon="8.3595351"><ele>615.3333333333334</ele><time>2026-05-01T15:15:11.039Z</time></trkpt><trkpt lat="35.7867761" lon="8.3597094"><ele>615.6666666666667</ele><time>2026-05-01T15:15:12.043Z</time></trkpt><trkpt lat="35.7869198" lon="8.3598889"><ele>616.0</ele><time>2026-05-01T15:15:13.049Z</time></trkpt><trkpt lat="35.7870624" lon="8.3600688"><ele>615.3333333333334</ele><time>2026-05-01T15:15:14.073Z</time></trkpt><trkpt lat="35.7872052" lon="8.3602424"><ele>614.6666666666666</ele><time>2026-05-01T15:15:15.041Z</time></trkpt><trkpt lat="35.7873455" lon="8.3604172"><ele>614.0</ele><time>2026-05-01T15:15:16.04Z</time></trkpt><trkpt lat="35.787492" lon="8.3605943"><ele>614.0</ele><time>2026-05-01T15:15:17.042Z</time></trkpt><trkpt lat="35.7876371" lon="8.3607673"><ele>614.0</ele><time>2026-05-01T15:15:18.038Z</time></trkpt><trkpt lat="35.7877816" lon="8.3609389"><ele>614.0</ele><time>2026-05-01T15:15:19.04Z</time></trkpt><trkpt lat="35.7879235" lon="8.3611069"><ele>614.0</ele><time>2026-05-01T15:15:20.036Z</time></trkpt><trkpt lat="35.7880588" lon="8.3612858"><ele>614.0</ele><time>2026-05-01T15:15:21.052Z</time></trkpt><trkpt lat="35.788199" lon="8.361457"><ele>614.0</ele><time>2026-05-01T15:15:22.025Z</time></trkpt><trkpt lat="35.7883372" lon="8.3616322"><ele>614.0</ele><time>2026-05-01T15:15:23.059Z</time></trkpt><trkpt lat="35.7884752" lon="8.3618043"><ele>614.0</ele><time>2026-05-01T15:15:24.033Z</time></trkpt><trkpt lat="35.7886168" lon="8.3619772"><ele>614.0</ele><time>2026-05-01T15:15:25.044Z</time></trkpt><trkpt lat="35.788759" lon="8.3621558"><ele>613.3333333333333</ele><time>2026-05-01T15:15:26.041Z</time></trkpt><trkpt lat="35.7889102" lon="8.3623332"><ele>612.6666666666666</ele><time>2026-05-01T15:15:27.042Z</time></trkpt><trkpt lat="35.7890556" lon="8.3625034"><ele>612.0</ele><time>2026-05-01T15:15:28.041Z</time></trkpt><trkpt lat="35.7891985" lon="8.3626718"><ele>612.0</ele><time>2026-05-01T15:15:29.048Z</time></trkpt><trkpt lat="35.7893399" lon="8.3628416"><ele>612.0</ele><time>2026-05-01T15:15:30.043Z</time></trkpt><trkpt lat="35.7894837" lon="8.3630196"><ele>612.0</ele><time>2026-05-01T15:15:31.04Z</time></trkpt><trkpt lat="35.7896232" lon="8.3631996"><ele>611.0</ele><time>2026-05-01T15:15:32.037Z</time></trkpt><trkpt lat="35.7897689" lon="8.363382"><ele>610.0</ele><time>2026-05-01T15:15:33.04Z</time></trkpt><trkpt lat="35.7899244" lon="8.3635716"><ele>609.0</ele><time>2026-05-01T15:15:34.045Z</time></trkpt><trkpt lat="35.7900922" lon="8.3637659"><ele>608.0</ele><time>2026-05-01T15:15:35.045Z</time></trkpt><trkpt lat="35.7902603" lon="8.3639658"><ele>607.0</ele><time>2026-05-01T15:15:36.046Z</time></trkpt><trkpt lat="35.7904252" lon="8.364164"><ele>607.0</ele><time>2026-05-01T15:15:37.052Z</time></trkpt><trkpt lat="35.7905904" lon="8.3643626"><ele>607.0</ele><time>2026-05-01T15:15:38.034Z</time></trkpt><trkpt lat="35.7907508" lon="8.3645644"><ele>607.0</ele><time>2026-05-01T15:15:39.036Z</time></trkpt><trkpt lat="35.7909097" lon="8.3647597"><ele>607.0</ele><time>2026-05-01T15:15:40.037Z</time></trkpt><trkpt lat="35.7910699" lon="8.3649566"><ele>607.0</ele><time>2026-05-01T15:15:41.037Z</time></trkpt><trkpt lat="35.7912269" lon="8.3651512"><ele>607.0</ele><time>2026-05-01T15:15:42.046Z</time></trkpt><trkpt lat="35.7913864" lon="8.3653455"><ele>607.0</ele><time>2026-05-01T15:15:43.047Z</time></trkpt><trkpt lat="35.7915496" lon="8.3655388"><ele>607.6666666666667</ele><time>2026-05-01T15:15:44.049Z</time></trkpt><trkpt lat="35.7917081" lon="8.3657307"><ele>608.3333333333334</ele><time>2026-05-01T15:15:45.049Z</time></trkpt><trkpt lat="35.7918639" lon="8.3659185"><ele>609.0</ele><time>2026-05-01T15:15:46.036Z</time></trkpt><trkpt lat="35.7920168" lon="8.3661074"><ele>608.3333333333334</ele><time>2026-05-01T15:15:47.038Z</time></trkpt><trkpt lat="35.7921739" lon="8.3663021"><ele>607.6666666666667</ele><time>2026-05-01T15:15:48.041Z</time></trkpt><trkpt lat="35.7923268" lon="8.3664972"><ele>607.0</ele><time>2026-05-01T15:15:49.043Z</time></trkpt><trkpt lat="35.7924847" lon="8.366683"><ele>607.0</ele><time>2026-05-01T15:15:50.04Z</time></trkpt><trkpt lat="35.7926394" lon="8.3668677"><ele>607.0</ele><time>2026-05-01T15:15:51.043Z</time></trkpt><trkpt lat="35.7927918" lon="8.36705"><ele>607.0</ele><time>2026-05-01T15:15:52.044Z</time></trkpt><trkpt lat="35.7929459" lon="8.3672371"><ele>606.6666666666667</ele><time>2026-05-01T15:15:53.043Z</time></trkpt><trkpt lat="35.7930983" lon="8.3674172"><ele>606.3333333333334</ele><time>2026-05-01T15:15:54.044Z</time></trkpt><trkpt lat="35.7932514" lon="8.3676005"><ele>606.0</ele><time>2026-05-01T15:15:55.047Z</time></trkpt><trkpt lat="35.7934011" lon="8.3677853"><ele>606.0</ele><time>2026-05-01T15:15:56.038Z</time></trkpt><trkpt lat="35.7935491" lon="8.3679713"><ele>606.0</ele><time>2026-05-01T15:15:57.039Z</time></trkpt><trkpt lat="35.7936979" lon="8.3681496"><ele>606.0</ele><time>2026-05-01T15:15:58.04Z</time></trkpt><trkpt lat="35.7938457" lon="8.3683261"><ele>606.3333333333334</ele><time>2026-05-01T15:15:59.042Z</time></trkpt><trkpt lat="35.7939903" lon="8.3685034"><ele>606.6666666666667</ele><time>2026-05-01T15:16:00.04Z</time></trkpt><trkpt lat="35.7941344" lon="8.3686779"><ele>607.0</ele><time>2026-05-01T15:16:01.042Z</time></trkpt><trkpt lat="35.7942792" lon="8.3688515"><ele>606.6666666666667</ele><time>2026-05-01T15:16:02.041Z</time></trkpt><trkpt lat="35.7944227" lon="8.3690302"><ele>606.3333333333334</ele><time>2026-05-01T15:16:03.032Z</time></trkpt><trkpt lat="35.7945655" lon="8.3692053"><ele>606.0</ele><time>2026-05-01T15:16:04.041Z</time></trkpt><trkpt lat="35.7947072" lon="8.3693816"><ele>606.0</ele><time>2026-05-01T15:16:05.041Z</time></trkpt><trkpt lat="35.7948474" lon="8.3695589"><ele>606.0</ele><time>2026-05-01T15:16:06.035Z</time></trkpt><trkpt lat="35.7949864" lon="8.3697291"><ele>606.0</ele><time>2026-05-01T15:16:07.046Z</time></trkpt><trkpt lat="35.7951303" lon="8.3699005"><ele>606.0</ele><time>2026-05-01T15:16:08.034Z</time></trkpt><trkpt lat="35.7952762" lon="8.3700698"><ele>606.0</ele><time>2026-05-01T15:16:09.049Z</time></trkpt><trkpt lat="35.7954209" lon="8.3702396"><ele>606.0</ele><time>2026-05-01T15:16:10.045Z</time></trkpt><trkpt lat="35.7955654" lon="8.3704129"><ele>606.0</ele><time>2026-05-01T15:16:11.043Z</time></trkpt><trkpt lat="35.7957082" lon="8.3705883"><ele>606.0</ele><time>2026-05-01T15:16:12.044Z</time></trkpt><trkpt lat="35.7958527" lon="8.3707663"><ele>606.0</ele><time>2026-05-01T15:16:13.043Z</time></trkpt><trkpt lat="35.7959968" lon="8.3709396"><ele>605.3333333333334</ele><time>2026-05-01T15:16:14.037Z</time></trkpt><trkpt lat="35.7961448" lon="8.3711132"><ele>604.6666666666667</ele><time>2026-05-01T15:16:15.041Z</time></trkpt><trkpt lat="35.7962884" lon="8.3712858"><ele>604.0</ele><time>2026-05-01T15:16:16.039Z</time></trkpt><trkpt lat="35.7964315" lon="8.3714579"><ele>604.0</ele><time>2026-05-01T15:16:17.036Z</time></trkpt><trkpt lat="35.7965745" lon="8.3716335"><ele>604.0</ele><time>2026-05-01T15:16:18.04Z</time></trkpt><trkpt lat="35.7967165" lon="8.3718106"><ele>604.0</ele><time>2026-05-01T15:16:19.04Z</time></trkpt><trkpt lat="35.7968601" lon="8.3719834"><ele>603.3333333333334</ele><time>2026-05-01T15:16:20.04Z</time></trkpt><trkpt lat="35.7970007" lon="8.3721563"><ele>602.6666666666666</ele><time>2026-05-01T15:16:21.042Z</time></trkpt><trkpt lat="35.7971401" lon="8.3723284"><ele>602.0</ele><time>2026-05-01T15:16:22.038Z</time></trkpt><trkpt lat="35.7972804" lon="8.3725013"><ele>602.0</ele><time>2026-05-01T15:16:23.038Z</time></trkpt><trkpt lat="35.7974202" lon="8.372671"><ele>602.0</ele><time>2026-05-01T15:16:24.042Z</time></trkpt><trkpt lat="35.7975634" lon="8.3728333"><ele>602.0</ele><time>2026-05-01T15:16:25.044Z</time></trkpt><trkpt lat="35.7977025" lon="8.3730025"><ele>600.6666666666666</ele><time>2026-05-01T15:16:26.047Z</time></trkpt><trkpt lat="35.7978435" lon="8.3731686"><ele>599.3333333333334</ele><time>2026-05-01T15:16:27.042Z</time></trkpt><trkpt lat="35.7979855" lon="8.3733436"><ele>598.0</ele><time>2026-05-01T15:16:28.045Z</time></trkpt><trkpt lat="35.7981263" lon="8.3735199"><ele>598.0</ele><time>2026-05-01T15:16:29.039Z</time></trkpt><trkpt lat="35.7982678" lon="8.3736921"><ele>598.0</ele><time>2026-05-01T15:16:30.037Z</time></trkpt><trkpt lat="35.7984149" lon="8.3738642"><ele>598.0</ele><time>2026-05-01T15:16:31.041Z</time></trkpt><trkpt lat="35.7985614" lon="8.3740387"><ele>597.6666666666667</ele><time>2026-05-01T15:16:32.045Z</time></trkpt><trkpt lat="35.7987034" lon="8.3742158"><ele>597.3333333333334</ele><time>2026-05-01T15:16:33.039Z</time></trkpt><trkpt lat="35.79885" lon="8.3743951"><ele>597.0</ele><time>2026-05-01T15:16:34.036Z</time></trkpt><trkpt lat="35.7989948" lon="8.3745742"><ele>596.6666666666666</ele><time>2026-05-01T15:16:35.04Z</time></trkpt><trkpt lat="35.7991402" lon="8.3747504"><ele>596.3333333333333</ele><time>2026-05-01T15:16:36.044Z</time></trkpt><trkpt lat="35.7992851" lon="8.3749251"><ele>596.0</ele><time>2026-05-01T15:16:37.042Z</time></trkpt><trkpt lat="35.7994248" lon="8.3751044"><ele>595.6666666666666</ele><time>2026-05-01T15:16:38.037Z</time></trkpt><trkpt lat="35.7995653" lon="8.3752802"><ele>595.3333333333334</ele><time>2026-05-01T15:16:39.039Z</time></trkpt><trkpt lat="35.7997074" lon="8.3754531"><ele>595.0</ele><time>2026-05-01T15:16:40.03Z</time></trkpt><trkpt lat="35.7998525" lon="8.37563"><ele>595.0</ele><time>2026-05-01T15:16:41.037Z</time></trkpt><trkpt lat="35.7999992" lon="8.3758084"><ele>595.0</ele><time>2026-05-01T15:16:42.034Z</time></trkpt><trkpt lat="35.8001426" lon="8.3759841"><ele>595.0</ele><time>2026-05-01T15:16:43.06Z</time></trkpt><trkpt lat="35.800283" lon="8.3761565"><ele>594.0</ele><time>2026-05-01T15:16:44.034Z</time></trkpt><trkpt lat="35.8004214" lon="8.3763362"><ele>593.0</ele><time>2026-05-01T15:16:45.048Z</time></trkpt><trkpt lat="35.8005646" lon="8.3765183"><ele>592.0</ele><time>2026-05-01T15:16:46.039Z</time></trkpt><trkpt lat="35.8007072" lon="8.3766926"><ele>592.0</ele><time>2026-05-01T15:16:47.038Z</time></trkpt><trkpt lat="35.8008441" lon="8.3768643"><ele>592.0</ele><time>2026-05-01T15:16:48.04Z</time></trkpt><trkpt lat="35.8009846" lon="8.3770336"><ele>592.0</ele><time>2026-05-01T15:16:49.041Z</time></trkpt><trkpt lat="35.8011231" lon="8.3771984"><ele>592.0</ele><time>2026-05-01T15:16:50.035Z</time></trkpt><trkpt lat="35.8012566" lon="8.3773577"><ele>592.0</ele><time>2026-05-01T15:16:51.037Z</time></trkpt><trkpt lat="35.8013825" lon="8.3775226"><ele>592.0</ele><time>2026-05-01T15:16:52.048Z</time></trkpt><trkpt lat="35.8015072" lon="8.3776801"><ele>592.0</ele><time>2026-05-01T15:16:53.041Z</time></trkpt><trkpt lat="35.8016313" lon="8.3778379"><ele>592.0</ele><time>2026-05-01T15:16:54.041Z</time></trkpt><trkpt lat="35.8017616" lon="8.3779862"><ele>592.0</ele><time>2026-05-01T15:16:55.035Z</time></trkpt><trkpt lat="35.8018982" lon="8.3781263"><ele>591.3333333333334</ele><time>2026-05-01T15:16:56.036Z</time></trkpt><trkpt lat="35.8020366" lon="8.378261"><ele>590.6666666666666</ele><time>2026-05-01T15:16:57.068Z</time></trkpt><trkpt lat="35.8021849" lon="8.3783892"><ele>590.0</ele><time>2026-05-01T15:16:58.051Z</time></trkpt><trkpt lat="35.8023455" lon="8.3785103"><ele>590.0</ele><time>2026-05-01T15:16:59.038Z</time></trkpt><trkpt lat="35.8025136" lon="8.378623"><ele>590.0</ele><time>2026-05-01T15:17:00.046Z</time></trkpt><trkpt lat="35.8026838" lon="8.378731"><ele>590.0</ele><time>2026-05-01T15:17:01.037Z</time></trkpt><trkpt lat="35.8028583" lon="8.3788438"><ele>588.6666666666666</ele><time>2026-05-01T15:17:02.031Z</time></trkpt><trkpt lat="35.8030336" lon="8.3789569"><ele>587.3333333333334</ele><time>2026-05-01T15:17:03.041Z</time></trkpt><trkpt lat="35.8032129" lon="8.3790715"><ele>586.0</ele><time>2026-05-01T15:17:04.038Z</time></trkpt><trkpt lat="35.803395" lon="8.3791861"><ele>585.0</ele><time>2026-05-01T15:17:05.04Z</time></trkpt><trkpt lat="35.8035728" lon="8.3792991"><ele>584.0</ele><time>2026-05-01T15:17:06.049Z</time></trkpt><trkpt lat="35.8037531" lon="8.3794086"><ele>583.0</ele><time>2026-05-01T15:17:07.047Z</time></trkpt><trkpt lat="35.8039338" lon="8.3795182"><ele>583.0</ele><time>2026-05-01T15:17:08.043Z</time></trkpt><trkpt lat="35.8041133" lon="8.3796331"><ele>583.0</ele><time>2026-05-01T15:17:09.047Z</time></trkpt><trkpt lat="35.8042938" lon="8.3797514"><ele>583.0</ele><time>2026-05-01T15:17:10.046Z</time></trkpt><trkpt lat="35.8044765" lon="8.3798672"><ele>582.6666666666667</ele><time>2026-05-01T15:17:11.079Z</time></trkpt><trkpt lat="35.8046627" lon="8.3799878"><ele>582.3333333333334</ele><time>2026-05-01T15:17:12.041Z</time></trkpt><trkpt lat="35.8048502" lon="8.3801071"><ele>582.0</ele><time>2026-05-01T15:17:13.039Z</time></trkpt><trkpt lat="35.8050443" lon="8.3802283"><ele>580.6666666666666</ele><time>2026-05-01T15:17:14.043Z</time></trkpt><trkpt lat="35.8052383" lon="8.3803461"><ele>579.3333333333333</ele><time>2026-05-01T15:17:15.035Z</time></trkpt><trkpt lat="35.8054306" lon="8.3804607"><ele>578.0</ele><time>2026-05-01T15:17:16.045Z</time></trkpt><trkpt lat="35.8056237" lon="8.380572"><ele>577.6666666666666</ele><time>2026-05-01T15:17:17.037Z</time></trkpt><trkpt lat="35.8058147" lon="8.3806899"><ele>577.3333333333334</ele><time>2026-05-01T15:17:18.038Z</time></trkpt><trkpt lat="35.8060056" lon="8.3808055"><ele>577.0</ele><time>2026-05-01T15:17:19.038Z</time></trkpt><trkpt lat="35.8061977" lon="8.3809207"><ele>576.0</ele><time>2026-05-01T15:17:20.036Z</time></trkpt><trkpt lat="35.8063909" lon="8.3810361"><ele>575.0</ele><time>2026-05-01T15:17:21.031Z</time></trkpt><trkpt lat="35.8065836" lon="8.3811504"><ele>574.0</ele><time>2026-05-01T15:17:22.043Z</time></trkpt><trkpt lat="35.8067739" lon="8.3812659"><ele>572.6666666666667</ele><time>2026-05-01T15:17:23.041Z</time></trkpt><trkpt lat="35.806965" lon="8.3813775"><ele>571.3333333333334</ele><time>2026-05-01T15:17:24.041Z</time></trkpt><trkpt lat="35.8071528" lon="8.3814899"><ele>570.0</ele><time>2026-05-01T15:17:25.038Z</time></trkpt><trkpt lat="35.8073422" lon="8.3816003"><ele>570.0</ele><time>2026-05-01T15:17:26.041Z</time></trkpt><trkpt lat="35.8075331" lon="8.3817086"><ele>570.0</ele><time>2026-05-01T15:17:27.046Z</time></trkpt><trkpt lat="35.8077209" lon="8.3818184"><ele>570.0</ele><time>2026-05-01T15:17:28.047Z</time></trkpt><trkpt lat="35.8079058" lon="8.3819264"><ele>569.6666666666666</ele><time>2026-05-01T15:17:29.043Z</time></trkpt><trkpt lat="35.8080952" lon="8.3820333"><ele>569.3333333333333</ele><time>2026-05-01T15:17:30.041Z</time></trkpt><trkpt lat="35.8082824" lon="8.382139"><ele>569.0</ele><time>2026-05-01T15:17:31.04Z</time></trkpt><trkpt lat="35.808473" lon="8.382238"><ele>567.0</ele><time>2026-05-01T15:17:32.04Z</time></trkpt><trkpt lat="35.8086657" lon="8.3823386"><ele>565.0</ele><time>2026-05-01T15:17:33.04Z</time></trkpt><trkpt lat="35.8088566" lon="8.3824437"><ele>563.0</ele><time>2026-05-01T15:17:34.046Z</time></trkpt><trkpt lat="35.8090437" lon="8.3825539"><ele>563.0</ele><time>2026-05-01T15:17:35.043Z</time></trkpt><trkpt lat="35.809242" lon="8.3826632"><ele>563.0</ele><time>2026-05-01T15:17:36.043Z</time></trkpt><trkpt lat="35.8094378" lon="8.3827677"><ele>563.0</ele><time>2026-05-01T15:17:37.045Z</time></trkpt><trkpt lat="35.8098361" lon="8.382976"><ele>562.6666666666666</ele><time>2026-05-01T15:17:39.078Z</time></trkpt><trkpt lat="35.8100374" lon="8.3830732"><ele>562.3333333333334</ele><time>2026-05-01T15:17:40.028Z</time></trkpt><trkpt lat="35.8102428" lon="8.3831629"><ele>562.0</ele><time>2026-05-01T15:17:41.034Z</time></trkpt><trkpt lat="35.8104528" lon="8.3832448"><ele>561.6666666666667</ele><time>2026-05-01T15:17:42.029Z</time></trkpt><trkpt lat="35.8106598" lon="8.3833272"><ele>561.3333333333334</ele><time>2026-05-01T15:17:43.037Z</time></trkpt><trkpt lat="35.8108709" lon="8.3834091"><ele>561.0</ele><time>2026-05-01T15:17:44.045Z</time></trkpt><trkpt lat="35.8110796" lon="8.3834879"><ele>560.6666666666666</ele><time>2026-05-01T15:17:45.053Z</time></trkpt><trkpt lat="35.8112876" lon="8.3835646"><ele>560.3333333333333</ele><time>2026-05-01T15:17:46.042Z</time></trkpt><trkpt lat="35.8114914" lon="8.3836401"><ele>560.0</ele><time>2026-05-01T15:17:47.044Z</time></trkpt><trkpt lat="35.8116962" lon="8.3837132"><ele>560.0</ele><time>2026-05-01T15:17:48.045Z</time></trkpt><trkpt lat="35.8119059" lon="8.3837875"><ele>560.0</ele><time>2026-05-01T15:17:49.039Z</time></trkpt><trkpt lat="35.8121132" lon="8.3838635"><ele>560.0</ele><time>2026-05-01T15:17:50.044Z</time></trkpt><trkpt lat="35.8123247" lon="8.3839442"><ele>560.0</ele><time>2026-05-01T15:17:51.058Z</time></trkpt><trkpt lat="35.8125393" lon="8.384025"><ele>560.0</ele><time>2026-05-01T15:17:52.044Z</time></trkpt><trkpt lat="35.8127507" lon="8.3840977"><ele>560.0</ele><time>2026-05-01T15:17:53.048Z</time></trkpt><trkpt lat="35.8129606" lon="8.3841735"><ele>560.0</ele><time>2026-05-01T15:17:54.043Z</time></trkpt><trkpt lat="35.8131669" lon="8.3842504"><ele>560.0</ele><time>2026-05-01T15:17:55.047Z</time></trkpt><trkpt lat="35.8133702" lon="8.3843224"><ele>560.0</ele><time>2026-05-01T15:17:56.059Z</time></trkpt><trkpt lat="35.8135684" lon="8.384397"><ele>560.0</ele><time>2026-05-01T15:17:57.037Z</time></trkpt><trkpt lat="35.8137658" lon="8.3844716"><ele>560.0</ele><time>2026-05-01T15:17:58.041Z</time></trkpt><trkpt lat="35.8139607" lon="8.3845419"><ele>560.0</ele><time>2026-05-01T15:17:59.038Z</time></trkpt><trkpt lat="35.8141523" lon="8.3846085"><ele>559.6666666666666</ele><time>2026-05-01T15:18:00.043Z</time></trkpt><trkpt lat="35.8143466" lon="8.3846669"><ele>559.3333333333334</ele><time>2026-05-01T15:18:01.042Z</time></trkpt><trkpt lat="35.8145415" lon="8.3847058"><ele>559.0</ele><time>2026-05-01T15:18:02.023Z</time></trkpt><trkpt lat="35.8147433" lon="8.3847341"><ele>559.0</ele><time>2026-05-01T15:18:03.045Z</time></trkpt><trkpt lat="35.8149429" lon="8.3847385"><ele>559.0</ele><time>2026-05-01T15:18:04.03Z</time></trkpt><trkpt lat="35.8151397" lon="8.3847186"><ele>559.0</ele><time>2026-05-01T15:18:05.043Z</time></trkpt><trkpt lat="35.8153392" lon="8.3846757"><ele>558.3333333333334</ele><time>2026-05-01T15:18:06.037Z</time></trkpt><trkpt lat="35.8155405" lon="8.3846258"><ele>557.6666666666666</ele><time>2026-05-01T15:18:07.046Z</time></trkpt><trkpt lat="35.8157441" lon="8.3845703"><ele>557.0</ele><time>2026-05-01T15:18:08.041Z</time></trkpt><trkpt lat="35.8159405" lon="8.3845161"><ele>557.3333333333333</ele><time>2026-05-01T15:18:09.04Z</time></trkpt><trkpt lat="35.816137" lon="8.3844604"><ele>557.6666666666666</ele><time>2026-05-01T15:18:10.043Z</time></trkpt><trkpt lat="35.8163328" lon="8.3844138"><ele>558.0</ele><time>2026-05-01T15:18:11.033Z</time></trkpt><trkpt lat="35.8165299" lon="8.3843809"><ele>558.0</ele><time>2026-05-01T15:18:12.056Z</time></trkpt><trkpt lat="35.8167236" lon="8.3843627"><ele>558.0</ele><time>2026-05-01T15:18:13.048Z</time></trkpt><trkpt lat="35.8169238" lon="8.3843644"><ele>558.0</ele><time>2026-05-01T15:18:14.031Z</time></trkpt><trkpt lat="35.8171262" lon="8.3843802"><ele>557.3333333333334</ele><time>2026-05-01T15:18:15.046Z</time></trkpt><trkpt lat="35.8173359" lon="8.3843965"><ele>556.6666666666667</ele><time>2026-05-01T15:18:16.034Z</time></trkpt><trkpt lat="35.8175469" lon="8.38442"><ele>556.0</ele><time>2026-05-01T15:18:17.03Z</time></trkpt><trkpt lat="35.8177543" lon="8.3844431"><ele>555.0</ele><time>2026-05-01T15:18:18.039Z</time></trkpt><trkpt lat="35.8179589" lon="8.3844689"><ele>554.0</ele><time>2026-05-01T15:18:19.026Z</time></trkpt><trkpt lat="35.8181592" lon="8.3844962"><ele>553.0</ele><time>2026-05-01T15:18:20.042Z</time></trkpt><trkpt lat="35.8183584" lon="8.384519"><ele>552.0</ele><time>2026-05-01T15:18:21.036Z</time></trkpt><trkpt lat="35.8185542" lon="8.384542"><ele>551.0</ele><time>2026-05-01T15:18:22.035Z</time></trkpt><trkpt lat="35.8187493" lon="8.3845758"><ele>550.0</ele><time>2026-05-01T15:18:23.044Z</time></trkpt><trkpt lat="35.8189462" lon="8.3846206"><ele>550.0</ele><time>2026-05-01T15:18:24.04Z</time></trkpt><trkpt lat="35.8191416" lon="8.3846774"><ele>550.0</ele><time>2026-05-01T15:18:25.033Z</time></trkpt><trkpt lat="35.8193357" lon="8.3847464"><ele>550.0</ele><time>2026-05-01T15:18:26.046Z</time></trkpt><trkpt lat="35.8195273" lon="8.3848287"><ele>550.3333333333334</ele><time>2026-05-01T15:18:27.053Z</time></trkpt><trkpt lat="35.819722" lon="8.3849139"><ele>550.6666666666666</ele><time>2026-05-01T15:18:28.048Z</time></trkpt><trkpt lat="35.8199134" lon="8.3850051"><ele>551.0</ele><time>2026-05-01T15:18:29.045Z</time></trkpt><trkpt lat="35.8201003" lon="8.3851045"><ele>550.3333333333333</ele><time>2026-05-01T15:18:30.033Z</time></trkpt><trkpt lat="35.8202844" lon="8.3851959"><ele>549.6666666666666</ele><time>2026-05-01T15:18:31.041Z</time></trkpt><trkpt lat="35.820474" lon="8.3852889"><ele>549.0</ele><time>2026-05-01T15:18:32.024Z</time></trkpt><trkpt lat="35.8206592" lon="8.3853817"><ele>549.0</ele><time>2026-05-01T15:18:33.032Z</time></trkpt><trkpt lat="35.8208439" lon="8.3854736"><ele>549.0</ele><time>2026-05-01T15:18:34.033Z</time></trkpt><trkpt lat="35.8210348" lon="8.3855681"><ele>549.0</ele><time>2026-05-01T15:18:35.025Z</time></trkpt><trkpt lat="35.8212267" lon="8.3856587"><ele>548.6666666666666</ele><time>2026-05-01T15:18:36.037Z</time></trkpt><trkpt lat="35.8214152" lon="8.3857518"><ele>548.3333333333333</ele><time>2026-05-01T15:18:37.036Z</time></trkpt><trkpt lat="35.8216032" lon="8.3858417"><ele>548.0</ele><time>2026-05-01T15:18:38.039Z</time></trkpt><trkpt lat="35.8217926" lon="8.3859308"><ele>548.3333333333333</ele><time>2026-05-01T15:18:39.031Z</time></trkpt><trkpt lat="35.8219797" lon="8.3860189"><ele>548.6666666666666</ele><time>2026-05-01T15:18:40.038Z</time></trkpt><trkpt lat="35.8221586" lon="8.386108"><ele>549.0</ele><time>2026-05-01T15:18:41.049Z</time></trkpt><trkpt lat="35.8223373" lon="8.3861976"><ele>549.0</ele><time>2026-05-01T15:18:42.037Z</time></trkpt><trkpt lat="35.8225164" lon="8.3862905"><ele>549.0</ele><time>2026-05-01T15:18:43.046Z</time></trkpt><trkpt lat="35.8226939" lon="8.3863823"><ele>549.0</ele><time>2026-05-01T15:18:44.052Z</time></trkpt><trkpt lat="35.8228815" lon="8.386472"><ele>549.3333333333334</ele><time>2026-05-01T15:18:45.041Z</time></trkpt><trkpt lat="35.8230822" lon="8.386567"><ele>549.6666666666667</ele><time>2026-05-01T15:18:46.041Z</time></trkpt><trkpt lat="35.8232864" lon="8.3866662"><ele>550.0</ele><time>2026-05-01T15:18:47.041Z</time></trkpt><trkpt lat="35.8234965" lon="8.3867725"><ele>549.3333333333334</ele><time>2026-05-01T15:18:48.046Z</time></trkpt><trkpt lat="35.8237023" lon="8.3868808"><ele>548.6666666666666</ele><time>2026-05-01T15:18:49.037Z</time></trkpt><trkpt lat="35.8239115" lon="8.386983"><ele>548.0</ele><time>2026-05-01T15:18:50.043Z</time></trkpt><trkpt lat="35.8241169" lon="8.3870811"><ele>549.0</ele><time>2026-05-01T15:18:51.037Z</time></trkpt><trkpt lat="35.824322" lon="8.387185"><ele>550.0</ele><time>2026-05-01T15:18:52.043Z</time></trkpt><trkpt lat="35.8245267" lon="8.3872737"><ele>551.0</ele><time>2026-05-01T15:18:53.036Z</time></trkpt><trkpt lat="35.8247309" lon="8.3873579"><ele>551.0</ele><time>2026-05-01T15:18:54.046Z</time></trkpt><trkpt lat="35.8249416" lon="8.3874353"><ele>551.0</ele><time>2026-05-01T15:18:55.043Z</time></trkpt><trkpt lat="35.825161" lon="8.387513"><ele>551.0</ele><time>2026-05-01T15:18:56.051Z</time></trkpt><trkpt lat="35.8253842" lon="8.3875796"><ele>549.5</ele><time>2026-05-01T15:18:57.037Z</time></trkpt><trkpt lat="35.825617" lon="8.387641"><ele>548.0</ele><time>2026-05-01T15:18:58.029Z</time></trkpt><trkpt lat="35.8258541" lon="8.3876931"><ele>547.0</ele><time>2026-05-01T15:18:59.037Z</time></trkpt><trkpt lat="35.8260931" lon="8.3877459"><ele>546.0</ele><time>2026-05-01T15:19:00.04Z</time></trkpt><trkpt lat="35.8263291" lon="8.3878017"><ele>546.0</ele><time>2026-05-01T15:19:01.04Z</time></trkpt><trkpt lat="35.8265649" lon="8.3878549"><ele>546.0</ele><time>2026-05-01T15:19:02.039Z</time></trkpt><trkpt lat="35.8268025" lon="8.3879076"><ele>545.0</ele><time>2026-05-01T15:19:03.038Z</time></trkpt><trkpt lat="35.8270376" lon="8.3879639"><ele>544.0</ele><time>2026-05-01T15:19:04.045Z</time></trkpt><trkpt lat="35.8272684" lon="8.3880162"><ele>544.0</ele><time>2026-05-01T15:19:05.043Z</time></trkpt><trkpt lat="35.8275017" lon="8.3880671"><ele>544.0</ele><time>2026-05-01T15:19:06.043Z</time></trkpt><trkpt lat="35.8277318" lon="8.3881173"><ele>544.0</ele><time>2026-05-01T15:19:07.045Z</time></trkpt><trkpt lat="35.827962" lon="8.3881695"><ele>544.0</ele><time>2026-05-01T15:19:08.049Z</time></trkpt><trkpt lat="35.8281859" lon="8.388219"><ele>544.0</ele><time>2026-05-01T15:19:09.05Z</time></trkpt><trkpt lat="35.8284061" lon="8.3882688"><ele>544.0</ele><time>2026-05-01T15:19:10.047Z</time></trkpt><trkpt lat="35.8286305" lon="8.3883174"><ele>543.0</ele><time>2026-05-01T15:19:11.046Z</time></trkpt><trkpt lat="35.828853" lon="8.3883615"><ele>542.0</ele><time>2026-05-01T15:19:12.051Z</time></trkpt><trkpt lat="35.8290759" lon="8.3884146"><ele>542.0</ele><time>2026-05-01T15:19:13.039Z</time></trkpt><trkpt lat="35.8292965" lon="8.388466"><ele>542.0</ele><time>2026-05-01T15:19:14.048Z</time></trkpt><trkpt lat="35.8295173" lon="8.3885164"><ele>542.0</ele><time>2026-05-01T15:19:15.046Z</time></trkpt><trkpt lat="35.8297329" lon="8.3885668"><ele>542.0</ele><time>2026-05-01T15:19:16.044Z</time></trkpt><trkpt lat="35.8299501" lon="8.38861"><ele>542.0</ele><time>2026-05-01T15:19:17.039Z</time></trkpt><trkpt lat="35.8301639" lon="8.3886524"><ele>542.0</ele><time>2026-05-01T15:19:18.031Z</time></trkpt><trkpt lat="35.8303807" lon="8.3886869"><ele>542.0</ele><time>2026-05-01T15:19:19.044Z</time></trkpt><trkpt lat="35.830597" lon="8.3887179"><ele>542.0</ele><time>2026-05-01T15:19:20.035Z</time></trkpt><trkpt lat="35.8308092" lon="8.3887512"><ele>542.0</ele><time>2026-05-01T15:19:21.027Z</time></trkpt><trkpt lat="35.8310228" lon="8.3887743"><ele>542.3333333333333</ele><time>2026-05-01T15:19:22.056Z</time></trkpt><trkpt lat="35.8312341" lon="8.3887989"><ele>542.6666666666666</ele><time>2026-05-01T15:19:23.043Z</time></trkpt><trkpt lat="35.8314488" lon="8.3888277"><ele>543.0</ele><time>2026-05-01T15:19:24.038Z</time></trkpt><trkpt lat="35.8316651" lon="8.3888581"><ele>541.6666666666666</ele><time>2026-05-01T15:19:25.042Z</time></trkpt><trkpt lat="35.8318834" lon="8.3888923"><ele>540.3333333333333</ele><time>2026-05-01T15:19:26.045Z</time></trkpt><trkpt lat="35.8321051" lon="8.3889228"><ele>539.0</ele><time>2026-05-01T15:19:27.038Z</time></trkpt><trkpt lat="35.8323222" lon="8.3889497"><ele>539.0</ele><time>2026-05-01T15:19:28.049Z</time></trkpt><trkpt lat="35.8325407" lon="8.3889784"><ele>539.0</ele><time>2026-05-01T15:19:29.042Z</time></trkpt><trkpt lat="35.8327599" lon="8.3890027"><ele>539.0</ele><time>2026-05-01T15:19:30.045Z</time></trkpt><trkpt lat="35.8329808" lon="8.3890291"><ele>538.3333333333333</ele><time>2026-05-01T15:19:31.041Z</time></trkpt><trkpt lat="35.8332018" lon="8.3890584"><ele>537.6666666666666</ele><time>2026-05-01T15:19:32.035Z</time></trkpt><trkpt lat="35.8334217" lon="8.3890854"><ele>537.0</ele><time>2026-05-01T15:19:33.035Z</time></trkpt><trkpt lat="35.833644" lon="8.3891119"><ele>537.0</ele><time>2026-05-01T15:19:34.04Z</time></trkpt><trkpt lat="35.8338649" lon="8.3891362"><ele>537.0</ele><time>2026-05-01T15:19:35.045Z</time></trkpt><trkpt lat="35.8340863" lon="8.3891607"><ele>537.0</ele><time>2026-05-01T15:19:36.041Z</time></trkpt><trkpt lat="35.8343029" lon="8.3891877"><ele>536.6666666666666</ele><time>2026-05-01T15:19:37.053Z</time></trkpt><trkpt lat="35.8345171" lon="8.3892181"><ele>536.3333333333333</ele><time>2026-05-01T15:19:38.037Z</time></trkpt><trkpt lat="35.8347277" lon="8.3892565"><ele>536.0</ele><time>2026-05-01T15:19:39.04Z</time></trkpt><trkpt lat="35.8349405" lon="8.3893153"><ele>535.0</ele><time>2026-05-01T15:19:40.042Z</time></trkpt><trkpt lat="35.8351478" lon="8.389382"><ele>534.0</ele><time>2026-05-01T15:19:41.048Z</time></trkpt><trkpt lat="35.8353488" lon="8.3894688"><ele>533.0</ele><time>2026-05-01T15:19:42.046Z</time></trkpt><trkpt lat="35.8355433" lon="8.3895801"><ele>533.0</ele><time>2026-05-01T15:19:43.033Z</time></trkpt><trkpt lat="35.8357378" lon="8.3897078"><ele>533.0</ele><time>2026-05-01T15:19:44.033Z</time></trkpt><trkpt lat="35.8359363" lon="8.3898484"><ele>533.0</ele><time>2026-05-01T15:19:45.037Z</time></trkpt><trkpt lat="35.8361468" lon="8.3900056"><ele>531.5</ele><time>2026-05-01T15:19:46.038Z</time></trkpt><trkpt lat="35.8363702" lon="8.3901722"><ele>530.0</ele><time>2026-05-01T15:19:47.055Z</time></trkpt><trkpt lat="35.8365967" lon="8.3903365"><ele>530.0</ele><time>2026-05-01T15:19:48.041Z</time></trkpt><trkpt lat="35.8368205" lon="8.3904937"><ele>530.0</ele><time>2026-05-01T15:19:49.04Z</time></trkpt><trkpt lat="35.8370428" lon="8.3906534"><ele>530.0</ele><time>2026-05-01T15:19:50.042Z</time></trkpt><trkpt lat="35.8372593" lon="8.3908142"><ele>530.0</ele><time>2026-05-01T15:19:51.035Z</time></trkpt><trkpt lat="35.8374733" lon="8.3909776"><ele>528.0</ele><time>2026-05-01T15:19:52.054Z</time></trkpt><trkpt lat="35.8376868" lon="8.3911368"><ele>526.0</ele><time>2026-05-01T15:19:53.044Z</time></trkpt><trkpt lat="35.8379023" lon="8.3912969"><ele>525.5</ele><time>2026-05-01T15:19:54.034Z</time></trkpt><trkpt lat="35.8381161" lon="8.3914567"><ele>525.0</ele><time>2026-05-01T15:19:55.045Z</time></trkpt><trkpt lat="35.8383261" lon="8.3916149"><ele>524.5</ele><time>2026-05-01T15:19:56.045Z</time></trkpt><trkpt lat="35.8385321" lon="8.3917714"><ele>524.0</ele><time>2026-05-01T15:19:57.04Z</time></trkpt><trkpt lat="35.8387392" lon="8.3919276"><ele>524.0</ele><time>2026-05-01T15:19:58.045Z</time></trkpt><trkpt lat="35.8389499" lon="8.3920723"><ele>524.0</ele><time>2026-05-01T15:19:59.043Z</time></trkpt><trkpt lat="35.8391581" lon="8.3922171"><ele>525.5</ele><time>2026-05-01T15:20:00.049Z</time></trkpt><trkpt lat="35.8393601" lon="8.392364"><ele>527.0</ele><time>2026-05-01T15:20:01.033Z</time></trkpt><trkpt lat="35.8395622" lon="8.3925028"><ele>527.0</ele><time>2026-05-01T15:20:02.033Z</time></trkpt><trkpt lat="35.8397636" lon="8.3926339"><ele>527.0</ele><time>2026-05-01T15:20:03.109Z</time></trkpt><trkpt lat="35.8399678" lon="8.3927558"><ele>526.5</ele><time>2026-05-01T15:20:04.034Z</time></trkpt><trkpt lat="35.8401757" lon="8.3928672"><ele>526.0</ele><time>2026-05-01T15:20:05.061Z</time></trkpt><trkpt lat="35.8403862" lon="8.3929711"><ele>526.6666666666667</ele><time>2026-05-01T15:20:06.035Z</time></trkpt><trkpt lat="35.840595" lon="8.3930735"><ele>527.3333333333334</ele><time>2026-05-01T15:20:07.042Z</time></trkpt><trkpt lat="35.840804" lon="8.3931704"><ele>528.0</ele><time>2026-05-01T15:20:08.042Z</time></trkpt><trkpt lat="35.8410136" lon="8.3932521"><ele>528.0</ele><time>2026-05-01T15:20:09.039Z</time></trkpt><trkpt lat="35.8412174" lon="8.3933228"><ele>528.0</ele><time>2026-05-01T15:20:10.045Z</time></trkpt><trkpt lat="35.8414236" lon="8.3933887"><ele>528.0</ele><time>2026-05-01T15:20:11.035Z</time></trkpt><trkpt lat="35.8416293" lon="8.393452"><ele>528.3333333333334</ele><time>2026-05-01T15:20:12.043Z</time></trkpt><trkpt lat="35.8418326" lon="8.3935087"><ele>528.6666666666667</ele><time>2026-05-01T15:20:13.048Z</time></trkpt><trkpt lat="35.8420379" lon="8.3935605"><ele>529.0</ele><time>2026-05-01T15:20:14.044Z</time></trkpt><trkpt lat="35.8422416" lon="8.3936051"><ele>529.0</ele><time>2026-05-01T15:20:15.036Z</time></trkpt><trkpt lat="35.8424426" lon="8.3936514"><ele>529.0</ele><time>2026-05-01T15:20:16.044Z</time></trkpt><trkpt lat="35.8426453" lon="8.3937033"><ele>529.0</ele><time>2026-05-01T15:20:17.044Z</time></trkpt><trkpt lat="35.8428469" lon="8.3937489"><ele>528.6666666666667</ele><time>2026-05-01T15:20:18.046Z</time></trkpt><trkpt lat="35.8430491" lon="8.3937952"><ele>528.3333333333334</ele><time>2026-05-01T15:20:19.033Z</time></trkpt><trkpt lat="35.8432532" lon="8.3938461"><ele>528.0</ele><time>2026-05-01T15:20:20.036Z</time></trkpt><trkpt lat="35.8434591" lon="8.3938962"><ele>527.0</ele><time>2026-05-01T15:20:21.043Z</time></trkpt><trkpt lat="35.8436667" lon="8.3939418"><ele>526.0</ele><time>2026-05-01T15:20:22.049Z</time></trkpt><trkpt lat="35.843876" lon="8.3939941"><ele>525.0</ele><time>2026-05-01T15:20:23.055Z</time></trkpt><trkpt lat="35.8440874" lon="8.3940449"><ele>524.3333333333334</ele><time>2026-05-01T15:20:24.042Z</time></trkpt><trkpt lat="35.8443009" lon="8.394096"><ele>523.6666666666667</ele><time>2026-05-01T15:20:25.048Z</time></trkpt><trkpt lat="35.8445177" lon="8.3941464"><ele>523.0</ele><time>2026-05-01T15:20:26.043Z</time></trkpt><trkpt lat="35.844729" lon="8.3941987"><ele>523.0</ele><time>2026-05-01T15:20:27.042Z</time></trkpt><trkpt lat="35.844943" lon="8.3942511"><ele>523.0</ele><time>2026-05-01T15:20:28.027Z</time></trkpt><trkpt lat="35.8451505" lon="8.3943163"><ele>523.0</ele><time>2026-05-01T15:20:29.037Z</time></trkpt><trkpt lat="35.8453542" lon="8.3943834"><ele>522.6666666666667</ele><time>2026-05-01T15:20:30.031Z</time></trkpt><trkpt lat="35.8455508" lon="8.3944684"><ele>522.3333333333334</ele><time>2026-05-01T15:20:31.038Z</time></trkpt><trkpt lat="35.845748" lon="8.3945617"><ele>522.0</ele><time>2026-05-01T15:20:32.031Z</time></trkpt><trkpt lat="35.8459365" lon="8.3946672"><ele>521.0</ele><time>2026-05-01T15:20:33.035Z</time></trkpt><trkpt lat="35.8461255" lon="8.3947789"><ele>520.0</ele><time>2026-05-01T15:20:34.036Z</time></trkpt><trkpt lat="35.8463097" lon="8.3948985"><ele>519.0</ele><time>2026-05-01T15:20:35.034Z</time></trkpt><trkpt lat="35.8464909" lon="8.3950243"><ele>519.0</ele><time>2026-05-01T15:20:36.04Z</time></trkpt><trkpt lat="35.8466667" lon="8.3951509"><ele>519.0</ele><time>2026-05-01T15:20:37.044Z</time></trkpt><trkpt lat="35.8468324" lon="8.3952682"><ele>519.0</ele><time>2026-05-01T15:20:38.06Z</time></trkpt><trkpt lat="35.8469935" lon="8.3953829"><ele>518.6666666666666</ele><time>2026-05-01T15:20:39.047Z</time></trkpt><trkpt lat="35.8471508" lon="8.3954878"><ele>518.3333333333333</ele><time>2026-05-01T15:20:40.043Z</time></trkpt><trkpt lat="35.8473108" lon="8.395594"><ele>518.0</ele><time>2026-05-01T15:20:41.044Z</time></trkpt><trkpt lat="35.8474594" lon="8.3957015"><ele>516.6666666666666</ele><time>2026-05-01T15:20:42.042Z</time></trkpt><trkpt lat="35.8476031" lon="8.3958086"><ele>515.3333333333334</ele><time>2026-05-01T15:20:43.05Z</time></trkpt><trkpt lat="35.8477427" lon="8.3959077"><ele>514.0</ele><time>2026-05-01T15:20:44.045Z</time></trkpt><trkpt lat="35.8478731" lon="8.3959972"><ele>513.75</ele><time>2026-05-01T15:20:45.036Z</time></trkpt><trkpt lat="35.8479981" lon="8.3960813"><ele>513.5</ele><time>2026-05-01T15:20:46.042Z</time></trkpt><trkpt lat="35.8481182" lon="8.3961618"><ele>513.25</ele><time>2026-05-01T15:20:47.046Z</time></trkpt><trkpt lat="35.8482308" lon="8.3962461"><ele>513.0</ele><time>2026-05-01T15:20:48.033Z</time></trkpt><trkpt lat="35.848346" lon="8.3963309"><ele>512.75</ele><time>2026-05-01T15:20:49.034Z</time></trkpt><trkpt lat="35.8484542" lon="8.3964138"><ele>512.5</ele><time>2026-05-01T15:20:50.039Z</time></trkpt><trkpt lat="35.8485632" lon="8.3964925"><ele>512.25</ele><time>2026-05-01T15:20:51.042Z</time></trkpt><trkpt lat="35.8486653" lon="8.3965606"><ele>512.0</ele><time>2026-05-01T15:20:52.043Z</time></trkpt><trkpt lat="35.8487504" lon="8.3966218"><ele>511.99999999999994</ele><time>2026-05-01T15:20:53.035Z</time></trkpt><trkpt lat="35.8488316" lon="8.3966788"><ele>512.0</ele><time>2026-05-01T15:20:54.035Z</time></trkpt><trkpt lat="35.8489034" lon="8.3967301"><ele>512.0</ele><time>2026-05-01T15:20:55.042Z</time></trkpt><trkpt lat="35.8489658" lon="8.3967711"><ele>512.0</ele><time>2026-05-01T15:20:56.04Z</time></trkpt><trkpt lat="35.849057" lon="8.3968354"><ele>511.99999999999994</ele><time>2026-05-01T15:20:58.043Z</time></trkpt><trkpt lat="35.8491176" lon="8.3968867"><ele>512.0</ele><time>2026-05-01T15:21:00.038Z</time></trkpt><trkpt lat="35.8491787" lon="8.3969407"><ele>511.99999999999994</ele><time>2026-05-01T15:21:03.034Z</time></trkpt><trkpt lat="35.8492299" lon="8.3969883"><ele>512.0</ele><time>2026-05-01T15:21:27.041Z</time></trkpt><trkpt lat="35.8492222" lon="8.3970856"><ele>512.0</ele><time>2026-05-01T15:21:32.043Z</time></trkpt><trkpt lat="35.8492487" lon="8.3971592"><ele>512.0</ele><time>2026-05-01T15:31:03.087Z</time></trkpt><trkpt lat="35.8493013" lon="8.3972839"><ele>511.99999999999994</ele><time>2026-05-01T15:31:05.079Z</time></trkpt><trkpt lat="35.8493316" lon="8.3973861"><ele>512.0</ele><time>2026-05-01T15:31:06.101Z</time></trkpt><trkpt lat="35.8493636" lon="8.3975275"><ele>510.0</ele><time>2026-05-01T15:31:07.112Z</time></trkpt><trkpt lat="35.8493858" lon="8.3976769"><ele>508.0</ele><time>2026-05-01T15:31:08.049Z</time></trkpt><trkpt lat="35.8493942" lon="8.3978559"><ele>506.0</ele><time>2026-05-01T15:31:09.039Z</time></trkpt><trkpt lat="35.8494156" lon="8.3980839"><ele>504.66666666666663</ele><time>2026-05-01T15:31:10.088Z</time></trkpt><trkpt lat="35.8494225" lon="8.3983058"><ele>503.33333333333337</ele><time>2026-05-01T15:31:11.073Z</time></trkpt><trkpt lat="35.8494455" lon="8.3985121"><ele>502.0</ele><time>2026-05-01T15:31:12.053Z</time></trkpt><trkpt lat="35.8494781" lon="8.3987016"><ele>502.33333333333337</ele><time>2026-05-01T15:31:13.085Z</time></trkpt><trkpt lat="35.849524" lon="8.3988908"><ele>502.66666666666663</ele><time>2026-05-01T15:31:14.031Z</time></trkpt><trkpt lat="35.8495868" lon="8.3990773"><ele>503.0</ele><time>2026-05-01T15:31:15.063Z</time></trkpt><trkpt lat="35.8496522" lon="8.399257"><ele>503.0</ele><time>2026-05-01T15:31:16.046Z</time></trkpt><trkpt lat="35.8497167" lon="8.3994267"><ele>503.0</ele><time>2026-05-01T15:31:17.028Z</time></trkpt><trkpt lat="35.8497874" lon="8.3996006"><ele>503.0</ele><time>2026-05-01T15:31:18.057Z</time></trkpt><trkpt lat="35.8498627" lon="8.3997878"><ele>503.5</ele><time>2026-05-01T15:31:19.136Z</time></trkpt><trkpt lat="35.8500475" lon="8.4001689"><ele>504.0</ele><time>2026-05-01T15:31:21.03Z</time></trkpt><trkpt lat="35.850297" lon="8.400677"><ele>503.5</ele><time>2026-05-01T15:31:24.125Z</time></trkpt><trkpt lat="35.8504514" lon="8.4010088"><ele>503.0</ele><time>2026-05-01T15:31:26.035Z</time></trkpt><trkpt lat="35.8506683" lon="8.4014747"><ele>503.0</ele><time>2026-05-01T15:31:29.031Z</time></trkpt><trkpt lat="35.8508003" lon="8.401772"><ele>503.0</ele><time>2026-05-01T15:31:31.089Z</time></trkpt><trkpt lat="35.850927" lon="8.402072"><ele>502.75</ele><time>2026-05-01T15:31:33.037Z</time></trkpt><trkpt lat="35.8509892" lon="8.4022207"><ele>502.5</ele><time>2026-05-01T15:31:34.029Z</time></trkpt><trkpt lat="35.8510505" lon="8.4023741"><ele>502.25</ele><time>2026-05-01T15:31:35.028Z</time></trkpt><trkpt lat="35.8511062" lon="8.4025218"><ele>502.0</ele><time>2026-05-01T15:31:36.041Z</time></trkpt><trkpt lat="35.8511638" lon="8.4026685"><ele>502.0</ele><time>2026-05-01T15:31:37.051Z</time></trkpt><trkpt lat="35.8512209" lon="8.4028156"><ele>502.0</ele><time>2026-05-01T15:31:38.03Z</time></trkpt><trkpt lat="35.8512758" lon="8.4029594"><ele>502.0</ele><time>2026-05-01T15:31:39.04Z</time></trkpt><trkpt lat="35.8513303" lon="8.403102"><ele>502.0</ele><time>2026-05-01T15:31:40.041Z</time></trkpt><trkpt lat="35.8513873" lon="8.4032481"><ele>501.0</ele><time>2026-05-01T15:31:41.037Z</time></trkpt><trkpt lat="35.8514412" lon="8.4033942"><ele>500.0</ele><time>2026-05-01T15:31:42.04Z</time></trkpt><trkpt lat="35.8514885" lon="8.4035383"><ele>499.0</ele><time>2026-05-01T15:31:43.078Z</time></trkpt><trkpt lat="35.851538" lon="8.4036777"><ele>498.0</ele><time>2026-05-01T15:31:44.095Z</time></trkpt><trkpt lat="35.8516399" lon="8.4039557"><ele>498.0</ele><time>2026-05-01T15:31:46.039Z</time></trkpt><trkpt lat="35.8517433" lon="8.4042414"><ele>498.0</ele><time>2026-05-01T15:31:48.066Z</time></trkpt><trkpt lat="35.8517977" lon="8.404386"><ele>498.0</ele><time>2026-05-01T15:31:49.026Z</time></trkpt><trkpt lat="35.851854" lon="8.4045397"><ele>499.5</ele><time>2026-05-01T15:31:50.046Z</time></trkpt><trkpt lat="35.8519112" lon="8.4046894"><ele>501.0</ele><time>2026-05-01T15:31:51.044Z</time></trkpt><trkpt lat="35.8519652" lon="8.404843"><ele>502.5</ele><time>2026-05-01T15:31:52.053Z</time></trkpt><trkpt lat="35.8520253" lon="8.4050007"><ele>504.0</ele><time>2026-05-01T15:31:53.042Z</time></trkpt><trkpt lat="35.8520785" lon="8.405155"><ele>504.0</ele><time>2026-05-01T15:31:54.083Z</time></trkpt><trkpt lat="35.8521308" lon="8.4053033"><ele>504.0</ele><time>2026-05-01T15:31:55.026Z</time></trkpt><trkpt lat="35.852183" lon="8.4054391"><ele>504.0</ele><time>2026-05-01T15:31:56.045Z</time></trkpt><trkpt lat="35.852232" lon="8.4055743"><ele>504.0</ele><time>2026-05-01T15:31:57.046Z</time></trkpt><trkpt lat="35.8522806" lon="8.4057069"><ele>505.0</ele><time>2026-05-01T15:31:58.039Z</time></trkpt><trkpt lat="35.8523284" lon="8.4058342"><ele>506.0</ele><time>2026-05-01T15:31:59.049Z</time></trkpt><trkpt lat="35.8523752" lon="8.4059667"><ele>507.0</ele><time>2026-05-01T15:32:00.045Z</time></trkpt><trkpt lat="35.8524197" lon="8.4060928"><ele>508.0</ele><time>2026-05-01T15:32:01.061Z</time></trkpt><trkpt lat="35.8524682" lon="8.4062134"><ele>507.75</ele><time>2026-05-01T15:32:02.04Z</time></trkpt><trkpt lat="35.8525144" lon="8.4063372"><ele>507.5</ele><time>2026-05-01T15:32:03.043Z</time></trkpt><trkpt lat="35.8525612" lon="8.4064685"><ele>507.25</ele><time>2026-05-01T15:32:04.046Z</time></trkpt><trkpt lat="35.8526002" lon="8.4065937"><ele>507.0</ele><time>2026-05-01T15:32:05.042Z</time></trkpt><trkpt lat="35.8526429" lon="8.406726"><ele>508.75</ele><time>2026-05-01T15:32:06.046Z</time></trkpt><trkpt lat="35.8526911" lon="8.4068587"><ele>510.5</ele><time>2026-05-01T15:32:07.045Z</time></trkpt><trkpt lat="35.8527344" lon="8.4069902"><ele>512.25</ele><time>2026-05-01T15:32:08.048Z</time></trkpt><trkpt lat="35.8527776" lon="8.4071366"><ele>514.0</ele><time>2026-05-01T15:32:09.045Z</time></trkpt><trkpt lat="35.852825" lon="8.40728"><ele>514.0</ele><time>2026-05-01T15:32:10.035Z</time></trkpt><trkpt lat="35.8528664" lon="8.4074357"><ele>514.0</ele><time>2026-05-01T15:32:11.079Z</time></trkpt><trkpt lat="35.8529023" lon="8.4075914"><ele>514.0</ele><time>2026-05-01T15:32:12.048Z</time></trkpt><trkpt lat="35.8529386" lon="8.4077476"><ele>514.0</ele><time>2026-05-01T15:32:13.048Z</time></trkpt><trkpt lat="35.8529731" lon="8.4079009"><ele>514.75</ele><time>2026-05-01T15:32:14.054Z</time></trkpt><trkpt lat="35.853013" lon="8.4080468"><ele>515.5</ele><time>2026-05-01T15:32:15.056Z</time></trkpt><trkpt lat="35.8530456" lon="8.4081887"><ele>516.25</ele><time>2026-05-01T15:32:16.043Z</time></trkpt><trkpt lat="35.8530744" lon="8.408343"><ele>517.0</ele><time>2026-05-01T15:32:17.052Z</time></trkpt><trkpt lat="35.853104" lon="8.4085034"><ele>517.0</ele><time>2026-05-01T15:32:18.052Z</time></trkpt><trkpt lat="35.8531319" lon="8.408663"><ele>517.0</ele><time>2026-05-01T15:32:19.051Z</time></trkpt><trkpt lat="35.8531555" lon="8.4088283"><ele>517.0</ele><time>2026-05-01T15:32:20.044Z</time></trkpt><trkpt lat="35.8531814" lon="8.4089857"><ele>517.0</ele><time>2026-05-01T15:32:21.046Z</time></trkpt><trkpt lat="35.8531983" lon="8.4091442"><ele>517.25</ele><time>2026-05-01T15:32:22.058Z</time></trkpt><trkpt lat="35.8532167" lon="8.4093107"><ele>517.5</ele><time>2026-05-01T15:32:23.052Z</time></trkpt><trkpt lat="35.8532338" lon="8.4094786"><ele>517.75</ele><time>2026-05-01T15:32:24.056Z</time></trkpt><trkpt lat="35.8532518" lon="8.4096434"><ele>518.0</ele><time>2026-05-01T15:32:25.054Z</time></trkpt><trkpt lat="35.8532734" lon="8.4098101"><ele>519.25</ele><time>2026-05-01T15:32:26.051Z</time></trkpt><trkpt lat="35.8532867" lon="8.4099705"><ele>520.5</ele><time>2026-05-01T15:32:27.051Z</time></trkpt><trkpt lat="35.8532948" lon="8.4101278"><ele>521.75</ele><time>2026-05-01T15:32:28.061Z</time></trkpt><trkpt lat="35.8533043" lon="8.4102834"><ele>523.0</ele><time>2026-05-01T15:32:29.056Z</time></trkpt><trkpt lat="35.8533102" lon="8.410441"><ele>523.25</ele><time>2026-05-01T15:32:30.073Z</time></trkpt><trkpt lat="35.8533107" lon="8.4106042"><ele>523.5</ele><time>2026-05-01T15:32:31.058Z</time></trkpt><trkpt lat="35.8533084" lon="8.4107666"><ele>523.75</ele><time>2026-05-01T15:32:32.048Z</time></trkpt><trkpt lat="35.8533078" lon="8.4109271"><ele>524.0</ele><time>2026-05-01T15:32:33.055Z</time></trkpt><trkpt lat="35.8533047" lon="8.4110852"><ele>524.0</ele><time>2026-05-01T15:32:34.055Z</time></trkpt><trkpt lat="35.8533012" lon="8.411246"><ele>524.0</ele><time>2026-05-01T15:32:35.067Z</time></trkpt><trkpt lat="35.853298" lon="8.4114126"><ele>524.0</ele><time>2026-05-01T15:32:36.065Z</time></trkpt><trkpt lat="35.8532912" lon="8.4115771"><ele>524.0</ele><time>2026-05-01T15:32:37.059Z</time></trkpt><trkpt lat="35.8532831" lon="8.4117481"><ele>525.0</ele><time>2026-05-01T15:32:38.072Z</time></trkpt><trkpt lat="35.8532788" lon="8.4119223"><ele>526.0</ele><time>2026-05-01T15:32:39.065Z</time></trkpt><trkpt lat="35.8532719" lon="8.4121074"><ele>527.0</ele><time>2026-05-01T15:32:40.047Z</time></trkpt><trkpt lat="35.8532669" lon="8.412306"><ele>527.6666666666666</ele><time>2026-05-01T15:32:41.054Z</time></trkpt><trkpt lat="35.8532587" lon="8.412498"><ele>528.3333333333334</ele><time>2026-05-01T15:32:42.068Z</time></trkpt><trkpt lat="35.8532495" lon="8.412695"><ele>529.0</ele><time>2026-05-01T15:32:43.052Z</time></trkpt><trkpt lat="35.8532429" lon="8.4128905"><ele>529.3333333333334</ele><time>2026-05-01T15:32:44.055Z</time></trkpt><trkpt lat="35.8532369" lon="8.413094"><ele>529.6666666666666</ele><time>2026-05-01T15:32:45.063Z</time></trkpt><trkpt lat="35.8532293" lon="8.4133053"><ele>530.0</ele><time>2026-05-01T15:32:46.06Z</time></trkpt><trkpt lat="35.8532224" lon="8.413521"><ele>530.0</ele><time>2026-05-01T15:32:47.045Z</time></trkpt><trkpt lat="35.8532181" lon="8.4137378"><ele>530.0</ele><time>2026-05-01T15:32:48.073Z</time></trkpt><trkpt lat="35.8532064" lon="8.4139526"><ele>530.0</ele><time>2026-05-01T15:32:49.05Z</time></trkpt><trkpt lat="35.8531972" lon="8.4141626"><ele>530.0</ele><time>2026-05-01T15:32:50.048Z</time></trkpt><trkpt lat="35.853183" lon="8.4143751"><ele>530.0</ele><time>2026-05-01T15:32:51.052Z</time></trkpt><trkpt lat="35.8531786" lon="8.4145777"><ele>530.0</ele><time>2026-05-01T15:32:52.047Z</time></trkpt><trkpt lat="35.8531717" lon="8.4147723"><ele>531.0</ele><time>2026-05-01T15:32:53.042Z</time></trkpt><trkpt lat="35.8531648" lon="8.4149618"><ele>532.0</ele><time>2026-05-01T15:32:54.048Z</time></trkpt><trkpt lat="35.8531606" lon="8.4151483"><ele>533.0</ele><time>2026-05-01T15:32:55.069Z</time></trkpt><trkpt lat="35.8531522" lon="8.4153326"><ele>533.5</ele><time>2026-05-01T15:32:56.043Z</time></trkpt><trkpt lat="35.8531454" lon="8.4155122"><ele>534.0</ele><time>2026-05-01T15:32:57.053Z</time></trkpt><trkpt lat="35.8531395" lon="8.415692"><ele>534.5</ele><time>2026-05-01T15:32:58.043Z</time></trkpt><trkpt lat="35.8531316" lon="8.4158783"><ele>535.0</ele><time>2026-05-01T15:32:59.055Z</time></trkpt><trkpt lat="35.8531254" lon="8.4160672"><ele>535.0</ele><time>2026-05-01T15:33:00.063Z</time></trkpt><trkpt lat="35.8531183" lon="8.4162573"><ele>535.0</ele><time>2026-05-01T15:33:01.057Z</time></trkpt><trkpt lat="35.8531102" lon="8.4164503"><ele>535.0</ele><time>2026-05-01T15:33:02.052Z</time></trkpt><trkpt lat="35.8531002" lon="8.4166436"><ele>535.0</ele><time>2026-05-01T15:33:03.04Z</time></trkpt><trkpt lat="35.8530923" lon="8.4168403"><ele>535.0</ele><time>2026-05-01T15:33:04.038Z</time></trkpt><trkpt lat="35.8530869" lon="8.4170412"><ele>535.0</ele><time>2026-05-01T15:33:05.057Z</time></trkpt><trkpt lat="35.8530769" lon="8.4172419"><ele>534.0</ele><time>2026-05-01T15:33:06.064Z</time></trkpt><trkpt lat="35.8530696" lon="8.4174425"><ele>533.0</ele><time>2026-05-01T15:33:07.053Z</time></trkpt><trkpt lat="35.8530598" lon="8.4176481"><ele>532.0</ele><time>2026-05-01T15:33:08.048Z</time></trkpt><trkpt lat="35.8530497" lon="8.417852"><ele>532.6666666666667</ele><time>2026-05-01T15:33:09.05Z</time></trkpt><trkpt lat="35.8530432" lon="8.4180583"><ele>533.3333333333334</ele><time>2026-05-01T15:33:10.049Z</time></trkpt><trkpt lat="35.8530333" lon="8.4182652"><ele>534.0</ele><time>2026-05-01T15:33:11.068Z</time></trkpt><trkpt lat="35.853023" lon="8.4184712"><ele>534.0</ele><time>2026-05-01T15:33:12.078Z</time></trkpt><trkpt lat="35.8530192" lon="8.4186807"><ele>534.0</ele><time>2026-05-01T15:33:13.055Z</time></trkpt><trkpt lat="35.8530107" lon="8.4188923"><ele>534.0</ele><time>2026-05-01T15:33:14.054Z</time></trkpt><trkpt lat="35.853002" lon="8.4191039"><ele>534.6666666666666</ele><time>2026-05-01T15:33:15.063Z</time></trkpt><trkpt lat="35.8529971" lon="8.4193202"><ele>535.3333333333333</ele><time>2026-05-01T15:33:16.057Z</time></trkpt><trkpt lat="35.8529902" lon="8.4195379"><ele>536.0</ele><time>2026-05-01T15:33:17.057Z</time></trkpt><trkpt lat="35.8529842" lon="8.4197631"><ele>537.0</ele><time>2026-05-01T15:33:18.063Z</time></trkpt><trkpt lat="35.8529749" lon="8.4199948"><ele>538.0</ele><time>2026-05-01T15:33:19.049Z</time></trkpt><trkpt lat="35.8529638" lon="8.4202266"><ele>539.0</ele><time>2026-05-01T15:33:20.049Z</time></trkpt><trkpt lat="35.85295" lon="8.4204584"><ele>538.6666666666666</ele><time>2026-05-01T15:33:21.069Z</time></trkpt><trkpt lat="35.8529387" lon="8.4206882"><ele>538.3333333333334</ele><time>2026-05-01T15:33:22.071Z</time></trkpt><trkpt lat="35.8529289" lon="8.4209201"><ele>538.0</ele><time>2026-05-01T15:33:23.057Z</time></trkpt><trkpt lat="35.8529214" lon="8.4211508"><ele>538.6666666666667</ele><time>2026-05-01T15:33:24.063Z</time></trkpt><trkpt lat="35.8529118" lon="8.4213798"><ele>539.3333333333334</ele><time>2026-05-01T15:33:25.07Z</time></trkpt><trkpt lat="35.8529005" lon="8.4216062"><ele>540.0</ele><time>2026-05-01T15:33:26.058Z</time></trkpt><trkpt lat="35.8528897" lon="8.4218294"><ele>540.0</ele><time>2026-05-01T15:33:27.062Z</time></trkpt><trkpt lat="35.852881" lon="8.4220479"><ele>540.0</ele><time>2026-05-01T15:33:28.046Z</time></trkpt><trkpt lat="35.8528746" lon="8.422263"><ele>540.0</ele><time>2026-05-01T15:33:29.055Z</time></trkpt><trkpt lat="35.8528634" lon="8.4224791"><ele>541.0</ele><time>2026-05-01T15:33:30.063Z</time></trkpt><trkpt lat="35.8528545" lon="8.4226963"><ele>542.0</ele><time>2026-05-01T15:33:31.053Z</time></trkpt><trkpt lat="35.8528461" lon="8.4229152"><ele>543.0</ele><time>2026-05-01T15:33:32.051Z</time></trkpt><trkpt lat="35.8528348" lon="8.4231355"><ele>544.0</ele><time>2026-05-01T15:33:33.054Z</time></trkpt><trkpt lat="35.8528217" lon="8.4233515"><ele>545.0</ele><time>2026-05-01T15:33:34.057Z</time></trkpt><trkpt lat="35.8528122" lon="8.4235723"><ele>546.0</ele><time>2026-05-01T15:33:35.059Z</time></trkpt><trkpt lat="35.852803" lon="8.4237937"><ele>546.6666666666666</ele><time>2026-05-01T15:33:36.067Z</time></trkpt><trkpt lat="35.8527987" lon="8.4240139"><ele>547.3333333333333</ele><time>2026-05-01T15:33:37.049Z</time></trkpt><trkpt lat="35.8527934" lon="8.4242302"><ele>548.0</ele><time>2026-05-01T15:33:38.049Z</time></trkpt><trkpt lat="35.8527892" lon="8.4244453"><ele>548.6666666666666</ele><time>2026-05-01T15:33:39.043Z</time></trkpt><trkpt lat="35.8527787" lon="8.4246568"><ele>549.3333333333334</ele><time>2026-05-01T15:33:40.056Z</time></trkpt><trkpt lat="35.8527676" lon="8.4248602"><ele>550.0</ele><time>2026-05-01T15:33:41.06Z</time></trkpt><trkpt lat="35.8527606" lon="8.4250744"><ele>550.0</ele><time>2026-05-01T15:33:42.056Z</time></trkpt><trkpt lat="35.8527504" lon="8.4252887"><ele>550.0</ele><time>2026-05-01T15:33:43.067Z</time></trkpt><trkpt lat="35.8527401" lon="8.4255116"><ele>550.0</ele><time>2026-05-01T15:33:44.062Z</time></trkpt><trkpt lat="35.85273" lon="8.4257472"><ele>549.6666666666667</ele><time>2026-05-01T15:33:45.053Z</time></trkpt><trkpt lat="35.8527179" lon="8.4259858"><ele>549.3333333333334</ele><time>2026-05-01T15:33:46.053Z</time></trkpt><trkpt lat="35.8527048" lon="8.4262278"><ele>549.0</ele><time>2026-05-01T15:33:47.059Z</time></trkpt><trkpt lat="35.8526957" lon="8.4264728"><ele>548.6666666666666</ele><time>2026-05-01T15:33:48.07Z</time></trkpt><trkpt lat="35.8526787" lon="8.4267096"><ele>548.3333333333333</ele><time>2026-05-01T15:33:49.05Z</time></trkpt><trkpt lat="35.8526558" lon="8.4269446"><ele>548.0</ele><time>2026-05-01T15:33:50.066Z</time></trkpt><trkpt lat="35.8526292" lon="8.4271797"><ele>548.3333333333333</ele><time>2026-05-01T15:33:51.064Z</time></trkpt><trkpt lat="35.8525984" lon="8.4274067"><ele>548.6666666666666</ele><time>2026-05-01T15:33:52.053Z</time></trkpt><trkpt lat="35.8525629" lon="8.4276352"><ele>549.0</ele><time>2026-05-01T15:33:53.068Z</time></trkpt><trkpt lat="35.8525217" lon="8.4278656"><ele>548.3333333333334</ele><time>2026-05-01T15:33:54.059Z</time></trkpt><trkpt lat="35.8524724" lon="8.4280958"><ele>547.6666666666667</ele><time>2026-05-01T15:33:55.172Z</time></trkpt><trkpt lat="35.852407" lon="8.4283212"><ele>547.0</ele><time>2026-05-01T15:33:56.121Z</time></trkpt><trkpt lat="35.8523417" lon="8.4285473"><ele>547.0</ele><time>2026-05-01T15:33:57.107Z</time></trkpt><trkpt lat="35.8522721" lon="8.4287676"><ele>547.0</ele><time>2026-05-01T15:33:58.109Z</time></trkpt><trkpt lat="35.8521994" lon="8.4289883"><ele>547.0</ele><time>2026-05-01T15:33:59.1Z</time></trkpt><trkpt lat="35.8521259" lon="8.4292088"><ele>547.0</ele><time>2026-05-01T15:34:00.103Z</time></trkpt><trkpt lat="35.8520544" lon="8.4294276"><ele>547.0</ele><time>2026-05-01T15:34:01.115Z</time></trkpt><trkpt lat="35.8519866" lon="8.4296462"><ele>547.0</ele><time>2026-05-01T15:34:02.106Z</time></trkpt><trkpt lat="35.8519158" lon="8.4298603"><ele>547.0</ele><time>2026-05-01T15:34:03.118Z</time></trkpt><trkpt lat="35.8518476" lon="8.4300753"><ele>547.0</ele><time>2026-05-01T15:34:04.124Z</time></trkpt><trkpt lat="35.8517717" lon="8.4302934"><ele>547.0</ele><time>2026-05-01T15:34:05.116Z</time></trkpt><trkpt lat="35.8516982" lon="8.430507"><ele>546.3333333333334</ele><time>2026-05-01T15:34:06.13Z</time></trkpt><trkpt lat="35.8516259" lon="8.4307211"><ele>545.6666666666666</ele><time>2026-05-01T15:34:07.125Z</time></trkpt><trkpt lat="35.8515479" lon="8.4309379"><ele>545.0</ele><time>2026-05-01T15:34:08.127Z</time></trkpt><trkpt lat="35.8514682" lon="8.4311526"><ele>546.0</ele><time>2026-05-01T15:34:09.112Z</time></trkpt><trkpt lat="35.8513914" lon="8.4313712"><ele>547.0</ele><time>2026-05-01T15:34:10.106Z</time></trkpt><trkpt lat="35.8513201" lon="8.4315789"><ele>548.0</ele><time>2026-05-01T15:34:11.109Z</time></trkpt><trkpt lat="35.851252" lon="8.4317783"><ele>548.0</ele><time>2026-05-01T15:34:12.121Z</time></trkpt><trkpt lat="35.8511884" lon="8.4319712"><ele>548.0</ele><time>2026-05-01T15:34:13.107Z</time></trkpt><trkpt lat="35.8511271" lon="8.4321676"><ele>548.0</ele><time>2026-05-01T15:34:14.113Z</time></trkpt><trkpt lat="35.8510618" lon="8.4323634"><ele>548.3333333333333</ele><time>2026-05-01T15:34:15.111Z</time></trkpt><trkpt lat="35.8509934" lon="8.4325647"><ele>548.6666666666666</ele><time>2026-05-01T15:34:16.117Z</time></trkpt><trkpt lat="35.8509236" lon="8.4327655"><ele>549.0</ele><time>2026-05-01T15:34:17.105Z</time></trkpt><trkpt lat="35.8508522" lon="8.4329743"><ele>549.3333333333334</ele><time>2026-05-01T15:34:18.116Z</time></trkpt><trkpt lat="35.8507775" lon="8.4331827"><ele>549.6666666666667</ele><time>2026-05-01T15:34:19.125Z</time></trkpt><trkpt lat="35.8507054" lon="8.4333951"><ele>550.0</ele><time>2026-05-01T15:34:20.121Z</time></trkpt><trkpt lat="35.8506316" lon="8.4336084"><ele>550.0</ele><time>2026-05-01T15:34:21.128Z</time></trkpt><trkpt lat="35.8505546" lon="8.4338261"><ele>550.0</ele><time>2026-05-01T15:34:22.122Z</time></trkpt><trkpt lat="35.8504837" lon="8.4340473"><ele>550.0</ele><time>2026-05-01T15:34:23.116Z</time></trkpt><trkpt lat="35.8504083" lon="8.4342664"><ele>550.0</ele><time>2026-05-01T15:34:24.117Z</time></trkpt><trkpt lat="35.8503188" lon="8.4344713"><ele>550.0</ele><time>2026-05-01T15:34:25.125Z</time></trkpt><trkpt lat="35.8502476" lon="8.434687"><ele>550.0</ele><time>2026-05-01T15:34:26.122Z</time></trkpt><trkpt lat="35.8501819" lon="8.4349014"><ele>548.6666666666667</ele><time>2026-05-01T15:34:27.114Z</time></trkpt><trkpt lat="35.8501225" lon="8.4351158"><ele>547.3333333333334</ele><time>2026-05-01T15:34:28.1Z</time></trkpt><trkpt lat="35.8500695" lon="8.4353321"><ele>546.0</ele><time>2026-05-01T15:34:29.109Z</time></trkpt><trkpt lat="35.8500227" lon="8.4355545"><ele>545.6666666666666</ele><time>2026-05-01T15:34:30.127Z</time></trkpt><trkpt lat="35.8499855" lon="8.4357808"><ele>545.3333333333333</ele><time>2026-05-01T15:34:31.121Z</time></trkpt><trkpt lat="35.8499581" lon="8.4360125"><ele>545.0</ele><time>2026-05-01T15:34:32.13Z</time></trkpt><trkpt lat="35.8499414" lon="8.4362492"><ele>545.6666666666666</ele><time>2026-05-01T15:34:33.131Z</time></trkpt><trkpt lat="35.8499313" lon="8.4364881"><ele>546.3333333333334</ele><time>2026-05-01T15:34:34.109Z</time></trkpt><trkpt lat="35.8499207" lon="8.4367285"><ele>547.0</ele><time>2026-05-01T15:34:35.116Z</time></trkpt><trkpt lat="35.8499086" lon="8.4369685"><ele>547.6666666666667</ele><time>2026-05-01T15:34:36.113Z</time></trkpt><trkpt lat="35.8498966" lon="8.4372096"><ele>548.3333333333334</ele><time>2026-05-01T15:34:37.12Z</time></trkpt><trkpt lat="35.8498854" lon="8.43745"><ele>549.0</ele><time>2026-05-01T15:34:38.116Z</time></trkpt><trkpt lat="35.849876" lon="8.4376865"><ele>549.0</ele><time>2026-05-01T15:34:39.108Z</time></trkpt><trkpt lat="35.8498648" lon="8.4379213"><ele>549.0</ele><time>2026-05-01T15:34:40.117Z</time></trkpt><trkpt lat="35.8498527" lon="8.438155"><ele>549.0</ele><time>2026-05-01T15:34:41.118Z</time></trkpt><trkpt lat="35.8498405" lon="8.4383867"><ele>549.0</ele><time>2026-05-01T15:34:42.121Z</time></trkpt><trkpt lat="35.8498285" lon="8.4386172"><ele>549.0</ele><time>2026-05-01T15:34:43.114Z</time></trkpt><trkpt lat="35.8498161" lon="8.4388435"><ele>549.0</ele><time>2026-05-01T15:34:44.119Z</time></trkpt><trkpt lat="35.849805" lon="8.439069"><ele>550.3333333333334</ele><time>2026-05-01T15:34:45.119Z</time></trkpt><trkpt lat="35.8497964" lon="8.4392937"><ele>551.6666666666667</ele><time>2026-05-01T15:34:46.125Z</time></trkpt><trkpt lat="35.8497855" lon="8.4395163"><ele>553.0</ele><time>2026-05-01T15:34:47.124Z</time></trkpt><trkpt lat="35.8497741" lon="8.4397261"><ele>553.6666666666667</ele><time>2026-05-01T15:34:48.127Z</time></trkpt><trkpt lat="35.8497619" lon="8.4399391"><ele>554.3333333333334</ele><time>2026-05-01T15:34:49.114Z</time></trkpt><trkpt lat="35.8497475" lon="8.440152"><ele>555.0</ele><time>2026-05-01T15:34:50.123Z</time></trkpt><trkpt lat="35.8497285" lon="8.4403663"><ele>555.6666666666666</ele><time>2026-05-01T15:34:51.117Z</time></trkpt><trkpt lat="35.8497061" lon="8.4405818"><ele>556.3333333333333</ele><time>2026-05-01T15:34:52.12Z</time></trkpt><trkpt lat="35.8496787" lon="8.4407953"><ele>557.0</ele><time>2026-05-01T15:34:53.103Z</time></trkpt><trkpt lat="35.8496455" lon="8.4410069"><ele>557.0</ele><time>2026-05-01T15:34:54.112Z</time></trkpt><trkpt lat="35.8496074" lon="8.44122"><ele>557.0</ele><time>2026-05-01T15:34:55.114Z</time></trkpt><trkpt lat="35.849565" lon="8.4414294"><ele>557.0</ele><time>2026-05-01T15:34:56.125Z</time></trkpt><trkpt lat="35.8495154" lon="8.4416381"><ele>557.6666666666666</ele><time>2026-05-01T15:34:57.118Z</time></trkpt><trkpt lat="35.8494618" lon="8.4418476"><ele>558.3333333333334</ele><time>2026-05-01T15:34:58.141Z</time></trkpt><trkpt lat="35.8494073" lon="8.4420595"><ele>559.0</ele><time>2026-05-01T15:34:59.11Z</time></trkpt><trkpt lat="35.849353" lon="8.4422716"><ele>559.3333333333334</ele><time>2026-05-01T15:35:00.115Z</time></trkpt><trkpt lat="35.8492973" lon="8.4424856"><ele>559.6666666666666</ele><time>2026-05-01T15:35:01.112Z</time></trkpt><trkpt lat="35.8492402" lon="8.4426995"><ele>560.0</ele><time>2026-05-01T15:35:02.121Z</time></trkpt><trkpt lat="35.8491789" lon="8.442913"><ele>560.3333333333333</ele><time>2026-05-01T15:35:03.109Z</time></trkpt><trkpt lat="35.8491175" lon="8.4431292"><ele>560.6666666666666</ele><time>2026-05-01T15:35:04.127Z</time></trkpt><trkpt lat="35.8490559" lon="8.4433482"><ele>561.0</ele><time>2026-05-01T15:35:05.109Z</time></trkpt><trkpt lat="35.8489927" lon="8.4435711"><ele>561.6666666666666</ele><time>2026-05-01T15:35:06.122Z</time></trkpt><trkpt lat="35.8489308" lon="8.4437973"><ele>562.3333333333333</ele><time>2026-05-01T15:35:07.121Z</time></trkpt><trkpt lat="35.8488682" lon="8.4440252"><ele>563.0</ele><time>2026-05-01T15:35:08.125Z</time></trkpt><trkpt lat="35.8488056" lon="8.4442563"><ele>563.0</ele><time>2026-05-01T15:35:09.113Z</time></trkpt><trkpt lat="35.8487439" lon="8.4444841"><ele>563.0</ele><time>2026-05-01T15:35:10.12Z</time></trkpt><trkpt lat="35.8486828" lon="8.4447104"><ele>563.0</ele><time>2026-05-01T15:35:11.123Z</time></trkpt><trkpt lat="35.8486204" lon="8.4449378"><ele>563.0</ele><time>2026-05-01T15:35:12.113Z</time></trkpt><trkpt lat="35.8485611" lon="8.4451684"><ele>563.0</ele><time>2026-05-01T15:35:13.122Z</time></trkpt><trkpt lat="35.8484974" lon="8.4454022"><ele>563.0</ele><time>2026-05-01T15:35:14.113Z</time></trkpt><trkpt lat="35.8484323" lon="8.445637"><ele>562.6666666666666</ele><time>2026-05-01T15:35:15.119Z</time></trkpt><trkpt lat="35.8483664" lon="8.4458713"><ele>562.3333333333334</ele><time>2026-05-01T15:35:16.122Z</time></trkpt><trkpt lat="35.8483024" lon="8.4461029"><ele>562.0</ele><time>2026-05-01T15:35:17.112Z</time></trkpt><trkpt lat="35.8482422" lon="8.4463219"><ele>561.3333333333334</ele><time>2026-05-01T15:35:18.112Z</time></trkpt><trkpt lat="35.8481818" lon="8.4465327"><ele>560.6666666666666</ele><time>2026-05-01T15:35:19.119Z</time></trkpt><trkpt lat="35.848124" lon="8.4467437"><ele>560.0</ele><time>2026-05-01T15:35:20.113Z</time></trkpt><trkpt lat="35.8480697" lon="8.4469523"><ele>560.6666666666666</ele><time>2026-05-01T15:35:21.119Z</time></trkpt><trkpt lat="35.8480155" lon="8.4471597"><ele>561.3333333333334</ele><time>2026-05-01T15:35:22.121Z</time></trkpt><trkpt lat="35.8479617" lon="8.4473671"><ele>562.0</ele><time>2026-05-01T15:35:23.117Z</time></trkpt><trkpt lat="35.8479062" lon="8.447575"><ele>562.0</ele><time>2026-05-01T15:35:24.141Z</time></trkpt><trkpt lat="35.8478499" lon="8.4477841"><ele>562.0</ele><time>2026-05-01T15:35:25.116Z</time></trkpt><trkpt lat="35.8477928" lon="8.4479922"><ele>562.0</ele><time>2026-05-01T15:35:26.114Z</time></trkpt><trkpt lat="35.8477361" lon="8.4482003"><ele>563.0</ele><time>2026-05-01T15:35:27.107Z</time></trkpt><trkpt lat="35.8476808" lon="8.4484113"><ele>564.0</ele><time>2026-05-01T15:35:28.107Z</time></trkpt><trkpt lat="35.8476239" lon="8.4486248"><ele>565.0</ele><time>2026-05-01T15:35:29.107Z</time></trkpt><trkpt lat="35.84757" lon="8.4488417"><ele>567.0</ele><time>2026-05-01T15:35:30.111Z</time></trkpt><trkpt lat="35.8475184" lon="8.4490624"><ele>569.0</ele><time>2026-05-01T15:35:31.114Z</time></trkpt><trkpt lat="35.8474758" lon="8.4492887"><ele>571.0</ele><time>2026-05-01T15:35:32.11Z</time></trkpt><trkpt lat="35.8474406" lon="8.4495197"><ele>570.6666666666667</ele><time>2026-05-01T15:35:33.116Z</time></trkpt><trkpt lat="35.8474123" lon="8.4497538"><ele>570.3333333333334</ele><time>2026-05-01T15:35:34.12Z</time></trkpt><trkpt lat="35.8473845" lon="8.4499889"><ele>570.0</ele><time>2026-05-01T15:35:35.128Z</time></trkpt><trkpt lat="35.8473575" lon="8.4502257"><ele>570.0</ele><time>2026-05-01T15:35:36.109Z</time></trkpt><trkpt lat="35.8473315" lon="8.4504645"><ele>570.0</ele><time>2026-05-01T15:35:37.122Z</time></trkpt><trkpt lat="35.8473066" lon="8.4507006"><ele>570.0</ele><time>2026-05-01T15:35:38.11Z</time></trkpt><trkpt lat="35.8472811" lon="8.4509369"><ele>570.0</ele><time>2026-05-01T15:35:39.113Z</time></trkpt><trkpt lat="35.8472543" lon="8.451182"><ele>570.0</ele><time>2026-05-01T15:35:40.107Z</time></trkpt><trkpt lat="35.8472264" lon="8.4514293"><ele>570.0</ele><time>2026-05-01T15:35:41.121Z</time></trkpt><trkpt lat="35.8471984" lon="8.4516843"><ele>569.6666666666666</ele><time>2026-05-01T15:35:42.12Z</time></trkpt><trkpt lat="35.84717" lon="8.4519403"><ele>569.3333333333333</ele><time>2026-05-01T15:35:43.111Z</time></trkpt><trkpt lat="35.8471409" lon="8.452194"><ele>569.0</ele><time>2026-05-01T15:35:44.123Z</time></trkpt><trkpt lat="35.8471156" lon="8.4524465"><ele>569.6666666666666</ele><time>2026-05-01T15:35:45.106Z</time></trkpt><trkpt lat="35.8470907" lon="8.452695"><ele>570.3333333333334</ele><time>2026-05-01T15:35:46.109Z</time></trkpt><trkpt lat="35.8470658" lon="8.4529481"><ele>571.0</ele><time>2026-05-01T15:35:47.115Z</time></trkpt><trkpt lat="35.8470383" lon="8.4531971"><ele>572.3333333333334</ele><time>2026-05-01T15:35:48.124Z</time></trkpt><trkpt lat="35.8470117" lon="8.4534479"><ele>573.6666666666666</ele><time>2026-05-01T15:35:49.117Z</time></trkpt><trkpt lat="35.8469808" lon="8.4537029"><ele>575.0</ele><time>2026-05-01T15:35:50.11Z</time></trkpt><trkpt lat="35.8469517" lon="8.4539548"><ele>575.3333333333333</ele><time>2026-05-01T15:35:51.123Z</time></trkpt><trkpt lat="35.8469249" lon="8.4542068"><ele>575.6666666666666</ele><time>2026-05-01T15:35:52.12Z</time></trkpt><trkpt lat="35.8468962" lon="8.4544591"><ele>576.0</ele><time>2026-05-01T15:35:53.12Z</time></trkpt><trkpt lat="35.8468689" lon="8.4547091"><ele>576.0</ele><time>2026-05-01T15:35:54.121Z</time></trkpt><trkpt lat="35.8468416" lon="8.4549589"><ele>576.0</ele><time>2026-05-01T15:35:55.112Z</time></trkpt><trkpt lat="35.8468132" lon="8.4552143"><ele>576.0</ele><time>2026-05-01T15:35:56.132Z</time></trkpt><trkpt lat="35.8467863" lon="8.4554752"><ele>575.6666666666666</ele><time>2026-05-01T15:35:57.118Z</time></trkpt><trkpt lat="35.8467583" lon="8.4557373"><ele>575.3333333333333</ele><time>2026-05-01T15:35:58.108Z</time></trkpt><trkpt lat="35.8467301" lon="8.456001"><ele>575.0</ele><time>2026-05-01T15:35:59.107Z</time></trkpt><trkpt lat="35.8467021" lon="8.456267"><ele>575.0</ele><time>2026-05-01T15:36:00.097Z</time></trkpt><trkpt lat="35.8466748" lon="8.4565324"><ele>575.0</ele><time>2026-05-01T15:36:01.105Z</time></trkpt><trkpt lat="35.8466465" lon="8.4567956"><ele>575.0</ele><time>2026-05-01T15:36:02.124Z</time></trkpt><trkpt lat="35.8466147" lon="8.457055"><ele>575.0</ele><time>2026-05-01T15:36:03.115Z</time></trkpt><trkpt lat="35.8465849" lon="8.457311"><ele>575.0</ele><time>2026-05-01T15:36:04.122Z</time></trkpt><trkpt lat="35.8465597" lon="8.4575653"><ele>575.0</ele><time>2026-05-01T15:36:05.113Z</time></trkpt><trkpt lat="35.8465335" lon="8.4578145"><ele>574.6666666666666</ele><time>2026-05-01T15:36:06.111Z</time></trkpt><trkpt lat="35.8465074" lon="8.458065"><ele>574.3333333333334</ele><time>2026-05-01T15:36:07.109Z</time></trkpt><trkpt lat="35.8464826" lon="8.4583121"><ele>574.0</ele><time>2026-05-01T15:36:08.119Z</time></trkpt><trkpt lat="35.8464558" lon="8.458562"><ele>574.0</ele><time>2026-05-01T15:36:09.118Z</time></trkpt><trkpt lat="35.8464278" lon="8.4588139"><ele>574.0</ele><time>2026-05-01T15:36:10.142Z</time></trkpt><trkpt lat="35.8464001" lon="8.4590666"><ele>574.0</ele><time>2026-05-01T15:36:11.127Z</time></trkpt><trkpt lat="35.8463717" lon="8.4593181"><ele>574.0</ele><time>2026-05-01T15:36:12.107Z</time></trkpt><trkpt lat="35.8463446" lon="8.4595696"><ele>574.0</ele><time>2026-05-01T15:36:13.113Z</time></trkpt><trkpt lat="35.8463171" lon="8.4598223"><ele>574.0</ele><time>2026-05-01T15:36:14.123Z</time></trkpt><trkpt lat="35.8462875" lon="8.4600742"><ele>574.0</ele><time>2026-05-01T15:36:15.124Z</time></trkpt><trkpt lat="35.8462572" lon="8.4603238"><ele>574.0</ele><time>2026-05-01T15:36:16.121Z</time></trkpt><trkpt lat="35.84623" lon="8.4605738"><ele>574.0</ele><time>2026-05-01T15:36:17.109Z</time></trkpt><trkpt lat="35.8462049" lon="8.4608267"><ele>574.0</ele><time>2026-05-01T15:36:18.122Z</time></trkpt><trkpt lat="35.8461783" lon="8.461078"><ele>574.0</ele><time>2026-05-01T15:36:19.123Z</time></trkpt><trkpt lat="35.8461517" lon="8.4613275"><ele>574.0</ele><time>2026-05-01T15:36:20.121Z</time></trkpt><trkpt lat="35.8461243" lon="8.4615786"><ele>574.3333333333334</ele><time>2026-05-01T15:36:21.11Z</time></trkpt><trkpt lat="35.8460984" lon="8.4618287"><ele>574.6666666666666</ele><time>2026-05-01T15:36:22.117Z</time></trkpt><trkpt lat="35.846073" lon="8.4620659"><ele>575.0</ele><time>2026-05-01T15:36:23.119Z</time></trkpt><trkpt lat="35.8460471" lon="8.4622932"><ele>575.0</ele><time>2026-05-01T15:36:24.118Z</time></trkpt><trkpt lat="35.8460217" lon="8.4625118"><ele>575.0</ele><time>2026-05-01T15:36:25.115Z</time></trkpt><trkpt lat="35.8459961" lon="8.4627294"><ele>575.0</ele><time>2026-05-01T15:36:26.123Z</time></trkpt><trkpt lat="35.8459711" lon="8.4629474"><ele>575.0</ele><time>2026-05-01T15:36:27.108Z</time></trkpt><trkpt lat="35.8459492" lon="8.4631683"><ele>575.0</ele><time>2026-05-01T15:36:28.114Z</time></trkpt><trkpt lat="35.8459259" lon="8.46339"><ele>575.0</ele><time>2026-05-01T15:36:29.115Z</time></trkpt><trkpt lat="35.845904" lon="8.4636129"><ele>575.6666666666666</ele><time>2026-05-01T15:36:30.118Z</time></trkpt><trkpt lat="35.8458803" lon="8.4638381"><ele>576.3333333333334</ele><time>2026-05-01T15:36:31.108Z</time></trkpt><trkpt lat="35.8458547" lon="8.4640649"><ele>577.0</ele><time>2026-05-01T15:36:32.116Z</time></trkpt><trkpt lat="35.8458284" lon="8.4642947"><ele>577.0</ele><time>2026-05-01T15:36:33.111Z</time></trkpt><trkpt lat="35.8458023" lon="8.4645251"><ele>577.0</ele><time>2026-05-01T15:36:34.124Z</time></trkpt><trkpt lat="35.8457775" lon="8.4647599"><ele>577.0</ele><time>2026-05-01T15:36:35.123Z</time></trkpt><trkpt lat="35.8457546" lon="8.4649962"><ele>577.3333333333334</ele><time>2026-05-01T15:36:36.135Z</time></trkpt><trkpt lat="35.8457304" lon="8.4652326"><ele>577.6666666666666</ele><time>2026-05-01T15:36:37.111Z</time></trkpt><trkpt lat="35.8457097" lon="8.4654668"><ele>578.0</ele><time>2026-05-01T15:36:38.126Z</time></trkpt><trkpt lat="35.8456941" lon="8.4657033"><ele>578.3333333333333</ele><time>2026-05-01T15:36:39.114Z</time></trkpt><trkpt lat="35.8456858" lon="8.4659397"><ele>578.6666666666666</ele><time>2026-05-01T15:36:40.119Z</time></trkpt><trkpt lat="35.845687" lon="8.4661742"><ele>579.0</ele><time>2026-05-01T15:36:41.12Z</time></trkpt><trkpt lat="35.8456961" lon="8.4664104"><ele>579.0</ele><time>2026-05-01T15:36:42.115Z</time></trkpt><trkpt lat="35.8457148" lon="8.4666484"><ele>579.0</ele><time>2026-05-01T15:36:43.11Z</time></trkpt><trkpt lat="35.8457396" lon="8.4668826"><ele>579.0</ele><time>2026-05-01T15:36:44.119Z</time></trkpt><trkpt lat="35.8457729" lon="8.467125"><ele>579.0</ele><time>2026-05-01T15:36:45.113Z</time></trkpt><trkpt lat="35.845818" lon="8.467364"><ele>579.0</ele><time>2026-05-01T15:36:46.121Z</time></trkpt><trkpt lat="35.8458734" lon="8.4676009"><ele>579.0</ele><time>2026-05-01T15:36:47.118Z</time></trkpt><trkpt lat="35.8459412" lon="8.4678371"><ele>580.0</ele><time>2026-05-01T15:36:48.123Z</time></trkpt><trkpt lat="35.8460155" lon="8.4680703"><ele>581.0</ele><time>2026-05-01T15:36:49.119Z</time></trkpt><trkpt lat="35.8460939" lon="8.4683013"><ele>582.0</ele><time>2026-05-01T15:36:50.116Z</time></trkpt><trkpt lat="35.8461741" lon="8.4685369"><ele>582.0</ele><time>2026-05-01T15:36:51.121Z</time></trkpt><trkpt lat="35.8462555" lon="8.4687728"><ele>582.0</ele><time>2026-05-01T15:36:52.111Z</time></trkpt><trkpt lat="35.8463371" lon="8.4690092"><ele>582.0</ele><time>2026-05-01T15:36:53.107Z</time></trkpt><trkpt lat="35.8464212" lon="8.4692468"><ele>581.3333333333334</ele><time>2026-05-01T15:36:54.126Z</time></trkpt><trkpt lat="35.8465038" lon="8.4694803"><ele>580.6666666666667</ele><time>2026-05-01T15:36:55.117Z</time></trkpt><trkpt lat="35.846586" lon="8.4697127"><ele>580.0</ele><time>2026-05-01T15:36:56.116Z</time></trkpt><trkpt lat="35.84667" lon="8.4699453"><ele>580.0</ele><time>2026-05-01T15:36:57.117Z</time></trkpt><trkpt lat="35.8467516" lon="8.4701754"><ele>580.0</ele><time>2026-05-01T15:36:58.115Z</time></trkpt><trkpt lat="35.8468328" lon="8.4704046"><ele>580.0</ele><time>2026-05-01T15:36:59.109Z</time></trkpt><trkpt lat="35.8469122" lon="8.4706297"><ele>581.0</ele><time>2026-05-01T15:37:00.1Z</time></trkpt><trkpt lat="35.8469942" lon="8.4708523"><ele>582.0</ele><time>2026-05-01T15:37:01.123Z</time></trkpt><trkpt lat="35.847074" lon="8.471075"><ele>583.0</ele><time>2026-05-01T15:37:02.107Z</time></trkpt><trkpt lat="35.8471503" lon="8.4712989"><ele>583.0</ele><time>2026-05-01T15:37:03.106Z</time></trkpt><trkpt lat="35.8472269" lon="8.4715198"><ele>583.0</ele><time>2026-05-01T15:37:04.109Z</time></trkpt><trkpt lat="35.8473054" lon="8.4717415"><ele>583.0</ele><time>2026-05-01T15:37:05.114Z</time></trkpt><trkpt lat="35.8473876" lon="8.4719614"><ele>582.6666666666667</ele><time>2026-05-01T15:37:06.108Z</time></trkpt><trkpt lat="35.8474702" lon="8.4721801"><ele>582.3333333333334</ele><time>2026-05-01T15:37:07.111Z</time></trkpt><trkpt lat="35.8475546" lon="8.4723999"><ele>582.0</ele><time>2026-05-01T15:37:08.115Z</time></trkpt><trkpt lat="35.8476392" lon="8.4726199"><ele>583.0</ele><time>2026-05-01T15:37:09.108Z</time></trkpt><trkpt lat="35.8477241" lon="8.4728379"><ele>584.0</ele><time>2026-05-01T15:37:10.127Z</time></trkpt><trkpt lat="35.8478094" lon="8.4730565"><ele>585.0</ele><time>2026-05-01T15:37:11.109Z</time></trkpt><trkpt lat="35.8478946" lon="8.4732762"><ele>585.0</ele><time>2026-05-01T15:37:12.111Z</time></trkpt><trkpt lat="35.8479812" lon="8.4734968"><ele>585.0</ele><time>2026-05-01T15:37:13.139Z</time></trkpt><trkpt lat="35.8480701" lon="8.4737238"><ele>585.0</ele><time>2026-05-01T15:37:14.105Z</time></trkpt><trkpt lat="35.8481587" lon="8.4739497"><ele>584.0</ele><time>2026-05-01T15:37:15.11Z</time></trkpt><trkpt lat="35.8482473" lon="8.4741748"><ele>583.0</ele><time>2026-05-01T15:37:16.102Z</time></trkpt><trkpt lat="35.8483362" lon="8.4744005"><ele>582.0</ele><time>2026-05-01T15:37:17.111Z</time></trkpt><trkpt lat="35.8484257" lon="8.4746245"><ele>583.3333333333334</ele><time>2026-05-01T15:37:18.107Z</time></trkpt><trkpt lat="35.8485132" lon="8.4748519"><ele>584.6666666666667</ele><time>2026-05-01T15:37:19.123Z</time></trkpt><trkpt lat="35.8486015" lon="8.4750789"><ele>586.0</ele><time>2026-05-01T15:37:20.122Z</time></trkpt><trkpt lat="35.8486892" lon="8.4753059"><ele>585.6666666666667</ele><time>2026-05-01T15:37:21.11Z</time></trkpt><trkpt lat="35.8487775" lon="8.475535"><ele>585.3333333333334</ele><time>2026-05-01T15:37:22.11Z</time></trkpt><trkpt lat="35.8488661" lon="8.4757605"><ele>585.0</ele><time>2026-05-01T15:37:23.112Z</time></trkpt><trkpt lat="35.8489554" lon="8.4759821"><ele>585.0</ele><time>2026-05-01T15:37:24.116Z</time></trkpt><trkpt lat="35.8490411" lon="8.4762003"><ele>585.0</ele><time>2026-05-01T15:37:25.098Z</time></trkpt><trkpt lat="35.8491248" lon="8.4764145"><ele>585.0</ele><time>2026-05-01T15:37:26.115Z</time></trkpt><trkpt lat="35.8492041" lon="8.4766186"><ele>585.0</ele><time>2026-05-01T15:37:27.102Z</time></trkpt><trkpt lat="35.8492803" lon="8.4768154"><ele>585.0</ele><time>2026-05-01T15:37:28.108Z</time></trkpt><trkpt lat="35.8493539" lon="8.477005"><ele>585.0</ele><time>2026-05-01T15:37:29.12Z</time></trkpt><trkpt lat="35.8494243" lon="8.4771871"><ele>585.0</ele><time>2026-05-01T15:37:30.112Z</time></trkpt><trkpt lat="35.8494896" lon="8.4773588"><ele>585.0</ele><time>2026-05-01T15:37:31.105Z</time></trkpt><trkpt lat="35.849553" lon="8.4775213"><ele>585.0</ele><time>2026-05-01T15:37:32.11Z</time></trkpt><trkpt lat="35.8496143" lon="8.477675"><ele>585.0</ele><time>2026-05-01T15:37:33.104Z</time></trkpt><trkpt lat="35.849672" lon="8.4778225"><ele>585.4</ele><time>2026-05-01T15:37:34.11Z</time></trkpt><trkpt lat="35.8497237" lon="8.4779578"><ele>585.8</ele><time>2026-05-01T15:37:35.1Z</time></trkpt><trkpt lat="35.849775" lon="8.4780848"><ele>586.2</ele><time>2026-05-01T15:37:36.105Z</time></trkpt><trkpt lat="35.8498242" lon="8.4782049"><ele>586.6</ele><time>2026-05-01T15:37:37.104Z</time></trkpt><trkpt lat="35.8498692" lon="8.4783179"><ele>587.0</ele><time>2026-05-01T15:37:38.117Z</time></trkpt><trkpt lat="35.8499126" lon="8.4784268"><ele>587.0</ele><time>2026-05-01T15:37:39.113Z</time></trkpt><trkpt lat="35.8499509" lon="8.4785259"><ele>587.0</ele><time>2026-05-01T15:37:40.121Z</time></trkpt><trkpt lat="35.8499868" lon="8.4786194"><ele>587.0</ele><time>2026-05-01T15:37:41.12Z</time></trkpt><trkpt lat="35.8500203" lon="8.4787058"><ele>587.0</ele><time>2026-05-01T15:37:42.114Z</time></trkpt><trkpt lat="35.850054" lon="8.4787956"><ele>587.0</ele><time>2026-05-01T15:37:43.107Z</time></trkpt><trkpt lat="35.8500898" lon="8.4788942"><ele>587.0</ele><time>2026-05-01T15:37:44.121Z</time></trkpt><trkpt lat="35.85013" lon="8.4790027"><ele>587.0</ele><time>2026-05-01T15:37:45.113Z</time></trkpt><trkpt lat="35.8501749" lon="8.4791177"><ele>587.0</ele><time>2026-05-01T15:37:46.114Z</time></trkpt><trkpt lat="35.850222" lon="8.4792367"><ele>587.0</ele><time>2026-05-01T15:37:47.114Z</time></trkpt><trkpt lat="35.850272" lon="8.4793616"><ele>587.0</ele><time>2026-05-01T15:37:48.119Z</time></trkpt><trkpt lat="35.8503229" lon="8.4794889"><ele>587.0</ele><time>2026-05-01T15:37:49.105Z</time></trkpt><trkpt lat="35.8503728" lon="8.4796116"><ele>586.25</ele><time>2026-05-01T15:37:50.111Z</time></trkpt><trkpt lat="35.8504212" lon="8.4797328"><ele>585.5</ele><time>2026-05-01T15:37:51.119Z</time></trkpt><trkpt lat="35.8504692" lon="8.4798546"><ele>584.75</ele><time>2026-05-01T15:37:52.118Z</time></trkpt><trkpt lat="35.8505211" lon="8.4799802"><ele>584.0</ele><time>2026-05-01T15:37:53.116Z</time></trkpt><trkpt lat="35.8505715" lon="8.4801117"><ele>584.0</ele><time>2026-05-01T15:37:54.116Z</time></trkpt><trkpt lat="35.8506222" lon="8.480248"><ele>584.0</ele><time>2026-05-01T15:37:55.119Z</time></trkpt><trkpt lat="35.8506773" lon="8.4803873"><ele>584.0</ele><time>2026-05-01T15:37:56.12Z</time></trkpt><trkpt lat="35.8507367" lon="8.480532"><ele>584.0</ele><time>2026-05-01T15:37:57.109Z</time></trkpt><trkpt lat="35.8507963" lon="8.4806836"><ele>583.6666666666666</ele><time>2026-05-01T15:37:58.133Z</time></trkpt><trkpt lat="35.850862" lon="8.480843"><ele>583.3333333333334</ele><time>2026-05-01T15:37:59.107Z</time></trkpt><trkpt lat="35.8509291" lon="8.481009"><ele>583.0</ele><time>2026-05-01T15:38:00.097Z</time></trkpt><trkpt lat="35.8509967" lon="8.4811826"><ele>583.3333333333334</ele><time>2026-05-01T15:38:01.099Z</time></trkpt><trkpt lat="35.8510672" lon="8.4813597"><ele>583.6666666666666</ele><time>2026-05-01T15:38:02.105Z</time></trkpt><trkpt lat="35.8511381" lon="8.4815411"><ele>584.0</ele><time>2026-05-01T15:38:03.108Z</time></trkpt><trkpt lat="35.851209" lon="8.4817253"><ele>584.0</ele><time>2026-05-01T15:38:04.111Z</time></trkpt><trkpt lat="35.8512808" lon="8.4819124"><ele>584.0</ele><time>2026-05-01T15:38:05.128Z</time></trkpt><trkpt lat="35.8513545" lon="8.4821018"><ele>584.0</ele><time>2026-05-01T15:38:06.112Z</time></trkpt><trkpt lat="35.8514292" lon="8.4822938"><ele>583.6666666666666</ele><time>2026-05-01T15:38:07.115Z</time></trkpt><trkpt lat="35.8515056" lon="8.4824894"><ele>583.3333333333334</ele><time>2026-05-01T15:38:08.114Z</time></trkpt><trkpt lat="35.8515818" lon="8.4826876"><ele>583.0</ele><time>2026-05-01T15:38:09.121Z</time></trkpt><trkpt lat="35.8516584" lon="8.4828866"><ele>582.6666666666667</ele><time>2026-05-01T15:38:10.117Z</time></trkpt><trkpt lat="35.8517366" lon="8.4830882"><ele>582.3333333333334</ele><time>2026-05-01T15:38:11.123Z</time></trkpt><trkpt lat="35.8518163" lon="8.4832907"><ele>582.0</ele><time>2026-05-01T15:38:12.123Z</time></trkpt><trkpt lat="35.8518973" lon="8.4834954"><ele>582.6666666666666</ele><time>2026-05-01T15:38:13.116Z</time></trkpt><trkpt lat="35.8519792" lon="8.483701"><ele>583.3333333333333</ele><time>2026-05-01T15:38:14.114Z</time></trkpt><trkpt lat="35.8520598" lon="8.4839076"><ele>584.0</ele><time>2026-05-01T15:38:15.104Z</time></trkpt><trkpt lat="35.8521412" lon="8.4841168"><ele>584.0</ele><time>2026-05-01T15:38:16.111Z</time></trkpt><trkpt lat="35.8522217" lon="8.4843238"><ele>584.0</ele><time>2026-05-01T15:38:17.114Z</time></trkpt><trkpt lat="35.8523027" lon="8.4845333"><ele>584.0</ele><time>2026-05-01T15:38:18.124Z</time></trkpt><trkpt lat="35.8523826" lon="8.4847376"><ele>583.3333333333333</ele><time>2026-05-01T15:38:19.111Z</time></trkpt><trkpt lat="35.8524626" lon="8.4849398"><ele>582.6666666666666</ele><time>2026-05-01T15:38:20.117Z</time></trkpt><trkpt lat="35.8525427" lon="8.4851433"><ele>582.0</ele><time>2026-05-01T15:38:21.109Z</time></trkpt><trkpt lat="35.852623" lon="8.4853466"><ele>582.6666666666666</ele><time>2026-05-01T15:38:22.129Z</time></trkpt><trkpt lat="35.8527035" lon="8.4855498"><ele>583.3333333333333</ele><time>2026-05-01T15:38:23.118Z</time></trkpt><trkpt lat="35.8527835" lon="8.4857529"><ele>584.0</ele><time>2026-05-01T15:38:24.124Z</time></trkpt><trkpt lat="35.852863" lon="8.4859546"><ele>584.0</ele><time>2026-05-01T15:38:25.115Z</time></trkpt><trkpt lat="35.8529395" lon="8.486157"><ele>584.0</ele><time>2026-05-01T15:38:26.12Z</time></trkpt><trkpt lat="35.853017" lon="8.4863563"><ele>584.0</ele><time>2026-05-01T15:38:27.12Z</time></trkpt><trkpt lat="35.8530953" lon="8.4865566"><ele>584.0</ele><time>2026-05-01T15:38:28.119Z</time></trkpt><trkpt lat="35.8531733" lon="8.4867539"><ele>584.0</ele><time>2026-05-01T15:38:29.103Z</time></trkpt><trkpt lat="35.8532514" lon="8.4869493"><ele>584.0</ele><time>2026-05-01T15:38:30.099Z</time></trkpt><trkpt lat="35.8533278" lon="8.4871444"><ele>585.0</ele><time>2026-05-01T15:38:31.115Z</time></trkpt><trkpt lat="35.8534053" lon="8.4873385"><ele>586.0</ele><time>2026-05-01T15:38:32.114Z</time></trkpt><trkpt lat="35.8534816" lon="8.4875312"><ele>587.0</ele><time>2026-05-01T15:38:33.103Z</time></trkpt><trkpt lat="35.8535566" lon="8.4877236"><ele>587.3333333333333</ele><time>2026-05-01T15:38:34.118Z</time></trkpt><trkpt lat="35.8536331" lon="8.4879202"><ele>587.6666666666666</ele><time>2026-05-01T15:38:35.109Z</time></trkpt><trkpt lat="35.8537105" lon="8.4881149"><ele>588.0</ele><time>2026-05-01T15:38:36.117Z</time></trkpt><trkpt lat="35.853788" lon="8.4883112"><ele>588.3333333333334</ele><time>2026-05-01T15:38:37.118Z</time></trkpt><trkpt lat="35.8538667" lon="8.4885092"><ele>588.6666666666667</ele><time>2026-05-01T15:38:38.116Z</time></trkpt><trkpt lat="35.8539413" lon="8.4887099"><ele>589.0</ele><time>2026-05-01T15:38:39.113Z</time></trkpt><trkpt lat="35.8540117" lon="8.4889102"><ele>589.3333333333334</ele><time>2026-05-01T15:38:40.108Z</time></trkpt><trkpt lat="35.8540726" lon="8.4891177"><ele>589.6666666666666</ele><time>2026-05-01T15:38:41.133Z</time></trkpt><trkpt lat="35.8541283" lon="8.4893265"><ele>590.0</ele><time>2026-05-01T15:38:42.117Z</time></trkpt><trkpt lat="35.8541807" lon="8.4895375"><ele>591.0</ele><time>2026-05-01T15:38:43.11Z</time></trkpt><trkpt lat="35.8542248" lon="8.4897513"><ele>592.0</ele><time>2026-05-01T15:38:44.111Z</time></trkpt><trkpt lat="35.8542583" lon="8.4899735"><ele>593.0</ele><time>2026-05-01T15:38:45.121Z</time></trkpt><trkpt lat="35.8542831" lon="8.4902017"><ele>593.0</ele><time>2026-05-01T15:38:46.112Z</time></trkpt><trkpt lat="35.8543064" lon="8.4904355"><ele>593.0</ele><time>2026-05-01T15:38:47.114Z</time></trkpt><trkpt lat="35.8543234" lon="8.4906726"><ele>593.0</ele><time>2026-05-01T15:38:48.105Z</time></trkpt><trkpt lat="35.8543361" lon="8.4909194"><ele>593.0</ele><time>2026-05-01T15:38:49.11Z</time></trkpt><trkpt lat="35.854342" lon="8.4911626"><ele>593.0</ele><time>2026-05-01T15:38:50.108Z</time></trkpt><trkpt lat="35.8543306" lon="8.4914144"><ele>593.0</ele><time>2026-05-01T15:38:51.114Z</time></trkpt><trkpt lat="35.8543102" lon="8.4916651"><ele>594.0</ele><time>2026-05-01T15:38:52.123Z</time></trkpt><trkpt lat="35.8542781" lon="8.4919168"><ele>595.0</ele><time>2026-05-01T15:38:53.12Z</time></trkpt><trkpt lat="35.8542408" lon="8.4921667"><ele>596.0</ele><time>2026-05-01T15:38:54.124Z</time></trkpt><trkpt lat="35.8541967" lon="8.4924161"><ele>596.6666666666666</ele><time>2026-05-01T15:38:55.121Z</time></trkpt><trkpt lat="35.8541525" lon="8.4926626"><ele>597.3333333333334</ele><time>2026-05-01T15:38:56.108Z</time></trkpt><trkpt lat="35.8541078" lon="8.4929094"><ele>598.0</ele><time>2026-05-01T15:38:57.118Z</time></trkpt><trkpt lat="35.8540637" lon="8.4931563"><ele>598.3333333333334</ele><time>2026-05-01T15:38:58.117Z</time></trkpt><trkpt lat="35.8540225" lon="8.4934042"><ele>598.6666666666666</ele><time>2026-05-01T15:38:59.102Z</time></trkpt><trkpt lat="35.8539816" lon="8.4936501"><ele>599.0</ele><time>2026-05-01T15:39:00.103Z</time></trkpt><trkpt lat="35.853939" lon="8.4938939"><ele>599.0</ele><time>2026-05-01T15:39:01.103Z</time></trkpt><trkpt lat="35.853897" lon="8.4941339"><ele>599.0</ele><time>2026-05-01T15:39:02.108Z</time></trkpt><trkpt lat="35.8538557" lon="8.4943684"><ele>599.0</ele><time>2026-05-01T15:39:03.102Z</time></trkpt><trkpt lat="35.8538174" lon="8.4946017"><ele>599.0</ele><time>2026-05-01T15:39:04.106Z</time></trkpt><trkpt lat="35.8537787" lon="8.4948349"><ele>599.0</ele><time>2026-05-01T15:39:05.109Z</time></trkpt><trkpt lat="35.8537391" lon="8.4950677"><ele>599.0</ele><time>2026-05-01T15:39:06.13Z</time></trkpt><trkpt lat="35.8536997" lon="8.4953021"><ele>599.3333333333333</ele><time>2026-05-01T15:39:07.123Z</time></trkpt><trkpt lat="35.8536594" lon="8.4955347"><ele>599.6666666666666</ele><time>2026-05-01T15:39:08.118Z</time></trkpt><trkpt lat="35.8536199" lon="8.4957655"><ele>600.0</ele><time>2026-05-01T15:39:09.111Z</time></trkpt><trkpt lat="35.8535791" lon="8.4959974"><ele>600.0</ele><time>2026-05-01T15:39:10.113Z</time></trkpt><trkpt lat="35.8535394" lon="8.4962295"><ele>600.0</ele><time>2026-05-01T15:39:11.108Z</time></trkpt><trkpt lat="35.8535022" lon="8.4964601"><ele>600.0</ele><time>2026-05-01T15:39:12.121Z</time></trkpt><trkpt lat="35.8534635" lon="8.4966937"><ele>600.3333333333334</ele><time>2026-05-01T15:39:13.123Z</time></trkpt><trkpt lat="35.8534238" lon="8.4969276"><ele>600.6666666666667</ele><time>2026-05-01T15:39:14.128Z</time></trkpt><trkpt lat="35.8533834" lon="8.4971611"><ele>601.0</ele><time>2026-05-01T15:39:15.119Z</time></trkpt><trkpt lat="35.8533419" lon="8.4973962"><ele>602.3333333333334</ele><time>2026-05-01T15:39:16.107Z</time></trkpt><trkpt lat="35.853301" lon="8.4976374"><ele>603.6666666666666</ele><time>2026-05-01T15:39:17.111Z</time></trkpt><trkpt lat="35.8532601" lon="8.4978821"><ele>605.0</ele><time>2026-05-01T15:39:18.123Z</time></trkpt><trkpt lat="35.8532198" lon="8.4981267"><ele>606.3333333333333</ele><time>2026-05-01T15:39:19.101Z</time></trkpt><trkpt lat="35.8531793" lon="8.4983687"><ele>607.6666666666666</ele><time>2026-05-01T15:39:20.091Z</time></trkpt><trkpt lat="35.8531406" lon="8.4986129"><ele>609.0</ele><time>2026-05-01T15:39:21.093Z</time></trkpt><trkpt lat="35.8530996" lon="8.498858"><ele>609.3333333333334</ele><time>2026-05-01T15:39:22.097Z</time></trkpt><trkpt lat="35.8530574" lon="8.4991008"><ele>609.6666666666667</ele><time>2026-05-01T15:39:23.095Z</time></trkpt><trkpt lat="35.8530158" lon="8.4993443"><ele>610.0</ele><time>2026-05-01T15:39:24.114Z</time></trkpt><trkpt lat="35.8529726" lon="8.4995884"><ele>610.0</ele><time>2026-05-01T15:39:25.124Z</time></trkpt><trkpt lat="35.8529315" lon="8.4998298"><ele>610.0</ele><time>2026-05-01T15:39:26.105Z</time></trkpt><trkpt lat="35.8528906" lon="8.5000725"><ele>610.0</ele><time>2026-05-01T15:39:27.106Z</time></trkpt><trkpt lat="35.8528469" lon="8.5003136"><ele>611.0</ele><time>2026-05-01T15:39:28.118Z</time></trkpt><trkpt lat="35.852805" lon="8.5005526"><ele>612.0</ele><time>2026-05-01T15:39:29.108Z</time></trkpt><trkpt lat="35.8527637" lon="8.5007925"><ele>613.0</ele><time>2026-05-01T15:39:30.119Z</time></trkpt><trkpt lat="35.8527261" lon="8.5010333"><ele>613.0</ele><time>2026-05-01T15:39:31.117Z</time></trkpt><trkpt lat="35.8526896" lon="8.5012706"><ele>613.0</ele><time>2026-05-01T15:39:32.11Z</time></trkpt><trkpt lat="35.8526532" lon="8.5015039"><ele>613.0</ele><time>2026-05-01T15:39:33.107Z</time></trkpt><trkpt lat="35.852615" lon="8.5017374"><ele>613.0</ele><time>2026-05-01T15:39:34.12Z</time></trkpt><trkpt lat="35.8525748" lon="8.5019656"><ele>613.0</ele><time>2026-05-01T15:39:35.114Z</time></trkpt><trkpt lat="35.8525356" lon="8.502193"><ele>613.0</ele><time>2026-05-01T15:39:36.112Z</time></trkpt><trkpt lat="35.8524974" lon="8.5024169"><ele>614.3333333333334</ele><time>2026-05-01T15:39:37.119Z</time></trkpt><trkpt lat="35.8524612" lon="8.502641"><ele>615.6666666666666</ele><time>2026-05-01T15:39:38.125Z</time></trkpt><trkpt lat="35.8524287" lon="8.5028665"><ele>617.0</ele><time>2026-05-01T15:39:39.101Z</time></trkpt><trkpt lat="35.8523999" lon="8.5030909"><ele>618.6666666666666</ele><time>2026-05-01T15:39:40.119Z</time></trkpt><trkpt lat="35.8523747" lon="8.5033176"><ele>620.3333333333334</ele><time>2026-05-01T15:39:41.122Z</time></trkpt><trkpt lat="35.852356" lon="8.5035456"><ele>622.0</ele><time>2026-05-01T15:39:42.112Z</time></trkpt><trkpt lat="35.8523429" lon="8.5037794"><ele>624.3333333333334</ele><time>2026-05-01T15:39:43.117Z</time></trkpt><trkpt lat="35.8523321" lon="8.5040165"><ele>626.6666666666666</ele><time>2026-05-01T15:39:44.101Z</time></trkpt><trkpt lat="35.8523255" lon="8.5042552"><ele>629.0</ele><time>2026-05-01T15:39:45.12Z</time></trkpt><trkpt lat="35.8523218" lon="8.5045026"><ele>630.3333333333333</ele><time>2026-05-01T15:39:46.127Z</time></trkpt><trkpt lat="35.8523209" lon="8.504752"><ele>631.6666666666666</ele><time>2026-05-01T15:39:47.121Z</time></trkpt><trkpt lat="35.8523212" lon="8.5050068"><ele>633.0</ele><time>2026-05-01T15:39:48.119Z</time></trkpt><trkpt lat="35.852325" lon="8.5052601"><ele>633.0</ele><time>2026-05-01T15:39:49.117Z</time></trkpt><trkpt lat="35.8523295" lon="8.5055138"><ele>633.0</ele><time>2026-05-01T15:39:50.12Z</time></trkpt><trkpt lat="35.8523337" lon="8.5057681"><ele>633.0</ele><time>2026-05-01T15:39:51.116Z</time></trkpt><trkpt lat="35.8523389" lon="8.5060185"><ele>633.0</ele><time>2026-05-01T15:39:52.115Z</time></trkpt><trkpt lat="35.8523411" lon="8.5062737"><ele>633.0</ele><time>2026-05-01T15:39:53.123Z</time></trkpt><trkpt lat="35.8523451" lon="8.5065241"><ele>633.0</ele><time>2026-05-01T15:39:54.12Z</time></trkpt><trkpt lat="35.8523467" lon="8.5067737"><ele>633.0</ele><time>2026-05-01T15:39:55.1Z</time></trkpt><trkpt lat="35.8523468" lon="8.5070246"><ele>633.0</ele><time>2026-05-01T15:39:56.115Z</time></trkpt><trkpt lat="35.8523475" lon="8.5072782"><ele>633.0</ele><time>2026-05-01T15:39:57.119Z</time></trkpt><trkpt lat="35.8523517" lon="8.5075327"><ele>632.6666666666666</ele><time>2026-05-01T15:39:58.111Z</time></trkpt><trkpt lat="35.852357" lon="8.5077885"><ele>632.3333333333333</ele><time>2026-05-01T15:39:59.106Z</time></trkpt><trkpt lat="35.8523606" lon="8.5080462"><ele>632.0</ele><time>2026-05-01T15:40:00.102Z</time></trkpt><trkpt lat="35.8523646" lon="8.5083065"><ele>632.0</ele><time>2026-05-01T15:40:01.127Z</time></trkpt><trkpt lat="35.8523673" lon="8.5085661"><ele>632.0</ele><time>2026-05-01T15:40:02.102Z</time></trkpt><trkpt lat="35.8523697" lon="8.5088281"><ele>632.0</ele><time>2026-05-01T15:40:03.109Z</time></trkpt><trkpt lat="35.8523715" lon="8.5090914"><ele>631.6666666666666</ele><time>2026-05-01T15:40:04.115Z</time></trkpt><trkpt lat="35.8523744" lon="8.5093545"><ele>631.3333333333334</ele><time>2026-05-01T15:40:05.107Z</time></trkpt><trkpt lat="35.8523769" lon="8.5096185"><ele>631.0</ele><time>2026-05-01T15:40:06.124Z</time></trkpt><trkpt lat="35.852378" lon="8.5098835"><ele>630.0</ele><time>2026-05-01T15:40:07.118Z</time></trkpt><trkpt lat="35.8523807" lon="8.5101499"><ele>629.0</ele><time>2026-05-01T15:40:08.119Z</time></trkpt><trkpt lat="35.8523849" lon="8.5104166"><ele>628.0</ele><time>2026-05-01T15:40:09.129Z</time></trkpt><trkpt lat="35.8523894" lon="8.5106823"><ele>626.6666666666667</ele><time>2026-05-01T15:40:10.104Z</time></trkpt><trkpt lat="35.8523925" lon="8.5109492"><ele>625.3333333333334</ele><time>2026-05-01T15:40:11.122Z</time></trkpt><trkpt lat="35.8523963" lon="8.5112139"><ele>624.0</ele><time>2026-05-01T15:40:12.124Z</time></trkpt><trkpt lat="35.8523958" lon="8.5114779"><ele>624.0</ele><time>2026-05-01T15:40:13.117Z</time></trkpt><trkpt lat="35.8523961" lon="8.5117412"><ele>624.0</ele><time>2026-05-01T15:40:14.112Z</time></trkpt><trkpt lat="35.8523973" lon="8.5120055"><ele>624.0</ele><time>2026-05-01T15:40:15.109Z</time></trkpt><trkpt lat="35.8524006" lon="8.5122677"><ele>623.0</ele><time>2026-05-01T15:40:16.129Z</time></trkpt><trkpt lat="35.8524034" lon="8.5125295"><ele>622.0</ele><time>2026-05-01T15:40:17.126Z</time></trkpt><trkpt lat="35.8524054" lon="8.5127915"><ele>621.0</ele><time>2026-05-01T15:40:18.108Z</time></trkpt><trkpt lat="35.8524075" lon="8.5130562"><ele>620.6666666666666</ele><time>2026-05-01T15:40:19.119Z</time></trkpt><trkpt lat="35.8524104" lon="8.5133216"><ele>620.3333333333333</ele><time>2026-05-01T15:40:20.112Z</time></trkpt><trkpt lat="35.8524116" lon="8.5135861"><ele>620.0</ele><time>2026-05-01T15:40:21.122Z</time></trkpt><trkpt lat="35.8524141" lon="8.513851"><ele>619.6666666666666</ele><time>2026-05-01T15:40:22.113Z</time></trkpt><trkpt lat="35.852416" lon="8.5141181"><ele>619.3333333333334</ele><time>2026-05-01T15:40:23.1Z</time></trkpt><trkpt lat="35.8524158" lon="8.5143849"><ele>619.0</ele><time>2026-05-01T15:40:24.129Z</time></trkpt><trkpt lat="35.8524186" lon="8.5146542"><ele>617.3333333333334</ele><time>2026-05-01T15:40:25.131Z</time></trkpt><trkpt lat="35.8524217" lon="8.5149251"><ele>615.6666666666666</ele><time>2026-05-01T15:40:26.117Z</time></trkpt><trkpt lat="35.8524254" lon="8.5151931"><ele>614.0</ele><time>2026-05-01T15:40:27.124Z</time></trkpt><trkpt lat="35.8524277" lon="8.5154647"><ele>613.6666666666666</ele><time>2026-05-01T15:40:28.106Z</time></trkpt><trkpt lat="35.8524294" lon="8.5157364"><ele>613.3333333333334</ele><time>2026-05-01T15:40:29.116Z</time></trkpt><trkpt lat="35.8524307" lon="8.5160098"><ele>613.0</ele><time>2026-05-01T15:40:30.104Z</time></trkpt><trkpt lat="35.8524341" lon="8.5162868"><ele>613.0</ele><time>2026-05-01T15:40:31.113Z</time></trkpt><trkpt lat="35.8524377" lon="8.5165672"><ele>613.0</ele><time>2026-05-01T15:40:32.118Z</time></trkpt><trkpt lat="35.8524423" lon="8.5168489"><ele>611.5</ele><time>2026-05-01T15:40:33.104Z</time></trkpt><trkpt lat="35.8524457" lon="8.5171298"><ele>610.0</ele><time>2026-05-01T15:40:34.115Z</time></trkpt><trkpt lat="35.852449" lon="8.5174126"><ele>610.0</ele><time>2026-05-01T15:40:35.117Z</time></trkpt><trkpt lat="35.8524521" lon="8.5176943"><ele>610.0</ele><time>2026-05-01T15:40:36.124Z</time></trkpt><trkpt lat="35.8524555" lon="8.5179773"><ele>608.5</ele><time>2026-05-01T15:40:37.124Z</time></trkpt><trkpt lat="35.8524584" lon="8.5182585"><ele>607.0</ele><time>2026-05-01T15:40:38.119Z</time></trkpt><trkpt lat="35.8524597" lon="8.5185355"><ele>606.0</ele><time>2026-05-01T15:40:39.126Z</time></trkpt><trkpt lat="35.8524627" lon="8.5188084"><ele>605.0</ele><time>2026-05-01T15:40:40.126Z</time></trkpt><trkpt lat="35.8524667" lon="8.5190796"><ele>604.0</ele><time>2026-05-01T15:40:41.12Z</time></trkpt><trkpt lat="35.8524697" lon="8.519348"><ele>603.6666666666667</ele><time>2026-05-01T15:40:42.11Z</time></trkpt><trkpt lat="35.852472" lon="8.5196137"><ele>603.3333333333334</ele><time>2026-05-01T15:40:43.12Z</time></trkpt><trkpt lat="35.852473" lon="8.519875"><ele>603.0</ele><time>2026-05-01T15:40:44.106Z</time></trkpt><trkpt lat="35.8524769" lon="8.5201353"><ele>603.0</ele><time>2026-05-01T15:40:45.117Z</time></trkpt><trkpt lat="35.8524807" lon="8.5203932"><ele>603.0</ele><time>2026-05-01T15:40:46.104Z</time></trkpt><trkpt lat="35.8524836" lon="8.5206504"><ele>603.0</ele><time>2026-05-01T15:40:47.124Z</time></trkpt><trkpt lat="35.8524886" lon="8.520905"><ele>603.0</ele><time>2026-05-01T15:40:48.116Z</time></trkpt><trkpt lat="35.8524915" lon="8.5211625"><ele>603.0</ele><time>2026-05-01T15:40:49.12Z</time></trkpt><trkpt lat="35.8524948" lon="8.5214182"><ele>603.0</ele><time>2026-05-01T15:40:50.116Z</time></trkpt><trkpt lat="35.8524965" lon="8.521673"><ele>602.6666666666666</ele><time>2026-05-01T15:40:51.115Z</time></trkpt><trkpt lat="35.8524976" lon="8.5219278"><ele>602.3333333333333</ele><time>2026-05-01T15:40:52.115Z</time></trkpt><trkpt lat="35.8525002" lon="8.5221839"><ele>602.0</ele><time>2026-05-01T15:40:53.112Z</time></trkpt><trkpt lat="35.8525022" lon="8.5224399"><ele>603.0</ele><time>2026-05-01T15:40:54.117Z</time></trkpt><trkpt lat="35.8525065" lon="8.5226934"><ele>604.0</ele><time>2026-05-01T15:40:55.12Z</time></trkpt><trkpt lat="35.8525097" lon="8.5229484"><ele>605.0</ele><time>2026-05-01T15:40:56.107Z</time></trkpt><trkpt lat="35.8525116" lon="8.5232012"><ele>605.6666666666666</ele><time>2026-05-01T15:40:57.101Z</time></trkpt><trkpt lat="35.8525135" lon="8.5234586"><ele>606.3333333333334</ele><time>2026-05-01T15:40:58.108Z</time></trkpt><trkpt lat="35.8525148" lon="8.5237131"><ele>607.0</ele><time>2026-05-01T15:40:59.12Z</time></trkpt><trkpt lat="35.8525155" lon="8.5239661"><ele>607.0</ele><time>2026-05-01T15:41:00.121Z</time></trkpt><trkpt lat="35.8525158" lon="8.5242234"><ele>607.0</ele><time>2026-05-01T15:41:01.117Z</time></trkpt><trkpt lat="35.8525172" lon="8.5244785"><ele>607.0</ele><time>2026-05-01T15:41:02.104Z</time></trkpt><trkpt lat="35.8525164" lon="8.5247353"><ele>606.6666666666667</ele><time>2026-05-01T15:41:03.107Z</time></trkpt><trkpt lat="35.8525178" lon="8.5249932"><ele>606.3333333333334</ele><time>2026-05-01T15:41:04.105Z</time></trkpt><trkpt lat="35.8525202" lon="8.5252515"><ele>606.0</ele><time>2026-05-01T15:41:05.123Z</time></trkpt><trkpt lat="35.8525228" lon="8.5255096"><ele>605.3333333333334</ele><time>2026-05-01T15:41:06.106Z</time></trkpt><trkpt lat="35.8525269" lon="8.5257698"><ele>604.6666666666667</ele><time>2026-05-01T15:41:07.112Z</time></trkpt><trkpt lat="35.8525301" lon="8.5260308"><ele>604.0</ele><time>2026-05-01T15:41:08.109Z</time></trkpt><trkpt lat="35.8525336" lon="8.526294"><ele>604.0</ele><time>2026-05-01T15:41:09.109Z</time></trkpt><trkpt lat="35.8525378" lon="8.5265591"><ele>604.0</ele><time>2026-05-01T15:41:10.119Z</time></trkpt><trkpt lat="35.8525398" lon="8.5268245"><ele>604.0</ele><time>2026-05-01T15:41:11.115Z</time></trkpt><trkpt lat="35.8525404" lon="8.5270885"><ele>605.3333333333334</ele><time>2026-05-01T15:41:12.12Z</time></trkpt><trkpt lat="35.8525422" lon="8.5273517"><ele>606.6666666666666</ele><time>2026-05-01T15:41:13.105Z</time></trkpt><trkpt lat="35.852543" lon="8.5276136"><ele>608.0</ele><time>2026-05-01T15:41:14.109Z</time></trkpt><trkpt lat="35.8525442" lon="8.5278764"><ele>608.0</ele><time>2026-05-01T15:41:15.108Z</time></trkpt><trkpt lat="35.8525458" lon="8.5281387"><ele>608.0</ele><time>2026-05-01T15:41:16.122Z</time></trkpt><trkpt lat="35.8525508" lon="8.5284009"><ele>608.0</ele><time>2026-05-01T15:41:17.096Z</time></trkpt><trkpt lat="35.8525553" lon="8.5286618"><ele>608.6666666666666</ele><time>2026-05-01T15:41:18.111Z</time></trkpt><trkpt lat="35.852559" lon="8.5289239"><ele>609.3333333333334</ele><time>2026-05-01T15:41:19.108Z</time></trkpt><trkpt lat="35.8525628" lon="8.529186"><ele>610.0</ele><time>2026-05-01T15:41:20.1Z</time></trkpt><trkpt lat="35.8525668" lon="8.5294508"><ele>608.6666666666667</ele><time>2026-05-01T15:41:21.121Z</time></trkpt><trkpt lat="35.8525696" lon="8.5297191"><ele>607.3333333333334</ele><time>2026-05-01T15:41:22.114Z</time></trkpt><trkpt lat="35.8525704" lon="8.5299897"><ele>606.0</ele><time>2026-05-01T15:41:23.1Z</time></trkpt><trkpt lat="35.852574" lon="8.5302619"><ele>605.6666666666666</ele><time>2026-05-01T15:41:24.113Z</time></trkpt><trkpt lat="35.8525748" lon="8.5305354"><ele>605.3333333333333</ele><time>2026-05-01T15:41:25.114Z</time></trkpt><trkpt lat="35.8525724" lon="8.5308082"><ele>605.0</ele><time>2026-05-01T15:41:26.11Z</time></trkpt><trkpt lat="35.8525681" lon="8.5310814"><ele>604.6666666666666</ele><time>2026-05-01T15:41:27.106Z</time></trkpt><trkpt lat="35.8525638" lon="8.5313559"><ele>604.3333333333334</ele><time>2026-05-01T15:41:28.108Z</time></trkpt><trkpt lat="35.8525566" lon="8.531631"><ele>604.0</ele><time>2026-05-01T15:41:29.12Z</time></trkpt><trkpt lat="35.8525511" lon="8.5319076"><ele>604.3333333333334</ele><time>2026-05-01T15:41:30.115Z</time></trkpt><trkpt lat="35.8525443" lon="8.5321826"><ele>604.6666666666666</ele><time>2026-05-01T15:41:31.106Z</time></trkpt><trkpt lat="35.8525368" lon="8.5324599"><ele>605.0</ele><time>2026-05-01T15:41:32.109Z</time></trkpt><trkpt lat="35.8525289" lon="8.5327336"><ele>604.0</ele><time>2026-05-01T15:41:33.094Z</time></trkpt><trkpt lat="35.8525251" lon="8.533008"><ele>603.0</ele><time>2026-05-01T15:41:34.106Z</time></trkpt><trkpt lat="35.8525219" lon="8.53328"><ele>602.0</ele><time>2026-05-01T15:41:35.122Z</time></trkpt><trkpt lat="35.8525158" lon="8.5335493"><ele>601.3333333333333</ele><time>2026-05-01T15:41:36.109Z</time></trkpt><trkpt lat="35.8525102" lon="8.5338159"><ele>600.6666666666666</ele><time>2026-05-01T15:41:37.113Z</time></trkpt><trkpt lat="35.8525047" lon="8.5340794"><ele>600.0</ele><time>2026-05-01T15:41:38.12Z</time></trkpt><trkpt lat="35.8524992" lon="8.534342"><ele>599.6666666666666</ele><time>2026-05-01T15:41:39.106Z</time></trkpt><trkpt lat="35.8524927" lon="8.5346005"><ele>599.3333333333333</ele><time>2026-05-01T15:41:40.124Z</time></trkpt><trkpt lat="35.852488" lon="8.5348576"><ele>599.0</ele><time>2026-05-01T15:41:41.109Z</time></trkpt><trkpt lat="35.8524827" lon="8.5351138"><ele>599.0</ele><time>2026-05-01T15:41:42.122Z</time></trkpt><trkpt lat="35.8524767" lon="8.5353694"><ele>599.0</ele><time>2026-05-01T15:41:43.103Z</time></trkpt><trkpt lat="35.8524692" lon="8.5356211"><ele>599.0</ele><time>2026-05-01T15:41:44.108Z</time></trkpt><trkpt lat="35.8524633" lon="8.535869"><ele>599.3333333333333</ele><time>2026-05-01T15:41:45.119Z</time></trkpt><trkpt lat="35.8524575" lon="8.5361169"><ele>599.6666666666666</ele><time>2026-05-01T15:41:46.12Z</time></trkpt><trkpt lat="35.8524532" lon="8.5363612"><ele>600.0</ele><time>2026-05-01T15:41:47.115Z</time></trkpt><trkpt lat="35.852447" lon="8.5366034"><ele>600.6666666666666</ele><time>2026-05-01T15:41:48.109Z</time></trkpt><trkpt lat="35.852441" lon="8.5368451"><ele>601.3333333333333</ele><time>2026-05-01T15:41:49.117Z</time></trkpt><trkpt lat="35.8524354" lon="8.5370893"><ele>602.0</ele><time>2026-05-01T15:41:50.113Z</time></trkpt><trkpt lat="35.8524303" lon="8.5373324"><ele>602.3333333333333</ele><time>2026-05-01T15:41:51.11Z</time></trkpt><trkpt lat="35.852425" lon="8.5375779"><ele>602.6666666666666</ele><time>2026-05-01T15:41:52.102Z</time></trkpt><trkpt lat="35.852417" lon="8.5378202"><ele>603.0</ele><time>2026-05-01T15:41:53.094Z</time></trkpt><trkpt lat="35.8524124" lon="8.5380533"><ele>601.3333333333334</ele><time>2026-05-01T15:41:54.108Z</time></trkpt><trkpt lat="35.852407" lon="8.5382776"><ele>599.6666666666667</ele><time>2026-05-01T15:41:55.11Z</time></trkpt><trkpt lat="35.8524038" lon="8.5384961"><ele>598.0</ele><time>2026-05-01T15:41:56.103Z</time></trkpt><trkpt lat="35.8523995" lon="8.5387097"><ele>597.0</ele><time>2026-05-01T15:41:57.12Z</time></trkpt><trkpt lat="35.852394" lon="8.5389198"><ele>596.0</ele><time>2026-05-01T15:41:58.119Z</time></trkpt><trkpt lat="35.8523892" lon="8.5391239"><ele>595.0</ele><time>2026-05-01T15:41:59.121Z</time></trkpt><trkpt lat="35.8523856" lon="8.5393241"><ele>595.0</ele><time>2026-05-01T15:42:00.101Z</time></trkpt><trkpt lat="35.8523822" lon="8.5395193"><ele>595.0</ele><time>2026-05-01T15:42:01.123Z</time></trkpt><trkpt lat="35.8523773" lon="8.5397041"><ele>595.0</ele><time>2026-05-01T15:42:02.108Z</time></trkpt><trkpt lat="35.8523738" lon="8.5398854"><ele>594.5</ele><time>2026-05-01T15:42:03.099Z</time></trkpt><trkpt lat="35.8523689" lon="8.5400708"><ele>594.0</ele><time>2026-05-01T15:42:04.121Z</time></trkpt><trkpt lat="35.8523652" lon="8.5402522"><ele>593.5</ele><time>2026-05-01T15:42:05.12Z</time></trkpt><trkpt lat="35.8523607" lon="8.5404308"><ele>593.0</ele><time>2026-05-01T15:42:06.115Z</time></trkpt><trkpt lat="35.8523567" lon="8.5406099"><ele>592.5</ele><time>2026-05-01T15:42:07.114Z</time></trkpt><trkpt lat="35.8523535" lon="8.5407882"><ele>592.0</ele><time>2026-05-01T15:42:08.111Z</time></trkpt><trkpt lat="35.8523505" lon="8.5409628"><ele>591.5</ele><time>2026-05-01T15:42:09.101Z</time></trkpt><trkpt lat="35.8523483" lon="8.5411348"><ele>591.0</ele><time>2026-05-01T15:42:10.106Z</time></trkpt><trkpt lat="35.8523447" lon="8.5413019"><ele>590.75</ele><time>2026-05-01T15:42:11.113Z</time></trkpt><trkpt lat="35.8523423" lon="8.5414623"><ele>590.5</ele><time>2026-05-01T15:42:12.105Z</time></trkpt><trkpt lat="35.852339" lon="8.5416192"><ele>590.25</ele><time>2026-05-01T15:42:13.113Z</time></trkpt><trkpt lat="35.8523343" lon="8.5417705"><ele>590.0</ele><time>2026-05-01T15:42:14.104Z</time></trkpt><trkpt lat="35.8523322" lon="8.5419143"><ele>590.4</ele><time>2026-05-01T15:42:15.109Z</time></trkpt><trkpt lat="35.8523284" lon="8.5420533"><ele>590.8</ele><time>2026-05-01T15:42:16.093Z</time></trkpt><trkpt lat="35.852325" lon="8.5421911"><ele>591.2</ele><time>2026-05-01T15:42:17.103Z</time></trkpt><trkpt lat="35.8523228" lon="8.5423254"><ele>591.6</ele><time>2026-05-01T15:42:18.122Z</time></trkpt><trkpt lat="35.8523202" lon="8.5424534"><ele>592.0</ele><time>2026-05-01T15:42:19.122Z</time></trkpt><trkpt lat="35.8523194" lon="8.5425748"><ele>592.0</ele><time>2026-05-01T15:42:20.099Z</time></trkpt><trkpt lat="35.8523166" lon="8.5426926"><ele>592.0</ele><time>2026-05-01T15:42:21.116Z</time></trkpt><trkpt lat="35.8523118" lon="8.5428046"><ele>592.0</ele><time>2026-05-01T15:42:22.112Z</time></trkpt><trkpt lat="35.8523104" lon="8.5429194"><ele>592.0</ele><time>2026-05-01T15:42:23.114Z</time></trkpt><trkpt lat="35.8523067" lon="8.5430313"><ele>592.0</ele><time>2026-05-01T15:42:24.099Z</time></trkpt><trkpt lat="35.8523056" lon="8.5431376"><ele>592.0</ele><time>2026-05-01T15:42:25.107Z</time></trkpt><trkpt lat="35.8523048" lon="8.5432406"><ele>592.0</ele><time>2026-05-01T15:42:26.111Z</time></trkpt><trkpt lat="35.8523021" lon="8.5433412"><ele>592.0</ele><time>2026-05-01T15:42:27.103Z</time></trkpt><trkpt lat="35.8523008" lon="8.5434426"><ele>592.0</ele><time>2026-05-01T15:42:28.107Z</time></trkpt><trkpt lat="35.8522995" lon="8.5435462"><ele>592.0</ele><time>2026-05-01T15:42:29.122Z</time></trkpt><trkpt lat="35.8522952" lon="8.5436489"><ele>592.0</ele><time>2026-05-01T15:42:30.093Z</time></trkpt><trkpt lat="35.8522937" lon="8.5437566"><ele>592.0</ele><time>2026-05-01T15:42:31.104Z</time></trkpt><trkpt lat="35.8522919" lon="8.54387"><ele>592.0</ele><time>2026-05-01T15:42:32.098Z</time></trkpt><trkpt lat="35.8522886" lon="8.5439855"><ele>592.0</ele><time>2026-05-01T15:42:33.114Z</time></trkpt><trkpt lat="35.8522851" lon="8.5441006"><ele>592.0</ele><time>2026-05-01T15:42:34.115Z</time></trkpt><trkpt lat="35.8522821" lon="8.5442206"><ele>592.0</ele><time>2026-05-01T15:42:35.119Z</time></trkpt><trkpt lat="35.8522778" lon="8.5443393"><ele>592.0</ele><time>2026-05-01T15:42:36.112Z</time></trkpt><trkpt lat="35.8522745" lon="8.5444643"><ele>592.0</ele><time>2026-05-01T15:42:37.104Z</time></trkpt><trkpt lat="35.852271" lon="8.5445939"><ele>592.0</ele><time>2026-05-01T15:42:38.119Z</time></trkpt><trkpt lat="35.8522659" lon="8.5447247"><ele>592.0</ele><time>2026-05-01T15:42:39.095Z</time></trkpt><trkpt lat="35.8522625" lon="8.5448575"><ele>592.0</ele><time>2026-05-01T15:42:40.103Z</time></trkpt><trkpt lat="35.8522604" lon="8.5449876"><ele>592.1666666666667</ele><time>2026-05-01T15:42:41.113Z</time></trkpt><trkpt lat="35.8522594" lon="8.5451075"><ele>592.3333333333334</ele><time>2026-05-01T15:42:42.138Z</time></trkpt><trkpt lat="35.8522614" lon="8.5452142"><ele>592.5</ele><time>2026-05-01T15:42:43.106Z</time></trkpt><trkpt lat="35.8522613" lon="8.5453097"><ele>592.6666666666666</ele><time>2026-05-01T15:42:44.101Z</time></trkpt><trkpt lat="35.8522601" lon="8.5453978"><ele>592.8333333333333</ele><time>2026-05-01T15:42:45.114Z</time></trkpt><trkpt lat="35.8522569" lon="8.5454945"><ele>593.0</ele><time>2026-05-01T15:42:46.119Z</time></trkpt><trkpt lat="35.8522535" lon="8.5455882"><ele>593.1666666666666</ele><time>2026-05-01T15:42:47.123Z</time></trkpt><trkpt lat="35.8522516" lon="8.5456881"><ele>593.3333333333333</ele><time>2026-05-01T15:42:48.111Z</time></trkpt><trkpt lat="35.8522488" lon="8.5457891"><ele>593.5</ele><time>2026-05-01T15:42:49.118Z</time></trkpt><trkpt lat="35.8522462" lon="8.5458909"><ele>593.6666666666666</ele><time>2026-05-01T15:42:50.105Z</time></trkpt><trkpt lat="35.8522429" lon="8.5459916"><ele>593.8333333333334</ele><time>2026-05-01T15:42:51.116Z</time></trkpt><trkpt lat="35.8522439" lon="8.5460917"><ele>594.0</ele><time>2026-05-01T15:42:52.115Z</time></trkpt><trkpt lat="35.8522474" lon="8.5461905"><ele>594.0</ele><time>2026-05-01T15:42:53.116Z</time></trkpt><trkpt lat="35.8522507" lon="8.5462853"><ele>594.0</ele><time>2026-05-01T15:42:54.112Z</time></trkpt><trkpt lat="35.8522498" lon="8.5463703"><ele>594.0</ele><time>2026-05-01T15:42:55.092Z</time></trkpt><trkpt lat="35.8522459" lon="8.5464502"><ele>594.0</ele><time>2026-05-01T15:42:56.109Z</time></trkpt><trkpt lat="35.8522349" lon="8.5466013"><ele>594.0</ele><time>2026-05-01T15:42:58.124Z</time></trkpt><trkpt lat="35.8522221" lon="8.5467303"><ele>594.0</ele><time>2026-05-01T15:43:00.096Z</time></trkpt><trkpt lat="35.8522033" lon="8.5468278"><ele>594.0</ele><time>2026-05-01T15:43:02.111Z</time></trkpt><trkpt lat="35.8521712" lon="8.5469106"><ele>594.0</ele><time>2026-05-01T15:43:04.11Z</time></trkpt><trkpt lat="35.8521258" lon="8.5469997"><ele>594.0</ele><time>2026-05-01T15:43:07.11Z</time></trkpt><trkpt lat="35.8521244" lon="8.5470828"><ele>593.0</ele><time>2026-05-01T15:44:09.045Z</time></trkpt></trkseg><trkseg><trkpt lat="36.5026512" lon="8.7794807"><ele>142.0</ele><time>2026-05-01T19:12:28.017Z</time></trkpt><trkpt lat="36.5026512" lon="8.7794807"><ele>142.0</ele><time>2026-05-01T19:12:28.017Z</time></trkpt></trkseg></trk></gpx>